<?xml version='1.0' encoding='UTF-8'?><gpx version="1.1" creator="JPX - https://github.com/jenetics/jpx" xmlns="http://www.topografix.com/GPX/1/1"><trk><trkseg><trkpt lat="43.43873361808273" lon="5.852553615530183"><ele>361.0</ele><time>2026-04-11T11:46:55Z</time></trkpt><trkpt lat="43.438792031790335" lon="5.852510982906919"><ele>361.0</ele><time>2026-04-11T11:47:39.999Z</time></trkpt><trkpt lat="43.4388322724276" lon="5.852345283918843"><ele>361.0</ele><time>2026-04-11T11:47:41.999Z</time></trkpt><trkpt lat="43.43883414340881" lon="5.852227823950334"><ele>361.0</ele><time>2026-04-11T11:47:42.999Z</time></trkpt><trkpt lat="43.438847915010214" lon="5.852106920773753"><ele>361.0</ele><time>2026-04-11T11:47:43.999Z</time></trkpt><trkpt lat="43.438870633708724" lon="5.8520088797924625"><ele>361.0</ele><time>2026-04-11T11:47:44.999Z</time></trkpt><trkpt lat="43.43893864939147" lon="5.851980174869497"><ele>362.4</ele><time>2026-04-11T11:47:45.999Z</time></trkpt><trkpt lat="43.43901001391316" lon="5.851979368305563"><ele>363.8</ele><time>2026-04-11T11:47:48.999Z</time></trkpt><trkpt lat="43.43913269281009" lon="5.852081900045613"><ele>365.2</ele><time>2026-04-11T11:47:50.999Z</time></trkpt><trkpt lat="43.439230804618944" lon="5.852152113830662"><ele>366.59999999999997</ele><time>2026-04-11T11:47:51.999Z</time></trkpt><trkpt lat="43.43932372547699" lon="5.85221035994027"><ele>368.0</ele><time>2026-04-11T11:47:52.999Z</time></trkpt><trkpt lat="43.439424611131635" lon="5.852271507690076"><ele>368.0</ele><time>2026-04-11T11:47:53.999Z</time></trkpt><trkpt lat="43.4395374192984" lon="5.852344234428056"><ele>368.0</ele><time>2026-04-11T11:47:54.999Z</time></trkpt><trkpt lat="43.439628875572716" lon="5.852399689602783"><ele>368.0</ele><time>2026-04-11T11:47:55.999Z</time></trkpt><trkpt lat="43.43969979496623" lon="5.8524418737818245"><ele>368.0</ele><time>2026-04-11T11:47:56.999Z</time></trkpt><trkpt lat="43.439766034931324" lon="5.852476610990131"><ele>368.0</ele><time>2026-04-11T11:47:57.999Z</time></trkpt><trkpt lat="43.43982478388827" lon="5.85250947893439"><ele>368.0</ele><time>2026-04-11T11:47:58.999Z</time></trkpt><trkpt lat="43.43992751946558" lon="5.852589899904007"><ele>365.59999999999997</ele><time>2026-04-11T11:48:00.999Z</time></trkpt><trkpt lat="43.440005026132134" lon="5.85270176098128"><ele>363.2</ele><time>2026-04-11T11:48:02.999Z</time></trkpt><trkpt lat="43.440032537558324" lon="5.8528526520006"><ele>360.8</ele><time>2026-04-11T11:48:04.999Z</time></trkpt><trkpt lat="43.4400085538409" lon="5.85295329663837"><ele>358.4</ele><time>2026-04-11T11:48:05.999Z</time></trkpt><trkpt lat="43.43998070753056" lon="5.853092070939362"><ele>356.0</ele><time>2026-04-11T11:48:06.999Z</time></trkpt><trkpt lat="43.439962469345126" lon="5.853267354606363"><ele>356.0</ele><time>2026-04-11T11:48:07.999Z</time></trkpt><trkpt lat="43.439976965689965" lon="5.853416669062986"><ele>356.0</ele><time>2026-04-11T11:48:08.999Z</time></trkpt><trkpt lat="43.4399905908862" lon="5.853532868940649"><ele>356.0</ele><time>2026-04-11T11:48:09.999Z</time></trkpt><trkpt lat="43.44001952922614" lon="5.853672324713182"><ele>356.0</ele><time>2026-04-11T11:48:12Z</time></trkpt><trkpt lat="43.44002299490241" lon="5.8538232054750825"><ele>356.0</ele><time>2026-04-11T11:48:14Z</time></trkpt><trkpt lat="43.440003861160875" lon="5.853915121264367"><ele>355.0</ele><time>2026-04-11T11:48:15Z</time></trkpt><trkpt lat="43.43998053756708" lon="5.854021360221884"><ele>354.0</ele><time>2026-04-11T11:48:16Z</time></trkpt><trkpt lat="43.439947372793945" lon="5.854156491173556"><ele>353.0</ele><time>2026-04-11T11:48:17Z</time></trkpt><trkpt lat="43.439914676348984" lon="5.854320989746838"><ele>352.0</ele><time>2026-04-11T11:48:18Z</time></trkpt><trkpt lat="43.43990924367615" lon="5.854481464179036"><ele>351.0</ele><time>2026-04-11T11:48:19Z</time></trkpt><trkpt lat="43.439920232432215" lon="5.85462599147779"><ele>350.6</ele><time>2026-04-11T11:48:20Z</time></trkpt><trkpt lat="43.439930750415485" lon="5.854759798734194"><ele>350.20000000000005</ele><time>2026-04-11T11:48:21Z</time></trkpt><trkpt lat="43.439923765428084" lon="5.854893640802216"><ele>349.79999999999995</ele><time>2026-04-11T11:48:22Z</time></trkpt><trkpt lat="43.43989743620108" lon="5.855021348193819"><ele>349.4</ele><time>2026-04-11T11:48:23Z</time></trkpt><trkpt lat="43.43986556846221" lon="5.855148466323344"><ele>349.0</ele><time>2026-04-11T11:48:24Z</time></trkpt><trkpt lat="43.43982946757818" lon="5.855276736716198"><ele>347.79999999999995</ele><time>2026-04-11T11:48:25Z</time></trkpt><trkpt lat="43.4397973149549" lon="5.855382210846536"><ele>346.59999999999997</ele><time>2026-04-11T11:48:26Z</time></trkpt><trkpt lat="43.43976856204753" lon="5.855479509240111"><ele>345.4</ele><time>2026-04-11T11:48:28Z</time></trkpt><trkpt lat="43.439871742600396" lon="5.855613883399302"><ele>344.2</ele><time>2026-04-11T11:48:31Z</time></trkpt><trkpt lat="43.43991374105735" lon="5.855697919144951"><ele>343.0</ele><time>2026-04-11T11:48:32Z</time></trkpt><trkpt lat="43.43994807490482" lon="5.855804643416301"><ele>343.0</ele><time>2026-04-11T11:48:33Z</time></trkpt><trkpt lat="43.439968779664675" lon="5.855923626309393"><ele>343.0</ele><time>2026-04-11T11:48:34Z</time></trkpt><trkpt lat="43.43998575485741" lon="5.856056414221682"><ele>343.0</ele><time>2026-04-11T11:48:35Z</time></trkpt><trkpt lat="43.439997768854916" lon="5.856175729495058"><ele>343.0</ele><time>2026-04-11T11:48:36Z</time></trkpt><trkpt lat="43.44000684673713" lon="5.856272492652511"><ele>343.0</ele><time>2026-04-11T11:48:37Z</time></trkpt><trkpt lat="43.440072169913705" lon="5.856404775175198"><ele>342.4</ele><time>2026-04-11T11:48:39Z</time></trkpt><trkpt lat="43.440174035285175" lon="5.856516791072777"><ele>341.79999999999995</ele><time>2026-04-11T11:48:41Z</time></trkpt><trkpt lat="43.440208791762856" lon="5.856613267306341"><ele>341.2</ele><time>2026-04-11T11:48:42Z</time></trkpt><trkpt lat="43.44026284444219" lon="5.856700651067266"><ele>340.6</ele><time>2026-04-11T11:48:43Z</time></trkpt><trkpt lat="43.44032745761544" lon="5.856760881271349"><ele>340.0</ele><time>2026-04-11T11:48:44Z</time></trkpt><trkpt lat="43.4403581170284" lon="5.856868614565577"><ele>340.0</ele><time>2026-04-11T11:48:46Z</time></trkpt><trkpt lat="43.44034568317706" lon="5.857003067529091"><ele>340.0</ele><time>2026-04-11T11:48:48Z</time></trkpt><trkpt lat="43.44037619357491" lon="5.857159310541059"><ele>340.0</ele><time>2026-04-11T11:48:50Z</time></trkpt><trkpt lat="43.44048602964063" lon="5.85731177457573"><ele>340.0</ele><time>2026-04-11T11:48:52Z</time></trkpt><trkpt lat="43.4405361260003" lon="5.857391306910802"><ele>340.0</ele><time>2026-04-11T11:48:53Z</time></trkpt><trkpt lat="43.440574295973335" lon="5.857461927013251"><ele>340.0</ele><time>2026-04-11T11:48:54Z</time></trkpt><trkpt lat="43.440641274737956" lon="5.857565651647114"><ele>340.0</ele><time>2026-04-11T11:48:56Z</time></trkpt><trkpt lat="43.440699430458814" lon="5.85766470948313"><ele>340.0</ele><time>2026-04-11T11:48:58Z</time></trkpt><trkpt lat="43.440754954584904" lon="5.857711448385622"><ele>340.0</ele><time>2026-04-11T11:49:00Z</time></trkpt><trkpt lat="43.440875051090494" lon="5.857734652391257"><ele>340.0</ele><time>2026-04-11T11:49:02Z</time></trkpt><trkpt lat="43.44094425236582" lon="5.857752432673726"><ele>340.0</ele><time>2026-04-11T11:49:03Z</time></trkpt><trkpt lat="43.44102056355277" lon="5.85777348703461"><ele>340.0</ele><time>2026-04-11T11:49:04Z</time></trkpt><trkpt lat="43.44112298803049" lon="5.857819473094386"><ele>340.0</ele><time>2026-04-11T11:49:05Z</time></trkpt><trkpt lat="43.441238856832754" lon="5.857871546296801"><ele>340.0</ele><time>2026-04-11T11:49:06Z</time></trkpt><trkpt lat="43.441352836701924" lon="5.85790943535408"><ele>340.0</ele><time>2026-04-11T11:49:07Z</time></trkpt><trkpt lat="43.44146782032909" lon="5.8579367490051375"><ele>339.0</ele><time>2026-04-11T11:49:08Z</time></trkpt><trkpt lat="43.44156331966888" lon="5.857955733692762"><ele>338.0</ele><time>2026-04-11T11:49:09Z</time></trkpt><trkpt lat="43.44163761893998" lon="5.857964429091613"><ele>337.0</ele><time>2026-04-11T11:49:10Z</time></trkpt><trkpt lat="43.44170710526746" lon="5.857966606699577"><ele>336.0</ele><time>2026-04-11T11:49:11Z</time></trkpt><trkpt lat="43.441777625127145" lon="5.857965163367298"><ele>335.0</ele><time>2026-04-11T11:49:12Z</time></trkpt><trkpt lat="43.44184284072202" lon="5.857944472556019"><ele>334.0</ele><time>2026-04-11T11:49:13Z</time></trkpt><trkpt lat="43.44191628467585" lon="5.857916172349442"><ele>334.0</ele><time>2026-04-11T11:49:14Z</time></trkpt><trkpt lat="43.4420000059286" lon="5.857922131971172"><ele>334.0</ele><time>2026-04-11T11:49:15Z</time></trkpt><trkpt lat="43.442073244768686" lon="5.85795912931174"><ele>334.0</ele><time>2026-04-11T11:49:16Z</time></trkpt><trkpt lat="43.442138083133635" lon="5.857998112138912"><ele>334.0</ele><time>2026-04-11T11:49:17Z</time></trkpt><trkpt lat="43.442201872323004" lon="5.858006489888779"><ele>334.0</ele><time>2026-04-11T11:49:18Z</time></trkpt><trkpt lat="43.44233444254723" lon="5.85803347540044"><ele>334.0</ele><time>2026-04-11T11:49:20Z</time></trkpt><trkpt lat="43.442420412580475" lon="5.858072525518791"><ele>333.4</ele><time>2026-04-11T11:49:21Z</time></trkpt><trkpt lat="43.442522660416216" lon="5.858115296324842"><ele>332.79999999999995</ele><time>2026-04-11T11:49:22Z</time></trkpt><trkpt lat="43.44260261040826" lon="5.858159878523939"><ele>332.20000000000005</ele><time>2026-04-11T11:49:23Z</time></trkpt><trkpt lat="43.442660973850465" lon="5.8582217547025985"><ele>331.6</ele><time>2026-04-11T11:49:24Z</time></trkpt><trkpt lat="43.44272868037646" lon="5.858332847578628"><ele>331.0</ele><time>2026-04-11T11:49:26Z</time></trkpt><trkpt lat="43.44282302655302" lon="5.8584331584256"><ele>331.75</ele><time>2026-04-11T11:49:28Z</time></trkpt><trkpt lat="43.4429156461129" lon="5.8584812497327965"><ele>332.5</ele><time>2026-04-11T11:49:28.999Z</time></trkpt><trkpt lat="43.443035415954775" lon="5.858544553488785"><ele>333.25</ele><time>2026-04-11T11:49:29.999Z</time></trkpt><trkpt lat="43.443166468058145" lon="5.858622436158613"><ele>334.0</ele><time>2026-04-11T11:49:30.999Z</time></trkpt><trkpt lat="43.443292702996374" lon="5.858698418951114"><ele>332.25</ele><time>2026-04-11T11:49:31.999Z</time></trkpt><trkpt lat="43.44340866752332" lon="5.858764353303674"><ele>330.5</ele><time>2026-04-11T11:49:32.999Z</time></trkpt><trkpt lat="43.44352887697387" lon="5.858816412753124"><ele>328.75</ele><time>2026-04-11T11:49:33.999Z</time></trkpt><trkpt lat="43.443667379568396" lon="5.858881424025319"><ele>327.0</ele><time>2026-04-11T11:49:34.999Z</time></trkpt><trkpt lat="43.44380482949222" lon="5.858945067326578"><ele>326.40000000000003</ele><time>2026-04-11T11:49:35.999Z</time></trkpt><trkpt lat="43.4439247546569" lon="5.859016010409388"><ele>325.8</ele><time>2026-04-11T11:49:36.999Z</time></trkpt><trkpt lat="43.44403600671474" lon="5.859082166040994"><ele>325.2</ele><time>2026-04-11T11:49:37.999Z</time></trkpt><trkpt lat="43.444124995815336" lon="5.8591409500996985"><ele>324.6</ele><time>2026-04-11T11:49:38.999Z</time></trkpt><trkpt lat="43.44419021647091" lon="5.859195258502211"><ele>324.0</ele><time>2026-04-11T11:49:39.999Z</time></trkpt><trkpt lat="43.44425016640885" lon="5.85929851822474"><ele>323.6</ele><time>2026-04-11T11:49:41.999Z</time></trkpt><trkpt lat="43.44425451594169" lon="5.859403484308753"><ele>323.2</ele><time>2026-04-11T11:50:27Z</time></trkpt><trkpt lat="43.444304078613044" lon="5.8594834920782635"><ele>322.8</ele><time>2026-04-11T11:50:28Z</time></trkpt><trkpt lat="43.444393420193514" lon="5.8595619929215506"><ele>322.40000000000003</ele><time>2026-04-11T11:50:29Z</time></trkpt><trkpt lat="43.44448368974922" lon="5.859609155103725"><ele>322.0</ele><time>2026-04-11T11:50:30Z</time></trkpt><trkpt lat="43.44459346862331" lon="5.85964509245852"><ele>322.0</ele><time>2026-04-11T11:50:31Z</time></trkpt><trkpt lat="43.44472048004388" lon="5.859684934371701"><ele>322.0</ele><time>2026-04-11T11:50:32Z</time></trkpt><trkpt lat="43.44483462362347" lon="5.859727065586897"><ele>322.0</ele><time>2026-04-11T11:50:33Z</time></trkpt><trkpt lat="43.444939295886975" lon="5.859768107368387"><ele>322.0</ele><time>2026-04-11T11:50:34Z</time></trkpt><trkpt lat="43.44505004140431" lon="5.859807840107691"><ele>322.0</ele><time>2026-04-11T11:50:35Z</time></trkpt><trkpt lat="43.44518918658084" lon="5.859861230289016"><ele>322.0</ele><time>2026-04-11T11:50:36Z</time></trkpt><trkpt lat="43.445348099542336" lon="5.859921279414383"><ele>322.0</ele><time>2026-04-11T11:50:37Z</time></trkpt><trkpt lat="43.44550809117602" lon="5.859981665188057"><ele>321.0</ele><time>2026-04-11T11:50:38Z</time></trkpt><trkpt lat="43.44567679303364" lon="5.8600457316403185"><ele>320.0</ele><time>2026-04-11T11:50:39Z</time></trkpt><trkpt lat="43.445866340341915" lon="5.860117083595827"><ele>319.0</ele><time>2026-04-11T11:50:40Z</time></trkpt><trkpt lat="43.4460386822983" lon="5.860180368049886"><ele>318.66666666666663</ele><time>2026-04-11T11:50:41Z</time></trkpt><trkpt lat="43.446197232383284" lon="5.86023621082732"><ele>318.3333333333333</ele><time>2026-04-11T11:50:42Z</time></trkpt><trkpt lat="43.446348737630856" lon="5.860290077422405"><ele>318.0</ele><time>2026-04-11T11:50:43Z</time></trkpt><trkpt lat="43.446493301411735" lon="5.860341918472377"><ele>318.0</ele><time>2026-04-11T11:50:44Z</time></trkpt><trkpt lat="43.44663221404759" lon="5.860396853606313"><ele>318.0</ele><time>2026-04-11T11:50:45Z</time></trkpt><trkpt lat="43.44677565239235" lon="5.860441664788485"><ele>318.0</ele><time>2026-04-11T11:50:46Z</time></trkpt><trkpt lat="43.44695025472868" lon="5.860516745199575"><ele>317.0</ele><time>2026-04-11T11:50:47Z</time></trkpt><trkpt lat="43.44713158641339" lon="5.8605866938454145"><ele>316.0</ele><time>2026-04-11T11:50:48Z</time></trkpt><trkpt lat="43.447294326389994" lon="5.860651554824294"><ele>315.0</ele><time>2026-04-11T11:50:49Z</time></trkpt><trkpt lat="43.4474407017846" lon="5.860704605850961"><ele>315.0</ele><time>2026-04-11T11:50:50Z</time></trkpt><trkpt lat="43.44757690536453" lon="5.86075376958626"><ele>315.0</ele><time>2026-04-11T11:50:51Z</time></trkpt><trkpt lat="43.44771116872043" lon="5.8607993036914605"><ele>315.0</ele><time>2026-04-11T11:50:52Z</time></trkpt><trkpt lat="43.44783992306423" lon="5.860824121183593"><ele>315.0</ele><time>2026-04-11T11:50:53Z</time></trkpt><trkpt lat="43.44796291407958" lon="5.860818810154013"><ele>314.5</ele><time>2026-04-11T11:50:54Z</time></trkpt><trkpt lat="43.448065842896945" lon="5.860806230163374"><ele>314.0</ele><time>2026-04-11T11:50:55Z</time></trkpt><trkpt lat="43.44814643657984" lon="5.860816833514521"><ele>313.5</ele><time>2026-04-11T11:50:56Z</time></trkpt><trkpt lat="43.44821094950189" lon="5.860868351959761"><ele>313.0</ele><time>2026-04-11T11:50:57Z</time></trkpt><trkpt lat="43.44823710481805" lon="5.860976132106402"><ele>312.5</ele><time>2026-04-11T11:50:58Z</time></trkpt><trkpt lat="43.44826325034846" lon="5.861066169792388"><ele>312.0</ele><time>2026-04-11T11:50:59Z</time></trkpt><trkpt lat="43.44829017861021" lon="5.86116674304791"><ele>312.0</ele><time>2026-04-11T11:51:00Z</time></trkpt><trkpt lat="43.44833620069928" lon="5.86128074651378"><ele>312.0</ele><time>2026-04-11T11:51:01Z</time></trkpt><trkpt lat="43.448386107000466" lon="5.861388447534323"><ele>312.0</ele><time>2026-04-11T11:51:02Z</time></trkpt><trkpt lat="43.44836373530538" lon="5.861597758239679"><ele>312.0</ele><time>2026-04-11T11:51:04Z</time></trkpt><trkpt lat="43.4482916371111" lon="5.861682499222166"><ele>312.0</ele><time>2026-04-11T11:51:05Z</time></trkpt><trkpt lat="43.448212354482216" lon="5.8617849300172855"><ele>312.0</ele><time>2026-04-11T11:51:06Z</time></trkpt><trkpt lat="43.448120444588966" lon="5.861889371325091"><ele>312.0</ele><time>2026-04-11T11:51:07Z</time></trkpt><trkpt lat="43.4480496783764" lon="5.861979672422197"><ele>312.0</ele><time>2026-04-11T11:51:08Z</time></trkpt><trkpt lat="43.44802812322917" lon="5.862083279994104"><ele>312.0</ele><time>2026-04-11T11:51:09Z</time></trkpt><trkpt lat="43.448056874909" lon="5.862192266358565"><ele>312.0</ele><time>2026-04-11T11:51:10Z</time></trkpt><trkpt lat="43.4481342175568" lon="5.862262377321323"><ele>312.0</ele><time>2026-04-11T11:51:11Z</time></trkpt><trkpt lat="43.44821532037835" lon="5.862327733978448"><ele>312.0</ele><time>2026-04-11T11:51:12Z</time></trkpt><trkpt lat="43.44830233696606" lon="5.862418460050003"><ele>312.0</ele><time>2026-04-11T11:51:13Z</time></trkpt><trkpt lat="43.44837935630562" lon="5.862524042205561"><ele>312.0</ele><time>2026-04-11T11:51:14Z</time></trkpt><trkpt lat="43.44843974508436" lon="5.862631889297375"><ele>312.0</ele><time>2026-04-11T11:51:15Z</time></trkpt><trkpt lat="43.44847833481257" lon="5.862730038577053"><ele>311.4</ele><time>2026-04-11T11:51:16Z</time></trkpt><trkpt lat="43.448503402432" lon="5.862826625512505"><ele>310.79999999999995</ele><time>2026-04-11T11:51:17Z</time></trkpt><trkpt lat="43.44852910571069" lon="5.862932473700572"><ele>310.2</ele><time>2026-04-11T11:51:18Z</time></trkpt><trkpt lat="43.448587177171326" lon="5.863043227535905"><ele>309.59999999999997</ele><time>2026-04-11T11:51:19Z</time></trkpt><trkpt lat="43.44866971960864" lon="5.863151661101441"><ele>309.0</ele><time>2026-04-11T11:51:20Z</time></trkpt><trkpt lat="43.4487552751349" lon="5.863236659959273"><ele>309.0</ele><time>2026-04-11T11:51:21Z</time></trkpt><trkpt lat="43.448837420055156" lon="5.863296808116787"><ele>309.0</ele><time>2026-04-11T11:51:22Z</time></trkpt><trkpt lat="43.44891908730223" lon="5.8633423206933575"><ele>309.0</ele><time>2026-04-11T11:51:23Z</time></trkpt><trkpt lat="43.4489974334096" lon="5.86339210825885"><ele>309.0</ele><time>2026-04-11T11:51:24Z</time></trkpt><trkpt lat="43.449084215031796" lon="5.863445812279827"><ele>309.0</ele><time>2026-04-11T11:51:25Z</time></trkpt><trkpt lat="43.449178538043085" lon="5.863503112675313"><ele>308.59999999999997</ele><time>2026-04-11T11:51:25.999Z</time></trkpt><trkpt lat="43.44927294543013" lon="5.863556341769299"><ele>308.2</ele><time>2026-04-11T11:51:26.999Z</time></trkpt><trkpt lat="43.449366373598316" lon="5.863614569829768"><ele>307.79999999999995</ele><time>2026-04-11T11:51:27.999Z</time></trkpt><trkpt lat="43.449457163096994" lon="5.863683659425425"><ele>307.4</ele><time>2026-04-11T11:51:28.999Z</time></trkpt><trkpt lat="43.449543645863045" lon="5.863747802193739"><ele>307.0</ele><time>2026-04-11T11:51:29.999Z</time></trkpt><trkpt lat="43.449625640798374" lon="5.863806856703539"><ele>306.8333333333333</ele><time>2026-04-11T11:51:30.999Z</time></trkpt><trkpt lat="43.44970699006731" lon="5.863863058166237"><ele>306.66666666666663</ele><time>2026-04-11T11:51:31.999Z</time></trkpt><trkpt lat="43.449782286456866" lon="5.863920491030461"><ele>306.5</ele><time>2026-04-11T11:51:32.999Z</time></trkpt><trkpt lat="43.44984880007566" lon="5.863988438148957"><ele>306.3333333333333</ele><time>2026-04-11T11:51:33.999Z</time></trkpt><trkpt lat="43.449895545305246" lon="5.864087793347224"><ele>306.1666666666667</ele><time>2026-04-11T11:51:34.999Z</time></trkpt><trkpt lat="43.44993443836887" lon="5.864207672578667"><ele>306.0</ele><time>2026-04-11T11:51:35.999Z</time></trkpt><trkpt lat="43.44998663147989" lon="5.864331004063054"><ele>305.8</ele><time>2026-04-11T11:51:36.999Z</time></trkpt><trkpt lat="43.450037441357914" lon="5.864439881780024"><ele>305.6</ele><time>2026-04-11T11:51:37.999Z</time></trkpt><trkpt lat="43.450103056404046" lon="5.864538567644578"><ele>305.4</ele><time>2026-04-11T11:51:38.999Z</time></trkpt><trkpt lat="43.45018476026047" lon="5.864644114337091"><ele>305.2</ele><time>2026-04-11T11:51:39.999Z</time></trkpt><trkpt lat="43.45026539537463" lon="5.864750960488944"><ele>305.0</ele><time>2026-04-11T11:51:40.999Z</time></trkpt><trkpt lat="43.450340023133926" lon="5.864851996268662"><ele>305.0</ele><time>2026-04-11T11:51:41.999Z</time></trkpt><trkpt lat="43.45041815333543" lon="5.864961784362161"><ele>305.0</ele><time>2026-04-11T11:51:42.999Z</time></trkpt><trkpt lat="43.45050319292274" lon="5.865070023050949"><ele>305.0</ele><time>2026-04-11T11:51:43.999Z</time></trkpt><trkpt lat="43.450594215235526" lon="5.865171778938961"><ele>305.0</ele><time>2026-04-11T11:51:44.999Z</time></trkpt><trkpt lat="43.45071568591624" lon="5.865281912760926"><ele>304.75</ele><time>2026-04-11T11:51:45.999Z</time></trkpt><trkpt lat="43.450862588649265" lon="5.865401760283493"><ele>304.5</ele><time>2026-04-11T11:51:46.999Z</time></trkpt><trkpt lat="43.450983236552496" lon="5.8655105868306485"><ele>304.25</ele><time>2026-04-11T11:51:47.999Z</time></trkpt><trkpt lat="43.45107910819526" lon="5.865599518525208"><ele>304.0</ele><time>2026-04-11T11:51:48.999Z</time></trkpt><trkpt lat="43.45115204094753" lon="5.865671582738848"><ele>304.0</ele><time>2026-04-11T11:51:49.999Z</time></trkpt><trkpt lat="43.451226777513746" lon="5.865767721217947"><ele>304.0</ele><time>2026-04-11T11:51:51.999Z</time></trkpt><trkpt lat="43.45127370380822" lon="5.865913113129544"><ele>304.0</ele><time>2026-04-11T11:51:53.999Z</time></trkpt><trkpt lat="43.45128478291912" lon="5.866001507612816"><ele>304.0</ele><time>2026-04-11T11:51:54.999Z</time></trkpt><trkpt lat="43.45139141898069" lon="5.866038698942418"><ele>304.0</ele><time>2026-04-11T11:51:56.999Z</time></trkpt><trkpt lat="43.451446046345" lon="5.865985539466988"><ele>303.59999999999997</ele><time>2026-04-11T11:51:57.999Z</time></trkpt><trkpt lat="43.45149646536213" lon="5.8659320466842795"><ele>303.2</ele><time>2026-04-11T11:51:58.999Z</time></trkpt><trkpt lat="43.45156933986118" lon="5.865918879762766"><ele>302.79999999999995</ele><time>2026-04-11T11:51:59.999Z</time></trkpt><trkpt lat="43.45165323316793" lon="5.86594568416964"><ele>302.4</ele><time>2026-04-11T11:52:00.999Z</time></trkpt><trkpt lat="43.4517534353078" lon="5.866021009707826"><ele>302.0</ele><time>2026-04-11T11:52:01.999Z</time></trkpt><trkpt lat="43.45186393493352" lon="5.8661362319398975"><ele>301.33333333333337</ele><time>2026-04-11T11:52:02.999Z</time></trkpt><trkpt lat="43.451977441839595" lon="5.8662669285674225"><ele>300.6666666666667</ele><time>2026-04-11T11:52:03.999Z</time></trkpt><trkpt lat="43.452091191032295" lon="5.866398479126778"><ele>300.0</ele><time>2026-04-11T11:52:04.999Z</time></trkpt><trkpt lat="43.452224660034176" lon="5.866541238074727"><ele>299.0</ele><time>2026-04-11T11:52:05.999Z</time></trkpt><trkpt lat="43.45235898102421" lon="5.866665128517096"><ele>298.0</ele><time>2026-04-11T11:52:06.999Z</time></trkpt><trkpt lat="43.45248473385891" lon="5.866776312435607"><ele>297.0</ele><time>2026-04-11T11:52:07.999Z</time></trkpt><trkpt lat="43.45259921672327" lon="5.8668851354793"><ele>296.5</ele><time>2026-04-11T11:52:08.999Z</time></trkpt><trkpt lat="43.45269253229342" lon="5.867021524655118"><ele>296.0</ele><time>2026-04-11T11:52:09.999Z</time></trkpt><trkpt lat="43.45276876227729" lon="5.867164758384832"><ele>295.5</ele><time>2026-04-11T11:52:10.999Z</time></trkpt><trkpt lat="43.452846273397206" lon="5.867278142919694"><ele>295.0</ele><time>2026-04-11T11:52:11.999Z</time></trkpt><trkpt lat="43.45291178708971" lon="5.8673603859800565"><ele>295.0</ele><time>2026-04-11T11:52:12.999Z</time></trkpt><trkpt lat="43.45297880961761" lon="5.86743987097018"><ele>295.0</ele><time>2026-04-11T11:52:14.999Z</time></trkpt><trkpt lat="43.453059018412986" lon="5.867568701337399"><ele>295.0</ele><time>2026-04-11T11:52:18.999Z</time></trkpt><trkpt lat="43.45312837973079" lon="5.867615121432722"><ele>295.0</ele><time>2026-04-11T11:52:19.999Z</time></trkpt><trkpt lat="43.4532326638923" lon="5.8676485731022"><ele>295.0</ele><time>2026-04-11T11:52:20.999Z</time></trkpt><trkpt lat="43.453341655848405" lon="5.867719782769197"><ele>294.75</ele><time>2026-04-11T11:52:21.999Z</time></trkpt><trkpt lat="43.45343688124937" lon="5.867803545992876"><ele>294.5</ele><time>2026-04-11T11:52:22.999Z</time></trkpt><trkpt lat="43.45354375301819" lon="5.867892003563183"><ele>294.25</ele><time>2026-04-11T11:52:24Z</time></trkpt><trkpt lat="43.453675040718835" lon="5.867998468542549"><ele>294.0</ele><time>2026-04-11T11:52:25Z</time></trkpt><trkpt lat="43.45380830497602" lon="5.868110184662189"><ele>293.3333333333333</ele><time>2026-04-11T11:52:26Z</time></trkpt><trkpt lat="43.45394184997035" lon="5.868231077932442"><ele>292.66666666666663</ele><time>2026-04-11T11:52:27Z</time></trkpt><trkpt lat="43.4540853302788" lon="5.868362625160336"><ele>292.0</ele><time>2026-04-11T11:52:28Z</time></trkpt><trkpt lat="43.45421877760028" lon="5.868511852806861"><ele>292.0</ele><time>2026-04-11T11:52:29Z</time></trkpt><trkpt lat="43.454354709568314" lon="5.8686867113552434"><ele>292.0</ele><time>2026-04-11T11:52:30Z</time></trkpt><trkpt lat="43.454477958974444" lon="5.868855035321451"><ele>292.0</ele><time>2026-04-11T11:52:31Z</time></trkpt><trkpt lat="43.45458906132535" lon="5.869029702311097"><ele>291.75</ele><time>2026-04-11T11:52:32Z</time></trkpt><trkpt lat="43.45469672223844" lon="5.869147168241649"><ele>291.5</ele><time>2026-04-11T11:52:33Z</time></trkpt><trkpt lat="43.45480184709756" lon="5.869264680704862"><ele>291.25</ele><time>2026-04-11T11:52:34Z</time></trkpt><trkpt lat="43.45490103361681" lon="5.869377791792906"><ele>291.0</ele><time>2026-04-11T11:52:35Z</time></trkpt><trkpt lat="43.45500180532785" lon="5.869497722397177"><ele>291.0</ele><time>2026-04-11T11:52:36Z</time></trkpt><trkpt lat="43.455109087313076" lon="5.869619856829226"><ele>291.0</ele><time>2026-04-11T11:52:37Z</time></trkpt><trkpt lat="43.45521801838873" lon="5.86974951291715"><ele>291.0</ele><time>2026-04-11T11:52:38Z</time></trkpt><trkpt lat="43.45529233684035" lon="5.869871984157015"><ele>291.0</ele><time>2026-04-11T11:52:39Z</time></trkpt><trkpt lat="43.455318368603386" lon="5.870020055880851"><ele>291.25</ele><time>2026-04-11T11:52:40Z</time></trkpt><trkpt lat="43.45534148617578" lon="5.87019861637391"><ele>291.5</ele><time>2026-04-11T11:52:41Z</time></trkpt><trkpt lat="43.45537990731924" lon="5.870383122268238"><ele>291.75</ele><time>2026-04-11T11:52:42Z</time></trkpt><trkpt lat="43.45544126350739" lon="5.870573814872219"><ele>292.0</ele><time>2026-04-11T11:52:43Z</time></trkpt><trkpt lat="43.45551188622551" lon="5.870763324104726"><ele>291.66666666666663</ele><time>2026-04-11T11:52:44Z</time></trkpt><trkpt lat="43.455578167072126" lon="5.87095193447386"><ele>291.3333333333333</ele><time>2026-04-11T11:52:45Z</time></trkpt><trkpt lat="43.45564440443054" lon="5.871147631303485"><ele>291.0</ele><time>2026-04-11T11:52:46Z</time></trkpt><trkpt lat="43.45570609883767" lon="5.871326379620065"><ele>291.0</ele><time>2026-04-11T11:52:47Z</time></trkpt><trkpt lat="43.45576746690274" lon="5.871489924033103"><ele>291.0</ele><time>2026-04-11T11:52:48Z</time></trkpt><trkpt lat="43.455821136245895" lon="5.871635910261358"><ele>291.0</ele><time>2026-04-11T11:52:49Z</time></trkpt><trkpt lat="43.45586902594477" lon="5.871779568810042"><ele>291.0</ele><time>2026-04-11T11:52:50Z</time></trkpt><trkpt lat="43.45592543543543" lon="5.871943365697125"><ele>291.0</ele><time>2026-04-11T11:52:51Z</time></trkpt><trkpt lat="43.455996185751815" lon="5.872111844838384"><ele>291.0</ele><time>2026-04-11T11:52:52Z</time></trkpt><trkpt lat="43.45609971757343" lon="5.872280270985914"><ele>291.0</ele><time>2026-04-11T11:52:53Z</time></trkpt><trkpt lat="43.45622303503683" lon="5.872439624413733"><ele>291.0</ele><time>2026-04-11T11:52:54Z</time></trkpt><trkpt lat="43.456366973213974" lon="5.872582425522434"><ele>291.0</ele><time>2026-04-11T11:52:55Z</time></trkpt><trkpt lat="43.45652110349027" lon="5.8727175383569"><ele>291.0</ele><time>2026-04-11T11:52:56Z</time></trkpt><trkpt lat="43.45667090529549" lon="5.872843062993406"><ele>291.0</ele><time>2026-04-11T11:52:57Z</time></trkpt><trkpt lat="43.45680615286737" lon="5.872960710724535"><ele>291.0</ele><time>2026-04-11T11:52:58Z</time></trkpt><trkpt lat="43.45694439784905" lon="5.873081224475146"><ele>291.0</ele><time>2026-04-11T11:52:59Z</time></trkpt><trkpt lat="43.457098586034085" lon="5.873215891819785"><ele>290.3333333333333</ele><time>2026-04-11T11:53:00Z</time></trkpt><trkpt lat="43.45724195717584" lon="5.873342061926451"><ele>289.66666666666663</ele><time>2026-04-11T11:53:01Z</time></trkpt><trkpt lat="43.45737208686444" lon="5.873457516641886"><ele>289.0</ele><time>2026-04-11T11:53:02Z</time></trkpt><trkpt lat="43.45747946951442" lon="5.873560097817214"><ele>289.0</ele><time>2026-04-11T11:53:03Z</time></trkpt><trkpt lat="43.45757228223091" lon="5.8736593966820925"><ele>289.0</ele><time>2026-04-11T11:53:04Z</time></trkpt><trkpt lat="43.45765902965388" lon="5.87375905184046"><ele>289.0</ele><time>2026-04-11T11:53:05Z</time></trkpt><trkpt lat="43.45772836377185" lon="5.873853706424696"><ele>289.0</ele><time>2026-04-11T11:53:06Z</time></trkpt><trkpt lat="43.4577792987568" lon="5.873940351292887"><ele>289.0</ele><time>2026-04-11T11:53:07Z</time></trkpt><trkpt lat="43.4578654938726" lon="5.874091484288887"><ele>289.0</ele><time>2026-04-11T11:53:09Z</time></trkpt><trkpt lat="43.45791314538602" lon="5.874208449165046"><ele>289.0</ele><time>2026-04-11T11:53:10Z</time></trkpt><trkpt lat="43.457987537764495" lon="5.87433075173556"><ele>289.0</ele><time>2026-04-11T11:53:11Z</time></trkpt><trkpt lat="43.45808362297048" lon="5.8744566025894605"><ele>289.0</ele><time>2026-04-11T11:53:12Z</time></trkpt><trkpt lat="43.45819943258269" lon="5.874586763794298"><ele>290.0</ele><time>2026-04-11T11:53:13Z</time></trkpt><trkpt lat="43.458333560382236" lon="5.874736097697086"><ele>291.0</ele><time>2026-04-11T11:53:14Z</time></trkpt><trkpt lat="43.458472047576414" lon="5.874868841614715"><ele>292.0</ele><time>2026-04-11T11:53:15Z</time></trkpt><trkpt lat="43.458618850266305" lon="5.875028182059427"><ele>292.0</ele><time>2026-04-11T11:53:16Z</time></trkpt><trkpt lat="43.45876967606489" lon="5.875203044967605"><ele>292.0</ele><time>2026-04-11T11:53:17Z</time></trkpt><trkpt lat="43.458929775878794" lon="5.875384551353483"><ele>292.0</ele><time>2026-04-11T11:53:18Z</time></trkpt><trkpt lat="43.459080836433095" lon="5.875558365318591"><ele>292.0</ele><time>2026-04-11T11:53:19Z</time></trkpt><trkpt lat="43.4592206418002" lon="5.875713590419472"><ele>292.0</ele><time>2026-04-11T11:53:20Z</time></trkpt><trkpt lat="43.45935444696573" lon="5.8758516085920265"><ele>292.0</ele><time>2026-04-11T11:53:21Z</time></trkpt><trkpt lat="43.459479285294314" lon="5.87597663522371"><ele>293.0</ele><time>2026-04-11T11:53:22Z</time></trkpt><trkpt lat="43.459594706886016" lon="5.876094597472565"><ele>294.0</ele><time>2026-04-11T11:53:23Z</time></trkpt><trkpt lat="43.459699197646906" lon="5.876192595035209"><ele>295.0</ele><time>2026-04-11T11:53:24Z</time></trkpt><trkpt lat="43.45977870454291" lon="5.8762486012109765"><ele>296.0</ele><time>2026-04-11T11:53:25Z</time></trkpt><trkpt lat="43.45984053763411" lon="5.876287962568966"><ele>297.0</ele><time>2026-04-11T11:53:25.999Z</time></trkpt><trkpt lat="43.459957213019806" lon="5.876336523348126"><ele>297.0</ele><time>2026-04-11T11:53:27.999Z</time></trkpt><trkpt lat="43.46003040656071" lon="5.876368810297206"><ele>297.0</ele><time>2026-04-11T11:53:28.999Z</time></trkpt><trkpt lat="43.46013763106202" lon="5.876388740250672"><ele>297.0</ele><time>2026-04-11T11:53:29.999Z</time></trkpt><trkpt lat="43.46025042969354" lon="5.876398357477151"><ele>297.0</ele><time>2026-04-11T11:53:30.999Z</time></trkpt><trkpt lat="43.460343626456996" lon="5.876455886896493"><ele>297.0</ele><time>2026-04-11T11:53:31.999Z</time></trkpt><trkpt lat="43.46039534966841" lon="5.876591205339761"><ele>297.0</ele><time>2026-04-11T11:53:32.999Z</time></trkpt><trkpt lat="43.46044081799095" lon="5.87673247014584"><ele>297.0</ele><time>2026-04-11T11:53:33.999Z</time></trkpt><trkpt lat="43.46048448070378" lon="5.8768569755156035"><ele>297.0</ele><time>2026-04-11T11:53:34.999Z</time></trkpt><trkpt lat="43.46053658920105" lon="5.876971587635404"><ele>297.0</ele><time>2026-04-11T11:53:35.999Z</time></trkpt><trkpt lat="43.460586088497145" lon="5.877126925118701"><ele>297.0</ele><time>2026-04-11T11:53:36.999Z</time></trkpt><trkpt lat="43.46064429522722" lon="5.877313003680875"><ele>298.3333333333333</ele><time>2026-04-11T11:53:37.999Z</time></trkpt><trkpt lat="43.46070331054335" lon="5.877496074951268"><ele>299.66666666666663</ele><time>2026-04-11T11:53:38.999Z</time></trkpt><trkpt lat="43.46077555206433" lon="5.877696784322864"><ele>301.0</ele><time>2026-04-11T11:53:39.999Z</time></trkpt><trkpt lat="43.46085349376925" lon="5.877905449685805"><ele>301.3333333333333</ele><time>2026-04-11T11:53:40.999Z</time></trkpt><trkpt lat="43.460928342493766" lon="5.878090768915489"><ele>301.6666666666667</ele><time>2026-04-11T11:53:41.999Z</time></trkpt><trkpt lat="43.46100778154535" lon="5.878275814696865"><ele>302.0</ele><time>2026-04-11T11:53:42.999Z</time></trkpt><trkpt lat="43.461074247667455" lon="5.878457197499596"><ele>303.0</ele><time>2026-04-11T11:53:43.999Z</time></trkpt><trkpt lat="43.46111928983749" lon="5.878620935843274"><ele>304.0</ele><time>2026-04-11T11:53:44.999Z</time></trkpt><trkpt lat="43.46116092412561" lon="5.878792686643652"><ele>305.0</ele><time>2026-04-11T11:53:45.999Z</time></trkpt><trkpt lat="43.46120800615408" lon="5.878975648508473"><ele>306.0</ele><time>2026-04-11T11:53:46.999Z</time></trkpt><trkpt lat="43.461265702677636" lon="5.879171482105849"><ele>306.25</ele><time>2026-04-11T11:53:47.999Z</time></trkpt><trkpt lat="43.46131602436792" lon="5.879374339320488"><ele>306.5</ele><time>2026-04-11T11:53:48.999Z</time></trkpt><trkpt lat="43.461351486154406" lon="5.879560560955672"><ele>306.75</ele><time>2026-04-11T11:53:49.999Z</time></trkpt><trkpt lat="43.461378162807236" lon="5.879727923334399"><ele>307.0</ele><time>2026-04-11T11:53:50.999Z</time></trkpt><trkpt lat="43.46140998031952" lon="5.879892334667403"><ele>307.0</ele><time>2026-04-11T11:53:51.999Z</time></trkpt><trkpt lat="43.46145427793296" lon="5.880076576490574"><ele>307.0</ele><time>2026-04-11T11:53:52.999Z</time></trkpt><trkpt lat="43.461499613946486" lon="5.88027268081963"><ele>307.0</ele><time>2026-04-11T11:53:53.999Z</time></trkpt><trkpt lat="43.461550216217994" lon="5.880471199515997"><ele>307.0</ele><time>2026-04-11T11:53:54.999Z</time></trkpt><trkpt lat="43.461611474452155" lon="5.880662454050786"><ele>308.0</ele><time>2026-04-11T11:53:55.999Z</time></trkpt><trkpt lat="43.461678101412396" lon="5.880849603943503"><ele>309.0</ele><time>2026-04-11T11:53:56.999Z</time></trkpt><trkpt lat="43.46175901875023" lon="5.881041362253971"><ele>310.0</ele><time>2026-04-11T11:53:57.999Z</time></trkpt><trkpt lat="43.46183922652562" lon="5.881229509500684"><ele>310.0</ele><time>2026-04-11T11:53:58.999Z</time></trkpt><trkpt lat="43.46191071071253" lon="5.881392490484598"><ele>310.0</ele><time>2026-04-11T11:53:59.999Z</time></trkpt><trkpt lat="43.46197933376809" lon="5.881542325864434"><ele>310.0</ele><time>2026-04-11T11:54:00.999Z</time></trkpt><trkpt lat="43.4620496088236" lon="5.881681340612011"><ele>310.0</ele><time>2026-04-11T11:54:01.999Z</time></trkpt><trkpt lat="43.46213072012552" lon="5.881812562526069"><ele>310.6</ele><time>2026-04-11T11:54:02.999Z</time></trkpt><trkpt lat="43.46221180082106" lon="5.881924664576494"><ele>311.2</ele><time>2026-04-11T11:54:03.999Z</time></trkpt><trkpt lat="43.46228476217284" lon="5.882020454009029"><ele>311.8</ele><time>2026-04-11T11:54:04.999Z</time></trkpt><trkpt lat="43.46235671441334" lon="5.882115574224844"><ele>312.4</ele><time>2026-04-11T11:54:05.999Z</time></trkpt><trkpt lat="43.46242324515859" lon="5.8822035769195535"><ele>313.0</ele><time>2026-04-11T11:54:06.999Z</time></trkpt><trkpt lat="43.46247674992617" lon="5.8822900004123495"><ele>313.0</ele><time>2026-04-11T11:54:07.999Z</time></trkpt><trkpt lat="43.46252923194634" lon="5.882363351483876"><ele>313.0</ele><time>2026-04-11T11:54:08.999Z</time></trkpt><trkpt lat="43.46258864474066" lon="5.882410700168491"><ele>313.0</ele><time>2026-04-11T11:54:09.999Z</time></trkpt><trkpt lat="43.46268417804768" lon="5.882486086763077"><ele>313.0</ele><time>2026-04-11T11:54:11.999Z</time></trkpt><trkpt lat="43.46275111972695" lon="5.882546209363738"><ele>313.0</ele><time>2026-04-11T11:54:13.999Z</time></trkpt><trkpt lat="43.46285829919738" lon="5.882595067646909"><ele>313.0</ele><time>2026-04-11T11:54:16.999Z</time></trkpt><trkpt lat="43.46291576819727" lon="5.882650861533747"><ele>314.3333333333333</ele><time>2026-04-11T11:54:17.999Z</time></trkpt><trkpt lat="43.46297754515259" lon="5.882714137254895"><ele>315.66666666666663</ele><time>2026-04-11T11:54:18.999Z</time></trkpt><trkpt lat="43.46304685452381" lon="5.8827701209795915"><ele>317.0</ele><time>2026-04-11T11:54:19.999Z</time></trkpt><trkpt lat="43.46312938084121" lon="5.882825563704457"><ele>318.3333333333333</ele><time>2026-04-11T11:54:20.999Z</time></trkpt><trkpt lat="43.463221358660505" lon="5.882880508576402"><ele>319.6666666666667</ele><time>2026-04-11T11:54:21.999Z</time></trkpt><trkpt lat="43.46330735800834" lon="5.882926478670635"><ele>321.0</ele><time>2026-04-11T11:54:22.999Z</time></trkpt><trkpt lat="43.46339920706637" lon="5.882974390065947"><ele>321.0</ele><time>2026-04-11T11:54:23.999Z</time></trkpt><trkpt lat="43.46349861483308" lon="5.883034256380665"><ele>321.0</ele><time>2026-04-11T11:54:24.999Z</time></trkpt><trkpt lat="43.46360665336149" lon="5.8831051784669866"><ele>321.0</ele><time>2026-04-11T11:54:25.999Z</time></trkpt><trkpt lat="43.46372626635733" lon="5.883185296567013"><ele>321.0</ele><time>2026-04-11T11:54:26.999Z</time></trkpt><trkpt lat="43.46383757524079" lon="5.883263460015526"><ele>321.25</ele><time>2026-04-11T11:54:27.999Z</time></trkpt><trkpt lat="43.463944939240164" lon="5.883339854667375"><ele>321.5</ele><time>2026-04-11T11:54:29Z</time></trkpt><trkpt lat="43.46406106074528" lon="5.883423470069567"><ele>321.75</ele><time>2026-04-11T11:54:30Z</time></trkpt><trkpt lat="43.464177249538324" lon="5.883510142779018"><ele>322.0</ele><time>2026-04-11T11:54:31Z</time></trkpt><trkpt lat="43.464280614963805" lon="5.88359625289859"><ele>320.75</ele><time>2026-04-11T11:54:32Z</time></trkpt><trkpt lat="43.464369715550504" lon="5.883686944470224"><ele>319.5</ele><time>2026-04-11T11:54:33Z</time></trkpt><trkpt lat="43.46444661221715" lon="5.8837917412890555"><ele>318.25</ele><time>2026-04-11T11:54:34Z</time></trkpt><trkpt lat="43.46451754446932" lon="5.883918739584622"><ele>317.0</ele><time>2026-04-11T11:54:35Z</time></trkpt><trkpt lat="43.4645844481441" lon="5.8840695900692195"><ele>318.75</ele><time>2026-04-11T11:54:36Z</time></trkpt><trkpt lat="43.46465462402606" lon="5.884220831088819"><ele>320.5</ele><time>2026-04-11T11:54:37Z</time></trkpt><trkpt lat="43.46474601388963" lon="5.884370226820939"><ele>322.25</ele><time>2026-04-11T11:54:38Z</time></trkpt><trkpt lat="43.464850820516" lon="5.8845270151556655"><ele>324.0</ele><time>2026-04-11T11:54:39Z</time></trkpt><trkpt lat="43.464957733269216" lon="5.8846781865272915"><ele>324.0</ele><time>2026-04-11T11:54:40Z</time></trkpt><trkpt lat="43.46505658334801" lon="5.884821192568239"><ele>324.0</ele><time>2026-04-11T11:54:41Z</time></trkpt><trkpt lat="43.46515046086593" lon="5.884950796217418"><ele>324.0</ele><time>2026-04-11T11:54:42Z</time></trkpt><trkpt lat="43.46522974928317" lon="5.88506833666644"><ele>324.0</ele><time>2026-04-11T11:54:43Z</time></trkpt><trkpt lat="43.46530359615708" lon="5.88518112103099"><ele>324.25</ele><time>2026-04-11T11:54:44Z</time></trkpt><trkpt lat="43.465386476547884" lon="5.88529283685685"><ele>324.5</ele><time>2026-04-11T11:54:45Z</time></trkpt><trkpt lat="43.465474439301204" lon="5.885415018523642"><ele>324.75</ele><time>2026-04-11T11:54:46Z</time></trkpt><trkpt lat="43.465567297564895" lon="5.885552975647098"><ele>325.0</ele><time>2026-04-11T11:54:47Z</time></trkpt><trkpt lat="43.46566660870587" lon="5.8857023621119"><ele>327.3333333333333</ele><time>2026-04-11T11:54:48Z</time></trkpt><trkpt lat="43.46576859585118" lon="5.885863701170924"><ele>329.6666666666667</ele><time>2026-04-11T11:54:49Z</time></trkpt><trkpt lat="43.46586235878568" lon="5.886039338716099"><ele>332.0</ele><time>2026-04-11T11:54:50Z</time></trkpt><trkpt lat="43.46594930066272" lon="5.886224071459103"><ele>332.6666666666667</ele><time>2026-04-11T11:54:51Z</time></trkpt><trkpt lat="43.466045916283484" lon="5.886413193558369"><ele>333.3333333333333</ele><time>2026-04-11T11:54:52Z</time></trkpt><trkpt lat="43.46614558836944" lon="5.8866021182447685"><ele>334.0</ele><time>2026-04-11T11:54:53Z</time></trkpt><trkpt lat="43.46624248291015" lon="5.886787973718948"><ele>336.66666666666663</ele><time>2026-04-11T11:54:54Z</time></trkpt><trkpt lat="43.466336906297805" lon="5.886970938525982"><ele>339.3333333333333</ele><time>2026-04-11T11:54:55Z</time></trkpt><trkpt lat="43.46642227406828" lon="5.8871425150836485"><ele>342.0</ele><time>2026-04-11T11:54:56Z</time></trkpt><trkpt lat="43.466518357367974" lon="5.887322737373823"><ele>342.0</ele><time>2026-04-11T11:54:57Z</time></trkpt><trkpt lat="43.46660413965549" lon="5.887482652989765"><ele>342.0</ele><time>2026-04-11T11:54:58Z</time></trkpt><trkpt lat="43.466680814381" lon="5.887633382534585"><ele>342.0</ele><time>2026-04-11T11:54:59Z</time></trkpt><trkpt lat="43.466754076580344" lon="5.887797911054536"><ele>342.0</ele><time>2026-04-11T11:55:00Z</time></trkpt><trkpt lat="43.46682749716377" lon="5.887980038327338"><ele>342.3333333333333</ele><time>2026-04-11T11:55:01Z</time></trkpt><trkpt lat="43.46690741059489" lon="5.888156011947474"><ele>342.66666666666663</ele><time>2026-04-11T11:55:02Z</time></trkpt><trkpt lat="43.466995688387115" lon="5.888322507530266"><ele>343.0</ele><time>2026-04-11T11:55:03Z</time></trkpt><trkpt lat="43.467084325291154" lon="5.888500232636848"><ele>345.0</ele><time>2026-04-11T11:55:04Z</time></trkpt><trkpt lat="43.467158279102726" lon="5.888683975059967"><ele>347.0</ele><time>2026-04-11T11:55:05Z</time></trkpt><trkpt lat="43.46721821145083" lon="5.8888933706928235"><ele>349.0</ele><time>2026-04-11T11:55:06Z</time></trkpt><trkpt lat="43.46726500411582" lon="5.889099251146817"><ele>350.0</ele><time>2026-04-11T11:55:07Z</time></trkpt><trkpt lat="43.46731389260211" lon="5.889282209088231"><ele>351.0</ele><time>2026-04-11T11:55:08Z</time></trkpt><trkpt lat="43.4673816656007" lon="5.889459527516485"><ele>352.0</ele><time>2026-04-11T11:55:09Z</time></trkpt><trkpt lat="43.467462904030775" lon="5.889644258747373"><ele>353.0</ele><time>2026-04-11T11:55:10Z</time></trkpt><trkpt lat="43.46755358990406" lon="5.8898337794022115"><ele>353.0</ele><time>2026-04-11T11:55:11Z</time></trkpt><trkpt lat="43.46764961407884" lon="5.890030090265232"><ele>353.0</ele><time>2026-04-11T11:55:12Z</time></trkpt><trkpt lat="43.46773625908228" lon="5.890212921921576"><ele>353.0</ele><time>2026-04-11T11:55:13Z</time></trkpt><trkpt lat="43.46780976648707" lon="5.890386735010258"><ele>354.0</ele><time>2026-04-11T11:55:14Z</time></trkpt><trkpt lat="43.46789065021152" lon="5.890571855009136"><ele>355.0</ele><time>2026-04-11T11:55:15Z</time></trkpt><trkpt lat="43.46798271398831" lon="5.890756719634443"><ele>356.0</ele><time>2026-04-11T11:55:16Z</time></trkpt><trkpt lat="43.46808406687865" lon="5.890928086198548"><ele>356.0</ele><time>2026-04-11T11:55:17Z</time></trkpt><trkpt lat="43.468179201153376" lon="5.8910936123163395"><ele>356.0</ele><time>2026-04-11T11:55:18Z</time></trkpt><trkpt lat="43.468256208683435" lon="5.891246908585984"><ele>356.0</ele><time>2026-04-11T11:55:19Z</time></trkpt><trkpt lat="43.468322170407475" lon="5.891402885863331"><ele>356.0</ele><time>2026-04-11T11:55:20Z</time></trkpt><trkpt lat="43.46838791996519" lon="5.89157004759754"><ele>356.0</ele><time>2026-04-11T11:55:21Z</time></trkpt><trkpt lat="43.4684439788429" lon="5.891723144315505"><ele>356.0</ele><time>2026-04-11T11:55:22Z</time></trkpt><trkpt lat="43.46849846881838" lon="5.891854362554001"><ele>356.0</ele><time>2026-04-11T11:55:23Z</time></trkpt><trkpt lat="43.46855736286825" lon="5.89197428389094"><ele>356.0</ele><time>2026-04-11T11:55:24Z</time></trkpt><trkpt lat="43.46862459977184" lon="5.892097317372848"><ele>356.25</ele><time>2026-04-11T11:55:24.999Z</time></trkpt><trkpt lat="43.468702968188246" lon="5.892238199962645"><ele>356.5</ele><time>2026-04-11T11:55:25.999Z</time></trkpt><trkpt lat="43.46880036076824" lon="5.892373115055076"><ele>356.75</ele><time>2026-04-11T11:55:26.999Z</time></trkpt><trkpt lat="43.468923258808594" lon="5.892497635153818"><ele>357.0</ele><time>2026-04-11T11:55:27.999Z</time></trkpt><trkpt lat="43.469055462569976" lon="5.892619264129765"><ele>357.6666666666667</ele><time>2026-04-11T11:55:28.999Z</time></trkpt><trkpt lat="43.46918046074125" lon="5.892752669517244"><ele>358.33333333333337</ele><time>2026-04-11T11:55:29.999Z</time></trkpt><trkpt lat="43.46929605902617" lon="5.892910613555957"><ele>359.0</ele><time>2026-04-11T11:55:30.999Z</time></trkpt><trkpt lat="43.46941516962022" lon="5.893086318796199"><ele>359.0</ele><time>2026-04-11T11:55:31.999Z</time></trkpt><trkpt lat="43.469532306240055" lon="5.8932585569241045"><ele>359.0</ele><time>2026-04-11T11:55:32.999Z</time></trkpt><trkpt lat="43.469638548131265" lon="5.893416927067407"><ele>359.0</ele><time>2026-04-11T11:55:33.999Z</time></trkpt><trkpt lat="43.46973757265074" lon="5.893558353108197"><ele>358.75</ele><time>2026-04-11T11:55:34.999Z</time></trkpt><trkpt lat="43.469838753504796" lon="5.893690434958925"><ele>358.5</ele><time>2026-04-11T11:55:35.999Z</time></trkpt><trkpt lat="43.46992711831856" lon="5.893821076859498"><ele>358.25</ele><time>2026-04-11T11:55:36.999Z</time></trkpt><trkpt lat="43.469996364360654" lon="5.8939641775767955"><ele>358.0</ele><time>2026-04-11T11:55:37.999Z</time></trkpt><trkpt lat="43.47006168323099" lon="5.894099483699751"><ele>358.0</ele><time>2026-04-11T11:55:38.999Z</time></trkpt><trkpt lat="43.47011659898157" lon="5.894215068939562"><ele>358.0</ele><time>2026-04-11T11:55:39.999Z</time></trkpt><trkpt lat="43.47016973377595" lon="5.894317263721892"><ele>358.0</ele><time>2026-04-11T11:55:40.999Z</time></trkpt><trkpt lat="43.470214738795555" lon="5.894408151205234"><ele>358.0</ele><time>2026-04-11T11:55:41.999Z</time></trkpt><trkpt lat="43.470254852883855" lon="5.894509640785628"><ele>358.0</ele><time>2026-04-11T11:55:43.999Z</time></trkpt><trkpt lat="43.47038824597951" lon="5.894456466516572"><ele>359.4</ele><time>2026-04-11T11:55:46.999Z</time></trkpt><trkpt lat="43.47046135133959" lon="5.894410511696647"><ele>360.79999999999995</ele><time>2026-04-11T11:55:47.999Z</time></trkpt><trkpt lat="43.47053718953224" lon="5.894375629970698"><ele>362.2</ele><time>2026-04-11T11:55:48.999Z</time></trkpt><trkpt lat="43.47064871087663" lon="5.8943241453354505"><ele>363.6</ele><time>2026-04-11T11:55:49.999Z</time></trkpt><trkpt lat="43.47077323136237" lon="5.89427586235568"><ele>365.0</ele><time>2026-04-11T11:55:50.999Z</time></trkpt><trkpt lat="43.470864431095976" lon="5.894159254247006"><ele>365.25</ele><time>2026-04-11T11:55:51.999Z</time></trkpt><trkpt lat="43.4710148696837" lon="5.894182504719674"><ele>365.5</ele><time>2026-04-11T11:55:52.999Z</time></trkpt><trkpt lat="43.47113994909567" lon="5.894142920693422"><ele>365.75</ele><time>2026-04-11T11:55:53.999Z</time></trkpt><trkpt lat="43.47126227927626" lon="5.894104008764384"><ele>366.0</ele><time>2026-04-11T11:55:54.999Z</time></trkpt><trkpt lat="43.4713880133323" lon="5.894048092395093"><ele>369.0</ele><time>2026-04-11T11:55:55.999Z</time></trkpt><trkpt lat="43.47152606468296" lon="5.894001675408028"><ele>372.0</ele><time>2026-04-11T11:55:56.999Z</time></trkpt><trkpt lat="43.471638221254594" lon="5.893953361848634"><ele>375.0</ele><time>2026-04-11T11:55:57.999Z</time></trkpt><trkpt lat="43.47174735248144" lon="5.893915039434161"><ele>378.0</ele><time>2026-04-11T11:55:58.999Z</time></trkpt><trkpt lat="43.47184146142638" lon="5.893879468708711"><ele>378.0</ele><time>2026-04-11T11:55:59.999Z</time></trkpt><trkpt lat="43.47192945746787" lon="5.893840766206957"><ele>378.0</ele><time>2026-04-11T11:56:00.999Z</time></trkpt><trkpt lat="43.47200938256034" lon="5.893828002182706"><ele>378.0</ele><time>2026-04-11T11:56:01.999Z</time></trkpt><trkpt lat="43.47207163845628" lon="5.893865534768226"><ele>378.0</ele><time>2026-04-11T11:56:02.999Z</time></trkpt><trkpt lat="43.47213676681764" lon="5.893951351085395"><ele>378.0</ele><time>2026-04-11T11:56:03.999Z</time></trkpt><trkpt lat="43.47220525634438" lon="5.8940298015605945"><ele>378.0</ele><time>2026-04-11T11:56:04.999Z</time></trkpt><trkpt lat="43.47227796954651" lon="5.894028149968068"><ele>378.2</ele><time>2026-04-11T11:56:05.999Z</time></trkpt><trkpt lat="43.47233957563313" lon="5.8939783283665115"><ele>378.4</ele><time>2026-04-11T11:56:06.999Z</time></trkpt><trkpt lat="43.472372590151906" lon="5.893894638142195"><ele>378.59999999999997</ele><time>2026-04-11T11:56:07.999Z</time></trkpt><trkpt lat="43.47240116364038" lon="5.893770703229103"><ele>378.79999999999995</ele><time>2026-04-11T11:56:08.999Z</time></trkpt><trkpt lat="43.47246887449991" lon="5.8936401193596994"><ele>379.0</ele><time>2026-04-11T11:56:09.999Z</time></trkpt><trkpt lat="43.47257185240623" lon="5.893554924459302"><ele>379.0</ele><time>2026-04-11T11:56:10.999Z</time></trkpt><trkpt lat="43.472710659814084" lon="5.893486491473933"><ele>379.0</ele><time>2026-04-11T11:56:11.999Z</time></trkpt><trkpt lat="43.4728533531535" lon="5.893440642231649"><ele>379.0</ele><time>2026-04-11T11:56:12.999Z</time></trkpt><trkpt lat="43.473015622185855" lon="5.89339412431841"><ele>378.0</ele><time>2026-04-11T11:56:13.999Z</time></trkpt><trkpt lat="43.473165223082184" lon="5.893333389279303"><ele>377.0</ele><time>2026-04-11T11:56:14.999Z</time></trkpt><trkpt lat="43.47328927229715" lon="5.893270732211817"><ele>376.0</ele><time>2026-04-11T11:56:15.999Z</time></trkpt><trkpt lat="43.473409006289714" lon="5.89320565062613"><ele>375.0</ele><time>2026-04-11T11:56:16.999Z</time></trkpt><trkpt lat="43.47352297013042" lon="5.893148604909744"><ele>375.0</ele><time>2026-04-11T11:56:17.999Z</time></trkpt><trkpt lat="43.47363558083324" lon="5.893098770154375"><ele>375.0</ele><time>2026-04-11T11:56:18.999Z</time></trkpt><trkpt lat="43.47374261608603" lon="5.893047959273195"><ele>375.0</ele><time>2026-04-11T11:56:19.999Z</time></trkpt><trkpt lat="43.47384787461705" lon="5.8929907193686"><ele>375.0</ele><time>2026-04-11T11:56:20.999Z</time></trkpt><trkpt lat="43.47396733641759" lon="5.892914990933958"><ele>374.5</ele><time>2026-04-11T11:56:21.999Z</time></trkpt><trkpt lat="43.474109286334546" lon="5.892843928641648"><ele>374.0</ele><time>2026-04-11T11:56:22.999Z</time></trkpt><trkpt lat="43.47424793330845" lon="5.892797974384608"><ele>373.5</ele><time>2026-04-11T11:56:23.999Z</time></trkpt><trkpt lat="43.47436870560098" lon="5.892738444220158"><ele>373.0</ele><time>2026-04-11T11:56:24.999Z</time></trkpt><trkpt lat="43.47447803961541" lon="5.892667854904487"><ele>373.0</ele><time>2026-04-11T11:56:25.999Z</time></trkpt><trkpt lat="43.47458450553656" lon="5.892610023796794"><ele>373.0</ele><time>2026-04-11T11:56:26.999Z</time></trkpt><trkpt lat="43.47468965869438" lon="5.892571344258583"><ele>373.0</ele><time>2026-04-11T11:56:27.999Z</time></trkpt><trkpt lat="43.474791754433134" lon="5.892531161591016"><ele>373.0</ele><time>2026-04-11T11:56:28.999Z</time></trkpt><trkpt lat="43.47488435843507" lon="5.892475585481388"><ele>373.0</ele><time>2026-04-11T11:56:29.999Z</time></trkpt><trkpt lat="43.47497565519168" lon="5.8924330001948615"><ele>371.4</ele><time>2026-04-11T11:56:30.999Z</time></trkpt><trkpt lat="43.475069367745085" lon="5.892392899883704"><ele>369.79999999999995</ele><time>2026-04-11T11:56:31.999Z</time></trkpt><trkpt lat="43.47515461523537" lon="5.892336853229103"><ele>368.2</ele><time>2026-04-11T11:56:32.999Z</time></trkpt><trkpt lat="43.475242375384" lon="5.892282269424374"><ele>366.6</ele><time>2026-04-11T11:56:33.999Z</time></trkpt><trkpt lat="43.4753397137154" lon="5.892236012364181"><ele>365.0</ele><time>2026-04-11T11:56:35Z</time></trkpt><trkpt lat="43.47545041177546" lon="5.892188792265715"><ele>364.1666666666667</ele><time>2026-04-11T11:56:36Z</time></trkpt><trkpt lat="43.47554833743519" lon="5.892139520525843"><ele>363.33333333333337</ele><time>2026-04-11T11:56:37Z</time></trkpt><trkpt lat="43.47563504353629" lon="5.892093286363998"><ele>362.5</ele><time>2026-04-11T11:56:38Z</time></trkpt><trkpt lat="43.47571175095474" lon="5.892060642123149"><ele>361.6666666666667</ele><time>2026-04-11T11:56:39Z</time></trkpt><trkpt lat="43.47578142342072" lon="5.89201857029633"><ele>360.8333333333333</ele><time>2026-04-11T11:56:40Z</time></trkpt><trkpt lat="43.47584087674188" lon="5.891980307181146"><ele>360.0</ele><time>2026-04-11T11:56:41Z</time></trkpt><trkpt lat="43.47594431438006" lon="5.891942656902537"><ele>360.0</ele><time>2026-04-11T11:56:43Z</time></trkpt><trkpt lat="43.47594614645147" lon="5.892056740579113"><ele>360.0</ele><time>2026-04-11T11:56:47Z</time></trkpt><trkpt lat="43.475872071816916" lon="5.892151022470238"><ele>360.0</ele><time>2026-04-11T11:56:49Z</time></trkpt><trkpt lat="43.47581720896251" lon="5.892307521497365"><ele>360.0</ele><time>2026-04-11T11:56:51Z</time></trkpt><trkpt lat="43.47583020765304" lon="5.8924187704498605"><ele>360.0</ele><time>2026-04-11T11:56:53Z</time></trkpt><trkpt lat="43.47589134301763" lon="5.892460176417215"><ele>360.4</ele><time>2026-04-11T11:56:54Z</time></trkpt><trkpt lat="43.47590464317811" lon="5.892628265041273"><ele>360.8</ele><time>2026-04-11T11:56:56Z</time></trkpt><trkpt lat="43.47587989066512" lon="5.8927663887206405"><ele>361.20000000000005</ele><time>2026-04-11T11:56:57Z</time></trkpt><trkpt lat="43.47588562553765" lon="5.892872182379349"><ele>361.6</ele><time>2026-04-11T11:56:58Z</time></trkpt><trkpt lat="43.47590187475592" lon="5.8929830763404665"><ele>362.0</ele><time>2026-04-11T11:56:59Z</time></trkpt><trkpt lat="43.47588360418761" lon="5.8931032343227985"><ele>362.0</ele><time>2026-04-11T11:57:00Z</time></trkpt><trkpt lat="43.47584956097642" lon="5.893229868097681"><ele>362.0</ele><time>2026-04-11T11:57:01Z</time></trkpt><trkpt lat="43.475818427822595" lon="5.893337074268472"><ele>362.0</ele><time>2026-04-11T11:57:02Z</time></trkpt><trkpt lat="43.47574566151538" lon="5.893460029431123"><ele>362.0</ele><time>2026-04-11T11:57:03Z</time></trkpt><trkpt lat="43.475682226821526" lon="5.893610273093084"><ele>362.0</ele><time>2026-04-11T11:57:04Z</time></trkpt><trkpt lat="43.47563005608494" lon="5.893708790724991"><ele>363.0</ele><time>2026-04-11T11:57:05Z</time></trkpt><trkpt lat="43.47558736989329" lon="5.893810223113216"><ele>364.0</ele><time>2026-04-11T11:57:06Z</time></trkpt><trkpt lat="43.47553401109791" lon="5.893960542513792"><ele>365.0</ele><time>2026-04-11T11:57:07Z</time></trkpt><trkpt lat="43.475476235472755" lon="5.89407989243452"><ele>366.0</ele><time>2026-04-11T11:57:08Z</time></trkpt><trkpt lat="43.475436649517306" lon="5.894155614271369"><ele>367.0</ele><time>2026-04-11T11:57:09Z</time></trkpt><trkpt lat="43.47541132318872" lon="5.894305028219061"><ele>367.5</ele><time>2026-04-11T11:57:11Z</time></trkpt><trkpt lat="43.47536076701408" lon="5.894366975871069"><ele>368.0</ele><time>2026-04-11T11:57:12Z</time></trkpt><trkpt lat="43.47531173323285" lon="5.894437525898517"><ele>368.5</ele><time>2026-04-11T11:57:13Z</time></trkpt><trkpt lat="43.47528891195909" lon="5.894544945060888"><ele>369.0</ele><time>2026-04-11T11:57:14Z</time></trkpt><trkpt lat="43.4752521212029" lon="5.894690679919206"><ele>369.5</ele><time>2026-04-11T11:57:15Z</time></trkpt><trkpt lat="43.47521295977163" lon="5.8948122461252135"><ele>370.0</ele><time>2026-04-11T11:57:16Z</time></trkpt><trkpt lat="43.47516781908647" lon="5.894892849321216"><ele>370.0</ele><time>2026-04-11T11:57:17Z</time></trkpt><trkpt lat="43.4751041961218" lon="5.89496220087855"><ele>370.0</ele><time>2026-04-11T11:57:18Z</time></trkpt><trkpt lat="43.47505079938965" lon="5.8950470385887"><ele>370.0</ele><time>2026-04-11T11:57:19Z</time></trkpt><trkpt lat="43.47500859664318" lon="5.89513092906661"><ele>370.0</ele><time>2026-04-11T11:57:20Z</time></trkpt><trkpt lat="43.47497713415576" lon="5.895287175751703"><ele>370.0</ele><time>2026-04-11T11:57:21.999Z</time></trkpt><trkpt lat="43.47497922291234" lon="5.8953819941582974"><ele>370.0</ele><time>2026-04-11T11:57:22.999Z</time></trkpt><trkpt lat="43.47503871677163" lon="5.895506773324436"><ele>370.3333333333333</ele><time>2026-04-11T11:57:24.999Z</time></trkpt><trkpt lat="43.47514307158033" lon="5.895582653987399"><ele>370.66666666666663</ele><time>2026-04-11T11:57:26.999Z</time></trkpt><trkpt lat="43.47520334369326" lon="5.895643237600999"><ele>371.0</ele><time>2026-04-11T11:57:27.999Z</time></trkpt><trkpt lat="43.475249117203575" lon="5.8957260118973185"><ele>371.3333333333333</ele><time>2026-04-11T11:57:28.999Z</time></trkpt><trkpt lat="43.475339897225545" lon="5.895663324000485"><ele>371.6666666666667</ele><time>2026-04-11T11:57:33.999Z</time></trkpt><trkpt lat="43.47539439428013" lon="5.895600962237474"><ele>372.0</ele><time>2026-04-11T11:57:34.999Z</time></trkpt><trkpt lat="43.475466761624624" lon="5.895594015772326"><ele>372.6666666666667</ele><time>2026-04-11T11:57:35.999Z</time></trkpt><trkpt lat="43.47555252449432" lon="5.895606923617223"><ele>373.3333333333333</ele><time>2026-04-11T11:57:36.999Z</time></trkpt><trkpt lat="43.47561188593297" lon="5.895574442656663"><ele>374.0</ele><time>2026-04-11T11:57:37.999Z</time></trkpt><trkpt lat="43.47566789107899" lon="5.89546875236223"><ele>374.66666666666663</ele><time>2026-04-11T11:57:38.999Z</time></trkpt><trkpt lat="43.47572439537149" lon="5.895353586924156"><ele>375.3333333333333</ele><time>2026-04-11T11:57:39.999Z</time></trkpt><trkpt lat="43.47574875758192" lon="5.895240192944368"><ele>376.0</ele><time>2026-04-11T11:57:40.999Z</time></trkpt><trkpt lat="43.47575773625079" lon="5.895141967934465"><ele>375.0</ele><time>2026-04-11T11:57:41.999Z</time></trkpt><trkpt lat="43.47581167590138" lon="5.895072151140226"><ele>374.0</ele><time>2026-04-11T11:57:42.999Z</time></trkpt><trkpt lat="43.47591574619678" lon="5.894997993113005"><ele>373.0</ele><time>2026-04-11T11:57:43.999Z</time></trkpt><trkpt lat="43.476048606166884" lon="5.894914222993"><ele>372.0</ele><time>2026-04-11T11:57:44.999Z</time></trkpt><trkpt lat="43.47614244994827" lon="5.894848009443322"><ele>371.0</ele><time>2026-04-11T11:57:45.999Z</time></trkpt><trkpt lat="43.476208233757276" lon="5.894775464728006"><ele>371.33333333333337</ele><time>2026-04-11T11:57:46.999Z</time></trkpt><trkpt lat="43.47627514688967" lon="5.8946811863956565"><ele>371.6666666666667</ele><time>2026-04-11T11:57:47.999Z</time></trkpt><trkpt lat="43.476346365638875" lon="5.894606564062648"><ele>372.0</ele><time>2026-04-11T11:57:48.999Z</time></trkpt><trkpt lat="43.47639831966445" lon="5.89452617262988"><ele>372.3333333333333</ele><time>2026-04-11T11:57:49.999Z</time></trkpt><trkpt lat="43.476456558906634" lon="5.894469909702572"><ele>372.66666666666663</ele><time>2026-04-11T11:57:50.999Z</time></trkpt><trkpt lat="43.476522893573176" lon="5.894465238290733"><ele>373.0</ele><time>2026-04-11T11:57:51.999Z</time></trkpt><trkpt lat="43.47657598610951" lon="5.894413605319076"><ele>373.0</ele><time>2026-04-11T11:57:52.999Z</time></trkpt><trkpt lat="43.476680387084365" lon="5.89432605268916"><ele>373.0</ele><time>2026-04-11T11:57:54.999Z</time></trkpt><trkpt lat="43.47674824734227" lon="5.894308936198791"><ele>373.0</ele><time>2026-04-11T11:57:55.999Z</time></trkpt><trkpt lat="43.47678655528648" lon="5.894178576798668"><ele>373.0</ele><time>2026-04-11T11:57:57.999Z</time></trkpt><trkpt lat="43.47679237805822" lon="5.894084699655706"><ele>373.0</ele><time>2026-04-11T11:57:58.999Z</time></trkpt><trkpt lat="43.476832275843115" lon="5.893999130638862"><ele>373.0</ele><time>2026-04-11T11:57:59.999Z</time></trkpt><trkpt lat="43.476889197570976" lon="5.89393359389126"><ele>372.66666666666663</ele><time>2026-04-11T11:58:00.999Z</time></trkpt><trkpt lat="43.47693581827637" lon="5.893860093861561"><ele>372.3333333333333</ele><time>2026-04-11T11:58:01.999Z</time></trkpt><trkpt lat="43.476959007823105" lon="5.893752790902737"><ele>372.0</ele><time>2026-04-11T11:58:02.999Z</time></trkpt><trkpt lat="43.47703328743628" lon="5.893725770062317"><ele>371.6666666666667</ele><time>2026-04-11T11:58:04.999Z</time></trkpt><trkpt lat="43.47708595770483" lon="5.893826542318672"><ele>371.33333333333337</ele><time>2026-04-11T11:58:15.999Z</time></trkpt><trkpt lat="43.47713156017103" lon="5.893958113932994"><ele>371.0</ele><time>2026-04-11T11:58:17.999Z</time></trkpt><trkpt lat="43.47722191995834" lon="5.8939306098595345"><ele>371.0</ele><time>2026-04-11T11:58:21.999Z</time></trkpt><trkpt lat="43.47726921324251" lon="5.8940170684566695"><ele>371.0</ele><time>2026-04-11T11:58:24.999Z</time></trkpt><trkpt lat="43.477311676365524" lon="5.894083131806859"><ele>371.0</ele><time>2026-04-11T11:58:28.999Z</time></trkpt><trkpt lat="43.47734861977611" lon="5.894180236595005"><ele>371.0</ele><time>2026-04-11T11:58:30.999Z</time></trkpt><trkpt lat="43.477392999650725" lon="5.894253502047964"><ele>371.0</ele><time>2026-04-11T11:58:31.999Z</time></trkpt><trkpt lat="43.47743542146552" lon="5.894351965802086"><ele>371.0</ele><time>2026-04-11T11:58:33.999Z</time></trkpt><trkpt lat="43.47742199944093" lon="5.8944440637314175"><ele>371.0</ele><time>2026-04-11T11:58:35.999Z</time></trkpt><trkpt lat="43.47743596452124" lon="5.894528926773299"><ele>370.33333333333337</ele><time>2026-04-11T11:58:38.999Z</time></trkpt><trkpt lat="43.477494364104814" lon="5.894622566885454"><ele>369.6666666666667</ele><time>2026-04-11T11:58:41Z</time></trkpt><trkpt lat="43.47756539616444" lon="5.894633389894558"><ele>369.0</ele><time>2026-04-11T11:58:43Z</time></trkpt><trkpt lat="43.477656064963085" lon="5.8946452365296125"><ele>368.3333333333333</ele><time>2026-04-11T11:58:45Z</time></trkpt><trkpt lat="43.47773289337676" lon="5.894657834015097"><ele>367.66666666666663</ele><time>2026-04-11T11:58:47Z</time></trkpt><trkpt lat="43.47772478539913" lon="5.894779877959236"><ele>367.0</ele><time>2026-04-11T11:58:59Z</time></trkpt><trkpt lat="43.47772892537233" lon="5.894883511177578"><ele>367.0</ele><time>2026-04-11T11:59:02Z</time></trkpt><trkpt lat="43.47779390119634" lon="5.894934927527262"><ele>367.0</ele><time>2026-04-11T11:59:04Z</time></trkpt><trkpt lat="43.47785495268904" lon="5.894996582297347"><ele>367.0</ele><time>2026-04-11T11:59:07Z</time></trkpt><trkpt lat="43.477931125893065" lon="5.895009835024896"><ele>367.0</ele><time>2026-04-11T11:59:09Z</time></trkpt><trkpt lat="43.478049026453675" lon="5.89498984106311"><ele>367.0</ele><time>2026-04-11T11:59:12Z</time></trkpt><trkpt lat="43.478134991047185" lon="5.89500486837791"><ele>367.0</ele><time>2026-04-11T11:59:15Z</time></trkpt><trkpt lat="43.47822213049431" lon="5.894977593905752"><ele>365.3333333333333</ele><time>2026-04-11T11:59:16Z</time></trkpt><trkpt lat="43.478309960934375" lon="5.894920264113328"><ele>363.66666666666663</ele><time>2026-04-11T11:59:18Z</time></trkpt><trkpt lat="43.47840280267602" lon="5.894873173373739"><ele>362.0</ele><time>2026-04-11T11:59:19.999Z</time></trkpt><trkpt lat="43.47846765150508" lon="5.894864289846445"><ele>360.3333333333333</ele><time>2026-04-11T11:59:20.999Z</time></trkpt><trkpt lat="43.47853107648806" lon="5.89484948265072"><ele>358.6666666666667</ele><time>2026-04-11T11:59:21.999Z</time></trkpt><trkpt lat="43.478637489871346" lon="5.894834330395682"><ele>357.0</ele><time>2026-04-11T11:59:23.999Z</time></trkpt><trkpt lat="43.47874559132336" lon="5.894828649282478"><ele>355.5</ele><time>2026-04-11T11:59:25.999Z</time></trkpt><trkpt lat="43.47879264999711" lon="5.8947605233514775"><ele>354.0</ele><time>2026-04-11T11:59:27.999Z</time></trkpt><trkpt lat="43.47887733291762" lon="5.894740443729363"><ele>352.5</ele><time>2026-04-11T11:59:29.999Z</time></trkpt><trkpt lat="43.47899671661871" lon="5.8947857028655966"><ele>351.0</ele><time>2026-04-11T11:59:32.999Z</time></trkpt><trkpt lat="43.47907126962968" lon="5.894777897856838"><ele>349.5</ele><time>2026-04-11T11:59:33.999Z</time></trkpt><trkpt lat="43.479143971105785" lon="5.894765960140663"><ele>348.0</ele><time>2026-04-11T11:59:34.999Z</time></trkpt><trkpt lat="43.479237143314656" lon="5.894763576834573"><ele>348.0</ele><time>2026-04-11T11:59:36.999Z</time></trkpt><trkpt lat="43.47932295365302" lon="5.894710893081187"><ele>348.0</ele><time>2026-04-11T11:59:38.999Z</time></trkpt><trkpt lat="43.47942714163009" lon="5.8947264047831895"><ele>348.0</ele><time>2026-04-11T11:59:40.999Z</time></trkpt><trkpt lat="43.47954892579421" lon="5.894710186780714"><ele>348.0</ele><time>2026-04-11T11:59:42.999Z</time></trkpt><trkpt lat="43.47963850005962" lon="5.894701250934467"><ele>348.0</ele><time>2026-04-11T11:59:44.999Z</time></trkpt><trkpt lat="43.47973202741563" lon="5.894724823092236"><ele>345.4</ele><time>2026-04-11T11:59:46.999Z</time></trkpt><trkpt lat="43.4798332362617" lon="5.8947292429045275"><ele>342.79999999999995</ele><time>2026-04-11T11:59:48.999Z</time></trkpt><trkpt lat="43.47992743308261" lon="5.894772545593285"><ele>340.2</ele><time>2026-04-11T11:59:50.999Z</time></trkpt><trkpt lat="43.47999250763054" lon="5.894718063492866"><ele>337.6</ele><time>2026-04-11T11:59:52.999Z</time></trkpt><trkpt lat="43.48009215283584" lon="5.894685481496466"><ele>335.0</ele><time>2026-04-11T11:59:54.999Z</time></trkpt><trkpt lat="43.480193805241676" lon="5.894728885049009"><ele>335.0</ele><time>2026-04-11T11:59:56.999Z</time></trkpt><trkpt lat="43.48026746835938" lon="5.8947534947063325"><ele>335.0</ele><time>2026-04-11T11:59:57.999Z</time></trkpt><trkpt lat="43.480338163471586" lon="5.894796542163767"><ele>335.0</ele><time>2026-04-11T11:59:58.999Z</time></trkpt><trkpt lat="43.480432884846856" lon="5.894811326641947"><ele>335.0</ele><time>2026-04-11T11:59:59.999Z</time></trkpt><trkpt lat="43.48049248250838" lon="5.894843683758174"><ele>335.0</ele><time>2026-04-11T12:00:00.999Z</time></trkpt><trkpt lat="43.48054918396539" lon="5.894903084266068"><ele>335.0</ele><time>2026-04-11T12:00:02.999Z</time></trkpt><trkpt lat="43.48061427515156" lon="5.894920332388046"><ele>332.83333333333337</ele><time>2026-04-11T12:00:06.999Z</time></trkpt><trkpt lat="43.48070608293657" lon="5.8949192875155285"><ele>330.6666666666667</ele><time>2026-04-11T12:00:08.999Z</time></trkpt><trkpt lat="43.480780834603195" lon="5.894869396406318"><ele>328.5</ele><time>2026-04-11T12:00:11.999Z</time></trkpt><trkpt lat="43.48085778654909" lon="5.894790017188479"><ele>326.3333333333333</ele><time>2026-04-11T12:00:13.999Z</time></trkpt><trkpt lat="43.480932854625905" lon="5.894720000749541"><ele>324.16666666666663</ele><time>2026-04-11T12:00:14.999Z</time></trkpt><trkpt lat="43.48099536882264" lon="5.894676388842812"><ele>322.0</ele><time>2026-04-11T12:00:15.999Z</time></trkpt><trkpt lat="43.48107842279795" lon="5.8946032362304654"><ele>322.0</ele><time>2026-04-11T12:00:17.999Z</time></trkpt><trkpt lat="43.48113141839802" lon="5.894522523401738"><ele>322.0</ele><time>2026-04-11T12:00:18.999Z</time></trkpt><trkpt lat="43.481249851900934" lon="5.894487329624081"><ele>322.0</ele><time>2026-04-11T12:00:20.999Z</time></trkpt><trkpt lat="43.48136952560787" lon="5.8944206650479645"><ele>322.0</ele><time>2026-04-11T12:00:22.999Z</time></trkpt><trkpt lat="43.48146224991761" lon="5.894409063211087"><ele>322.0</ele><time>2026-04-11T12:00:24.999Z</time></trkpt><trkpt lat="43.48156526148771" lon="5.894363230474833"><ele>321.6</ele><time>2026-04-11T12:00:26.999Z</time></trkpt><trkpt lat="43.481678761238136" lon="5.89430296097923"><ele>321.20000000000005</ele><time>2026-04-11T12:00:28.999Z</time></trkpt><trkpt lat="43.48174853080766" lon="5.894269015884546"><ele>320.8</ele><time>2026-04-11T12:00:29.999Z</time></trkpt><trkpt lat="43.48185772573587" lon="5.894250823233586"><ele>320.4</ele><time>2026-04-11T12:00:31.999Z</time></trkpt><trkpt lat="43.48194992333621" lon="5.894175699738313"><ele>320.0</ele><time>2026-04-11T12:00:33.999Z</time></trkpt><trkpt lat="43.482022888344275" lon="5.894128485981226"><ele>317.1666666666667</ele><time>2026-04-11T12:00:34.999Z</time></trkpt><trkpt lat="43.48212269446652" lon="5.894151313849961"><ele>314.33333333333337</ele><time>2026-04-11T12:00:36.999Z</time></trkpt><trkpt lat="43.482202293596586" lon="5.894117719682553"><ele>311.5</ele><time>2026-04-11T12:00:38.999Z</time></trkpt><trkpt lat="43.482320572305234" lon="5.894129496874214"><ele>308.6666666666667</ele><time>2026-04-11T12:00:40.999Z</time></trkpt><trkpt lat="43.48238720534284" lon="5.894146075136613"><ele>305.8333333333333</ele><time>2026-04-11T12:00:41.999Z</time></trkpt><trkpt lat="43.48244682444309" lon="5.894179989353734"><ele>303.0</ele><time>2026-04-11T12:00:42.999Z</time></trkpt><trkpt lat="43.4825366540642" lon="5.894215304171958"><ele>304.4</ele><time>2026-04-11T12:00:44.999Z</time></trkpt><trkpt lat="43.48258699007251" lon="5.894346191296903"><ele>305.8</ele><time>2026-04-11T12:01:03Z</time></trkpt><trkpt lat="43.48265821062236" lon="5.894439813901955"><ele>307.2</ele><time>2026-04-11T12:01:04Z</time></trkpt><trkpt lat="43.48271902325284" lon="5.8945156113053825"><ele>308.6</ele><time>2026-04-11T12:01:05Z</time></trkpt><trkpt lat="43.482788188900265" lon="5.894625473833973"><ele>310.0</ele><time>2026-04-11T12:01:06Z</time></trkpt><trkpt lat="43.482859736258256" lon="5.894744631839621"><ele>308.0</ele><time>2026-04-11T12:01:07Z</time></trkpt><trkpt lat="43.48293727249242" lon="5.894852395090987"><ele>306.0</ele><time>2026-04-11T12:01:08Z</time></trkpt><trkpt lat="43.48302301256631" lon="5.894976814807714"><ele>304.0</ele><time>2026-04-11T12:01:09Z</time></trkpt><trkpt lat="43.4831085492831" lon="5.895119320133484"><ele>302.0</ele><time>2026-04-11T12:01:10Z</time></trkpt><trkpt lat="43.48317507152051" lon="5.8952390574852105"><ele>302.0</ele><time>2026-04-11T12:01:11Z</time></trkpt><trkpt lat="43.483237983509405" lon="5.895350471105155"><ele>302.0</ele><time>2026-04-11T12:01:12Z</time></trkpt><trkpt lat="43.48328749052225" lon="5.895460852647295"><ele>302.0</ele><time>2026-04-11T12:01:13Z</time></trkpt><trkpt lat="43.483333334507385" lon="5.895570985359923"><ele>302.0</ele><time>2026-04-11T12:01:14Z</time></trkpt><trkpt lat="43.48338393143707" lon="5.895674530620512"><ele>302.0</ele><time>2026-04-11T12:01:15Z</time></trkpt><trkpt lat="43.48344066956319" lon="5.8958079862179495"><ele>302.4</ele><time>2026-04-11T12:01:16Z</time></trkpt><trkpt lat="43.48349752952012" lon="5.895938671703623"><ele>302.79999999999995</ele><time>2026-04-11T12:01:17Z</time></trkpt><trkpt lat="43.48354683512162" lon="5.89603792150575"><ele>303.2</ele><time>2026-04-11T12:01:17.999Z</time></trkpt><trkpt lat="43.48360320371233" lon="5.896130361018413"><ele>303.59999999999997</ele><time>2026-04-11T12:01:18.999Z</time></trkpt><trkpt lat="43.48364251635368" lon="5.896232506096818"><ele>304.0</ele><time>2026-04-11T12:01:19.999Z</time></trkpt><trkpt lat="43.48368481146965" lon="5.8963362988375785"><ele>304.0</ele><time>2026-04-11T12:01:20.999Z</time></trkpt><trkpt lat="43.48372432883873" lon="5.896438290326516"><ele>304.0</ele><time>2026-04-11T12:01:21.999Z</time></trkpt><trkpt lat="43.483761688401025" lon="5.896543943039885"><ele>304.0</ele><time>2026-04-11T12:01:22.999Z</time></trkpt><trkpt lat="43.4837952281617" lon="5.896645653816296"><ele>304.0</ele><time>2026-04-11T12:01:23.999Z</time></trkpt><trkpt lat="43.483820291579406" lon="5.8967622537237485"><ele>304.0</ele><time>2026-04-11T12:01:24.999Z</time></trkpt><trkpt lat="43.48384188305414" lon="5.896867810627103"><ele>304.0</ele><time>2026-04-11T12:01:25.999Z</time></trkpt><trkpt lat="43.48386843883601" lon="5.896960968129064"><ele>300.75</ele><time>2026-04-11T12:01:26.999Z</time></trkpt><trkpt lat="43.4839218546777" lon="5.896872279532409"><ele>297.5</ele><time>2026-04-11T12:01:31.999Z</time></trkpt><trkpt lat="43.48399711223713" lon="5.896706756582468"><ele>294.25</ele><time>2026-04-11T12:01:33.999Z</time></trkpt><trkpt lat="43.48407162942372" lon="5.896582117629771"><ele>291.0</ele><time>2026-04-11T12:01:34.999Z</time></trkpt><trkpt lat="43.48413617410856" lon="5.896456686573512"><ele>291.0</ele><time>2026-04-11T12:01:35.999Z</time></trkpt><trkpt lat="43.4841746215521" lon="5.896367333148215"><ele>291.0</ele><time>2026-04-11T12:01:36.999Z</time></trkpt><trkpt lat="43.48423671311493" lon="5.8963419863435735"><ele>291.0</ele><time>2026-04-11T12:01:39.999Z</time></trkpt><trkpt lat="43.48428617485371" lon="5.8964644836179225"><ele>291.0</ele><time>2026-04-11T12:01:41.999Z</time></trkpt><trkpt lat="43.48430753304033" lon="5.896605733134349"><ele>291.0</ele><time>2026-04-11T12:01:42.999Z</time></trkpt><trkpt lat="43.48433830210223" lon="5.896773016866249"><ele>291.0</ele><time>2026-04-11T12:01:43.999Z</time></trkpt><trkpt lat="43.484374169086536" lon="5.896941174932149"><ele>291.0</ele><time>2026-04-11T12:01:44.999Z</time></trkpt><trkpt lat="43.48443554305736" lon="5.897093788315899"><ele>291.0</ele><time>2026-04-11T12:01:45.999Z</time></trkpt><trkpt lat="43.484525581973045" lon="5.897215296058211"><ele>291.0</ele><time>2026-04-11T12:01:46.999Z</time></trkpt><trkpt lat="43.484636667710745" lon="5.897292408439371"><ele>288.25</ele><time>2026-04-11T12:01:47.999Z</time></trkpt><trkpt lat="43.484756476042485" lon="5.897346935321482"><ele>285.5</ele><time>2026-04-11T12:01:48.999Z</time></trkpt><trkpt lat="43.484878067314845" lon="5.8974203537361705"><ele>282.75</ele><time>2026-04-11T12:01:49.999Z</time></trkpt><trkpt lat="43.48499263095304" lon="5.897481517799261"><ele>280.0</ele><time>2026-04-11T12:01:50.999Z</time></trkpt><trkpt lat="43.485105013087704" lon="5.897540466827628"><ele>280.5</ele><time>2026-04-11T12:01:51.999Z</time></trkpt><trkpt lat="43.48521305007283" lon="5.897598478202756"><ele>281.0</ele><time>2026-04-11T12:01:52.999Z</time></trkpt><trkpt lat="43.48531963040736" lon="5.897651010019987"><ele>281.5</ele><time>2026-04-11T12:01:53.999Z</time></trkpt><trkpt lat="43.48543009228482" lon="5.897753571036494"><ele>282.0</ele><time>2026-04-11T12:01:54.999Z</time></trkpt><trkpt lat="43.48556813097721" lon="5.897878860330055"><ele>282.0</ele><time>2026-04-11T12:01:55.999Z</time></trkpt><trkpt lat="43.48572384276039" lon="5.897992059810756"><ele>282.0</ele><time>2026-04-11T12:01:56.999Z</time></trkpt><trkpt lat="43.48585491488906" lon="5.89809831719593"><ele>282.0</ele><time>2026-04-11T12:01:57.999Z</time></trkpt><trkpt lat="43.48596699191475" lon="5.898221675221436"><ele>282.0</ele><time>2026-04-11T12:01:58.999Z</time></trkpt><trkpt lat="43.486079797188154" lon="5.898331745038284"><ele>282.0</ele><time>2026-04-11T12:01:59.999Z</time></trkpt><trkpt lat="43.4862076035525" lon="5.898462457468552"><ele>282.0</ele><time>2026-04-11T12:02:00.999Z</time></trkpt><trkpt lat="43.486406918901615" lon="5.898456038700468"><ele>281.75</ele><time>2026-04-11T12:02:01.999Z</time></trkpt><trkpt lat="43.486533487278656" lon="5.898549392506036"><ele>281.5</ele><time>2026-04-11T12:02:02.999Z</time></trkpt><trkpt lat="43.486649609420425" lon="5.898623375730124"><ele>281.25</ele><time>2026-04-11T12:02:03.999Z</time></trkpt><trkpt lat="43.48673915488723" lon="5.898681070267129"><ele>281.0</ele><time>2026-04-11T12:02:04.999Z</time></trkpt><trkpt lat="43.486809551360565" lon="5.89877379898722"><ele>281.0</ele><time>2026-04-11T12:02:05.999Z</time></trkpt><trkpt lat="43.486866280550146" lon="5.898876120036012"><ele>281.0</ele><time>2026-04-11T12:02:06.999Z</time></trkpt><trkpt lat="43.48694603694777" lon="5.898957558221746"><ele>281.0</ele><time>2026-04-11T12:02:07.999Z</time></trkpt><trkpt lat="43.487029588539905" lon="5.898981989208718"><ele>281.0</ele><time>2026-04-11T12:02:08.999Z</time></trkpt><trkpt lat="43.48704423228892" lon="5.898884410014555"><ele>281.0</ele><time>2026-04-11T12:02:18.999Z</time></trkpt><trkpt lat="43.48709746712522" lon="5.89883761951797"><ele>281.0</ele><time>2026-04-11T12:02:22.999Z</time></trkpt><trkpt lat="43.48716206539565" lon="5.89884244867576"><ele>279.0</ele><time>2026-04-11T12:02:26.999Z</time></trkpt><trkpt lat="43.48724934865904" lon="5.898871684198718"><ele>277.0</ele><time>2026-04-11T12:02:31.999Z</time></trkpt><trkpt lat="43.48737262042867" lon="5.898917191123443"><ele>275.0</ele><time>2026-04-11T12:02:34.999Z</time></trkpt><trkpt lat="43.48745094771842" lon="5.898943109722018"><ele>273.0</ele><time>2026-04-11T12:02:35.999Z</time></trkpt><trkpt lat="43.487550407470906" lon="5.898966405421239"><ele>271.0</ele><time>2026-04-11T12:02:36.999Z</time></trkpt><trkpt lat="43.48763240039811" lon="5.898977086082604"><ele>271.0</ele><time>2026-04-11T12:02:37.999Z</time></trkpt><trkpt lat="43.487698154992735" lon="5.898961193405634"><ele>271.0</ele><time>2026-04-11T12:02:38.999Z</time></trkpt><trkpt lat="43.48776976825924" lon="5.89896472434558"><ele>271.0</ele><time>2026-04-11T12:02:39.999Z</time></trkpt><trkpt lat="43.48782596658425" lon="5.89905458585599"><ele>271.0</ele><time>2026-04-11T12:02:40.999Z</time></trkpt><trkpt lat="43.487914202365815" lon="5.89917135682824"><ele>271.0</ele><time>2026-04-11T12:02:41.999Z</time></trkpt><trkpt lat="43.48804365383259" lon="5.899325888329634"><ele>269.3333333333333</ele><time>2026-04-11T12:02:42.999Z</time></trkpt><trkpt lat="43.488185822335595" lon="5.899477030473858"><ele>267.6666666666667</ele><time>2026-04-11T12:02:43.999Z</time></trkpt><trkpt lat="43.488336238022754" lon="5.899627451635456"><ele>266.0</ele><time>2026-04-11T12:02:44.999Z</time></trkpt><trkpt lat="43.48849464576947" lon="5.899802452256033"><ele>266.0</ele><time>2026-04-11T12:02:45.999Z</time></trkpt><trkpt lat="43.488666020293714" lon="5.899996162000407"><ele>266.0</ele><time>2026-04-11T12:02:46.999Z</time></trkpt><trkpt lat="43.48882375579981" lon="5.900159551857753"><ele>266.0</ele><time>2026-04-11T12:02:47.999Z</time></trkpt><trkpt lat="43.48896204952291" lon="5.900307072161679"><ele>266.5</ele><time>2026-04-11T12:02:48.999Z</time></trkpt><trkpt lat="43.48908453454856" lon="5.900438320471118"><ele>267.0</ele><time>2026-04-11T12:02:49.999Z</time></trkpt><trkpt lat="43.48918636399013" lon="5.900543956306256"><ele>267.5</ele><time>2026-04-11T12:02:50.999Z</time></trkpt><trkpt lat="43.48926878371585" lon="5.90062889773699"><ele>268.0</ele><time>2026-04-11T12:02:51.999Z</time></trkpt><trkpt lat="43.48933435758011" lon="5.900689128131802"><ele>268.0</ele><time>2026-04-11T12:02:53Z</time></trkpt><trkpt lat="43.489400313367" lon="5.900704510888918"><ele>268.0</ele><time>2026-04-11T12:02:54Z</time></trkpt><trkpt lat="43.489464379265826" lon="5.90067051899135"><ele>268.0</ele><time>2026-04-11T12:02:55Z</time></trkpt><trkpt lat="43.489504844243484" lon="5.900592974424858"><ele>268.0</ele><time>2026-04-11T12:02:56Z</time></trkpt><trkpt lat="43.48953057621121" lon="5.900495592678468"><ele>268.0</ele><time>2026-04-11T12:02:57Z</time></trkpt><trkpt lat="43.48956857089452" lon="5.900423940469564"><ele>268.0</ele><time>2026-04-11T12:02:58Z</time></trkpt><trkpt lat="43.48964118210169" lon="5.9004477761375815"><ele>268.0</ele><time>2026-04-11T12:03:01Z</time></trkpt><trkpt lat="43.48972648779022" lon="5.900473783970039"><ele>268.5</ele><time>2026-04-11T12:03:04Z</time></trkpt><trkpt lat="43.48984478201558" lon="5.900582447742609"><ele>269.0</ele><time>2026-04-11T12:03:06Z</time></trkpt><trkpt lat="43.48994074083181" lon="5.90070101351312"><ele>269.5</ele><time>2026-04-11T12:03:07Z</time></trkpt><trkpt lat="43.49004230638493" lon="5.900807817207298"><ele>270.0</ele><time>2026-04-11T12:03:08Z</time></trkpt><trkpt lat="43.490104793403816" lon="5.900868908855004"><ele>270.0</ele><time>2026-04-11T12:03:09Z</time></trkpt><trkpt lat="43.49017586504125" lon="5.900864686135905"><ele>270.0</ele><time>2026-04-11T12:03:12Z</time></trkpt><trkpt lat="43.49024024455859" lon="5.900757018973331"><ele>270.0</ele><time>2026-04-11T12:03:14Z</time></trkpt><trkpt lat="43.490231583105974" lon="5.900632318119137"><ele>270.0</ele><time>2026-04-11T12:03:15.999Z</time></trkpt><trkpt lat="43.49011195083677" lon="5.900536884004122"><ele>270.0</ele><time>2026-04-11T12:03:17.999Z</time></trkpt><trkpt lat="43.49004564086246" lon="5.900470947602938"><ele>270.0</ele><time>2026-04-11T12:03:18.999Z</time></trkpt><trkpt lat="43.489981959093434" lon="5.900331481637599"><ele>270.0</ele><time>2026-04-11T12:03:20.999Z</time></trkpt><trkpt lat="43.49001706068141" lon="5.900131101402589"><ele>270.0</ele><time>2026-04-11T12:03:22.999Z</time></trkpt><trkpt lat="43.49005669519274" lon="5.899983026248812"><ele>270.0</ele><time>2026-04-11T12:03:23.999Z</time></trkpt><trkpt lat="43.490087032693815" lon="5.899821250478666"><ele>269.75</ele><time>2026-04-11T12:03:24.999Z</time></trkpt><trkpt lat="43.490112339902026" lon="5.899634627813969"><ele>269.5</ele><time>2026-04-11T12:03:25.999Z</time></trkpt><trkpt lat="43.49014512984924" lon="5.89945534695583"><ele>269.25</ele><time>2026-04-11T12:03:26.999Z</time></trkpt><trkpt lat="43.4901822526903" lon="5.899264323984236"><ele>269.0</ele><time>2026-04-11T12:03:27.999Z</time></trkpt><trkpt lat="43.49021976125061" lon="5.899041736527208"><ele>269.25</ele><time>2026-04-11T12:03:28.999Z</time></trkpt><trkpt lat="43.4902486468441" lon="5.8988279140702655"><ele>269.5</ele><time>2026-04-11T12:03:29.999Z</time></trkpt><trkpt lat="43.49028472867398" lon="5.898632686852728"><ele>269.75</ele><time>2026-04-11T12:03:30.999Z</time></trkpt><trkpt lat="43.49035331748616" lon="5.898461817866955"><ele>270.0</ele><time>2026-04-11T12:03:31.999Z</time></trkpt><trkpt lat="43.49038236467582" lon="5.8982811323055975"><ele>270.0</ele><time>2026-04-11T12:03:32.999Z</time></trkpt><trkpt lat="43.49041229478961" lon="5.8981133416808476"><ele>270.0</ele><time>2026-04-11T12:03:33.999Z</time></trkpt><trkpt lat="43.49044292728224" lon="5.897934595121549"><ele>270.0</ele><time>2026-04-11T12:03:34.999Z</time></trkpt><trkpt lat="43.49046048276786" lon="5.8977374006543455"><ele>270.0</ele><time>2026-04-11T12:03:35.999Z</time></trkpt><trkpt lat="43.49049827259032" lon="5.897518728607296"><ele>269.0</ele><time>2026-04-11T12:03:36.999Z</time></trkpt><trkpt lat="43.49055475311811" lon="5.897297432362482"><ele>268.0</ele><time>2026-04-11T12:03:37.999Z</time></trkpt><trkpt lat="43.4905748065327" lon="5.897093112485624"><ele>267.0</ele><time>2026-04-11T12:03:38.999Z</time></trkpt><trkpt lat="43.49060731528347" lon="5.89690794448442"><ele>267.6666666666667</ele><time>2026-04-11T12:03:39.999Z</time></trkpt><trkpt lat="43.490654720027095" lon="5.8967127090516085"><ele>268.33333333333337</ele><time>2026-04-11T12:03:40.999Z</time></trkpt><trkpt lat="43.49069386220477" lon="5.896488670725319"><ele>269.0</ele><time>2026-04-11T12:03:41.999Z</time></trkpt><trkpt lat="43.490721940233975" lon="5.896240598258449"><ele>269.0</ele><time>2026-04-11T12:03:42.999Z</time></trkpt><trkpt lat="43.49077436071641" lon="5.89601549736558"><ele>269.0</ele><time>2026-04-11T12:03:43.999Z</time></trkpt><trkpt lat="43.49083201953359" lon="5.895818095003498"><ele>269.0</ele><time>2026-04-11T12:03:44.999Z</time></trkpt><trkpt lat="43.49089642113618" lon="5.895631896859261"><ele>269.6666666666667</ele><time>2026-04-11T12:03:45.999Z</time></trkpt><trkpt lat="43.49096692590094" lon="5.895455735281346"><ele>270.3333333333333</ele><time>2026-04-11T12:03:46.999Z</time></trkpt><trkpt lat="43.49104876755722" lon="5.895270985767706"><ele>271.0</ele><time>2026-04-11T12:03:47.999Z</time></trkpt><trkpt lat="43.49113610827863" lon="5.895066214046703"><ele>271.0</ele><time>2026-04-11T12:03:48.999Z</time></trkpt><trkpt lat="43.49121488274453" lon="5.894874842320611"><ele>271.0</ele><time>2026-04-11T12:03:49.999Z</time></trkpt><trkpt lat="43.49128498744146" lon="5.894696718083471"><ele>271.0</ele><time>2026-04-11T12:03:50.999Z</time></trkpt><trkpt lat="43.49135114804466" lon="5.894534324328007"><ele>271.0</ele><time>2026-04-11T12:03:51.999Z</time></trkpt><trkpt lat="43.491411450625236" lon="5.8943825323865005"><ele>271.3333333333333</ele><time>2026-04-11T12:03:52.999Z</time></trkpt><trkpt lat="43.49147687800377" lon="5.894213655889579"><ele>271.6666666666667</ele><time>2026-04-11T12:03:53.999Z</time></trkpt><trkpt lat="43.49154441355867" lon="5.894032865495991"><ele>272.0</ele><time>2026-04-11T12:03:54.999Z</time></trkpt><trkpt lat="43.49162976918083" lon="5.893826212638062"><ele>272.0</ele><time>2026-04-11T12:03:55.999Z</time></trkpt><trkpt lat="43.491707551221225" lon="5.893654774056183"><ele>272.0</ele><time>2026-04-11T12:03:56.999Z</time></trkpt><trkpt lat="43.49177614131839" lon="5.893503262150993"><ele>272.0</ele><time>2026-04-11T12:03:57.999Z</time></trkpt><trkpt lat="43.49183597731437" lon="5.893347442145274"><ele>272.0</ele><time>2026-04-11T12:03:58.999Z</time></trkpt><trkpt lat="43.49188660614978" lon="5.893187693916735"><ele>273.5</ele><time>2026-04-11T12:03:59.999Z</time></trkpt><trkpt lat="43.49194044869705" lon="5.89301951762686"><ele>275.0</ele><time>2026-04-11T12:04:00.999Z</time></trkpt><trkpt lat="43.49199447535972" lon="5.8928655457109524"><ele>276.5</ele><time>2026-04-11T12:04:01.999Z</time></trkpt><trkpt lat="43.49205430916234" lon="5.892706171132348"><ele>278.0</ele><time>2026-04-11T12:04:02.999Z</time></trkpt><trkpt lat="43.49212019672295" lon="5.892572773524043"><ele>279.0</ele><time>2026-04-11T12:04:03.999Z</time></trkpt><trkpt lat="43.49219522032496" lon="5.89244094843689"><ele>280.0</ele><time>2026-04-11T12:04:04.999Z</time></trkpt><trkpt lat="43.49228153876347" lon="5.8922834387595415"><ele>281.0</ele><time>2026-04-11T12:04:05.999Z</time></trkpt><trkpt lat="43.492373429662486" lon="5.892108804238341"><ele>282.0</ele><time>2026-04-11T12:04:06.999Z</time></trkpt><trkpt lat="43.492460787679384" lon="5.8919479223845235"><ele>282.0</ele><time>2026-04-11T12:04:07.999Z</time></trkpt><trkpt lat="43.49253744426831" lon="5.891816347595954"><ele>282.0</ele><time>2026-04-11T12:04:08.999Z</time></trkpt><trkpt lat="43.492599250788295" lon="5.891703094582026"><ele>282.0</ele><time>2026-04-11T12:04:09.999Z</time></trkpt><trkpt lat="43.49265015173935" lon="5.891606304926566"><ele>282.0</ele><time>2026-04-11T12:04:10.999Z</time></trkpt><trkpt lat="43.49270205153667" lon="5.891524227049424"><ele>282.0</ele><time>2026-04-11T12:04:11.999Z</time></trkpt><trkpt lat="43.49277146221437" lon="5.89143512017488"><ele>282.2</ele><time>2026-04-11T12:04:13.999Z</time></trkpt><trkpt lat="43.492861759051095" lon="5.891357123926249"><ele>282.4</ele><time>2026-04-11T12:04:16.999Z</time></trkpt><trkpt lat="43.4929326992905" lon="5.891292231498068"><ele>282.6</ele><time>2026-04-11T12:04:17.999Z</time></trkpt><trkpt lat="43.49301312822665" lon="5.891197023524107"><ele>282.8</ele><time>2026-04-11T12:04:18.999Z</time></trkpt><trkpt lat="43.493102752109884" lon="5.891080377316255"><ele>283.0</ele><time>2026-04-11T12:04:19.999Z</time></trkpt><trkpt lat="43.49320605391776" lon="5.890966753769939"><ele>285.0</ele><time>2026-04-11T12:04:20.999Z</time></trkpt><trkpt lat="43.49328927242521" lon="5.890885969574503"><ele>287.0</ele><time>2026-04-11T12:04:21.999Z</time></trkpt><trkpt lat="43.49335495357552" lon="5.890811022124924"><ele>289.0</ele><time>2026-04-11T12:04:22.999Z</time></trkpt><trkpt lat="43.49341814223366" lon="5.890725588765478"><ele>291.0</ele><time>2026-04-11T12:04:23.999Z</time></trkpt><trkpt lat="43.49346472254751" lon="5.890649344376374"><ele>293.0</ele><time>2026-04-11T12:04:24.999Z</time></trkpt><trkpt lat="43.493495856756546" lon="5.890572320962635"><ele>295.0</ele><time>2026-04-11T12:04:25.999Z</time></trkpt><trkpt lat="43.493529798754174" lon="5.890452350460444"><ele>295.0</ele><time>2026-04-11T12:04:27.999Z</time></trkpt><trkpt lat="43.493481501718676" lon="5.890357521436055"><ele>295.0</ele><time>2026-04-11T12:04:29.999Z</time></trkpt><trkpt lat="43.49345389771102" lon="5.890273515701537"><ele>295.0</ele><time>2026-04-11T12:04:31.999Z</time></trkpt><trkpt lat="43.49340861955806" lon="5.890135665156618"><ele>295.0</ele><time>2026-04-11T12:04:34.999Z</time></trkpt><trkpt lat="43.493342682701744" lon="5.890089391867986"><ele>295.0</ele><time>2026-04-11T12:04:35.999Z</time></trkpt><trkpt lat="43.4932720107985" lon="5.890000375839419"><ele>295.0</ele><time>2026-04-11T12:04:36.999Z</time></trkpt><trkpt lat="43.49321428886682" lon="5.889916176046213"><ele>295.5</ele><time>2026-04-11T12:04:37.999Z</time></trkpt><trkpt lat="43.4931084517399" lon="5.8897920693396575"><ele>296.0</ele><time>2026-04-11T12:04:39.999Z</time></trkpt><trkpt lat="43.493034326480476" lon="5.889692305306571"><ele>296.5</ele><time>2026-04-11T12:04:40.999Z</time></trkpt><trkpt lat="43.49296842251115" lon="5.889595121932633"><ele>297.0</ele><time>2026-04-11T12:04:41.999Z</time></trkpt><trkpt lat="43.4928934158761" lon="5.88946912918108"><ele>297.0</ele><time>2026-04-11T12:04:43.999Z</time></trkpt><trkpt lat="43.49281411501194" lon="5.889382499040032"><ele>297.0</ele><time>2026-04-11T12:04:45.999Z</time></trkpt><trkpt lat="43.492845854531154" lon="5.889299551495261"><ele>297.0</ele><time>2026-04-11T12:04:48.999Z</time></trkpt><trkpt lat="43.492933649467346" lon="5.889283927075796"><ele>297.0</ele><time>2026-04-11T12:04:50.999Z</time></trkpt><trkpt lat="43.49304809318008" lon="5.889276086680591"><ele>297.0</ele><time>2026-04-11T12:04:53.999Z</time></trkpt><trkpt lat="43.49316214712091" lon="5.889236648586716"><ele>299.3333333333333</ele><time>2026-04-11T12:04:55.999Z</time></trkpt><trkpt lat="43.493256965018965" lon="5.889159446823423"><ele>301.6666666666667</ele><time>2026-04-11T12:04:57.999Z</time></trkpt><trkpt lat="43.49333701529048" lon="5.889118548323651"><ele>304.0</ele><time>2026-04-11T12:04:58.999Z</time></trkpt><trkpt lat="43.493429194833986" lon="5.889075066009791"><ele>306.33333333333337</ele><time>2026-04-11T12:04:59.999Z</time></trkpt><trkpt lat="43.49349200926568" lon="5.889044702945993"><ele>308.6666666666667</ele><time>2026-04-11T12:05:00.999Z</time></trkpt><trkpt lat="43.4935621469243" lon="5.888990904795598"><ele>311.0</ele><time>2026-04-11T12:05:02.999Z</time></trkpt><trkpt lat="43.49353061851778" lon="5.888848487321012"><ele>311.0</ele><time>2026-04-11T12:05:04.999Z</time></trkpt><trkpt lat="43.493496209843855" lon="5.8887294122445075"><ele>311.0</ele><time>2026-04-11T12:05:05.999Z</time></trkpt><trkpt lat="43.49346428737098" lon="5.888577899337018"><ele>311.0</ele><time>2026-04-11T12:05:06.999Z</time></trkpt><trkpt lat="43.493423384833726" lon="5.888387499783918"><ele>311.0</ele><time>2026-04-11T12:05:07.999Z</time></trkpt><trkpt lat="43.49338754490991" lon="5.8882328032461855"><ele>311.6</ele><time>2026-04-11T12:05:08.999Z</time></trkpt><trkpt lat="43.493359127314214" lon="5.888098930643501"><ele>312.20000000000005</ele><time>2026-04-11T12:05:09.999Z</time></trkpt><trkpt lat="43.493332556780366" lon="5.88797393383741"><ele>312.79999999999995</ele><time>2026-04-11T12:05:10.999Z</time></trkpt><trkpt lat="43.493305116800435" lon="5.887862999694927"><ele>313.4</ele><time>2026-04-11T12:05:11.999Z</time></trkpt><trkpt lat="43.49327500337021" lon="5.8877761212545705"><ele>314.0</ele><time>2026-04-11T12:05:12.999Z</time></trkpt><trkpt lat="43.49320111510072" lon="5.887665762266804"><ele>314.0</ele><time>2026-04-11T12:05:14.999Z</time></trkpt><trkpt lat="43.493150410890436" lon="5.887586845173508"><ele>314.0</ele><time>2026-04-11T12:05:16.999Z</time></trkpt><trkpt lat="43.4932482880636" lon="5.8875983210864105"><ele>314.0</ele><time>2026-04-11T12:05:21.999Z</time></trkpt><trkpt lat="43.49328666171202" lon="5.887684335059958"><ele>314.0</ele><time>2026-04-11T12:05:22.999Z</time></trkpt><trkpt lat="43.49333406529075" lon="5.887767548154156"><ele>314.0</ele><time>2026-04-11T12:05:23.999Z</time></trkpt><trkpt lat="43.49339323922426" lon="5.887864908545474"><ele>314.0</ele><time>2026-04-11T12:05:24.999Z</time></trkpt><trkpt lat="43.49345578479279" lon="5.887960906572708"><ele>314.0</ele><time>2026-04-11T12:05:25.999Z</time></trkpt><trkpt lat="43.493529245666195" lon="5.888075756541409"><ele>314.0</ele><time>2026-04-11T12:05:26.999Z</time></trkpt><trkpt lat="43.49360538211798" lon="5.888202998976636"><ele>314.0</ele><time>2026-04-11T12:05:27.999Z</time></trkpt><trkpt lat="43.493671968834185" lon="5.8883150334003656"><ele>314.0</ele><time>2026-04-11T12:05:28.999Z</time></trkpt><trkpt lat="43.49374330416295" lon="5.888436111732107"><ele>314.0</ele><time>2026-04-11T12:05:29.999Z</time></trkpt><trkpt lat="43.49382319123129" lon="5.888565974213515"><ele>314.75</ele><time>2026-04-11T12:05:30.999Z</time></trkpt><trkpt lat="43.493912447047755" lon="5.888695866440984"><ele>315.5</ele><time>2026-04-11T12:05:31.999Z</time></trkpt><trkpt lat="43.494025690777434" lon="5.888799703822288"><ele>316.25</ele><time>2026-04-11T12:05:32.999Z</time></trkpt><trkpt lat="43.494168026128506" lon="5.888870259132373"><ele>317.0</ele><time>2026-04-11T12:05:33.999Z</time></trkpt><trkpt lat="43.49429636879788" lon="5.888928767791443"><ele>317.0</ele><time>2026-04-11T12:05:34.999Z</time></trkpt><trkpt lat="43.49440626761002" lon="5.888986798406303"><ele>317.0</ele><time>2026-04-11T12:05:35.999Z</time></trkpt><trkpt lat="43.49450104697246" lon="5.889031449236357"><ele>317.0</ele><time>2026-04-11T12:05:36.999Z</time></trkpt><trkpt lat="43.494578955065606" lon="5.889031733645405"><ele>317.0</ele><time>2026-04-11T12:05:37.999Z</time></trkpt><trkpt lat="43.494634512852556" lon="5.888969570956224"><ele>317.0</ele><time>2026-04-11T12:05:38.999Z</time></trkpt><trkpt lat="43.49465579322386" lon="5.8888727567308505"><ele>317.0</ele><time>2026-04-11T12:05:39.999Z</time></trkpt><trkpt lat="43.494622758377815" lon="5.888766858347491"><ele>317.0</ele><time>2026-04-11T12:05:40.999Z</time></trkpt><trkpt lat="43.49454470295476" lon="5.888685806885201"><ele>317.0</ele><time>2026-04-11T12:05:41.999Z</time></trkpt><trkpt lat="43.49443968846155" lon="5.8886102488901795"><ele>317.0</ele><time>2026-04-11T12:05:42.999Z</time></trkpt><trkpt lat="43.49434959136048" lon="5.88849677937267"><ele>317.0</ele><time>2026-04-11T12:05:43.999Z</time></trkpt><trkpt lat="43.49428558827679" lon="5.888318077520278"><ele>319.6666666666667</ele><time>2026-04-11T12:05:44.999Z</time></trkpt><trkpt lat="43.49424004938828" lon="5.888110219925457"><ele>322.3333333333333</ele><time>2026-04-11T12:05:45.999Z</time></trkpt><trkpt lat="43.494199534671566" lon="5.887907478112502"><ele>325.0</ele><time>2026-04-11T12:05:46.999Z</time></trkpt><trkpt lat="43.49416249149246" lon="5.887676461271165"><ele>327.3333333333333</ele><time>2026-04-11T12:05:47.999Z</time></trkpt><trkpt lat="43.49412570026376" lon="5.887429517128452"><ele>329.6666666666667</ele><time>2026-04-11T12:05:48.999Z</time></trkpt><trkpt lat="43.49408658792264" lon="5.887189731666808"><ele>332.0</ele><time>2026-04-11T12:05:49.999Z</time></trkpt><trkpt lat="43.49403842728583" lon="5.8869844919207095"><ele>332.0</ele><time>2026-04-11T12:05:50.999Z</time></trkpt><trkpt lat="43.493969532678314" lon="5.886812011585591"><ele>332.0</ele><time>2026-04-11T12:05:51.999Z</time></trkpt><trkpt lat="43.49389394356529" lon="5.886660608952741"><ele>332.0</ele><time>2026-04-11T12:05:52.999Z</time></trkpt><trkpt lat="43.49387312594279" lon="5.886501046516076"><ele>332.0</ele><time>2026-04-11T12:05:53.999Z</time></trkpt><trkpt lat="43.493851468518145" lon="5.886331571563387"><ele>333.75</ele><time>2026-04-11T12:05:54.999Z</time></trkpt><trkpt lat="43.493882422266324" lon="5.886124516384494"><ele>335.5</ele><time>2026-04-11T12:05:55.999Z</time></trkpt><trkpt lat="43.493894818906966" lon="5.885936271497588"><ele>337.25</ele><time>2026-04-11T12:05:56.999Z</time></trkpt><trkpt lat="43.493927884464206" lon="5.885783483938088"><ele>339.0</ele><time>2026-04-11T12:05:57.999Z</time></trkpt><trkpt lat="43.49399612779033" lon="5.88567016349718"><ele>339.0</ele><time>2026-04-11T12:05:58.999Z</time></trkpt><trkpt lat="43.49408747193825" lon="5.8855922374878125"><ele>339.0</ele><time>2026-04-11T12:05:59.999Z</time></trkpt><trkpt lat="43.49420485859426" lon="5.885546873037682"><ele>339.0</ele><time>2026-04-11T12:06:00.999Z</time></trkpt><trkpt lat="43.4943435952783" lon="5.885481148125284"><ele>339.0</ele><time>2026-04-11T12:06:01.999Z</time></trkpt><trkpt lat="43.49447044040557" lon="5.8854440357705"><ele>339.0</ele><time>2026-04-11T12:06:02.999Z</time></trkpt><trkpt lat="43.49456041690802" lon="5.885354317463838"><ele>339.0</ele><time>2026-04-11T12:06:03.999Z</time></trkpt><trkpt lat="43.49462447983755" lon="5.885218092211235"><ele>339.0</ele><time>2026-04-11T12:06:04.999Z</time></trkpt><trkpt lat="43.494648792288736" lon="5.885026091897846"><ele>339.0</ele><time>2026-04-11T12:06:05.999Z</time></trkpt><trkpt lat="43.49461963834595" lon="5.884811061151846"><ele>342.3333333333333</ele><time>2026-04-11T12:06:06.999Z</time></trkpt><trkpt lat="43.49462709316715" lon="5.884597901637506"><ele>345.66666666666663</ele><time>2026-04-11T12:06:07.999Z</time></trkpt><trkpt lat="43.49466000439492" lon="5.8843965195120465"><ele>349.0</ele><time>2026-04-11T12:06:08.999Z</time></trkpt><trkpt lat="43.494731967139174" lon="5.884213098124343"><ele>349.0</ele><time>2026-04-11T12:06:09.999Z</time></trkpt><trkpt lat="43.494863430233686" lon="5.884058241441266"><ele>349.0</ele><time>2026-04-11T12:06:10.999Z</time></trkpt><trkpt lat="43.494971389942386" lon="5.88388533085638"><ele>349.0</ele><time>2026-04-11T12:06:11.999Z</time></trkpt><trkpt lat="43.495051973154304" lon="5.883724759065658"><ele>349.0</ele><time>2026-04-11T12:06:12.999Z</time></trkpt><trkpt lat="43.49511309979838" lon="5.883565209427011"><ele>349.0</ele><time>2026-04-11T12:06:13.999Z</time></trkpt><trkpt lat="43.4951354526057" lon="5.88337312927821"><ele>349.0</ele><time>2026-04-11T12:06:14.999Z</time></trkpt><trkpt lat="43.49512862009471" lon="5.883146120336523"><ele>349.0</ele><time>2026-04-11T12:06:15.999Z</time></trkpt><trkpt lat="43.49513193532207" lon="5.882902134628724"><ele>349.3333333333333</ele><time>2026-04-11T12:06:16.999Z</time></trkpt><trkpt lat="43.49513018900544" lon="5.88266463581919"><ele>349.6666666666667</ele><time>2026-04-11T12:06:17.999Z</time></trkpt><trkpt lat="43.495126124035444" lon="5.882431305054525"><ele>350.0</ele><time>2026-04-11T12:06:18.999Z</time></trkpt><trkpt lat="43.49512213961977" lon="5.882211656065447"><ele>351.0</ele><time>2026-04-11T12:06:19.999Z</time></trkpt><trkpt lat="43.49509947755694" lon="5.882014883626105"><ele>352.0</ele><time>2026-04-11T12:06:20.999Z</time></trkpt><trkpt lat="43.49510620561581" lon="5.881838878604315"><ele>353.0</ele><time>2026-04-11T12:06:21.999Z</time></trkpt><trkpt lat="43.49505264555563" lon="5.88168075544495"><ele>354.0</ele><time>2026-04-11T12:06:22.999Z</time></trkpt><trkpt lat="43.49497216156931" lon="5.881572410830627"><ele>354.5</ele><time>2026-04-11T12:06:23.999Z</time></trkpt><trkpt lat="43.49492339527205" lon="5.881483799010151"><ele>355.0</ele><time>2026-04-11T12:06:25Z</time></trkpt><trkpt lat="43.494893766878874" lon="5.8814055271832615"><ele>355.5</ele><time>2026-04-11T12:06:26Z</time></trkpt><trkpt lat="43.494937805410316" lon="5.881288592649352"><ele>356.0</ele><time>2026-04-11T12:06:28Z</time></trkpt><trkpt lat="43.49504202734653" lon="5.881373518510798"><ele>356.5</ele><time>2026-04-11T12:06:30Z</time></trkpt><trkpt lat="43.49506031485496" lon="5.8814805539808335"><ele>357.0</ele><time>2026-04-11T12:06:31Z</time></trkpt><trkpt lat="43.49508892355223" lon="5.881587498891119"><ele>357.0</ele><time>2026-04-11T12:06:32Z</time></trkpt><trkpt lat="43.495135780398904" lon="5.8816948324580975"><ele>357.0</ele><time>2026-04-11T12:06:33Z</time></trkpt><trkpt lat="43.49520051848356" lon="5.88178218227793"><ele>357.0</ele><time>2026-04-11T12:06:34Z</time></trkpt><trkpt lat="43.49525949461884" lon="5.881847095463787"><ele>357.0</ele><time>2026-04-11T12:06:35Z</time></trkpt><trkpt lat="43.4953237151683" lon="5.881858047046798"><ele>357.0</ele><time>2026-04-11T12:06:36Z</time></trkpt><trkpt lat="43.495394419380105" lon="5.881791353483382"><ele>357.0</ele><time>2026-04-11T12:06:37Z</time></trkpt><trkpt lat="43.49545064158087" lon="5.8816899926165975"><ele>358.6</ele><time>2026-04-11T12:06:38Z</time></trkpt><trkpt lat="43.49551566584736" lon="5.881561575148339"><ele>360.20000000000005</ele><time>2026-04-11T12:06:39Z</time></trkpt><trkpt lat="43.495581414412776" lon="5.881434650308781"><ele>361.8</ele><time>2026-04-11T12:06:40Z</time></trkpt><trkpt lat="43.495645138288495" lon="5.881336377533416"><ele>363.4</ele><time>2026-04-11T12:06:41Z</time></trkpt><trkpt lat="43.495692587067744" lon="5.881219439917086"><ele>365.0</ele><time>2026-04-11T12:06:42Z</time></trkpt><trkpt lat="43.495727689107845" lon="5.881094728733944"><ele>365.0</ele><time>2026-04-11T12:06:43Z</time></trkpt><trkpt lat="43.495773726109405" lon="5.880946546891195"><ele>365.0</ele><time>2026-04-11T12:06:44Z</time></trkpt><trkpt lat="43.49581324399761" lon="5.88076969258244"><ele>365.0</ele><time>2026-04-11T12:06:45Z</time></trkpt><trkpt lat="43.49587906531223" lon="5.880621644123772"><ele>365.0</ele><time>2026-04-11T12:06:46Z</time></trkpt><trkpt lat="43.495951333658496" lon="5.880484128025589"><ele>364.33333333333337</ele><time>2026-04-11T12:06:47Z</time></trkpt><trkpt lat="43.49602433786565" lon="5.880332313718932"><ele>363.6666666666667</ele><time>2026-04-11T12:06:48Z</time></trkpt><trkpt lat="43.49607291477959" lon="5.880128632133312"><ele>363.0</ele><time>2026-04-11T12:06:49Z</time></trkpt><trkpt lat="43.49610308783928" lon="5.87990409385972"><ele>362.3333333333333</ele><time>2026-04-11T12:06:50Z</time></trkpt><trkpt lat="43.496143912100386" lon="5.879705449504211"><ele>361.66666666666663</ele><time>2026-04-11T12:06:51Z</time></trkpt><trkpt lat="43.49620521952499" lon="5.879512564694291"><ele>361.0</ele><time>2026-04-11T12:06:52Z</time></trkpt><trkpt lat="43.49628496772446" lon="5.879305724228249"><ele>361.66666666666663</ele><time>2026-04-11T12:06:53Z</time></trkpt><trkpt lat="43.496375792720215" lon="5.879080595455021"><ele>362.3333333333333</ele><time>2026-04-11T12:06:54Z</time></trkpt><trkpt lat="43.49644589883608" lon="5.878851697403033"><ele>363.0</ele><time>2026-04-11T12:06:55Z</time></trkpt><trkpt lat="43.49649683843362" lon="5.878629223052515"><ele>360.0</ele><time>2026-04-11T12:06:56Z</time></trkpt><trkpt lat="43.49653851307509" lon="5.878416286415057"><ele>357.0</ele><time>2026-04-11T12:06:57Z</time></trkpt><trkpt lat="43.496590608610624" lon="5.878216973817782"><ele>354.0</ele><time>2026-04-11T12:06:58Z</time></trkpt><trkpt lat="43.49663823397533" lon="5.878026053704504"><ele>354.0</ele><time>2026-04-11T12:06:59Z</time></trkpt><trkpt lat="43.4966832843809" lon="5.877839236532999"><ele>354.0</ele><time>2026-04-11T12:07:00Z</time></trkpt><trkpt lat="43.49673711707628" lon="5.877661773540807"><ele>354.0</ele><time>2026-04-11T12:07:01Z</time></trkpt><trkpt lat="43.4968061975066" lon="5.877499877658239"><ele>354.0</ele><time>2026-04-11T12:07:02Z</time></trkpt><trkpt lat="43.49689488939938" lon="5.877356164022609"><ele>354.25</ele><time>2026-04-11T12:07:03Z</time></trkpt><trkpt lat="43.49700179261646" lon="5.877254970102594"><ele>354.5</ele><time>2026-04-11T12:07:04Z</time></trkpt><trkpt lat="43.49712006053158" lon="5.877170299580579"><ele>354.75</ele><time>2026-04-11T12:07:05Z</time></trkpt><trkpt lat="43.49725036808235" lon="5.877114581942894"><ele>355.0</ele><time>2026-04-11T12:07:06Z</time></trkpt><trkpt lat="43.497391138267616" lon="5.877102746817281"><ele>355.0</ele><time>2026-04-11T12:07:07Z</time></trkpt><trkpt lat="43.4975385343448" lon="5.877133352718248"><ele>355.0</ele><time>2026-04-11T12:07:08Z</time></trkpt><trkpt lat="43.4977000153422" lon="5.877202160138058"><ele>355.0</ele><time>2026-04-11T12:07:09Z</time></trkpt><trkpt lat="43.49786825005814" lon="5.877293124792019"><ele>356.3333333333333</ele><time>2026-04-11T12:07:10Z</time></trkpt><trkpt lat="43.49804695519063" lon="5.877397232232055"><ele>357.6666666666667</ele><time>2026-04-11T12:07:11Z</time></trkpt><trkpt lat="43.498228651669784" lon="5.8775224236607535"><ele>359.0</ele><time>2026-04-11T12:07:12Z</time></trkpt><trkpt lat="43.498398567080784" lon="5.877659480367877"><ele>359.0</ele><time>2026-04-11T12:07:13Z</time></trkpt><trkpt lat="43.49855697900815" lon="5.877786249150761"><ele>359.0</ele><time>2026-04-11T12:07:14Z</time></trkpt><trkpt lat="43.498712101634375" lon="5.877903742591583"><ele>359.0</ele><time>2026-04-11T12:07:15Z</time></trkpt><trkpt lat="43.49886021060335" lon="5.878015983667304"><ele>354.6666666666667</ele><time>2026-04-11T12:07:16Z</time></trkpt><trkpt lat="43.499004503580785" lon="5.87811856500519"><ele>350.3333333333333</ele><time>2026-04-11T12:07:17Z</time></trkpt><trkpt lat="43.499152972101186" lon="5.878191827474327"><ele>346.0</ele><time>2026-04-11T12:07:18Z</time></trkpt><trkpt lat="43.499302676040294" lon="5.878198199832726"><ele>346.0</ele><time>2026-04-11T12:07:19Z</time></trkpt><trkpt lat="43.4994424876293" lon="5.878189857293841"><ele>346.0</ele><time>2026-04-11T12:07:20Z</time></trkpt><trkpt lat="43.49957110271047" lon="5.878220925025731"><ele>346.0</ele><time>2026-04-11T12:07:21Z</time></trkpt><trkpt lat="43.49970396153959" lon="5.878279679684998"><ele>346.0</ele><time>2026-04-11T12:07:22Z</time></trkpt><trkpt lat="43.49984718124264" lon="5.878356763391002"><ele>347.66666666666663</ele><time>2026-04-11T12:07:23Z</time></trkpt><trkpt lat="43.5000009069871" lon="5.878439636674288"><ele>349.3333333333333</ele><time>2026-04-11T12:07:24Z</time></trkpt><trkpt lat="43.50015613177423" lon="5.878524333186485"><ele>351.0</ele><time>2026-04-11T12:07:25Z</time></trkpt><trkpt lat="43.500300963969146" lon="5.878603289204441"><ele>347.5</ele><time>2026-04-11T12:07:26Z</time></trkpt><trkpt lat="43.500441775562116" lon="5.87867960043385"><ele>344.0</ele><time>2026-04-11T12:07:27Z</time></trkpt><trkpt lat="43.50058258145644" lon="5.878731327550303"><ele>340.5</ele><time>2026-04-11T12:07:28Z</time></trkpt><trkpt lat="43.50071409180321" lon="5.878765372674964"><ele>337.0</ele><time>2026-04-11T12:07:29Z</time></trkpt><trkpt lat="43.500852480512734" lon="5.8787102689637"><ele>337.0</ele><time>2026-04-11T12:07:30Z</time></trkpt><trkpt lat="43.50094436591789" lon="5.878567978650308"><ele>337.0</ele><time>2026-04-11T12:07:31Z</time></trkpt><trkpt lat="43.50104492544343" lon="5.878471478123831"><ele>337.0</ele><time>2026-04-11T12:07:32Z</time></trkpt><trkpt lat="43.501132291015736" lon="5.878372607621945"><ele>337.0</ele><time>2026-04-11T12:07:33Z</time></trkpt><trkpt lat="43.50123522597293" lon="5.878278195160665"><ele>336.40000000000003</ele><time>2026-04-11T12:07:34Z</time></trkpt><trkpt lat="43.501350979936184" lon="5.878225367925463"><ele>335.8</ele><time>2026-04-11T12:07:35Z</time></trkpt><trkpt lat="43.50145746594348" lon="5.878175599853207"><ele>335.2</ele><time>2026-04-11T12:07:36Z</time></trkpt><trkpt lat="43.501544033331754" lon="5.8781294586196395"><ele>334.6</ele><time>2026-04-11T12:07:37Z</time></trkpt><trkpt lat="43.50161395969544" lon="5.878118596588627"><ele>334.0</ele><time>2026-04-11T12:07:38Z</time></trkpt><trkpt lat="43.50172299671452" lon="5.878103374566272"><ele>334.0</ele><time>2026-04-11T12:07:40Z</time></trkpt><trkpt lat="43.50177353247641" lon="5.878273931346776"><ele>334.0</ele><time>2026-04-11T12:07:42Z</time></trkpt><trkpt lat="43.50178590726581" lon="5.87840323326588"><ele>334.0</ele><time>2026-04-11T12:07:43Z</time></trkpt><trkpt lat="43.50181199143315" lon="5.878562017916955"><ele>334.0</ele><time>2026-04-11T12:07:44Z</time></trkpt><trkpt lat="43.50184597309862" lon="5.878746992535531"><ele>333.4</ele><time>2026-04-11T12:07:45Z</time></trkpt><trkpt lat="43.50186998366847" lon="5.878914767295133"><ele>332.79999999999995</ele><time>2026-04-11T12:07:46Z</time></trkpt><trkpt lat="43.50189289693659" lon="5.879062774003014"><ele>332.20000000000005</ele><time>2026-04-11T12:07:47Z</time></trkpt><trkpt lat="43.501924293507294" lon="5.879183749659281"><ele>331.6</ele><time>2026-04-11T12:07:48Z</time></trkpt><trkpt lat="43.50199020576468" lon="5.8792729612930374"><ele>331.0</ele><time>2026-04-11T12:07:49Z</time></trkpt><trkpt lat="43.50208127042882" lon="5.879338289729838"><ele>330.25</ele><time>2026-04-11T12:07:50Z</time></trkpt><trkpt lat="43.502193586720246" lon="5.879408391571602"><ele>329.5</ele><time>2026-04-11T12:07:51Z</time></trkpt><trkpt lat="43.502321823325566" lon="5.879504730234867"><ele>328.75</ele><time>2026-04-11T12:07:52Z</time></trkpt><trkpt lat="43.50245307220765" lon="5.879609368660404"><ele>328.0</ele><time>2026-04-11T12:07:53Z</time></trkpt><trkpt lat="43.502572511366566" lon="5.879698731252514"><ele>328.0</ele><time>2026-04-11T12:07:54Z</time></trkpt><trkpt lat="43.50268750920129" lon="5.8797795493800535"><ele>328.0</ele><time>2026-04-11T12:07:55Z</time></trkpt><trkpt lat="43.50279442677394" lon="5.879861073827761"><ele>328.0</ele><time>2026-04-11T12:07:56Z</time></trkpt><trkpt lat="43.50288161356448" lon="5.879959587079733"><ele>328.0</ele><time>2026-04-11T12:07:57Z</time></trkpt><trkpt lat="43.502950747585956" lon="5.880084782859728"><ele>327.25</ele><time>2026-04-11T12:07:58Z</time></trkpt><trkpt lat="43.50300544914383" lon="5.880234706150275"><ele>326.5</ele><time>2026-04-11T12:07:59Z</time></trkpt><trkpt lat="43.503043535592916" lon="5.880432632799932"><ele>325.75</ele><time>2026-04-11T12:08:00Z</time></trkpt><trkpt lat="43.50308096199095" lon="5.880649554935865"><ele>325.0</ele><time>2026-04-11T12:08:01Z</time></trkpt><trkpt lat="43.50312461655434" lon="5.880849848563757"><ele>324.75</ele><time>2026-04-11T12:08:02Z</time></trkpt><trkpt lat="43.50316278082472" lon="5.881027487200857"><ele>324.5</ele><time>2026-04-11T12:08:03Z</time></trkpt><trkpt lat="43.50319680965945" lon="5.881192115406781"><ele>324.25</ele><time>2026-04-11T12:08:04Z</time></trkpt><trkpt lat="43.50323234592765" lon="5.881353940943455"><ele>324.0</ele><time>2026-04-11T12:08:05Z</time></trkpt><trkpt lat="43.50326943877496" lon="5.881516947555595"><ele>324.0</ele><time>2026-04-11T12:08:06Z</time></trkpt><trkpt lat="43.503304283893556" lon="5.881702231345617"><ele>324.0</ele><time>2026-04-11T12:08:07Z</time></trkpt><trkpt lat="43.503333677378656" lon="5.881892625470937"><ele>324.0</ele><time>2026-04-11T12:08:08Z</time></trkpt><trkpt lat="43.50334419009949" lon="5.882066691887779"><ele>324.0</ele><time>2026-04-11T12:08:09Z</time></trkpt><trkpt lat="43.503321200056185" lon="5.882224880798124"><ele>324.0</ele><time>2026-04-11T12:08:10Z</time></trkpt><trkpt lat="43.50328026219385" lon="5.8823859274290875"><ele>324.0</ele><time>2026-04-11T12:08:11Z</time></trkpt><trkpt lat="43.503251588887565" lon="5.882577053320713"><ele>324.0</ele><time>2026-04-11T12:08:12Z</time></trkpt><trkpt lat="43.50324309457561" lon="5.882797440646154"><ele>324.0</ele><time>2026-04-11T12:08:13Z</time></trkpt><trkpt lat="43.503233866277085" lon="5.883007558748742"><ele>323.25</ele><time>2026-04-11T12:08:14Z</time></trkpt><trkpt lat="43.50322741930516" lon="5.883198521277352"><ele>322.5</ele><time>2026-04-11T12:08:15Z</time></trkpt><trkpt lat="43.50322592364907" lon="5.883379238114536"><ele>321.75</ele><time>2026-04-11T12:08:16Z</time></trkpt><trkpt lat="43.5032235061814" lon="5.883552529730584"><ele>321.0</ele><time>2026-04-11T12:08:17Z</time></trkpt><trkpt lat="43.50322002620907" lon="5.883722195748434"><ele>321.0</ele><time>2026-04-11T12:08:18Z</time></trkpt><trkpt lat="43.503223960136665" lon="5.883893863979627"><ele>321.0</ele><time>2026-04-11T12:08:19Z</time></trkpt><trkpt lat="43.50322497316592" lon="5.884085797503958"><ele>321.0</ele><time>2026-04-11T12:08:20Z</time></trkpt><trkpt lat="43.50322006111844" lon="5.884303852424081"><ele>321.0</ele><time>2026-04-11T12:08:21Z</time></trkpt><trkpt lat="43.503223778877604" lon="5.884520769299614"><ele>320.5</ele><time>2026-04-11T12:08:22Z</time></trkpt><trkpt lat="43.50324791804531" lon="5.884720978920357"><ele>320.0</ele><time>2026-04-11T12:08:23Z</time></trkpt><trkpt lat="43.503266227796765" lon="5.8849130017489895"><ele>319.5</ele><time>2026-04-11T12:08:24Z</time></trkpt><trkpt lat="43.503267065550666" lon="5.8851289719765365"><ele>319.0</ele><time>2026-04-11T12:08:25Z</time></trkpt><trkpt lat="43.503258315376705" lon="5.885356574395273"><ele>317.25</ele><time>2026-04-11T12:08:26Z</time></trkpt><trkpt lat="43.503253854367614" lon="5.885565296009636"><ele>315.5</ele><time>2026-04-11T12:08:27Z</time></trkpt><trkpt lat="43.503245713845914" lon="5.885754237260492"><ele>313.75</ele><time>2026-04-11T12:08:28Z</time></trkpt><trkpt lat="43.503239706500835" lon="5.885919214327988"><ele>312.0</ele><time>2026-04-11T12:08:29Z</time></trkpt><trkpt lat="43.503242587843815" lon="5.8860677919914615"><ele>310.8</ele><time>2026-04-11T12:08:30Z</time></trkpt><trkpt lat="43.50326566512181" lon="5.886215446258882"><ele>309.6</ele><time>2026-04-11T12:08:31Z</time></trkpt><trkpt lat="43.50331183402101" lon="5.88635454457442"><ele>308.40000000000003</ele><time>2026-04-11T12:08:32Z</time></trkpt><trkpt lat="43.50336687458834" lon="5.886478029780507"><ele>307.2</ele><time>2026-04-11T12:08:33Z</time></trkpt><trkpt lat="43.503412908615694" lon="5.886582380166912"><ele>306.0</ele><time>2026-04-11T12:08:34Z</time></trkpt><trkpt lat="43.5034536731268" lon="5.886660243152246"><ele>306.0</ele><time>2026-04-11T12:08:35Z</time></trkpt><trkpt lat="43.503523762543466" lon="5.886723022578795"><ele>306.0</ele><time>2026-04-11T12:08:37Z</time></trkpt><trkpt lat="43.503601535964926" lon="5.8867032569087545"><ele>306.0</ele><time>2026-04-11T12:08:39Z</time></trkpt><trkpt lat="43.503578272638826" lon="5.886462112921128"><ele>306.0</ele><time>2026-04-11T12:08:40Z</time></trkpt><trkpt lat="43.50365000976521" lon="5.8864063384600325"><ele>306.0</ele><time>2026-04-11T12:08:42Z</time></trkpt><trkpt lat="43.503692797450206" lon="5.886329071752501"><ele>306.0</ele><time>2026-04-11T12:08:43Z</time></trkpt><trkpt lat="43.50374470310835" lon="5.886211856155196"><ele>306.0</ele><time>2026-04-11T12:08:44Z</time></trkpt><trkpt lat="43.504015989578306" lon="5.886302425314455"><ele>306.0</ele><time>2026-04-11T12:08:45Z</time></trkpt><trkpt lat="43.50413633965325" lon="5.886240888069477"><ele>307.75</ele><time>2026-04-11T12:08:46Z</time></trkpt><trkpt lat="43.5042569901417" lon="5.886173883513778"><ele>309.5</ele><time>2026-04-11T12:08:47Z</time></trkpt><trkpt lat="43.50438559113595" lon="5.886098462352905"><ele>311.25</ele><time>2026-04-11T12:08:48Z</time></trkpt><trkpt lat="43.50452623645787" lon="5.8860127309348576"><ele>313.0</ele><time>2026-04-11T12:08:49Z</time></trkpt><trkpt lat="43.504652562180546" lon="5.885933707748068"><ele>313.4</ele><time>2026-04-11T12:08:50Z</time></trkpt><trkpt lat="43.504764275755875" lon="5.885866518614076"><ele>313.8</ele><time>2026-04-11T12:08:51Z</time></trkpt><trkpt lat="43.504864352841516" lon="5.885801613615047"><ele>314.2</ele><time>2026-04-11T12:08:52Z</time></trkpt><trkpt lat="43.50495736501077" lon="5.885734396774164"><ele>314.6</ele><time>2026-04-11T12:08:53Z</time></trkpt><trkpt lat="43.50503834511881" lon="5.885652535494333"><ele>315.0</ele><time>2026-04-11T12:08:54Z</time></trkpt><trkpt lat="43.50512237597016" lon="5.8855532786996525"><ele>315.0</ele><time>2026-04-11T12:08:55Z</time></trkpt><trkpt lat="43.50521206243586" lon="5.885437702343757"><ele>315.0</ele><time>2026-04-11T12:08:56Z</time></trkpt><trkpt lat="43.50530468674143" lon="5.8853158311719"><ele>315.0</ele><time>2026-04-11T12:08:57Z</time></trkpt><trkpt lat="43.50538569719725" lon="5.885190412368769"><ele>315.0</ele><time>2026-04-11T12:08:58Z</time></trkpt><trkpt lat="43.50546543382273" lon="5.885072604092248"><ele>315.8</ele><time>2026-04-11T12:08:59Z</time></trkpt><trkpt lat="43.505541840880696" lon="5.884976424642713"><ele>316.6</ele><time>2026-04-11T12:09:00Z</time></trkpt><trkpt lat="43.505617668714535" lon="5.88490169607381"><ele>317.4</ele><time>2026-04-11T12:09:01Z</time></trkpt><trkpt lat="43.50568662442706" lon="5.884828816866165"><ele>318.2</ele><time>2026-04-11T12:09:02Z</time></trkpt><trkpt lat="43.505765721956045" lon="5.884741590153711"><ele>319.0</ele><time>2026-04-11T12:09:03Z</time></trkpt><trkpt lat="43.5058642305945" lon="5.884642925128084"><ele>319.0</ele><time>2026-04-11T12:09:04Z</time></trkpt><trkpt lat="43.5059601053686" lon="5.884562102397078"><ele>319.0</ele><time>2026-04-11T12:09:04.999Z</time></trkpt><trkpt lat="43.506056289926136" lon="5.884521833737278"><ele>319.0</ele><time>2026-04-11T12:09:05.999Z</time></trkpt><trkpt lat="43.5061641303863" lon="5.884491121317138"><ele>319.0</ele><time>2026-04-11T12:09:06.999Z</time></trkpt><trkpt lat="43.50627743422376" lon="5.884467102824568"><ele>319.0</ele><time>2026-04-11T12:09:07.999Z</time></trkpt><trkpt lat="43.50640200186896" lon="5.8844428483663"><ele>319.4</ele><time>2026-04-11T12:09:08.999Z</time></trkpt><trkpt lat="43.506517477012906" lon="5.884414270249983"><ele>319.79999999999995</ele><time>2026-04-11T12:09:09.999Z</time></trkpt><trkpt lat="43.506618033206976" lon="5.884385369093268"><ele>320.20000000000005</ele><time>2026-04-11T12:09:11Z</time></trkpt><trkpt lat="43.506709478212" lon="5.884350298909984"><ele>320.6</ele><time>2026-04-11T12:09:12Z</time></trkpt><trkpt lat="43.50678449013693" lon="5.884294137760587"><ele>321.0</ele><time>2026-04-11T12:09:13Z</time></trkpt><trkpt lat="43.50684434353956" lon="5.884232017228985"><ele>321.0</ele><time>2026-04-11T12:09:14Z</time></trkpt><trkpt lat="43.50687699876359" lon="5.884154213499534"><ele>321.0</ele><time>2026-04-11T12:09:15Z</time></trkpt><trkpt lat="43.50691634587803" lon="5.884054458417907"><ele>321.0</ele><time>2026-04-11T12:09:16Z</time></trkpt><trkpt lat="43.50697601459941" lon="5.88393046234053"><ele>321.0</ele><time>2026-04-11T12:09:17Z</time></trkpt><trkpt lat="43.50707154324858" lon="5.883796674309739"><ele>321.0</ele><time>2026-04-11T12:09:18Z</time></trkpt><trkpt lat="43.507173509956985" lon="5.883675930842237"><ele>321.8</ele><time>2026-04-11T12:09:19Z</time></trkpt><trkpt lat="43.507245204052026" lon="5.883556270989425"><ele>322.6</ele><time>2026-04-11T12:09:20Z</time></trkpt><trkpt lat="43.507290981729724" lon="5.883434701453684"><ele>323.4</ele><time>2026-04-11T12:09:21Z</time></trkpt><trkpt lat="43.5073285257512" lon="5.883319965537316"><ele>324.2</ele><time>2026-04-11T12:09:22Z</time></trkpt><trkpt lat="43.50735843088095" lon="5.883216612187749"><ele>325.0</ele><time>2026-04-11T12:09:23Z</time></trkpt><trkpt lat="43.507403139113066" lon="5.883128729140519"><ele>325.0</ele><time>2026-04-11T12:09:24Z</time></trkpt><trkpt lat="43.50747478413817" lon="5.8830632710463515"><ele>325.0</ele><time>2026-04-11T12:09:25Z</time></trkpt><trkpt lat="43.50756202148587" lon="5.882995534196186"><ele>325.0</ele><time>2026-04-11T12:09:26Z</time></trkpt><trkpt lat="43.50763597408104" lon="5.8829404256687985"><ele>325.0</ele><time>2026-04-11T12:09:27Z</time></trkpt><trkpt lat="43.507713963728925" lon="5.882908635612631"><ele>325.0</ele><time>2026-04-11T12:09:28Z</time></trkpt><trkpt lat="43.50780590373078" lon="5.882896951104586"><ele>325.0</ele><time>2026-04-11T12:09:29Z</time></trkpt><trkpt lat="43.507893724640525" lon="5.882896980920423"><ele>326.2</ele><time>2026-04-11T12:09:30Z</time></trkpt><trkpt lat="43.50797572464526" lon="5.882919352812152"><ele>327.4</ele><time>2026-04-11T12:09:31Z</time></trkpt><trkpt lat="43.50806585489367" lon="5.882991280644338"><ele>328.6</ele><time>2026-04-11T12:09:32Z</time></trkpt><trkpt lat="43.508143352588206" lon="5.8830926723874475"><ele>329.8</ele><time>2026-04-11T12:09:33Z</time></trkpt><trkpt lat="43.508196216732586" lon="5.883174790786458"><ele>331.0</ele><time>2026-04-11T12:09:34Z</time></trkpt><trkpt lat="43.50821708346202" lon="5.8832748777350465"><ele>331.0</ele><time>2026-04-11T12:09:35Z</time></trkpt><trkpt lat="43.50821956417639" lon="5.883391242081039"><ele>331.0</ele><time>2026-04-11T12:09:36Z</time></trkpt><trkpt lat="43.50821019241686" lon="5.88351431902809"><ele>331.0</ele><time>2026-04-11T12:09:37Z</time></trkpt><trkpt lat="43.50818957546139" lon="5.883667487472307"><ele>331.0</ele><time>2026-04-11T12:09:38Z</time></trkpt><trkpt lat="43.50816531386301" lon="5.883827748538941"><ele>331.0</ele><time>2026-04-11T12:09:39Z</time></trkpt><trkpt lat="43.50817219332453" lon="5.88394261379707"><ele>330.66666666666663</ele><time>2026-04-11T12:09:40Z</time></trkpt><trkpt lat="43.50821087820922" lon="5.884026772237312"><ele>330.3333333333333</ele><time>2026-04-11T12:09:41Z</time></trkpt><trkpt lat="43.508284353577956" lon="5.884089573975549"><ele>330.0</ele><time>2026-04-11T12:09:42Z</time></trkpt><trkpt lat="43.50837699753933" lon="5.884118678892489"><ele>329.6666666666667</ele><time>2026-04-11T12:09:43Z</time></trkpt><trkpt lat="43.50844902666933" lon="5.884114584577686"><ele>329.33333333333337</ele><time>2026-04-11T12:09:44Z</time></trkpt><trkpt lat="43.50852076437253" lon="5.884206033857831"><ele>329.0</ele><time>2026-04-11T12:11:04Z</time></trkpt><trkpt lat="43.50857150758636" lon="5.884265016466424"><ele>331.79999999999995</ele><time>2026-04-11T12:11:05Z</time></trkpt><trkpt lat="43.50864712889829" lon="5.8843246615447375"><ele>334.59999999999997</ele><time>2026-04-11T12:11:05.999Z</time></trkpt><trkpt lat="43.50872264718193" lon="5.884388645030081"><ele>337.4</ele><time>2026-04-11T12:11:06.999Z</time></trkpt><trkpt lat="43.50881274732536" lon="5.88447091718534"><ele>340.2</ele><time>2026-04-11T12:11:07.999Z</time></trkpt><trkpt lat="43.508922162615264" lon="5.884560039297695"><ele>343.0</ele><time>2026-04-11T12:11:08.999Z</time></trkpt><trkpt lat="43.50900384535383" lon="5.884614691733523"><ele>343.0</ele><time>2026-04-11T12:11:09.999Z</time></trkpt><trkpt lat="43.509065982008224" lon="5.884679952673733"><ele>343.0</ele><time>2026-04-11T12:11:10.999Z</time></trkpt><trkpt lat="43.509108951893545" lon="5.884776339650652"><ele>343.0</ele><time>2026-04-11T12:11:11.999Z</time></trkpt><trkpt lat="43.509168152784845" lon="5.884863326288257"><ele>343.0</ele><time>2026-04-11T12:11:12.999Z</time></trkpt><trkpt lat="43.50925717086836" lon="5.884932097660836"><ele>343.0</ele><time>2026-04-11T12:11:13.999Z</time></trkpt><trkpt lat="43.5093379785881" lon="5.884981656428492"><ele>343.0</ele><time>2026-04-11T12:11:14.999Z</time></trkpt><trkpt lat="43.509413362405795" lon="5.885011784378079"><ele>343.0</ele><time>2026-04-11T12:11:15.999Z</time></trkpt><trkpt lat="43.509510727992975" lon="5.88500948750769"><ele>343.0</ele><time>2026-04-11T12:11:17Z</time></trkpt><trkpt lat="43.50963582027073" lon="5.884983533007103"><ele>343.0</ele><time>2026-04-11T12:11:18Z</time></trkpt><trkpt lat="43.509796254169274" lon="5.884969221901636"><ele>343.0</ele><time>2026-04-11T12:11:19Z</time></trkpt><trkpt lat="43.50993494033803" lon="5.884970585139159"><ele>342.66666666666663</ele><time>2026-04-11T12:11:20Z</time></trkpt><trkpt lat="43.51003967720735" lon="5.884971320567262"><ele>342.3333333333333</ele><time>2026-04-11T12:11:21Z</time></trkpt><trkpt lat="43.510130777616446" lon="5.884980177081251"><ele>342.0</ele><time>2026-04-11T12:11:22Z</time></trkpt><trkpt lat="43.510203927010146" lon="5.885003798859811"><ele>341.6666666666667</ele><time>2026-04-11T12:11:23Z</time></trkpt><trkpt lat="43.51027515219131" lon="5.885047505673937"><ele>341.33333333333337</ele><time>2026-04-11T12:11:24Z</time></trkpt><trkpt lat="43.510358265397" lon="5.8851093132417"><ele>341.0</ele><time>2026-04-11T12:11:25Z</time></trkpt><trkpt lat="43.51045478817861" lon="5.885165810985616"><ele>343.20000000000005</ele><time>2026-04-11T12:11:26Z</time></trkpt><trkpt lat="43.510557182143565" lon="5.885250196605531"><ele>345.40000000000003</ele><time>2026-04-11T12:11:27Z</time></trkpt><trkpt lat="43.510652685387015" lon="5.88533469881889"><ele>347.6</ele><time>2026-04-11T12:11:28Z</time></trkpt><trkpt lat="43.51072707858332" lon="5.885395992799182"><ele>349.8</ele><time>2026-04-11T12:11:29Z</time></trkpt><trkpt lat="43.51079141530343" lon="5.885470702325352"><ele>352.0</ele><time>2026-04-11T12:11:30Z</time></trkpt><trkpt lat="43.51085351885736" lon="5.885569678514328"><ele>352.0</ele><time>2026-04-11T12:11:31Z</time></trkpt><trkpt lat="43.51090779560211" lon="5.8856765605413335"><ele>352.0</ele><time>2026-04-11T12:11:32Z</time></trkpt><trkpt lat="43.510948982681" lon="5.885781141304847"><ele>352.0</ele><time>2026-04-11T12:11:33Z</time></trkpt><trkpt lat="43.51098293609056" lon="5.885903168360136"><ele>352.0</ele><time>2026-04-11T12:11:34Z</time></trkpt><trkpt lat="43.51100383486972" lon="5.886051981443561"><ele>352.0</ele><time>2026-04-11T12:11:35Z</time></trkpt><trkpt lat="43.51101073396807" lon="5.886217935323259"><ele>353.16666666666663</ele><time>2026-04-11T12:11:36Z</time></trkpt><trkpt lat="43.51100068295726" lon="5.886356274839785"><ele>354.3333333333333</ele><time>2026-04-11T12:11:37Z</time></trkpt><trkpt lat="43.51098775368957" lon="5.8864873681363665"><ele>355.5</ele><time>2026-04-11T12:11:38Z</time></trkpt><trkpt lat="43.51097915346655" lon="5.886613959361836"><ele>356.6666666666667</ele><time>2026-04-11T12:11:39Z</time></trkpt><trkpt lat="43.510992040132784" lon="5.886718502601571"><ele>357.83333333333337</ele><time>2026-04-11T12:11:40Z</time></trkpt><trkpt lat="43.511041861833725" lon="5.886787892811508"><ele>359.0</ele><time>2026-04-11T12:11:41Z</time></trkpt><trkpt lat="43.511123463643145" lon="5.886797246820893"><ele>359.4</ele><time>2026-04-11T12:11:42Z</time></trkpt><trkpt lat="43.511225624631486" lon="5.886788146770328"><ele>359.79999999999995</ele><time>2026-04-11T12:11:43Z</time></trkpt><trkpt lat="43.51133499618164" lon="5.886788320078451"><ele>360.20000000000005</ele><time>2026-04-11T12:11:44Z</time></trkpt><trkpt lat="43.51142069297264" lon="5.886808233889188"><ele>360.6</ele><time>2026-04-11T12:11:45Z</time></trkpt><trkpt lat="43.51147214435821" lon="5.886881126505848"><ele>361.0</ele><time>2026-04-11T12:11:46Z</time></trkpt><trkpt lat="43.51151055655946" lon="5.887002120804635"><ele>361.0</ele><time>2026-04-11T12:11:47Z</time></trkpt><trkpt lat="43.511554663833195" lon="5.88712477578018"><ele>361.0</ele><time>2026-04-11T12:11:48Z</time></trkpt><trkpt lat="43.51161662136984" lon="5.8871555151900115"><ele>361.0</ele><time>2026-04-11T12:11:49Z</time></trkpt><trkpt lat="43.51168915408039" lon="5.887133327396659"><ele>361.0</ele><time>2026-04-11T12:11:50Z</time></trkpt><trkpt lat="43.51177054547823" lon="5.887079474923744"><ele>361.0</ele><time>2026-04-11T12:11:51Z</time></trkpt><trkpt lat="43.51187732632462" lon="5.887073840021494"><ele>361.0</ele><time>2026-04-11T12:11:52Z</time></trkpt><trkpt lat="43.51199497373044" lon="5.887096508445579"><ele>360.4</ele><time>2026-04-11T12:11:53Z</time></trkpt><trkpt lat="43.51209442646699" lon="5.8871152124228185"><ele>359.8</ele><time>2026-04-11T12:11:54Z</time></trkpt><trkpt lat="43.51218138273555" lon="5.8871264397291325"><ele>359.2</ele><time>2026-04-11T12:11:55Z</time></trkpt><trkpt lat="43.51225887812735" lon="5.887124402250281"><ele>358.59999999999997</ele><time>2026-04-11T12:11:56Z</time></trkpt><trkpt lat="43.512361398021504" lon="5.887131922656227"><ele>358.0</ele><time>2026-04-11T12:11:58Z</time></trkpt><trkpt lat="43.51243828397758" lon="5.88707074266687"><ele>358.0</ele><time>2026-04-11T12:12:00Z</time></trkpt><trkpt lat="43.512553751427546" lon="5.886960474791054"><ele>358.0</ele><time>2026-04-11T12:12:02Z</time></trkpt><trkpt lat="43.51264211995009" lon="5.88689937553415"><ele>358.0</ele><time>2026-04-11T12:12:03Z</time></trkpt><trkpt lat="43.51275743590722" lon="5.886825776014453"><ele>358.0</ele><time>2026-04-11T12:12:04Z</time></trkpt><trkpt lat="43.51285800118461" lon="5.886775443694787"><ele>359.59999999999997</ele><time>2026-04-11T12:12:05Z</time></trkpt><trkpt lat="43.51293575797275" lon="5.886746788745775"><ele>361.2</ele><time>2026-04-11T12:12:06Z</time></trkpt><trkpt lat="43.513039762265905" lon="5.886737141696636"><ele>362.8</ele><time>2026-04-11T12:12:07Z</time></trkpt><trkpt lat="43.51314928865362" lon="5.886749304339772"><ele>364.4</ele><time>2026-04-11T12:12:08Z</time></trkpt><trkpt lat="43.513246788388344" lon="5.886789012135467"><ele>366.0</ele><time>2026-04-11T12:12:09Z</time></trkpt><trkpt lat="43.51333836048078" lon="5.886858807126134"><ele>366.0</ele><time>2026-04-11T12:12:10Z</time></trkpt><trkpt lat="43.513421287982375" lon="5.8869339899481705"><ele>366.0</ele><time>2026-04-11T12:12:11Z</time></trkpt><trkpt lat="43.51350783190866" lon="5.886947435448628"><ele>366.0</ele><time>2026-04-11T12:12:12Z</time></trkpt><trkpt lat="43.51358901989403" lon="5.8869399063967744"><ele>366.0</ele><time>2026-04-11T12:12:13Z</time></trkpt><trkpt lat="43.51368562464444" lon="5.886881704914094"><ele>366.0</ele><time>2026-04-11T12:12:14Z</time></trkpt><trkpt lat="43.513783585456544" lon="5.8867826714052445"><ele>368.25</ele><time>2026-04-11T12:12:15Z</time></trkpt><trkpt lat="43.513873845701404" lon="5.886702193432877"><ele>370.5</ele><time>2026-04-11T12:12:16Z</time></trkpt><trkpt lat="43.513961454351836" lon="5.8866592300310705"><ele>372.75</ele><time>2026-04-11T12:12:17Z</time></trkpt><trkpt lat="43.514073180767305" lon="5.886614286068867"><ele>375.0</ele><time>2026-04-11T12:12:18Z</time></trkpt><trkpt lat="43.514208060843075" lon="5.886560754659979"><ele>375.0</ele><time>2026-04-11T12:12:19Z</time></trkpt><trkpt lat="43.5143427141387" lon="5.886494948347866"><ele>375.0</ele><time>2026-04-11T12:12:20Z</time></trkpt><trkpt lat="43.51445104345406" lon="5.886432880902833"><ele>375.0</ele><time>2026-04-11T12:12:21Z</time></trkpt><trkpt lat="43.514538536231264" lon="5.88636887916691"><ele>375.0</ele><time>2026-04-11T12:12:22Z</time></trkpt><trkpt lat="43.514633557337326" lon="5.886313392331626"><ele>377.0</ele><time>2026-04-11T12:12:23Z</time></trkpt><trkpt lat="43.51474736727223" lon="5.886272822943648"><ele>379.0</ele><time>2026-04-11T12:12:24Z</time></trkpt><trkpt lat="43.51487906617949" lon="5.8862390338120525"><ele>381.0</ele><time>2026-04-11T12:12:25Z</time></trkpt><trkpt lat="43.5149966392901" lon="5.886207716988339"><ele>383.0</ele><time>2026-04-11T12:12:26Z</time></trkpt><trkpt lat="43.51511758632123" lon="5.886167556595788"><ele>383.0</ele><time>2026-04-11T12:12:27Z</time></trkpt><trkpt lat="43.515242978198906" lon="5.886088646659042"><ele>383.0</ele><time>2026-04-11T12:12:28Z</time></trkpt><trkpt lat="43.51535605365136" lon="5.88602509650897"><ele>383.0</ele><time>2026-04-11T12:12:29Z</time></trkpt><trkpt lat="43.515468671388525" lon="5.885979245663627"><ele>383.0</ele><time>2026-04-11T12:12:30Z</time></trkpt><trkpt lat="43.51557880931725" lon="5.885941271254138"><ele>383.79999999999995</ele><time>2026-04-11T12:12:31Z</time></trkpt><trkpt lat="43.51567273954746" lon="5.885907249838114"><ele>384.6</ele><time>2026-04-11T12:12:32Z</time></trkpt><trkpt lat="43.51576372133612" lon="5.885850474098192"><ele>385.4</ele><time>2026-04-11T12:12:33Z</time></trkpt><trkpt lat="43.51584747571466" lon="5.885756340610606"><ele>386.20000000000005</ele><time>2026-04-11T12:12:34Z</time></trkpt><trkpt lat="43.5159165205002" lon="5.885668973283213"><ele>387.0</ele><time>2026-04-11T12:12:35Z</time></trkpt><trkpt lat="43.515982588255326" lon="5.885606580316372"><ele>387.0</ele><time>2026-04-11T12:12:36Z</time></trkpt><trkpt lat="43.516071110606106" lon="5.8855615216680714"><ele>387.0</ele><time>2026-04-11T12:12:37Z</time></trkpt><trkpt lat="43.516176127365355" lon="5.885522850182334"><ele>387.0</ele><time>2026-04-11T12:12:38Z</time></trkpt><trkpt lat="43.51629689973371" lon="5.885477533416564"><ele>387.0</ele><time>2026-04-11T12:12:39Z</time></trkpt><trkpt lat="43.51640550112599" lon="5.8854441183047355"><ele>387.0</ele><time>2026-04-11T12:12:40Z</time></trkpt><trkpt lat="43.516514529100526" lon="5.8854349494709455"><ele>388.0</ele><time>2026-04-11T12:12:41Z</time></trkpt><trkpt lat="43.51662779647389" lon="5.885439605551532"><ele>389.0</ele><time>2026-04-11T12:12:42Z</time></trkpt><trkpt lat="43.51672853770052" lon="5.885459895780022"><ele>390.0</ele><time>2026-04-11T12:12:43Z</time></trkpt><trkpt lat="43.516830958222116" lon="5.8854877799779395"><ele>391.0</ele><time>2026-04-11T12:12:44Z</time></trkpt><trkpt lat="43.51695280549122" lon="5.885516528242024"><ele>392.0</ele><time>2026-04-11T12:12:45Z</time></trkpt><trkpt lat="43.51707293334293" lon="5.885541254819585"><ele>393.5</ele><time>2026-04-11T12:12:46Z</time></trkpt><trkpt lat="43.517208368893215" lon="5.885565883063378"><ele>395.0</ele><time>2026-04-11T12:12:47Z</time></trkpt><trkpt lat="43.51734277183586" lon="5.885594214527038"><ele>396.5</ele><time>2026-04-11T12:12:48Z</time></trkpt><trkpt lat="43.51744886059557" lon="5.885611636227819"><ele>398.0</ele><time>2026-04-11T12:12:49Z</time></trkpt><trkpt lat="43.51754119659801" lon="5.885633820610043"><ele>397.99999999999994</ele><time>2026-04-11T12:12:50Z</time></trkpt><trkpt lat="43.5176280354793" lon="5.885653842175152"><ele>398.0</ele><time>2026-04-11T12:12:51Z</time></trkpt><trkpt lat="43.51771242450981" lon="5.885652307545546"><ele>398.0</ele><time>2026-04-11T12:12:52Z</time></trkpt><trkpt lat="43.51779376844359" lon="5.885609349717943"><ele>398.0</ele><time>2026-04-11T12:12:53Z</time></trkpt><trkpt lat="43.51787673022257" lon="5.885541513496764"><ele>397.99999999999994</ele><time>2026-04-11T12:12:54Z</time></trkpt><trkpt lat="43.5179492713685" lon="5.885502104350771"><ele>398.0</ele><time>2026-04-11T12:12:55Z</time></trkpt><trkpt lat="43.51802610425412" lon="5.885498961270117"><ele>399.0</ele><time>2026-04-11T12:12:56Z</time></trkpt><trkpt lat="43.518108525763324" lon="5.885524254101373"><ele>400.0</ele><time>2026-04-11T12:12:57Z</time></trkpt><trkpt lat="43.51820223440956" lon="5.885575071750187"><ele>401.0</ele><time>2026-04-11T12:12:58Z</time></trkpt><trkpt lat="43.51830085785035" lon="5.885659444931803"><ele>402.0</ele><time>2026-04-11T12:12:59Z</time></trkpt><trkpt lat="43.51839717330672" lon="5.88574489748209"><ele>403.0</ele><time>2026-04-11T12:13:00Z</time></trkpt><trkpt lat="43.51848139671785" lon="5.88580378225273"><ele>403.0</ele><time>2026-04-11T12:13:01Z</time></trkpt><trkpt lat="43.518590193622366" lon="5.885838038136853"><ele>403.0</ele><time>2026-04-11T12:13:02Z</time></trkpt><trkpt lat="43.5187162385903" lon="5.885864857276663"><ele>403.0</ele><time>2026-04-11T12:13:03Z</time></trkpt><trkpt lat="43.51880956678708" lon="5.885889732137656"><ele>403.0</ele><time>2026-04-11T12:13:03.999Z</time></trkpt><trkpt lat="43.51890409315307" lon="5.885943088179089"><ele>403.0</ele><time>2026-04-11T12:13:04.999Z</time></trkpt><trkpt lat="43.519014259764056" lon="5.886035243225986"><ele>404.59999999999997</ele><time>2026-04-11T12:13:05.999Z</time></trkpt><trkpt lat="43.519135936038296" lon="5.886107040977607"><ele>406.2</ele><time>2026-04-11T12:13:06.999Z</time></trkpt><trkpt lat="43.519239221887894" lon="5.886154422792089"><ele>407.8</ele><time>2026-04-11T12:13:07.999Z</time></trkpt><trkpt lat="43.519316275745226" lon="5.886192251916515"><ele>409.4</ele><time>2026-04-11T12:13:08.999Z</time></trkpt><trkpt lat="43.51939119164508" lon="5.886246854855198"><ele>411.0</ele><time>2026-04-11T12:13:09.999Z</time></trkpt><trkpt lat="43.519486060281025" lon="5.886309999708727"><ele>412.6</ele><time>2026-04-11T12:13:10.999Z</time></trkpt><trkpt lat="43.51959347485046" lon="5.8863601822414235"><ele>414.20000000000005</ele><time>2026-04-11T12:13:11.999Z</time></trkpt><trkpt lat="43.51968096309079" lon="5.886404611265367"><ele>415.79999999999995</ele><time>2026-04-11T12:13:12.999Z</time></trkpt><trkpt lat="43.51980050923706" lon="5.886388864030512"><ele>417.4</ele><time>2026-04-11T12:13:14.999Z</time></trkpt><trkpt lat="43.5198764989878" lon="5.886319527247143"><ele>419.0</ele><time>2026-04-11T12:13:15.999Z</time></trkpt><trkpt lat="43.519962922403884" lon="5.886257060897094"><ele>419.0</ele><time>2026-04-11T12:13:16.999Z</time></trkpt><trkpt lat="43.52005989307703" lon="5.886221277706524"><ele>419.0</ele><time>2026-04-11T12:13:17.999Z</time></trkpt><trkpt lat="43.520151999248064" lon="5.886201270987647"><ele>419.0</ele><time>2026-04-11T12:13:18.999Z</time></trkpt><trkpt lat="43.520230456066045" lon="5.886187134014882"><ele>419.0</ele><time>2026-04-11T12:13:19.999Z</time></trkpt><trkpt lat="43.520312789245295" lon="5.886195303846337"><ele>419.0</ele><time>2026-04-11T12:13:20.999Z</time></trkpt><trkpt lat="43.52041010448196" lon="5.88621245726759"><ele>420.49999999999994</ele><time>2026-04-11T12:13:22Z</time></trkpt><trkpt lat="43.52049825967748" lon="5.886238741759079"><ele>422.0</ele><time>2026-04-11T12:13:23Z</time></trkpt><trkpt lat="43.52058664564937" lon="5.886283486059871"><ele>423.5</ele><time>2026-04-11T12:13:24Z</time></trkpt><trkpt lat="43.52067585966581" lon="5.886331375840296"><ele>425.0</ele><time>2026-04-11T12:13:25Z</time></trkpt><trkpt lat="43.52074796092975" lon="5.886358261607649"><ele>426.49999999999994</ele><time>2026-04-11T12:13:26Z</time></trkpt><trkpt lat="43.520814503178535" lon="5.886333972002058"><ele>428.0</ele><time>2026-04-11T12:13:27Z</time></trkpt><trkpt lat="43.52090901701991" lon="5.886292861861285"><ele>427.99999999999994</ele><time>2026-04-11T12:13:28Z</time></trkpt><trkpt lat="43.5209990422993" lon="5.886265681116951"><ele>428.0</ele><time>2026-04-11T12:13:29Z</time></trkpt><trkpt lat="43.521090655136334" lon="5.886281116655603"><ele>428.0</ele><time>2026-04-11T12:13:30Z</time></trkpt><trkpt lat="43.521179325168696" lon="5.886300855657875"><ele>428.0</ele><time>2026-04-11T12:13:31Z</time></trkpt><trkpt lat="43.52126357370232" lon="5.886312054596344"><ele>427.99999999999994</ele><time>2026-04-11T12:13:32Z</time></trkpt><trkpt lat="43.52134569756393" lon="5.886292629317865"><ele>428.0</ele><time>2026-04-11T12:13:33Z</time></trkpt><trkpt lat="43.521433120753485" lon="5.886267867039756"><ele>430.2</ele><time>2026-04-11T12:13:34Z</time></trkpt><trkpt lat="43.52153092446494" lon="5.886270232945619"><ele>432.4</ele><time>2026-04-11T12:13:35Z</time></trkpt><trkpt lat="43.521642869207106" lon="5.886283034318335"><ele>434.59999999999997</ele><time>2026-04-11T12:13:36Z</time></trkpt><trkpt lat="43.52175563113632" lon="5.886289622617169"><ele>436.79999999999995</ele><time>2026-04-11T12:13:37Z</time></trkpt><trkpt lat="43.52184635835486" lon="5.886291979242107"><ele>439.0</ele><time>2026-04-11T12:13:38Z</time></trkpt><trkpt lat="43.521933787767686" lon="5.886308320672511"><ele>439.0</ele><time>2026-04-11T12:13:39Z</time></trkpt><trkpt lat="43.52203617426929" lon="5.886352521446201"><ele>439.0</ele><time>2026-04-11T12:13:40Z</time></trkpt><trkpt lat="43.52214959502598" lon="5.886380247428295"><ele>439.0</ele><time>2026-04-11T12:13:41Z</time></trkpt><trkpt lat="43.52224666076361" lon="5.886384025370823"><ele>439.0</ele><time>2026-04-11T12:13:42Z</time></trkpt><trkpt lat="43.52233835177024" lon="5.886390783559003"><ele>439.0</ele><time>2026-04-11T12:13:43Z</time></trkpt><trkpt lat="43.52242704897789" lon="5.8864020495580265"><ele>440.50000000000006</ele><time>2026-04-11T12:13:44Z</time></trkpt><trkpt lat="43.522523740342024" lon="5.886410463893993"><ele>442.0</ele><time>2026-04-11T12:13:45Z</time></trkpt><trkpt lat="43.52262710276031" lon="5.886411665707226"><ele>443.5</ele><time>2026-04-11T12:13:46Z</time></trkpt><trkpt lat="43.522719003029785" lon="5.886412558203161"><ele>445.0</ele><time>2026-04-11T12:13:47Z</time></trkpt><trkpt lat="43.52279544782086" lon="5.8864013178277235"><ele>446.50000000000006</ele><time>2026-04-11T12:13:48Z</time></trkpt><trkpt lat="43.522860226847236" lon="5.886380738264193"><ele>448.0</ele><time>2026-04-11T12:13:49Z</time></trkpt><trkpt lat="43.522930939698014" lon="5.886330886508143"><ele>448.83333333333337</ele><time>2026-04-11T12:13:50Z</time></trkpt><trkpt lat="43.52298659675224" lon="5.8862488593972735"><ele>449.6666666666667</ele><time>2026-04-11T12:13:51Z</time></trkpt><trkpt lat="43.52303636191647" lon="5.886159550218174"><ele>450.5</ele><time>2026-04-11T12:13:52Z</time></trkpt><trkpt lat="43.52307895003638" lon="5.886093482811404"><ele>451.33333333333337</ele><time>2026-04-11T12:13:53Z</time></trkpt><trkpt lat="43.5231318877697" lon="5.886038044113455"><ele>452.1666666666667</ele><time>2026-04-11T12:13:54Z</time></trkpt><trkpt lat="43.52320584026255" lon="5.885987009094827"><ele>453.0</ele><time>2026-04-11T12:13:55Z</time></trkpt><trkpt lat="43.52328247708327" lon="5.885960946984126"><ele>453.59999999999997</ele><time>2026-04-11T12:13:56Z</time></trkpt><trkpt lat="43.52335256236332" lon="5.8858480248855765"><ele>454.19999999999993</ele><time>2026-04-11T12:13:58Z</time></trkpt><trkpt lat="43.523371749082024" lon="5.885742043783368"><ele>454.8</ele><time>2026-04-11T12:13:59Z</time></trkpt><trkpt lat="43.52341399243371" lon="5.885649673160054"><ele>455.4</ele><time>2026-04-11T12:14:00Z</time></trkpt><trkpt lat="43.52348740426976" lon="5.885570322151264"><ele>456.0</ele><time>2026-04-11T12:14:01Z</time></trkpt><trkpt lat="43.52357038659042" lon="5.885503790084205"><ele>456.0</ele><time>2026-04-11T12:14:02Z</time></trkpt><trkpt lat="43.52362873202403" lon="5.885426682428838"><ele>456.0</ele><time>2026-04-11T12:14:03Z</time></trkpt><trkpt lat="43.52367921810622" lon="5.885309349827051"><ele>456.0</ele><time>2026-04-11T12:14:04Z</time></trkpt><trkpt lat="43.52371943411414" lon="5.88518692213181"><ele>456.0</ele><time>2026-04-11T12:14:05Z</time></trkpt><trkpt lat="43.52376274309813" lon="5.885099504297775"><ele>456.0</ele><time>2026-04-11T12:14:06Z</time></trkpt><trkpt lat="43.52387877187499" lon="5.885022588897313"><ele>457.6</ele><time>2026-04-11T12:14:08Z</time></trkpt><trkpt lat="43.5239748676964" lon="5.885014926042215"><ele>459.20000000000005</ele><time>2026-04-11T12:14:09Z</time></trkpt><trkpt lat="43.52408569296419" lon="5.8850113708940635"><ele>460.79999999999995</ele><time>2026-04-11T12:14:10Z</time></trkpt><trkpt lat="43.524178862170515" lon="5.88500127624531"><ele>462.4</ele><time>2026-04-11T12:14:11Z</time></trkpt><trkpt lat="43.524255559268425" lon="5.884985843285276"><ele>464.0</ele><time>2026-04-11T12:14:12Z</time></trkpt><trkpt lat="43.524327098379096" lon="5.884978341671203"><ele>463.99999999999994</ele><time>2026-04-11T12:14:13Z</time></trkpt><trkpt lat="43.524411878999274" lon="5.884957193054881"><ele>464.0</ele><time>2026-04-11T12:14:14Z</time></trkpt><trkpt lat="43.524517378917416" lon="5.884934761334947"><ele>464.0</ele><time>2026-04-11T12:14:15Z</time></trkpt><trkpt lat="43.52461865265859" lon="5.884914821212698"><ele>464.0</ele><time>2026-04-11T12:14:16Z</time></trkpt><trkpt lat="43.524703280592426" lon="5.884899298770747"><ele>463.99999999999994</ele><time>2026-04-11T12:14:17Z</time></trkpt><trkpt lat="43.524767511816805" lon="5.8848859075078845"><ele>464.0</ele><time>2026-04-11T12:14:18Z</time></trkpt><trkpt lat="43.52481561766627" lon="5.88494950490213"><ele>463.99999999999994</ele><time>2026-04-11T12:14:27Z</time></trkpt><trkpt lat="43.524764854864344" lon="5.885079167591924"><ele>464.0</ele><time>2026-04-11T12:14:30Z</time></trkpt><trkpt lat="43.524733982711304" lon="5.885159801466928"><ele>464.0</ele><time>2026-04-11T12:14:32Z</time></trkpt><trkpt lat="43.52466415436108" lon="5.885127587390955"><ele>464.0</ele><time>2026-04-11T12:14:35Z</time></trkpt><trkpt lat="43.524624864021085" lon="5.885248462203041"><ele>463.99999999999994</ele><time>2026-04-11T12:14:38Z</time></trkpt><trkpt lat="43.524547734964145" lon="5.88531918134844"><ele>464.0</ele><time>2026-04-11T12:14:40Z</time></trkpt><trkpt lat="43.52452270379024" lon="5.885421537147296"><ele>463.8333333333333</ele><time>2026-04-11T12:14:42Z</time></trkpt><trkpt lat="43.52451541504339" lon="5.8855742369261135"><ele>463.66666666666663</ele><time>2026-04-11T12:14:44Z</time></trkpt><trkpt lat="43.52449547437904" lon="5.885696826456039"><ele>463.5</ele><time>2026-04-11T12:14:46Z</time></trkpt><trkpt lat="43.52452711243112" lon="5.885783883858835"><ele>463.33333333333337</ele><time>2026-04-11T12:14:48Z</time></trkpt><trkpt lat="43.524548845010784" lon="5.885907798883569"><ele>463.1666666666667</ele><time>2026-04-11T12:14:52Z</time></trkpt><trkpt lat="43.524561915729855" lon="5.88600592514123"><ele>463.0</ele><time>2026-04-11T12:14:54Z</time></trkpt><trkpt lat="43.52460135660938" lon="5.8860756220621"><ele>462.50000000000006</ele><time>2026-04-11T12:14:58.999Z</time></trkpt><trkpt lat="43.52459752956385" lon="5.886166045476421"><ele>462.0</ele><time>2026-04-11T12:15:00.999Z</time></trkpt><trkpt lat="43.52460839233179" lon="5.886284872002526"><ele>461.5</ele><time>2026-04-11T12:15:03.999Z</time></trkpt><trkpt lat="43.52459080449196" lon="5.88637908722294"><ele>461.0</ele><time>2026-04-11T12:15:05.999Z</time></trkpt><trkpt lat="43.524621713220355" lon="5.886539057232616"><ele>460.50000000000006</ele><time>2026-04-11T12:15:07.999Z</time></trkpt><trkpt lat="43.52464626562996" lon="5.886657326324391"><ele>460.0</ele><time>2026-04-11T12:15:09.999Z</time></trkpt><trkpt lat="43.52469980337034" lon="5.886748504282446"><ele>459.1666666666667</ele><time>2026-04-11T12:15:12.999Z</time></trkpt><trkpt lat="43.5247188306501" lon="5.886848042931346"><ele>458.33333333333337</ele><time>2026-04-11T12:15:16.999Z</time></trkpt><trkpt lat="43.52467480777437" lon="5.886942200118735"><ele>457.5</ele><time>2026-04-11T12:15:19.999Z</time></trkpt><trkpt lat="43.52464627000117" lon="5.887037217537508"><ele>456.66666666666663</ele><time>2026-04-11T12:15:21.999Z</time></trkpt><trkpt lat="43.52454988929728" lon="5.8870833732888075"><ele>455.8333333333333</ele><time>2026-04-11T12:15:23.999Z</time></trkpt><trkpt lat="43.52451372379108" lon="5.887177347149881"><ele>455.0</ele><time>2026-04-11T12:15:26.999Z</time></trkpt><trkpt lat="43.52448734087728" lon="5.8872814601187065"><ele>454.3333333333333</ele><time>2026-04-11T12:15:29Z</time></trkpt><trkpt lat="43.524428110862" lon="5.88735231809354"><ele>453.66666666666663</ele><time>2026-04-11T12:15:32Z</time></trkpt><trkpt lat="43.52436093930473" lon="5.887388407346567"><ele>453.0</ele><time>2026-04-11T12:15:34Z</time></trkpt><trkpt lat="43.524306824469406" lon="5.887483714666668"><ele>452.33333333333337</ele><time>2026-04-11T12:15:36Z</time></trkpt><trkpt lat="43.52424543483597" lon="5.887533947327351"><ele>451.6666666666667</ele><time>2026-04-11T12:15:38Z</time></trkpt><trkpt lat="43.52418229727074" lon="5.887549409950557"><ele>451.0</ele><time>2026-04-11T12:15:40Z</time></trkpt><trkpt lat="43.524095564823476" lon="5.8875302530730425"><ele>451.00000000000006</ele><time>2026-04-11T12:15:43Z</time></trkpt><trkpt lat="43.52404055417475" lon="5.8875925040789365"><ele>451.0</ele><time>2026-04-11T12:15:48Z</time></trkpt><trkpt lat="43.523969962062246" lon="5.887632966318392"><ele>451.0</ele><time>2026-04-11T12:15:50Z</time></trkpt><trkpt lat="43.52393041038025" lon="5.88777704430183"><ele>451.0</ele><time>2026-04-11T12:15:52Z</time></trkpt><trkpt lat="43.52394395846767" lon="5.887891696948022"><ele>451.00000000000006</ele><time>2026-04-11T12:15:54Z</time></trkpt><trkpt lat="43.52392617367374" lon="5.888019973548344"><ele>451.0</ele><time>2026-04-11T12:15:58Z</time></trkpt><trkpt lat="43.52389364642959" lon="5.888107706636961"><ele>450.00000000000006</ele><time>2026-04-11T12:16:00Z</time></trkpt><trkpt lat="43.52383446792615" lon="5.888160239230625"><ele>449.0</ele><time>2026-04-11T12:16:02Z</time></trkpt><trkpt lat="43.52374746247867" lon="5.88816090173426"><ele>448.0</ele><time>2026-04-11T12:16:04Z</time></trkpt><trkpt lat="43.5236973231655" lon="5.888251780729815"><ele>447.0</ele><time>2026-04-11T12:16:07Z</time></trkpt><trkpt lat="43.523656521727474" lon="5.888329107849321"><ele>446.00000000000006</ele><time>2026-04-11T12:16:09Z</time></trkpt><trkpt lat="43.523613947674576" lon="5.888400335493903"><ele>445.0</ele><time>2026-04-11T12:16:11Z</time></trkpt><trkpt lat="43.52354178696598" lon="5.888445787960928"><ele>442.0</ele><time>2026-04-11T12:16:13Z</time></trkpt><trkpt lat="43.52346779119284" lon="5.888509617507237"><ele>439.0</ele><time>2026-04-11T12:16:18Z</time></trkpt><trkpt lat="43.52340083917484" lon="5.888622641953653"><ele>436.0</ele><time>2026-04-11T12:16:22Z</time></trkpt><trkpt lat="43.523360635974136" lon="5.888717990418875"><ele>433.0</ele><time>2026-04-11T12:16:23Z</time></trkpt><trkpt lat="43.52331754639066" lon="5.888817170154104"><ele>430.0</ele><time>2026-04-11T12:16:24Z</time></trkpt><trkpt lat="43.523252862657934" lon="5.888940480514109"><ele>430.0</ele><time>2026-04-11T12:16:26Z</time></trkpt><trkpt lat="43.52318122446222" lon="5.889053644779608"><ele>430.0</ele><time>2026-04-11T12:16:28Z</time></trkpt><trkpt lat="43.52311532133982" lon="5.88918209930799"><ele>430.0</ele><time>2026-04-11T12:16:30Z</time></trkpt><trkpt lat="43.52306717200594" lon="5.889288319442449"><ele>430.0</ele><time>2026-04-11T12:16:31Z</time></trkpt><trkpt lat="43.523016862483935" lon="5.88936168722849"><ele>430.0</ele><time>2026-04-11T12:16:32Z</time></trkpt><trkpt lat="43.5229733779951" lon="5.889428008572081"><ele>428.33333333333337</ele><time>2026-04-11T12:16:33Z</time></trkpt><trkpt lat="43.52288401676272" lon="5.889503579756014"><ele>426.6666666666667</ele><time>2026-04-11T12:16:35Z</time></trkpt><trkpt lat="43.522821786754726" lon="5.889571866401629"><ele>425.0</ele><time>2026-04-11T12:16:36Z</time></trkpt><trkpt lat="43.52278121185013" lon="5.889657973589797"><ele>423.33333333333337</ele><time>2026-04-11T12:16:37Z</time></trkpt><trkpt lat="43.52274869229362" lon="5.88974028205338"><ele>421.6666666666667</ele><time>2026-04-11T12:16:38Z</time></trkpt><trkpt lat="43.52273239283307" lon="5.889831219814939"><ele>420.0</ele><time>2026-04-11T12:16:39Z</time></trkpt><trkpt lat="43.52266288165376" lon="5.8899295776778855"><ele>420.0</ele><time>2026-04-11T12:16:41Z</time></trkpt><trkpt lat="43.52258791045891" lon="5.89002253100235"><ele>420.0</ele><time>2026-04-11T12:16:43Z</time></trkpt><trkpt lat="43.522535131123014" lon="5.890103940703297"><ele>420.0</ele><time>2026-04-11T12:16:45Z</time></trkpt><trkpt lat="43.52262039804566" lon="5.890167125404914"><ele>420.0</ele><time>2026-04-11T12:16:53Z</time></trkpt><trkpt lat="43.52270295828763" lon="5.890186069823409"><ele>420.0</ele><time>2026-04-11T12:16:54Z</time></trkpt><trkpt lat="43.52280594090322" lon="5.890203091988362"><ele>422.25</ele><time>2026-04-11T12:16:55Z</time></trkpt><trkpt lat="43.522921812699025" lon="5.8902281491892605"><ele>424.5</ele><time>2026-04-11T12:16:56Z</time></trkpt><trkpt lat="43.52305841586744" lon="5.890285199886062"><ele>426.75</ele><time>2026-04-11T12:16:57Z</time></trkpt><trkpt lat="43.523203451678526" lon="5.890348813351605"><ele>429.0</ele><time>2026-04-11T12:16:58Z</time></trkpt><trkpt lat="43.5233113208317" lon="5.890398082008373"><ele>429.0</ele><time>2026-04-11T12:16:59Z</time></trkpt><trkpt lat="43.52339372635269" lon="5.890414264903985"><ele>429.0</ele><time>2026-04-11T12:17:00Z</time></trkpt><trkpt lat="43.523490811934344" lon="5.89042097180965"><ele>429.0</ele><time>2026-04-11T12:17:01Z</time></trkpt><trkpt lat="43.52357435926437" lon="5.890429395070127"><ele>429.0</ele><time>2026-04-11T12:17:01.999Z</time></trkpt><trkpt lat="43.52364527014336" lon="5.890400757330881"><ele>429.0</ele><time>2026-04-11T12:17:02.999Z</time></trkpt><trkpt lat="43.523749492422134" lon="5.890331103310862"><ele>429.25</ele><time>2026-04-11T12:17:03.999Z</time></trkpt><trkpt lat="43.523869317163964" lon="5.890262988181553"><ele>429.5</ele><time>2026-04-11T12:17:04.999Z</time></trkpt><trkpt lat="43.523983373619274" lon="5.890194104350279"><ele>429.75</ele><time>2026-04-11T12:17:05.999Z</time></trkpt><trkpt lat="43.524121991025176" lon="5.890130852125474"><ele>430.0</ele><time>2026-04-11T12:17:06.999Z</time></trkpt><trkpt lat="43.52425234782951" lon="5.890075887478176"><ele>430.0</ele><time>2026-04-11T12:17:07.999Z</time></trkpt><trkpt lat="43.52435654123233" lon="5.890018615673596"><ele>430.0</ele><time>2026-04-11T12:17:08.999Z</time></trkpt><trkpt lat="43.52445220760793" lon="5.889964825097379"><ele>430.0</ele><time>2026-04-11T12:17:09.999Z</time></trkpt><trkpt lat="43.524548111274505" lon="5.889921090180858"><ele>430.0</ele><time>2026-04-11T12:17:10.999Z</time></trkpt><trkpt lat="43.52467047120778" lon="5.889879981233477"><ele>430.0</ele><time>2026-04-11T12:17:11.999Z</time></trkpt><trkpt lat="43.524782266391554" lon="5.889844268309409"><ele>430.6</ele><time>2026-04-11T12:17:12.999Z</time></trkpt><trkpt lat="43.524878510470494" lon="5.889789275101494"><ele>431.2</ele><time>2026-04-11T12:17:13.999Z</time></trkpt><trkpt lat="43.52498019707367" lon="5.889731360665988"><ele>431.79999999999995</ele><time>2026-04-11T12:17:14.999Z</time></trkpt><trkpt lat="43.52508093231093" lon="5.889681160026491"><ele>432.4</ele><time>2026-04-11T12:17:15.999Z</time></trkpt><trkpt lat="43.52516442005274" lon="5.889624600745016"><ele>433.0</ele><time>2026-04-11T12:17:16.999Z</time></trkpt><trkpt lat="43.52524421961832" lon="5.889550841942547"><ele>433.0</ele><time>2026-04-11T12:17:17.999Z</time></trkpt><trkpt lat="43.52532426725385" lon="5.889469833107935"><ele>432.99999999999994</ele><time>2026-04-11T12:17:18.999Z</time></trkpt><trkpt lat="43.52538588769375" lon="5.889386828109008"><ele>432.99999999999994</ele><time>2026-04-11T12:17:19.999Z</time></trkpt><trkpt lat="43.525446518775325" lon="5.889319193439697"><ele>433.0</ele><time>2026-04-11T12:17:20.999Z</time></trkpt><trkpt lat="43.525545096405466" lon="5.889261283014316"><ele>433.0</ele><time>2026-04-11T12:17:21.999Z</time></trkpt><trkpt lat="43.52566858875391" lon="5.889185211077169"><ele>434.25</ele><time>2026-04-11T12:17:22.999Z</time></trkpt><trkpt lat="43.52581595555613" lon="5.88908751490119"><ele>435.5</ele><time>2026-04-11T12:17:23.999Z</time></trkpt><trkpt lat="43.525939663987074" lon="5.888979580786989"><ele>436.75</ele><time>2026-04-11T12:17:24.999Z</time></trkpt><trkpt lat="43.526038299475736" lon="5.888895980935895"><ele>438.0</ele><time>2026-04-11T12:17:25.999Z</time></trkpt><trkpt lat="43.52613428098947" lon="5.888808787335317"><ele>439.2</ele><time>2026-04-11T12:17:26.999Z</time></trkpt><trkpt lat="43.52623463417321" lon="5.888719147189953"><ele>440.4</ele><time>2026-04-11T12:17:27.999Z</time></trkpt><trkpt lat="43.52630384327479" lon="5.888666036757353"><ele>441.59999999999997</ele><time>2026-04-11T12:17:28.999Z</time></trkpt><trkpt lat="43.52634646765296" lon="5.888598158742337"><ele>442.79999999999995</ele><time>2026-04-11T12:17:29.999Z</time></trkpt><trkpt lat="43.52640552121821" lon="5.888472344689199"><ele>444.0</ele><time>2026-04-11T12:17:30.999Z</time></trkpt><trkpt lat="43.526471403512275" lon="5.888347752767561"><ele>444.0</ele><time>2026-04-11T12:17:31.999Z</time></trkpt><trkpt lat="43.52653453811736" lon="5.888263832722325"><ele>444.0</ele><time>2026-04-11T12:17:32.999Z</time></trkpt><trkpt lat="43.526603545174815" lon="5.888221734275281"><ele>444.0</ele><time>2026-04-11T12:17:34Z</time></trkpt><trkpt lat="43.52668285193785" lon="5.888199906139478"><ele>444.0</ele><time>2026-04-11T12:17:35Z</time></trkpt><trkpt lat="43.52677119291229" lon="5.888171412586661"><ele>444.0</ele><time>2026-04-11T12:17:36Z</time></trkpt><trkpt lat="43.52686062880679" lon="5.888142554561947"><ele>444.0</ele><time>2026-04-11T12:17:37Z</time></trkpt><trkpt lat="43.52693853910204" lon="5.8881111437989935"><ele>444.0</ele><time>2026-04-11T12:17:38Z</time></trkpt><trkpt lat="43.52701312182295" lon="5.888059548019342"><ele>444.0</ele><time>2026-04-11T12:17:39Z</time></trkpt><trkpt lat="43.52708077772932" lon="5.888000116160947"><ele>444.0</ele><time>2026-04-11T12:17:40Z</time></trkpt><trkpt lat="43.52718612369783" lon="5.887957852962128"><ele>444.0</ele><time>2026-04-11T12:17:42Z</time></trkpt><trkpt lat="43.527316835449405" lon="5.888045708730351"><ele>444.0</ele><time>2026-04-11T12:17:44Z</time></trkpt><trkpt lat="43.52742878318877" lon="5.888088016953298"><ele>444.8333333333333</ele><time>2026-04-11T12:17:45Z</time></trkpt><trkpt lat="43.52751570703942" lon="5.888106360149506"><ele>445.66666666666663</ele><time>2026-04-11T12:17:46Z</time></trkpt><trkpt lat="43.52758468507122" lon="5.888139888041351"><ele>446.5</ele><time>2026-04-11T12:17:47Z</time></trkpt><trkpt lat="43.52764348299992" lon="5.888182740920271"><ele>447.3333333333333</ele><time>2026-04-11T12:17:48Z</time></trkpt><trkpt lat="43.52771854387948" lon="5.88820138834889"><ele>448.16666666666663</ele><time>2026-04-11T12:17:49Z</time></trkpt><trkpt lat="43.52783137866122" lon="5.888205398173643"><ele>449.0</ele><time>2026-04-11T12:17:50Z</time></trkpt><trkpt lat="43.52795364101772" lon="5.8881932374665125"><ele>448.99999999999994</ele><time>2026-04-11T12:17:51Z</time></trkpt><trkpt lat="43.5280287482516" lon="5.888175494926903"><ele>449.0</ele><time>2026-04-11T12:17:52Z</time></trkpt><trkpt lat="43.52809157781049" lon="5.888142144509787"><ele>449.0</ele><time>2026-04-11T12:17:54Z</time></trkpt><trkpt lat="43.528122968453" lon="5.8880525343360475"><ele>449.0</ele><time>2026-04-11T12:17:57Z</time></trkpt><trkpt lat="43.528162062619685" lon="5.887976131954924"><ele>448.99999999999994</ele><time>2026-04-11T12:18:00Z</time></trkpt><trkpt lat="43.52822790642592" lon="5.887917022698417"><ele>449.0</ele><time>2026-04-11T12:18:02Z</time></trkpt><trkpt lat="43.52833674096486" lon="5.887917444261751"><ele>449.0</ele><time>2026-04-11T12:18:04Z</time></trkpt><trkpt lat="43.52845160732086" lon="5.887907170172247"><ele>449.0</ele><time>2026-04-11T12:18:06Z</time></trkpt><trkpt lat="43.52851661049325" lon="5.887857177749081"><ele>449.0</ele><time>2026-04-11T12:18:07Z</time></trkpt><trkpt lat="43.528595647884984" lon="5.8877893950740425"><ele>449.0</ele><time>2026-04-11T12:18:08Z</time></trkpt><trkpt lat="43.52867768840487" lon="5.887744494122448"><ele>449.0</ele><time>2026-04-11T12:18:09Z</time></trkpt><trkpt lat="43.52877066097383" lon="5.887713499392822"><ele>448.5</ele><time>2026-04-11T12:18:10Z</time></trkpt><trkpt lat="43.528897903343214" lon="5.887693686253715"><ele>448.0</ele><time>2026-04-11T12:18:11Z</time></trkpt><trkpt lat="43.52901628952993" lon="5.887688821041735"><ele>447.5</ele><time>2026-04-11T12:18:12Z</time></trkpt><trkpt lat="43.529127345160965" lon="5.887687950484433"><ele>447.0</ele><time>2026-04-11T12:18:13Z</time></trkpt><trkpt lat="43.529234818097834" lon="5.887675524231071"><ele>447.0</ele><time>2026-04-11T12:18:14Z</time></trkpt><trkpt lat="43.52933367683057" lon="5.8876479839685265"><ele>447.0</ele><time>2026-04-11T12:18:15Z</time></trkpt><trkpt lat="43.52942934336843" lon="5.887616384926711"><ele>447.0</ele><time>2026-04-11T12:18:16Z</time></trkpt><trkpt lat="43.52951905354627" lon="5.8876105285703355"><ele>447.0</ele><time>2026-04-11T12:18:17Z</time></trkpt><trkpt lat="43.529589469062785" lon="5.8876323916898725"><ele>447.0</ele><time>2026-04-11T12:18:18Z</time></trkpt><trkpt lat="43.529657431949786" lon="5.887685885223427"><ele>447.0</ele><time>2026-04-11T12:18:19Z</time></trkpt><trkpt lat="43.529750044809234" lon="5.887757464696417"><ele>446.0</ele><time>2026-04-11T12:18:20Z</time></trkpt><trkpt lat="43.5298416310836" lon="5.887783442507105"><ele>445.0</ele><time>2026-04-11T12:18:21Z</time></trkpt><trkpt lat="43.52993089365105" lon="5.8877846950084365"><ele>444.0</ele><time>2026-04-11T12:18:22Z</time></trkpt><trkpt lat="43.53001615960104" lon="5.88778450131872"><ele>443.0</ele><time>2026-04-11T12:18:23Z</time></trkpt><trkpt lat="43.53010076937203" lon="5.887790047040236"><ele>442.0</ele><time>2026-04-11T12:18:24Z</time></trkpt><trkpt lat="43.53018447609941" lon="5.8877881755797805"><ele>441.0</ele><time>2026-04-11T12:18:25Z</time></trkpt><trkpt lat="43.53026778290479" lon="5.887772293771371"><ele>441.0</ele><time>2026-04-11T12:18:26Z</time></trkpt><trkpt lat="43.53035182633648" lon="5.887742310014018"><ele>441.0</ele><time>2026-04-11T12:18:27Z</time></trkpt><trkpt lat="43.53044429924596" lon="5.887705905218973"><ele>441.0</ele><time>2026-04-11T12:18:28Z</time></trkpt><trkpt lat="43.53053715830479" lon="5.887682720892604"><ele>441.0</ele><time>2026-04-11T12:18:29Z</time></trkpt><trkpt lat="43.53061628104621" lon="5.8876969443853335"><ele>441.0</ele><time>2026-04-11T12:18:30Z</time></trkpt><trkpt lat="43.53068582052064" lon="5.887738655574247"><ele>441.0</ele><time>2026-04-11T12:18:31Z</time></trkpt><trkpt lat="43.53075520733372" lon="5.887775761078956"><ele>439.6</ele><time>2026-04-11T12:18:32Z</time></trkpt><trkpt lat="43.53082203466548" lon="5.887799937690504"><ele>438.20000000000005</ele><time>2026-04-11T12:18:33Z</time></trkpt><trkpt lat="43.530901860969124" lon="5.887784133573461"><ele>436.79999999999995</ele><time>2026-04-11T12:18:34Z</time></trkpt><trkpt lat="43.53101426375797" lon="5.887734397448451"><ele>435.4</ele><time>2026-04-11T12:18:35Z</time></trkpt><trkpt lat="43.531117015217454" lon="5.887685409709848"><ele>434.0</ele><time>2026-04-11T12:18:36Z</time></trkpt><trkpt lat="43.531191278659264" lon="5.887646053606827"><ele>433.57142857142856</ele><time>2026-04-11T12:18:37Z</time></trkpt><trkpt lat="43.531257867883944" lon="5.887628204010846"><ele>433.1428571428571</ele><time>2026-04-11T12:18:38Z</time></trkpt><trkpt lat="43.53132937915675" lon="5.8876083932927195"><ele>432.7142857142857</ele><time>2026-04-11T12:18:39Z</time></trkpt><trkpt lat="43.53139873028504" lon="5.887588078726314"><ele>432.2857142857143</ele><time>2026-04-11T12:18:40Z</time></trkpt><trkpt lat="43.531470698452516" lon="5.8875918748659775"><ele>431.85714285714283</ele><time>2026-04-11T12:18:41Z</time></trkpt><trkpt lat="43.531540637491695" lon="5.887603904469719"><ele>431.42857142857144</ele><time>2026-04-11T12:18:42Z</time></trkpt><trkpt lat="43.53160523152077" lon="5.887635623945153"><ele>431.0</ele><time>2026-04-11T12:18:43Z</time></trkpt><trkpt lat="43.53168975463735" lon="5.8876697071318125"><ele>431.0</ele><time>2026-04-11T12:18:44Z</time></trkpt><trkpt lat="43.531766840468684" lon="5.88769320812972"><ele>431.0</ele><time>2026-04-11T12:18:45Z</time></trkpt><trkpt lat="43.53184090975601" lon="5.887706458297527"><ele>431.0</ele><time>2026-04-11T12:18:46Z</time></trkpt><trkpt lat="43.53196102296163" lon="5.887700952563864"><ele>431.0</ele><time>2026-04-11T12:18:47Z</time></trkpt><trkpt lat="43.53209504970294" lon="5.88772627678661"><ele>431.0</ele><time>2026-04-11T12:18:48Z</time></trkpt><trkpt lat="43.532180367656956" lon="5.887740682462595"><ele>428.99999999999994</ele><time>2026-04-11T12:18:49Z</time></trkpt><trkpt lat="43.532253950733505" lon="5.887741599989134"><ele>427.0</ele><time>2026-04-11T12:18:50Z</time></trkpt><trkpt lat="43.532339519402655" lon="5.887713214021374"><ele>425.0</ele><time>2026-04-11T12:18:52Z</time></trkpt><trkpt lat="43.53237966270885" lon="5.887622021021857"><ele>423.0</ele><time>2026-04-11T12:18:54Z</time></trkpt><trkpt lat="43.53244634710468" lon="5.887534890767755"><ele>420.99999999999994</ele><time>2026-04-11T12:18:56Z</time></trkpt><trkpt lat="43.53253397050381" lon="5.88750292273237"><ele>419.0</ele><time>2026-04-11T12:18:57Z</time></trkpt><trkpt lat="43.5326340783196" lon="5.887465368195023"><ele>417.66666666666663</ele><time>2026-04-11T12:18:58Z</time></trkpt><trkpt lat="43.532707088484415" lon="5.887406500594208"><ele>416.3333333333333</ele><time>2026-04-11T12:18:59Z</time></trkpt><trkpt lat="43.53274987888227" lon="5.887330845279134"><ele>415.0</ele><time>2026-04-11T12:19:00Z</time></trkpt><trkpt lat="43.532769649036176" lon="5.887241280073122"><ele>413.66666666666663</ele><time>2026-04-11T12:19:01Z</time></trkpt><trkpt lat="43.53277430857174" lon="5.887148465729631"><ele>412.3333333333333</ele><time>2026-04-11T12:19:02Z</time></trkpt><trkpt lat="43.53278136617575" lon="5.88703571097629"><ele>411.0</ele><time>2026-04-11T12:19:02.999Z</time></trkpt><trkpt lat="43.53278133825105" lon="5.886894257310865"><ele>411.0</ele><time>2026-04-11T12:19:03.999Z</time></trkpt><trkpt lat="43.53279707695731" lon="5.886768847797489"><ele>411.0</ele><time>2026-04-11T12:19:04.999Z</time></trkpt><trkpt lat="43.53284892762082" lon="5.886683770310298"><ele>411.0</ele><time>2026-04-11T12:19:05.999Z</time></trkpt><trkpt lat="43.53292771355583" lon="5.886657700488563"><ele>411.0</ele><time>2026-04-11T12:19:06.999Z</time></trkpt><trkpt lat="43.53300147033402" lon="5.886661004436731"><ele>411.0</ele><time>2026-04-11T12:19:07.999Z</time></trkpt><trkpt lat="43.53308154267921" lon="5.886692661161834"><ele>411.0</ele><time>2026-04-11T12:19:08.999Z</time></trkpt><trkpt lat="43.53317089940965" lon="5.886773291478997"><ele>409.5</ele><time>2026-04-11T12:19:09.999Z</time></trkpt><trkpt lat="43.53328018126064" lon="5.886882789079509"><ele>408.0</ele><time>2026-04-11T12:19:10.999Z</time></trkpt><trkpt lat="43.5333882927445" lon="5.886959618895096"><ele>406.5</ele><time>2026-04-11T12:19:11.999Z</time></trkpt><trkpt lat="43.53349347542157" lon="5.887007754166363"><ele>405.0</ele><time>2026-04-11T12:19:12.999Z</time></trkpt><trkpt lat="43.533620628535765" lon="5.8870529626824775"><ele>406.75</ele><time>2026-04-11T12:19:13.999Z</time></trkpt><trkpt lat="43.53376713422158" lon="5.887101719160058"><ele>408.5</ele><time>2026-04-11T12:19:14.999Z</time></trkpt><trkpt lat="43.533910842063335" lon="5.887167381716218"><ele>410.25</ele><time>2026-04-11T12:19:15.999Z</time></trkpt><trkpt lat="43.53402705450084" lon="5.887235281370761"><ele>412.0</ele><time>2026-04-11T12:19:16.999Z</time></trkpt><trkpt lat="43.53412334927891" lon="5.887293277678709"><ele>412.00000000000006</ele><time>2026-04-11T12:19:17.999Z</time></trkpt><trkpt lat="43.5342136105462" lon="5.887336514203943"><ele>412.0</ele><time>2026-04-11T12:19:18.999Z</time></trkpt><trkpt lat="43.53429618527717" lon="5.887370158755696"><ele>412.0</ele><time>2026-04-11T12:19:19.999Z</time></trkpt><trkpt lat="43.53437164467673" lon="5.887382811563527"><ele>412.0</ele><time>2026-04-11T12:19:20.999Z</time></trkpt><trkpt lat="43.53444550138496" lon="5.887384414002841"><ele>412.00000000000006</ele><time>2026-04-11T12:19:21.999Z</time></trkpt><trkpt lat="43.53451538060005" lon="5.887376813264197"><ele>412.0</ele><time>2026-04-11T12:19:22.999Z</time></trkpt><trkpt lat="43.5346050021116" lon="5.887340699617057"><ele>412.00000000000006</ele><time>2026-04-11T12:19:24.999Z</time></trkpt><trkpt lat="43.53463608335862" lon="5.887256032382636"><ele>412.0</ele><time>2026-04-11T12:19:27.999Z</time></trkpt><trkpt lat="43.534538473062746" lon="5.887323335919718"><ele>412.0</ele><time>2026-04-11T12:19:31.999Z</time></trkpt><trkpt lat="43.53450377426886" lon="5.887403315336842"><ele>412.0</ele><time>2026-04-11T12:19:32.999Z</time></trkpt><trkpt lat="43.53445669876094" lon="5.887477314588408"><ele>412.00000000000006</ele><time>2026-04-11T12:19:34.999Z</time></trkpt><trkpt lat="43.53438776492362" lon="5.887532916871571"><ele>412.0</ele><time>2026-04-11T12:19:54Z</time></trkpt><trkpt lat="43.534283476662424" lon="5.887516244161129"><ele>412.00000000000006</ele><time>2026-04-11T12:19:56Z</time></trkpt><trkpt lat="43.53420690190274" lon="5.887494497657647"><ele>412.0</ele><time>2026-04-11T12:19:57Z</time></trkpt><trkpt lat="43.53413299647945" lon="5.88748282754967"><ele>412.0</ele><time>2026-04-11T12:19:58Z</time></trkpt><trkpt lat="43.53404363951055" lon="5.887408511012674"><ele>412.0</ele><time>2026-04-11T12:20:00Z</time></trkpt><trkpt lat="43.533957010261716" lon="5.887456449584379"><ele>412.00000000000006</ele><time>2026-04-11T12:20:02Z</time></trkpt><trkpt lat="43.533885992906214" lon="5.887525172431572"><ele>412.0</ele><time>2026-04-11T12:20:04Z</time></trkpt><trkpt lat="43.53378860845443" lon="5.8875255468855086"><ele>412.00000000000006</ele><time>2026-04-11T12:20:06Z</time></trkpt><trkpt lat="43.53372437297712" lon="5.887507510751996"><ele>412.0</ele><time>2026-04-11T12:20:09Z</time></trkpt><trkpt lat="43.53365912502275" lon="5.887536096192282"><ele>412.0</ele><time>2026-04-11T12:20:13Z</time></trkpt><trkpt lat="43.53359850267206" lon="5.887592676810947"><ele>412.0</ele><time>2026-04-11T12:20:15Z</time></trkpt><trkpt lat="43.53355423543736" lon="5.887666309422447"><ele>412.00000000000006</ele><time>2026-04-11T12:20:18Z</time></trkpt><trkpt lat="43.5334839572788" lon="5.887748080588826"><ele>412.0</ele><time>2026-04-11T12:20:20Z</time></trkpt><trkpt lat="43.53343148347852" lon="5.887869481646316"><ele>411.6666666666667</ele><time>2026-04-11T12:20:23Z</time></trkpt><trkpt lat="43.53343140769825" lon="5.888032493584247"><ele>411.33333333333337</ele><time>2026-04-11T12:20:25Z</time></trkpt><trkpt lat="43.5334183305491" lon="5.8881582799392875"><ele>411.0</ele><time>2026-04-11T12:20:26Z</time></trkpt><trkpt lat="43.53340954002515" lon="5.88825724049935"><ele>410.66666666666663</ele><time>2026-04-11T12:20:27Z</time></trkpt><trkpt lat="43.533401073114895" lon="5.888351562011147"><ele>410.3333333333333</ele><time>2026-04-11T12:20:28Z</time></trkpt><trkpt lat="43.533391207775296" lon="5.888464346509108"><ele>410.0</ele><time>2026-04-11T12:20:29Z</time></trkpt><trkpt lat="43.53338705082604" lon="5.88855818283562"><ele>409.99999999999994</ele><time>2026-04-11T12:20:30Z</time></trkpt><trkpt lat="43.53335668338021" lon="5.888641031441733"><ele>410.0</ele><time>2026-04-11T12:20:33Z</time></trkpt><trkpt lat="43.53331945135306" lon="5.888764774777284"><ele>410.0</ele><time>2026-04-11T12:22:32Z</time></trkpt><trkpt lat="43.53332120424396" lon="5.888860344386848"><ele>410.0</ele><time>2026-04-11T12:22:33Z</time></trkpt><trkpt lat="43.53333148903832" lon="5.888983942591559"><ele>409.99999999999994</ele><time>2026-04-11T12:22:34Z</time></trkpt><trkpt lat="43.53334989319319" lon="5.8891114814792545"><ele>410.0</ele><time>2026-04-11T12:22:35Z</time></trkpt><trkpt lat="43.533358699311876" lon="5.889214219043545"><ele>410.66666666666663</ele><time>2026-04-11T12:22:36Z</time></trkpt><trkpt lat="43.533356534449226" lon="5.8893073023536076"><ele>411.3333333333333</ele><time>2026-04-11T12:22:37Z</time></trkpt><trkpt lat="43.533351171185025" lon="5.889435458484585"><ele>412.0</ele><time>2026-04-11T12:22:38Z</time></trkpt><trkpt lat="43.53332436357879" lon="5.889571633085924"><ele>412.66666666666663</ele><time>2026-04-11T12:22:39Z</time></trkpt><trkpt lat="43.533303287674904" lon="5.889676627191172"><ele>413.3333333333333</ele><time>2026-04-11T12:22:40Z</time></trkpt><trkpt lat="43.533273435050695" lon="5.889801061581384"><ele>414.0</ele><time>2026-04-11T12:22:42Z</time></trkpt><trkpt lat="43.533249199581775" lon="5.889937899847985"><ele>414.0</ele><time>2026-04-11T12:22:45Z</time></trkpt><trkpt lat="43.53324136455908" lon="5.89002625911888"><ele>414.0</ele><time>2026-04-11T12:22:46Z</time></trkpt><trkpt lat="43.53322936553338" lon="5.890160043207468"><ele>414.0</ele><time>2026-04-11T12:22:48Z</time></trkpt><trkpt lat="43.533196670114755" lon="5.890249877390071"><ele>414.0</ele><time>2026-04-11T12:22:50Z</time></trkpt><trkpt lat="43.53292760331369" lon="5.890218261872896"><ele>414.0</ele><time>2026-04-11T12:22:51Z</time></trkpt><trkpt lat="43.53286953911007" lon="5.890098287881657"><ele>414.0</ele><time>2026-04-11T12:22:53Z</time></trkpt><trkpt lat="43.53281698360636" lon="5.890016681924197"><ele>414.0</ele><time>2026-04-11T12:22:54Z</time></trkpt><trkpt lat="43.53271869005762" lon="5.890008405847639"><ele>414.0</ele><time>2026-04-11T12:22:55.999Z</time></trkpt><trkpt lat="43.53267738800293" lon="5.8900764591794275"><ele>414.0</ele><time>2026-04-11T12:22:56.999Z</time></trkpt><trkpt lat="43.53261913288702" lon="5.890123071300679"><ele>414.0</ele><time>2026-04-11T12:22:57.999Z</time></trkpt><trkpt lat="43.53252752834175" lon="5.890164779332977"><ele>414.0</ele><time>2026-04-11T12:22:58.999Z</time></trkpt><trkpt lat="43.53245815428287" lon="5.890207766184231"><ele>414.0</ele><time>2026-04-11T12:22:59.999Z</time></trkpt><trkpt lat="43.532365925581985" lon="5.890212344267983"><ele>414.0</ele><time>2026-04-11T12:23:01.999Z</time></trkpt><trkpt lat="43.532283903896236" lon="5.8902852769266865"><ele>414.0</ele><time>2026-04-11T12:23:03.999Z</time></trkpt><trkpt lat="43.53223461559514" lon="5.8903621684173775"><ele>414.0</ele><time>2026-04-11T12:23:04.999Z</time></trkpt><trkpt lat="43.53217844767675" lon="5.890429945423157"><ele>414.0</ele><time>2026-04-11T12:23:05.999Z</time></trkpt><trkpt lat="43.53213509843524" lon="5.890495613735336"><ele>414.0</ele><time>2026-04-11T12:23:06.999Z</time></trkpt><trkpt lat="43.53207256243313" lon="5.890639998509834"><ele>414.0</ele><time>2026-04-11T12:23:08.999Z</time></trkpt><trkpt lat="43.532034769959125" lon="5.890804652927824"><ele>414.0</ele><time>2026-04-11T12:23:10.999Z</time></trkpt><trkpt lat="43.531941701732414" lon="5.890874035431086"><ele>414.0</ele><time>2026-04-11T12:23:12.999Z</time></trkpt><trkpt lat="43.53183845034289" lon="5.891026183290042"><ele>414.1666666666667</ele><time>2026-04-11T12:23:14.999Z</time></trkpt><trkpt lat="43.53177625915286" lon="5.891140113363762"><ele>414.33333333333337</ele><time>2026-04-11T12:23:15.999Z</time></trkpt><trkpt lat="43.5317161440004" lon="5.891209768590655"><ele>414.5</ele><time>2026-04-11T12:23:16.999Z</time></trkpt><trkpt lat="43.53164579048088" lon="5.8912363211132535"><ele>414.6666666666667</ele><time>2026-04-11T12:23:17.999Z</time></trkpt><trkpt lat="43.5315741775351" lon="5.891260799618325"><ele>414.83333333333337</ele><time>2026-04-11T12:23:18.999Z</time></trkpt><trkpt lat="43.53149929906342" lon="5.89131035660847"><ele>415.0</ele><time>2026-04-11T12:23:19.999Z</time></trkpt><trkpt lat="43.53143633642985" lon="5.891333549987494"><ele>415.0</ele><time>2026-04-11T12:23:20.999Z</time></trkpt><trkpt lat="43.531360279102714" lon="5.891429915073822"><ele>415.0</ele><time>2026-04-11T12:23:22.999Z</time></trkpt><trkpt lat="43.53125234121725" lon="5.891485075576818"><ele>415.0</ele><time>2026-04-11T12:23:24.999Z</time></trkpt><trkpt lat="43.531197524708105" lon="5.891590861212066"><ele>415.0</ele><time>2026-04-11T12:23:26.999Z</time></trkpt><trkpt lat="43.531129231949286" lon="5.891667534741659"><ele>415.0</ele><time>2026-04-11T12:23:29.999Z</time></trkpt><trkpt lat="43.53111158624575" lon="5.891765697735157"><ele>414.33333333333337</ele><time>2026-04-11T12:23:31.999Z</time></trkpt><trkpt lat="43.53104757016045" lon="5.891796377113154"><ele>413.6666666666667</ele><time>2026-04-11T12:23:32.999Z</time></trkpt><trkpt lat="43.53094327279578" lon="5.891854388949118"><ele>413.0</ele><time>2026-04-11T12:23:33.999Z</time></trkpt><trkpt lat="43.53084555978664" lon="5.891909776833626"><ele>412.33333333333337</ele><time>2026-04-11T12:23:34.999Z</time></trkpt><trkpt lat="43.53077109940832" lon="5.891950391758889"><ele>411.6666666666667</ele><time>2026-04-11T12:23:35.999Z</time></trkpt><trkpt lat="43.530692204572674" lon="5.891987805501138"><ele>411.0</ele><time>2026-04-11T12:23:37.999Z</time></trkpt><trkpt lat="43.53063610164971" lon="5.892055044971576"><ele>411.0</ele><time>2026-04-11T12:23:39.999Z</time></trkpt><trkpt lat="43.53055464376919" lon="5.892053221279511"><ele>411.0</ele><time>2026-04-11T12:23:40.999Z</time></trkpt><trkpt lat="43.530483483063286" lon="5.892065810152896"><ele>411.0</ele><time>2026-04-11T12:23:41.999Z</time></trkpt><trkpt lat="43.530413814859024" lon="5.892105090515313"><ele>411.0</ele><time>2026-04-11T12:23:42.999Z</time></trkpt><trkpt lat="43.53034736730099" lon="5.89216131446413"><ele>411.0</ele><time>2026-04-11T12:23:43.999Z</time></trkpt><trkpt lat="43.530288063459025" lon="5.892235205625103"><ele>411.0</ele><time>2026-04-11T12:23:44.999Z</time></trkpt><trkpt lat="43.53019790370381" lon="5.892294708604555"><ele>411.6666666666667</ele><time>2026-04-11T12:23:45.999Z</time></trkpt><trkpt lat="43.530110970635405" lon="5.892335561491067"><ele>412.33333333333337</ele><time>2026-04-11T12:23:46.999Z</time></trkpt><trkpt lat="43.530044894542264" lon="5.892394289495709"><ele>413.0</ele><time>2026-04-11T12:23:47.999Z</time></trkpt><trkpt lat="43.52998643608874" lon="5.8924680701495635"><ele>413.6666666666667</ele><time>2026-04-11T12:23:48.999Z</time></trkpt><trkpt lat="43.52992706667745" lon="5.892532710024433"><ele>414.33333333333337</ele><time>2026-04-11T12:23:49.999Z</time></trkpt><trkpt lat="43.52988330323678" lon="5.892599494015188"><ele>415.0</ele><time>2026-04-11T12:23:50.999Z</time></trkpt><trkpt lat="43.52985567985482" lon="5.89274674633581"><ele>414.4</ele><time>2026-04-11T12:23:53Z</time></trkpt><trkpt lat="43.529742506385666" lon="5.892857573224997"><ele>413.8</ele><time>2026-04-11T12:23:55Z</time></trkpt><trkpt lat="43.529683533163" lon="5.892924686520497"><ele>413.20000000000005</ele><time>2026-04-11T12:23:56Z</time></trkpt><trkpt lat="43.52961168595004" lon="5.892977854295779"><ele>412.6</ele><time>2026-04-11T12:23:57Z</time></trkpt><trkpt lat="43.52950545019532" lon="5.893029218155642"><ele>412.0</ele><time>2026-04-11T12:23:58Z</time></trkpt><trkpt lat="43.52941454115995" lon="5.893081958920709"><ele>412.0</ele><time>2026-04-11T12:23:59Z</time></trkpt><trkpt lat="43.52934049743013" lon="5.893128536994239"><ele>412.0</ele><time>2026-04-11T12:24:00Z</time></trkpt><trkpt lat="43.52924493890665" lon="5.893234108380224"><ele>412.0</ele><time>2026-04-11T12:24:02Z</time></trkpt><trkpt lat="43.52915803886313" lon="5.8933576128074066"><ele>412.0</ele><time>2026-04-11T12:24:04Z</time></trkpt><trkpt lat="43.52908250359243" lon="5.893408781863212"><ele>412.0</ele><time>2026-04-11T12:24:05Z</time></trkpt><trkpt lat="43.52900841662842" lon="5.893460781877073"><ele>410.1428571428571</ele><time>2026-04-11T12:24:06Z</time></trkpt><trkpt lat="43.528942524618216" lon="5.893501442786058"><ele>408.2857142857143</ele><time>2026-04-11T12:24:07Z</time></trkpt><trkpt lat="43.52888746585225" lon="5.893553186526604"><ele>406.42857142857144</ele><time>2026-04-11T12:24:08Z</time></trkpt><trkpt lat="43.528825972805684" lon="5.893579302318152"><ele>404.57142857142856</ele><time>2026-04-11T12:24:09Z</time></trkpt><trkpt lat="43.52876620534028" lon="5.89361257583075"><ele>402.7142857142857</ele><time>2026-04-11T12:24:10Z</time></trkpt><trkpt lat="43.52869663893727" lon="5.893640455620685"><ele>400.85714285714283</ele><time>2026-04-11T12:24:11Z</time></trkpt><trkpt lat="43.528601884666784" lon="5.893680679115341"><ele>399.0</ele><time>2026-04-11T12:24:12Z</time></trkpt><trkpt lat="43.52850218051902" lon="5.893725903646032"><ele>399.0</ele><time>2026-04-11T12:24:13Z</time></trkpt><trkpt lat="43.52841559141766" lon="5.893762456825307"><ele>399.0</ele><time>2026-04-11T12:24:14Z</time></trkpt><trkpt lat="43.52833356149398" lon="5.89381689833564"><ele>399.0</ele><time>2026-04-11T12:24:15Z</time></trkpt><trkpt lat="43.528257401388686" lon="5.893865510320789"><ele>399.0</ele><time>2026-04-11T12:24:16Z</time></trkpt><trkpt lat="43.5281835909446" lon="5.893930074777937"><ele>399.0</ele><time>2026-04-11T12:24:18Z</time></trkpt><trkpt lat="43.528166154413" lon="5.894031771888088"><ele>399.0</ele><time>2026-04-11T12:24:20Z</time></trkpt><trkpt lat="43.52812732801188" lon="5.894120815790872"><ele>399.0</ele><time>2026-04-11T12:24:22Z</time></trkpt><trkpt lat="43.52810890897157" lon="5.894205679488556"><ele>399.0</ele><time>2026-04-11T12:24:24Z</time></trkpt><trkpt lat="43.5282045663809" lon="5.894254078395392"><ele>399.0</ele><time>2026-04-11T12:24:28Z</time></trkpt><trkpt lat="43.52821629667978" lon="5.8943845534130865"><ele>399.0</ele><time>2026-04-11T12:24:31Z</time></trkpt><trkpt lat="43.52822842220176" lon="5.894483634024014"><ele>399.0</ele><time>2026-04-11T12:24:33Z</time></trkpt><trkpt lat="43.52826712837118" lon="5.894597567178105"><ele>399.0</ele><time>2026-04-11T12:24:36Z</time></trkpt><trkpt lat="43.5282912231558" lon="5.894684854037865"><ele>396.5</ele><time>2026-04-11T12:24:38Z</time></trkpt><trkpt lat="43.528323557912785" lon="5.894763915557799"><ele>394.0</ele><time>2026-04-11T12:24:41Z</time></trkpt><trkpt lat="43.528406726915684" lon="5.894859622239906"><ele>391.5</ele><time>2026-04-11T12:24:43Z</time></trkpt><trkpt lat="43.52842516082721" lon="5.894994815729609"><ele>389.0</ele><time>2026-04-11T12:24:45Z</time></trkpt><trkpt lat="43.5283841822329" lon="5.8950763089916745"><ele>386.5</ele><time>2026-04-11T12:24:47Z</time></trkpt><trkpt lat="43.528342742257685" lon="5.895170835917265"><ele>384.0</ele><time>2026-04-11T12:24:50Z</time></trkpt><trkpt lat="43.52833672935557" lon="5.895332257425127"><ele>381.25</ele><time>2026-04-11T12:24:52Z</time></trkpt><trkpt lat="43.528335292048254" lon="5.895431910641215"><ele>378.5</ele><time>2026-04-11T12:24:53Z</time></trkpt><trkpt lat="43.5283093508674" lon="5.895551422180075"><ele>375.75</ele><time>2026-04-11T12:24:54.999Z</time></trkpt><trkpt lat="43.52825811809714" lon="5.895613466391921"><ele>373.0</ele><time>2026-04-11T12:25:03.999Z</time></trkpt><trkpt lat="43.52810605787458" lon="5.895839261631884"><ele>373.0</ele><time>2026-04-11T12:25:05.999Z</time></trkpt><trkpt lat="43.52802201705273" lon="5.895904537144016"><ele>373.0</ele><time>2026-04-11T12:25:06.999Z</time></trkpt><trkpt lat="43.52794826125405" lon="5.895973052326893"><ele>373.0</ele><time>2026-04-11T12:25:07.999Z</time></trkpt><trkpt lat="43.52789930529323" lon="5.896063588357509"><ele>373.0</ele><time>2026-04-11T12:25:08.999Z</time></trkpt><trkpt lat="43.52784314489581" lon="5.896157700172604"><ele>373.0</ele><time>2026-04-11T12:25:09.999Z</time></trkpt><trkpt lat="43.52783168018204" lon="5.896291485516139"><ele>372.0</ele><time>2026-04-11T12:25:10.999Z</time></trkpt><trkpt lat="43.52780038282777" lon="5.8964039933639"><ele>371.0</ele><time>2026-04-11T12:25:11.999Z</time></trkpt><trkpt lat="43.52775792581691" lon="5.896530675961263"><ele>370.0</ele><time>2026-04-11T12:25:12.999Z</time></trkpt><trkpt lat="43.52768924926078" lon="5.896694157534761"><ele>369.0</ele><time>2026-04-11T12:25:13.999Z</time></trkpt><trkpt lat="43.52761185238183" lon="5.8968514991888945"><ele>367.4</ele><time>2026-04-11T12:25:14.999Z</time></trkpt><trkpt lat="43.52753039512603" lon="5.896967937810694"><ele>365.79999999999995</ele><time>2026-04-11T12:25:15.999Z</time></trkpt><trkpt lat="43.527464850837376" lon="5.897080129141832"><ele>364.20000000000005</ele><time>2026-04-11T12:25:16.999Z</time></trkpt><trkpt lat="43.527407601976726" lon="5.897183398440801"><ele>362.6</ele><time>2026-04-11T12:25:17.999Z</time></trkpt><trkpt lat="43.52735531958578" lon="5.897266763196956"><ele>361.0</ele><time>2026-04-11T12:25:18.999Z</time></trkpt><trkpt lat="43.527355483365405" lon="5.897420366881768"><ele>361.0</ele><time>2026-04-11T12:25:20.999Z</time></trkpt><trkpt lat="43.527365554266765" lon="5.897574417864224"><ele>361.0</ele><time>2026-04-11T12:25:21.999Z</time></trkpt><trkpt lat="43.52736460023778" lon="5.897755778634981"><ele>361.0</ele><time>2026-04-11T12:25:22.999Z</time></trkpt><trkpt lat="43.527382611656876" lon="5.89788801047908"><ele>361.0</ele><time>2026-04-11T12:25:24.999Z</time></trkpt><trkpt lat="43.52744833821302" lon="5.897893666807118"><ele>361.0</ele><time>2026-04-11T12:26:08Z</time></trkpt><trkpt lat="43.52736002003461" lon="5.897848064556305"><ele>359.4</ele><time>2026-04-11T12:26:12Z</time></trkpt><trkpt lat="43.5272989908251" lon="5.89788932304411"><ele>357.8</ele><time>2026-04-11T12:26:23Z</time></trkpt><trkpt lat="43.52723207296249" lon="5.898013931679343"><ele>356.2</ele><time>2026-04-11T12:26:25Z</time></trkpt><trkpt lat="43.52720853343948" lon="5.898129533374756"><ele>354.59999999999997</ele><time>2026-04-11T12:26:27Z</time></trkpt><trkpt lat="43.52715802915958" lon="5.898243387571132"><ele>353.0</ele><time>2026-04-11T12:26:42Z</time></trkpt><trkpt lat="43.527118557152626" lon="5.898398367378486"><ele>352.83333333333337</ele><time>2026-04-11T12:26:44Z</time></trkpt><trkpt lat="43.527125260913834" lon="5.898489565789627"><ele>352.6666666666667</ele><time>2026-04-11T12:26:45Z</time></trkpt><trkpt lat="43.52706159443573" lon="5.898575204158238"><ele>352.5</ele><time>2026-04-11T12:26:48Z</time></trkpt><trkpt lat="43.526955000035095" lon="5.898594430833789"><ele>352.3333333333333</ele><time>2026-04-11T12:26:50Z</time></trkpt><trkpt lat="43.52688200119635" lon="5.898609073446579"><ele>352.16666666666663</ele><time>2026-04-11T12:26:51Z</time></trkpt><trkpt lat="43.526781637915576" lon="5.898642340727788"><ele>352.0</ele><time>2026-04-11T12:26:52Z</time></trkpt><trkpt lat="43.52671621868352" lon="5.898702231007234"><ele>352.0</ele><time>2026-04-11T12:26:52.999Z</time></trkpt><trkpt lat="43.52667515070089" lon="5.89879129246029"><ele>352.0</ele><time>2026-04-11T12:26:53.999Z</time></trkpt><trkpt lat="43.52661818506094" lon="5.898863732049717"><ele>352.0</ele><time>2026-04-11T12:26:54.999Z</time></trkpt><trkpt lat="43.526551800059075" lon="5.8989127471590725"><ele>352.0</ele><time>2026-04-11T12:26:55.999Z</time></trkpt><trkpt lat="43.5264835483479" lon="5.898955903900396"><ele>352.0</ele><time>2026-04-11T12:26:56.999Z</time></trkpt><trkpt lat="43.52641386911278" lon="5.898983184371912"><ele>352.0</ele><time>2026-04-11T12:26:58.999Z</time></trkpt><trkpt lat="43.52635416024347" lon="5.898944862081373"><ele>352.0</ele><time>2026-04-11T12:27:06.999Z</time></trkpt><trkpt lat="43.52628910011847" lon="5.898887821618559"><ele>352.3333333333333</ele><time>2026-04-11T12:27:07.999Z</time></trkpt><trkpt lat="43.52621878545791" lon="5.8988509478567535"><ele>352.66666666666663</ele><time>2026-04-11T12:27:08.999Z</time></trkpt><trkpt lat="43.526149216053476" lon="5.898851461534508"><ele>353.0</ele><time>2026-04-11T12:27:09.999Z</time></trkpt><trkpt lat="43.52608851846931" lon="5.898780353518028"><ele>353.3333333333333</ele><time>2026-04-11T12:27:11.999Z</time></trkpt><trkpt lat="43.526024452864014" lon="5.898809753936358"><ele>353.6666666666667</ele><time>2026-04-11T12:27:26.999Z</time></trkpt><trkpt lat="43.52591854881017" lon="5.898866212550203"><ele>354.0</ele><time>2026-04-11T12:27:28.999Z</time></trkpt><trkpt lat="43.52584882005516" lon="5.898881218111991"><ele>354.0</ele><time>2026-04-11T12:27:29.999Z</time></trkpt><trkpt lat="43.52579221919902" lon="5.898944156095538"><ele>354.0</ele><time>2026-04-11T12:27:31.999Z</time></trkpt><trkpt lat="43.525728998298355" lon="5.898934547673431"><ele>354.0</ele><time>2026-04-11T12:27:33.999Z</time></trkpt><trkpt lat="43.52565573346313" lon="5.898933773818528"><ele>354.0</ele><time>2026-04-11T12:27:34.999Z</time></trkpt><trkpt lat="43.525612796499516" lon="5.899024196965131"><ele>354.0</ele><time>2026-04-11T12:27:36.999Z</time></trkpt><trkpt lat="43.52556080620402" lon="5.899075382658875"><ele>354.0</ele><time>2026-04-11T12:27:38.999Z</time></trkpt><trkpt lat="43.52548655387274" lon="5.89907943382295"><ele>354.0</ele><time>2026-04-11T12:27:39.999Z</time></trkpt><trkpt lat="43.52540187021182" lon="5.899097018920906"><ele>355.2</ele><time>2026-04-11T12:27:40.999Z</time></trkpt><trkpt lat="43.5253187511203" lon="5.899113965387516"><ele>356.4</ele><time>2026-04-11T12:27:42.999Z</time></trkpt><trkpt lat="43.525224415715996" lon="5.899128104808937"><ele>357.6</ele><time>2026-04-11T12:27:47.999Z</time></trkpt><trkpt lat="43.5251341644645" lon="5.8991327243544385"><ele>358.8</ele><time>2026-04-11T12:27:49.999Z</time></trkpt><trkpt lat="43.525035983512296" lon="5.899128819263923"><ele>360.0</ele><time>2026-04-11T12:27:52.999Z</time></trkpt><trkpt lat="43.52490219423841" lon="5.899153274259087"><ele>360.0</ele><time>2026-04-11T12:27:54.999Z</time></trkpt><trkpt lat="43.5248055654413" lon="5.899178311167154"><ele>360.0</ele><time>2026-04-11T12:27:55.999Z</time></trkpt><trkpt lat="43.52473223629422" lon="5.899187240654613"><ele>360.0</ele><time>2026-04-11T12:27:56.999Z</time></trkpt><trkpt lat="43.52462580354962" lon="5.8992416906292355"><ele>360.0</ele><time>2026-04-11T12:27:58.999Z</time></trkpt><trkpt lat="43.52456375013047" lon="5.899294690229789"><ele>360.0</ele><time>2026-04-11T12:27:59.999Z</time></trkpt><trkpt lat="43.524503313443816" lon="5.899348420354018"><ele>360.0</ele><time>2026-04-11T12:28:00.999Z</time></trkpt><trkpt lat="43.52441366714703" lon="5.899436757442325"><ele>362.6</ele><time>2026-04-11T12:28:02.999Z</time></trkpt><trkpt lat="43.524350736139205" lon="5.899495734798312"><ele>365.2</ele><time>2026-04-11T12:28:04Z</time></trkpt><trkpt lat="43.52427832206168" lon="5.899547626297815"><ele>367.79999999999995</ele><time>2026-04-11T12:28:05Z</time></trkpt><trkpt lat="43.524182238585105" lon="5.899641394430048"><ele>370.4</ele><time>2026-04-11T12:28:07Z</time></trkpt><trkpt lat="43.52405559330125" lon="5.899743597043629"><ele>373.0</ele><time>2026-04-11T12:28:09Z</time></trkpt><trkpt lat="43.523961045530655" lon="5.899794576403129"><ele>373.0</ele><time>2026-04-11T12:28:10Z</time></trkpt><trkpt lat="43.52385226831791" lon="5.899845263067302"><ele>373.0</ele><time>2026-04-11T12:28:11Z</time></trkpt><trkpt lat="43.52375908720704" lon="5.899895579477531"><ele>373.0</ele><time>2026-04-11T12:28:12Z</time></trkpt><trkpt lat="43.52369004212018" lon="5.899934701323148"><ele>373.0</ele><time>2026-04-11T12:28:13Z</time></trkpt><trkpt lat="43.52358269298386" lon="5.900012075309594"><ele>373.0</ele><time>2026-04-11T12:28:15Z</time></trkpt><trkpt lat="43.52350365036401" lon="5.900097340286646"><ele>374.59999999999997</ele><time>2026-04-11T12:28:16Z</time></trkpt><trkpt lat="43.52339914725667" lon="5.90021547206064"><ele>376.2</ele><time>2026-04-11T12:28:17Z</time></trkpt><trkpt lat="43.52331708653935" lon="5.900318173758378"><ele>377.8</ele><time>2026-04-11T12:28:18Z</time></trkpt><trkpt lat="43.52324347350066" lon="5.9003888034344865"><ele>379.4</ele><time>2026-04-11T12:28:20Z</time></trkpt><trkpt lat="43.52316932843399" lon="5.900475688699909"><ele>381.0</ele><time>2026-04-11T12:28:22Z</time></trkpt><trkpt lat="43.52308744570692" lon="5.900500254911413"><ele>381.0</ele><time>2026-04-11T12:28:23Z</time></trkpt><trkpt lat="43.52302296679609" lon="5.900564845037053"><ele>381.0</ele><time>2026-04-11T12:28:24Z</time></trkpt><trkpt lat="43.522961158119855" lon="5.90066515657891"><ele>381.0</ele><time>2026-04-11T12:28:25Z</time></trkpt><trkpt lat="43.52288854482521" lon="5.900759512968629"><ele>381.0</ele><time>2026-04-11T12:28:26Z</time></trkpt><trkpt lat="43.52280694215347" lon="5.900849490265229"><ele>381.0</ele><time>2026-04-11T12:28:27Z</time></trkpt><trkpt lat="43.52274026888752" lon="5.9009209797494995"><ele>381.8333333333333</ele><time>2026-04-11T12:28:28Z</time></trkpt><trkpt lat="43.52267946605662" lon="5.900976110145032"><ele>382.66666666666663</ele><time>2026-04-11T12:28:29Z</time></trkpt><trkpt lat="43.52262248395831" lon="5.901051540850681"><ele>383.5</ele><time>2026-04-11T12:28:30Z</time></trkpt><trkpt lat="43.522573234254516" lon="5.901125088016931"><ele>384.3333333333333</ele><time>2026-04-11T12:28:31Z</time></trkpt><trkpt lat="43.52252740016718" lon="5.901188429528247"><ele>385.16666666666663</ele><time>2026-04-11T12:28:32Z</time></trkpt><trkpt lat="43.52242164864063" lon="5.901271253499118"><ele>386.0</ele><time>2026-04-11T12:28:34Z</time></trkpt><trkpt lat="43.52236229353511" lon="5.901352142716446"><ele>385.99999999999994</ele><time>2026-04-11T12:28:35Z</time></trkpt><trkpt lat="43.52230290059245" lon="5.901406412140216"><ele>386.0</ele><time>2026-04-11T12:28:36Z</time></trkpt><trkpt lat="43.522230522455615" lon="5.901435772838041"><ele>386.0</ele><time>2026-04-11T12:28:37Z</time></trkpt><trkpt lat="43.522147010870974" lon="5.901455342704738"><ele>386.0</ele><time>2026-04-11T12:28:38Z</time></trkpt><trkpt lat="43.52207898343276" lon="5.901487220197428"><ele>385.99999999999994</ele><time>2026-04-11T12:28:39Z</time></trkpt><trkpt lat="43.52201706700505" lon="5.901519465863864"><ele>386.0</ele><time>2026-04-11T12:28:40Z</time></trkpt><trkpt lat="43.521936283377386" lon="5.901535598025582"><ele>386.66666666666663</ele><time>2026-04-11T12:28:41Z</time></trkpt><trkpt lat="43.521851265524525" lon="5.901558486697192"><ele>387.3333333333333</ele><time>2026-04-11T12:28:42Z</time></trkpt><trkpt lat="43.52180217188016" lon="5.901636065467223"><ele>388.0</ele><time>2026-04-11T12:28:44Z</time></trkpt><trkpt lat="43.52174059884767" lon="5.9017226780783085"><ele>388.66666666666663</ele><time>2026-04-11T12:28:47Z</time></trkpt><trkpt lat="43.52167959018418" lon="5.901769494603692"><ele>389.3333333333333</ele><time>2026-04-11T12:28:48Z</time></trkpt><trkpt lat="43.52160126339544" lon="5.901820218200445"><ele>390.0</ele><time>2026-04-11T12:28:49Z</time></trkpt><trkpt lat="43.52154513768105" lon="5.901871800289724"><ele>390.0</ele><time>2026-04-11T12:28:50Z</time></trkpt><trkpt lat="43.521395048683786" lon="5.901947423716599"><ele>390.0</ele><time>2026-04-11T12:28:52Z</time></trkpt><trkpt lat="43.52127896534141" lon="5.901996138068172"><ele>390.0</ele><time>2026-04-11T12:28:52.999Z</time></trkpt><trkpt lat="43.52115494213259" lon="5.902069468754495"><ele>390.0</ele><time>2026-04-11T12:28:53.999Z</time></trkpt><trkpt lat="43.52104899440035" lon="5.902124639780361"><ele>390.75</ele><time>2026-04-11T12:28:54.999Z</time></trkpt><trkpt lat="43.52094166570928" lon="5.90216891751068"><ele>391.5</ele><time>2026-04-11T12:28:55.999Z</time></trkpt><trkpt lat="43.520806266845376" lon="5.902212575553457"><ele>392.25</ele><time>2026-04-11T12:28:56.999Z</time></trkpt><trkpt lat="43.52068500683493" lon="5.902262189781758"><ele>393.0</ele><time>2026-04-11T12:28:57.999Z</time></trkpt><trkpt lat="43.52058873214277" lon="5.902309014860079"><ele>393.0</ele><time>2026-04-11T12:28:58.999Z</time></trkpt><trkpt lat="43.52051334190214" lon="5.902349802777801"><ele>393.0</ele><time>2026-04-11T12:28:59.999Z</time></trkpt><trkpt lat="43.5204339668811" lon="5.90237148131098"><ele>393.0</ele><time>2026-04-11T12:29:00.999Z</time></trkpt><trkpt lat="43.52032545622574" lon="5.902407775891008"><ele>393.0</ele><time>2026-04-11T12:29:01.999Z</time></trkpt><trkpt lat="43.5202069746264" lon="5.902467516522733"><ele>393.0</ele><time>2026-04-11T12:29:02.999Z</time></trkpt><trkpt lat="43.520109069127564" lon="5.902508617574859"><ele>393.1666666666667</ele><time>2026-04-11T12:29:03.999Z</time></trkpt><trkpt lat="43.52002421112364" lon="5.902573820761148"><ele>393.33333333333337</ele><time>2026-04-11T12:29:04.999Z</time></trkpt><trkpt lat="43.519944671092546" lon="5.902626278212323"><ele>393.5</ele><time>2026-04-11T12:29:05.999Z</time></trkpt><trkpt lat="43.51987753718379" lon="5.902641186106837"><ele>393.6666666666667</ele><time>2026-04-11T12:29:06.999Z</time></trkpt><trkpt lat="43.519798568989366" lon="5.902629323276246"><ele>393.83333333333337</ele><time>2026-04-11T12:29:07.999Z</time></trkpt><trkpt lat="43.519684310575144" lon="5.902624454814773"><ele>394.0</ele><time>2026-04-11T12:29:08.999Z</time></trkpt><trkpt lat="43.519575308702095" lon="5.902623003269393"><ele>394.6</ele><time>2026-04-11T12:29:09.999Z</time></trkpt><trkpt lat="43.519490180496625" lon="5.902634332540189"><ele>395.2</ele><time>2026-04-11T12:29:10.999Z</time></trkpt><trkpt lat="43.519411960715516" lon="5.902661343013025"><ele>395.8</ele><time>2026-04-11T12:29:11.999Z</time></trkpt><trkpt lat="43.51932266337375" lon="5.902712545673939"><ele>396.40000000000003</ele><time>2026-04-11T12:29:12.999Z</time></trkpt><trkpt lat="43.519216099241376" lon="5.902789449229697"><ele>397.0</ele><time>2026-04-11T12:29:13.999Z</time></trkpt><trkpt lat="43.519119776254584" lon="5.902868133220341"><ele>397.0</ele><time>2026-04-11T12:29:14.999Z</time></trkpt><trkpt lat="43.51902009237576" lon="5.902918136961425"><ele>397.0</ele><time>2026-04-11T12:29:15.999Z</time></trkpt><trkpt lat="43.5189079082197" lon="5.902960640352431"><ele>397.0</ele><time>2026-04-11T12:29:16.999Z</time></trkpt><trkpt lat="43.51880521518246" lon="5.902984875975256"><ele>397.0</ele><time>2026-04-11T12:29:17.999Z</time></trkpt><trkpt lat="43.51871682254694" lon="5.902999736012374"><ele>397.0</ele><time>2026-04-11T12:29:18.999Z</time></trkpt><trkpt lat="43.518636780904295" lon="5.903017690294589"><ele>396.8</ele><time>2026-04-11T12:29:19.999Z</time></trkpt><trkpt lat="43.51856873536995" lon="5.903022677989408"><ele>396.6</ele><time>2026-04-11T12:29:20.999Z</time></trkpt><trkpt lat="43.51846356954184" lon="5.903048926793017"><ele>396.40000000000003</ele><time>2026-04-11T12:29:22.999Z</time></trkpt><trkpt lat="43.51840024083914" lon="5.9030774262527625"><ele>396.20000000000005</ele><time>2026-04-11T12:29:23.999Z</time></trkpt><trkpt lat="43.51830225260831" lon="5.903096151804124"><ele>396.0</ele><time>2026-04-11T12:29:24.999Z</time></trkpt><trkpt lat="43.518191053862466" lon="5.903132854079509"><ele>396.0</ele><time>2026-04-11T12:29:25.999Z</time></trkpt><trkpt lat="43.51809970385309" lon="5.90317408117264"><ele>396.0</ele><time>2026-04-11T12:29:26.999Z</time></trkpt><trkpt lat="43.518021361886134" lon="5.903206344106784"><ele>396.0</ele><time>2026-04-11T12:29:27.999Z</time></trkpt><trkpt lat="43.51795321647251" lon="5.9032246102605885"><ele>396.0</ele><time>2026-04-11T12:29:28.999Z</time></trkpt><trkpt lat="43.51788091536588" lon="5.903213450657754"><ele>396.0</ele><time>2026-04-11T12:29:29.999Z</time></trkpt><trkpt lat="43.51781836437521" lon="5.90319302925045"><ele>396.0</ele><time>2026-04-11T12:29:30.999Z</time></trkpt><trkpt lat="43.51774217244162" lon="5.903206007472375"><ele>396.5</ele><time>2026-04-11T12:29:31.999Z</time></trkpt><trkpt lat="43.51764459505835" lon="5.903233726594822"><ele>397.0</ele><time>2026-04-11T12:29:32.999Z</time></trkpt><trkpt lat="43.51751620835006" lon="5.903268556495411"><ele>397.5</ele><time>2026-04-11T12:29:33.999Z</time></trkpt><trkpt lat="43.51739985385768" lon="5.903300252046987"><ele>398.0</ele><time>2026-04-11T12:29:34.999Z</time></trkpt><trkpt lat="43.51729989061033" lon="5.903327005346013"><ele>397.99999999999994</ele><time>2026-04-11T12:29:35.999Z</time></trkpt><trkpt lat="43.51721048447372" lon="5.90337236545616"><ele>398.0</ele><time>2026-04-11T12:29:36.999Z</time></trkpt><trkpt lat="43.517131044950006" lon="5.903412292777984"><ele>398.0</ele><time>2026-04-11T12:29:37.999Z</time></trkpt><trkpt lat="43.51705391548061" lon="5.903463384911762"><ele>398.0</ele><time>2026-04-11T12:29:38.999Z</time></trkpt><trkpt lat="43.516977050055594" lon="5.903519298701469"><ele>397.99999999999994</ele><time>2026-04-11T12:29:39.999Z</time></trkpt><trkpt lat="43.51691777052928" lon="5.903580823917177"><ele>398.0</ele><time>2026-04-11T12:29:40.999Z</time></trkpt><trkpt lat="43.51687759004879" lon="5.903649310966627"><ele>397.59999999999997</ele><time>2026-04-11T12:29:41.999Z</time></trkpt><trkpt lat="43.51678577884968" lon="5.903665163557737"><ele>397.2</ele><time>2026-04-11T12:29:54.999Z</time></trkpt><trkpt lat="43.516667217630086" lon="5.903741797789653"><ele>396.8</ele><time>2026-04-11T12:29:56.999Z</time></trkpt><trkpt lat="43.5166003001213" lon="5.903784208415739"><ele>396.4</ele><time>2026-04-11T12:29:57.999Z</time></trkpt><trkpt lat="43.516510625377286" lon="5.903816985339276"><ele>396.0</ele><time>2026-04-11T12:29:58.999Z</time></trkpt><trkpt lat="43.51642672779895" lon="5.903848946314029"><ele>396.0</ele><time>2026-04-11T12:29:59.999Z</time></trkpt><trkpt lat="43.516323887772856" lon="5.903861315417671"><ele>396.0</ele><time>2026-04-11T12:30:00.999Z</time></trkpt><trkpt lat="43.516221236125446" lon="5.903873618270345"><ele>396.0</ele><time>2026-04-11T12:30:01.999Z</time></trkpt><trkpt lat="43.51613342507172" lon="5.903895116016174"><ele>396.0</ele><time>2026-04-11T12:30:02.999Z</time></trkpt><trkpt lat="43.51604829358258" lon="5.903921030827242"><ele>396.0</ele><time>2026-04-11T12:30:03.999Z</time></trkpt><trkpt lat="43.515969721109855" lon="5.903967177223918"><ele>395.1666666666667</ele><time>2026-04-11T12:30:04.999Z</time></trkpt><trkpt lat="43.51589187613834" lon="5.904001731729856"><ele>394.33333333333337</ele><time>2026-04-11T12:30:05.999Z</time></trkpt><trkpt lat="43.51580869107327" lon="5.904008880164097"><ele>393.5</ele><time>2026-04-11T12:30:06.999Z</time></trkpt><trkpt lat="43.5157254093992" lon="5.904014563221508"><ele>392.6666666666667</ele><time>2026-04-11T12:30:07.999Z</time></trkpt><trkpt lat="43.515642518095085" lon="5.904059103089857"><ele>391.83333333333337</ele><time>2026-04-11T12:30:08.999Z</time></trkpt><trkpt lat="43.51555598877893" lon="5.904106105557546"><ele>391.0</ele><time>2026-04-11T12:30:10Z</time></trkpt><trkpt lat="43.51546924437065" lon="5.904125654789063"><ele>391.20000000000005</ele><time>2026-04-11T12:30:11Z</time></trkpt><trkpt lat="43.515360335961354" lon="5.904126953609922"><ele>391.40000000000003</ele><time>2026-04-11T12:30:12Z</time></trkpt><trkpt lat="43.51525603582543" lon="5.9041549644494955"><ele>391.6</ele><time>2026-04-11T12:30:13Z</time></trkpt><trkpt lat="43.51517064906875" lon="5.904184957785056"><ele>391.8</ele><time>2026-04-11T12:30:14Z</time></trkpt><trkpt lat="43.51508698106898" lon="5.904194919853384"><ele>392.0</ele><time>2026-04-11T12:30:15Z</time></trkpt><trkpt lat="43.515006904395506" lon="5.904189505417618"><ele>392.0</ele><time>2026-04-11T12:30:16Z</time></trkpt><trkpt lat="43.5149252392047" lon="5.904211211671853"><ele>392.0</ele><time>2026-04-11T12:30:17Z</time></trkpt><trkpt lat="43.51482178980549" lon="5.904276005503973"><ele>392.0</ele><time>2026-04-11T12:30:18Z</time></trkpt><trkpt lat="43.51470775412553" lon="5.904338069109668"><ele>392.0</ele><time>2026-04-11T12:30:19Z</time></trkpt><trkpt lat="43.514604013556415" lon="5.904373075438731"><ele>392.0</ele><time>2026-04-11T12:30:20Z</time></trkpt><trkpt lat="43.51450414516312" lon="5.904410385231481"><ele>391.20000000000005</ele><time>2026-04-11T12:30:21Z</time></trkpt><trkpt lat="43.51441599875219" lon="5.904456173005199"><ele>390.4</ele><time>2026-04-11T12:30:22Z</time></trkpt><trkpt lat="43.514336853020126" lon="5.904507600206937"><ele>389.6</ele><time>2026-04-11T12:30:23Z</time></trkpt><trkpt lat="43.51426366968362" lon="5.904572864267437"><ele>388.79999999999995</ele><time>2026-04-11T12:30:24Z</time></trkpt><trkpt lat="43.51418768505232" lon="5.904651738480989"><ele>388.0</ele><time>2026-04-11T12:30:25Z</time></trkpt><trkpt lat="43.51410440538134" lon="5.904717869601735"><ele>388.0</ele><time>2026-04-11T12:30:26Z</time></trkpt><trkpt lat="43.51401878921095" lon="5.904761682419388"><ele>388.0</ele><time>2026-04-11T12:30:27Z</time></trkpt><trkpt lat="43.513953084992586" lon="5.904824017968402"><ele>388.0</ele><time>2026-04-11T12:30:28Z</time></trkpt><trkpt lat="43.51390506518808" lon="5.904921693851215"><ele>388.0</ele><time>2026-04-11T12:30:29Z</time></trkpt><trkpt lat="43.513846666368835" lon="5.905075861147807"><ele>388.0</ele><time>2026-04-11T12:30:30Z</time></trkpt><trkpt lat="43.513778117092905" lon="5.905208560998252"><ele>388.4</ele><time>2026-04-11T12:30:31Z</time></trkpt><trkpt lat="43.513724531285895" lon="5.905307061792492"><ele>388.79999999999995</ele><time>2026-04-11T12:30:32Z</time></trkpt><trkpt lat="43.51369088204683" lon="5.905473092430295"><ele>389.2</ele><time>2026-04-11T12:30:34Z</time></trkpt><trkpt lat="43.51366017003544" lon="5.905575245344956"><ele>389.6</ele><time>2026-04-11T12:30:35Z</time></trkpt><trkpt lat="43.513597404170596" lon="5.905702646126211"><ele>390.0</ele><time>2026-04-11T12:30:36Z</time></trkpt><trkpt lat="43.513549907410436" lon="5.905815003020568"><ele>390.0</ele><time>2026-04-11T12:30:37Z</time></trkpt><trkpt lat="43.513525249187886" lon="5.9059185470359346"><ele>390.0</ele><time>2026-04-11T12:30:38Z</time></trkpt><trkpt lat="43.51350336287212" lon="5.906037001534073"><ele>390.0</ele><time>2026-04-11T12:30:39Z</time></trkpt><trkpt lat="43.51350314062735" lon="5.906173003487205"><ele>390.0</ele><time>2026-04-11T12:30:40Z</time></trkpt><trkpt lat="43.51348311192838" lon="5.906297756655214"><ele>390.0</ele><time>2026-04-11T12:30:41Z</time></trkpt><trkpt lat="43.51343809767758" lon="5.906379350927123"><ele>390.0</ele><time>2026-04-11T12:30:42Z</time></trkpt><trkpt lat="43.51339717732799" lon="5.906466699275868"><ele>390.0</ele><time>2026-04-11T12:30:49.999Z</time></trkpt><trkpt lat="43.513413718888614" lon="5.906641878759426"><ele>390.0</ele><time>2026-04-11T12:30:51.999Z</time></trkpt><trkpt lat="43.51340945219543" lon="5.906734942229854"><ele>390.0</ele><time>2026-04-11T12:30:52.999Z</time></trkpt><trkpt lat="43.513358794365104" lon="5.906888310205896"><ele>390.0</ele><time>2026-04-11T12:30:54.999Z</time></trkpt><trkpt lat="43.51329679948961" lon="5.906973476012755"><ele>390.0</ele><time>2026-04-11T12:30:55.999Z</time></trkpt><trkpt lat="43.51322154700871" lon="5.907077205107697"><ele>388.6</ele><time>2026-04-11T12:30:56.999Z</time></trkpt><trkpt lat="43.51314202655374" lon="5.907202191171795"><ele>387.2</ele><time>2026-04-11T12:30:57.999Z</time></trkpt><trkpt lat="43.513063797903264" lon="5.90733557921865"><ele>385.79999999999995</ele><time>2026-04-11T12:30:58.999Z</time></trkpt><trkpt lat="43.51299798415097" lon="5.9074439616923335"><ele>384.4</ele><time>2026-04-11T12:30:59.999Z</time></trkpt><trkpt lat="43.512927716925425" lon="5.907534589582946"><ele>383.0</ele><time>2026-04-11T12:31:00.999Z</time></trkpt><trkpt lat="43.51286190987724" lon="5.9076219331423765"><ele>382.83333333333337</ele><time>2026-04-11T12:31:01.999Z</time></trkpt><trkpt lat="43.51279813269982" lon="5.90771996325752"><ele>382.6666666666667</ele><time>2026-04-11T12:31:02.999Z</time></trkpt><trkpt lat="43.512735668003906" lon="5.907816783895414"><ele>382.5</ele><time>2026-04-11T12:31:03.999Z</time></trkpt><trkpt lat="43.51269071171295" lon="5.907910411312761"><ele>382.3333333333333</ele><time>2026-04-11T12:31:04.999Z</time></trkpt><trkpt lat="43.51266737941534" lon="5.908016153766571"><ele>382.16666666666663</ele><time>2026-04-11T12:31:05.999Z</time></trkpt><trkpt lat="43.51265368377919" lon="5.908127318953954"><ele>382.0</ele><time>2026-04-11T12:31:06.999Z</time></trkpt><trkpt lat="43.51261885401875" lon="5.908230931630722"><ele>382.0</ele><time>2026-04-11T12:31:07.999Z</time></trkpt><trkpt lat="43.51255792914522" lon="5.908325088180273"><ele>382.0</ele><time>2026-04-11T12:31:08.999Z</time></trkpt><trkpt lat="43.51247895251844" lon="5.908413793633413"><ele>382.0</ele><time>2026-04-11T12:31:09.999Z</time></trkpt><trkpt lat="43.5124210273217" lon="5.908501629986291"><ele>382.0</ele><time>2026-04-11T12:31:10.999Z</time></trkpt><trkpt lat="43.512386358381605" lon="5.908603380975863"><ele>382.0</ele><time>2026-04-11T12:31:11.999Z</time></trkpt><trkpt lat="43.51237271258909" lon="5.908711516344209"><ele>382.0</ele><time>2026-04-11T12:31:12.999Z</time></trkpt><trkpt lat="43.512366571439706" lon="5.908813761140727"><ele>380.7142857142857</ele><time>2026-04-11T12:31:13.999Z</time></trkpt><trkpt lat="43.51237536311463" lon="5.908912198594253"><ele>379.4285714285714</ele><time>2026-04-11T12:31:14.999Z</time></trkpt><trkpt lat="43.51239410752302" lon="5.909008215203631"><ele>378.1428571428571</ele><time>2026-04-11T12:31:15.999Z</time></trkpt><trkpt lat="43.51242253810991" lon="5.909101920817147"><ele>376.8571428571429</ele><time>2026-04-11T12:31:16.999Z</time></trkpt><trkpt lat="43.51244806741147" lon="5.909200984514128"><ele>375.57142857142856</ele><time>2026-04-11T12:31:17.999Z</time></trkpt><trkpt lat="43.512475197878715" lon="5.90928515786946"><ele>374.2857142857143</ele><time>2026-04-11T12:31:18.999Z</time></trkpt><trkpt lat="43.51253031312912" lon="5.909370852977137"><ele>373.0</ele><time>2026-04-11T12:31:19.999Z</time></trkpt><trkpt lat="43.5126056860214" lon="5.909489724007671"><ele>371.2</ele><time>2026-04-11T12:31:20.999Z</time></trkpt><trkpt lat="43.512667127851046" lon="5.909604674345609"><ele>369.4</ele><time>2026-04-11T12:31:21.999Z</time></trkpt><trkpt lat="43.51269293200091" lon="5.909688371294194"><ele>367.59999999999997</ele><time>2026-04-11T12:31:22.999Z</time></trkpt><trkpt lat="43.51265729842224" lon="5.909818775915119"><ele>365.79999999999995</ele><time>2026-04-11T12:31:24.999Z</time></trkpt><trkpt lat="43.51269807781242" lon="5.909895068541941"><ele>364.0</ele><time>2026-04-11T12:31:36.999Z</time></trkpt><trkpt lat="43.51280729253629" lon="5.9098417554682126"><ele>364.0</ele><time>2026-04-11T12:31:53.999Z</time></trkpt><trkpt lat="43.512903691337925" lon="5.909845536114038"><ele>364.0</ele><time>2026-04-11T12:31:55.999Z</time></trkpt><trkpt lat="43.512979442340736" lon="5.909742906300047"><ele>364.0</ele><time>2026-04-11T12:32:36Z</time></trkpt><trkpt lat="43.5130411363298" lon="5.909561294136109"><ele>364.0</ele><time>2026-04-11T12:32:38Z</time></trkpt><trkpt lat="43.51307819292044" lon="5.909469687238896"><ele>364.0</ele><time>2026-04-11T12:32:39Z</time></trkpt><trkpt lat="43.513112751386025" lon="5.909382175599844"><ele>362.66666666666663</ele><time>2026-04-11T12:32:40Z</time></trkpt><trkpt lat="43.51314053718036" lon="5.909292986438154"><ele>361.3333333333333</ele><time>2026-04-11T12:32:41Z</time></trkpt><trkpt lat="43.51317032558235" lon="5.909194446439416"><ele>360.0</ele><time>2026-04-11T12:32:42Z</time></trkpt><trkpt lat="43.513202817709626" lon="5.909049741709215"><ele>358.6666666666667</ele><time>2026-04-11T12:32:44Z</time></trkpt><trkpt lat="43.513213471421025" lon="5.908946375658296"><ele>357.33333333333337</ele><time>2026-04-11T12:32:45Z</time></trkpt><trkpt lat="43.51322782411473" lon="5.908854464158892"><ele>356.0</ele><time>2026-04-11T12:32:46Z</time></trkpt><trkpt lat="43.513252700813815" lon="5.908771289753836"><ele>356.0</ele><time>2026-04-11T12:32:47Z</time></trkpt><trkpt lat="43.51333451294909" lon="5.908650433555124"><ele>356.0</ele><time>2026-04-11T12:32:49Z</time></trkpt><trkpt lat="43.513394988499755" lon="5.908592196321719"><ele>356.0</ele><time>2026-04-11T12:32:50Z</time></trkpt><trkpt lat="43.513451780163" lon="5.908545219454011"><ele>356.0</ele><time>2026-04-11T12:32:50.999Z</time></trkpt><trkpt lat="43.513515433125995" lon="5.908476151681701"><ele>356.0</ele><time>2026-04-11T12:32:51.999Z</time></trkpt><trkpt lat="43.513588647046234" lon="5.90840262113541"><ele>356.0</ele><time>2026-04-11T12:32:52.999Z</time></trkpt><trkpt lat="43.513652225717074" lon="5.908324534764099"><ele>357.33333333333337</ele><time>2026-04-11T12:32:53.999Z</time></trkpt><trkpt lat="43.51370224007752" lon="5.908252677162124"><ele>358.6666666666667</ele><time>2026-04-11T12:32:54.999Z</time></trkpt><trkpt lat="43.51375305490126" lon="5.908199573556244"><ele>360.0</ele><time>2026-04-11T12:32:55.999Z</time></trkpt><trkpt lat="43.51385365922454" lon="5.908134243838022"><ele>361.3333333333333</ele><time>2026-04-11T12:32:57.999Z</time></trkpt><trkpt lat="43.51392254369788" lon="5.908121006717925"><ele>362.66666666666663</ele><time>2026-04-11T12:32:58.999Z</time></trkpt><trkpt lat="43.51399451189123" lon="5.908121142104042"><ele>364.0</ele><time>2026-04-11T12:32:59.999Z</time></trkpt><trkpt lat="43.514060428663065" lon="5.908116580273714"><ele>361.0</ele><time>2026-04-11T12:33:00.999Z</time></trkpt><trkpt lat="43.51412447561736" lon="5.9081239378490435"><ele>358.0</ele><time>2026-04-11T12:33:01.999Z</time></trkpt><trkpt lat="43.51420111122634" lon="5.90813511590124"><ele>355.0</ele><time>2026-04-11T12:33:02.999Z</time></trkpt><trkpt lat="43.51427556934284" lon="5.908137120163127"><ele>352.0</ele><time>2026-04-11T12:33:03.999Z</time></trkpt><trkpt lat="43.514342993058314" lon="5.90813263393478"><ele>349.0</ele><time>2026-04-11T12:33:04.999Z</time></trkpt><trkpt lat="43.51445233634025" lon="5.90814362369018"><ele>346.0</ele><time>2026-04-11T12:33:06.999Z</time></trkpt><trkpt lat="43.514551406073494" lon="5.908188320273907"><ele>343.8</ele><time>2026-04-11T12:33:08.999Z</time></trkpt><trkpt lat="43.51464710715891" lon="5.908234586541693"><ele>341.6</ele><time>2026-04-11T12:33:10.999Z</time></trkpt><trkpt lat="43.514715380347305" lon="5.908242301901316"><ele>339.4</ele><time>2026-04-11T12:33:11.999Z</time></trkpt><trkpt lat="43.51482367904695" lon="5.9083212008459585"><ele>337.2</ele><time>2026-04-11T12:33:13.999Z</time></trkpt><trkpt lat="43.514912118005626" lon="5.908415124293703"><ele>335.0</ele><time>2026-04-11T12:33:15.999Z</time></trkpt><trkpt lat="43.51497268723203" lon="5.9085400569763795"><ele>334.1666666666667</ele><time>2026-04-11T12:33:17.999Z</time></trkpt><trkpt lat="43.51499822495983" lon="5.908677379022959"><ele>333.33333333333337</ele><time>2026-04-11T12:33:19.999Z</time></trkpt><trkpt lat="43.515015876747924" lon="5.908792383331458"><ele>332.5</ele><time>2026-04-11T12:33:21.999Z</time></trkpt><trkpt lat="43.51508775278546" lon="5.9088347427218215"><ele>331.6666666666667</ele><time>2026-04-11T12:33:45.999Z</time></trkpt><trkpt lat="43.51515422612853" lon="5.908821163407135"><ele>330.8333333333333</ele><time>2026-04-11T12:33:48.999Z</time></trkpt><trkpt lat="43.515240954029565" lon="5.908810283791287"><ele>330.0</ele><time>2026-04-11T12:33:50.999Z</time></trkpt><trkpt lat="43.51531235814908" lon="5.908823681716809"><ele>330.00000000000006</ele><time>2026-04-11T12:33:53.999Z</time></trkpt><trkpt lat="43.515358432392766" lon="5.908898632103704"><ele>330.0</ele><time>2026-04-11T12:35:45.999Z</time></trkpt><trkpt lat="43.515358947720294" lon="5.908802366292856"><ele>330.0</ele><time>2026-04-11T12:46:05Z</time></trkpt><trkpt lat="43.515381888328655" lon="5.908893201093352"><ele>330.0</ele><time>2026-04-11T12:48:19Z</time></trkpt><trkpt lat="43.5154053319989" lon="5.908986827573843"><ele>330.0</ele><time>2026-04-11T12:48:23Z</time></trkpt><trkpt lat="43.51546306807358" lon="5.909038234959245"><ele>330.00000000000006</ele><time>2026-04-11T12:48:25Z</time></trkpt><trkpt lat="43.51553046097198" lon="5.90907872093753"><ele>330.0</ele><time>2026-04-11T12:48:31Z</time></trkpt><trkpt lat="43.515620889125934" lon="5.909115070523179"><ele>329.0</ele><time>2026-04-11T12:48:34Z</time></trkpt><trkpt lat="43.51568413774543" lon="5.9091672158967095"><ele>328.0</ele><time>2026-04-11T12:48:38Z</time></trkpt><trkpt lat="43.51575303375119" lon="5.909194580728038"><ele>327.0</ele><time>2026-04-11T12:48:45Z</time></trkpt><trkpt lat="43.51582359232596" lon="5.909193643661234"><ele>326.0</ele><time>2026-04-11T12:49:04Z</time></trkpt><trkpt lat="43.51589845994037" lon="5.90917658938052"><ele>325.0</ele><time>2026-04-11T12:49:09Z</time></trkpt><trkpt lat="43.515974624951106" lon="5.909157428903291"><ele>324.0</ele><time>2026-04-11T12:49:11Z</time></trkpt><trkpt lat="43.5160443146579" lon="5.909218806905328"><ele>324.0</ele><time>2026-04-11T12:49:21Z</time></trkpt><trkpt lat="43.51616853866767" lon="5.909363034502965"><ele>324.0</ele><time>2026-04-11T12:49:23Z</time></trkpt><trkpt lat="43.51621815684798" lon="5.909441144045124"><ele>324.0</ele><time>2026-04-11T12:49:24Z</time></trkpt><trkpt lat="43.516239356004064" lon="5.909562374409789"><ele>324.0</ele><time>2026-04-11T12:49:25Z</time></trkpt><trkpt lat="43.5162603309983" lon="5.909661380038298"><ele>324.0</ele><time>2026-04-11T12:49:26Z</time></trkpt><trkpt lat="43.51626361543651" lon="5.909806564462978"><ele>324.0</ele><time>2026-04-11T12:49:28Z</time></trkpt><trkpt lat="43.51623572483957" lon="5.909918577769235"><ele>324.0</ele><time>2026-04-11T12:49:29Z</time></trkpt><trkpt lat="43.51623614775649" lon="5.910014169110846"><ele>324.0</ele><time>2026-04-11T12:49:30Z</time></trkpt><trkpt lat="43.5162726724327" lon="5.9101942239372764"><ele>324.0</ele><time>2026-04-11T12:49:32Z</time></trkpt><trkpt lat="43.51626128011043" lon="5.910298912915632"><ele>324.0</ele><time>2026-04-11T12:49:33Z</time></trkpt><trkpt lat="43.51622439608031" lon="5.910369675287074"><ele>324.0</ele><time>2026-04-11T12:49:34Z</time></trkpt><trkpt lat="43.51615236865662" lon="5.910492614742641"><ele>323.0</ele><time>2026-04-11T12:49:36Z</time></trkpt><trkpt lat="43.51609578316594" lon="5.9105516944548375"><ele>322.0</ele><time>2026-04-11T12:49:37Z</time></trkpt><trkpt lat="43.516006744746804" lon="5.9106294943712845"><ele>321.0</ele><time>2026-04-11T12:49:38Z</time></trkpt><trkpt lat="43.515908199701926" lon="5.910702634433992"><ele>320.0</ele><time>2026-04-11T12:49:39Z</time></trkpt><trkpt lat="43.51583846038831" lon="5.910744131924236"><ele>319.0</ele><time>2026-04-11T12:49:40Z</time></trkpt><trkpt lat="43.515780060759404" lon="5.910778245507656"><ele>318.0</ele><time>2026-04-11T12:49:41Z</time></trkpt><trkpt lat="43.515696624508905" lon="5.910799223967737"><ele>318.0</ele><time>2026-04-11T12:49:42Z</time></trkpt><trkpt lat="43.51561714832282" lon="5.910821767809219"><ele>318.0</ele><time>2026-04-11T12:49:43Z</time></trkpt><trkpt lat="43.515543115214285" lon="5.910791042773517"><ele>318.0</ele><time>2026-04-11T12:49:45Z</time></trkpt><trkpt lat="43.51547130241982" lon="5.910720292677283"><ele>318.0</ele><time>2026-04-11T12:49:46Z</time></trkpt><trkpt lat="43.51540178851312" lon="5.910669216342292"><ele>318.0</ele><time>2026-04-11T12:49:47Z</time></trkpt><trkpt lat="43.5152328549355" lon="5.9106317095878875"><ele>317.3333333333333</ele><time>2026-04-11T12:49:49Z</time></trkpt><trkpt lat="43.515128430226696" lon="5.910612568952662"><ele>316.6666666666667</ele><time>2026-04-11T12:49:50Z</time></trkpt><trkpt lat="43.51504508509998" lon="5.910579540342357"><ele>316.0</ele><time>2026-04-11T12:49:51Z</time></trkpt><trkpt lat="43.51497067905676" lon="5.9105563480782335"><ele>315.33333333333337</ele><time>2026-04-11T12:49:52Z</time></trkpt><trkpt lat="43.51486734367667" lon="5.9105773048508"><ele>314.6666666666667</ele><time>2026-04-11T12:49:54Z</time></trkpt><trkpt lat="43.51480698115228" lon="5.910609008681284"><ele>314.0</ele><time>2026-04-11T12:49:55Z</time></trkpt><trkpt lat="43.514736953842394" lon="5.910624925028756"><ele>314.0</ele><time>2026-04-11T12:49:56Z</time></trkpt><trkpt lat="43.51467166204028" lon="5.910650741223578"><ele>314.0</ele><time>2026-04-11T12:49:58Z</time></trkpt><trkpt lat="43.51460051118957" lon="5.91070025634198"><ele>314.0</ele><time>2026-04-11T12:50:00Z</time></trkpt><trkpt lat="43.51452794842277" lon="5.910773494969752"><ele>314.0</ele><time>2026-04-11T12:50:02Z</time></trkpt><trkpt lat="43.51451861292582" lon="5.910884707861713"><ele>314.0</ele><time>2026-04-11T12:50:04Z</time></trkpt><trkpt lat="43.51452391959492" lon="5.911069409364985"><ele>314.0</ele><time>2026-04-11T12:50:06Z</time></trkpt><trkpt lat="43.51452475891078" lon="5.9112244671020076"><ele>314.0</ele><time>2026-04-11T12:50:08Z</time></trkpt><trkpt lat="43.51459069365622" lon="5.911238680528176"><ele>314.0</ele><time>2026-04-11T12:50:12Z</time></trkpt><trkpt lat="43.51463587189571" lon="5.911335429807426"><ele>314.0</ele><time>2026-04-11T12:50:15Z</time></trkpt><trkpt lat="43.51464715122749" lon="5.911445995209223"><ele>314.0</ele><time>2026-04-11T12:50:19Z</time></trkpt><trkpt lat="43.51469838669948" lon="5.9115477274755195"><ele>314.0</ele><time>2026-04-11T12:50:21Z</time></trkpt><trkpt lat="43.51480115655036" lon="5.91156729622374"><ele>314.0</ele><time>2026-04-11T12:50:24Z</time></trkpt><trkpt lat="43.514915231988255" lon="5.911544234920355"><ele>314.0</ele><time>2026-04-11T12:50:26Z</time></trkpt><trkpt lat="43.515024643787655" lon="5.911603256066288"><ele>314.0</ele><time>2026-04-11T12:50:28Z</time></trkpt><trkpt lat="43.51512417682867" lon="5.91167387540103"><ele>314.0</ele><time>2026-04-11T12:50:30Z</time></trkpt><trkpt lat="43.51522278522073" lon="5.911706817232102"><ele>314.0</ele><time>2026-04-11T12:50:33Z</time></trkpt><trkpt lat="43.515305008467685" lon="5.911742592973578"><ele>313.6666666666667</ele><time>2026-04-11T12:50:35Z</time></trkpt><trkpt lat="43.51537174499935" lon="5.911811786930949"><ele>313.33333333333337</ele><time>2026-04-11T12:50:38Z</time></trkpt><trkpt lat="43.51536897027549" lon="5.911918455419136"><ele>313.0</ele><time>2026-04-11T12:50:40Z</time></trkpt><trkpt lat="43.515386994122366" lon="5.912042016030648"><ele>312.6666666666667</ele><time>2026-04-11T12:50:42Z</time></trkpt><trkpt lat="43.51537573660015" lon="5.912185963235588"><ele>312.3333333333333</ele><time>2026-04-11T12:50:44Z</time></trkpt><trkpt lat="43.51539354773932" lon="5.91230156830392"><ele>312.0</ele><time>2026-04-11T12:50:46Z</time></trkpt><trkpt lat="43.51539433968426" lon="5.912411641291744"><ele>312.0</ele><time>2026-04-11T12:50:48Z</time></trkpt><trkpt lat="43.51532575728964" lon="5.912515556783987"><ele>312.0</ele><time>2026-04-11T12:50:50Z</time></trkpt><trkpt lat="43.51525579989042" lon="5.912529523024512"><ele>312.0</ele><time>2026-04-11T12:50:52Z</time></trkpt><trkpt lat="43.51516275880654" lon="5.912530093448575"><ele>312.0</ele><time>2026-04-11T12:50:54Z</time></trkpt><trkpt lat="43.51511503856504" lon="5.912591692092274"><ele>312.0</ele><time>2026-04-11T12:50:55Z</time></trkpt><trkpt lat="43.515034414596315" lon="5.912656216591233"><ele>312.0</ele><time>2026-04-11T12:50:57Z</time></trkpt><trkpt lat="43.51493170968152" lon="5.912746737811576"><ele>312.1666666666667</ele><time>2026-04-11T12:50:59Z</time></trkpt><trkpt lat="43.514858567798214" lon="5.9127519455794495"><ele>312.3333333333333</ele><time>2026-04-11T12:51:00Z</time></trkpt><trkpt lat="43.514773881133394" lon="5.912750451836993"><ele>312.5</ele><time>2026-04-11T12:51:02Z</time></trkpt><trkpt lat="43.51470181405326" lon="5.912837543569425"><ele>312.66666666666663</ele><time>2026-04-11T12:51:05Z</time></trkpt><trkpt lat="43.51463599540369" lon="5.9128921637694285"><ele>312.8333333333333</ele><time>2026-04-11T12:51:07Z</time></trkpt><trkpt lat="43.514587526110795" lon="5.912947676979648"><ele>313.0</ele><time>2026-04-11T12:51:08Z</time></trkpt><trkpt lat="43.514543836349944" lon="5.913012802191153"><ele>313.0</ele><time>2026-04-11T12:51:09Z</time></trkpt><trkpt lat="43.51447350419929" lon="5.913081672607742"><ele>313.0</ele><time>2026-04-11T12:51:11Z</time></trkpt><trkpt lat="43.51438521236218" lon="5.913072812711484"><ele>313.0</ele><time>2026-04-11T12:51:13Z</time></trkpt><trkpt lat="43.5143202369148" lon="5.9131043792736495"><ele>313.0</ele><time>2026-04-11T12:51:18Z</time></trkpt><trkpt lat="43.51422338460397" lon="5.913105957421344"><ele>313.0</ele><time>2026-04-11T12:51:20Z</time></trkpt><trkpt lat="43.51414161208582" lon="5.913140570324532"><ele>313.0</ele><time>2026-04-11T12:51:22Z</time></trkpt><trkpt lat="43.5140298632228" lon="5.913189573942501"><ele>313.0</ele><time>2026-04-11T12:51:24Z</time></trkpt><trkpt lat="43.513944637111926" lon="5.91320806328149"><ele>313.0</ele><time>2026-04-11T12:51:26Z</time></trkpt><trkpt lat="43.51386914240884" lon="5.91320830377518"><ele>313.0</ele><time>2026-04-11T12:51:29Z</time></trkpt><trkpt lat="43.51379705007104" lon="5.9132542250463525"><ele>313.0</ele><time>2026-04-11T12:51:30Z</time></trkpt><trkpt lat="43.51371644430655" lon="5.913338640290701"><ele>313.0</ele><time>2026-04-11T12:51:32Z</time></trkpt><trkpt lat="43.51366720596127" lon="5.913466751620491"><ele>313.0</ele><time>2026-04-11T12:51:34Z</time></trkpt><trkpt lat="43.51364714305287" lon="5.913597514559588"><ele>313.0</ele><time>2026-04-11T12:51:36Z</time></trkpt><trkpt lat="43.51365409840078" lon="5.9137183274439735"><ele>313.0</ele><time>2026-04-11T12:51:39Z</time></trkpt><trkpt lat="43.5136234988624" lon="5.913846629278652"><ele>313.0</ele><time>2026-04-11T12:51:41Z</time></trkpt><trkpt lat="43.5136218328938" lon="5.913964035233712"><ele>313.0</ele><time>2026-04-11T12:51:43Z</time></trkpt><trkpt lat="43.513602167536014" lon="5.914095911131171"><ele>313.0</ele><time>2026-04-11T12:51:44Z</time></trkpt><trkpt lat="43.51366495065988" lon="5.914220073017963"><ele>313.8</ele><time>2026-04-11T12:51:46Z</time></trkpt><trkpt lat="43.513701072957076" lon="5.914334226891116"><ele>314.6</ele><time>2026-04-11T12:51:47Z</time></trkpt><trkpt lat="43.51373717542761" lon="5.914445350596724"><ele>315.4</ele><time>2026-04-11T12:51:49Z</time></trkpt><trkpt lat="43.51372679234863" lon="5.914614330952658"><ele>316.2</ele><time>2026-04-11T12:51:51Z</time></trkpt><trkpt lat="43.51373688682432" lon="5.9147738272460835"><ele>317.0</ele><time>2026-04-11T12:51:53Z</time></trkpt><trkpt lat="43.51375850219831" lon="5.914920485521667"><ele>315.6666666666667</ele><time>2026-04-11T12:51:54Z</time></trkpt><trkpt lat="43.5137785117665" lon="5.915035089680986"><ele>314.33333333333337</ele><time>2026-04-11T12:51:55Z</time></trkpt><trkpt lat="43.513777819665236" lon="5.915126247506852"><ele>313.0</ele><time>2026-04-11T12:51:56Z</time></trkpt><trkpt lat="43.513810288116375" lon="5.9152462171170415"><ele>311.6666666666667</ele><time>2026-04-11T12:51:58Z</time></trkpt><trkpt lat="43.513816901744256" lon="5.915333466465241"><ele>310.3333333333333</ele><time>2026-04-11T12:52:00Z</time></trkpt><trkpt lat="43.51388392685427" lon="5.915406862452952"><ele>309.0</ele><time>2026-04-11T12:52:03Z</time></trkpt><trkpt lat="43.513925233825155" lon="5.915529331442047"><ele>309.0</ele><time>2026-04-11T12:52:05Z</time></trkpt><trkpt lat="43.51398967062916" lon="5.915642845095443"><ele>309.0</ele><time>2026-04-11T12:52:07Z</time></trkpt><trkpt lat="43.51400745705456" lon="5.915799876825675"><ele>309.0</ele><time>2026-04-11T12:52:09Z</time></trkpt><trkpt lat="43.51402648447763" lon="5.915899570322625"><ele>309.0</ele><time>2026-04-11T12:52:11Z</time></trkpt><trkpt lat="43.514065361174886" lon="5.915985221403083"><ele>309.0</ele><time>2026-04-11T12:52:13Z</time></trkpt><trkpt lat="43.51406023898186" lon="5.916087039435663"><ele>309.0</ele><time>2026-04-11T12:52:15Z</time></trkpt><trkpt lat="43.514106078774766" lon="5.916172391438276"><ele>309.0</ele><time>2026-04-11T12:52:18Z</time></trkpt><trkpt lat="43.514091180773065" lon="5.916260164601873"><ele>309.0</ele><time>2026-04-11T12:52:20Z</time></trkpt><trkpt lat="43.51415109717332" lon="5.916354154010119"><ele>309.0</ele><time>2026-04-11T12:52:22Z</time></trkpt><trkpt lat="43.51417392991994" lon="5.916518746366436"><ele>309.0</ele><time>2026-04-11T12:52:23Z</time></trkpt><trkpt lat="43.51421924905365" lon="5.916646149000812"><ele>309.0</ele><time>2026-04-11T12:52:25Z</time></trkpt><trkpt lat="43.51427531706623" lon="5.9168239525895165"><ele>310.6666666666667</ele><time>2026-04-11T12:52:26Z</time></trkpt><trkpt lat="43.514355383652244" lon="5.917061830387773"><ele>312.33333333333337</ele><time>2026-04-11T12:52:27Z</time></trkpt><trkpt lat="43.514419978820065" lon="5.917249491794472"><ele>314.0</ele><time>2026-04-11T12:52:28Z</time></trkpt><trkpt lat="43.514479312757715" lon="5.917413864006295"><ele>314.0</ele><time>2026-04-11T12:52:29Z</time></trkpt><trkpt lat="43.514526786384984" lon="5.917562499909583"><ele>314.0</ele><time>2026-04-11T12:52:30Z</time></trkpt><trkpt lat="43.514532611534094" lon="5.917657890938155"><ele>314.0</ele><time>2026-04-11T12:52:31Z</time></trkpt><trkpt lat="43.5145466234246" lon="5.917811286243738"><ele>314.0</ele><time>2026-04-11T12:52:33Z</time></trkpt><trkpt lat="43.51455018782408" lon="5.917928165570707"><ele>314.0</ele><time>2026-04-11T12:52:36Z</time></trkpt><trkpt lat="43.51461064587076" lon="5.918055367703467"><ele>312.5</ele><time>2026-04-11T12:52:39Z</time></trkpt><trkpt lat="43.514696010200936" lon="5.918141738966607"><ele>311.0</ele><time>2026-04-11T12:52:43Z</time></trkpt><trkpt lat="43.5147519307649" lon="5.9182202310765994"><ele>309.5</ele><time>2026-04-11T12:52:45Z</time></trkpt><trkpt lat="43.51477705209333" lon="5.918358854232483"><ele>308.0</ele><time>2026-04-11T12:52:48Z</time></trkpt><trkpt lat="43.514825083769516" lon="5.918431559935651"><ele>306.5</ele><time>2026-04-11T12:52:49Z</time></trkpt><trkpt lat="43.514888406456144" lon="5.9185000399224785"><ele>305.0</ele><time>2026-04-11T12:52:51Z</time></trkpt><trkpt lat="43.51495075777218" lon="5.918584934051182"><ele>305.0</ele><time>2026-04-11T12:52:53Z</time></trkpt><trkpt lat="43.51501379579723" lon="5.918606413187327"><ele>305.0</ele><time>2026-04-11T12:52:54.999Z</time></trkpt><trkpt lat="43.51509812623727" lon="5.918653355388829"><ele>305.0</ele><time>2026-04-11T12:52:56.999Z</time></trkpt><trkpt lat="43.51514957401958" lon="5.918760132404195"><ele>305.0</ele><time>2026-04-11T12:53:00.999Z</time></trkpt><trkpt lat="43.51513199915522" lon="5.918856877005566"><ele>305.0</ele><time>2026-04-11T12:53:02.999Z</time></trkpt><trkpt lat="43.51512090136467" lon="5.918952475761967"><ele>305.0</ele><time>2026-04-11T12:53:04.999Z</time></trkpt><trkpt lat="43.51508442610623" lon="5.919037927352637"><ele>305.0</ele><time>2026-04-11T12:53:07.999Z</time></trkpt><trkpt lat="43.51509642264793" lon="5.9191538833389785"><ele>305.0</ele><time>2026-04-11T12:53:09.999Z</time></trkpt><trkpt lat="43.51509377548875" lon="5.9192598777481455"><ele>305.0</ele><time>2026-04-11T12:53:11.999Z</time></trkpt><trkpt lat="43.51502194487991" lon="5.919314649075637"><ele>305.0</ele><time>2026-04-11T12:53:13.999Z</time></trkpt><trkpt lat="43.51500887623228" lon="5.919436439765182"><ele>305.0</ele><time>2026-04-11T12:53:19Z</time></trkpt><trkpt lat="43.514903555144286" lon="5.919510691946896"><ele>304.8571428571429</ele><time>2026-04-11T12:53:21Z</time></trkpt><trkpt lat="43.51487977270501" lon="5.919608665102512"><ele>304.71428571428567</ele><time>2026-04-11T12:53:24Z</time></trkpt><trkpt lat="43.51490310010036" lon="5.919702333094051"><ele>304.57142857142856</ele><time>2026-04-11T12:53:26Z</time></trkpt><trkpt lat="43.514958103116854" lon="5.919748021889791"><ele>304.42857142857144</ele><time>2026-04-11T12:53:32Z</time></trkpt><trkpt lat="43.51497317273447" lon="5.919877883430091"><ele>304.28571428571433</ele><time>2026-04-11T12:53:34Z</time></trkpt><trkpt lat="43.51500142160531" lon="5.919959740757354"><ele>304.1428571428571</ele><time>2026-04-11T12:53:35Z</time></trkpt><trkpt lat="43.51500322325726" lon="5.920047840109411"><ele>304.0</ele><time>2026-04-11T12:53:36Z</time></trkpt><trkpt lat="43.515007750378416" lon="5.920148472899332"><ele>304.0</ele><time>2026-04-11T12:53:39Z</time></trkpt><trkpt lat="43.515003602962864" lon="5.9202393078219835"><ele>304.0</ele><time>2026-04-11T12:53:41Z</time></trkpt><trkpt lat="43.51499101700024" lon="5.920444706634605"><ele>304.0</ele><time>2026-04-11T12:53:42Z</time></trkpt><trkpt lat="43.51499233561978" lon="5.920549085397853"><ele>304.0</ele><time>2026-04-11T12:53:46Z</time></trkpt><trkpt lat="43.51501184899886" lon="5.920718482249281"><ele>304.0</ele><time>2026-04-11T12:53:48Z</time></trkpt><trkpt lat="43.514993114935606" lon="5.920840911403712"><ele>304.16666666666663</ele><time>2026-04-11T12:53:50Z</time></trkpt><trkpt lat="43.514938583660275" lon="5.920916227023337"><ele>304.3333333333333</ele><time>2026-04-11T12:53:54Z</time></trkpt><trkpt lat="43.514948149875266" lon="5.92103328309763"><ele>304.5</ele><time>2026-04-11T12:53:58Z</time></trkpt><trkpt lat="43.5149775339117" lon="5.921125306923016"><ele>304.6666666666667</ele><time>2026-04-11T12:54:02Z</time></trkpt><trkpt lat="43.51502628367685" lon="5.921199650565183"><ele>304.83333333333337</ele><time>2026-04-11T12:54:04Z</time></trkpt><trkpt lat="43.51506160089719" lon="5.921294112862009"><ele>305.0</ele><time>2026-04-11T12:54:06Z</time></trkpt><trkpt lat="43.51512030883764" lon="5.921489501555573"><ele>305.0</ele><time>2026-04-11T12:54:07Z</time></trkpt><trkpt lat="43.515189379270176" lon="5.9216315949079865"><ele>305.0</ele><time>2026-04-11T12:54:09Z</time></trkpt><trkpt lat="43.51524021768011" lon="5.921706749779154"><ele>305.0</ele><time>2026-04-11T12:54:11Z</time></trkpt><trkpt lat="43.515301103389554" lon="5.92181819576103"><ele>305.0</ele><time>2026-04-11T12:54:13Z</time></trkpt><trkpt lat="43.515337405347005" lon="5.921890989444811"><ele>305.0</ele><time>2026-04-11T12:54:14Z</time></trkpt><trkpt lat="43.51537823950377" lon="5.921990726157631"><ele>305.0</ele><time>2026-04-11T12:54:16Z</time></trkpt><trkpt lat="43.51539214474386" lon="5.922126661234034"><ele>304.6</ele><time>2026-04-11T12:54:20Z</time></trkpt><trkpt lat="43.51539464362324" lon="5.922248326321821"><ele>304.2</ele><time>2026-04-11T12:54:21Z</time></trkpt><trkpt lat="43.51538882616895" lon="5.922407024979256"><ele>303.8</ele><time>2026-04-11T12:54:22Z</time></trkpt><trkpt lat="43.51536747675539" lon="5.922489007103044"><ele>303.4</ele><time>2026-04-11T12:54:24Z</time></trkpt><trkpt lat="43.51527424032158" lon="5.922452299662338"><ele>303.0</ele><time>2026-04-11T12:54:28Z</time></trkpt><trkpt lat="43.51518697975546" lon="5.922429591016268"><ele>303.0</ele><time>2026-04-11T12:54:30Z</time></trkpt><trkpt lat="43.515115087098124" lon="5.922408577431168"><ele>303.0</ele><time>2026-04-11T12:54:31Z</time></trkpt><trkpt lat="43.515025199566686" lon="5.922362724680515"><ele>303.0</ele><time>2026-04-11T12:54:32Z</time></trkpt><trkpt lat="43.51490907487364" lon="5.922302511200527"><ele>303.0</ele><time>2026-04-11T12:54:33Z</time></trkpt><trkpt lat="43.514787301555764" lon="5.922256392015484"><ele>303.0</ele><time>2026-04-11T12:54:34Z</time></trkpt><trkpt lat="43.51467747780499" lon="5.922208008109339"><ele>303.0</ele><time>2026-04-11T12:54:35Z</time></trkpt><trkpt lat="43.514576263060505" lon="5.922173184740409"><ele>303.0</ele><time>2026-04-11T12:54:36Z</time></trkpt><trkpt lat="43.51451535724973" lon="5.9221357032352175"><ele>303.0</ele><time>2026-04-11T12:54:37Z</time></trkpt><trkpt lat="43.51445307160093" lon="5.9220995908823575"><ele>303.0</ele><time>2026-04-11T12:54:38Z</time></trkpt><trkpt lat="43.514389640152515" lon="5.922080644120808"><ele>303.0</ele><time>2026-04-11T12:54:39Z</time></trkpt><trkpt lat="43.51435210207075" lon="5.922221447807732"><ele>303.0</ele><time>2026-04-11T12:54:42Z</time></trkpt><trkpt lat="43.514369569964295" lon="5.922338081935031"><ele>303.0</ele><time>2026-04-11T12:54:43Z</time></trkpt><trkpt lat="43.51437148673404" lon="5.922492586838785"><ele>303.0</ele><time>2026-04-11T12:54:44Z</time></trkpt><trkpt lat="43.51434336731524" lon="5.92270276741423"><ele>303.0</ele><time>2026-04-11T12:54:45Z</time></trkpt><trkpt lat="43.51433875352638" lon="5.9229319401753635"><ele>303.0</ele><time>2026-04-11T12:54:46Z</time></trkpt><trkpt lat="43.51434339431432" lon="5.923175096212939"><ele>302.5</ele><time>2026-04-11T12:54:47Z</time></trkpt><trkpt lat="43.51433228616485" lon="5.923406035134028"><ele>302.0</ele><time>2026-04-11T12:54:48Z</time></trkpt><trkpt lat="43.51432284075549" lon="5.92360171370956"><ele>301.5</ele><time>2026-04-11T12:54:49Z</time></trkpt><trkpt lat="43.51433006987205" lon="5.923780584863118"><ele>301.0</ele><time>2026-04-11T12:54:49.999Z</time></trkpt><trkpt lat="43.51436466954799" lon="5.923944622757289"><ele>301.0</ele><time>2026-04-11T12:54:50.999Z</time></trkpt><trkpt lat="43.51443225128766" lon="5.924099589120528"><ele>301.0</ele><time>2026-04-11T12:54:51.999Z</time></trkpt><trkpt lat="43.514526780554725" lon="5.9242961149217495"><ele>301.0</ele><time>2026-04-11T12:54:52.999Z</time></trkpt><trkpt lat="43.514633229315436" lon="5.9245393009178855"><ele>300.3333333333333</ele><time>2026-04-11T12:54:53.999Z</time></trkpt><trkpt lat="43.5147301447415" lon="5.924754469664224"><ele>299.6666666666667</ele><time>2026-04-11T12:54:54.999Z</time></trkpt><trkpt lat="43.51483236019656" lon="5.924926485219816"><ele>299.0</ele><time>2026-04-11T12:54:55.999Z</time></trkpt><trkpt lat="43.51493868068412" lon="5.925093660934878"><ele>299.0</ele><time>2026-04-11T12:54:56.999Z</time></trkpt><trkpt lat="43.515036541957315" lon="5.925288416057189"><ele>299.0</ele><time>2026-04-11T12:54:57.999Z</time></trkpt><trkpt lat="43.515148058943915" lon="5.925415336226593"><ele>299.0</ele><time>2026-04-11T12:54:58.999Z</time></trkpt><trkpt lat="43.515236891285866" lon="5.925549471075203"><ele>299.0</ele><time>2026-04-11T12:54:59.999Z</time></trkpt><trkpt lat="43.51534094071532" lon="5.925671775927804"><ele>299.33333333333337</ele><time>2026-04-11T12:55:00.999Z</time></trkpt><trkpt lat="43.515468495387644" lon="5.925793231397391"><ele>299.6666666666667</ele><time>2026-04-11T12:55:01.999Z</time></trkpt><trkpt lat="43.51560362712029" lon="5.925922126868911"><ele>300.0</ele><time>2026-04-11T12:55:02.999Z</time></trkpt><trkpt lat="43.51572335324699" lon="5.926032286905338"><ele>300.0</ele><time>2026-04-11T12:55:03.999Z</time></trkpt><trkpt lat="43.51582601268589" lon="5.926139511302426"><ele>300.0</ele><time>2026-04-11T12:55:04.999Z</time></trkpt><trkpt lat="43.515916847648285" lon="5.926263294608419"><ele>300.0</ele><time>2026-04-11T12:55:05.999Z</time></trkpt><trkpt lat="43.51602369092874" lon="5.9263938552833935"><ele>300.0</ele><time>2026-04-11T12:55:06.999Z</time></trkpt><trkpt lat="43.51612540625847" lon="5.926503659742072"><ele>300.0</ele><time>2026-04-11T12:55:07.999Z</time></trkpt><trkpt lat="43.51621567613936" lon="5.926612937100437"><ele>300.0</ele><time>2026-04-11T12:55:08.999Z</time></trkpt><trkpt lat="43.516296922331875" lon="5.926704408892028"><ele>300.0</ele><time>2026-04-11T12:55:09.999Z</time></trkpt><trkpt lat="43.51639060094001" lon="5.9267603108187235"><ele>300.0</ele><time>2026-04-11T12:55:10.999Z</time></trkpt><trkpt lat="43.51648488702912" lon="5.92678395827076"><ele>300.0</ele><time>2026-04-11T12:55:11.999Z</time></trkpt><trkpt lat="43.51657934646694" lon="5.926793788556205"><ele>299.4</ele><time>2026-04-11T12:55:12.999Z</time></trkpt><trkpt lat="43.51666413666347" lon="5.926788014345493"><ele>298.8</ele><time>2026-04-11T12:55:13.999Z</time></trkpt><trkpt lat="43.5167522683097" lon="5.926808965642688"><ele>298.2</ele><time>2026-04-11T12:55:14.999Z</time></trkpt><trkpt lat="43.51686484950445" lon="5.926849978837368"><ele>297.6</ele><time>2026-04-11T12:55:15.999Z</time></trkpt><trkpt lat="43.516996890994854" lon="5.9268719854394405"><ele>297.0</ele><time>2026-04-11T12:55:16.999Z</time></trkpt><trkpt lat="43.517139028955" lon="5.926924820850113"><ele>296.0</ele><time>2026-04-11T12:55:17.999Z</time></trkpt><trkpt lat="43.517306723022514" lon="5.926974632224193"><ele>295.0</ele><time>2026-04-11T12:55:18.999Z</time></trkpt><trkpt lat="43.517449448731576" lon="5.927016568166572"><ele>294.0</ele><time>2026-04-11T12:55:19.999Z</time></trkpt><trkpt lat="43.51757949642149" lon="5.927045447429511"><ele>293.0</ele><time>2026-04-11T12:55:21Z</time></trkpt><trkpt lat="43.51769963497158" lon="5.927082055260801"><ele>293.0</ele><time>2026-04-11T12:55:22Z</time></trkpt><trkpt lat="43.51782432184768" lon="5.9271441642297304"><ele>293.0</ele><time>2026-04-11T12:55:23Z</time></trkpt><trkpt lat="43.517971452655644" lon="5.9272397678248305"><ele>293.0</ele><time>2026-04-11T12:55:24Z</time></trkpt><trkpt lat="43.5181212917607" lon="5.927346210220057"><ele>291.33333333333337</ele><time>2026-04-11T12:55:25Z</time></trkpt><trkpt lat="43.518268534766136" lon="5.927437488494159"><ele>289.6666666666667</ele><time>2026-04-11T12:55:26Z</time></trkpt><trkpt lat="43.51840451982217" lon="5.927517191245418"><ele>288.0</ele><time>2026-04-11T12:55:27Z</time></trkpt><trkpt lat="43.518532693189954" lon="5.927601844930043"><ele>288.0</ele><time>2026-04-11T12:55:28Z</time></trkpt><trkpt lat="43.518642439473204" lon="5.92769824120166"><ele>288.0</ele><time>2026-04-11T12:55:29Z</time></trkpt><trkpt lat="43.51873522426276" lon="5.927799629014992"><ele>288.0</ele><time>2026-04-11T12:55:30Z</time></trkpt><trkpt lat="43.51880164160516" lon="5.927885756238943"><ele>288.0</ele><time>2026-04-11T12:55:31Z</time></trkpt><trkpt lat="43.5188622781801" lon="5.927949047221304"><ele>288.0</ele><time>2026-04-11T12:55:32Z</time></trkpt><trkpt lat="43.518934875491276" lon="5.9280193646209876"><ele>287.1666666666667</ele><time>2026-04-11T12:55:34Z</time></trkpt><trkpt lat="43.51899389037661" lon="5.9279507466363714"><ele>286.3333333333333</ele><time>2026-04-11T12:55:37Z</time></trkpt><trkpt lat="43.519044824025954" lon="5.9277978299654155"><ele>285.5</ele><time>2026-04-11T12:55:39Z</time></trkpt><trkpt lat="43.51908104171327" lon="5.927684467467365"><ele>284.66666666666663</ele><time>2026-04-11T12:55:40Z</time></trkpt><trkpt lat="43.51911799769319" lon="5.927583073735975"><ele>283.8333333333333</ele><time>2026-04-11T12:55:41Z</time></trkpt><trkpt lat="43.519166498803806" lon="5.92750414480317"><ele>283.0</ele><time>2026-04-11T12:55:42Z</time></trkpt><trkpt lat="43.51923644913186" lon="5.927462452264813"><ele>283.0</ele><time>2026-04-11T12:55:43Z</time></trkpt><trkpt lat="43.51933781401049" lon="5.927437290453061"><ele>283.0</ele><time>2026-04-11T12:55:44Z</time></trkpt><trkpt lat="43.519461141332314" lon="5.927430971097685"><ele>283.0</ele><time>2026-04-11T12:55:45Z</time></trkpt><trkpt lat="43.51959395853826" lon="5.927433603266003"><ele>283.0</ele><time>2026-04-11T12:55:46Z</time></trkpt><trkpt lat="43.51973485798223" lon="5.927429929811843"><ele>282.0</ele><time>2026-04-11T12:55:47Z</time></trkpt><trkpt lat="43.51989496598372" lon="5.927425289055396"><ele>281.0</ele><time>2026-04-11T12:55:48Z</time></trkpt><trkpt lat="43.52004861372979" lon="5.9274147623983655"><ele>280.0</ele><time>2026-04-11T12:55:49Z</time></trkpt><trkpt lat="43.520200519636774" lon="5.9273988969498905"><ele>280.0</ele><time>2026-04-11T12:55:50Z</time></trkpt><trkpt lat="43.5203574608167" lon="5.927386046553469"><ele>280.0</ele><time>2026-04-11T12:55:51Z</time></trkpt><trkpt lat="43.520518961080064" lon="5.927377942314521"><ele>280.0</ele><time>2026-04-11T12:55:52Z</time></trkpt><trkpt lat="43.52069282742333" lon="5.927357882650576"><ele>281.3333333333333</ele><time>2026-04-11T12:55:53Z</time></trkpt><trkpt lat="43.52087023107383" lon="5.927328874893035"><ele>282.6666666666667</ele><time>2026-04-11T12:55:54Z</time></trkpt><trkpt lat="43.521024355207715" lon="5.927307324249888"><ele>284.0</ele><time>2026-04-11T12:55:55Z</time></trkpt><trkpt lat="43.52114069822268" lon="5.927296147242581"><ele>284.0</ele><time>2026-04-11T12:55:56Z</time></trkpt><trkpt lat="43.52121653575611" lon="5.927282788510758"><ele>284.0</ele><time>2026-04-11T12:55:57Z</time></trkpt><trkpt lat="43.5213092688545" lon="5.927194577416861"><ele>284.0</ele><time>2026-04-11T12:55:59Z</time></trkpt><trkpt lat="43.521415835175645" lon="5.927123756120172"><ele>284.0</ele><time>2026-04-11T12:56:01Z</time></trkpt><trkpt lat="43.52149209440266" lon="5.927048287770617"><ele>284.0</ele><time>2026-04-11T12:56:03Z</time></trkpt><trkpt lat="43.52156277221688" lon="5.927052409274929"><ele>284.83333333333337</ele><time>2026-04-11T12:56:05Z</time></trkpt><trkpt lat="43.52162971947372" lon="5.927034868710319"><ele>285.6666666666667</ele><time>2026-04-11T12:56:07Z</time></trkpt><trkpt lat="43.52170688222808" lon="5.927028257952952"><ele>286.5</ele><time>2026-04-11T12:56:08Z</time></trkpt><trkpt lat="43.52180467693614" lon="5.927047817964078"><ele>287.3333333333333</ele><time>2026-04-11T12:56:09Z</time></trkpt><trkpt lat="43.521913863434136" lon="5.927080536575123"><ele>288.16666666666663</ele><time>2026-04-11T12:56:10Z</time></trkpt><trkpt lat="43.52199857975809" lon="5.927092735507157"><ele>289.0</ele><time>2026-04-11T12:56:11Z</time></trkpt><trkpt lat="43.52208550436321" lon="5.927085081630265"><ele>289.8333333333333</ele><time>2026-04-11T12:56:12Z</time></trkpt><trkpt lat="43.522173726715636" lon="5.927093913524925"><ele>290.66666666666663</ele><time>2026-04-11T12:56:13Z</time></trkpt><trkpt lat="43.52227668277112" lon="5.927079273208833"><ele>291.5</ele><time>2026-04-11T12:56:14Z</time></trkpt><trkpt lat="43.52237191572544" lon="5.927060273984661"><ele>292.3333333333333</ele><time>2026-04-11T12:56:15Z</time></trkpt><trkpt lat="43.5224469349206" lon="5.927049633140872"><ele>293.1666666666667</ele><time>2026-04-11T12:56:16Z</time></trkpt><trkpt lat="43.522524697606706" lon="5.927045357717178"><ele>294.0</ele><time>2026-04-11T12:56:17Z</time></trkpt><trkpt lat="43.522624745738916" lon="5.927048966962182"><ele>294.0</ele><time>2026-04-11T12:56:18Z</time></trkpt><trkpt lat="43.522722647516346" lon="5.9270545591069945"><ele>294.0</ele><time>2026-04-11T12:56:19Z</time></trkpt><trkpt lat="43.52280007581212" lon="5.927052287049734"><ele>294.0</ele><time>2026-04-11T12:56:20Z</time></trkpt><trkpt lat="43.522880750225404" lon="5.927046301476614"><ele>294.0</ele><time>2026-04-11T12:56:21Z</time></trkpt><trkpt lat="43.52295180869569" lon="5.927051604623573"><ele>294.0</ele><time>2026-04-11T12:56:22Z</time></trkpt><trkpt lat="43.52303430682084" lon="5.927085413161713"><ele>294.0</ele><time>2026-04-11T12:56:24Z</time></trkpt><trkpt lat="43.52314908601673" lon="5.927142369417812"><ele>294.8</ele><time>2026-04-11T12:56:28Z</time></trkpt><trkpt lat="43.5232436659119" lon="5.9271216328674985"><ele>295.59999999999997</ele><time>2026-04-11T12:56:29Z</time></trkpt><trkpt lat="43.52336138199107" lon="5.927098139956868"><ele>296.4</ele><time>2026-04-11T12:56:30Z</time></trkpt><trkpt lat="43.52347027292046" lon="5.927082391008764"><ele>297.2</ele><time>2026-04-11T12:56:31Z</time></trkpt><trkpt lat="43.523585869855594" lon="5.927086328917963"><ele>298.0</ele><time>2026-04-11T12:56:32Z</time></trkpt><trkpt lat="43.52370111227144" lon="5.927093774468434"><ele>298.6</ele><time>2026-04-11T12:56:33Z</time></trkpt><trkpt lat="43.52379839354533" lon="5.927076778773677"><ele>299.20000000000005</ele><time>2026-04-11T12:56:34Z</time></trkpt><trkpt lat="43.5238742683657" lon="5.9270170687236226"><ele>299.8</ele><time>2026-04-11T12:56:35Z</time></trkpt><trkpt lat="43.5239349091517" lon="5.926884142536224"><ele>300.40000000000003</ele><time>2026-04-11T12:56:36Z</time></trkpt><trkpt lat="43.52400622680086" lon="5.926759309233504"><ele>301.0</ele><time>2026-04-11T12:56:37Z</time></trkpt><trkpt lat="43.52405735625414" lon="5.926607750113679"><ele>301.0</ele><time>2026-04-11T12:56:38Z</time></trkpt><trkpt lat="43.52412165268277" lon="5.926456828996674"><ele>301.0</ele><time>2026-04-11T12:56:39Z</time></trkpt><trkpt lat="43.52416834022531" lon="5.926327543894483"><ele>301.0</ele><time>2026-04-11T12:56:40Z</time></trkpt><trkpt lat="43.524241213574776" lon="5.926229879262788"><ele>301.0</ele><time>2026-04-11T12:56:41Z</time></trkpt><trkpt lat="43.52432758225104" lon="5.926159592079121"><ele>301.0</ele><time>2026-04-11T12:56:42Z</time></trkpt><trkpt lat="43.52440985562648" lon="5.926099973884165"><ele>301.2</ele><time>2026-04-11T12:56:43Z</time></trkpt><trkpt lat="43.52438705233733" lon="5.9258871514279505"><ele>301.40000000000003</ele><time>2026-04-11T12:56:44Z</time></trkpt><trkpt lat="43.52447003602541" lon="5.925852773480454"><ele>301.6</ele><time>2026-04-11T12:56:45Z</time></trkpt><trkpt lat="43.52455959427615" lon="5.925864932218562"><ele>301.8</ele><time>2026-04-11T12:56:46Z</time></trkpt><trkpt lat="43.52465747731689" lon="5.925927023771021"><ele>302.0</ele><time>2026-04-11T12:56:47Z</time></trkpt><trkpt lat="43.524747918873395" lon="5.926010247420526"><ele>302.0</ele><time>2026-04-11T12:56:47.999Z</time></trkpt><trkpt lat="43.52485480764322" lon="5.926088934831573"><ele>302.0</ele><time>2026-04-11T12:56:48.999Z</time></trkpt><trkpt lat="43.524966674317916" lon="5.926181195051277"><ele>302.0</ele><time>2026-04-11T12:56:49.999Z</time></trkpt><trkpt lat="43.52508682723472" lon="5.926272597231882"><ele>302.0</ele><time>2026-04-11T12:56:50.999Z</time></trkpt><trkpt lat="43.5251933997707" lon="5.926342588788033"><ele>302.0</ele><time>2026-04-11T12:56:51.999Z</time></trkpt><trkpt lat="43.52529543011512" lon="5.926408649420319"><ele>302.0</ele><time>2026-04-11T12:56:52.999Z</time></trkpt><trkpt lat="43.525404837423146" lon="5.926487707496241"><ele>302.0</ele><time>2026-04-11T12:56:53.999Z</time></trkpt><trkpt lat="43.52552449747005" lon="5.926578159009881"><ele>302.0</ele><time>2026-04-11T12:56:54.999Z</time></trkpt><trkpt lat="43.525652176063126" lon="5.926677448603971"><ele>302.0</ele><time>2026-04-11T12:56:55.999Z</time></trkpt><trkpt lat="43.52579325977839" lon="5.926775840247154"><ele>302.0</ele><time>2026-04-11T12:56:56.999Z</time></trkpt><trkpt lat="43.52592135391408" lon="5.926854970091493"><ele>302.0</ele><time>2026-04-11T12:56:57.999Z</time></trkpt><trkpt lat="43.52602889916364" lon="5.9269227180416655"><ele>302.0</ele><time>2026-04-11T12:56:58.999Z</time></trkpt><trkpt lat="43.5261297926343" lon="5.926982040108383"><ele>302.0</ele><time>2026-04-11T12:56:59.999Z</time></trkpt><trkpt lat="43.52622401769467" lon="5.927033029658094"><ele>302.0</ele><time>2026-04-11T12:57:00.999Z</time></trkpt><trkpt lat="43.5263211398749" lon="5.927082439051107"><ele>302.0</ele><time>2026-04-11T12:57:01.999Z</time></trkpt><trkpt lat="43.526425830923195" lon="5.9271273378654525"><ele>302.0</ele><time>2026-04-11T12:57:02.999Z</time></trkpt><trkpt lat="43.52651828471195" lon="5.927164463493069"><ele>302.0</ele><time>2026-04-11T12:57:03.999Z</time></trkpt><trkpt lat="43.526623081047624" lon="5.927207373484923"><ele>302.5</ele><time>2026-04-11T12:57:04.999Z</time></trkpt><trkpt lat="43.526739796498326" lon="5.927265348148702"><ele>303.0</ele><time>2026-04-11T12:57:05.999Z</time></trkpt><trkpt lat="43.526866690107546" lon="5.92732401402057"><ele>303.5</ele><time>2026-04-11T12:57:06.999Z</time></trkpt><trkpt lat="43.527005825523865" lon="5.927391229133308"><ele>304.0</ele><time>2026-04-11T12:57:07.999Z</time></trkpt><trkpt lat="43.52714441456947" lon="5.927502642486518"><ele>303.0</ele><time>2026-04-11T12:57:08.999Z</time></trkpt><trkpt lat="43.52729851516747" lon="5.927591125785766"><ele>302.0</ele><time>2026-04-11T12:57:09.999Z</time></trkpt><trkpt lat="43.52746315919858" lon="5.927654995101234"><ele>301.0</ele><time>2026-04-11T12:57:10.999Z</time></trkpt><trkpt lat="43.52762366691884" lon="5.927733992407551"><ele>301.0</ele><time>2026-04-11T12:57:11.999Z</time></trkpt><trkpt lat="43.52778975822883" lon="5.927810442570455"><ele>301.0</ele><time>2026-04-11T12:57:12.999Z</time></trkpt><trkpt lat="43.52794508699263" lon="5.927912096222308"><ele>301.0</ele><time>2026-04-11T12:57:13.999Z</time></trkpt><trkpt lat="43.528091814596536" lon="5.927988622084311"><ele>300.3333333333333</ele><time>2026-04-11T12:57:14.999Z</time></trkpt><trkpt lat="43.528239163158034" lon="5.928066576286443"><ele>299.6666666666667</ele><time>2026-04-11T12:57:15.999Z</time></trkpt><trkpt lat="43.52838929657079" lon="5.928146643070079"><ele>299.0</ele><time>2026-04-11T12:57:16.999Z</time></trkpt><trkpt lat="43.52856967717018" lon="5.928219779105137"><ele>299.6666666666667</ele><time>2026-04-11T12:57:17.999Z</time></trkpt><trkpt lat="43.528741334017276" lon="5.92831452901033"><ele>300.3333333333333</ele><time>2026-04-11T12:57:18.999Z</time></trkpt><trkpt lat="43.528901894228625" lon="5.928389033512478"><ele>301.0</ele><time>2026-04-11T12:57:19.999Z</time></trkpt><trkpt lat="43.52905061683198" lon="5.9284867486947475"><ele>301.0</ele><time>2026-04-11T12:57:20.999Z</time></trkpt><trkpt lat="43.52921613557857" lon="5.928577670363376"><ele>301.0</ele><time>2026-04-11T12:57:21.999Z</time></trkpt><trkpt lat="43.52939284385796" lon="5.928652932477456"><ele>301.0</ele><time>2026-04-11T12:57:22.999Z</time></trkpt><trkpt lat="43.529544081375924" lon="5.928741168053406"><ele>301.75</ele><time>2026-04-11T12:57:23.999Z</time></trkpt><trkpt lat="43.529682578551224" lon="5.928814998644488"><ele>302.5</ele><time>2026-04-11T12:57:24.999Z</time></trkpt><trkpt lat="43.52980369150743" lon="5.928898758890777"><ele>303.25</ele><time>2026-04-11T12:57:25.999Z</time></trkpt><trkpt lat="43.52991730494919" lon="5.92896588770082"><ele>304.0</ele><time>2026-04-11T12:57:27Z</time></trkpt><trkpt lat="43.53001386252469" lon="5.929019487774597"><ele>304.0</ele><time>2026-04-11T12:57:28Z</time></trkpt><trkpt lat="43.530082877689665" lon="5.929057045309075"><ele>304.0</ele><time>2026-04-11T12:57:29Z</time></trkpt><trkpt lat="43.530149493166014" lon="5.929092582168628"><ele>304.0</ele><time>2026-04-11T12:57:31Z</time></trkpt><trkpt lat="43.53021859393843" lon="5.928810862959869"><ele>304.0</ele><time>2026-04-11T12:57:33Z</time></trkpt><trkpt lat="43.53022394957301" lon="5.928677609793193"><ele>304.0</ele><time>2026-04-11T12:57:34Z</time></trkpt><trkpt lat="43.530255213450715" lon="5.928507873277726"><ele>304.0</ele><time>2026-04-11T12:57:35Z</time></trkpt><trkpt lat="43.53030149710135" lon="5.928333317294655"><ele>304.0</ele><time>2026-04-11T12:57:36Z</time></trkpt><trkpt lat="43.530332823317075" lon="5.92821556464875"><ele>304.0</ele><time>2026-04-11T12:57:37Z</time></trkpt><trkpt lat="43.53037216148161" lon="5.928109821112244"><ele>304.0</ele><time>2026-04-11T12:57:39Z</time></trkpt><trkpt lat="43.530454289715095" lon="5.928080516028821"><ele>306.0</ele><time>2026-04-11T12:57:41Z</time></trkpt><trkpt lat="43.530526081115376" lon="5.9281228195267"><ele>308.0</ele><time>2026-04-11T12:57:42Z</time></trkpt><trkpt lat="43.53062833716392" lon="5.928179519832714"><ele>310.0</ele><time>2026-04-11T12:57:43Z</time></trkpt><trkpt lat="43.53073501429855" lon="5.928205290325089"><ele>312.0</ele><time>2026-04-11T12:57:44Z</time></trkpt><trkpt lat="43.53085653415104" lon="5.928211772558801"><ele>314.0</ele><time>2026-04-11T12:57:45Z</time></trkpt><trkpt lat="43.53094978970122" lon="5.928222893110398"><ele>314.0</ele><time>2026-04-11T12:57:46Z</time></trkpt><trkpt lat="43.53102244768087" lon="5.92821987567507"><ele>314.0</ele><time>2026-04-11T12:57:47Z</time></trkpt><trkpt lat="43.53113624704242" lon="5.9282694312876325"><ele>314.0</ele><time>2026-04-11T12:57:49Z</time></trkpt><trkpt lat="43.53119038915558" lon="5.928342349208892"><ele>314.0</ele><time>2026-04-11T12:57:50Z</time></trkpt><trkpt lat="43.53126560538274" lon="5.928412318110298"><ele>314.0</ele><time>2026-04-11T12:57:51Z</time></trkpt><trkpt lat="43.53133449075197" lon="5.928454940595365"><ele>314.0</ele><time>2026-04-11T12:57:52Z</time></trkpt><trkpt lat="43.531423567679816" lon="5.928582908274226"><ele>314.8</ele><time>2026-04-11T12:57:54Z</time></trkpt><trkpt lat="43.53147285672882" lon="5.92867685250859"><ele>315.59999999999997</ele><time>2026-04-11T12:57:55Z</time></trkpt><trkpt lat="43.53151895664587" lon="5.928783321607369"><ele>316.4</ele><time>2026-04-11T12:57:56Z</time></trkpt><trkpt lat="43.53157448017846" lon="5.9289179050503"><ele>317.2</ele><time>2026-04-11T12:57:57Z</time></trkpt><trkpt lat="43.531643447617924" lon="5.9291045637301245"><ele>318.0</ele><time>2026-04-11T12:57:58Z</time></trkpt><trkpt lat="43.53172182477435" lon="5.929301665032298"><ele>318.0</ele><time>2026-04-11T12:57:59Z</time></trkpt><trkpt lat="43.531781817517846" lon="5.929448097749838"><ele>318.0</ele><time>2026-04-11T12:58:00Z</time></trkpt><trkpt lat="43.53181671243549" lon="5.929561676508552"><ele>318.0</ele><time>2026-04-11T12:58:01Z</time></trkpt><trkpt lat="43.531821017885356" lon="5.929648684667105"><ele>318.0</ele><time>2026-04-11T12:58:02Z</time></trkpt><trkpt lat="43.53179684097379" lon="5.929779174640658"><ele>318.0</ele><time>2026-04-11T12:58:04Z</time></trkpt><trkpt lat="43.531797505037034" lon="5.929888435648066"><ele>318.0</ele><time>2026-04-11T12:58:06Z</time></trkpt><trkpt lat="43.53184055822457" lon="5.930012497478801"><ele>318.0</ele><time>2026-04-11T12:58:09Z</time></trkpt><trkpt lat="43.53183881446038" lon="5.930197172910736"><ele>318.0</ele><time>2026-04-11T12:58:11Z</time></trkpt><trkpt lat="43.531818784069316" lon="5.930285843680927"><ele>318.0</ele><time>2026-04-11T12:58:12Z</time></trkpt><trkpt lat="43.53183224513226" lon="5.930461229083489"><ele>318.0</ele><time>2026-04-11T12:58:14Z</time></trkpt><trkpt lat="43.53185113695096" lon="5.93054769391069"><ele>318.0</ele><time>2026-04-11T12:58:15Z</time></trkpt><trkpt lat="43.53192347971209" lon="5.930676179384086"><ele>318.0</ele><time>2026-04-11T12:58:17Z</time></trkpt><trkpt lat="43.532027364238466" lon="5.93078498228258"><ele>318.0</ele><time>2026-04-11T12:58:19Z</time></trkpt><trkpt lat="43.53210194841733" lon="5.930846741141562"><ele>318.0</ele><time>2026-04-11T12:58:20Z</time></trkpt><trkpt lat="43.532171076021335" lon="5.930900402000873"><ele>318.0</ele><time>2026-04-11T12:58:21Z</time></trkpt><trkpt lat="43.532261656618665" lon="5.930964580527222"><ele>318.0</ele><time>2026-04-11T12:58:23Z</time></trkpt><trkpt lat="43.53232931688004" lon="5.930941007743952"><ele>318.0</ele><time>2026-04-11T12:58:25Z</time></trkpt><trkpt lat="43.532369657063" lon="5.930845319391804"><ele>318.0</ele><time>2026-04-11T12:58:28Z</time></trkpt><trkpt lat="43.532416078726186" lon="5.930780605759418"><ele>318.0</ele><time>2026-04-11T12:58:32Z</time></trkpt><trkpt lat="43.53244949755455" lon="5.930611748927159"><ele>318.0</ele><time>2026-04-11T12:58:48.999Z</time></trkpt><trkpt lat="43.5324655444135" lon="5.930507020917896"><ele>318.0</ele><time>2026-04-11T12:58:49.999Z</time></trkpt><trkpt lat="43.53247677037404" lon="5.930420056825199"><ele>318.0</ele><time>2026-04-11T12:58:50.999Z</time></trkpt><trkpt lat="43.53248872811638" lon="5.930323957992138"><ele>318.0</ele><time>2026-04-11T12:58:51.999Z</time></trkpt><trkpt lat="43.53251702162546" lon="5.930112535875827"><ele>318.0</ele><time>2026-04-11T12:58:53.999Z</time></trkpt><trkpt lat="43.532540223167466" lon="5.929972697872666"><ele>318.0</ele><time>2026-04-11T12:58:54.999Z</time></trkpt><trkpt lat="43.53256303671406" lon="5.929836078701113"><ele>318.0</ele><time>2026-04-11T12:58:55.999Z</time></trkpt><trkpt lat="43.53259396044672" lon="5.929734596974386"><ele>319.4</ele><time>2026-04-11T12:58:56.999Z</time></trkpt><trkpt lat="43.532638093600525" lon="5.929630844066005"><ele>320.8</ele><time>2026-04-11T12:58:57.999Z</time></trkpt><trkpt lat="43.5326774828699" lon="5.929523235465323"><ele>322.2</ele><time>2026-04-11T12:58:58.999Z</time></trkpt><trkpt lat="43.532734166151364" lon="5.929367664589542"><ele>323.6</ele><time>2026-04-11T12:59:00.999Z</time></trkpt><trkpt lat="43.532807711729475" lon="5.929297323830922"><ele>325.0</ele><time>2026-04-11T12:59:02.999Z</time></trkpt><trkpt lat="43.53294204843319" lon="5.929244084251589"><ele>326.5</ele><time>2026-04-11T12:59:04.999Z</time></trkpt><trkpt lat="43.53299616174341" lon="5.92919920362029"><ele>328.0</ele><time>2026-04-11T12:59:05.999Z</time></trkpt><trkpt lat="43.53309538138228" lon="5.929132197378519"><ele>329.5</ele><time>2026-04-11T12:59:07.999Z</time></trkpt><trkpt lat="43.53317249092019" lon="5.929104827764779"><ele>331.0</ele><time>2026-04-11T12:59:09.999Z</time></trkpt><trkpt lat="43.533220475485734" lon="5.928996552359707"><ele>332.5</ele><time>2026-04-11T12:59:26.999Z</time></trkpt><trkpt lat="43.533210534951266" lon="5.92888598500218"><ele>334.0</ele><time>2026-04-11T12:59:28.999Z</time></trkpt><trkpt lat="43.53319313334316" lon="5.928776950928928"><ele>334.0</ele><time>2026-04-11T12:59:29.999Z</time></trkpt><trkpt lat="43.53320320828866" lon="5.928669617679747"><ele>334.0</ele><time>2026-04-11T12:59:30.999Z</time></trkpt><trkpt lat="43.533217924175915" lon="5.928527686701172"><ele>334.0</ele><time>2026-04-11T12:59:33Z</time></trkpt><trkpt lat="43.53321663362851" lon="5.928352381017656"><ele>334.0</ele><time>2026-04-11T12:59:35Z</time></trkpt><trkpt lat="43.53323588878989" lon="5.928234149131029"><ele>334.0</ele><time>2026-04-11T12:59:36Z</time></trkpt><trkpt lat="43.53325755638876" lon="5.928109024524224"><ele>334.5</ele><time>2026-04-11T12:59:37Z</time></trkpt><trkpt lat="43.53327218615274" lon="5.928015719105674"><ele>335.0</ele><time>2026-04-11T12:59:38Z</time></trkpt><trkpt lat="43.533299714589226" lon="5.927926422691626"><ele>335.5</ele><time>2026-04-11T12:59:39Z</time></trkpt><trkpt lat="43.53333595434277" lon="5.927825402789463"><ele>336.0</ele><time>2026-04-11T12:59:40Z</time></trkpt><trkpt lat="43.533358497704256" lon="5.927737657832644"><ele>336.5</ele><time>2026-04-11T12:59:41Z</time></trkpt><trkpt lat="43.5334228662368" lon="5.927595233546848"><ele>337.0</ele><time>2026-04-11T12:59:43Z</time></trkpt><trkpt lat="43.533486316444254" lon="5.927522893657219"><ele>338.8</ele><time>2026-04-11T12:59:44Z</time></trkpt><trkpt lat="43.533551628256234" lon="5.92744740507786"><ele>340.6</ele><time>2026-04-11T12:59:45Z</time></trkpt><trkpt lat="43.533613978394015" lon="5.927377959560543"><ele>342.40000000000003</ele><time>2026-04-11T12:59:46Z</time></trkpt><trkpt lat="43.533665899144765" lon="5.927327271699577"><ele>344.20000000000005</ele><time>2026-04-11T12:59:47Z</time></trkpt><trkpt lat="43.53371780881658" lon="5.92721675417896"><ele>346.0</ele><time>2026-04-11T12:59:49Z</time></trkpt><trkpt lat="43.533794330586446" lon="5.927079529568949"><ele>347.0</ele><time>2026-04-11T12:59:51Z</time></trkpt><trkpt lat="43.53382370752222" lon="5.926978275612592"><ele>348.0</ele><time>2026-04-11T12:59:52Z</time></trkpt><trkpt lat="43.53385485852836" lon="5.9269005760038596"><ele>349.0</ele><time>2026-04-11T12:59:53Z</time></trkpt><trkpt lat="43.53386502515638" lon="5.926774536933554"><ele>350.0</ele><time>2026-04-11T12:59:55Z</time></trkpt><trkpt lat="43.533897598810405" lon="5.9266748026800755"><ele>351.0</ele><time>2026-04-11T12:59:57Z</time></trkpt><trkpt lat="43.53396451725024" lon="5.926619158608198"><ele>352.0</ele><time>2026-04-11T13:00:01Z</time></trkpt><trkpt lat="43.53408336997627" lon="5.926517908615216"><ele>352.0</ele><time>2026-04-11T13:00:03Z</time></trkpt><trkpt lat="43.53415270424887" lon="5.92648457075451"><ele>352.0</ele><time>2026-04-11T13:00:04Z</time></trkpt><trkpt lat="43.53424998197724" lon="5.9264319060062896"><ele>352.0</ele><time>2026-04-11T13:00:05Z</time></trkpt><trkpt lat="43.534346835980514" lon="5.926373434088218"><ele>352.0</ele><time>2026-04-11T13:00:06Z</time></trkpt><trkpt lat="43.53441318860364" lon="5.926317250173395"><ele>352.0</ele><time>2026-04-11T13:00:07Z</time></trkpt><trkpt lat="43.53447872894637" lon="5.926258161355404"><ele>352.0</ele><time>2026-04-11T13:00:08Z</time></trkpt><trkpt lat="43.53456175600191" lon="5.926170034478787"><ele>353.25</ele><time>2026-04-11T13:00:10Z</time></trkpt><trkpt lat="43.53458869993869" lon="5.926033657173228"><ele>354.5</ele><time>2026-04-11T13:00:13Z</time></trkpt><trkpt lat="43.5346152885197" lon="5.925827113392665"><ele>355.75</ele><time>2026-04-11T13:00:15Z</time></trkpt><trkpt lat="43.53464182287566" lon="5.92569625837069"><ele>357.0</ele><time>2026-04-11T13:00:16Z</time></trkpt><trkpt lat="43.53468030711303" lon="5.925548438898309"><ele>357.0</ele><time>2026-04-11T13:00:18Z</time></trkpt><trkpt lat="43.53473248260613" lon="5.925490148813546"><ele>357.0</ele><time>2026-04-11T13:00:20Z</time></trkpt><trkpt lat="43.53483570196203" lon="5.9254814630011925"><ele>357.0</ele><time>2026-04-11T13:00:22Z</time></trkpt><trkpt lat="43.534904605098184" lon="5.925519713461406"><ele>357.0</ele><time>2026-04-11T13:00:23Z</time></trkpt><trkpt lat="43.53499422755614" lon="5.9255514947667445"><ele>357.0</ele><time>2026-04-11T13:00:25Z</time></trkpt><trkpt lat="43.53510019273605" lon="5.925563310697316"><ele>357.0</ele><time>2026-04-11T13:00:27Z</time></trkpt><trkpt lat="43.53518313810349" lon="5.925556546830369"><ele>357.0</ele><time>2026-04-11T13:00:29Z</time></trkpt><trkpt lat="43.535293742739036" lon="5.925469132700921"><ele>357.0</ele><time>2026-04-11T13:00:31Z</time></trkpt><trkpt lat="43.53534285270415" lon="5.925405852892899"><ele>357.0</ele><time>2026-04-11T13:00:32Z</time></trkpt><trkpt lat="43.53538824867595" lon="5.9252782715102015"><ele>357.0</ele><time>2026-04-11T13:00:34Z</time></trkpt><trkpt lat="43.53543314889382" lon="5.925102949262198"><ele>357.0</ele><time>2026-04-11T13:00:36Z</time></trkpt><trkpt lat="43.53546344660025" lon="5.924997424419991"><ele>358.8333333333333</ele><time>2026-04-11T13:00:37Z</time></trkpt><trkpt lat="43.53549906138866" lon="5.924881234493796"><ele>360.6666666666667</ele><time>2026-04-11T13:00:38Z</time></trkpt><trkpt lat="43.53551323201488" lon="5.924780139180088"><ele>362.5</ele><time>2026-04-11T13:00:39Z</time></trkpt><trkpt lat="43.53551689114848" lon="5.924691361557939"><ele>364.33333333333337</ele><time>2026-04-11T13:00:40Z</time></trkpt><trkpt lat="43.53556150627545" lon="5.924583480475321"><ele>366.1666666666667</ele><time>2026-04-11T13:00:41.999Z</time></trkpt><trkpt lat="43.53564664478786" lon="5.924565381974909"><ele>368.0</ele><time>2026-04-11T13:00:43.999Z</time></trkpt><trkpt lat="43.53572852611271" lon="5.924551274983472"><ele>368.0</ele><time>2026-04-11T13:00:44.999Z</time></trkpt><trkpt lat="43.535826482942554" lon="5.924526259991627"><ele>368.0</ele><time>2026-04-11T13:00:45.999Z</time></trkpt><trkpt lat="43.53592361432398" lon="5.924506398019362"><ele>368.0</ele><time>2026-04-11T13:00:46.999Z</time></trkpt><trkpt lat="43.53598408996889" lon="5.9244780923242955"><ele>368.0</ele><time>2026-04-11T13:00:47.999Z</time></trkpt><trkpt lat="43.53607011513794" lon="5.924453134142925"><ele>368.0</ele><time>2026-04-11T13:00:50.999Z</time></trkpt><trkpt lat="43.53613145811084" lon="5.9244273815831825"><ele>368.0</ele><time>2026-04-11T13:00:52.999Z</time></trkpt><trkpt lat="43.5361983085958" lon="5.924349139072643"><ele>369.83333333333337</ele><time>2026-04-11T13:00:55.999Z</time></trkpt><trkpt lat="43.53628601370496" lon="5.9242192054996625"><ele>371.6666666666667</ele><time>2026-04-11T13:00:57.999Z</time></trkpt><trkpt lat="43.53632208396864" lon="5.924144435294646"><ele>373.5</ele><time>2026-04-11T13:00:58.999Z</time></trkpt><trkpt lat="43.53636030938277" lon="5.924043593248923"><ele>375.3333333333333</ele><time>2026-04-11T13:00:59.999Z</time></trkpt><trkpt lat="43.536414796859155" lon="5.923932224319203"><ele>377.16666666666663</ele><time>2026-04-11T13:01:00.999Z</time></trkpt><trkpt lat="43.53645129187116" lon="5.923849559438711"><ele>379.0</ele><time>2026-04-11T13:01:01.999Z</time></trkpt><trkpt lat="43.53652340056637" lon="5.923693454685384"><ele>379.0</ele><time>2026-04-11T13:01:03.999Z</time></trkpt><trkpt lat="43.53656196227344" lon="5.923601494418198"><ele>379.0</ele><time>2026-04-11T13:01:04.999Z</time></trkpt><trkpt lat="43.53661012627896" lon="5.923484181581026"><ele>379.0</ele><time>2026-04-11T13:01:05.999Z</time></trkpt><trkpt lat="43.53665711395491" lon="5.923407805702009"><ele>379.0</ele><time>2026-04-11T13:01:06.999Z</time></trkpt><trkpt lat="43.5367351570436" lon="5.923312877708125"><ele>379.0</ele><time>2026-04-11T13:01:08.999Z</time></trkpt><trkpt lat="43.53682700729873" lon="5.923237902649942"><ele>378.79999999999995</ele><time>2026-04-11T13:01:10.999Z</time></trkpt><trkpt lat="43.53690315072458" lon="5.92313398007346"><ele>378.59999999999997</ele><time>2026-04-11T13:01:12.999Z</time></trkpt><trkpt lat="43.5369720760803" lon="5.923032729524244"><ele>378.4</ele><time>2026-04-11T13:01:14.999Z</time></trkpt><trkpt lat="43.536996489237474" lon="5.922919494708787"><ele>378.2</ele><time>2026-04-11T13:01:17.999Z</time></trkpt><trkpt lat="43.53699579521171" lon="5.922810013422565"><ele>378.0</ele><time>2026-04-11T13:01:19.999Z</time></trkpt><trkpt lat="43.53701623348292" lon="5.922700721763701"><ele>378.8333333333333</ele><time>2026-04-11T13:01:20.999Z</time></trkpt><trkpt lat="43.537077619621314" lon="5.922581536718952"><ele>379.6666666666667</ele><time>2026-04-11T13:01:22.999Z</time></trkpt><trkpt lat="43.53713288287774" lon="5.922510322031205"><ele>380.5</ele><time>2026-04-11T13:01:23.999Z</time></trkpt><trkpt lat="43.53718926220618" lon="5.922443301371907"><ele>381.33333333333337</ele><time>2026-04-11T13:01:24.999Z</time></trkpt><trkpt lat="43.53724935486623" lon="5.9223825954488785"><ele>382.1666666666667</ele><time>2026-04-11T13:01:25.999Z</time></trkpt><trkpt lat="43.53730253611444" lon="5.922328158674025"><ele>383.0</ele><time>2026-04-11T13:01:26.999Z</time></trkpt><trkpt lat="43.53735995759325" lon="5.922267685219416"><ele>383.0</ele><time>2026-04-11T13:01:27.999Z</time></trkpt><trkpt lat="43.53742693983254" lon="5.922212676061731"><ele>383.0</ele><time>2026-04-11T13:01:28.999Z</time></trkpt><trkpt lat="43.537480653806526" lon="5.922156515621808"><ele>383.0</ele><time>2026-04-11T13:01:29.999Z</time></trkpt><trkpt lat="43.537552750523254" lon="5.922046013831828"><ele>383.0</ele><time>2026-04-11T13:01:31.999Z</time></trkpt><trkpt lat="43.53759808740491" lon="5.921972587802911"><ele>383.0</ele><time>2026-04-11T13:01:32.999Z</time></trkpt><trkpt lat="43.53764342586356" lon="5.921887806906428"><ele>383.0</ele><time>2026-04-11T13:01:33.999Z</time></trkpt><trkpt lat="43.53773690321453" lon="5.921776429468218"><ele>383.0</ele><time>2026-04-11T13:01:35.999Z</time></trkpt><trkpt lat="43.537811062178505" lon="5.921733853877508"><ele>383.0</ele><time>2026-04-11T13:01:37.999Z</time></trkpt><trkpt lat="43.53791397160567" lon="5.921705609238741"><ele>383.0</ele><time>2026-04-11T13:02:10Z</time></trkpt><trkpt lat="43.53799324919445" lon="5.921687759832814"><ele>383.0</ele><time>2026-04-11T13:02:11Z</time></trkpt><trkpt lat="43.538085294348186" lon="5.92168836552144"><ele>383.0</ele><time>2026-04-11T13:02:12Z</time></trkpt><trkpt lat="43.53819547768748" lon="5.921659607568106"><ele>383.79999999999995</ele><time>2026-04-11T13:02:14Z</time></trkpt><trkpt lat="43.53825941932391" lon="5.921641923557214"><ele>384.6</ele><time>2026-04-11T13:02:16Z</time></trkpt><trkpt lat="43.538353858021715" lon="5.921611875943112"><ele>385.4</ele><time>2026-04-11T13:02:18Z</time></trkpt><trkpt lat="43.53843702035119" lon="5.9215397197670825"><ele>386.20000000000005</ele><time>2026-04-11T13:02:20Z</time></trkpt><trkpt lat="43.538536220660234" lon="5.921463762184702"><ele>387.0</ele><time>2026-04-11T13:02:22Z</time></trkpt><trkpt lat="43.538609674831214" lon="5.921382534667291"><ele>387.0</ele><time>2026-04-11T13:02:24Z</time></trkpt><trkpt lat="43.538671276283175" lon="5.921282218895319"><ele>387.0</ele><time>2026-04-11T13:02:26Z</time></trkpt><trkpt lat="43.538703130150644" lon="5.921202126757886"><ele>387.0</ele><time>2026-04-11T13:02:28Z</time></trkpt><trkpt lat="43.53878562865666" lon="5.921097281719157"><ele>387.0</ele><time>2026-04-11T13:02:29Z</time></trkpt><trkpt lat="43.53879228409755" lon="5.920963970971861"><ele>387.0</ele><time>2026-04-11T13:02:32Z</time></trkpt><trkpt lat="43.53874780211055" lon="5.920790660783716"><ele>388.20000000000005</ele><time>2026-04-11T13:02:33.999Z</time></trkpt><trkpt lat="43.53870006399296" lon="5.9206443911007085"><ele>389.4</ele><time>2026-04-11T13:02:35.999Z</time></trkpt><trkpt lat="43.53872463114561" lon="5.920537797639503"><ele>390.6</ele><time>2026-04-11T13:02:37.999Z</time></trkpt><trkpt lat="43.53876177295897" lon="5.920442429081924"><ele>391.79999999999995</ele><time>2026-04-11T13:02:38.999Z</time></trkpt><trkpt lat="43.5388048994774" lon="5.9203641073449536"><ele>393.0</ele><time>2026-04-11T13:02:39.999Z</time></trkpt><trkpt lat="43.538883940824554" lon="5.920238567778393"><ele>393.4</ele><time>2026-04-11T13:02:41.999Z</time></trkpt><trkpt lat="43.5389447134728" lon="5.920129571592141"><ele>393.79999999999995</ele><time>2026-04-11T13:02:43.999Z</time></trkpt><trkpt lat="43.538974605657344" lon="5.920030251179808"><ele>394.2</ele><time>2026-04-11T13:02:46.999Z</time></trkpt><trkpt lat="43.53899629522113" lon="5.91994716783116"><ele>394.6</ele><time>2026-04-11T13:02:48.999Z</time></trkpt><trkpt lat="43.539041137765636" lon="5.9198054519313645"><ele>395.0</ele><time>2026-04-11T13:03:40.999Z</time></trkpt><trkpt lat="43.53907879097174" lon="5.919667109015816"><ele>395.6</ele><time>2026-04-11T13:03:42.999Z</time></trkpt><trkpt lat="43.5390997456038" lon="5.919501098755293"><ele>396.2</ele><time>2026-04-11T13:03:45Z</time></trkpt><trkpt lat="43.53914185106397" lon="5.9193724810949275"><ele>396.79999999999995</ele><time>2026-04-11T13:03:47Z</time></trkpt><trkpt lat="43.539177126121274" lon="5.919245780795211"><ele>397.4</ele><time>2026-04-11T13:03:49Z</time></trkpt><trkpt lat="43.539224746855155" lon="5.919167582814624"><ele>398.0</ele><time>2026-04-11T13:03:52Z</time></trkpt><trkpt lat="43.539280846715684" lon="5.919098809854795"><ele>398.49999999999994</ele><time>2026-04-11T13:03:54Z</time></trkpt><trkpt lat="43.539344052593094" lon="5.919002897000318"><ele>399.0</ele><time>2026-04-11T13:03:56Z</time></trkpt><trkpt lat="43.539398487710336" lon="5.918871180135808"><ele>399.5</ele><time>2026-04-11T13:03:58Z</time></trkpt><trkpt lat="43.539436307310176" lon="5.918771390085429"><ele>400.0</ele><time>2026-04-11T13:03:59Z</time></trkpt><trkpt lat="43.53945829659234" lon="5.9186588095471135"><ele>400.49999999999994</ele><time>2026-04-11T13:04:01Z</time></trkpt><trkpt lat="43.539441611757766" lon="5.918567713665388"><ele>401.0</ele><time>2026-04-11T13:04:03Z</time></trkpt><trkpt lat="43.53944694809724" lon="5.918430775296047"><ele>401.8333333333333</ele><time>2026-04-11T13:04:05Z</time></trkpt><trkpt lat="43.53947117167648" lon="5.918300104851417"><ele>402.66666666666663</ele><time>2026-04-11T13:04:07Z</time></trkpt><trkpt lat="43.5394623310266" lon="5.918210121859846"><ele>403.5</ele><time>2026-04-11T13:04:08Z</time></trkpt><trkpt lat="43.53947312865728" lon="5.918059387960248"><ele>404.33333333333337</ele><time>2026-04-11T13:04:10Z</time></trkpt><trkpt lat="43.539459147923566" lon="5.917967488506479"><ele>405.1666666666667</ele><time>2026-04-11T13:04:11Z</time></trkpt><trkpt lat="43.539411196337674" lon="5.9178817259302585"><ele>406.0</ele><time>2026-04-11T13:04:14Z</time></trkpt><trkpt lat="43.539377675150796" lon="5.917768392953303"><ele>406.00000000000006</ele><time>2026-04-11T13:04:16Z</time></trkpt><trkpt lat="43.53929244790766" lon="5.917656721328644"><ele>406.0</ele><time>2026-04-11T13:04:18Z</time></trkpt><trkpt lat="43.53925743652483" lon="5.917568279094687"><ele>406.0</ele><time>2026-04-11T13:04:20Z</time></trkpt><trkpt lat="43.539233883088485" lon="5.917478927829282"><ele>406.0</ele><time>2026-04-11T13:04:22Z</time></trkpt><trkpt lat="43.53919107801797" lon="5.9173721968784605"><ele>406.00000000000006</ele><time>2026-04-11T13:04:24Z</time></trkpt><trkpt lat="43.53912469384827" lon="5.9172917325453955"><ele>406.0</ele><time>2026-04-11T13:04:26Z</time></trkpt><trkpt lat="43.53902942476189" lon="5.917268273296997"><ele>406.20000000000005</ele><time>2026-04-11T13:04:29Z</time></trkpt><trkpt lat="43.538891370999536" lon="5.917238676611308"><ele>406.40000000000003</ele><time>2026-04-11T13:04:30.999Z</time></trkpt><trkpt lat="43.53883121614624" lon="5.917203092147528"><ele>406.6</ele><time>2026-04-11T13:04:31.999Z</time></trkpt><trkpt lat="43.53875284091103" lon="5.91713750751671"><ele>406.8</ele><time>2026-04-11T13:04:33.999Z</time></trkpt><trkpt lat="43.538717775930714" lon="5.91699908060955"><ele>407.0</ele><time>2026-04-11T13:04:35.999Z</time></trkpt><trkpt lat="43.53865351841936" lon="5.9168304210752245"><ele>409.20000000000005</ele><time>2026-04-11T13:04:37.999Z</time></trkpt><trkpt lat="43.538636716893826" lon="5.916744564713653"><ele>411.4</ele><time>2026-04-11T13:04:38.999Z</time></trkpt><trkpt lat="43.53859512963777" lon="5.916650448843275"><ele>413.6</ele><time>2026-04-11T13:04:39.999Z</time></trkpt><trkpt lat="43.538558253050695" lon="5.916510675739964"><ele>415.79999999999995</ele><time>2026-04-11T13:04:41.999Z</time></trkpt><trkpt lat="43.538537475438524" lon="5.916346988187559"><ele>418.0</ele><time>2026-04-11T13:04:43.999Z</time></trkpt><trkpt lat="43.53855821715853" lon="5.916223837061031"><ele>418.2</ele><time>2026-04-11T13:04:45.999Z</time></trkpt><trkpt lat="43.53860196060895" lon="5.916094593006814"><ele>418.4</ele><time>2026-04-11T13:04:47.999Z</time></trkpt><trkpt lat="43.53865961503516" lon="5.916010656260185"><ele>418.59999999999997</ele><time>2026-04-11T13:04:49.999Z</time></trkpt><trkpt lat="43.53872500190667" lon="5.915956065111157"><ele>418.79999999999995</ele><time>2026-04-11T13:04:50.999Z</time></trkpt><trkpt lat="43.538825740156774" lon="5.915910558839531"><ele>419.0</ele><time>2026-04-11T13:04:52.999Z</time></trkpt><trkpt lat="43.538907321856996" lon="5.915880585881891"><ele>419.0</ele><time>2026-04-11T13:04:54.999Z</time></trkpt><trkpt lat="43.538964746179" lon="5.915841526626821"><ele>419.0</ele><time>2026-04-11T13:04:55.999Z</time></trkpt><trkpt lat="43.53906143893348" lon="5.915753916066232"><ele>419.0</ele><time>2026-04-11T13:04:57.999Z</time></trkpt><trkpt lat="43.539119021846176" lon="5.915684589901511"><ele>419.0</ele><time>2026-04-11T13:04:59.999Z</time></trkpt><trkpt lat="43.53917613543233" lon="5.915571687178761"><ele>419.0</ele><time>2026-04-11T13:05:01.999Z</time></trkpt><trkpt lat="43.53923098227823" lon="5.91542006610548"><ele>419.0</ele><time>2026-04-11T13:05:03.999Z</time></trkpt><trkpt lat="43.539262344154814" lon="5.915292791616464"><ele>419.0</ele><time>2026-04-11T13:05:05.999Z</time></trkpt><trkpt lat="43.53929490238595" lon="5.915142830113334"><ele>419.0</ele><time>2026-04-11T13:05:07.999Z</time></trkpt><trkpt lat="43.53931795536813" lon="5.9150076404451815"><ele>419.0</ele><time>2026-04-11T13:05:09.999Z</time></trkpt><trkpt lat="43.53935699243947" lon="5.914870178804974"><ele>419.0</ele><time>2026-04-11T13:05:11.999Z</time></trkpt><trkpt lat="43.539382863324214" lon="5.914753821883276"><ele>419.3333333333333</ele><time>2026-04-11T13:05:13.999Z</time></trkpt><trkpt lat="43.53942819962511" lon="5.9146716263099375"><ele>419.66666666666663</ele><time>2026-04-11T13:05:16.999Z</time></trkpt><trkpt lat="43.5394865808271" lon="5.9146151608195074"><ele>420.0</ele><time>2026-04-11T13:05:18.999Z</time></trkpt><trkpt lat="43.53957530108161" lon="5.914502134615516"><ele>420.33333333333337</ele><time>2026-04-11T13:05:20.999Z</time></trkpt><trkpt lat="43.539650597983766" lon="5.914438494419372"><ele>420.6666666666667</ele><time>2026-04-11T13:05:21.999Z</time></trkpt><trkpt lat="43.53971220815559" lon="5.9143950938444565"><ele>421.0</ele><time>2026-04-11T13:05:22.999Z</time></trkpt><trkpt lat="43.539799011218214" lon="5.914296325823407"><ele>421.50000000000006</ele><time>2026-04-11T13:05:24.999Z</time></trkpt><trkpt lat="43.539857322017006" lon="5.914241756469744"><ele>422.0</ele><time>2026-04-11T13:05:25.999Z</time></trkpt><trkpt lat="43.53991313851912" lon="5.914192152677136"><ele>422.5</ele><time>2026-04-11T13:05:26.999Z</time></trkpt><trkpt lat="43.539969301454846" lon="5.914151532984582"><ele>423.0</ele><time>2026-04-11T13:05:27.999Z</time></trkpt><trkpt lat="43.540034982893914" lon="5.9140997161592415"><ele>423.50000000000006</ele><time>2026-04-11T13:05:28.999Z</time></trkpt><trkpt lat="43.54012057360602" lon="5.9140711965011175"><ele>424.0</ele><time>2026-04-11T13:05:30.999Z</time></trkpt><trkpt lat="43.54022563084558" lon="5.91397368010554"><ele>424.0</ele><time>2026-04-11T13:05:32.999Z</time></trkpt><trkpt lat="43.54031420544611" lon="5.913886710244337"><ele>424.0</ele><time>2026-04-11T13:05:34.999Z</time></trkpt><trkpt lat="43.54038061047324" lon="5.913862982794832"><ele>424.0</ele><time>2026-04-11T13:05:36.999Z</time></trkpt><trkpt lat="43.54044039021386" lon="5.913798213518488"><ele>424.0</ele><time>2026-04-11T13:05:39.999Z</time></trkpt><trkpt lat="43.54054181338812" lon="5.913778171875495"><ele>424.0</ele><time>2026-04-11T13:05:41.999Z</time></trkpt><trkpt lat="43.54065274239526" lon="5.913690831583663"><ele>424.6</ele><time>2026-04-11T13:05:43.999Z</time></trkpt><trkpt lat="43.540718382462686" lon="5.913602092005885"><ele>425.2</ele><time>2026-04-11T13:05:45.999Z</time></trkpt><trkpt lat="43.540845788744235" lon="5.913494359147086"><ele>425.80000000000007</ele><time>2026-04-11T13:05:47.999Z</time></trkpt><trkpt lat="43.54092650332394" lon="5.913433787334572"><ele>426.40000000000003</ele><time>2026-04-11T13:05:48.999Z</time></trkpt><trkpt lat="43.54098908846476" lon="5.913389488693524"><ele>427.0</ele><time>2026-04-11T13:05:49.999Z</time></trkpt><trkpt lat="43.54107369494473" lon="5.9133511559411"><ele>427.0</ele><time>2026-04-11T13:05:52Z</time></trkpt><trkpt lat="43.54116859179034" lon="5.913313731549876"><ele>427.00000000000006</ele><time>2026-04-11T13:05:54Z</time></trkpt><trkpt lat="43.54123595216333" lon="5.913272988053198"><ele>427.00000000000006</ele><time>2026-04-11T13:05:56Z</time></trkpt><trkpt lat="43.541320419239455" lon="5.913216683378308"><ele>427.0</ele><time>2026-04-11T13:05:58Z</time></trkpt><trkpt lat="43.54139707604176" lon="5.913168039053332"><ele>427.0</ele><time>2026-04-11T13:05:59Z</time></trkpt><trkpt lat="43.54150068595618" lon="5.913112362906496"><ele>427.6</ele><time>2026-04-11T13:06:01Z</time></trkpt><trkpt lat="43.54159987792758" lon="5.913050506239018"><ele>428.20000000000005</ele><time>2026-04-11T13:06:03Z</time></trkpt><trkpt lat="43.54167521622193" lon="5.912999372753485"><ele>428.8</ele><time>2026-04-11T13:06:05Z</time></trkpt><trkpt lat="43.54175098095589" lon="5.912922546813715"><ele>429.4</ele><time>2026-04-11T13:06:07Z</time></trkpt><trkpt lat="43.541769685333826" lon="5.912833739728531"><ele>430.0</ele><time>2026-04-11T13:12:14Z</time></trkpt><trkpt lat="43.5418395394519" lon="5.912705212760957"><ele>430.00000000000006</ele><time>2026-04-11T13:14:25Z</time></trkpt><trkpt lat="43.54187078949718" lon="5.912627596170739"><ele>430.0</ele><time>2026-04-11T13:14:26Z</time></trkpt><trkpt lat="43.541911949760426" lon="5.912526955596825"><ele>430.0</ele><time>2026-04-11T13:14:27Z</time></trkpt><trkpt lat="43.54197526744918" lon="5.912432124067781"><ele>430.0</ele><time>2026-04-11T13:14:28Z</time></trkpt><trkpt lat="43.54202106626333" lon="5.912349931118253"><ele>430.00000000000006</ele><time>2026-04-11T13:14:29Z</time></trkpt><trkpt lat="43.54208267595405" lon="5.912217593649141"><ele>430.0</ele><time>2026-04-11T13:14:31Z</time></trkpt><trkpt lat="43.5421176449759" lon="5.91212024538467"><ele>431.1666666666667</ele><time>2026-04-11T13:14:32Z</time></trkpt><trkpt lat="43.542163950560465" lon="5.911996852477339"><ele>432.33333333333337</ele><time>2026-04-11T13:14:33Z</time></trkpt><trkpt lat="43.5421974639734" lon="5.911907085050746"><ele>433.5</ele><time>2026-04-11T13:14:34Z</time></trkpt><trkpt lat="43.542246388591195" lon="5.911836665273191"><ele>434.66666666666663</ele><time>2026-04-11T13:14:35Z</time></trkpt><trkpt lat="43.54231929792483" lon="5.911773876908498"><ele>435.8333333333333</ele><time>2026-04-11T13:14:36Z</time></trkpt><trkpt lat="43.54239363254912" lon="5.911713333760122"><ele>437.0</ele><time>2026-04-11T13:14:37Z</time></trkpt><trkpt lat="43.542438808545164" lon="5.911621378439679"><ele>437.0</ele><time>2026-04-11T13:14:38Z</time></trkpt><trkpt lat="43.54248185873263" lon="5.911524772508839"><ele>437.00000000000006</ele><time>2026-04-11T13:14:39Z</time></trkpt><trkpt lat="43.54253519308305" lon="5.911451630959273"><ele>437.00000000000006</ele><time>2026-04-11T13:14:40Z</time></trkpt><trkpt lat="43.54262525141692" lon="5.911375813369377"><ele>437.0</ele><time>2026-04-11T13:14:41Z</time></trkpt><trkpt lat="43.54272712429273" lon="5.911254661453257"><ele>437.0</ele><time>2026-04-11T13:14:42Z</time></trkpt><trkpt lat="43.542822214953226" lon="5.911122850163333"><ele>437.8</ele><time>2026-04-11T13:14:43Z</time></trkpt><trkpt lat="43.54289114380794" lon="5.911028530386613"><ele>438.6</ele><time>2026-04-11T13:14:44Z</time></trkpt><trkpt lat="43.542959934463724" lon="5.910955070353877"><ele>439.40000000000003</ele><time>2026-04-11T13:14:45Z</time></trkpt><trkpt lat="43.54302508332154" lon="5.910874435159871"><ele>440.20000000000005</ele><time>2026-04-11T13:14:46Z</time></trkpt><trkpt lat="43.543076754825094" lon="5.910756415608681"><ele>441.0</ele><time>2026-04-11T13:14:47Z</time></trkpt><trkpt lat="43.5431215103003" lon="5.910617079241704"><ele>441.20000000000005</ele><time>2026-04-11T13:14:48Z</time></trkpt><trkpt lat="43.54316251619559" lon="5.910512933413688"><ele>441.40000000000003</ele><time>2026-04-11T13:14:49Z</time></trkpt><trkpt lat="43.54319773381824" lon="5.9104233350647934"><ele>441.6</ele><time>2026-04-11T13:14:50Z</time></trkpt><trkpt lat="43.54324996970295" lon="5.910324855233391"><ele>441.8</ele><time>2026-04-11T13:14:51Z</time></trkpt><trkpt lat="43.5433260911665" lon="5.910206940957649"><ele>442.0</ele><time>2026-04-11T13:14:52Z</time></trkpt><trkpt lat="43.54341835928178" lon="5.910072619741977"><ele>442.0</ele><time>2026-04-11T13:14:53Z</time></trkpt><trkpt lat="43.54351613511465" lon="5.909935279366198"><ele>442.0</ele><time>2026-04-11T13:14:54Z</time></trkpt><trkpt lat="43.543588090311914" lon="5.9098099172417315"><ele>442.0</ele><time>2026-04-11T13:14:55Z</time></trkpt><trkpt lat="43.543634086688286" lon="5.909686990144493"><ele>442.0</ele><time>2026-04-11T13:14:56Z</time></trkpt><trkpt lat="43.543691804761046" lon="5.909508822707368"><ele>442.0</ele><time>2026-04-11T13:14:57Z</time></trkpt><trkpt lat="43.543757993304595" lon="5.909315215095982"><ele>442.0</ele><time>2026-04-11T13:14:58Z</time></trkpt><trkpt lat="43.54381466235229" lon="5.909160208800201"><ele>442.0</ele><time>2026-04-11T13:14:59Z</time></trkpt><trkpt lat="43.54386636470335" lon="5.90903205978802"><ele>442.0</ele><time>2026-04-11T13:15:00Z</time></trkpt><trkpt lat="43.54392027369063" lon="5.908928755274946"><ele>442.1666666666667</ele><time>2026-04-11T13:15:01Z</time></trkpt><trkpt lat="43.54398163834264" lon="5.908851330274734"><ele>442.33333333333337</ele><time>2026-04-11T13:15:02Z</time></trkpt><trkpt lat="43.544037744463466" lon="5.908773827667281"><ele>442.5</ele><time>2026-04-11T13:15:03Z</time></trkpt><trkpt lat="43.54407105667696" lon="5.908678885816933"><ele>442.66666666666663</ele><time>2026-04-11T13:15:04Z</time></trkpt><trkpt lat="43.54408818427238" lon="5.90858718217697"><ele>442.8333333333333</ele><time>2026-04-11T13:15:05Z</time></trkpt><trkpt lat="43.54410686474711" lon="5.908503946485066"><ele>443.0</ele><time>2026-04-11T13:15:06Z</time></trkpt><trkpt lat="43.544182810966184" lon="5.908383556645"><ele>443.2</ele><time>2026-04-11T13:15:08Z</time></trkpt><trkpt lat="43.54425179796984" lon="5.908351390401823"><ele>443.4</ele><time>2026-04-11T13:15:09Z</time></trkpt><trkpt lat="43.54434872235095" lon="5.9083150525526085"><ele>443.59999999999997</ele><time>2026-04-11T13:15:10Z</time></trkpt><trkpt lat="43.544471177171545" lon="5.908273109995389"><ele>443.79999999999995</ele><time>2026-04-11T13:15:11Z</time></trkpt><trkpt lat="43.54461269825538" lon="5.908220146643493"><ele>444.0</ele><time>2026-04-11T13:15:12Z</time></trkpt><trkpt lat="43.544754070467796" lon="5.908164723955546"><ele>443.5</ele><time>2026-04-11T13:15:13Z</time></trkpt><trkpt lat="43.54486823419699" lon="5.908114607471279"><ele>443.0</ele><time>2026-04-11T13:15:14Z</time></trkpt><trkpt lat="43.54497266542711" lon="5.908075192263415"><ele>442.5</ele><time>2026-04-11T13:15:15Z</time></trkpt><trkpt lat="43.54509215283591" lon="5.908040978895976"><ele>442.0</ele><time>2026-04-11T13:15:16Z</time></trkpt><trkpt lat="43.54522398079148" lon="5.90799955021365"><ele>442.0</ele><time>2026-04-11T13:15:17Z</time></trkpt><trkpt lat="43.54533886692541" lon="5.907970595000102"><ele>442.0</ele><time>2026-04-11T13:15:18Z</time></trkpt><trkpt lat="43.5454453182253" lon="5.90794202294511"><ele>442.0</ele><time>2026-04-11T13:15:19Z</time></trkpt><trkpt lat="43.54556663943146" lon="5.907913280351683"><ele>442.0</ele><time>2026-04-11T13:15:20Z</time></trkpt><trkpt lat="43.54570000633545" lon="5.907854994797184"><ele>441.5</ele><time>2026-04-11T13:15:21Z</time></trkpt><trkpt lat="43.545812815126204" lon="5.907790219693179"><ele>441.0</ele><time>2026-04-11T13:15:22Z</time></trkpt><trkpt lat="43.54592476563414" lon="5.907724757627756"><ele>440.5</ele><time>2026-04-11T13:15:23Z</time></trkpt><trkpt lat="43.546062713618184" lon="5.907628651760257"><ele>440.0</ele><time>2026-04-11T13:15:24Z</time></trkpt><trkpt lat="43.546218619147375" lon="5.907544760190435"><ele>440.0</ele><time>2026-04-11T13:15:25Z</time></trkpt><trkpt lat="43.54635666283428" lon="5.907477063935938"><ele>440.0</ele><time>2026-04-11T13:15:26Z</time></trkpt><trkpt lat="43.546470897541155" lon="5.907414271918603"><ele>440.0</ele><time>2026-04-11T13:15:27Z</time></trkpt><trkpt lat="43.546580591273965" lon="5.907358340060794"><ele>440.0</ele><time>2026-04-11T13:15:28Z</time></trkpt><trkpt lat="43.54668878324036" lon="5.907311826942499"><ele>440.0</ele><time>2026-04-11T13:15:29Z</time></trkpt><trkpt lat="43.54680010407207" lon="5.90726389873818"><ele>440.0</ele><time>2026-04-11T13:15:30Z</time></trkpt><trkpt lat="43.54690571376539" lon="5.907224479302242"><ele>440.0</ele><time>2026-04-11T13:15:31Z</time></trkpt><trkpt lat="43.54700584037321" lon="5.907189589180503"><ele>440.0</ele><time>2026-04-11T13:15:32Z</time></trkpt><trkpt lat="43.54710763217235" lon="5.90715394611114"><ele>440.0</ele><time>2026-04-11T13:15:33Z</time></trkpt><trkpt lat="43.547215383089366" lon="5.907109064854619"><ele>439.0</ele><time>2026-04-11T13:15:34Z</time></trkpt><trkpt lat="43.54732141704294" lon="5.9070763666704496"><ele>438.0</ele><time>2026-04-11T13:15:35Z</time></trkpt><trkpt lat="43.547419496860016" lon="5.907056018328817"><ele>437.0</ele><time>2026-04-11T13:15:36Z</time></trkpt><trkpt lat="43.547509854402364" lon="5.9070230271424595"><ele>436.0</ele><time>2026-04-11T13:15:37Z</time></trkpt><trkpt lat="43.54759813849769" lon="5.906973729282085"><ele>435.0</ele><time>2026-04-11T13:15:38Z</time></trkpt><trkpt lat="43.54765972551565" lon="5.90693984039503"><ele>435.0</ele><time>2026-04-11T13:15:39Z</time></trkpt><trkpt lat="43.54772172980914" lon="5.906974267792136"><ele>435.0</ele><time>2026-04-11T13:15:43Z</time></trkpt><trkpt lat="43.54779549531571" lon="5.907088582913082"><ele>435.0</ele><time>2026-04-11T13:15:45Z</time></trkpt><trkpt lat="43.547870197308185" lon="5.907176956096796"><ele>435.0</ele><time>2026-04-11T13:15:46Z</time></trkpt><trkpt lat="43.54796242271966" lon="5.907279435025541"><ele>435.0</ele><time>2026-04-11T13:15:47Z</time></trkpt><trkpt lat="43.54806945446592" lon="5.907406897725993"><ele>434.33333333333337</ele><time>2026-04-11T13:15:48Z</time></trkpt><trkpt lat="43.54819359106249" lon="5.9075580970173975"><ele>433.6666666666667</ele><time>2026-04-11T13:15:49Z</time></trkpt><trkpt lat="43.54831928741522" lon="5.907736105135308"><ele>433.0</ele><time>2026-04-11T13:15:50Z</time></trkpt><trkpt lat="43.5484324249572" lon="5.9079068591834805"><ele>433.4</ele><time>2026-04-11T13:15:51Z</time></trkpt><trkpt lat="43.54851903350218" lon="5.90804294474423"><ele>433.79999999999995</ele><time>2026-04-11T13:15:52Z</time></trkpt><trkpt lat="43.54859304999242" lon="5.908163656237317"><ele>434.2</ele><time>2026-04-11T13:15:53Z</time></trkpt><trkpt lat="43.54864465641587" lon="5.908279285049644"><ele>434.6</ele><time>2026-04-11T13:15:54Z</time></trkpt><trkpt lat="43.54870059063412" lon="5.90836922947832"><ele>435.0</ele><time>2026-04-11T13:15:55Z</time></trkpt><trkpt lat="43.54879057768185" lon="5.908430999035509"><ele>435.0</ele><time>2026-04-11T13:15:56Z</time></trkpt><trkpt lat="43.54891232400043" lon="5.908479591056645"><ele>435.0</ele><time>2026-04-11T13:15:57Z</time></trkpt><trkpt lat="43.549051031567956" lon="5.90852943955348"><ele>435.0</ele><time>2026-04-11T13:15:58Z</time></trkpt><trkpt lat="43.549157393909475" lon="5.908590872577555"><ele>435.0</ele><time>2026-04-11T13:15:59Z</time></trkpt><trkpt lat="43.54925220507529" lon="5.908653763599931"><ele>435.0</ele><time>2026-04-11T13:16:00Z</time></trkpt><trkpt lat="43.549337085465005" lon="5.908722611363512"><ele>435.0</ele><time>2026-04-11T13:16:01Z</time></trkpt><trkpt lat="43.54940275370355" lon="5.908805542298599"><ele>435.0</ele><time>2026-04-11T13:16:02Z</time></trkpt><trkpt lat="43.54946697399297" lon="5.908901546002499"><ele>435.0</ele><time>2026-04-11T13:16:03Z</time></trkpt><trkpt lat="43.5495202992357" lon="5.908948014592589"><ele>435.0</ele><time>2026-04-11T13:16:05Z</time></trkpt><trkpt lat="43.54958329210928" lon="5.908878001647612"><ele>435.0</ele><time>2026-04-11T13:16:08Z</time></trkpt><trkpt lat="43.549701985725065" lon="5.90899632621845"><ele>434.8</ele><time>2026-04-11T13:16:10Z</time></trkpt><trkpt lat="43.549772450676905" lon="5.909104985533512"><ele>434.6</ele><time>2026-04-11T13:16:11Z</time></trkpt><trkpt lat="43.54985270969411" lon="5.909208669696581"><ele>434.4</ele><time>2026-04-11T13:16:12Z</time></trkpt><trkpt lat="43.54992015541656" lon="5.9092954897654595"><ele>434.2</ele><time>2026-04-11T13:16:13Z</time></trkpt><trkpt lat="43.550005100992934" lon="5.90936742053173"><ele>434.0</ele><time>2026-04-11T13:16:14Z</time></trkpt><trkpt lat="43.55012018466768" lon="5.909401201905307"><ele>435.0</ele><time>2026-04-11T13:16:15Z</time></trkpt><trkpt lat="43.550251160698565" lon="5.9094404777845195"><ele>436.0</ele><time>2026-04-11T13:16:16Z</time></trkpt><trkpt lat="43.550373234290824" lon="5.909516306680785"><ele>437.0</ele><time>2026-04-11T13:16:17Z</time></trkpt><trkpt lat="43.55047147202143" lon="5.909579554593864"><ele>438.0</ele><time>2026-04-11T13:16:18Z</time></trkpt><trkpt lat="43.55058411043998" lon="5.90960812439749"><ele>438.75</ele><time>2026-04-11T13:16:19Z</time></trkpt><trkpt lat="43.5507158240771" lon="5.909611252794122"><ele>439.5</ele><time>2026-04-11T13:16:20Z</time></trkpt><trkpt lat="43.550846717195036" lon="5.909600628488967"><ele>440.25</ele><time>2026-04-11T13:16:21Z</time></trkpt><trkpt lat="43.550953088466166" lon="5.909587032574279"><ele>441.0</ele><time>2026-04-11T13:16:22Z</time></trkpt><trkpt lat="43.5510543506451" lon="5.909579017922104"><ele>441.0</ele><time>2026-04-11T13:16:23Z</time></trkpt><trkpt lat="43.55116901439539" lon="5.909581248719185"><ele>441.0</ele><time>2026-04-11T13:16:24Z</time></trkpt><trkpt lat="43.551269057310044" lon="5.909597661986841"><ele>441.0</ele><time>2026-04-11T13:16:25Z</time></trkpt><trkpt lat="43.55136419416665" lon="5.90959680234192"><ele>441.0</ele><time>2026-04-11T13:16:26Z</time></trkpt><trkpt lat="43.551448537653066" lon="5.909582231396841"><ele>441.0</ele><time>2026-04-11T13:16:27Z</time></trkpt><trkpt lat="43.551513755544235" lon="5.909595567205854"><ele>441.4</ele><time>2026-04-11T13:16:28Z</time></trkpt><trkpt lat="43.551571763828186" lon="5.909645006894121"><ele>441.8</ele><time>2026-04-11T13:16:29Z</time></trkpt><trkpt lat="43.55163262807902" lon="5.909727634095375"><ele>442.19999999999993</ele><time>2026-04-11T13:16:30Z</time></trkpt><trkpt lat="43.55171153088147" lon="5.909806015961676"><ele>442.59999999999997</ele><time>2026-04-11T13:16:31Z</time></trkpt><trkpt lat="43.55181239858547" lon="5.90986113548103"><ele>443.0</ele><time>2026-04-11T13:16:32Z</time></trkpt><trkpt lat="43.55190969620431" lon="5.909889980795484"><ele>443.0</ele><time>2026-04-11T13:16:33Z</time></trkpt><trkpt lat="43.55201180377872" lon="5.9099273889453166"><ele>442.99999999999994</ele><time>2026-04-11T13:16:34Z</time></trkpt><trkpt lat="43.55210311318393" lon="5.90999483015533"><ele>442.99999999999994</ele><time>2026-04-11T13:16:35Z</time></trkpt><trkpt lat="43.552195232259756" lon="5.910095944999249"><ele>443.0</ele><time>2026-04-11T13:16:36Z</time></trkpt><trkpt lat="43.55227446245718" lon="5.910188285067629"><ele>443.0</ele><time>2026-04-11T13:16:37Z</time></trkpt><trkpt lat="43.55234174357941" lon="5.910300644287411"><ele>442.59999999999997</ele><time>2026-04-11T13:16:38Z</time></trkpt><trkpt lat="43.55240953439149" lon="5.910436556870474"><ele>442.19999999999993</ele><time>2026-04-11T13:16:39Z</time></trkpt><trkpt lat="43.552489799520856" lon="5.910538934151029"><ele>441.8</ele><time>2026-04-11T13:16:40Z</time></trkpt><trkpt lat="43.552572406865" lon="5.910603562119257"><ele>441.4</ele><time>2026-04-11T13:16:41Z</time></trkpt><trkpt lat="43.552639013236146" lon="5.910681824016851"><ele>441.0</ele><time>2026-04-11T13:16:42Z</time></trkpt><trkpt lat="43.55270578508714" lon="5.910801961589937"><ele>440.5</ele><time>2026-04-11T13:16:43Z</time></trkpt><trkpt lat="43.55280238511578" lon="5.910921068329337"><ele>440.0</ele><time>2026-04-11T13:16:44Z</time></trkpt><trkpt lat="43.55291601506839" lon="5.911010356092372"><ele>439.5</ele><time>2026-04-11T13:16:45Z</time></trkpt><trkpt lat="43.55300550623728" lon="5.911096443493371"><ele>439.0</ele><time>2026-04-11T13:16:46Z</time></trkpt><trkpt lat="43.55307149327291" lon="5.911187713667101"><ele>438.6</ele><time>2026-04-11T13:16:47Z</time></trkpt><trkpt lat="43.55315234595442" lon="5.911254565422227"><ele>438.2</ele><time>2026-04-11T13:16:48Z</time></trkpt><trkpt lat="43.553245253882245" lon="5.91130721139155"><ele>437.80000000000007</ele><time>2026-04-11T13:16:49Z</time></trkpt><trkpt lat="43.55334083320286" lon="5.911387856766295"><ele>437.40000000000003</ele><time>2026-04-11T13:16:50Z</time></trkpt><trkpt lat="43.55342644466645" lon="5.911484951316668"><ele>437.0</ele><time>2026-04-11T13:16:51Z</time></trkpt><trkpt lat="43.55349968020583" lon="5.911580823334295"><ele>437.0</ele><time>2026-04-11T13:16:52Z</time></trkpt><trkpt lat="43.55357453655389" lon="5.9116984302938915"><ele>437.0</ele><time>2026-04-11T13:16:53Z</time></trkpt><trkpt lat="43.553649836038176" lon="5.911835992134441"><ele>437.0</ele><time>2026-04-11T13:16:54Z</time></trkpt><trkpt lat="43.55373387466009" lon="5.911975456443802"><ele>437.0</ele><time>2026-04-11T13:16:55Z</time></trkpt><trkpt lat="43.55383254308136" lon="5.912069816725179"><ele>436.40000000000003</ele><time>2026-04-11T13:16:56Z</time></trkpt><trkpt lat="43.553933092542" lon="5.9121468490669145"><ele>435.80000000000007</ele><time>2026-04-11T13:16:57Z</time></trkpt><trkpt lat="43.55402107660323" lon="5.912210978740646"><ele>435.2</ele><time>2026-04-11T13:16:58Z</time></trkpt><trkpt lat="43.55409009447722" lon="5.91226888069628"><ele>434.6</ele><time>2026-04-11T13:16:59Z</time></trkpt><trkpt lat="43.554144958612255" lon="5.912329155346701"><ele>434.0</ele><time>2026-04-11T13:17:00Z</time></trkpt><trkpt lat="43.554185366956844" lon="5.91247823597566"><ele>435.2</ele><time>2026-04-11T13:17:02Z</time></trkpt><trkpt lat="43.554145340369395" lon="5.9125788623118956"><ele>436.4</ele><time>2026-04-11T13:17:04Z</time></trkpt><trkpt lat="43.554027194776396" lon="5.912666564178321"><ele>437.6</ele><time>2026-04-11T13:17:06Z</time></trkpt><trkpt lat="43.55394084240859" lon="5.912767115317589"><ele>438.8</ele><time>2026-04-11T13:17:07Z</time></trkpt><trkpt lat="43.55384013862793" lon="5.912838282165013"><ele>440.0</ele><time>2026-04-11T13:17:08Z</time></trkpt><trkpt lat="43.55371111230334" lon="5.912896098288468"><ele>439.5</ele><time>2026-04-11T13:17:09Z</time></trkpt><trkpt lat="43.55360517737358" lon="5.912968214116031"><ele>439.0</ele><time>2026-04-11T13:17:10Z</time></trkpt><trkpt lat="43.55350157892025" lon="5.913088858591854"><ele>438.5</ele><time>2026-04-11T13:17:11Z</time></trkpt><trkpt lat="43.55337208437805" lon="5.913254734412618"><ele>438.0</ele><time>2026-04-11T13:17:12Z</time></trkpt><trkpt lat="43.553238073873366" lon="5.913428079024332"><ele>439.33333333333337</ele><time>2026-04-11T13:17:13Z</time></trkpt><trkpt lat="43.55313340628414" lon="5.913608635516786"><ele>440.6666666666667</ele><time>2026-04-11T13:17:14Z</time></trkpt><trkpt lat="43.55304102792218" lon="5.913800014691968"><ele>442.0</ele><time>2026-04-11T13:17:15Z</time></trkpt><trkpt lat="43.55295373677873" lon="5.91400462058405"><ele>441.0</ele><time>2026-04-11T13:17:16Z</time></trkpt><trkpt lat="43.552862378177075" lon="5.9142321597185505"><ele>440.0</ele><time>2026-04-11T13:17:17Z</time></trkpt><trkpt lat="43.552787044205886" lon="5.9144048719203735"><ele>439.0</ele><time>2026-04-11T13:17:18Z</time></trkpt><trkpt lat="43.55273426449308" lon="5.914527048586113"><ele>438.0</ele><time>2026-04-11T13:17:19Z</time></trkpt><trkpt lat="43.552697670648186" lon="5.914624249497761"><ele>438.0</ele><time>2026-04-11T13:17:20Z</time></trkpt><trkpt lat="43.552660591635295" lon="5.9147093889182045"><ele>437.99999999999994</ele><time>2026-04-11T13:17:21Z</time></trkpt><trkpt lat="43.55262484934279" lon="5.914836505708885"><ele>437.99999999999994</ele><time>2026-04-11T13:17:22Z</time></trkpt><trkpt lat="43.55258114937334" lon="5.915016031004278"><ele>438.0</ele><time>2026-04-11T13:17:23Z</time></trkpt><trkpt lat="43.55252897535778" lon="5.915186537525574"><ele>438.0</ele><time>2026-04-11T13:17:24Z</time></trkpt><trkpt lat="43.552469648742516" lon="5.91531564824521"><ele>438.59999999999997</ele><time>2026-04-11T13:17:25Z</time></trkpt><trkpt lat="43.552432090131006" lon="5.915460521426157"><ele>439.19999999999993</ele><time>2026-04-11T13:17:26Z</time></trkpt><trkpt lat="43.552394388799584" lon="5.915579467492152"><ele>439.8</ele><time>2026-04-11T13:17:27Z</time></trkpt><trkpt lat="43.55233832776087" lon="5.915709732853509"><ele>440.4</ele><time>2026-04-11T13:17:28Z</time></trkpt><trkpt lat="43.55226777857235" lon="5.915857915478001"><ele>441.0</ele><time>2026-04-11T13:17:29Z</time></trkpt><trkpt lat="43.55220770795427" lon="5.91601290179294"><ele>441.0</ele><time>2026-04-11T13:17:30Z</time></trkpt><trkpt lat="43.55217490574742" lon="5.91615708757964"><ele>441.0</ele><time>2026-04-11T13:17:31Z</time></trkpt><trkpt lat="43.55213538118752" lon="5.91627906787127"><ele>441.0</ele><time>2026-04-11T13:17:32Z</time></trkpt><trkpt lat="43.552075431706186" lon="5.916392555539736"><ele>441.0</ele><time>2026-04-11T13:17:33Z</time></trkpt><trkpt lat="43.55203413821302" lon="5.916524540299455"><ele>441.0</ele><time>2026-04-11T13:17:34Z</time></trkpt><trkpt lat="43.5519936983962" lon="5.916693400920547"><ele>439.0</ele><time>2026-04-11T13:17:35Z</time></trkpt><trkpt lat="43.55195019152971" lon="5.9168356828540265"><ele>437.0</ele><time>2026-04-11T13:17:36Z</time></trkpt><trkpt lat="43.55191503091142" lon="5.916956171178124"><ele>435.0</ele><time>2026-04-11T13:17:37Z</time></trkpt><trkpt lat="43.55187939739562" lon="5.9170491871626005"><ele>433.0</ele><time>2026-04-11T13:17:38Z</time></trkpt><trkpt lat="43.551791222488774" lon="5.917129882585643"><ele>431.0</ele><time>2026-04-11T13:17:40Z</time></trkpt><trkpt lat="43.551757833963485" lon="5.917213155042141"><ele>431.0</ele><time>2026-04-11T13:17:41Z</time></trkpt><trkpt lat="43.55173365615804" lon="5.917314446412652"><ele>431.0</ele><time>2026-04-11T13:17:42Z</time></trkpt><trkpt lat="43.55169903002585" lon="5.91746096961622"><ele>431.0</ele><time>2026-04-11T13:17:43Z</time></trkpt><trkpt lat="43.551701761069516" lon="5.917583135965529"><ele>431.0</ele><time>2026-04-11T13:17:44Z</time></trkpt><trkpt lat="43.55170940821886" lon="5.9177435086816015"><ele>431.0</ele><time>2026-04-11T13:17:45Z</time></trkpt><trkpt lat="43.55170344079324" lon="5.917902200290471"><ele>431.20000000000005</ele><time>2026-04-11T13:17:46Z</time></trkpt><trkpt lat="43.551700061234236" lon="5.91802413117462"><ele>431.40000000000003</ele><time>2026-04-11T13:17:47Z</time></trkpt><trkpt lat="43.551704338836856" lon="5.918139372002149"><ele>431.6</ele><time>2026-04-11T13:17:48Z</time></trkpt><trkpt lat="43.551681334210414" lon="5.918263115938893"><ele>431.8</ele><time>2026-04-11T13:17:49Z</time></trkpt><trkpt lat="43.55164264559135" lon="5.9184148477140015"><ele>432.0</ele><time>2026-04-11T13:17:50Z</time></trkpt><trkpt lat="43.55158268165163" lon="5.918581576451835"><ele>432.8</ele><time>2026-04-11T13:17:51Z</time></trkpt><trkpt lat="43.55153005768153" lon="5.918717965765564"><ele>433.6</ele><time>2026-04-11T13:17:52Z</time></trkpt><trkpt lat="43.55150034501315" lon="5.91884689871267"><ele>434.40000000000003</ele><time>2026-04-11T13:17:53Z</time></trkpt><trkpt lat="43.551454826364896" lon="5.918966441229923"><ele>435.20000000000005</ele><time>2026-04-11T13:17:54Z</time></trkpt><trkpt lat="43.5513868813413" lon="5.919055630944139"><ele>436.0</ele><time>2026-04-11T13:17:55Z</time></trkpt><trkpt lat="43.55130623609716" lon="5.919121270781078"><ele>436.0</ele><time>2026-04-11T13:17:56Z</time></trkpt><trkpt lat="43.55121138096236" lon="5.919194696090501"><ele>436.0</ele><time>2026-04-11T13:17:57Z</time></trkpt><trkpt lat="43.551121557914875" lon="5.919308481442811"><ele>436.0</ele><time>2026-04-11T13:17:58Z</time></trkpt><trkpt lat="43.55105310504736" lon="5.919425186717793"><ele>436.0</ele><time>2026-04-11T13:17:59Z</time></trkpt><trkpt lat="43.55101864245233" lon="5.919521105865981"><ele>436.0</ele><time>2026-04-11T13:18:00Z</time></trkpt><trkpt lat="43.5509917637528" lon="5.919612349796515"><ele>436.4</ele><time>2026-04-11T13:18:01Z</time></trkpt><trkpt lat="43.550989762518505" lon="5.919716603730944"><ele>436.8</ele><time>2026-04-11T13:18:02Z</time></trkpt><trkpt lat="43.550998253547135" lon="5.919814273059763"><ele>437.19999999999993</ele><time>2026-04-11T13:18:03Z</time></trkpt><trkpt lat="43.55099867360756" lon="5.919952292302534"><ele>437.59999999999997</ele><time>2026-04-11T13:18:04Z</time></trkpt><trkpt lat="43.550943578790346" lon="5.920130351998573"><ele>438.0</ele><time>2026-04-11T13:18:05Z</time></trkpt><trkpt lat="43.55085635644165" lon="5.920311177113869"><ele>438.0</ele><time>2026-04-11T13:18:06Z</time></trkpt><trkpt lat="43.55080557631487" lon="5.9204581278790975"><ele>438.0</ele><time>2026-04-11T13:18:07Z</time></trkpt><trkpt lat="43.55077945568193" lon="5.920539200894215"><ele>438.0</ele><time>2026-04-11T13:18:08Z</time></trkpt><trkpt lat="43.550755127110854" lon="5.920649798930073"><ele>438.0</ele><time>2026-04-11T13:18:10Z</time></trkpt><trkpt lat="43.55079633924603" lon="5.920729195116305"><ele>438.0</ele><time>2026-04-11T13:18:12Z</time></trkpt><trkpt lat="43.550880529519816" lon="5.920792872286693"><ele>438.0</ele><time>2026-04-11T13:18:14Z</time></trkpt><trkpt lat="43.550859948192105" lon="5.920901166517159"><ele>438.4</ele><time>2026-04-11T13:18:16Z</time></trkpt><trkpt lat="43.55088075495554" lon="5.920991550206278"><ele>438.79999999999995</ele><time>2026-04-11T13:18:18Z</time></trkpt><trkpt lat="43.55099019125403" lon="5.921011626177126"><ele>439.2</ele><time>2026-04-11T13:18:20Z</time></trkpt><trkpt lat="43.55106120052824" lon="5.92102504112707"><ele>439.6</ele><time>2026-04-11T13:18:21Z</time></trkpt><trkpt lat="43.55115460666227" lon="5.921087354170859"><ele>440.0</ele><time>2026-04-11T13:18:22Z</time></trkpt><trkpt lat="43.551239792184106" lon="5.921152626332008"><ele>440.16666666666663</ele><time>2026-04-11T13:18:23Z</time></trkpt><trkpt lat="43.55129426365285" lon="5.921223210817618"><ele>440.3333333333333</ele><time>2026-04-11T13:18:24Z</time></trkpt><trkpt lat="43.55132285491341" lon="5.921311528275698"><ele>440.5</ele><time>2026-04-11T13:18:25Z</time></trkpt><trkpt lat="43.55133299672585" lon="5.921405668282566"><ele>440.66666666666663</ele><time>2026-04-11T13:18:26Z</time></trkpt><trkpt lat="43.55132583828228" lon="5.921522446933225"><ele>440.8333333333333</ele><time>2026-04-11T13:18:27Z</time></trkpt><trkpt lat="43.551298805101055" lon="5.92165248736563"><ele>441.0</ele><time>2026-04-11T13:18:28Z</time></trkpt><trkpt lat="43.55126906902114" lon="5.921804032062675"><ele>440.75</ele><time>2026-04-11T13:18:29Z</time></trkpt><trkpt lat="43.5512279528171" lon="5.921979214034542"><ele>440.5</ele><time>2026-04-11T13:18:30Z</time></trkpt><trkpt lat="43.55115282757414" lon="5.922153354738273"><ele>440.25</ele><time>2026-04-11T13:18:31Z</time></trkpt><trkpt lat="43.55110367862364" lon="5.92226218482513"><ele>440.0</ele><time>2026-04-11T13:18:32Z</time></trkpt><trkpt lat="43.55105051747422" lon="5.922350031887461"><ele>439.99999999999994</ele><time>2026-04-11T13:18:33Z</time></trkpt><trkpt lat="43.550997960992305" lon="5.9224270508825585"><ele>440.0</ele><time>2026-04-11T13:18:34Z</time></trkpt><trkpt lat="43.55095453352974" lon="5.92252314418024"><ele>440.0</ele><time>2026-04-11T13:18:35Z</time></trkpt><trkpt lat="43.550922409697876" lon="5.922620262397278"><ele>440.0</ele><time>2026-04-11T13:18:36Z</time></trkpt><trkpt lat="43.55089171346908" lon="5.922718435815303"><ele>439.99999999999994</ele><time>2026-04-11T13:18:37Z</time></trkpt><trkpt lat="43.55086616388527" lon="5.922836955478648"><ele>440.0</ele><time>2026-04-11T13:18:38Z</time></trkpt><trkpt lat="43.55082669402877" lon="5.92295973592601"><ele>439.66666666666663</ele><time>2026-04-11T13:18:39Z</time></trkpt><trkpt lat="43.55078347129544" lon="5.9230555811908845"><ele>439.3333333333333</ele><time>2026-04-11T13:18:40Z</time></trkpt><trkpt lat="43.55075923812401" lon="5.92315138001954"><ele>439.0</ele><time>2026-04-11T13:18:41Z</time></trkpt><trkpt lat="43.55074106978889" lon="5.923268063246908"><ele>438.66666666666663</ele><time>2026-04-11T13:18:42Z</time></trkpt><trkpt lat="43.55072971452262" lon="5.923406935880057"><ele>438.3333333333333</ele><time>2026-04-11T13:18:43Z</time></trkpt><trkpt lat="43.55073051562152" lon="5.923528957677551"><ele>438.0</ele><time>2026-04-11T13:18:44Z</time></trkpt><trkpt lat="43.550747130957305" lon="5.923627024418509"><ele>437.8333333333333</ele><time>2026-04-11T13:18:45Z</time></trkpt><trkpt lat="43.55076487500754" lon="5.923712632188962"><ele>437.66666666666663</ele><time>2026-04-11T13:18:46Z</time></trkpt><trkpt lat="43.550728994688924" lon="5.923841828392676"><ele>437.5</ele><time>2026-04-11T13:18:48Z</time></trkpt><trkpt lat="43.55065787062177" lon="5.9239746287918305"><ele>437.3333333333333</ele><time>2026-04-11T13:18:50Z</time></trkpt><trkpt lat="43.5506593615765" lon="5.92408162801015"><ele>437.16666666666663</ele><time>2026-04-11T13:18:51Z</time></trkpt><trkpt lat="43.5506654165879" lon="5.924193515041142"><ele>437.0</ele><time>2026-04-11T13:18:52Z</time></trkpt><trkpt lat="43.55065094598048" lon="5.924289706158875"><ele>436.8333333333333</ele><time>2026-04-11T13:18:53Z</time></trkpt><trkpt lat="43.55060871729784" lon="5.924409222418084"><ele>436.66666666666663</ele><time>2026-04-11T13:18:54Z</time></trkpt><trkpt lat="43.55057535856342" lon="5.924534954674399"><ele>436.5</ele><time>2026-04-11T13:18:55Z</time></trkpt><trkpt lat="43.550543738535644" lon="5.924631665334786"><ele>436.33333333333337</ele><time>2026-04-11T13:18:56Z</time></trkpt><trkpt lat="43.550507797265105" lon="5.924714682825659"><ele>436.1666666666667</ele><time>2026-04-11T13:18:57Z</time></trkpt><trkpt lat="43.55044932403478" lon="5.924796371394175"><ele>436.0</ele><time>2026-04-11T13:18:58Z</time></trkpt><trkpt lat="43.55039351978211" lon="5.924867687188218"><ele>436.0</ele><time>2026-04-11T13:18:59Z</time></trkpt><trkpt lat="43.55035274777466" lon="5.924944110918191"><ele>436.0</ele><time>2026-04-11T13:19:00Z</time></trkpt><trkpt lat="43.55033258540631" lon="5.925028447185793"><ele>436.0</ele><time>2026-04-11T13:19:01Z</time></trkpt><trkpt lat="43.5503089459833" lon="5.925135739611333"><ele>436.0</ele><time>2026-04-11T13:19:02Z</time></trkpt><trkpt lat="43.55026583789354" lon="5.925213742331825"><ele>436.0</ele><time>2026-04-11T13:19:03Z</time></trkpt><trkpt lat="43.5502047043931" lon="5.925246797483138"><ele>436.0</ele><time>2026-04-11T13:19:04Z</time></trkpt><trkpt lat="43.550125588184734" lon="5.925246818418721"><ele>436.0</ele><time>2026-04-11T13:19:05Z</time></trkpt><trkpt lat="43.550046509147876" lon="5.925251511515928"><ele>435.4</ele><time>2026-04-11T13:19:06Z</time></trkpt><trkpt lat="43.54997545279211" lon="5.92529060540558"><ele>434.8</ele><time>2026-04-11T13:19:07Z</time></trkpt><trkpt lat="43.549904929024834" lon="5.92536242993162"><ele>434.19999999999993</ele><time>2026-04-11T13:19:08Z</time></trkpt><trkpt lat="43.54982062085081" lon="5.925476517705903"><ele>433.59999999999997</ele><time>2026-04-11T13:19:09Z</time></trkpt><trkpt lat="43.549752677765646" lon="5.925596975050994"><ele>433.0</ele><time>2026-04-11T13:19:10Z</time></trkpt><trkpt lat="43.54969244707331" lon="5.925682521929619"><ele>433.0</ele><time>2026-04-11T13:19:11Z</time></trkpt><trkpt lat="43.54961900428829" lon="5.925745699098245"><ele>432.99999999999994</ele><time>2026-04-11T13:19:12Z</time></trkpt><trkpt lat="43.54952479052782" lon="5.925808183322391"><ele>432.99999999999994</ele><time>2026-04-11T13:19:13Z</time></trkpt><trkpt lat="43.5494308002145" lon="5.92586966430989"><ele>433.0</ele><time>2026-04-11T13:19:14Z</time></trkpt><trkpt lat="43.54934737056182" lon="5.9259034423787655"><ele>433.0</ele><time>2026-04-11T13:19:15Z</time></trkpt><trkpt lat="43.54926780951144" lon="5.925920483828667"><ele>432.6666666666667</ele><time>2026-04-11T13:19:16Z</time></trkpt><trkpt lat="43.54919747644654" lon="5.925965631264632"><ele>432.33333333333337</ele><time>2026-04-11T13:19:17Z</time></trkpt><trkpt lat="43.549139996159184" lon="5.926028104961272"><ele>432.0</ele><time>2026-04-11T13:19:18Z</time></trkpt><trkpt lat="43.54906537432785" lon="5.926145565073243"><ele>431.66666666666663</ele><time>2026-04-11T13:19:20Z</time></trkpt><trkpt lat="43.54909762256713" lon="5.926224019168344"><ele>431.3333333333333</ele><time>2026-04-11T13:30:04Z</time></trkpt><trkpt lat="43.54905893198715" lon="5.926330186975745"><ele>431.0</ele><time>2026-04-11T13:30:06Z</time></trkpt><trkpt lat="43.54900371966536" lon="5.9264181191547625"><ele>430.99999999999994</ele><time>2026-04-11T13:30:09Z</time></trkpt><trkpt lat="43.548924571519294" lon="5.926386021151715"><ele>431.0</ele><time>2026-04-11T13:30:11.999Z</time></trkpt><trkpt lat="43.548851630098426" lon="5.926372476701802"><ele>431.0</ele><time>2026-04-11T13:30:14.999Z</time></trkpt><trkpt lat="43.54880210783082" lon="5.926306744965771"><ele>431.0</ele><time>2026-04-11T13:30:17.999Z</time></trkpt><trkpt lat="43.54874099206786" lon="5.926251192660424"><ele>430.99999999999994</ele><time>2026-04-11T13:30:19.999Z</time></trkpt><trkpt lat="43.548679163376406" lon="5.926211923732695"><ele>431.0</ele><time>2026-04-11T13:30:27.999Z</time></trkpt><trkpt lat="43.54860066920653" lon="5.926131825088052"><ele>430.14285714285717</ele><time>2026-04-11T13:30:30.999Z</time></trkpt><trkpt lat="43.54859539263562" lon="5.926016670043633"><ele>429.2857142857143</ele><time>2026-04-11T13:30:36.999Z</time></trkpt><trkpt lat="43.54855284420068" lon="5.926094757809042"><ele>428.42857142857144</ele><time>2026-04-11T13:31:32Z</time></trkpt><trkpt lat="43.548613517493024" lon="5.9261504483851875"><ele>427.57142857142856</ele><time>2026-04-11T13:31:36Z</time></trkpt><trkpt lat="43.54860919865247" lon="5.926259820894094"><ele>426.71428571428567</ele><time>2026-04-11T13:32:34.999Z</time></trkpt><trkpt lat="43.54858467311395" lon="5.9263398767692115"><ele>425.85714285714283</ele><time>2026-04-11T13:32:37.999Z</time></trkpt><trkpt lat="43.54858073297869" lon="5.92644052303952"><ele>425.0</ele><time>2026-04-11T13:32:40.999Z</time></trkpt><trkpt lat="43.54852715330376" lon="5.926505538008133"><ele>424.99999999999994</ele><time>2026-04-11T13:32:42.999Z</time></trkpt><trkpt lat="43.548460042366806" lon="5.926561500186656"><ele>425.0</ele><time>2026-04-11T13:32:44.999Z</time></trkpt><trkpt lat="43.54839131017583" lon="5.9266078044381825"><ele>425.0</ele><time>2026-04-11T13:32:46.999Z</time></trkpt><trkpt lat="43.54833337736116" lon="5.926659186758095"><ele>425.0</ele><time>2026-04-11T13:32:48.999Z</time></trkpt><trkpt lat="43.54825837741947" lon="5.926739073000407"><ele>424.99999999999994</ele><time>2026-04-11T13:32:50.999Z</time></trkpt><trkpt lat="43.548198036016" lon="5.926796793408819"><ele>425.0</ele><time>2026-04-11T13:32:52.999Z</time></trkpt><trkpt lat="43.54816050163075" lon="5.926867759339674"><ele>424.8333333333333</ele><time>2026-04-11T13:32:54.999Z</time></trkpt><trkpt lat="43.548098967491775" lon="5.926939272887059"><ele>424.66666666666663</ele><time>2026-04-11T13:32:56.999Z</time></trkpt><trkpt lat="43.548036618002136" lon="5.927014017486629"><ele>424.5</ele><time>2026-04-11T13:32:57.999Z</time></trkpt><trkpt lat="43.54797030775901" lon="5.9271326366086345"><ele>424.33333333333337</ele><time>2026-04-11T13:32:59.999Z</time></trkpt><trkpt lat="43.54792373913853" lon="5.927230753805959"><ele>424.1666666666667</ele><time>2026-04-11T13:33:01.999Z</time></trkpt><trkpt lat="43.54789852491911" lon="5.9273233735366775"><ele>424.0</ele><time>2026-04-11T13:33:03.999Z</time></trkpt><trkpt lat="43.547854396715096" lon="5.927429495835208"><ele>424.0</ele><time>2026-04-11T13:33:06Z</time></trkpt><trkpt lat="43.54783756905189" lon="5.927546977925095"><ele>424.0</ele><time>2026-04-11T13:33:08Z</time></trkpt><trkpt lat="43.54778257017266" lon="5.9276491021694575"><ele>424.0</ele><time>2026-04-11T13:33:11Z</time></trkpt><trkpt lat="43.5477236904274" lon="5.927771196833165"><ele>424.0</ele><time>2026-04-11T13:33:14Z</time></trkpt><trkpt lat="43.547678243519805" lon="5.927841230630679"><ele>424.0</ele><time>2026-04-11T13:33:15Z</time></trkpt><trkpt lat="43.54760416064823" lon="5.927942223817555"><ele>423.2</ele><time>2026-04-11T13:33:17Z</time></trkpt><trkpt lat="43.54753300904916" lon="5.928107253620658"><ele>422.4</ele><time>2026-04-11T13:33:20Z</time></trkpt><trkpt lat="43.54749755231635" lon="5.928199411939176"><ele>421.6</ele><time>2026-04-11T13:33:21Z</time></trkpt><trkpt lat="43.54742762033727" lon="5.928340673281628"><ele>420.8</ele><time>2026-04-11T13:33:23Z</time></trkpt><trkpt lat="43.54737263442687" lon="5.928413497584508"><ele>420.0</ele><time>2026-04-11T13:33:25Z</time></trkpt><trkpt lat="43.547303633535044" lon="5.9284698279428385"><ele>419.8333333333333</ele><time>2026-04-11T13:33:27Z</time></trkpt><trkpt lat="43.54724450269708" lon="5.928506605448664"><ele>419.66666666666663</ele><time>2026-04-11T13:33:28Z</time></trkpt><trkpt lat="43.547174861319355" lon="5.928575207912701"><ele>419.5</ele><time>2026-04-11T13:33:30Z</time></trkpt><trkpt lat="43.54711155802611" lon="5.928634797654532"><ele>419.3333333333333</ele><time>2026-04-11T13:33:32Z</time></trkpt><trkpt lat="43.54706979164289" lon="5.928716302242906"><ele>419.16666666666663</ele><time>2026-04-11T13:33:38Z</time></trkpt><trkpt lat="43.547024394864806" lon="5.928834318472702"><ele>419.0</ele><time>2026-04-11T13:33:40Z</time></trkpt><trkpt lat="43.54699482727646" lon="5.928948999888707"><ele>418.0</ele><time>2026-04-11T13:33:42Z</time></trkpt><trkpt lat="43.54696555030846" lon="5.929094617035076"><ele>417.0</ele><time>2026-04-11T13:33:44Z</time></trkpt><trkpt lat="43.5469264302477" lon="5.92923350934332"><ele>416.0</ele><time>2026-04-11T13:33:46Z</time></trkpt><trkpt lat="43.546892826634796" lon="5.929372952759341"><ele>415.0</ele><time>2026-04-11T13:33:48Z</time></trkpt><trkpt lat="43.546863945771186" lon="5.929484145716649"><ele>414.0</ele><time>2026-04-11T13:33:50Z</time></trkpt><trkpt lat="43.54681802493538" lon="5.929595042527904"><ele>412.2</ele><time>2026-04-11T13:33:52Z</time></trkpt><trkpt lat="43.546763000921054" lon="5.929695884271262"><ele>410.4</ele><time>2026-04-11T13:33:54Z</time></trkpt><trkpt lat="43.54671318479307" lon="5.92984360646479"><ele>408.6</ele><time>2026-04-11T13:33:56Z</time></trkpt><trkpt lat="43.54668011623445" lon="5.9300241050651135"><ele>406.8</ele><time>2026-04-11T13:33:58Z</time></trkpt><trkpt lat="43.54665153351747" lon="5.930112626777842"><ele>405.0</ele><time>2026-04-11T13:33:58.999Z</time></trkpt><trkpt lat="43.54663838889789" lon="5.93019829848652"><ele>404.0</ele><time>2026-04-11T13:33:59.999Z</time></trkpt><trkpt lat="43.546623084308116" lon="5.930286845933981"><ele>403.0</ele><time>2026-04-11T13:34:00.999Z</time></trkpt><trkpt lat="43.54658782457459" lon="5.930447896837914"><ele>402.0</ele><time>2026-04-11T13:34:02.999Z</time></trkpt><trkpt lat="43.54658548150761" lon="5.930538258713184"><ele>401.0</ele><time>2026-04-11T13:34:03.999Z</time></trkpt><trkpt lat="43.54656913748746" lon="5.930640109390792"><ele>400.0</ele><time>2026-04-11T13:34:05.999Z</time></trkpt><trkpt lat="43.54657727306702" lon="5.930772631936614"><ele>399.0</ele><time>2026-04-11T13:34:07.999Z</time></trkpt><trkpt lat="43.54660590021122" lon="5.9309199805857835"><ele>398.6</ele><time>2026-04-11T13:34:09.999Z</time></trkpt><trkpt lat="43.546597376289675" lon="5.931059149243843"><ele>398.2</ele><time>2026-04-11T13:34:11.999Z</time></trkpt><trkpt lat="43.54660140657648" lon="5.931188294189597"><ele>397.8</ele><time>2026-04-11T13:34:13.999Z</time></trkpt><trkpt lat="43.546539647082824" lon="5.931289563044487"><ele>397.40000000000003</ele><time>2026-04-11T13:34:15.999Z</time></trkpt><trkpt lat="43.54645673796151" lon="5.931393861450878"><ele>397.0</ele><time>2026-04-11T13:34:17.999Z</time></trkpt><trkpt lat="43.54639790672996" lon="5.93148821258238"><ele>397.00000000000006</ele><time>2026-04-11T13:34:19.999Z</time></trkpt><trkpt lat="43.546344047523775" lon="5.931534104980235"><ele>397.0</ele><time>2026-04-11T13:34:21.999Z</time></trkpt><trkpt lat="43.54629402174412" lon="5.931592063301112"><ele>397.0</ele><time>2026-04-11T13:34:22.999Z</time></trkpt><trkpt lat="43.54621910341066" lon="5.931652251342054"><ele>397.0</ele><time>2026-04-11T13:34:23.999Z</time></trkpt><trkpt lat="43.546164632717286" lon="5.93170414097135"><ele>397.00000000000006</ele><time>2026-04-11T13:34:24.999Z</time></trkpt><trkpt lat="43.5460592311723" lon="5.931792518558884"><ele>397.0</ele><time>2026-04-11T13:34:26.999Z</time></trkpt><trkpt lat="43.54596969258836" lon="5.931843391696835"><ele>393.6666666666667</ele><time>2026-04-11T13:34:28.999Z</time></trkpt><trkpt lat="43.54587511356472" lon="5.931903098546821"><ele>390.33333333333337</ele><time>2026-04-11T13:34:30.999Z</time></trkpt><trkpt lat="43.54589405944954" lon="5.932014227219513"><ele>387.0</ele><time>2026-04-11T13:34:32.999Z</time></trkpt><trkpt lat="43.54587725000403" lon="5.932129379019221"><ele>383.6666666666667</ele><time>2026-04-11T13:34:33.999Z</time></trkpt><trkpt lat="43.54586265931757" lon="5.932239490765143"><ele>380.33333333333337</ele><time>2026-04-11T13:34:34.999Z</time></trkpt><trkpt lat="43.54582958819639" lon="5.9323542364504185"><ele>377.0</ele><time>2026-04-11T13:34:36.999Z</time></trkpt><trkpt lat="43.54579252460967" lon="5.9324307780738"><ele>377.0</ele><time>2026-04-11T13:34:38.999Z</time></trkpt><trkpt lat="43.54571349132724" lon="5.932517324924054"><ele>377.0</ele><time>2026-04-11T13:34:40.999Z</time></trkpt><trkpt lat="43.545586932703124" lon="5.932553127455716"><ele>377.0</ele><time>2026-04-11T13:34:42.999Z</time></trkpt><trkpt lat="43.54551437804012" lon="5.93257005623727"><ele>377.0</ele><time>2026-04-11T13:34:43.999Z</time></trkpt><trkpt lat="43.5454307610059" lon="5.932560029800742"><ele>377.0</ele><time>2026-04-11T13:34:45.999Z</time></trkpt><trkpt lat="43.54534483067908" lon="5.932617826527854"><ele>374.6</ele><time>2026-04-11T13:34:47.999Z</time></trkpt><trkpt lat="43.545289218345" lon="5.932749188075304"><ele>372.20000000000005</ele><time>2026-04-11T13:34:49.999Z</time></trkpt><trkpt lat="43.54525227498595" lon="5.9328346345857526"><ele>369.8</ele><time>2026-04-11T13:34:51.999Z</time></trkpt><trkpt lat="43.545156464648876" lon="5.932919651868481"><ele>367.4</ele><time>2026-04-11T13:34:53.999Z</time></trkpt><trkpt lat="43.54507355833854" lon="5.93294315835349"><ele>365.0</ele><time>2026-04-11T13:34:55.999Z</time></trkpt><trkpt lat="43.545003931001716" lon="5.932982146701488"><ele>365.0</ele><time>2026-04-11T13:34:57.999Z</time></trkpt><trkpt lat="43.54493742714856" lon="5.93307768987903"><ele>365.0</ele><time>2026-04-11T13:35:02.999Z</time></trkpt><trkpt lat="43.54489109540632" lon="5.933160708375557"><ele>365.0</ele><time>2026-04-11T13:35:03.999Z</time></trkpt><trkpt lat="43.54482337386761" lon="5.93317824309618"><ele>365.0</ele><time>2026-04-11T13:35:05.999Z</time></trkpt><trkpt lat="43.5447375313303" lon="5.933238747521389"><ele>365.0</ele><time>2026-04-11T13:35:08.999Z</time></trkpt><trkpt lat="43.54467275577416" lon="5.933261058088516"><ele>365.0</ele><time>2026-04-11T13:35:09.999Z</time></trkpt><trkpt lat="43.544583547756176" lon="5.933321512733395"><ele>363.6666666666667</ele><time>2026-04-11T13:35:12Z</time></trkpt><trkpt lat="43.54452502831387" lon="5.933366355270078"><ele>362.33333333333337</ele><time>2026-04-11T13:35:13Z</time></trkpt><trkpt lat="43.54445960950306" lon="5.933397512414471"><ele>361.0</ele><time>2026-04-11T13:35:14Z</time></trkpt><trkpt lat="43.54434096093732" lon="5.933454930116486"><ele>359.6666666666667</ele><time>2026-04-11T13:35:16Z</time></trkpt><trkpt lat="43.54428806180601" lon="5.9335107107039455"><ele>358.3333333333333</ele><time>2026-04-11T13:35:18Z</time></trkpt><trkpt lat="43.544255194228725" lon="5.933592251653402"><ele>357.0</ele><time>2026-04-11T13:35:37Z</time></trkpt><trkpt lat="43.54425978015297" lon="5.9336814296078355"><ele>355.3333333333333</ele><time>2026-04-11T13:35:38Z</time></trkpt><trkpt lat="43.54424882377725" lon="5.933806028507286"><ele>353.6666666666667</ele><time>2026-04-11T13:35:41Z</time></trkpt><trkpt lat="43.54425730000316" lon="5.933915895736063"><ele>352.0</ele><time>2026-04-11T13:35:44Z</time></trkpt><trkpt lat="43.544273594679446" lon="5.934058971889507"><ele>350.33333333333337</ele><time>2026-04-11T13:35:47Z</time></trkpt><trkpt lat="43.544281770396836" lon="5.9341545126518565"><ele>348.6666666666667</ele><time>2026-04-11T13:35:50Z</time></trkpt><trkpt lat="43.54429538359676" lon="5.9342855284844225"><ele>347.0</ele><time>2026-04-11T13:35:52Z</time></trkpt><trkpt lat="43.544359150560595" lon="5.934536406600111"><ele>346.5</ele><time>2026-04-11T13:35:54Z</time></trkpt><trkpt lat="43.54438350488506" lon="5.934633196621868"><ele>346.0</ele><time>2026-04-11T13:35:56.999Z</time></trkpt><trkpt lat="43.544421680441594" lon="5.934757886858447"><ele>345.5</ele><time>2026-04-11T13:35:58.999Z</time></trkpt><trkpt lat="43.544422850023295" lon="5.934883534871985"><ele>345.0</ele><time>2026-04-11T13:36:02.999Z</time></trkpt><trkpt lat="43.544424859354876" lon="5.934979008827652"><ele>344.5</ele><time>2026-04-11T13:36:06.999Z</time></trkpt><trkpt lat="43.544417284177655" lon="5.9350878010068016"><ele>344.0</ele><time>2026-04-11T13:36:16.999Z</time></trkpt><trkpt lat="43.544426821753596" lon="5.9351842770804435"><ele>343.2</ele><time>2026-04-11T13:36:20.999Z</time></trkpt><trkpt lat="43.5444577738911" lon="5.935304532108741"><ele>342.4</ele><time>2026-04-11T13:36:32.999Z</time></trkpt><trkpt lat="43.54448124563279" lon="5.935428905160305"><ele>341.6</ele><time>2026-04-11T13:36:34.999Z</time></trkpt><trkpt lat="43.54452147815735" lon="5.935533044405046"><ele>340.8</ele><time>2026-04-11T13:36:37.999Z</time></trkpt><trkpt lat="43.544528587169246" lon="5.93570226914715"><ele>340.0</ele><time>2026-04-11T13:36:39.999Z</time></trkpt><trkpt lat="43.54454822774102" lon="5.935790252725166"><ele>342.66666666666663</ele><time>2026-04-11T13:36:41.999Z</time></trkpt><trkpt lat="43.54457753541755" lon="5.935907287496402"><ele>345.3333333333333</ele><time>2026-04-11T13:36:43.999Z</time></trkpt><trkpt lat="43.54459832610688" lon="5.935999981082434"><ele>348.0</ele><time>2026-04-11T13:36:45.999Z</time></trkpt><trkpt lat="43.54463048381887" lon="5.936091054180821"><ele>350.6666666666667</ele><time>2026-04-11T13:36:49.999Z</time></trkpt><trkpt lat="43.54468173816663" lon="5.936205768849086"><ele>353.33333333333337</ele><time>2026-04-11T13:36:51.999Z</time></trkpt><trkpt lat="43.54471338328416" lon="5.936328598242102"><ele>356.0</ele><time>2026-04-11T13:36:53.999Z</time></trkpt><trkpt lat="43.54472341314902" lon="5.936458861040692"><ele>356.0</ele><time>2026-04-11T13:36:55.999Z</time></trkpt><trkpt lat="43.54476276157011" lon="5.936561867570057"><ele>356.0</ele><time>2026-04-11T13:36:57.999Z</time></trkpt><trkpt lat="43.5447672484873" lon="5.9366558828208875"><ele>356.0</ele><time>2026-04-11T13:37:00.999Z</time></trkpt><trkpt lat="43.54480055957701" lon="5.936752705745784"><ele>356.0</ele><time>2026-04-11T13:37:04.999Z</time></trkpt><trkpt lat="43.54480223621189" lon="5.936870466849117"><ele>356.0</ele><time>2026-04-11T13:37:07.999Z</time></trkpt><trkpt lat="43.54481055318274" lon="5.936961135258537"><ele>356.0</ele><time>2026-04-11T13:37:10.999Z</time></trkpt><trkpt lat="43.544835810699446" lon="5.93705083451512"><ele>354.6666666666667</ele><time>2026-04-11T13:37:13.999Z</time></trkpt><trkpt lat="43.54484812420562" lon="5.93725648663797"><ele>353.33333333333337</ele><time>2026-04-11T13:37:18Z</time></trkpt><trkpt lat="43.54486101919162" lon="5.93737267281398"><ele>352.0</ele><time>2026-04-11T13:37:20Z</time></trkpt><trkpt lat="43.54486300491463" lon="5.937463310061392"><ele>350.6666666666667</ele><time>2026-04-11T13:37:24Z</time></trkpt><trkpt lat="43.54486864901407" lon="5.937552049766282"><ele>349.3333333333333</ele><time>2026-04-11T13:37:30Z</time></trkpt><trkpt lat="43.54482845378353" lon="5.937622628476621"><ele>348.0</ele><time>2026-04-11T13:37:32Z</time></trkpt><trkpt lat="43.544821779364455" lon="5.937752119359221"><ele>347.0</ele><time>2026-04-11T13:37:34Z</time></trkpt><trkpt lat="43.54479427328458" lon="5.937880076839901"><ele>346.0</ele><time>2026-04-11T13:37:35Z</time></trkpt><trkpt lat="43.544781624728564" lon="5.937978772006623"><ele>345.0</ele><time>2026-04-11T13:37:36Z</time></trkpt><trkpt lat="43.544611241729754" lon="5.937985582001652"><ele>344.0</ele><time>2026-04-11T13:37:37Z</time></trkpt><trkpt lat="43.544773127141816" lon="5.938230162267403"><ele>344.0</ele><time>2026-04-11T13:37:39Z</time></trkpt><trkpt lat="43.54477754246344" lon="5.938322891132755"><ele>344.0</ele><time>2026-04-11T13:37:43Z</time></trkpt><trkpt lat="43.544720954609005" lon="5.938380875254787"><ele>344.0</ele><time>2026-04-11T13:37:46Z</time></trkpt><trkpt lat="43.544598092888485" lon="5.938438622642018"><ele>344.0</ele><time>2026-04-11T13:37:48Z</time></trkpt><trkpt lat="43.54454398123759" lon="5.938506713713157"><ele>344.0</ele><time>2026-04-11T13:37:49Z</time></trkpt><trkpt lat="43.54447804001002" lon="5.938613819195562"><ele>344.0</ele><time>2026-04-11T13:37:50Z</time></trkpt><trkpt lat="43.544400566058926" lon="5.9387615229126745"><ele>338.6666666666667</ele><time>2026-04-11T13:37:51Z</time></trkpt><trkpt lat="43.54431325322902" lon="5.9389220175001745"><ele>333.3333333333333</ele><time>2026-04-11T13:37:51.999Z</time></trkpt><trkpt lat="43.544215464638945" lon="5.939091442175924"><ele>328.0</ele><time>2026-04-11T13:37:52.999Z</time></trkpt><trkpt lat="43.544107653362" lon="5.939262026674605"><ele>327.5</ele><time>2026-04-11T13:37:53.999Z</time></trkpt><trkpt lat="43.544008086307635" lon="5.9394064310661046"><ele>327.0</ele><time>2026-04-11T13:37:54.999Z</time></trkpt><trkpt lat="43.54392584004063" lon="5.939541964708798"><ele>326.5</ele><time>2026-04-11T13:37:55.999Z</time></trkpt><trkpt lat="43.543862024001676" lon="5.939663796150762"><ele>326.0</ele><time>2026-04-11T13:37:56.999Z</time></trkpt><trkpt lat="43.54382785555052" lon="5.939771267356583"><ele>326.0</ele><time>2026-04-11T13:37:57.999Z</time></trkpt><trkpt lat="43.54382161686555" lon="5.939891046731108"><ele>326.0</ele><time>2026-04-11T13:37:58.999Z</time></trkpt><trkpt lat="43.54383883068235" lon="5.940028556032794"><ele>326.0</ele><time>2026-04-11T13:37:59.999Z</time></trkpt><trkpt lat="43.54384240388861" lon="5.940198057858555"><ele>326.0</ele><time>2026-04-11T13:38:00.999Z</time></trkpt><trkpt lat="43.543838941049195" lon="5.940368268691608"><ele>326.0</ele><time>2026-04-11T13:38:01.999Z</time></trkpt><trkpt lat="43.54384322630303" lon="5.940522964625359"><ele>324.8</ele><time>2026-04-11T13:38:02.999Z</time></trkpt><trkpt lat="43.54385247666242" lon="5.940670224800219"><ele>323.6</ele><time>2026-04-11T13:38:03.999Z</time></trkpt><trkpt lat="43.543851248204994" lon="5.940800134069545"><ele>322.4</ele><time>2026-04-11T13:38:04.999Z</time></trkpt><trkpt lat="43.543854648786386" lon="5.940920835387586"><ele>321.2</ele><time>2026-04-11T13:38:05.999Z</time></trkpt><trkpt lat="43.54387492841248" lon="5.941042490725393"><ele>320.0</ele><time>2026-04-11T13:38:06.999Z</time></trkpt><trkpt lat="43.543906348497075" lon="5.941194222374851"><ele>319.4</ele><time>2026-04-11T13:38:07.999Z</time></trkpt><trkpt lat="43.5439221951653" lon="5.941356751845874"><ele>318.8</ele><time>2026-04-11T13:38:08.999Z</time></trkpt><trkpt lat="43.54392842379687" lon="5.941506801519604"><ele>318.2</ele><time>2026-04-11T13:38:09.999Z</time></trkpt><trkpt lat="43.54392522564957" lon="5.941646930291105"><ele>317.6</ele><time>2026-04-11T13:38:10.999Z</time></trkpt><trkpt lat="43.54389119770677" lon="5.941778594061697"><ele>317.0</ele><time>2026-04-11T13:38:11.999Z</time></trkpt><trkpt lat="43.543823057170776" lon="5.9418880205288245"><ele>316.6666666666667</ele><time>2026-04-11T13:38:12.999Z</time></trkpt><trkpt lat="43.54375552055672" lon="5.941979686579114"><ele>316.33333333333337</ele><time>2026-04-11T13:38:13.999Z</time></trkpt><trkpt lat="43.543699960601295" lon="5.942063482297839"><ele>316.0</ele><time>2026-04-11T13:38:14.999Z</time></trkpt><trkpt lat="43.54364086121322" lon="5.942145298082079"><ele>315.6666666666667</ele><time>2026-04-11T13:38:16.999Z</time></trkpt><trkpt lat="43.54355025149078" lon="5.942155797641728"><ele>315.3333333333333</ele><time>2026-04-11T13:38:18.999Z</time></trkpt><trkpt lat="43.54347857013192" lon="5.942141598615885"><ele>315.0</ele><time>2026-04-11T13:38:19.999Z</time></trkpt><trkpt lat="43.543384728007325" lon="5.94214150098737"><ele>314.25</ele><time>2026-04-11T13:38:20.999Z</time></trkpt><trkpt lat="43.543274318575364" lon="5.942167070737138"><ele>313.5</ele><time>2026-04-11T13:38:21.999Z</time></trkpt><trkpt lat="43.543142437553065" lon="5.94221021749004"><ele>312.75</ele><time>2026-04-11T13:38:22.999Z</time></trkpt><trkpt lat="43.54299297347834" lon="5.942253126649505"><ele>312.0</ele><time>2026-04-11T13:38:23.999Z</time></trkpt><trkpt lat="43.54283791069535" lon="5.942288617003292"><ele>312.0</ele><time>2026-04-11T13:38:24.999Z</time></trkpt><trkpt lat="43.54268644086011" lon="5.942320725133278"><ele>312.0</ele><time>2026-04-11T13:38:25.999Z</time></trkpt><trkpt lat="43.54252224206869" lon="5.9423647784349205"><ele>312.0</ele><time>2026-04-11T13:38:26.999Z</time></trkpt><trkpt lat="43.54234913830518" lon="5.942412324269396"><ele>312.0</ele><time>2026-04-11T13:38:27.999Z</time></trkpt><trkpt lat="43.542183511619214" lon="5.942452641099076"><ele>312.0</ele><time>2026-04-11T13:38:28.999Z</time></trkpt><trkpt lat="43.542017147786865" lon="5.942489727969424"><ele>312.0</ele><time>2026-04-11T13:38:29.999Z</time></trkpt><trkpt lat="43.54184216158981" lon="5.942529906824338"><ele>315.0</ele><time>2026-04-11T13:38:30.999Z</time></trkpt><trkpt lat="43.54167917040034" lon="5.942568726141531"><ele>318.0</ele><time>2026-04-11T13:38:31.999Z</time></trkpt><trkpt lat="43.54152432610303" lon="5.942603336276166"><ele>321.0</ele><time>2026-04-11T13:38:32.999Z</time></trkpt><trkpt lat="43.54137308423023" lon="5.942641564673191"><ele>319.3333333333333</ele><time>2026-04-11T13:38:33.999Z</time></trkpt><trkpt lat="43.54121384871143" lon="5.9426845104912855"><ele>317.66666666666663</ele><time>2026-04-11T13:38:34.999Z</time></trkpt><trkpt lat="43.54104204481275" lon="5.942728649438362"><ele>316.0</ele><time>2026-04-11T13:38:35.999Z</time></trkpt><trkpt lat="43.540864264973315" lon="5.942774393026421"><ele>316.0</ele><time>2026-04-11T13:38:36.999Z</time></trkpt><trkpt lat="43.54069569673368" lon="5.942815033154146"><ele>316.0</ele><time>2026-04-11T13:38:37.999Z</time></trkpt><trkpt lat="43.54053542320777" lon="5.942851384557788"><ele>316.0</ele><time>2026-04-11T13:38:38.999Z</time></trkpt><trkpt lat="43.540380820436994" lon="5.942891359833692"><ele>313.3333333333333</ele><time>2026-04-11T13:38:39.999Z</time></trkpt><trkpt lat="43.540212509684444" lon="5.94293453648908"><ele>310.6666666666667</ele><time>2026-04-11T13:38:40.999Z</time></trkpt><trkpt lat="43.54003167107901" lon="5.942972925537613"><ele>308.0</ele><time>2026-04-11T13:38:41.999Z</time></trkpt><trkpt lat="43.53986022098242" lon="5.943007703717387"><ele>308.0</ele><time>2026-04-11T13:38:42.999Z</time></trkpt><trkpt lat="43.539700141623825" lon="5.9430484207961785"><ele>308.0</ele><time>2026-04-11T13:38:43.999Z</time></trkpt><trkpt lat="43.53954932430712" lon="5.943090723372237"><ele>308.0</ele><time>2026-04-11T13:38:44.999Z</time></trkpt><trkpt lat="43.53940276480808" lon="5.943127108655481"><ele>306.0</ele><time>2026-04-11T13:38:45.999Z</time></trkpt><trkpt lat="43.53925590121867" lon="5.9431640125339715"><ele>304.0</ele><time>2026-04-11T13:38:46.999Z</time></trkpt><trkpt lat="43.5391074951209" lon="5.943205239861452"><ele>302.0</ele><time>2026-04-11T13:38:47.999Z</time></trkpt><trkpt lat="43.538957688775774" lon="5.943245788947095"><ele>302.0</ele><time>2026-04-11T13:38:48.999Z</time></trkpt><trkpt lat="43.53881777414156" lon="5.943281444915633"><ele>302.0</ele><time>2026-04-11T13:38:49.999Z</time></trkpt><trkpt lat="43.538678391624806" lon="5.943312405515233"><ele>302.0</ele><time>2026-04-11T13:38:50.999Z</time></trkpt><trkpt lat="43.53853610358879" lon="5.9433454525450555"><ele>302.0</ele><time>2026-04-11T13:38:51.999Z</time></trkpt><trkpt lat="43.538384799180236" lon="5.943382869533754"><ele>301.33333333333337</ele><time>2026-04-11T13:38:52.999Z</time></trkpt><trkpt lat="43.53822788936038" lon="5.943419656684508"><ele>300.6666666666667</ele><time>2026-04-11T13:38:53.999Z</time></trkpt><trkpt lat="43.53806862101283" lon="5.943451560315076"><ele>300.0</ele><time>2026-04-11T13:38:54.999Z</time></trkpt><trkpt lat="43.53789897803226" lon="5.943497896102056"><ele>298.3333333333333</ele><time>2026-04-11T13:38:55.999Z</time></trkpt><trkpt lat="43.5377219728129" lon="5.943550772866758"><ele>296.66666666666663</ele><time>2026-04-11T13:38:56.999Z</time></trkpt><trkpt lat="43.537537526188395" lon="5.943599817353781"><ele>295.0</ele><time>2026-04-11T13:38:57.999Z</time></trkpt><trkpt lat="43.537353079213084" lon="5.943646028937663"><ele>295.0</ele><time>2026-04-11T13:38:58.999Z</time></trkpt><trkpt lat="43.53716910812" lon="5.943694468027068"><ele>295.0</ele><time>2026-04-11T13:38:59.999Z</time></trkpt><trkpt lat="43.53699410943689" lon="5.943738718131645"><ele>295.0</ele><time>2026-04-11T13:39:00.999Z</time></trkpt><trkpt lat="43.53681955133216" lon="5.943777017189503"><ele>292.3333333333333</ele><time>2026-04-11T13:39:01.999Z</time></trkpt><trkpt lat="43.536635772132655" lon="5.943809375653355"><ele>289.6666666666667</ele><time>2026-04-11T13:39:02.999Z</time></trkpt><trkpt lat="43.53643837610911" lon="5.943836994395276"><ele>287.0</ele><time>2026-04-11T13:39:03.999Z</time></trkpt><trkpt lat="43.53624941025906" lon="5.943868874768435"><ele>285.33333333333337</ele><time>2026-04-11T13:39:04.999Z</time></trkpt><trkpt lat="43.536073429996236" lon="5.943894726335959"><ele>283.6666666666667</ele><time>2026-04-11T13:39:05.999Z</time></trkpt><trkpt lat="43.53590270073673" lon="5.943925354798144"><ele>282.0</ele><time>2026-04-11T13:39:06.999Z</time></trkpt><trkpt lat="43.53572841109639" lon="5.943960250412257"><ele>282.0</ele><time>2026-04-11T13:39:07.999Z</time></trkpt><trkpt lat="43.53554680673635" lon="5.944019481477718"><ele>282.0</ele><time>2026-04-11T13:39:08.999Z</time></trkpt><trkpt lat="43.53537671043552" lon="5.944120703963401"><ele>282.0</ele><time>2026-04-11T13:39:09.999Z</time></trkpt><trkpt lat="43.535227084934625" lon="5.944241818524762"><ele>280.6666666666667</ele><time>2026-04-11T13:39:10.999Z</time></trkpt><trkpt lat="43.535080167621565" lon="5.944381674784536"><ele>279.33333333333337</ele><time>2026-04-11T13:39:11.999Z</time></trkpt><trkpt lat="43.534925227435394" lon="5.94452592358375"><ele>278.0</ele><time>2026-04-11T13:39:12.999Z</time></trkpt><trkpt lat="43.534756201292105" lon="5.944644629503359"><ele>278.0</ele><time>2026-04-11T13:39:13.999Z</time></trkpt><trkpt lat="43.53459315510553" lon="5.944783421929867"><ele>278.0</ele><time>2026-04-11T13:39:14.999Z</time></trkpt><trkpt lat="43.53443141274327" lon="5.9449211043957435"><ele>278.0</ele><time>2026-04-11T13:39:15.999Z</time></trkpt><trkpt lat="43.53427152758932" lon="5.945057205939421"><ele>278.0</ele><time>2026-04-11T13:39:16.999Z</time></trkpt><trkpt lat="43.5341089504974" lon="5.945195598982005"><ele>278.0</ele><time>2026-04-11T13:39:17.999Z</time></trkpt><trkpt lat="43.53394337440923" lon="5.945336544929383"><ele>278.0</ele><time>2026-04-11T13:39:18.999Z</time></trkpt><trkpt lat="43.53378787327397" lon="5.9454688641802225"><ele>276.0</ele><time>2026-04-11T13:39:19.999Z</time></trkpt><trkpt lat="43.533636286403905" lon="5.945597842978789"><ele>274.0</ele><time>2026-04-11T13:39:20.999Z</time></trkpt><trkpt lat="43.53347734408668" lon="5.945733080166459"><ele>272.0</ele><time>2026-04-11T13:39:21.999Z</time></trkpt><trkpt lat="43.53331109547308" lon="5.945869115553403"><ele>273.0</ele><time>2026-04-11T13:39:23Z</time></trkpt><trkpt lat="43.533147230007444" lon="5.945982870458535"><ele>274.0</ele><time>2026-04-11T13:39:24Z</time></trkpt><trkpt lat="43.53300150221328" lon="5.94610233001027"><ele>275.0</ele><time>2026-04-11T13:39:25Z</time></trkpt><trkpt lat="43.53285598079854" lon="5.9461937185490585"><ele>275.0</ele><time>2026-04-11T13:39:26Z</time></trkpt><trkpt lat="43.53269845313683" lon="5.946267219462607"><ele>275.0</ele><time>2026-04-11T13:39:27Z</time></trkpt><trkpt lat="43.53253558976702" lon="5.946371406892266"><ele>275.0</ele><time>2026-04-11T13:39:28Z</time></trkpt><trkpt lat="43.5323658808943" lon="5.946485829953413"><ele>275.0</ele><time>2026-04-11T13:39:29Z</time></trkpt><trkpt lat="43.53220595988691" lon="5.946594144100664"><ele>275.0</ele><time>2026-04-11T13:39:30Z</time></trkpt><trkpt lat="43.53205899917736" lon="5.946682306659483"><ele>275.0</ele><time>2026-04-11T13:39:31Z</time></trkpt><trkpt lat="43.5319180141316" lon="5.9467621734651"><ele>276.6666666666667</ele><time>2026-04-11T13:39:32Z</time></trkpt><trkpt lat="43.53176863790963" lon="5.946789566005277"><ele>278.3333333333333</ele><time>2026-04-11T13:39:33Z</time></trkpt><trkpt lat="43.53160484202454" lon="5.946766356031401"><ele>280.0</ele><time>2026-04-11T13:39:34Z</time></trkpt><trkpt lat="43.53142353735509" lon="5.946736954891085"><ele>277.0</ele><time>2026-04-11T13:39:35Z</time></trkpt><trkpt lat="43.53123826593515" lon="5.946696768475473"><ele>274.0</ele><time>2026-04-11T13:39:36Z</time></trkpt><trkpt lat="43.531052128273615" lon="5.946677522265772"><ele>271.0</ele><time>2026-04-11T13:39:37Z</time></trkpt><trkpt lat="43.530873690948034" lon="5.946634669826776"><ele>270.3333333333333</ele><time>2026-04-11T13:39:38Z</time></trkpt><trkpt lat="43.530703056492776" lon="5.946595141085128"><ele>269.6666666666667</ele><time>2026-04-11T13:39:39Z</time></trkpt><trkpt lat="43.53053723254217" lon="5.946563312861258"><ele>269.0</ele><time>2026-04-11T13:39:40Z</time></trkpt><trkpt lat="43.53038756365631" lon="5.946511645704157"><ele>268.25</ele><time>2026-04-11T13:39:41Z</time></trkpt><trkpt lat="43.530243973708906" lon="5.946481013736428"><ele>267.5</ele><time>2026-04-11T13:39:42Z</time></trkpt><trkpt lat="43.53009961785958" lon="5.946470904222469"><ele>266.75</ele><time>2026-04-11T13:39:43Z</time></trkpt><trkpt lat="43.529954276167" lon="5.946435810699142"><ele>266.0</ele><time>2026-04-11T13:39:44Z</time></trkpt><trkpt lat="43.52979093693736" lon="5.9464018344328595"><ele>266.0</ele><time>2026-04-11T13:39:45Z</time></trkpt><trkpt lat="43.52962831250395" lon="5.946365894366985"><ele>266.0</ele><time>2026-04-11T13:39:46Z</time></trkpt><trkpt lat="43.52948105740518" lon="5.94632881569695"><ele>266.0</ele><time>2026-04-11T13:39:47Z</time></trkpt><trkpt lat="43.52934385230493" lon="5.946295573677662"><ele>265.0</ele><time>2026-04-11T13:39:48Z</time></trkpt><trkpt lat="43.529216220847196" lon="5.9462679868239645"><ele>264.0</ele><time>2026-04-11T13:39:48.999Z</time></trkpt><trkpt lat="43.52909480365398" lon="5.9462424823536555"><ele>263.0</ele><time>2026-04-11T13:39:49.999Z</time></trkpt><trkpt lat="43.52898273937333" lon="5.946213936876203"><ele>262.0</ele><time>2026-04-11T13:39:50.999Z</time></trkpt><trkpt lat="43.528879677703344" lon="5.946174688967016"><ele>262.0</ele><time>2026-04-11T13:39:51.999Z</time></trkpt><trkpt lat="43.52877324073235" lon="5.946150129316764"><ele>262.0</ele><time>2026-04-11T13:39:52.999Z</time></trkpt><trkpt lat="43.52866283365017" lon="5.946124747792175"><ele>262.0</ele><time>2026-04-11T13:39:53.999Z</time></trkpt><trkpt lat="43.5285453773474" lon="5.946097745728445"><ele>262.0</ele><time>2026-04-11T13:39:54.999Z</time></trkpt><trkpt lat="43.52841660884311" lon="5.946067118306732"><ele>262.4</ele><time>2026-04-11T13:39:55.999Z</time></trkpt><trkpt lat="43.52830680752355" lon="5.9460404626911245"><ele>262.79999999999995</ele><time>2026-04-11T13:39:56.999Z</time></trkpt><trkpt lat="43.52820161260285" lon="5.946014925324387"><ele>263.2</ele><time>2026-04-11T13:39:57.999Z</time></trkpt><trkpt lat="43.52810777440202" lon="5.9459917539063785"><ele>263.59999999999997</ele><time>2026-04-11T13:39:58.999Z</time></trkpt><trkpt lat="43.52802494474054" lon="5.945971077313867"><ele>264.0</ele><time>2026-04-11T13:39:59.999Z</time></trkpt><trkpt lat="43.5279583881873" lon="5.945955227275371"><ele>264.59999999999997</ele><time>2026-04-11T13:40:00.999Z</time></trkpt><trkpt lat="43.527857769434156" lon="5.9459311762643745"><ele>265.2</ele><time>2026-04-11T13:40:02.999Z</time></trkpt><trkpt lat="43.52780483401132" lon="5.945862666077512"><ele>265.79999999999995</ele><time>2026-04-11T13:40:06.999Z</time></trkpt><trkpt lat="43.527759960957916" lon="5.945699733208996"><ele>266.4</ele><time>2026-04-11T13:40:08.999Z</time></trkpt><trkpt lat="43.527701736004985" lon="5.945532067845443"><ele>267.0</ele><time>2026-04-11T13:40:09.999Z</time></trkpt><trkpt lat="43.527645839818874" lon="5.945387509483214"><ele>267.0</ele><time>2026-04-11T13:40:10.999Z</time></trkpt><trkpt lat="43.52757920328558" lon="5.945219501144196"><ele>267.0</ele><time>2026-04-11T13:40:11.999Z</time></trkpt><trkpt lat="43.52753077583915" lon="5.9450901803696246"><ele>267.0</ele><time>2026-04-11T13:40:12.999Z</time></trkpt><trkpt lat="43.52748043978524" lon="5.9449738053091465"><ele>267.0</ele><time>2026-04-11T13:40:13.999Z</time></trkpt><trkpt lat="43.5274370992776" lon="5.944857461369697"><ele>267.0</ele><time>2026-04-11T13:40:14.999Z</time></trkpt><trkpt lat="43.52739782039121" lon="5.944741752539933"><ele>267.0</ele><time>2026-04-11T13:40:15.999Z</time></trkpt><trkpt lat="43.527342486354705" lon="5.94462727659574"><ele>267.0</ele><time>2026-04-11T13:40:16.999Z</time></trkpt><trkpt lat="43.52727652617361" lon="5.944492759065071"><ele>267.0</ele><time>2026-04-11T13:40:17.999Z</time></trkpt><trkpt lat="43.5272157835601" lon="5.9443650132910655"><ele>267.0</ele><time>2026-04-11T13:40:18.999Z</time></trkpt><trkpt lat="43.527161579512615" lon="5.944244107129894"><ele>267.0</ele><time>2026-04-11T13:40:19.999Z</time></trkpt><trkpt lat="43.52710844685644" lon="5.944133257583751"><ele>267.0</ele><time>2026-04-11T13:40:20.999Z</time></trkpt><trkpt lat="43.52706083232" lon="5.944030050939207"><ele>267.0</ele><time>2026-04-11T13:40:21.999Z</time></trkpt><trkpt lat="43.527014862998016" lon="5.943930085660057"><ele>267.0</ele><time>2026-04-11T13:40:22.999Z</time></trkpt><trkpt lat="43.526974165382896" lon="5.943835389643257"><ele>267.0</ele><time>2026-04-11T13:40:23.999Z</time></trkpt><trkpt lat="43.526878925229674" lon="5.94378295669277"><ele>267.0</ele><time>2026-04-11T13:40:24.999Z</time></trkpt><trkpt lat="43.52684228277299" lon="5.943680034484215"><ele>267.0</ele><time>2026-04-11T13:40:25.999Z</time></trkpt><trkpt lat="43.52680230435883" lon="5.943584134468314"><ele>266.6666666666667</ele><time>2026-04-11T13:40:26.999Z</time></trkpt><trkpt lat="43.5267665151635" lon="5.943490785619921"><ele>266.3333333333333</ele><time>2026-04-11T13:40:27.999Z</time></trkpt><trkpt lat="43.52672452622365" lon="5.9434002706903835"><ele>266.0</ele><time>2026-04-11T13:40:28.999Z</time></trkpt><trkpt lat="43.5266907940803" lon="5.943294378680009"><ele>265.66666666666663</ele><time>2026-04-11T13:40:29.999Z</time></trkpt><trkpt lat="43.52665219440541" lon="5.943190005090016"><ele>265.3333333333333</ele><time>2026-04-11T13:40:30.999Z</time></trkpt><trkpt lat="43.52660388639511" lon="5.943075212294522"><ele>265.0</ele><time>2026-04-11T13:40:31.999Z</time></trkpt><trkpt lat="43.52656043794987" lon="5.942965262097087"><ele>265.0</ele><time>2026-04-11T13:40:32.999Z</time></trkpt><trkpt lat="43.526509629500495" lon="5.942855670562463"><ele>265.0</ele><time>2026-04-11T13:40:33.999Z</time></trkpt><trkpt lat="43.52646466561535" lon="5.942761416000209"><ele>265.0</ele><time>2026-04-11T13:40:34.999Z</time></trkpt><trkpt lat="43.52641135633432" lon="5.942664673994774"><ele>265.0</ele><time>2026-04-11T13:40:35.999Z</time></trkpt><trkpt lat="43.526367685913925" lon="5.942572659785202"><ele>265.0</ele><time>2026-04-11T13:40:36.999Z</time></trkpt><trkpt lat="43.52632870853182" lon="5.942494587617741"><ele>265.0</ele><time>2026-04-11T13:40:37.999Z</time></trkpt><trkpt lat="43.52628695934497" lon="5.942403284372105"><ele>265.0</ele><time>2026-04-11T13:40:38.999Z</time></trkpt><trkpt lat="43.526245538091985" lon="5.942303524619395"><ele>265.0</ele><time>2026-04-11T13:40:39.999Z</time></trkpt><trkpt lat="43.526177286940296" lon="5.942199696263932"><ele>265.0</ele><time>2026-04-11T13:40:40.999Z</time></trkpt><trkpt lat="43.52612514255624" lon="5.942087407043896"><ele>265.0</ele><time>2026-04-11T13:40:41.999Z</time></trkpt><trkpt lat="43.52607263300661" lon="5.9419748062869315"><ele>265.0</ele><time>2026-04-11T13:40:42.999Z</time></trkpt><trkpt lat="43.52600126139254" lon="5.941854625586007"><ele>265.0</ele><time>2026-04-11T13:40:43.999Z</time></trkpt><trkpt lat="43.525934819116756" lon="5.941741344209241"><ele>265.0</ele><time>2026-04-11T13:40:44.999Z</time></trkpt><trkpt lat="43.52585202876228" lon="5.941633699384747"><ele>265.0</ele><time>2026-04-11T13:40:45.999Z</time></trkpt><trkpt lat="43.525765872771586" lon="5.941534859850687"><ele>265.0</ele><time>2026-04-11T13:40:46.999Z</time></trkpt><trkpt lat="43.52567553953802" lon="5.941438614461523"><ele>265.0</ele><time>2026-04-11T13:40:47.999Z</time></trkpt><trkpt lat="43.52558926820527" lon="5.941341925539294"><ele>265.0</ele><time>2026-04-11T13:40:48.999Z</time></trkpt><trkpt lat="43.52550465386913" lon="5.941244972769929"><ele>265.0</ele><time>2026-04-11T13:40:49.999Z</time></trkpt><trkpt lat="43.52541665314825" lon="5.941151107598103"><ele>265.0</ele><time>2026-04-11T13:40:50.999Z</time></trkpt><trkpt lat="43.52532478747126" lon="5.941052067551645"><ele>265.0</ele><time>2026-04-11T13:40:51.999Z</time></trkpt><trkpt lat="43.525235470954684" lon="5.940953028834866"><ele>264.6</ele><time>2026-04-11T13:40:52.999Z</time></trkpt><trkpt lat="43.52515449920798" lon="5.940858009327404"><ele>264.2</ele><time>2026-04-11T13:40:53.999Z</time></trkpt><trkpt lat="43.52507022413823" lon="5.940768963763435"><ele>263.8</ele><time>2026-04-11T13:40:54.999Z</time></trkpt><trkpt lat="43.52498892236396" lon="5.94068039004372"><ele>263.4</ele><time>2026-04-11T13:40:55.999Z</time></trkpt><trkpt lat="43.52490787878584" lon="5.940593685700353"><ele>263.0</ele><time>2026-04-11T13:40:56.999Z</time></trkpt><trkpt lat="43.52483552595306" lon="5.940502567681328"><ele>263.0</ele><time>2026-04-11T13:40:57.999Z</time></trkpt><trkpt lat="43.52476779549189" lon="5.940410770012051"><ele>263.0</ele><time>2026-04-11T13:40:58.999Z</time></trkpt><trkpt lat="43.52470126159414" lon="5.940324157298931"><ele>263.0</ele><time>2026-04-11T13:40:59.999Z</time></trkpt><trkpt lat="43.524646479673756" lon="5.940235262570875"><ele>263.0</ele><time>2026-04-11T13:41:00.999Z</time></trkpt><trkpt lat="43.524595619113015" lon="5.9401488639136835"><ele>263.0</ele><time>2026-04-11T13:41:01.999Z</time></trkpt><trkpt lat="43.52453511554539" lon="5.940086844688118"><ele>263.0</ele><time>2026-04-11T13:41:02.999Z</time></trkpt><trkpt lat="43.524466393531064" lon="5.940046306038861"><ele>263.33333333333337</ele><time>2026-04-11T13:41:03.999Z</time></trkpt><trkpt lat="43.52439729585141" lon="5.93999694079942"><ele>263.6666666666667</ele><time>2026-04-11T13:41:04.999Z</time></trkpt><trkpt lat="43.5243330557982" lon="5.939931158773026"><ele>264.0</ele><time>2026-04-11T13:41:05.999Z</time></trkpt><trkpt lat="43.52427640121299" lon="5.939874570499283"><ele>264.3333333333333</ele><time>2026-04-11T13:41:06.999Z</time></trkpt><trkpt lat="43.52420023651297" lon="5.939797040621571"><ele>264.66666666666663</ele><time>2026-04-11T13:41:08.999Z</time></trkpt><trkpt lat="43.5241221041487" lon="5.939764754852194"><ele>265.0</ele><time>2026-04-11T13:41:12.999Z</time></trkpt><trkpt lat="43.524056612819834" lon="5.93980221302262"><ele>265.0</ele><time>2026-04-11T13:41:13.999Z</time></trkpt><trkpt lat="43.523962194527236" lon="5.939846419000685"><ele>265.0</ele><time>2026-04-11T13:41:14.999Z</time></trkpt><trkpt lat="43.523873694813936" lon="5.939877092845858"><ele>265.0</ele><time>2026-04-11T13:41:15.999Z</time></trkpt><trkpt lat="43.52376301226605" lon="5.939914750072607"><ele>265.0</ele><time>2026-04-11T13:41:16.999Z</time></trkpt><trkpt lat="43.523644821745194" lon="5.939960444010853"><ele>265.0</ele><time>2026-04-11T13:41:17.999Z</time></trkpt><trkpt lat="43.52354166920035" lon="5.939996643597127"><ele>265.5</ele><time>2026-04-11T13:41:18.999Z</time></trkpt><trkpt lat="43.52344642202261" lon="5.940028180984313"><ele>266.0</ele><time>2026-04-11T13:41:19.999Z</time></trkpt><trkpt lat="43.52333746393169" lon="5.9400632516340455"><ele>266.5</ele><time>2026-04-11T13:41:20.999Z</time></trkpt><trkpt lat="43.52320102157001" lon="5.940108007156872"><ele>267.0</ele><time>2026-04-11T13:41:21.999Z</time></trkpt><trkpt lat="43.523071849949346" lon="5.940153310868051"><ele>267.0</ele><time>2026-04-11T13:41:22.999Z</time></trkpt><trkpt lat="43.522956674344336" lon="5.940192920816668"><ele>267.0</ele><time>2026-04-11T13:41:23.999Z</time></trkpt><trkpt lat="43.52282918805886" lon="5.940241136167455"><ele>267.0</ele><time>2026-04-11T13:41:24.999Z</time></trkpt><trkpt lat="43.52268467751352" lon="5.940293237859649"><ele>267.0</ele><time>2026-04-11T13:41:25.999Z</time></trkpt><trkpt lat="43.52253085446148" lon="5.940347043630725"><ele>268.3333333333333</ele><time>2026-04-11T13:41:26.999Z</time></trkpt><trkpt lat="43.52236721033072" lon="5.9404035081936435"><ele>269.66666666666663</ele><time>2026-04-11T13:41:27.999Z</time></trkpt><trkpt lat="43.52221357341039" lon="5.940457228137333"><ele>271.0</ele><time>2026-04-11T13:41:29Z</time></trkpt><trkpt lat="43.52206370626911" lon="5.940513168585511"><ele>273.3333333333333</ele><time>2026-04-11T13:41:30Z</time></trkpt><trkpt lat="43.521901550750485" lon="5.940574523604871"><ele>275.6666666666667</ele><time>2026-04-11T13:41:31Z</time></trkpt><trkpt lat="43.52172768887209" lon="5.940636497360288"><ele>278.0</ele><time>2026-04-11T13:41:32Z</time></trkpt><trkpt lat="43.52154890020283" lon="5.940697262474656"><ele>278.0</ele><time>2026-04-11T13:41:33Z</time></trkpt><trkpt lat="43.521373693239205" lon="5.94075715460591"><ele>278.0</ele><time>2026-04-11T13:41:34Z</time></trkpt><trkpt lat="43.52119896283399" lon="5.94081753119204"><ele>278.0</ele><time>2026-04-11T13:41:35Z</time></trkpt><trkpt lat="43.521035510269705" lon="5.940876762393198"><ele>279.75</ele><time>2026-04-11T13:41:36Z</time></trkpt><trkpt lat="43.5208912952612" lon="5.9409258573104085"><ele>281.5</ele><time>2026-04-11T13:41:37Z</time></trkpt><trkpt lat="43.52076221727342" lon="5.940969029580794"><ele>283.25</ele><time>2026-04-11T13:41:38Z</time></trkpt><trkpt lat="43.52064152718183" lon="5.941013047335158"><ele>285.0</ele><time>2026-04-11T13:41:39Z</time></trkpt><trkpt lat="43.52053464406102" lon="5.941056107368927"><ele>285.0</ele><time>2026-04-11T13:41:40Z</time></trkpt><trkpt lat="43.520435196521284" lon="5.941090113263158"><ele>285.0</ele><time>2026-04-11T13:41:41Z</time></trkpt><trkpt lat="43.52034890228791" lon="5.941113155504358"><ele>285.0</ele><time>2026-04-11T13:41:42Z</time></trkpt><trkpt lat="43.52027008907957" lon="5.941122920908769"><ele>285.0</ele><time>2026-04-11T13:41:43Z</time></trkpt><trkpt lat="43.52019913298769" lon="5.941100618513627"><ele>285.0</ele><time>2026-04-11T13:41:44Z</time></trkpt><trkpt lat="43.520139241025824" lon="5.941059763088909"><ele>285.0</ele><time>2026-04-11T13:41:45Z</time></trkpt><trkpt lat="43.52007819807243" lon="5.941014014550548"><ele>286.6</ele><time>2026-04-11T13:41:46Z</time></trkpt><trkpt lat="43.5199731767231" lon="5.940963627499541"><ele>288.2</ele><time>2026-04-11T13:41:47.999Z</time></trkpt><trkpt lat="43.51988253567602" lon="5.940935016313387"><ele>289.8</ele><time>2026-04-11T13:41:49.999Z</time></trkpt><trkpt lat="43.51980991582004" lon="5.9408544041971805"><ele>291.4</ele><time>2026-04-11T13:41:51.999Z</time></trkpt><trkpt lat="43.51974117410591" lon="5.94081553849728"><ele>293.0</ele><time>2026-04-11T13:41:52.999Z</time></trkpt><trkpt lat="43.51964235545987" lon="5.940790839096891"><ele>295.0</ele><time>2026-04-11T13:41:53.999Z</time></trkpt><trkpt lat="43.519521401526305" lon="5.940776455857597"><ele>297.0</ele><time>2026-04-11T13:41:54.999Z</time></trkpt><trkpt lat="43.519394566716976" lon="5.940773800650702"><ele>299.0</ele><time>2026-04-11T13:41:55.999Z</time></trkpt><trkpt lat="43.51925574682372" lon="5.940778540299146"><ele>301.0</ele><time>2026-04-11T13:41:56.999Z</time></trkpt><trkpt lat="43.519107760771114" lon="5.940777255876107"><ele>301.0</ele><time>2026-04-11T13:41:57.999Z</time></trkpt><trkpt lat="43.51898340496602" lon="5.9407574349243415"><ele>301.0</ele><time>2026-04-11T13:41:58.999Z</time></trkpt><trkpt lat="43.518849331578394" lon="5.94071458797964"><ele>301.0</ele><time>2026-04-11T13:41:59.999Z</time></trkpt><trkpt lat="43.51870201516286" lon="5.9406614923811345"><ele>301.0</ele><time>2026-04-11T13:42:00.999Z</time></trkpt><trkpt lat="43.51857109030611" lon="5.940631874905769"><ele>303.0</ele><time>2026-04-11T13:42:01.999Z</time></trkpt><trkpt lat="43.51845254826033" lon="5.940650398989006"><ele>305.0</ele><time>2026-04-11T13:42:02.999Z</time></trkpt><trkpt lat="43.51832698017518" lon="5.94070396351728"><ele>307.0</ele><time>2026-04-11T13:42:03.999Z</time></trkpt><trkpt lat="43.518195256915604" lon="5.9407816607346104"><ele>309.0</ele><time>2026-04-11T13:42:04.999Z</time></trkpt><trkpt lat="43.51808237016779" lon="5.940858133903274"><ele>309.25</ele><time>2026-04-11T13:42:05.999Z</time></trkpt><trkpt lat="43.51797347136527" lon="5.940935802034511"><ele>309.5</ele><time>2026-04-11T13:42:06.999Z</time></trkpt><trkpt lat="43.517869277949806" lon="5.941008286383696"><ele>309.75</ele><time>2026-04-11T13:42:07.999Z</time></trkpt><trkpt lat="43.51775865167576" lon="5.941088744302856"><ele>310.0</ele><time>2026-04-11T13:42:08.999Z</time></trkpt><trkpt lat="43.51765805918774" lon="5.941182056238324"><ele>312.25</ele><time>2026-04-11T13:42:09.999Z</time></trkpt><trkpt lat="43.51755133308455" lon="5.941284925826532"><ele>314.5</ele><time>2026-04-11T13:42:10.999Z</time></trkpt><trkpt lat="43.51744596755979" lon="5.941406668524858"><ele>316.75</ele><time>2026-04-11T13:42:11.999Z</time></trkpt><trkpt lat="43.51732907009068" lon="5.941509422676937"><ele>319.0</ele><time>2026-04-11T13:42:12.999Z</time></trkpt><trkpt lat="43.51724062564391" lon="5.9415189362996"><ele>319.0</ele><time>2026-04-11T13:42:13.999Z</time></trkpt><trkpt lat="43.517139932558756" lon="5.94147691104431"><ele>319.0</ele><time>2026-04-11T13:42:15.999Z</time></trkpt><trkpt lat="43.5169972541752" lon="5.941480617404816"><ele>319.0</ele><time>2026-04-11T13:42:16.999Z</time></trkpt><trkpt lat="43.51684774526206" lon="5.9414633603271145"><ele>319.0</ele><time>2026-04-11T13:42:17.999Z</time></trkpt><trkpt lat="43.51670461911043" lon="5.941458904179209"><ele>320.5</ele><time>2026-04-11T13:42:18.999Z</time></trkpt><trkpt lat="43.51652937040797" lon="5.941463802937342"><ele>322.0</ele><time>2026-04-11T13:42:19.999Z</time></trkpt><trkpt lat="43.51637894281235" lon="5.941474882871299"><ele>323.5</ele><time>2026-04-11T13:42:20.999Z</time></trkpt><trkpt lat="43.516272696940995" lon="5.941473988132008"><ele>325.0</ele><time>2026-04-11T13:42:21.999Z</time></trkpt><trkpt lat="43.516145918639836" lon="5.941475701724769"><ele>326.0</ele><time>2026-04-11T13:42:22.999Z</time></trkpt><trkpt lat="43.51604518590706" lon="5.9414694757204485"><ele>327.0</ele><time>2026-04-11T13:42:23.999Z</time></trkpt><trkpt lat="43.51594644356804" lon="5.941436342620378"><ele>328.0</ele><time>2026-04-11T13:42:24.999Z</time></trkpt><trkpt lat="43.515843147113095" lon="5.941382908968418"><ele>329.0</ele><time>2026-04-11T13:42:25.999Z</time></trkpt><trkpt lat="43.51576244992897" lon="5.941350455276055"><ele>330.0</ele><time>2026-04-11T13:42:26.999Z</time></trkpt><trkpt lat="43.515669522175024" lon="5.9413609707394555"><ele>330.0</ele><time>2026-04-11T13:42:27.999Z</time></trkpt><trkpt lat="43.51558259632994" lon="5.941403798279963"><ele>330.0</ele><time>2026-04-11T13:42:28.999Z</time></trkpt><trkpt lat="43.51549878029867" lon="5.941461008558513"><ele>330.0</ele><time>2026-04-11T13:42:29.999Z</time></trkpt><trkpt lat="43.51540343096487" lon="5.941504935447438"><ele>330.0</ele><time>2026-04-11T13:42:30.999Z</time></trkpt><trkpt lat="43.5152713020074" lon="5.941572848571542"><ele>330.0</ele><time>2026-04-11T13:42:31.999Z</time></trkpt><trkpt lat="43.51515837627696" lon="5.941648774852666"><ele>330.5</ele><time>2026-04-11T13:42:32.999Z</time></trkpt><trkpt lat="43.51504070280651" lon="5.941698625855799"><ele>331.0</ele><time>2026-04-11T13:42:34Z</time></trkpt><trkpt lat="43.514943446445095" lon="5.94169464028276"><ele>331.5</ele><time>2026-04-11T13:42:35Z</time></trkpt><trkpt lat="43.51483186445198" lon="5.941697362040839"><ele>332.0</ele><time>2026-04-11T13:42:37Z</time></trkpt><trkpt lat="43.51483753867422" lon="5.94187817355359"><ele>332.0</ele><time>2026-04-11T13:42:39Z</time></trkpt><trkpt lat="43.51485991340899" lon="5.941975697043731"><ele>332.0</ele><time>2026-04-11T13:42:40Z</time></trkpt><trkpt lat="43.51486764600785" lon="5.942112874072956"><ele>332.0</ele><time>2026-04-11T13:42:41Z</time></trkpt><trkpt lat="43.51486080777987" lon="5.9423205667778"><ele>332.0</ele><time>2026-04-11T13:42:42Z</time></trkpt><trkpt lat="43.51484682925245" lon="5.942560399006146"><ele>332.40000000000003</ele><time>2026-04-11T13:42:43Z</time></trkpt><trkpt lat="43.51483763126271" lon="5.942759920887964"><ele>332.8</ele><time>2026-04-11T13:42:44Z</time></trkpt><trkpt lat="43.51483832010007" lon="5.942875985102175"><ele>333.2</ele><time>2026-04-11T13:42:45Z</time></trkpt><trkpt lat="43.51483542748365" lon="5.943001789523046"><ele>333.6</ele><time>2026-04-11T13:42:47Z</time></trkpt><trkpt lat="43.51476214680472" lon="5.943053146216186"><ele>334.0</ele><time>2026-04-11T13:42:49Z</time></trkpt><trkpt lat="43.51467469217047" lon="5.943017086045128"><ele>334.0</ele><time>2026-04-11T13:42:51Z</time></trkpt><trkpt lat="43.5145950787432" lon="5.942965323213754"><ele>334.0</ele><time>2026-04-11T13:42:52Z</time></trkpt><trkpt lat="43.51447597693386" lon="5.942897556072354"><ele>334.0</ele><time>2026-04-11T13:42:53Z</time></trkpt><trkpt lat="43.51433659629075" lon="5.942824464550721"><ele>334.0</ele><time>2026-04-11T13:42:54Z</time></trkpt><trkpt lat="43.514198883343354" lon="5.942779417997002"><ele>334.2</ele><time>2026-04-11T13:42:55Z</time></trkpt><trkpt lat="43.51408514951725" lon="5.942791684269303"><ele>334.4</ele><time>2026-04-11T13:42:56Z</time></trkpt><trkpt lat="43.51398319607442" lon="5.9428498005181725"><ele>334.6</ele><time>2026-04-11T13:42:57Z</time></trkpt><trkpt lat="43.51388477289434" lon="5.94290669869883"><ele>334.8</ele><time>2026-04-11T13:42:58Z</time></trkpt><trkpt lat="43.513774199492325" lon="5.94292819073966"><ele>335.0</ele><time>2026-04-11T13:42:59Z</time></trkpt><trkpt lat="43.51362793408961" lon="5.942919818327918"><ele>333.25</ele><time>2026-04-11T13:43:00Z</time></trkpt><trkpt lat="43.5134714959712" lon="5.942895176749544"><ele>331.5</ele><time>2026-04-11T13:43:01Z</time></trkpt><trkpt lat="43.51333153892632" lon="5.942858314392057"><ele>329.75</ele><time>2026-04-11T13:43:02Z</time></trkpt><trkpt lat="43.513211714381015" lon="5.942806193393369"><ele>328.0</ele><time>2026-04-11T13:43:03Z</time></trkpt><trkpt lat="43.51310795514746" lon="5.942748580619268"><ele>328.0</ele><time>2026-04-11T13:43:04Z</time></trkpt><trkpt lat="43.51301131949324" lon="5.942684250045724"><ele>328.0</ele><time>2026-04-11T13:43:05Z</time></trkpt><trkpt lat="43.512915048892964" lon="5.942633276420051"><ele>328.0</ele><time>2026-04-11T13:43:06Z</time></trkpt><trkpt lat="43.512801884376465" lon="5.942615520459175"><ele>328.0</ele><time>2026-04-11T13:43:07Z</time></trkpt><trkpt lat="43.512682295352725" lon="5.942626527109224"><ele>328.0</ele><time>2026-04-11T13:43:08Z</time></trkpt><trkpt lat="43.51258164633713" lon="5.942638734030541"><ele>328.16666666666663</ele><time>2026-04-11T13:43:09Z</time></trkpt><trkpt lat="43.512504527971146" lon="5.9426571717577685"><ele>328.3333333333333</ele><time>2026-04-11T13:43:10Z</time></trkpt><trkpt lat="43.512447624746606" lon="5.942703954556789"><ele>328.5</ele><time>2026-04-11T13:43:11Z</time></trkpt><trkpt lat="43.512410089634066" lon="5.942774846670288"><ele>328.6666666666667</ele><time>2026-04-11T13:43:12Z</time></trkpt><trkpt lat="43.51237160947198" lon="5.942853930560697"><ele>328.83333333333337</ele><time>2026-04-11T13:43:13Z</time></trkpt><trkpt lat="43.51232699414653" lon="5.942925883707571"><ele>329.0</ele><time>2026-04-11T13:43:14Z</time></trkpt><trkpt lat="43.51221961626554" lon="5.942933228119838"><ele>329.0</ele><time>2026-04-11T13:43:16Z</time></trkpt><trkpt lat="43.51211718214271" lon="5.942782254071095"><ele>329.0</ele><time>2026-04-11T13:43:18Z</time></trkpt><trkpt lat="43.51205576324507" lon="5.942633187661333"><ele>329.0</ele><time>2026-04-11T13:43:19Z</time></trkpt><trkpt lat="43.51198651243165" lon="5.942484830523799"><ele>329.0</ele><time>2026-04-11T13:43:20Z</time></trkpt><trkpt lat="43.511888198236505" lon="5.942357544828337"><ele>330.5</ele><time>2026-04-11T13:43:21Z</time></trkpt><trkpt lat="43.51177417163361" lon="5.942224959961476"><ele>332.0</ele><time>2026-04-11T13:43:22Z</time></trkpt><trkpt lat="43.51167333621527" lon="5.942115216164727"><ele>333.5</ele><time>2026-04-11T13:43:23Z</time></trkpt><trkpt lat="43.511572330540695" lon="5.942029789782985"><ele>335.0</ele><time>2026-04-11T13:43:24Z</time></trkpt><trkpt lat="43.5114561686955" lon="5.941968989250056"><ele>335.0</ele><time>2026-04-11T13:43:25Z</time></trkpt><trkpt lat="43.51129900639564" lon="5.941918456289066"><ele>335.0</ele><time>2026-04-11T13:43:26Z</time></trkpt><trkpt lat="43.51111257996847" lon="5.941861101127149"><ele>335.0</ele><time>2026-04-11T13:43:27Z</time></trkpt><trkpt lat="43.510948445331536" lon="5.94179989441785"><ele>334.5</ele><time>2026-04-11T13:43:28Z</time></trkpt><trkpt lat="43.51081215288871" lon="5.941744508102969"><ele>334.0</ele><time>2026-04-11T13:43:29Z</time></trkpt><trkpt lat="43.51068823556326" lon="5.941698039201449"><ele>333.5</ele><time>2026-04-11T13:43:30Z</time></trkpt><trkpt lat="43.51057746454564" lon="5.941658630091475"><ele>333.0</ele><time>2026-04-11T13:43:31Z</time></trkpt><trkpt lat="43.510474571551676" lon="5.941620886828083"><ele>333.5</ele><time>2026-04-11T13:43:32Z</time></trkpt><trkpt lat="43.51037611920474" lon="5.9415914206564535"><ele>334.0</ele><time>2026-04-11T13:43:33Z</time></trkpt><trkpt lat="43.51026573783567" lon="5.941547767192224"><ele>334.5</ele><time>2026-04-11T13:43:34Z</time></trkpt><trkpt lat="43.510150218732015" lon="5.94146705447207"><ele>335.0</ele><time>2026-04-11T13:43:35Z</time></trkpt><trkpt lat="43.51003226705767" lon="5.941358553412326"><ele>335.0</ele><time>2026-04-11T13:43:36Z</time></trkpt><trkpt lat="43.5099327261973" lon="5.941246163420178"><ele>335.0</ele><time>2026-04-11T13:43:37Z</time></trkpt><trkpt lat="43.50985351197355" lon="5.94112266266777"><ele>335.0</ele><time>2026-04-11T13:43:38Z</time></trkpt><trkpt lat="43.509787380763925" lon="5.940986554516409"><ele>335.0</ele><time>2026-04-11T13:43:39Z</time></trkpt><trkpt lat="43.50971071465737" lon="5.940832276228107"><ele>334.0</ele><time>2026-04-11T13:43:40Z</time></trkpt><trkpt lat="43.50961536175833" lon="5.940663542910788"><ele>333.0</ele><time>2026-04-11T13:43:41Z</time></trkpt><trkpt lat="43.50950917585926" lon="5.940497909222154"><ele>332.0</ele><time>2026-04-11T13:43:42Z</time></trkpt><trkpt lat="43.50940976534453" lon="5.940346896301629"><ele>332.0</ele><time>2026-04-11T13:43:43Z</time></trkpt><trkpt lat="43.509315407479306" lon="5.940212855059808"><ele>332.0</ele><time>2026-04-11T13:43:44Z</time></trkpt><trkpt lat="43.50922913329657" lon="5.940079648022986"><ele>332.0</ele><time>2026-04-11T13:43:45Z</time></trkpt><trkpt lat="43.50914835899007" lon="5.939952698338982"><ele>332.0</ele><time>2026-04-11T13:43:46Z</time></trkpt><trkpt lat="43.50908202572597" lon="5.93982964309934"><ele>331.40000000000003</ele><time>2026-04-11T13:43:47Z</time></trkpt><trkpt lat="43.5090393632168" lon="5.9397018532182635"><ele>330.8</ele><time>2026-04-11T13:43:48Z</time></trkpt><trkpt lat="43.509012759690044" lon="5.939576805516968"><ele>330.2</ele><time>2026-04-11T13:43:49Z</time></trkpt><trkpt lat="43.508979677429714" lon="5.939447609202487"><ele>329.6</ele><time>2026-04-11T13:43:50Z</time></trkpt><trkpt lat="43.50893101162317" lon="5.939324534504388"><ele>329.0</ele><time>2026-04-11T13:43:51Z</time></trkpt><trkpt lat="43.508864562946" lon="5.939200971078706"><ele>329.0</ele><time>2026-04-11T13:43:52Z</time></trkpt><trkpt lat="43.50878502701008" lon="5.939088721454084"><ele>329.0</ele><time>2026-04-11T13:43:53Z</time></trkpt><trkpt lat="43.50868387329141" lon="5.938957337876365"><ele>329.0</ele><time>2026-04-11T13:43:54Z</time></trkpt><trkpt lat="43.508568689139715" lon="5.938819960570776"><ele>329.0</ele><time>2026-04-11T13:43:55Z</time></trkpt><trkpt lat="43.50845524442204" lon="5.93869676583369"><ele>329.75</ele><time>2026-04-11T13:43:56Z</time></trkpt><trkpt lat="43.50835956973516" lon="5.938587231579162"><ele>330.5</ele><time>2026-04-11T13:43:57Z</time></trkpt><trkpt lat="43.508277453516726" lon="5.938492599794786"><ele>331.25</ele><time>2026-04-11T13:43:58Z</time></trkpt><trkpt lat="43.50819727759929" lon="5.938369207061289"><ele>332.0</ele><time>2026-04-11T13:43:59Z</time></trkpt><trkpt lat="43.50810392102884" lon="5.938220261706273"><ele>332.33333333333337</ele><time>2026-04-11T13:44:00Z</time></trkpt><trkpt lat="43.50799031108097" lon="5.938063525703625"><ele>332.6666666666667</ele><time>2026-04-11T13:44:01Z</time></trkpt><trkpt lat="43.507860931742435" lon="5.937891137300381"><ele>333.0</ele><time>2026-04-11T13:44:02Z</time></trkpt><trkpt lat="43.50775164310183" lon="5.937746082863293"><ele>333.5</ele><time>2026-04-11T13:44:03Z</time></trkpt><trkpt lat="43.507654956359566" lon="5.937612233832632"><ele>334.0</ele><time>2026-04-11T13:44:04Z</time></trkpt><trkpt lat="43.507572522848754" lon="5.937485104777786"><ele>334.5</ele><time>2026-04-11T13:44:05Z</time></trkpt><trkpt lat="43.50750015870097" lon="5.937360908439072"><ele>335.0</ele><time>2026-04-11T13:44:06Z</time></trkpt><trkpt lat="43.5074429494846" lon="5.937251565005685"><ele>335.0</ele><time>2026-04-11T13:44:07Z</time></trkpt><trkpt lat="43.507397718722366" lon="5.93714112357162"><ele>335.0</ele><time>2026-04-11T13:44:09Z</time></trkpt><trkpt lat="43.507316614317546" lon="5.937103169890346"><ele>335.0</ele><time>2026-04-11T13:44:29Z</time></trkpt><trkpt lat="43.50720063405296" lon="5.937101614863161"><ele>335.0</ele><time>2026-04-11T13:44:31Z</time></trkpt><trkpt lat="43.50708455920564" lon="5.9370081135208865"><ele>335.0</ele><time>2026-04-11T13:44:33Z</time></trkpt><trkpt lat="43.506987105251035" lon="5.936953037593287"><ele>336.0</ele><time>2026-04-11T13:44:34Z</time></trkpt><trkpt lat="43.50691785802365" lon="5.936951538609791"><ele>337.0</ele><time>2026-04-11T13:44:35Z</time></trkpt><trkpt lat="43.506830291460666" lon="5.936977822387711"><ele>338.0</ele><time>2026-04-11T13:44:36Z</time></trkpt><trkpt lat="43.50672945155419" lon="5.936987888028335"><ele>339.0</ele><time>2026-04-11T13:44:37Z</time></trkpt><trkpt lat="43.5066598481592" lon="5.937015977884581"><ele>340.0</ele><time>2026-04-11T13:44:38Z</time></trkpt><trkpt lat="43.50657094064832" lon="5.937125515948941"><ele>340.0</ele><time>2026-04-11T13:44:40Z</time></trkpt><trkpt lat="43.50651382838229" lon="5.937193401943928"><ele>340.0</ele><time>2026-04-11T13:44:41Z</time></trkpt><trkpt lat="43.50644045072941" lon="5.937220070003686"><ele>340.0</ele><time>2026-04-11T13:44:42Z</time></trkpt><trkpt lat="43.50634768357566" lon="5.9372113837582265"><ele>340.0</ele><time>2026-04-11T13:44:43Z</time></trkpt><trkpt lat="43.506219911622374" lon="5.937176932883429"><ele>340.0</ele><time>2026-04-11T13:44:44Z</time></trkpt><trkpt lat="43.506122615559285" lon="5.937179213772956"><ele>341.0</ele><time>2026-04-11T13:44:45Z</time></trkpt><trkpt lat="43.50601541682955" lon="5.937182724002969"><ele>342.0</ele><time>2026-04-11T13:44:46Z</time></trkpt><trkpt lat="43.50590591543255" lon="5.937172069417216"><ele>343.0</ele><time>2026-04-11T13:44:47Z</time></trkpt><trkpt lat="43.505815647006536" lon="5.937180168285317"><ele>344.0</ele><time>2026-04-11T13:44:48Z</time></trkpt><trkpt lat="43.50569327602384" lon="5.9372881451473525"><ele>344.0</ele><time>2026-04-11T13:44:50Z</time></trkpt><trkpt lat="43.50562178846122" lon="5.93734885476301"><ele>344.0</ele><time>2026-04-11T13:44:51Z</time></trkpt><trkpt lat="43.50554273904373" lon="5.937396364632212"><ele>344.0</ele><time>2026-04-11T13:44:52Z</time></trkpt><trkpt lat="43.50546670455989" lon="5.9374424299606545"><ele>344.0</ele><time>2026-04-11T13:44:53Z</time></trkpt><trkpt lat="43.50539874394151" lon="5.937469854266204"><ele>344.0</ele><time>2026-04-11T13:45:00Z</time></trkpt><trkpt lat="43.50527781691083" lon="5.937395422183785"><ele>344.25</ele><time>2026-04-11T13:45:02Z</time></trkpt><trkpt lat="43.50518045802446" lon="5.937393398573729"><ele>344.5</ele><time>2026-04-11T13:45:03Z</time></trkpt><trkpt lat="43.50500562876928" lon="5.937406404080372"><ele>344.75</ele><time>2026-04-11T13:45:04Z</time></trkpt><trkpt lat="43.50487912362014" lon="5.9374003977499505"><ele>345.0</ele><time>2026-04-11T13:45:05Z</time></trkpt><trkpt lat="43.504777333516834" lon="5.937401097141508"><ele>345.0</ele><time>2026-04-11T13:45:06Z</time></trkpt><trkpt lat="43.50467854765214" lon="5.937434856523291"><ele>345.0</ele><time>2026-04-11T13:45:07Z</time></trkpt><trkpt lat="43.50459744662567" lon="5.93746560346295"><ele>345.0</ele><time>2026-04-11T13:45:08Z</time></trkpt><trkpt lat="43.50452113247045" lon="5.937504261872251"><ele>345.0</ele><time>2026-04-11T13:45:09Z</time></trkpt><trkpt lat="43.504449295137356" lon="5.9375765423198"><ele>345.0</ele><time>2026-04-11T13:45:10Z</time></trkpt><trkpt lat="43.50436469863048" lon="5.937644892982741"><ele>345.1666666666667</ele><time>2026-04-11T13:45:11Z</time></trkpt><trkpt lat="43.50428367663247" lon="5.937710391037686"><ele>345.3333333333333</ele><time>2026-04-11T13:45:12Z</time></trkpt><trkpt lat="43.504227796319334" lon="5.937792133305067"><ele>345.5</ele><time>2026-04-11T13:45:13Z</time></trkpt><trkpt lat="43.5041722567057" lon="5.937882545360322"><ele>345.66666666666663</ele><time>2026-04-11T13:45:14Z</time></trkpt><trkpt lat="43.504113016476744" lon="5.937986672135771"><ele>345.8333333333333</ele><time>2026-04-11T13:45:15Z</time></trkpt><trkpt lat="43.5040815969283" lon="5.938087382698667"><ele>346.0</ele><time>2026-04-11T13:45:16Z</time></trkpt><trkpt lat="43.50405320124911" lon="5.938180562969976"><ele>346.0</ele><time>2026-04-11T13:45:17Z</time></trkpt><trkpt lat="43.50396450014066" lon="5.938254835497027"><ele>346.0</ele><time>2026-04-11T13:45:19Z</time></trkpt><trkpt lat="43.503908205153586" lon="5.938296484665861"><ele>346.0</ele><time>2026-04-11T13:45:20Z</time></trkpt><trkpt lat="43.5038574332128" lon="5.938357315781287"><ele>346.0</ele><time>2026-04-11T13:45:21Z</time></trkpt><trkpt lat="43.50376777823431" lon="5.938451423702325"><ele>346.0</ele><time>2026-04-11T13:45:22Z</time></trkpt><trkpt lat="43.503694045028084" lon="5.938587653491599"><ele>346.3333333333333</ele><time>2026-04-11T13:45:24Z</time></trkpt><trkpt lat="43.50367485754601" lon="5.938683817785342"><ele>346.66666666666663</ele><time>2026-04-11T13:45:25Z</time></trkpt><trkpt lat="43.5036599515674" lon="5.938789950125002"><ele>347.0</ele><time>2026-04-11T13:45:26Z</time></trkpt><trkpt lat="43.5036428974264" lon="5.938900713301854"><ele>347.3333333333333</ele><time>2026-04-11T13:45:27Z</time></trkpt><trkpt lat="43.503617591703296" lon="5.93898255225835"><ele>347.6666666666667</ele><time>2026-04-11T13:45:28Z</time></trkpt><trkpt lat="43.503563691307306" lon="5.939047136112928"><ele>348.0</ele><time>2026-04-11T13:45:29Z</time></trkpt><trkpt lat="43.50347346710552" lon="5.939145964890586"><ele>349.25</ele><time>2026-04-11T13:45:30Z</time></trkpt><trkpt lat="43.503386135036294" lon="5.93930834701193"><ele>350.5</ele><time>2026-04-11T13:45:31Z</time></trkpt><trkpt lat="43.50329740395567" lon="5.939506649503754"><ele>351.75</ele><time>2026-04-11T13:45:32Z</time></trkpt><trkpt lat="43.503216894057324" lon="5.939648956150006"><ele>353.0</ele><time>2026-04-11T13:45:33Z</time></trkpt><trkpt lat="43.503136277707895" lon="5.9397639801876165"><ele>353.0</ele><time>2026-04-11T13:45:34Z</time></trkpt><trkpt lat="43.50305736171382" lon="5.939875722922422"><ele>353.0</ele><time>2026-04-11T13:45:35Z</time></trkpt><trkpt lat="43.50299932859348" lon="5.939962693486579"><ele>353.0</ele><time>2026-04-11T13:45:36Z</time></trkpt><trkpt lat="43.50293770734264" lon="5.940024367614785"><ele>353.0</ele><time>2026-04-11T13:45:37Z</time></trkpt><trkpt lat="43.502865304733625" lon="5.940075146226085"><ele>353.0</ele><time>2026-04-11T13:45:38Z</time></trkpt><trkpt lat="43.50273820274066" lon="5.9401918677385215"><ele>353.25</ele><time>2026-04-11T13:45:39Z</time></trkpt><trkpt lat="43.502636186703" lon="5.940268931158034"><ele>353.5</ele><time>2026-04-11T13:45:40Z</time></trkpt><trkpt lat="43.50253887427753" lon="5.940323791155615"><ele>353.75</ele><time>2026-04-11T13:45:41Z</time></trkpt><trkpt lat="43.502419775158934" lon="5.9403683998720025"><ele>354.0</ele><time>2026-04-11T13:45:42Z</time></trkpt><trkpt lat="43.502309816439805" lon="5.9404279772358475"><ele>354.0</ele><time>2026-04-11T13:45:43Z</time></trkpt><trkpt lat="43.502229609577284" lon="5.940512355853073"><ele>354.0</ele><time>2026-04-11T13:45:44Z</time></trkpt><trkpt lat="43.50216542434799" lon="5.940548835756503"><ele>354.0</ele><time>2026-04-11T13:45:45Z</time></trkpt><trkpt lat="43.50206852006273" lon="5.940531546561823"><ele>354.0</ele><time>2026-04-11T13:45:47Z</time></trkpt><trkpt lat="43.50190056962788" lon="5.940536948708687"><ele>354.0</ele><time>2026-04-11T13:45:49Z</time></trkpt><trkpt lat="43.501791766349534" lon="5.940563299971146"><ele>354.2</ele><time>2026-04-11T13:45:50Z</time></trkpt><trkpt lat="43.501676958033784" lon="5.940580016586994"><ele>354.4</ele><time>2026-04-11T13:45:51Z</time></trkpt><trkpt lat="43.50158393887348" lon="5.940607983150408"><ele>354.6</ele><time>2026-04-11T13:45:52Z</time></trkpt><trkpt lat="43.50151055753652" lon="5.940605663060972"><ele>354.8</ele><time>2026-04-11T13:45:53Z</time></trkpt><trkpt lat="43.50142981614963" lon="5.940649884747322"><ele>355.0</ele><time>2026-04-11T13:45:54Z</time></trkpt><trkpt lat="43.501333947553626" lon="5.940707863850361"><ele>355.6</ele><time>2026-04-11T13:45:55Z</time></trkpt><trkpt lat="43.50122566527145" lon="5.940749693403602"><ele>356.2</ele><time>2026-04-11T13:45:56Z</time></trkpt><trkpt lat="43.501133462149184" lon="5.940753236331703"><ele>356.79999999999995</ele><time>2026-04-11T13:45:57Z</time></trkpt><trkpt lat="43.50104806314589" lon="5.940766238720114"><ele>357.4</ele><time>2026-04-11T13:45:58Z</time></trkpt><trkpt lat="43.5009394152231" lon="5.940810216757618"><ele>358.0</ele><time>2026-04-11T13:45:59Z</time></trkpt><trkpt lat="43.50084611667764" lon="5.940823306116417"><ele>358.0</ele><time>2026-04-11T13:46:00Z</time></trkpt><trkpt lat="43.50073673556996" lon="5.940808700634195"><ele>358.0</ele><time>2026-04-11T13:46:01Z</time></trkpt><trkpt lat="43.500671793314574" lon="5.940783511243246"><ele>358.0</ele><time>2026-04-11T13:46:02Z</time></trkpt><trkpt lat="43.500598897235804" lon="5.940818839406359"><ele>358.0</ele><time>2026-04-11T13:46:03Z</time></trkpt><trkpt lat="43.500530801335934" lon="5.940865032809486"><ele>358.0</ele><time>2026-04-11T13:46:04Z</time></trkpt><trkpt lat="43.500461759876174" lon="5.940886728092784"><ele>358.0</ele><time>2026-04-11T13:46:05Z</time></trkpt><trkpt lat="43.50034449852785" lon="5.9408961490473144"><ele>356.0</ele><time>2026-04-11T13:46:06Z</time></trkpt><trkpt lat="43.50020471686324" lon="5.940896279744188"><ele>354.0</ele><time>2026-04-11T13:46:07Z</time></trkpt><trkpt lat="43.50011178771009" lon="5.940889796875238"><ele>352.0</ele><time>2026-04-11T13:46:08Z</time></trkpt><trkpt lat="43.50000241589478" lon="5.94092717572428"><ele>350.0</ele><time>2026-04-11T13:46:10Z</time></trkpt><trkpt lat="43.49992572315264" lon="5.940987862269485"><ele>348.0</ele><time>2026-04-11T13:46:11Z</time></trkpt><trkpt lat="43.49984752266089" lon="5.941038547775114"><ele>348.0</ele><time>2026-04-11T13:46:12Z</time></trkpt><trkpt lat="43.499769131416244" lon="5.941057613318511"><ele>348.0</ele><time>2026-04-11T13:46:13Z</time></trkpt><trkpt lat="43.49970427512082" lon="5.941053781003757"><ele>348.0</ele><time>2026-04-11T13:46:14Z</time></trkpt><trkpt lat="43.49964900588926" lon="5.941102521767709"><ele>348.0</ele><time>2026-04-11T13:46:16Z</time></trkpt><trkpt lat="43.49962712470553" lon="5.941222533268227"><ele>348.0</ele><time>2026-04-11T13:46:18Z</time></trkpt><trkpt lat="43.49956534586755" lon="5.94130274905343"><ele>348.0</ele><time>2026-04-11T13:46:20Z</time></trkpt><trkpt lat="43.499444480000115" lon="5.941350554744178"><ele>348.0</ele><time>2026-04-11T13:46:22Z</time></trkpt><trkpt lat="43.499377426362514" lon="5.941387608733736"><ele>348.0</ele><time>2026-04-11T13:46:23Z</time></trkpt><trkpt lat="43.49931545263221" lon="5.941460139083345"><ele>348.0</ele><time>2026-04-11T13:46:24Z</time></trkpt><trkpt lat="43.49924957113403" lon="5.94154561319048"><ele>348.0</ele><time>2026-04-11T13:46:25Z</time></trkpt><trkpt lat="43.49915788829028" lon="5.941592319585692"><ele>348.0</ele><time>2026-04-11T13:46:27Z</time></trkpt><trkpt lat="43.49909166790988" lon="5.941608280688934"><ele>348.0</ele><time>2026-04-11T13:46:28Z</time></trkpt><trkpt lat="43.499008282420654" lon="5.941644518788266"><ele>348.0</ele><time>2026-04-11T13:46:29Z</time></trkpt><trkpt lat="43.49894342029913" lon="5.9416604007502665"><ele>348.0</ele><time>2026-04-11T13:46:30Z</time></trkpt><trkpt lat="43.49882645403745" lon="5.941670612205036"><ele>348.0</ele><time>2026-04-11T13:46:32Z</time></trkpt><trkpt lat="43.498722875308" lon="5.941749060876491"><ele>348.0</ele><time>2026-04-11T13:46:34Z</time></trkpt><trkpt lat="43.498608232590726" lon="5.941770694317667"><ele>348.0</ele><time>2026-04-11T13:46:36Z</time></trkpt><trkpt lat="43.49849612392951" lon="5.941832471343195"><ele>345.79999999999995</ele><time>2026-04-11T13:46:38Z</time></trkpt><trkpt lat="43.498401199207485" lon="5.941884956415841"><ele>343.6</ele><time>2026-04-11T13:46:40Z</time></trkpt><trkpt lat="43.498304642782216" lon="5.941862626536266"><ele>341.4</ele><time>2026-04-11T13:46:42Z</time></trkpt><trkpt lat="43.49821393796284" lon="5.941839233024509"><ele>339.20000000000005</ele><time>2026-04-11T13:46:43Z</time></trkpt><trkpt lat="43.498128506707985" lon="5.941849385963493"><ele>337.0</ele><time>2026-04-11T13:46:44Z</time></trkpt><trkpt lat="43.498054394707594" lon="5.9418798919766145"><ele>337.0</ele><time>2026-04-11T13:46:45Z</time></trkpt><trkpt lat="43.4979498005672" lon="5.941918726592468"><ele>337.0</ele><time>2026-04-11T13:46:46Z</time></trkpt><trkpt lat="43.497888055154725" lon="5.941939536022576"><ele>337.0</ele><time>2026-04-11T13:46:47Z</time></trkpt><trkpt lat="43.497769422829236" lon="5.942051614128957"><ele>337.0</ele><time>2026-04-11T13:46:49Z</time></trkpt><trkpt lat="43.49770443306125" lon="5.9421439231728"><ele>337.0</ele><time>2026-04-11T13:46:50Z</time></trkpt><trkpt lat="43.49766047890025" lon="5.94222890013614"><ele>337.40000000000003</ele><time>2026-04-11T13:46:51Z</time></trkpt><trkpt lat="43.49761305791878" lon="5.942297251664109"><ele>337.8</ele><time>2026-04-11T13:46:52Z</time></trkpt><trkpt lat="43.497538094860154" lon="5.9423339234279196"><ele>338.2</ele><time>2026-04-11T13:46:53Z</time></trkpt><trkpt lat="43.497488805010235" lon="5.9424058691144594"><ele>338.6</ele><time>2026-04-11T13:46:55Z</time></trkpt><trkpt lat="43.49744719160721" lon="5.942515129590099"><ele>339.0</ele><time>2026-04-11T13:46:59Z</time></trkpt><trkpt lat="43.49730517690409" lon="5.942598122186917"><ele>336.8333333333333</ele><time>2026-04-11T13:47:01Z</time></trkpt><trkpt lat="43.49727436077912" lon="5.9426757494595615"><ele>334.6666666666667</ele><time>2026-04-11T13:47:02Z</time></trkpt><trkpt lat="43.49725222931772" lon="5.942797814067717"><ele>332.5</ele><time>2026-04-11T13:47:04Z</time></trkpt><trkpt lat="43.49722147116037" lon="5.942877070484574"><ele>330.33333333333337</ele><time>2026-04-11T13:47:05Z</time></trkpt><trkpt lat="43.497169362986206" lon="5.9430156006978105"><ele>328.1666666666667</ele><time>2026-04-11T13:47:07Z</time></trkpt><trkpt lat="43.4971418074649" lon="5.94313622398629"><ele>326.0</ele><time>2026-04-11T13:47:09Z</time></trkpt><trkpt lat="43.49711091394259" lon="5.943255684279828"><ele>324.6666666666667</ele><time>2026-04-11T13:47:11Z</time></trkpt><trkpt lat="43.49706301457507" lon="5.94342702610957"><ele>323.33333333333337</ele><time>2026-04-11T13:47:13Z</time></trkpt><trkpt lat="43.49704781196147" lon="5.94351135694486"><ele>322.0</ele><time>2026-04-11T13:47:14Z</time></trkpt><trkpt lat="43.49704418504325" lon="5.943603516040334"><ele>320.6666666666667</ele><time>2026-04-11T13:47:15Z</time></trkpt><trkpt lat="43.497093261840654" lon="5.9436976057449415"><ele>319.3333333333333</ele><time>2026-04-11T13:47:18Z</time></trkpt><trkpt lat="43.497096824825306" lon="5.943794216359991"><ele>318.0</ele><time>2026-04-11T13:47:20Z</time></trkpt><trkpt lat="43.49705117954801" lon="5.943936392716177"><ele>317.4285714285714</ele><time>2026-04-11T13:47:22Z</time></trkpt><trkpt lat="43.49702857149059" lon="5.944019925465821"><ele>316.8571428571429</ele><time>2026-04-11T13:47:23Z</time></trkpt><trkpt lat="43.496982266026265" lon="5.944117699622364"><ele>316.2857142857143</ele><time>2026-04-11T13:47:25Z</time></trkpt><trkpt lat="43.49692350236964" lon="5.944180708529779"><ele>315.71428571428567</ele><time>2026-04-11T13:48:04Z</time></trkpt><trkpt lat="43.496858590267486" lon="5.944174401380717"><ele>315.1428571428571</ele><time>2026-04-11T13:48:08Z</time></trkpt><trkpt lat="43.49679028205144" lon="5.944139665595634"><ele>314.57142857142856</ele><time>2026-04-11T13:48:12Z</time></trkpt><trkpt lat="43.49672605609613" lon="5.944074020314538"><ele>314.0</ele><time>2026-04-11T13:48:19Z</time></trkpt><trkpt lat="43.496660032534706" lon="5.9441071917962"><ele>314.0</ele><time>2026-04-11T13:48:22Z</time></trkpt><trkpt lat="43.49659466120574" lon="5.944165472438381"><ele>314.0</ele><time>2026-04-11T13:48:25Z</time></trkpt><trkpt lat="43.49653295048509" lon="5.9442044927029345"><ele>314.0</ele><time>2026-04-11T13:48:27Z</time></trkpt><trkpt lat="43.49645968529332" lon="5.944237451492182"><ele>314.0</ele><time>2026-04-11T13:48:30Z</time></trkpt><trkpt lat="43.49639504935175" lon="5.9442758477042315"><ele>314.0</ele><time>2026-04-11T13:48:33Z</time></trkpt><trkpt lat="43.496322477906446" lon="5.944307862946735"><ele>314.0</ele><time>2026-04-11T13:48:36Z</time></trkpt><trkpt lat="43.49624403273869" lon="5.9443378014991115"><ele>310.1666666666667</ele><time>2026-04-11T13:48:40Z</time></trkpt><trkpt lat="43.4961803759814" lon="5.944434641374229"><ele>306.33333333333337</ele><time>2026-04-11T13:48:43Z</time></trkpt><trkpt lat="43.49611538127651" lon="5.944478600691065"><ele>302.5</ele><time>2026-04-11T13:48:48Z</time></trkpt><trkpt lat="43.49604665049493" lon="5.9444898544949805"><ele>298.6666666666667</ele><time>2026-04-11T13:48:50Z</time></trkpt><trkpt lat="43.49600071387759" lon="5.944564989183168"><ele>294.8333333333333</ele><time>2026-04-11T13:48:55Z</time></trkpt><trkpt lat="43.49595316968953" lon="5.944631304696585"><ele>291.0</ele><time>2026-04-11T13:49:00Z</time></trkpt><trkpt lat="43.4958917701753" lon="5.944701817620204"><ele>291.0</ele><time>2026-04-11T13:49:06Z</time></trkpt><trkpt lat="43.49583274469923" lon="5.944745629946375"><ele>291.0</ele><time>2026-04-11T13:49:11Z</time></trkpt><trkpt lat="43.495819856380045" lon="5.944835139381625"><ele>291.0</ele><time>2026-04-11T13:49:14Z</time></trkpt><trkpt lat="43.49579878661333" lon="5.944919963925403"><ele>291.0</ele><time>2026-04-11T13:49:17Z</time></trkpt><trkpt lat="43.49574489235082" lon="5.944973273465434"><ele>291.0</ele><time>2026-04-11T13:49:21Z</time></trkpt><trkpt lat="43.49571007919519" lon="5.9450700327706185"><ele>291.0</ele><time>2026-04-11T13:49:27Z</time></trkpt><trkpt lat="43.49567216850969" lon="5.945172475123199"><ele>291.0</ele><time>2026-04-11T13:49:30Z</time></trkpt><trkpt lat="43.49566738735507" lon="5.945260839439809"><ele>288.5</ele><time>2026-04-11T13:49:32Z</time></trkpt><trkpt lat="43.495665766755124" lon="5.945371744410371"><ele>286.0</ele><time>2026-04-11T13:49:35Z</time></trkpt><trkpt lat="43.495648125842884" lon="5.945490286646541"><ele>283.5</ele><time>2026-04-11T13:49:38Z</time></trkpt><trkpt lat="43.49560911896964" lon="5.9456114717224455"><ele>281.0</ele><time>2026-04-11T13:49:40Z</time></trkpt><trkpt lat="43.49557492294943" lon="5.945702274168921"><ele>278.5</ele><time>2026-04-11T13:51:11Z</time></trkpt><trkpt lat="43.495555841560154" lon="5.945787297026072"><ele>276.0</ele><time>2026-04-11T13:51:25Z</time></trkpt><trkpt lat="43.4955003251107" lon="5.945866289902485"><ele>275.3333333333333</ele><time>2026-04-11T13:51:27Z</time></trkpt><trkpt lat="43.49543515628272" lon="5.945986875923111"><ele>274.6666666666667</ele><time>2026-04-11T13:51:29Z</time></trkpt><trkpt lat="43.49539743529376" lon="5.946068156444308"><ele>274.0</ele><time>2026-04-11T13:51:30Z</time></trkpt><trkpt lat="43.49535267491964" lon="5.946167521248916"><ele>273.33333333333337</ele><time>2026-04-11T13:51:31Z</time></trkpt><trkpt lat="43.495306735886956" lon="5.9462484043393316"><ele>272.6666666666667</ele><time>2026-04-11T13:51:32Z</time></trkpt><trkpt lat="43.49526530731831" lon="5.946321912606149"><ele>272.0</ele><time>2026-04-11T13:51:33Z</time></trkpt><trkpt lat="43.4952244762782" lon="5.946407629153682"><ele>272.0</ele><time>2026-04-11T13:51:34Z</time></trkpt><trkpt lat="43.49517365863808" lon="5.946521661025899"><ele>272.0</ele><time>2026-04-11T13:51:35Z</time></trkpt><trkpt lat="43.495114173653796" lon="5.946649751846972"><ele>272.0</ele><time>2026-04-11T13:51:36Z</time></trkpt><trkpt lat="43.495065817513904" lon="5.946763360671088"><ele>272.0</ele><time>2026-04-11T13:51:37Z</time></trkpt><trkpt lat="43.49502528861685" lon="5.946868055470211"><ele>272.0</ele><time>2026-04-11T13:51:38Z</time></trkpt><trkpt lat="43.49497823112469" lon="5.946975516910357"><ele>271.6</ele><time>2026-04-11T13:51:39Z</time></trkpt><trkpt lat="43.49492237358355" lon="5.9470941572556955"><ele>271.2</ele><time>2026-04-11T13:51:40Z</time></trkpt><trkpt lat="43.49486237450358" lon="5.947215428833127"><ele>270.8</ele><time>2026-04-11T13:51:41Z</time></trkpt><trkpt lat="43.49480239378589" lon="5.947324327052335"><ele>270.4</ele><time>2026-04-11T13:51:42Z</time></trkpt><trkpt lat="43.49474643987324" lon="5.947420382202407"><ele>270.0</ele><time>2026-04-11T13:51:43Z</time></trkpt><trkpt lat="43.494691291673" lon="5.947505991235267"><ele>270.6</ele><time>2026-04-11T13:51:44Z</time></trkpt><trkpt lat="43.49463457994235" lon="5.94757063962681"><ele>271.2</ele><time>2026-04-11T13:51:45Z</time></trkpt><trkpt lat="43.494525437407866" lon="5.94764133522435"><ele>271.8</ele><time>2026-04-11T13:51:47Z</time></trkpt><trkpt lat="43.49439129503464" lon="5.947663505192516"><ele>272.4</ele><time>2026-04-11T13:51:49Z</time></trkpt><trkpt lat="43.494294774701025" lon="5.947657585710766"><ele>273.0</ele><time>2026-04-11T13:51:50Z</time></trkpt><trkpt lat="43.494175430475956" lon="5.947646082731452"><ele>271.5</ele><time>2026-04-11T13:51:50.999Z</time></trkpt><trkpt lat="43.49403971044807" lon="5.947629658761442"><ele>270.0</ele><time>2026-04-11T13:51:51.999Z</time></trkpt><trkpt lat="43.49390812709959" lon="5.94760629366087"><ele>268.5</ele><time>2026-04-11T13:51:52.999Z</time></trkpt><trkpt lat="43.493786386663764" lon="5.947573868423644"><ele>267.0</ele><time>2026-04-11T13:51:53.999Z</time></trkpt><trkpt lat="43.49364816485211" lon="5.947548927174638"><ele>267.3333333333333</ele><time>2026-04-11T13:51:54.999Z</time></trkpt><trkpt lat="43.49348847424187" lon="5.9475414557901445"><ele>267.66666666666663</ele><time>2026-04-11T13:51:55.999Z</time></trkpt><trkpt lat="43.493335462811764" lon="5.947555653596822"><ele>268.0</ele><time>2026-04-11T13:51:56.999Z</time></trkpt><trkpt lat="43.49319006901701" lon="5.947577629462694"><ele>265.66666666666663</ele><time>2026-04-11T13:51:57.999Z</time></trkpt><trkpt lat="43.49304630064454" lon="5.94759185229344"><ele>263.3333333333333</ele><time>2026-04-11T13:51:59Z</time></trkpt><trkpt lat="43.49289610024023" lon="5.947597263254784"><ele>261.0</ele><time>2026-04-11T13:52:00Z</time></trkpt><trkpt lat="43.492732486431116" lon="5.9475900780561615"><ele>259.0</ele><time>2026-04-11T13:52:01Z</time></trkpt><trkpt lat="43.49256736357725" lon="5.947598696504884"><ele>257.0</ele><time>2026-04-11T13:52:02Z</time></trkpt><trkpt lat="43.49238750834655" lon="5.9476412006649095"><ele>255.0</ele><time>2026-04-11T13:52:03Z</time></trkpt><trkpt lat="43.49220905733198" lon="5.947683667817405"><ele>255.33333333333331</ele><time>2026-04-11T13:52:04Z</time></trkpt><trkpt lat="43.49203772147126" lon="5.94771928954699"><ele>255.66666666666666</ele><time>2026-04-11T13:52:05Z</time></trkpt><trkpt lat="43.49187800617054" lon="5.947753596861476"><ele>256.0</ele><time>2026-04-11T13:52:06Z</time></trkpt><trkpt lat="43.491722191204964" lon="5.947791483654689"><ele>256.0</ele><time>2026-04-11T13:52:07Z</time></trkpt><trkpt lat="43.49156688526542" lon="5.947842879365514"><ele>256.0</ele><time>2026-04-11T13:52:08Z</time></trkpt><trkpt lat="43.491410093736356" lon="5.94791513716543"><ele>256.0</ele><time>2026-04-11T13:52:09Z</time></trkpt><trkpt lat="43.491241455447955" lon="5.947992273156421"><ele>257.3333333333333</ele><time>2026-04-11T13:52:10Z</time></trkpt><trkpt lat="43.4910759105538" lon="5.948102167449695"><ele>258.6666666666667</ele><time>2026-04-11T13:52:11Z</time></trkpt><trkpt lat="43.49091704013148" lon="5.948214028441362"><ele>260.0</ele><time>2026-04-11T13:52:12Z</time></trkpt><trkpt lat="43.490768251385944" lon="5.948302850013926"><ele>260.0</ele><time>2026-04-11T13:52:13Z</time></trkpt><trkpt lat="43.49062371464528" lon="5.948373829643576"><ele>260.0</ele><time>2026-04-11T13:52:14Z</time></trkpt><trkpt lat="43.490479874337574" lon="5.94843974708616"><ele>260.0</ele><time>2026-04-11T13:52:15Z</time></trkpt><trkpt lat="43.49032681815951" lon="5.948527070372147"><ele>259.33333333333337</ele><time>2026-04-11T13:52:16Z</time></trkpt><trkpt lat="43.49016867112556" lon="5.948639336899971"><ele>258.6666666666667</ele><time>2026-04-11T13:52:17Z</time></trkpt><trkpt lat="43.49000692046546" lon="5.948763336352325"><ele>258.0</ele><time>2026-04-11T13:52:18Z</time></trkpt><trkpt lat="43.489859456780295" lon="5.948880915657543"><ele>258.0</ele><time>2026-04-11T13:52:19Z</time></trkpt><trkpt lat="43.489719676415824" lon="5.948986607896483"><ele>258.0</ele><time>2026-04-11T13:52:20Z</time></trkpt><trkpt lat="43.48958348565519" lon="5.949099014793975"><ele>258.0</ele><time>2026-04-11T13:52:21Z</time></trkpt><trkpt lat="43.489425198351725" lon="5.9491785149888745"><ele>256.6666666666667</ele><time>2026-04-11T13:52:22Z</time></trkpt><trkpt lat="43.489253066075584" lon="5.9492504766525744"><ele>255.33333333333334</ele><time>2026-04-11T13:52:23Z</time></trkpt><trkpt lat="43.48906597815608" lon="5.949312168977178"><ele>254.0</ele><time>2026-04-11T13:52:24Z</time></trkpt><trkpt lat="43.48886747817838" lon="5.949363586108554"><ele>254.33333333333334</ele><time>2026-04-11T13:52:25Z</time></trkpt><trkpt lat="43.48868293287094" lon="5.949402283264124"><ele>254.66666666666669</ele><time>2026-04-11T13:52:26Z</time></trkpt><trkpt lat="43.488510374856894" lon="5.949425090688901"><ele>255.0</ele><time>2026-04-11T13:52:27Z</time></trkpt><trkpt lat="43.4883469024053" lon="5.949434625358437"><ele>255.0</ele><time>2026-04-11T13:52:28Z</time></trkpt><trkpt lat="43.488187351116565" lon="5.9494268239144334"><ele>255.0</ele><time>2026-04-11T13:52:29Z</time></trkpt><trkpt lat="43.48802891200908" lon="5.9494034385987975"><ele>255.0</ele><time>2026-04-11T13:52:30Z</time></trkpt><trkpt lat="43.487864064750504" lon="5.949357670044257"><ele>254.66666666666669</ele><time>2026-04-11T13:52:31Z</time></trkpt><trkpt lat="43.48770430019582" lon="5.949296294941709"><ele>254.33333333333334</ele><time>2026-04-11T13:52:32Z</time></trkpt><trkpt lat="43.48756116174016" lon="5.94922590475761"><ele>254.0</ele><time>2026-04-11T13:52:33Z</time></trkpt><trkpt lat="43.48743100716691" lon="5.949149246083993"><ele>254.75</ele><time>2026-04-11T13:52:34Z</time></trkpt><trkpt lat="43.487311638039436" lon="5.949057864803039"><ele>255.5</ele><time>2026-04-11T13:52:35Z</time></trkpt><trkpt lat="43.487201520966586" lon="5.948959796549962"><ele>256.25</ele><time>2026-04-11T13:52:36Z</time></trkpt><trkpt lat="43.48707903051485" lon="5.948850725511863"><ele>257.0</ele><time>2026-04-11T13:52:37Z</time></trkpt><trkpt lat="43.48694435223685" lon="5.948728953854072"><ele>257.0</ele><time>2026-04-11T13:52:38Z</time></trkpt><trkpt lat="43.486804903602255" lon="5.948602729985033"><ele>257.0</ele><time>2026-04-11T13:52:39Z</time></trkpt><trkpt lat="43.48667263164105" lon="5.9484903982215105"><ele>257.0</ele><time>2026-04-11T13:52:40Z</time></trkpt><trkpt lat="43.486546337356344" lon="5.948390381833487"><ele>257.0</ele><time>2026-04-11T13:52:41Z</time></trkpt><trkpt lat="43.48641566448435" lon="5.94832773460743"><ele>257.0</ele><time>2026-04-11T13:52:42Z</time></trkpt><trkpt lat="43.48627973140585" lon="5.94829591968897"><ele>257.0</ele><time>2026-04-11T13:52:43Z</time></trkpt><trkpt lat="43.4861343061639" lon="5.948274495732992"><ele>257.0</ele><time>2026-04-11T13:52:44Z</time></trkpt><trkpt lat="43.485982577373704" lon="5.948254512372468"><ele>257.0</ele><time>2026-04-11T13:52:45Z</time></trkpt><trkpt lat="43.485831620618924" lon="5.948239335349669"><ele>257.0</ele><time>2026-04-11T13:52:46Z</time></trkpt><trkpt lat="43.485683350271536" lon="5.9482211154817985"><ele>257.0</ele><time>2026-04-11T13:52:47Z</time></trkpt><trkpt lat="43.48553420463069" lon="5.948199234653778"><ele>259.33333333333337</ele><time>2026-04-11T13:52:48Z</time></trkpt><trkpt lat="43.48537987722953" lon="5.948180066774963"><ele>261.6666666666667</ele><time>2026-04-11T13:52:49Z</time></trkpt><trkpt lat="43.48521342634835" lon="5.948176732850947"><ele>264.0</ele><time>2026-04-11T13:52:50Z</time></trkpt><trkpt lat="43.48503670328818" lon="5.9481822953361885"><ele>264.0</ele><time>2026-04-11T13:52:51Z</time></trkpt><trkpt lat="43.484864094577816" lon="5.948195066155642"><ele>264.0</ele><time>2026-04-11T13:52:52Z</time></trkpt><trkpt lat="43.48470791858893" lon="5.9482174899997915"><ele>264.0</ele><time>2026-04-11T13:52:53Z</time></trkpt><trkpt lat="43.48455804643169" lon="5.948259062737338"><ele>262.3333333333333</ele><time>2026-04-11T13:52:54Z</time></trkpt><trkpt lat="43.48440441879284" lon="5.9483127032075975"><ele>260.66666666666663</ele><time>2026-04-11T13:52:55Z</time></trkpt><trkpt lat="43.48424621510689" lon="5.948385891962148"><ele>259.0</ele><time>2026-04-11T13:52:56Z</time></trkpt><trkpt lat="43.484089347500976" lon="5.948459173818674"><ele>259.0</ele><time>2026-04-11T13:52:57Z</time></trkpt><trkpt lat="43.4839589848889" lon="5.948572754929658"><ele>259.0</ele><time>2026-04-11T13:52:58Z</time></trkpt><trkpt lat="43.48384699673047" lon="5.9487064687896725"><ele>259.0</ele><time>2026-04-11T13:52:59Z</time></trkpt><trkpt lat="43.48374458547865" lon="5.9488343722208095"><ele>259.0</ele><time>2026-04-11T13:53:00Z</time></trkpt><trkpt lat="43.483641962607436" lon="5.948940000526931"><ele>260.66666666666663</ele><time>2026-04-11T13:53:01Z</time></trkpt><trkpt lat="43.48350561677796" lon="5.949005719360853"><ele>262.3333333333333</ele><time>2026-04-11T13:53:02Z</time></trkpt><trkpt lat="43.4833561615665" lon="5.949073079054881"><ele>264.0</ele><time>2026-04-11T13:53:03Z</time></trkpt><trkpt lat="43.483200303914025" lon="5.949139574489669"><ele>264.0</ele><time>2026-04-11T13:53:04Z</time></trkpt><trkpt lat="43.483039885729646" lon="5.949199620022299"><ele>264.0</ele><time>2026-04-11T13:53:05Z</time></trkpt><trkpt lat="43.48289057475074" lon="5.949239187538254"><ele>264.0</ele><time>2026-04-11T13:53:06Z</time></trkpt><trkpt lat="43.4827472197689" lon="5.949275965379561"><ele>261.75</ele><time>2026-04-11T13:53:07Z</time></trkpt><trkpt lat="43.48260301228349" lon="5.949308134686112"><ele>259.5</ele><time>2026-04-11T13:53:08Z</time></trkpt><trkpt lat="43.4824535362839" lon="5.949326095007392"><ele>257.25</ele><time>2026-04-11T13:53:09Z</time></trkpt><trkpt lat="43.48230684688785" lon="5.949322218034338"><ele>255.0</ele><time>2026-04-11T13:53:10Z</time></trkpt><trkpt lat="43.48216048200505" lon="5.949288764529147"><ele>255.25</ele><time>2026-04-11T13:53:11Z</time></trkpt><trkpt lat="43.4820212314588" lon="5.949225199870817"><ele>255.5</ele><time>2026-04-11T13:53:12Z</time></trkpt><trkpt lat="43.48189605150333" lon="5.949138633163249"><ele>255.75</ele><time>2026-04-11T13:53:13Z</time></trkpt><trkpt lat="43.48177150038321" lon="5.9490238291343225"><ele>256.0</ele><time>2026-04-11T13:53:14Z</time></trkpt><trkpt lat="43.48164492655822" lon="5.948884552119943"><ele>257.75</ele><time>2026-04-11T13:53:15Z</time></trkpt><trkpt lat="43.481544609690616" lon="5.948742021845536"><ele>259.5</ele><time>2026-04-11T13:53:16Z</time></trkpt><trkpt lat="43.48147269682529" lon="5.948587946494959"><ele>261.25</ele><time>2026-04-11T13:53:17Z</time></trkpt><trkpt lat="43.481411376273876" lon="5.948415794628363"><ele>263.0</ele><time>2026-04-11T13:53:18Z</time></trkpt><trkpt lat="43.48132343907358" lon="5.9482501721971985"><ele>262.33333333333337</ele><time>2026-04-11T13:53:19Z</time></trkpt><trkpt lat="43.481198584281856" lon="5.94810779832897"><ele>261.6666666666667</ele><time>2026-04-11T13:53:20Z</time></trkpt><trkpt lat="43.48106086163925" lon="5.9479805594922155"><ele>261.0</ele><time>2026-04-11T13:53:21Z</time></trkpt><trkpt lat="43.48092713744889" lon="5.9478765846082435"><ele>261.0</ele><time>2026-04-11T13:53:22Z</time></trkpt><trkpt lat="43.480789065497866" lon="5.947819404874329"><ele>261.0</ele><time>2026-04-11T13:53:23Z</time></trkpt><trkpt lat="43.480650205954795" lon="5.947805704327583"><ele>261.0</ele><time>2026-04-11T13:53:24Z</time></trkpt><trkpt lat="43.480512986853235" lon="5.947821830918752"><ele>261.0</ele><time>2026-04-11T13:53:25Z</time></trkpt><trkpt lat="43.48037598118177" lon="5.947837637314681"><ele>259.3333333333333</ele><time>2026-04-11T13:53:26Z</time></trkpt><trkpt lat="43.48022309667459" lon="5.947848978049194"><ele>257.66666666666663</ele><time>2026-04-11T13:53:27Z</time></trkpt><trkpt lat="43.48006113044635" lon="5.947848424435503"><ele>256.0</ele><time>2026-04-11T13:53:28Z</time></trkpt><trkpt lat="43.47989581832776" lon="5.947844280022311"><ele>256.0</ele><time>2026-04-11T13:53:29Z</time></trkpt><trkpt lat="43.479725964010704" lon="5.947832077233171"><ele>256.0</ele><time>2026-04-11T13:53:30Z</time></trkpt><trkpt lat="43.479557663542934" lon="5.947817247852862"><ele>256.0</ele><time>2026-04-11T13:53:31Z</time></trkpt><trkpt lat="43.4794009409945" lon="5.947810738697058"><ele>256.5</ele><time>2026-04-11T13:53:32Z</time></trkpt><trkpt lat="43.47925563900848" lon="5.94782015059793"><ele>257.0</ele><time>2026-04-11T13:53:33Z</time></trkpt><trkpt lat="43.47912224311288" lon="5.947859580795353"><ele>257.5</ele><time>2026-04-11T13:53:34Z</time></trkpt><trkpt lat="43.47900048414739" lon="5.9479297496814345"><ele>258.0</ele><time>2026-04-11T13:53:35Z</time></trkpt><trkpt lat="43.47888985271317" lon="5.948053576965087"><ele>258.0</ele><time>2026-04-11T13:53:36Z</time></trkpt><trkpt lat="43.47878462636229" lon="5.9482273053142825"><ele>258.0</ele><time>2026-04-11T13:53:37Z</time></trkpt><trkpt lat="43.47868096598445" lon="5.94842187327503"><ele>258.0</ele><time>2026-04-11T13:53:38Z</time></trkpt><trkpt lat="43.47858607097333" lon="5.948604811308023"><ele>258.25</ele><time>2026-04-11T13:53:39Z</time></trkpt><trkpt lat="43.47849682666442" lon="5.94876278557887"><ele>258.5</ele><time>2026-04-11T13:53:40Z</time></trkpt><trkpt lat="43.47840470650196" lon="5.948907169395418"><ele>258.75</ele><time>2026-04-11T13:53:41Z</time></trkpt><trkpt lat="43.47831758463839" lon="5.949040812256289"><ele>259.0</ele><time>2026-04-11T13:53:42Z</time></trkpt><trkpt lat="43.47822876434934" lon="5.949163395037738"><ele>259.0</ele><time>2026-04-11T13:53:43Z</time></trkpt><trkpt lat="43.478136299300786" lon="5.949270651852547"><ele>259.0</ele><time>2026-04-11T13:53:44Z</time></trkpt><trkpt lat="43.47803435788998" lon="5.949355231888332"><ele>259.0</ele><time>2026-04-11T13:53:45Z</time></trkpt><trkpt lat="43.47792616630369" lon="5.949428354202139"><ele>259.0</ele><time>2026-04-11T13:53:46Z</time></trkpt><trkpt lat="43.47782893570179" lon="5.949451817441771"><ele>259.0</ele><time>2026-04-11T13:53:47Z</time></trkpt><trkpt lat="43.47774140201639" lon="5.949423781111249"><ele>259.0</ele><time>2026-04-11T13:53:47.999Z</time></trkpt><trkpt lat="43.47768298027335" lon="5.949354511151744"><ele>259.0</ele><time>2026-04-11T13:53:48.999Z</time></trkpt><trkpt lat="43.47763017795214" lon="5.949243372624912"><ele>259.0</ele><time>2026-04-11T13:53:49.999Z</time></trkpt><trkpt lat="43.477643150561235" lon="5.949140237104132"><ele>259.0</ele><time>2026-04-11T13:53:50.999Z</time></trkpt><trkpt lat="43.477624957377216" lon="5.948999424521887"><ele>259.0</ele><time>2026-04-11T13:53:51.999Z</time></trkpt><trkpt lat="43.47760637196332" lon="5.94886116122567"><ele>259.0</ele><time>2026-04-11T13:53:52.999Z</time></trkpt><trkpt lat="43.47754764182155" lon="5.948747840653036"><ele>259.0</ele><time>2026-04-11T13:53:53.999Z</time></trkpt><trkpt lat="43.47754329519635" lon="5.9485757600112805"><ele>259.0</ele><time>2026-04-11T13:53:54.999Z</time></trkpt><trkpt lat="43.47750475394429" lon="5.948424920017864"><ele>259.0</ele><time>2026-04-11T13:53:55.999Z</time></trkpt><trkpt lat="43.47746074360604" lon="5.948265480419486"><ele>261.0</ele><time>2026-04-11T13:53:56.999Z</time></trkpt><trkpt lat="43.47736306089091" lon="5.948133662925604"><ele>263.0</ele><time>2026-04-11T13:53:57.999Z</time></trkpt><trkpt lat="43.477291670887" lon="5.948023078566809"><ele>265.0</ele><time>2026-04-11T13:53:58.999Z</time></trkpt><trkpt lat="43.477240916332235" lon="5.947962767241188"><ele>267.0</ele><time>2026-04-11T13:53:59.999Z</time></trkpt><trkpt lat="43.47719616958807" lon="5.947894549831504"><ele>269.0</ele><time>2026-04-11T13:54:02.999Z</time></trkpt><trkpt lat="43.477106826052974" lon="5.9477897350127895"><ele>271.75</ele><time>2026-04-11T13:54:05Z</time></trkpt><trkpt lat="43.47704164616912" lon="5.947712795350869"><ele>274.5</ele><time>2026-04-11T13:54:06Z</time></trkpt><trkpt lat="43.47694290743663" lon="5.947613932566623"><ele>277.25</ele><time>2026-04-11T13:54:07Z</time></trkpt><trkpt lat="43.476818246390486" lon="5.9475321882143195"><ele>280.0</ele><time>2026-04-11T13:54:08Z</time></trkpt><trkpt lat="43.47667396321626" lon="5.947504493113389"><ele>280.0</ele><time>2026-04-11T13:54:09Z</time></trkpt><trkpt lat="43.47653617821447" lon="5.947506208170177"><ele>280.0</ele><time>2026-04-11T13:54:10Z</time></trkpt><trkpt lat="43.476393071261235" lon="5.94752494329692"><ele>280.0</ele><time>2026-04-11T13:54:11Z</time></trkpt><trkpt lat="43.47626246017214" lon="5.947542924581686"><ele>280.0</ele><time>2026-04-11T13:54:12Z</time></trkpt><trkpt lat="43.47612015398098" lon="5.947583015148068"><ele>273.0</ele><time>2026-04-11T13:54:13Z</time></trkpt><trkpt lat="43.475970324778665" lon="5.947664428602948"><ele>266.0</ele><time>2026-04-11T13:54:14Z</time></trkpt><trkpt lat="43.4758191799555" lon="5.947784046589654"><ele>259.0</ele><time>2026-04-11T13:54:15Z</time></trkpt><trkpt lat="43.47568460093666" lon="5.9478932279347685"><ele>259.0</ele><time>2026-04-11T13:54:16Z</time></trkpt><trkpt lat="43.47553447923969" lon="5.948013258578369"><ele>259.0</ele><time>2026-04-11T13:54:17Z</time></trkpt><trkpt lat="43.47538205236924" lon="5.948135490072978"><ele>259.0</ele><time>2026-04-11T13:54:18Z</time></trkpt><trkpt lat="43.47522261414756" lon="5.948264020963206"><ele>258.66666666666663</ele><time>2026-04-11T13:54:19Z</time></trkpt><trkpt lat="43.475053838549854" lon="5.9483997055972235"><ele>258.3333333333333</ele><time>2026-04-11T13:54:20Z</time></trkpt><trkpt lat="43.47487994136131" lon="5.9485368560294845"><ele>258.0</ele><time>2026-04-11T13:54:21Z</time></trkpt><trkpt lat="43.47471589175894" lon="5.948669888558044"><ele>260.0</ele><time>2026-04-11T13:54:22Z</time></trkpt><trkpt lat="43.474577910288104" lon="5.94878235275358"><ele>262.0</ele><time>2026-04-11T13:54:23Z</time></trkpt><trkpt lat="43.47443502839003" lon="5.948897997841413"><ele>264.0</ele><time>2026-04-11T13:54:24Z</time></trkpt><trkpt lat="43.47429981755369" lon="5.949006883382206"><ele>264.0</ele><time>2026-04-11T13:54:25Z</time></trkpt><trkpt lat="43.474154144463185" lon="5.9491284045691275"><ele>264.0</ele><time>2026-04-11T13:54:26Z</time></trkpt><trkpt lat="43.47399830802906" lon="5.9492593109354885"><ele>264.0</ele><time>2026-04-11T13:54:27Z</time></trkpt><trkpt lat="43.47384395787779" lon="5.949385272002665"><ele>264.0</ele><time>2026-04-11T13:54:28Z</time></trkpt><trkpt lat="43.47370336414337" lon="5.949500006602906"><ele>264.0</ele><time>2026-04-11T13:54:29Z</time></trkpt><trkpt lat="43.47358748758864" lon="5.949617202103088"><ele>264.0</ele><time>2026-04-11T13:54:30Z</time></trkpt><trkpt lat="43.4734644974474" lon="5.949691158538725"><ele>264.0</ele><time>2026-04-11T13:54:31Z</time></trkpt><trkpt lat="43.47336008730773" lon="5.949774145578683"><ele>264.0</ele><time>2026-04-11T13:54:32Z</time></trkpt><trkpt lat="43.473260160579976" lon="5.9498551308499135"><ele>264.0</ele><time>2026-04-11T13:54:33Z</time></trkpt><trkpt lat="43.473163864758845" lon="5.949934911821765"><ele>264.0</ele><time>2026-04-11T13:54:34Z</time></trkpt><trkpt lat="43.47305320403556" lon="5.950031722008803"><ele>264.0</ele><time>2026-04-11T13:54:35Z</time></trkpt><trkpt lat="43.47295491545935" lon="5.950118266504764"><ele>264.0</ele><time>2026-04-11T13:54:36Z</time></trkpt><trkpt lat="43.472859407190406" lon="5.950198792016655"><ele>264.0</ele><time>2026-04-11T13:54:37Z</time></trkpt><trkpt lat="43.47277823032301" lon="5.950291009633265"><ele>264.0</ele><time>2026-04-11T13:54:38Z</time></trkpt><trkpt lat="43.472710113542036" lon="5.950343873314304"><ele>264.0</ele><time>2026-04-11T13:54:39Z</time></trkpt><trkpt lat="43.47262673755125" lon="5.950411132431923"><ele>264.0</ele><time>2026-04-11T13:54:40Z</time></trkpt><trkpt lat="43.47255029220102" lon="5.950478703781736"><ele>264.0</ele><time>2026-04-11T13:54:41Z</time></trkpt><trkpt lat="43.4724797809232" lon="5.950547254649293"><ele>264.0</ele><time>2026-04-11T13:54:42Z</time></trkpt><trkpt lat="43.47241808409868" lon="5.950614212288027"><ele>264.0</ele><time>2026-04-11T13:54:43Z</time></trkpt><trkpt lat="43.47236860950514" lon="5.950692410142372"><ele>264.0</ele><time>2026-04-11T13:54:44Z</time></trkpt><trkpt lat="43.47230795046436" lon="5.950802351019805"><ele>264.0</ele><time>2026-04-11T13:54:45Z</time></trkpt><trkpt lat="43.47226254868205" lon="5.950872933908021"><ele>264.0</ele><time>2026-04-11T13:54:46Z</time></trkpt><trkpt lat="43.47222176195331" lon="5.950948461230364"><ele>263.4</ele><time>2026-04-11T13:54:47Z</time></trkpt><trkpt lat="43.47217368411736" lon="5.951075160709102"><ele>262.79999999999995</ele><time>2026-04-11T13:54:49Z</time></trkpt><trkpt lat="43.47213714958459" lon="5.951229961136334"><ele>262.20000000000005</ele><time>2026-04-11T13:54:51Z</time></trkpt><trkpt lat="43.47211653054604" lon="5.951345525976052"><ele>261.6</ele><time>2026-04-11T13:54:52Z</time></trkpt><trkpt lat="43.47209763453989" lon="5.951456184814773"><ele>261.0</ele><time>2026-04-11T13:54:53Z</time></trkpt><trkpt lat="43.47207757768139" lon="5.951548591845581"><ele>261.0</ele><time>2026-04-11T13:54:54Z</time></trkpt><trkpt lat="43.4720368457947" lon="5.951631942898148"><ele>261.0</ele><time>2026-04-11T13:54:55Z</time></trkpt><trkpt lat="43.472017563864874" lon="5.95172313635093"><ele>261.0</ele><time>2026-04-11T13:54:56Z</time></trkpt><trkpt lat="43.471997569193675" lon="5.951817700737614"><ele>261.0</ele><time>2026-04-11T13:54:57Z</time></trkpt><trkpt lat="43.471977907783" lon="5.951904837325062"><ele>261.0</ele><time>2026-04-11T13:54:58Z</time></trkpt><trkpt lat="43.471946678674676" lon="5.952068578636915"><ele>261.0</ele><time>2026-04-11T13:55:00Z</time></trkpt><trkpt lat="43.471924592773895" lon="5.952151819489635"><ele>262.0</ele><time>2026-04-11T13:55:01Z</time></trkpt><trkpt lat="43.47190501494315" lon="5.952236013007474"><ele>263.0</ele><time>2026-04-11T13:55:02Z</time></trkpt><trkpt lat="43.47187547591323" lon="5.952398809068277"><ele>264.0</ele><time>2026-04-11T13:55:04Z</time></trkpt><trkpt lat="43.47188786234731" lon="5.952495212620761"><ele>265.0</ele><time>2026-04-11T13:55:17Z</time></trkpt><trkpt lat="43.47192984319705" lon="5.9526213113961255"><ele>266.0</ele><time>2026-04-11T13:55:21Z</time></trkpt><trkpt lat="43.47198457964656" lon="5.952677204404362"><ele>267.0</ele><time>2026-04-11T13:55:22Z</time></trkpt><trkpt lat="43.47205290139398" lon="5.9527273112781085"><ele>268.8333333333333</ele><time>2026-04-11T13:55:23Z</time></trkpt><trkpt lat="43.47213731207604" lon="5.952814319202064"><ele>270.6666666666667</ele><time>2026-04-11T13:55:24Z</time></trkpt><trkpt lat="43.47219720944072" lon="5.952880942933044"><ele>272.5</ele><time>2026-04-11T13:55:25Z</time></trkpt><trkpt lat="43.47225273184514" lon="5.952941970047392"><ele>274.33333333333337</ele><time>2026-04-11T13:55:26Z</time></trkpt><trkpt lat="43.47230302695361" lon="5.953015930900065"><ele>276.1666666666667</ele><time>2026-04-11T13:55:27Z</time></trkpt><trkpt lat="43.47232739433775" lon="5.95310378847664"><ele>278.0</ele><time>2026-04-11T13:55:28Z</time></trkpt><trkpt lat="43.47234670696876" lon="5.953194979480213"><ele>278.0</ele><time>2026-04-11T13:55:29Z</time></trkpt><trkpt lat="43.4723435336569" lon="5.953295075111427"><ele>278.0</ele><time>2026-04-11T13:55:30Z</time></trkpt><trkpt lat="43.472342841802885" lon="5.953398010662004"><ele>278.0</ele><time>2026-04-11T13:55:31Z</time></trkpt><trkpt lat="43.4723107401493" lon="5.953505783327258"><ele>278.0</ele><time>2026-04-11T13:55:32Z</time></trkpt><trkpt lat="43.472244177785" lon="5.953605375774489"><ele>278.0</ele><time>2026-04-11T13:55:33Z</time></trkpt><trkpt lat="43.472167761840176" lon="5.953723988992513"><ele>278.0</ele><time>2026-04-11T13:55:34Z</time></trkpt><trkpt lat="43.47211217056956" lon="5.953826557438061"><ele>278.0</ele><time>2026-04-11T13:55:35Z</time></trkpt><trkpt lat="43.47204315648698" lon="5.953934516027978"><ele>278.0</ele><time>2026-04-11T13:55:36Z</time></trkpt><trkpt lat="43.47199657513678" lon="5.954064679853217"><ele>278.0</ele><time>2026-04-11T13:55:37Z</time></trkpt><trkpt lat="43.47193876003291" lon="5.954179424129498"><ele>278.0</ele><time>2026-04-11T13:55:38Z</time></trkpt><trkpt lat="43.471874182286456" lon="5.954298325603277"><ele>278.0</ele><time>2026-04-11T13:55:39Z</time></trkpt><trkpt lat="43.47184452969173" lon="5.954407608690458"><ele>278.0</ele><time>2026-04-11T13:55:40Z</time></trkpt><trkpt lat="43.4718018380106" lon="5.954519359369118"><ele>278.0</ele><time>2026-04-11T13:55:41Z</time></trkpt><trkpt lat="43.471761312137595" lon="5.954637428379093"><ele>278.0</ele><time>2026-04-11T13:55:42Z</time></trkpt><trkpt lat="43.47172061640182" lon="5.954733999730631"><ele>278.0</ele><time>2026-04-11T13:55:43Z</time></trkpt><trkpt lat="43.47167129683986" lon="5.954863392723453"><ele>278.0</ele><time>2026-04-11T13:55:44.999Z</time></trkpt><trkpt lat="43.47160272571618" lon="5.955055250203699"><ele>277.5</ele><time>2026-04-11T13:55:46.999Z</time></trkpt><trkpt lat="43.471558053880315" lon="5.955175342116797"><ele>277.0</ele><time>2026-04-11T13:55:47.999Z</time></trkpt><trkpt lat="43.471500102565884" lon="5.9553451728203655"><ele>276.5</ele><time>2026-04-11T13:55:48.999Z</time></trkpt><trkpt lat="43.47144382590623" lon="5.955509517043347"><ele>276.0</ele><time>2026-04-11T13:55:49.999Z</time></trkpt><trkpt lat="43.47139725690327" lon="5.955640743598122"><ele>276.0</ele><time>2026-04-11T13:55:50.999Z</time></trkpt><trkpt lat="43.471343333492825" lon="5.955786704126091"><ele>276.0</ele><time>2026-04-11T13:55:51.999Z</time></trkpt><trkpt lat="43.47129381304121" lon="5.955922661135364"><ele>276.0</ele><time>2026-04-11T13:55:52.999Z</time></trkpt><trkpt lat="43.471247084353855" lon="5.956048149563582"><ele>276.0</ele><time>2026-04-11T13:55:53.999Z</time></trkpt><trkpt lat="43.471204877225496" lon="5.956151228132761"><ele>276.0</ele><time>2026-04-11T13:55:54.999Z</time></trkpt><trkpt lat="43.471167974133735" lon="5.956246202849783"><ele>276.6666666666667</ele><time>2026-04-11T13:55:55.999Z</time></trkpt><trkpt lat="43.471120283566975" lon="5.9563408066982575"><ele>277.3333333333333</ele><time>2026-04-11T13:55:56.999Z</time></trkpt><trkpt lat="43.47107886403046" lon="5.956409279226227"><ele>278.0</ele><time>2026-04-11T13:55:57.999Z</time></trkpt><trkpt lat="43.47103787126404" lon="5.9565138086802945"><ele>278.66666666666663</ele><time>2026-04-11T13:55:58.999Z</time></trkpt><trkpt lat="43.47098300186369" lon="5.956600131835819"><ele>279.3333333333333</ele><time>2026-04-11T13:55:59.999Z</time></trkpt><trkpt lat="43.47093464322394" lon="5.956699021618348"><ele>280.0</ele><time>2026-04-11T13:56:00.999Z</time></trkpt><trkpt lat="43.47088517648265" lon="5.956804071110977"><ele>280.0</ele><time>2026-04-11T13:56:01.999Z</time></trkpt><trkpt lat="43.47081098988691" lon="5.9568978340758"><ele>280.0</ele><time>2026-04-11T13:56:02.999Z</time></trkpt><trkpt lat="43.470748025653606" lon="5.95701095787807"><ele>280.0</ele><time>2026-04-11T13:56:03.999Z</time></trkpt><trkpt lat="43.470674026380934" lon="5.957103350588192"><ele>280.0</ele><time>2026-04-11T13:56:04.999Z</time></trkpt><trkpt lat="43.47061142982089" lon="5.9571837870525615"><ele>280.0</ele><time>2026-04-11T13:56:05.999Z</time></trkpt><trkpt lat="43.47055907651822" lon="5.957261641873933"><ele>280.0</ele><time>2026-04-11T13:56:06.999Z</time></trkpt><trkpt lat="43.47050989423082" lon="5.957328737430549"><ele>280.0</ele><time>2026-04-11T13:56:07.999Z</time></trkpt><trkpt lat="43.470448807000174" lon="5.9573792199595665"><ele>280.0</ele><time>2026-04-11T13:56:08.999Z</time></trkpt><trkpt lat="43.470406662437284" lon="5.957462362155686"><ele>280.0</ele><time>2026-04-11T13:56:09.999Z</time></trkpt><trkpt lat="43.470347592013304" lon="5.957498216125335"><ele>280.0</ele><time>2026-04-11T13:56:11Z</time></trkpt><trkpt lat="43.47027199719476" lon="5.957506982687249"><ele>280.0</ele><time>2026-04-11T13:56:12Z</time></trkpt><trkpt lat="43.47018662206673" lon="5.957501479412972"><ele>280.0</ele><time>2026-04-11T13:56:13Z</time></trkpt><trkpt lat="43.47008503286923" lon="5.957543620496618"><ele>281.5</ele><time>2026-04-11T13:56:14Z</time></trkpt><trkpt lat="43.46996718199839" lon="5.957619485174494"><ele>283.0</ele><time>2026-04-11T13:56:15Z</time></trkpt><trkpt lat="43.46985146006775" lon="5.957700411313693"><ele>284.5</ele><time>2026-04-11T13:56:16Z</time></trkpt><trkpt lat="43.46976944499462" lon="5.957783419461374"><ele>286.0</ele><time>2026-04-11T13:56:17Z</time></trkpt><trkpt lat="43.469692744787686" lon="5.957863908705415"><ele>286.0</ele><time>2026-04-11T13:56:18Z</time></trkpt><trkpt lat="43.46961848767776" lon="5.957909158222451"><ele>286.0</ele><time>2026-04-11T13:56:19Z</time></trkpt><trkpt lat="43.46953460477686" lon="5.95793369788762"><ele>286.0</ele><time>2026-04-11T13:56:20Z</time></trkpt><trkpt lat="43.4694594386576" lon="5.957962938949357"><ele>286.0</ele><time>2026-04-11T13:56:21Z</time></trkpt><trkpt lat="43.46938929534462" lon="5.957980726815704"><ele>286.0</ele><time>2026-04-11T13:56:22Z</time></trkpt><trkpt lat="43.46931087007822" lon="5.9579873045383325"><ele>286.0</ele><time>2026-04-11T13:56:23Z</time></trkpt><trkpt lat="43.46921218434562" lon="5.95796819267858"><ele>286.25</ele><time>2026-04-11T13:56:24Z</time></trkpt><trkpt lat="43.46909043102769" lon="5.9579339947438505"><ele>286.5</ele><time>2026-04-11T13:56:25Z</time></trkpt><trkpt lat="43.46896270172982" lon="5.957897132773335"><ele>286.75</ele><time>2026-04-11T13:56:26Z</time></trkpt><trkpt lat="43.46884565779628" lon="5.957889076487425"><ele>287.0</ele><time>2026-04-11T13:56:27Z</time></trkpt><trkpt lat="43.468706027146766" lon="5.957892496688127"><ele>287.0</ele><time>2026-04-11T13:56:28Z</time></trkpt><trkpt lat="43.468572206545325" lon="5.957897297279801"><ele>287.0</ele><time>2026-04-11T13:56:29Z</time></trkpt><trkpt lat="43.46845619444328" lon="5.957903682879101"><ele>287.0</ele><time>2026-04-11T13:56:30Z</time></trkpt><trkpt lat="43.468360625140704" lon="5.957911069031234"><ele>287.0</ele><time>2026-04-11T13:56:31Z</time></trkpt><trkpt lat="43.468260881662" lon="5.957943252324319"><ele>287.0</ele><time>2026-04-11T13:56:32Z</time></trkpt><trkpt lat="43.46817046406813" lon="5.957995495117774"><ele>287.0</ele><time>2026-04-11T13:56:33Z</time></trkpt><trkpt lat="43.46807156607805" lon="5.9580694303873685"><ele>287.0</ele><time>2026-04-11T13:56:34Z</time></trkpt><trkpt lat="43.46797283265806" lon="5.958158196135907"><ele>287.0</ele><time>2026-04-11T13:56:35Z</time></trkpt><trkpt lat="43.46789938888175" lon="5.958259979767376"><ele>287.0</ele><time>2026-04-11T13:56:36Z</time></trkpt><trkpt lat="43.467828399654636" lon="5.9583724955190585"><ele>287.0</ele><time>2026-04-11T13:56:37Z</time></trkpt><trkpt lat="43.467750159079344" lon="5.958501768736202"><ele>288.2</ele><time>2026-04-11T13:56:38Z</time></trkpt><trkpt lat="43.46766904533451" lon="5.958600830602757"><ele>289.4</ele><time>2026-04-11T13:56:39Z</time></trkpt><trkpt lat="43.467594861404116" lon="5.958697529922807"><ele>290.6</ele><time>2026-04-11T13:56:40Z</time></trkpt><trkpt lat="43.46751895689257" lon="5.958774109110754"><ele>291.8</ele><time>2026-04-11T13:56:41Z</time></trkpt><trkpt lat="43.467444106702615" lon="5.958847117238768"><ele>293.0</ele><time>2026-04-11T13:56:42Z</time></trkpt><trkpt lat="43.46737360870764" lon="5.958915911306827"><ele>293.0</ele><time>2026-04-11T13:56:43Z</time></trkpt><trkpt lat="43.46729709556887" lon="5.958967247190949"><ele>293.0</ele><time>2026-04-11T13:56:44Z</time></trkpt><trkpt lat="43.46719604055626" lon="5.959007172325078"><ele>293.0</ele><time>2026-04-11T13:56:45Z</time></trkpt><trkpt lat="43.46707396572014" lon="5.959048017146296"><ele>293.0</ele><time>2026-04-11T13:56:46Z</time></trkpt><trkpt lat="43.46695451121412" lon="5.959081172503333"><ele>293.0</ele><time>2026-04-11T13:56:47Z</time></trkpt><trkpt lat="43.46684598901015" lon="5.959108230183281"><ele>292.6</ele><time>2026-04-11T13:56:48Z</time></trkpt><trkpt lat="43.46674228301093" lon="5.959124517828596"><ele>292.20000000000005</ele><time>2026-04-11T13:56:49Z</time></trkpt><trkpt lat="43.46664303086783" lon="5.959121941196133"><ele>291.8</ele><time>2026-04-11T13:56:50Z</time></trkpt><trkpt lat="43.46656351993967" lon="5.959113280391594"><ele>291.40000000000003</ele><time>2026-04-11T13:56:51Z</time></trkpt><trkpt lat="43.4664666284188" lon="5.959086860115964"><ele>291.0</ele><time>2026-04-11T13:56:53Z</time></trkpt><trkpt lat="43.4663854676049" lon="5.959000492433966"><ele>291.0</ele><time>2026-04-11T13:56:55Z</time></trkpt><trkpt lat="43.46634298249716" lon="5.958933250195042"><ele>291.0</ele><time>2026-04-11T13:56:56Z</time></trkpt><trkpt lat="43.4663082958578" lon="5.958848171369622"><ele>291.0</ele><time>2026-04-11T13:56:57Z</time></trkpt><trkpt lat="43.466275874892176" lon="5.958742385363819"><ele>291.0</ele><time>2026-04-11T13:56:58Z</time></trkpt><trkpt lat="43.466252420675055" lon="5.958636663224871"><ele>291.0</ele><time>2026-04-11T13:56:59Z</time></trkpt><trkpt lat="43.466243639355746" lon="5.958513480743106"><ele>291.0</ele><time>2026-04-11T13:57:01Z</time></trkpt><trkpt lat="43.46624892816792" lon="5.9584131071374795"><ele>290.1666666666667</ele><time>2026-04-11T13:57:03Z</time></trkpt><trkpt lat="43.46625854707694" lon="5.958297690727908"><ele>289.3333333333333</ele><time>2026-04-11T13:57:04Z</time></trkpt><trkpt lat="43.4662748432564" lon="5.958164888350053"><ele>288.5</ele><time>2026-04-11T13:57:05Z</time></trkpt><trkpt lat="43.46628565226427" lon="5.958037056357832"><ele>287.66666666666663</ele><time>2026-04-11T13:57:06Z</time></trkpt><trkpt lat="43.466282527365266" lon="5.9579216989561194"><ele>286.8333333333333</ele><time>2026-04-11T13:57:07Z</time></trkpt><trkpt lat="43.46627476465679" lon="5.957810253678481"><ele>286.0</ele><time>2026-04-11T13:57:08Z</time></trkpt><trkpt lat="43.466244003442796" lon="5.957704786592743"><ele>286.0</ele><time>2026-04-11T13:57:09Z</time></trkpt><trkpt lat="43.46618545880873" lon="5.957625612430643"><ele>286.0</ele><time>2026-04-11T13:57:10Z</time></trkpt><trkpt lat="43.46611854647844" lon="5.957591312365373"><ele>286.0</ele><time>2026-04-11T13:57:11Z</time></trkpt><trkpt lat="43.46605307476881" lon="5.957593218836255"><ele>286.0</ele><time>2026-04-11T13:57:12Z</time></trkpt><trkpt lat="43.46596673876428" lon="5.95766270429536"><ele>286.0</ele><time>2026-04-11T13:57:14Z</time></trkpt><trkpt lat="43.46590972200705" lon="5.957767700012394"><ele>286.0</ele><time>2026-04-11T13:57:16Z</time></trkpt><trkpt lat="43.465849262103156" lon="5.95780701767204"><ele>286.0</ele><time>2026-04-11T13:57:17Z</time></trkpt><trkpt lat="43.465781280414596" lon="5.957852470454775"><ele>286.0</ele><time>2026-04-11T13:57:18Z</time></trkpt><trkpt lat="43.46563940870417" lon="5.957910144119024"><ele>286.0</ele><time>2026-04-11T13:57:20Z</time></trkpt><trkpt lat="43.46557490973059" lon="5.9579369968916716"><ele>286.0</ele><time>2026-04-11T13:57:21Z</time></trkpt><trkpt lat="43.46550379881731" lon="5.957963538523674"><ele>286.0</ele><time>2026-04-11T13:57:22Z</time></trkpt><trkpt lat="43.46537159639923" lon="5.957952407122287"><ele>286.1428571428571</ele><time>2026-04-11T13:57:24Z</time></trkpt><trkpt lat="43.46528647587254" lon="5.957918195471427"><ele>286.2857142857143</ele><time>2026-04-11T13:57:25Z</time></trkpt><trkpt lat="43.46521706504641" lon="5.957887878532626"><ele>286.42857142857144</ele><time>2026-04-11T13:57:26Z</time></trkpt><trkpt lat="43.465157341102014" lon="5.957837653589058"><ele>286.57142857142856</ele><time>2026-04-11T13:57:27Z</time></trkpt><trkpt lat="43.46509849024229" lon="5.957782709349034"><ele>286.7142857142857</ele><time>2026-04-11T13:57:28Z</time></trkpt><trkpt lat="43.46504286473233" lon="5.957727680710438"><ele>286.85714285714283</ele><time>2026-04-11T13:57:29Z</time></trkpt><trkpt lat="43.464987213391225" lon="5.957679610932652"><ele>287.0</ele><time>2026-04-11T13:57:30Z</time></trkpt><trkpt lat="43.46489843483257" lon="5.95763489222652"><ele>287.0</ele><time>2026-04-11T13:57:32Z</time></trkpt><trkpt lat="43.464752201666734" lon="5.95762353740309"><ele>287.0</ele><time>2026-04-11T13:57:34Z</time></trkpt><trkpt lat="43.46468853215108" lon="5.95763813870287"><ele>287.0</ele><time>2026-04-11T13:57:35Z</time></trkpt><trkpt lat="43.4645706243156" lon="5.957594506597818"><ele>287.0</ele><time>2026-04-11T13:57:37Z</time></trkpt><trkpt lat="43.46452221946395" lon="5.9575072519086385"><ele>287.0</ele><time>2026-04-11T13:57:38Z</time></trkpt><trkpt lat="43.46445660311697" lon="5.957418479423642"><ele>286.6666666666667</ele><time>2026-04-11T13:57:39Z</time></trkpt><trkpt lat="43.464372207321986" lon="5.957333102626562"><ele>286.33333333333337</ele><time>2026-04-11T13:57:40Z</time></trkpt><trkpt lat="43.46430519325965" lon="5.957254859980048"><ele>286.0</ele><time>2026-04-11T13:57:40.999Z</time></trkpt><trkpt lat="43.464267223537604" lon="5.95717906165542"><ele>285.6666666666667</ele><time>2026-04-11T13:57:41.999Z</time></trkpt><trkpt lat="43.46418059269366" lon="5.957167174098441"><ele>285.3333333333333</ele><time>2026-04-11T13:57:43.999Z</time></trkpt><trkpt lat="43.4641157505783" lon="5.957227442866506"><ele>285.0</ele><time>2026-04-11T13:57:44.999Z</time></trkpt><trkpt lat="43.464060824250204" lon="5.957298315526836"><ele>285.0</ele><time>2026-04-11T13:57:45.999Z</time></trkpt><trkpt lat="43.46395555581764" lon="5.957304665389321"><ele>285.0</ele><time>2026-04-11T13:57:47.999Z</time></trkpt><trkpt lat="43.4638968206956" lon="5.957232339177497"><ele>285.0</ele><time>2026-04-11T13:57:48.999Z</time></trkpt><trkpt lat="43.46383625742077" lon="5.957111335655141"><ele>285.0</ele><time>2026-04-11T13:57:49.999Z</time></trkpt><trkpt lat="43.46375960409342" lon="5.956999108017751"><ele>285.0</ele><time>2026-04-11T13:57:50.999Z</time></trkpt><trkpt lat="43.463680938580175" lon="5.956907185654134"><ele>283.25</ele><time>2026-04-11T13:57:51.999Z</time></trkpt><trkpt lat="43.46359223132894" lon="5.956844361505782"><ele>281.5</ele><time>2026-04-11T13:57:52.999Z</time></trkpt><trkpt lat="43.46349224353338" lon="5.956803531589285"><ele>279.75</ele><time>2026-04-11T13:57:53.999Z</time></trkpt><trkpt lat="43.46337851418" lon="5.9567509554852744"><ele>278.0</ele><time>2026-04-11T13:57:54.999Z</time></trkpt><trkpt lat="43.463240329311546" lon="5.956670963460255"><ele>276.0</ele><time>2026-04-11T13:57:55.999Z</time></trkpt><trkpt lat="43.4631244131025" lon="5.956555456783508"><ele>274.0</ele><time>2026-04-11T13:57:56.999Z</time></trkpt><trkpt lat="43.463001379172034" lon="5.956480138547702"><ele>272.0</ele><time>2026-04-11T13:57:57.999Z</time></trkpt><trkpt lat="43.46285898662969" lon="5.956385336817871"><ele>270.0</ele><time>2026-04-11T13:57:58.999Z</time></trkpt><trkpt lat="43.46271219034151" lon="5.9563060291867025"><ele>269.3333333333333</ele><time>2026-04-11T13:57:59.999Z</time></trkpt><trkpt lat="43.462571265810475" lon="5.956263932284517"><ele>268.66666666666663</ele><time>2026-04-11T13:58:00.999Z</time></trkpt><trkpt lat="43.46241731117446" lon="5.956235145870112"><ele>268.0</ele><time>2026-04-11T13:58:01.999Z</time></trkpt><trkpt lat="43.46225668750913" lon="5.956191558024795"><ele>268.5</ele><time>2026-04-11T13:58:02.999Z</time></trkpt><trkpt lat="43.46210867085602" lon="5.956128995306947"><ele>269.0</ele><time>2026-04-11T13:58:03.999Z</time></trkpt><trkpt lat="43.46197799563831" lon="5.95606819722418"><ele>269.5</ele><time>2026-04-11T13:58:04.999Z</time></trkpt><trkpt lat="43.461859785523785" lon="5.956010092843307"><ele>270.0</ele><time>2026-04-11T13:58:05.999Z</time></trkpt><trkpt lat="43.46175005190513" lon="5.955958469409513"><ele>270.0</ele><time>2026-04-11T13:58:06.999Z</time></trkpt><trkpt lat="43.46165114509604" lon="5.9559100130529705"><ele>270.0</ele><time>2026-04-11T13:58:07.999Z</time></trkpt><trkpt lat="43.46156573536674" lon="5.955863994525504"><ele>270.0</ele><time>2026-04-11T13:58:08.999Z</time></trkpt><trkpt lat="43.46150351853632" lon="5.955827025716071"><ele>270.0</ele><time>2026-04-11T13:58:09.999Z</time></trkpt><trkpt lat="43.461418940197866" lon="5.955778604096635"><ele>270.0</ele><time>2026-04-11T13:58:11.999Z</time></trkpt><trkpt lat="43.46137414930477" lon="5.9558482580896985"><ele>270.0</ele><time>2026-04-11T13:58:12.999Z</time></trkpt><trkpt lat="43.46124279910531" lon="5.955813490295825"><ele>273.25</ele><time>2026-04-11T13:58:14.999Z</time></trkpt><trkpt lat="43.46114129266326" lon="5.955760643979819"><ele>276.5</ele><time>2026-04-11T13:58:15.999Z</time></trkpt><trkpt lat="43.461024307892735" lon="5.955701091880207"><ele>279.75</ele><time>2026-04-11T13:58:17Z</time></trkpt><trkpt lat="43.46090765811595" lon="5.95563241573145"><ele>283.0</ele><time>2026-04-11T13:58:18Z</time></trkpt><trkpt lat="43.46081301970581" lon="5.955576136890122"><ele>283.0</ele><time>2026-04-11T13:58:19Z</time></trkpt><trkpt lat="43.46073381571276" lon="5.955524711675913"><ele>283.0</ele><time>2026-04-11T13:58:20Z</time></trkpt><trkpt lat="43.4606581794987" lon="5.955454054084382"><ele>283.0</ele><time>2026-04-11T13:58:21Z</time></trkpt><trkpt lat="43.46059613816289" lon="5.955381744522374"><ele>283.0</ele><time>2026-04-11T13:58:22Z</time></trkpt><trkpt lat="43.460530305703955" lon="5.95531134782858"><ele>283.0</ele><time>2026-04-11T13:58:23Z</time></trkpt><trkpt lat="43.46045540832118" lon="5.95522739166409"><ele>283.0</ele><time>2026-04-11T13:58:24Z</time></trkpt><trkpt lat="43.46038084440551" lon="5.955151464820292"><ele>287.2</ele><time>2026-04-11T13:58:25Z</time></trkpt><trkpt lat="43.460298839378474" lon="5.955112381654289"><ele>291.4</ele><time>2026-04-11T13:58:26Z</time></trkpt><trkpt lat="43.46019079818542" lon="5.955091834999455"><ele>295.59999999999997</ele><time>2026-04-11T13:58:27Z</time></trkpt><trkpt lat="43.460088001475214" lon="5.955070748444641"><ele>299.8</ele><time>2026-04-11T13:58:28Z</time></trkpt><trkpt lat="43.46001997855356" lon="5.955069338832922"><ele>304.0</ele><time>2026-04-11T13:58:29Z</time></trkpt><trkpt lat="43.459906054525" lon="5.955135232725247"><ele>304.0</ele><time>2026-04-11T13:58:31Z</time></trkpt><trkpt lat="43.4598425558432" lon="5.955200056316931"><ele>304.0</ele><time>2026-04-11T13:58:32Z</time></trkpt><trkpt lat="43.45976634036614" lon="5.955270489156928"><ele>304.0</ele><time>2026-04-11T13:58:33Z</time></trkpt><trkpt lat="43.45970078315871" lon="5.955322000935461"><ele>304.0</ele><time>2026-04-11T13:58:34Z</time></trkpt><trkpt lat="43.45962314114948" lon="5.955447675360683"><ele>304.0</ele><time>2026-04-11T13:58:36Z</time></trkpt><trkpt lat="43.459580717924" lon="5.955517003685853"><ele>304.0</ele><time>2026-04-11T13:58:37Z</time></trkpt><trkpt lat="43.45950970636664" lon="5.955553429997381"><ele>304.4</ele><time>2026-04-11T13:58:38Z</time></trkpt><trkpt lat="43.45941518265234" lon="5.955596500350676"><ele>304.79999999999995</ele><time>2026-04-11T13:58:39Z</time></trkpt><trkpt lat="43.459312687593695" lon="5.955622723203227"><ele>305.20000000000005</ele><time>2026-04-11T13:58:40Z</time></trkpt><trkpt lat="43.459225681848494" lon="5.955628111913092"><ele>305.6</ele><time>2026-04-11T13:58:41Z</time></trkpt><trkpt lat="43.45915102791809" lon="5.955619448614304"><ele>306.0</ele><time>2026-04-11T13:58:42Z</time></trkpt><trkpt lat="43.459063520206875" lon="5.955613542062969"><ele>306.0</ele><time>2026-04-11T13:58:43Z</time></trkpt><trkpt lat="43.45896561195797" lon="5.955614720943978"><ele>306.0</ele><time>2026-04-11T13:58:44Z</time></trkpt><trkpt lat="43.45885122496032" lon="5.955647259430969"><ele>306.0</ele><time>2026-04-11T13:58:45Z</time></trkpt><trkpt lat="43.45875589615217" lon="5.955701506506282"><ele>306.0</ele><time>2026-04-11T13:58:46Z</time></trkpt><trkpt lat="43.458643512824146" lon="5.9557766027826124"><ele>306.0</ele><time>2026-04-11T13:58:47Z</time></trkpt><trkpt lat="43.458527105495385" lon="5.955851036124583"><ele>308.6</ele><time>2026-04-11T13:58:48Z</time></trkpt><trkpt lat="43.45842143531407" lon="5.955894633248501"><ele>311.20000000000005</ele><time>2026-04-11T13:58:49Z</time></trkpt><trkpt lat="43.4583337391214" lon="5.955932733152253"><ele>313.79999999999995</ele><time>2026-04-11T13:58:50Z</time></trkpt><trkpt lat="43.45824164757587" lon="5.955985487720561"><ele>316.4</ele><time>2026-04-11T13:58:51Z</time></trkpt><trkpt lat="43.45814285233088" lon="5.956039086612898"><ele>319.0</ele><time>2026-04-11T13:58:52Z</time></trkpt><trkpt lat="43.45804322908434" lon="5.95610463182648"><ele>316.0</ele><time>2026-04-11T13:58:53Z</time></trkpt><trkpt lat="43.45792738866443" lon="5.956099386954216"><ele>313.0</ele><time>2026-04-11T13:58:54Z</time></trkpt><trkpt lat="43.45783416969911" lon="5.95613970965112"><ele>310.0</ele><time>2026-04-11T13:58:55Z</time></trkpt><trkpt lat="43.45772221103225" lon="5.956183944998586"><ele>307.0</ele><time>2026-04-11T13:58:56Z</time></trkpt><trkpt lat="43.45759109927021" lon="5.956225629302281"><ele>307.0</ele><time>2026-04-11T13:58:57Z</time></trkpt><trkpt lat="43.45745676656318" lon="5.956255202000534"><ele>307.0</ele><time>2026-04-11T13:58:58Z</time></trkpt><trkpt lat="43.4573453770312" lon="5.95627745799649"><ele>307.0</ele><time>2026-04-11T13:58:59Z</time></trkpt><trkpt lat="43.45725519109363" lon="5.956292841633512"><ele>307.0</ele><time>2026-04-11T13:59:00Z</time></trkpt><trkpt lat="43.45717157284566" lon="5.956310072176996"><ele>307.0</ele><time>2026-04-11T13:59:01Z</time></trkpt><trkpt lat="43.45707576135698" lon="5.956334458675837"><ele>306.8</ele><time>2026-04-11T13:59:02Z</time></trkpt><trkpt lat="43.45696076560745" lon="5.956369196347091"><ele>306.6</ele><time>2026-04-11T13:59:03Z</time></trkpt><trkpt lat="43.456845998887665" lon="5.956413980984938"><ele>306.40000000000003</ele><time>2026-04-11T13:59:04Z</time></trkpt><trkpt lat="43.45675534650421" lon="5.956464862983763"><ele>306.2</ele><time>2026-04-11T13:59:05Z</time></trkpt><trkpt lat="43.45668094376272" lon="5.956534283404162"><ele>306.0</ele><time>2026-04-11T13:59:06Z</time></trkpt><trkpt lat="43.45661476112288" lon="5.956618385099241"><ele>308.1666666666667</ele><time>2026-04-11T13:59:07Z</time></trkpt><trkpt lat="43.45654119609151" lon="5.956706314521471"><ele>310.3333333333333</ele><time>2026-04-11T13:59:08Z</time></trkpt><trkpt lat="43.456474951329334" lon="5.956785391433516"><ele>312.5</ele><time>2026-04-11T13:59:09Z</time></trkpt><trkpt lat="43.45640766011308" lon="5.956847491149737"><ele>314.66666666666663</ele><time>2026-04-11T13:59:10Z</time></trkpt><trkpt lat="43.45633930780179" lon="5.956850512451953"><ele>316.8333333333333</ele><time>2026-04-11T13:59:11Z</time></trkpt><trkpt lat="43.456254969374214" lon="5.956876753761524"><ele>319.0</ele><time>2026-04-11T13:59:12Z</time></trkpt><trkpt lat="43.45616284437616" lon="5.956910395423028"><ele>319.79999999999995</ele><time>2026-04-11T13:59:13Z</time></trkpt><trkpt lat="43.456073421258054" lon="5.956935678952625"><ele>320.59999999999997</ele><time>2026-04-11T13:59:14Z</time></trkpt><trkpt lat="43.4559956303672" lon="5.956962678616907"><ele>321.4</ele><time>2026-04-11T13:59:15Z</time></trkpt><trkpt lat="43.45589189821511" lon="5.957059914171498"><ele>322.2</ele><time>2026-04-11T13:59:17Z</time></trkpt><trkpt lat="43.455822698117196" lon="5.957140744540076"><ele>323.0</ele><time>2026-04-11T13:59:18Z</time></trkpt><trkpt lat="43.45575332651054" lon="5.957231064615737"><ele>323.0</ele><time>2026-04-11T13:59:19Z</time></trkpt><trkpt lat="43.45572843536838" lon="5.957346734767279"><ele>323.0</ele><time>2026-04-11T13:59:20Z</time></trkpt><trkpt lat="43.455685333160886" lon="5.957433718108451"><ele>323.0</ele><time>2026-04-11T13:59:21Z</time></trkpt><trkpt lat="43.4556043740897" lon="5.957451929277262"><ele>323.0</ele><time>2026-04-11T13:59:24Z</time></trkpt><trkpt lat="43.45551324530489" lon="5.957450736877997"><ele>323.0</ele><time>2026-04-11T13:59:25Z</time></trkpt><trkpt lat="43.45540110481469" lon="5.95744926954731"><ele>323.0</ele><time>2026-04-11T13:59:26Z</time></trkpt><trkpt lat="43.45530533457041" lon="5.957448096360719"><ele>321.83333333333337</ele><time>2026-04-11T13:59:27Z</time></trkpt><trkpt lat="43.45521863775094" lon="5.957450680042078"><ele>320.6666666666667</ele><time>2026-04-11T13:59:28Z</time></trkpt><trkpt lat="43.455139279315354" lon="5.957459130057839"><ele>319.5</ele><time>2026-04-11T13:59:29Z</time></trkpt><trkpt lat="43.45506810980358" lon="5.957515760273175"><ele>318.3333333333333</ele><time>2026-04-11T13:59:30Z</time></trkpt><trkpt lat="43.454997086782335" lon="5.95751028824737"><ele>317.16666666666663</ele><time>2026-04-11T13:59:31Z</time></trkpt><trkpt lat="43.454925791032366" lon="5.957483695022617"><ele>316.0</ele><time>2026-04-11T13:59:32Z</time></trkpt><trkpt lat="43.45485282538292" lon="5.957495200373219"><ele>316.0</ele><time>2026-04-11T13:59:33Z</time></trkpt><trkpt lat="43.45477711404749" lon="5.957531840027505"><ele>316.0</ele><time>2026-04-11T13:59:34Z</time></trkpt><trkpt lat="43.45469627837922" lon="5.95760717734737"><ele>316.0</ele><time>2026-04-11T13:59:35Z</time></trkpt><trkpt lat="43.45464635315115" lon="5.95769666363823"><ele>316.0</ele><time>2026-04-11T13:59:36Z</time></trkpt><trkpt lat="43.4545842623906" lon="5.957768562820654"><ele>316.0</ele><time>2026-04-11T13:59:37Z</time></trkpt><trkpt lat="43.45452025404204" lon="5.957835144119833"><ele>316.0</ele><time>2026-04-11T13:59:38Z</time></trkpt><trkpt lat="43.4544676198591" lon="5.957903961317604"><ele>316.16666666666663</ele><time>2026-04-11T13:59:38.999Z</time></trkpt><trkpt lat="43.4544187088996" lon="5.957977973362991"><ele>316.3333333333333</ele><time>2026-04-11T13:59:39.999Z</time></trkpt><trkpt lat="43.454367363852356" lon="5.958043256565712"><ele>316.5</ele><time>2026-04-11T13:59:40.999Z</time></trkpt><trkpt lat="43.45425953628572" lon="5.95813788332056"><ele>316.6666666666667</ele><time>2026-04-11T13:59:42.999Z</time></trkpt><trkpt lat="43.4541963267231" lon="5.958159230928156"><ele>316.83333333333337</ele><time>2026-04-11T13:59:43.999Z</time></trkpt><trkpt lat="43.454133297058085" lon="5.9581654373316715"><ele>317.0</ele><time>2026-04-11T13:59:44.999Z</time></trkpt><trkpt lat="43.45406927546293" lon="5.958144717657772"><ele>317.0</ele><time>2026-04-11T13:59:45.999Z</time></trkpt><trkpt lat="43.45399784245873" lon="5.958108411457068"><ele>317.0</ele><time>2026-04-11T13:59:46.999Z</time></trkpt><trkpt lat="43.45392894090901" lon="5.958081485349933"><ele>317.0</ele><time>2026-04-11T13:59:47.999Z</time></trkpt><trkpt lat="43.45384321697228" lon="5.958076032399845"><ele>317.0</ele><time>2026-04-11T13:59:48.999Z</time></trkpt><trkpt lat="43.45373675838214" lon="5.958086649136083"><ele>317.0</ele><time>2026-04-11T13:59:49.999Z</time></trkpt><trkpt lat="43.453623828741165" lon="5.9581116047891"><ele>319.0</ele><time>2026-04-11T13:59:50.999Z</time></trkpt><trkpt lat="43.45351152040755" lon="5.958134895561472"><ele>321.0</ele><time>2026-04-11T13:59:51.999Z</time></trkpt><trkpt lat="43.45339967150245" lon="5.958139719421174"><ele>323.0</ele><time>2026-04-11T13:59:52.999Z</time></trkpt><trkpt lat="43.45329710387697" lon="5.95809583769694"><ele>325.0</ele><time>2026-04-11T13:59:53.999Z</time></trkpt><trkpt lat="43.453189367931934" lon="5.958025403996314"><ele>325.0</ele><time>2026-04-11T13:59:54.999Z</time></trkpt><trkpt lat="43.45306922233616" lon="5.957958103372494"><ele>325.0</ele><time>2026-04-11T13:59:55.999Z</time></trkpt><trkpt lat="43.45296272963055" lon="5.9578878686502605"><ele>325.0</ele><time>2026-04-11T13:59:56.999Z</time></trkpt><trkpt lat="43.452874687660696" lon="5.9578217486414236"><ele>325.0</ele><time>2026-04-11T13:59:57.999Z</time></trkpt><trkpt lat="43.45276377771082" lon="5.957741985363226"><ele>324.8</ele><time>2026-04-11T13:59:58.999Z</time></trkpt><trkpt lat="43.45265466229486" lon="5.957658516882383"><ele>324.6</ele><time>2026-04-11T13:59:59.999Z</time></trkpt><trkpt lat="43.45257208700699" lon="5.957586334812178"><ele>324.4</ele><time>2026-04-11T14:00:00.999Z</time></trkpt><trkpt lat="43.45251520778161" lon="5.957526559464875"><ele>324.2</ele><time>2026-04-11T14:00:01.999Z</time></trkpt><trkpt lat="43.45240294227493" lon="5.9574932823950295"><ele>324.0</ele><time>2026-04-11T14:00:03.999Z</time></trkpt><trkpt lat="43.45234319880841" lon="5.95753127074836"><ele>325.0</ele><time>2026-04-11T14:00:04.999Z</time></trkpt><trkpt lat="43.452286051199295" lon="5.957570596148737"><ele>326.0</ele><time>2026-04-11T14:00:05.999Z</time></trkpt><trkpt lat="43.45220845348449" lon="5.957570789005737"><ele>327.0</ele><time>2026-04-11T14:00:07.999Z</time></trkpt><trkpt lat="43.45210778666155" lon="5.957544841231079"><ele>328.0</ele><time>2026-04-11T14:00:09.999Z</time></trkpt><trkpt lat="43.45198205256979" lon="5.957642805462147"><ele>329.0</ele><time>2026-04-11T14:00:11.999Z</time></trkpt><trkpt lat="43.45195153975521" lon="5.957721791941465"><ele>329.0</ele><time>2026-04-11T14:00:12.999Z</time></trkpt><trkpt lat="43.45202322078781" lon="5.957787947813179"><ele>329.0</ele><time>2026-04-11T14:00:14.999Z</time></trkpt><trkpt lat="43.45200563689456" lon="5.957887792233781"><ele>329.0</ele><time>2026-04-11T14:00:16.999Z</time></trkpt><trkpt lat="43.451962304719544" lon="5.957950923700586"><ele>329.0</ele><time>2026-04-11T14:00:17.999Z</time></trkpt><trkpt lat="43.451920831973645" lon="5.958088940779201"><ele>329.0</ele><time>2026-04-11T14:00:19.999Z</time></trkpt><trkpt lat="43.45189873605233" lon="5.958197039079"><ele>329.0</ele><time>2026-04-11T14:00:20.999Z</time></trkpt><trkpt lat="43.45187021432991" lon="5.9583249244186165"><ele>328.1666666666667</ele><time>2026-04-11T14:00:21.999Z</time></trkpt><trkpt lat="43.45185188129234" lon="5.958439250517416"><ele>327.33333333333337</ele><time>2026-04-11T14:00:23Z</time></trkpt><trkpt lat="43.45180730600246" lon="5.958548627938979"><ele>326.5</ele><time>2026-04-11T14:00:24Z</time></trkpt><trkpt lat="43.45178725171258" lon="5.958676345987614"><ele>325.6666666666667</ele><time>2026-04-11T14:00:25Z</time></trkpt><trkpt lat="43.45176921237531" lon="5.958798230096648"><ele>324.8333333333333</ele><time>2026-04-11T14:00:26Z</time></trkpt><trkpt lat="43.45175366632991" lon="5.958916921527248"><ele>324.0</ele><time>2026-04-11T14:00:27Z</time></trkpt><trkpt lat="43.451739297422826" lon="5.959043134643098"><ele>323.6</ele><time>2026-04-11T14:00:28Z</time></trkpt><trkpt lat="43.451727731560666" lon="5.959203820960357"><ele>323.2</ele><time>2026-04-11T14:00:29Z</time></trkpt><trkpt lat="43.451720138750304" lon="5.95934479076261"><ele>322.8</ele><time>2026-04-11T14:00:30Z</time></trkpt><trkpt lat="43.45171302416248" lon="5.959481536585882"><ele>322.40000000000003</ele><time>2026-04-11T14:00:31Z</time></trkpt><trkpt lat="43.45170385852648" lon="5.9596114000889955"><ele>322.0</ele><time>2026-04-11T14:00:32Z</time></trkpt><trkpt lat="43.45169480809217" lon="5.959741459655284"><ele>322.0</ele><time>2026-04-11T14:00:33Z</time></trkpt><trkpt lat="43.45168406728764" lon="5.959882105889604"><ele>322.0</ele><time>2026-04-11T14:00:34Z</time></trkpt><trkpt lat="43.451671910072015" lon="5.960024918706089"><ele>322.0</ele><time>2026-04-11T14:00:35Z</time></trkpt><trkpt lat="43.45166034096902" lon="5.96014814617193"><ele>322.0</ele><time>2026-04-11T14:00:36Z</time></trkpt><trkpt lat="43.451646295472194" lon="5.960273352589003"><ele>322.0</ele><time>2026-04-11T14:00:37Z</time></trkpt><trkpt lat="43.45163416012822" lon="5.960379334792808"><ele>321.8333333333333</ele><time>2026-04-11T14:00:38Z</time></trkpt><trkpt lat="43.451615341798856" lon="5.960491398487354"><ele>321.66666666666663</ele><time>2026-04-11T14:00:39Z</time></trkpt><trkpt lat="43.45158845306205" lon="5.960612469900939"><ele>321.5</ele><time>2026-04-11T14:00:40Z</time></trkpt><trkpt lat="43.45155715619314" lon="5.960720131378003"><ele>321.3333333333333</ele><time>2026-04-11T14:00:41Z</time></trkpt><trkpt lat="43.45152117094545" lon="5.960821580459289"><ele>321.1666666666667</ele><time>2026-04-11T14:00:42Z</time></trkpt><trkpt lat="43.451489960604526" lon="5.96090558227864"><ele>321.0</ele><time>2026-04-11T14:00:43Z</time></trkpt><trkpt lat="43.451458464024086" lon="5.960983690338544"><ele>322.0</ele><time>2026-04-11T14:00:44Z</time></trkpt><trkpt lat="43.451389053652846" lon="5.961150458156552"><ele>323.0</ele><time>2026-04-11T14:00:46Z</time></trkpt><trkpt lat="43.45133785730476" lon="5.961262103753664"><ele>324.0</ele><time>2026-04-11T14:00:47Z</time></trkpt><trkpt lat="43.451289174480415" lon="5.961368267964174"><ele>325.0</ele><time>2026-04-11T14:00:48Z</time></trkpt><trkpt lat="43.45119452540197" lon="5.961260243013138"><ele>326.0</ele><time>2026-04-11T14:00:49Z</time></trkpt><trkpt lat="43.451112734824285" lon="5.961301039149625"><ele>327.75</ele><time>2026-04-11T14:00:50Z</time></trkpt><trkpt lat="43.45104357557896" lon="5.961332901036769"><ele>329.5</ele><time>2026-04-11T14:00:52Z</time></trkpt><trkpt lat="43.45097352057242" lon="5.96134828626319"><ele>331.25</ele><time>2026-04-11T14:00:54Z</time></trkpt><trkpt lat="43.45096043289677" lon="5.96169194113733"><ele>333.0</ele><time>2026-04-11T14:00:55Z</time></trkpt><trkpt lat="43.4508704553011" lon="5.9617275737937225"><ele>334.6666666666667</ele><time>2026-04-11T14:00:57Z</time></trkpt><trkpt lat="43.45088604101471" lon="5.961816772172282"><ele>336.3333333333333</ele><time>2026-04-11T14:01:00Z</time></trkpt><trkpt lat="43.45082104892816" lon="5.961918838267195"><ele>338.0</ele><time>2026-04-11T14:01:03Z</time></trkpt><trkpt lat="43.45074274312544" lon="5.962002398067028"><ele>339.66666666666663</ele><time>2026-04-11T14:01:05Z</time></trkpt><trkpt lat="43.45073848540399" lon="5.962090094215635"><ele>341.3333333333333</ele><time>2026-04-11T14:01:08Z</time></trkpt><trkpt lat="43.450774323411444" lon="5.96218294102685"><ele>343.0</ele><time>2026-04-11T14:01:10Z</time></trkpt><trkpt lat="43.450763204194374" lon="5.962311125577668"><ele>343.0</ele><time>2026-04-11T14:01:12Z</time></trkpt><trkpt lat="43.45067199177402" lon="5.962417144194305"><ele>343.0</ele><time>2026-04-11T14:01:14Z</time></trkpt><trkpt lat="43.45061156327372" lon="5.962459563544919"><ele>343.0</ele><time>2026-04-11T14:01:16Z</time></trkpt><trkpt lat="43.45056813478532" lon="5.962575309582127"><ele>343.0</ele><time>2026-04-11T14:01:18Z</time></trkpt><trkpt lat="43.45054123936783" lon="5.962662968804497"><ele>343.0</ele><time>2026-04-11T14:01:19Z</time></trkpt><trkpt lat="43.45048585192963" lon="5.962781126692607"><ele>344.66666666666663</ele><time>2026-04-11T14:01:20Z</time></trkpt><trkpt lat="43.450429805871615" lon="5.962887965081792"><ele>346.3333333333333</ele><time>2026-04-11T14:01:21Z</time></trkpt><trkpt lat="43.45039430764849" lon="5.962987465840129"><ele>348.0</ele><time>2026-04-11T14:01:22Z</time></trkpt><trkpt lat="43.45036023071423" lon="5.963100200600814"><ele>349.6666666666667</ele><time>2026-04-11T14:01:24Z</time></trkpt><trkpt lat="43.45031826258167" lon="5.963178500081621"><ele>351.33333333333337</ele><time>2026-04-11T14:01:27Z</time></trkpt><trkpt lat="43.450287190105804" lon="5.963259687267386"><ele>353.0</ele><time>2026-04-11T14:01:37.999Z</time></trkpt><trkpt lat="43.450253962661456" lon="5.963360303362871"><ele>352.59999999999997</ele><time>2026-04-11T14:01:38.999Z</time></trkpt><trkpt lat="43.45021837629494" lon="5.963479964290731"><ele>352.2</ele><time>2026-04-11T14:01:39.999Z</time></trkpt><trkpt lat="43.450170920842254" lon="5.963581184245751"><ele>351.8</ele><time>2026-04-11T14:01:40.999Z</time></trkpt><trkpt lat="43.45007843614275" lon="5.9636545277089725"><ele>351.4</ele><time>2026-04-11T14:01:42.999Z</time></trkpt><trkpt lat="43.449994212403254" lon="5.963545762767612"><ele>351.0</ele><time>2026-04-11T14:01:44.999Z</time></trkpt><trkpt lat="43.44993861473495" lon="5.963439069926843"><ele>351.4</ele><time>2026-04-11T14:01:45.999Z</time></trkpt><trkpt lat="43.449859511572264" lon="5.96334672451106"><ele>351.8</ele><time>2026-04-11T14:01:46.999Z</time></trkpt><trkpt lat="43.44977857776078" lon="5.963259772866734"><ele>352.2</ele><time>2026-04-11T14:01:47.999Z</time></trkpt><trkpt lat="43.44969250726895" lon="5.963186825438081"><ele>352.59999999999997</ele><time>2026-04-11T14:01:48.999Z</time></trkpt><trkpt lat="43.44961173313337" lon="5.963144022056859"><ele>353.0</ele><time>2026-04-11T14:01:49.999Z</time></trkpt><trkpt lat="43.44956030330702" lon="5.963072998325771"><ele>353.5</ele><time>2026-04-11T14:01:50.999Z</time></trkpt><trkpt lat="43.44948838986756" lon="5.962988190949711"><ele>354.0</ele><time>2026-04-11T14:01:51.999Z</time></trkpt><trkpt lat="43.44940717823527" lon="5.962929432208347"><ele>354.5</ele><time>2026-04-11T14:01:52.999Z</time></trkpt><trkpt lat="43.449329092998134" lon="5.962855344297826"><ele>355.0</ele><time>2026-04-11T14:01:53.999Z</time></trkpt><trkpt lat="43.44925560143977" lon="5.962794591508982"><ele>355.5</ele><time>2026-04-11T14:01:54.999Z</time></trkpt><trkpt lat="43.44919094607059" lon="5.962747097990988"><ele>356.0</ele><time>2026-04-11T14:01:55.999Z</time></trkpt><trkpt lat="43.44910916661179" lon="5.962663036380855"><ele>356.0</ele><time>2026-04-11T14:01:56.999Z</time></trkpt><trkpt lat="43.449047736802235" lon="5.962610466944243"><ele>356.0</ele><time>2026-04-11T14:01:57.999Z</time></trkpt><trkpt lat="43.44897290826226" lon="5.962598558488814"><ele>356.0</ele><time>2026-04-11T14:01:58.999Z</time></trkpt><trkpt lat="43.448897489519034" lon="5.962566227016286"><ele>356.0</ele><time>2026-04-11T14:01:59.999Z</time></trkpt><trkpt lat="43.44878919276084" lon="5.962534484095583"><ele>356.0</ele><time>2026-04-11T14:02:00.999Z</time></trkpt><trkpt lat="43.44868582262582" lon="5.9625335636892665"><ele>356.0</ele><time>2026-04-11T14:02:01.999Z</time></trkpt><trkpt lat="43.44859832767985" lon="5.962542579882522"><ele>355.5</ele><time>2026-04-11T14:02:02.999Z</time></trkpt><trkpt lat="43.44851799085701" lon="5.962533194396172"><ele>355.0</ele><time>2026-04-11T14:02:03.999Z</time></trkpt><trkpt lat="43.44843716761857" lon="5.9625323014487766"><ele>354.5</ele><time>2026-04-11T14:02:04.999Z</time></trkpt><trkpt lat="43.44836367642848" lon="5.96256324718828"><ele>354.0</ele><time>2026-04-11T14:02:05.999Z</time></trkpt><trkpt lat="43.448298644438275" lon="5.962611893950382"><ele>353.5</ele><time>2026-04-11T14:02:06.999Z</time></trkpt><trkpt lat="43.448228375427426" lon="5.962669711663101"><ele>353.0</ele><time>2026-04-11T14:02:07.999Z</time></trkpt><trkpt lat="43.448160611765736" lon="5.962696305309985"><ele>353.0</ele><time>2026-04-11T14:02:08.999Z</time></trkpt><trkpt lat="43.44807655628796" lon="5.962723143540505"><ele>353.0</ele><time>2026-04-11T14:02:09.999Z</time></trkpt><trkpt lat="43.448006775105156" lon="5.962767522774112"><ele>353.0</ele><time>2026-04-11T14:02:10.999Z</time></trkpt><trkpt lat="43.447935018123" lon="5.962777750758387"><ele>353.0</ele><time>2026-04-11T14:02:11.999Z</time></trkpt><trkpt lat="43.44786733993971" lon="5.962792901100525"><ele>353.0</ele><time>2026-04-11T14:02:12.999Z</time></trkpt><trkpt lat="43.44780262499109" lon="5.962816713486267"><ele>353.0</ele><time>2026-04-11T14:02:13.999Z</time></trkpt><trkpt lat="43.447740316506575" lon="5.9628394916761644"><ele>353.0</ele><time>2026-04-11T14:02:14.999Z</time></trkpt><trkpt lat="43.44762997903505" lon="5.962850163448113"><ele>351.33333333333337</ele><time>2026-04-11T14:02:16.999Z</time></trkpt><trkpt lat="43.44754437176109" lon="5.962856000262629"><ele>349.6666666666667</ele><time>2026-04-11T14:02:18.999Z</time></trkpt><trkpt lat="43.447456629408975" lon="5.962866301343882"><ele>348.0</ele><time>2026-04-11T14:02:20.999Z</time></trkpt><trkpt lat="43.4473448387418" lon="5.962897295134483"><ele>346.3333333333333</ele><time>2026-04-11T14:02:22.999Z</time></trkpt><trkpt lat="43.447278986128964" lon="5.962925444465942"><ele>344.66666666666663</ele><time>2026-04-11T14:02:24.999Z</time></trkpt><trkpt lat="43.447211809973915" lon="5.962954768284637"><ele>343.0</ele><time>2026-04-11T14:02:27.999Z</time></trkpt><trkpt lat="43.447143930831324" lon="5.962977788090637"><ele>342.4</ele><time>2026-04-11T14:02:30Z</time></trkpt><trkpt lat="43.44706574533744" lon="5.9630161932297066"><ele>341.79999999999995</ele><time>2026-04-11T14:02:33Z</time></trkpt><trkpt lat="43.44695327873193" lon="5.963075899142197"><ele>341.2</ele><time>2026-04-11T14:02:36Z</time></trkpt><trkpt lat="43.446897667586676" lon="5.963122707407093"><ele>340.6</ele><time>2026-04-11T14:02:37Z</time></trkpt><trkpt lat="43.446796525297245" lon="5.963173079713218"><ele>340.0</ele><time>2026-04-11T14:02:39Z</time></trkpt><trkpt lat="43.446691283910276" lon="5.963223345485555"><ele>340.0</ele><time>2026-04-11T14:02:41Z</time></trkpt><trkpt lat="43.446607037974815" lon="5.9632512383406535"><ele>340.0</ele><time>2026-04-11T14:02:43Z</time></trkpt><trkpt lat="43.446516546451356" lon="5.963276204670789"><ele>340.0</ele><time>2026-04-11T14:02:46Z</time></trkpt><trkpt lat="43.44641287195865" lon="5.963316597335165"><ele>340.0</ele><time>2026-04-11T14:02:48Z</time></trkpt><trkpt lat="43.44632870168581" lon="5.963341005334697"><ele>340.0</ele><time>2026-04-11T14:02:49Z</time></trkpt><trkpt lat="43.446236746082484" lon="5.963377934371665"><ele>342.2</ele><time>2026-04-11T14:02:51Z</time></trkpt><trkpt lat="43.44612327338476" lon="5.963420758647386"><ele>344.4</ele><time>2026-04-11T14:02:53Z</time></trkpt><trkpt lat="43.446049735622815" lon="5.963456024072944"><ele>346.6</ele><time>2026-04-11T14:02:54Z</time></trkpt><trkpt lat="43.44590963871684" lon="5.963473212126521"><ele>348.8</ele><time>2026-04-11T14:02:56Z</time></trkpt><trkpt lat="43.445831424432214" lon="5.96348575318085"><ele>351.0</ele><time>2026-04-11T14:02:57Z</time></trkpt><trkpt lat="43.445767364119654" lon="5.963505995784322"><ele>351.0</ele><time>2026-04-11T14:02:58Z</time></trkpt><trkpt lat="43.4456943512201" lon="5.9635375241531055"><ele>351.0</ele><time>2026-04-11T14:02:59Z</time></trkpt><trkpt lat="43.44563228749343" lon="5.963558740880668"><ele>351.0</ele><time>2026-04-11T14:03:00Z</time></trkpt><trkpt lat="43.44556395719059" lon="5.9635710085264355"><ele>351.0</ele><time>2026-04-11T14:03:01Z</time></trkpt><trkpt lat="43.44547158071051" lon="5.963572031603408"><ele>351.0</ele><time>2026-04-11T14:03:02Z</time></trkpt><trkpt lat="43.44539213240344" lon="5.963572013110265"><ele>351.0</ele><time>2026-04-11T14:03:03Z</time></trkpt><trkpt lat="43.445321251896374" lon="5.963581712103015"><ele>353.0</ele><time>2026-04-11T14:03:04Z</time></trkpt><trkpt lat="43.445232095903506" lon="5.963569931196304"><ele>355.0</ele><time>2026-04-11T14:03:05Z</time></trkpt><trkpt lat="43.44514613323321" lon="5.9635867259505675"><ele>357.0</ele><time>2026-04-11T14:03:06Z</time></trkpt><trkpt lat="43.44505113479417" lon="5.963628984810144"><ele>359.0</ele><time>2026-04-11T14:03:07Z</time></trkpt><trkpt lat="43.444955126818066" lon="5.963671068509227"><ele>361.0</ele><time>2026-04-11T14:03:08Z</time></trkpt><trkpt lat="43.44488196085371" lon="5.963720836839659"><ele>361.0</ele><time>2026-04-11T14:03:09Z</time></trkpt><trkpt lat="43.444810134936816" lon="5.963777683078904"><ele>361.0</ele><time>2026-04-11T14:03:10Z</time></trkpt><trkpt lat="43.44473925637115" lon="5.963836721797496"><ele>361.0</ele><time>2026-04-11T14:03:11Z</time></trkpt><trkpt lat="43.444664664975996" lon="5.963901867199731"><ele>361.0</ele><time>2026-04-11T14:03:12Z</time></trkpt><trkpt lat="43.444594242925774" lon="5.963946043404848"><ele>361.0</ele><time>2026-04-11T14:03:13Z</time></trkpt><trkpt lat="43.44453104769208" lon="5.963979345553604"><ele>361.0</ele><time>2026-04-11T14:03:14Z</time></trkpt><trkpt lat="43.444388377829846" lon="5.964026411913732"><ele>361.16666666666663</ele><time>2026-04-11T14:03:16Z</time></trkpt><trkpt lat="43.44430908298516" lon="5.96406685345974"><ele>361.3333333333333</ele><time>2026-04-11T14:03:17Z</time></trkpt><trkpt lat="43.44420558877234" lon="5.964124861744693"><ele>361.5</ele><time>2026-04-11T14:03:19Z</time></trkpt><trkpt lat="43.44413974255031" lon="5.964150118495273"><ele>361.6666666666667</ele><time>2026-04-11T14:03:20Z</time></trkpt><trkpt lat="43.444067049878875" lon="5.96419005556429"><ele>361.83333333333337</ele><time>2026-04-11T14:03:21Z</time></trkpt><trkpt lat="43.443972800740994" lon="5.964230644553654"><ele>362.0</ele><time>2026-04-11T14:03:23Z</time></trkpt><trkpt lat="43.44386928976732" lon="5.96427601037017"><ele>363.1666666666667</ele><time>2026-04-11T14:03:25Z</time></trkpt><trkpt lat="43.44378160361996" lon="5.964287330254008"><ele>364.33333333333337</ele><time>2026-04-11T14:03:27Z</time></trkpt><trkpt lat="43.44369822900837" lon="5.9642947269766715"><ele>365.5</ele><time>2026-04-11T14:03:28Z</time></trkpt><trkpt lat="43.44361025210629" lon="5.96431939699883"><ele>366.6666666666667</ele><time>2026-04-11T14:03:29Z</time></trkpt><trkpt lat="43.44351638563918" lon="5.964370196342518"><ele>367.8333333333333</ele><time>2026-04-11T14:03:31Z</time></trkpt><trkpt lat="43.4434554614785" lon="5.96442752400779"><ele>369.0</ele><time>2026-04-11T14:03:31.999Z</time></trkpt><trkpt lat="43.443394481676435" lon="5.9644860171665295"><ele>369.0</ele><time>2026-04-11T14:03:32.999Z</time></trkpt><trkpt lat="43.443327751898245" lon="5.964535820326291"><ele>369.0</ele><time>2026-04-11T14:03:33.999Z</time></trkpt><trkpt lat="43.44325303249627" lon="5.964586814035586"><ele>369.0</ele><time>2026-04-11T14:03:34.999Z</time></trkpt><trkpt lat="43.44314218840725" lon="5.964630871887916"><ele>369.0</ele><time>2026-04-11T14:03:36.999Z</time></trkpt><trkpt lat="43.44305969684029" lon="5.96470192050049"><ele>369.0</ele><time>2026-04-11T14:03:38.999Z</time></trkpt><trkpt lat="43.442946004716205" lon="5.964790984004176"><ele>369.8333333333333</ele><time>2026-04-11T14:03:40.999Z</time></trkpt><trkpt lat="43.44287490003567" lon="5.964824059190579"><ele>370.6666666666667</ele><time>2026-04-11T14:03:41.999Z</time></trkpt><trkpt lat="43.44280610354661" lon="5.964860974431113"><ele>371.5</ele><time>2026-04-11T14:03:42.999Z</time></trkpt><trkpt lat="43.44270206670588" lon="5.964953531088279"><ele>372.33333333333337</ele><time>2026-04-11T14:03:44.999Z</time></trkpt><trkpt lat="43.44264621378982" lon="5.965003302449579"><ele>373.1666666666667</ele><time>2026-04-11T14:03:45.999Z</time></trkpt><trkpt lat="43.442586894425446" lon="5.965038004787272"><ele>374.0</ele><time>2026-04-11T14:03:46.999Z</time></trkpt><trkpt lat="43.44249311266575" lon="5.965115245282118"><ele>374.0</ele><time>2026-04-11T14:03:48.999Z</time></trkpt><trkpt lat="43.442449335731645" lon="5.965181625146733"><ele>374.0</ele><time>2026-04-11T14:03:49.999Z</time></trkpt><trkpt lat="43.44240691864547" lon="5.965255453425039"><ele>374.0</ele><time>2026-04-11T14:03:50.999Z</time></trkpt><trkpt lat="43.44229948805236" lon="5.965311668859637"><ele>374.0</ele><time>2026-04-11T14:03:52.999Z</time></trkpt><trkpt lat="43.44222952788642" lon="5.965351192796937"><ele>374.0</ele><time>2026-04-11T14:03:53.999Z</time></trkpt><trkpt lat="43.442128698250976" lon="5.965435056544605"><ele>374.0</ele><time>2026-04-11T14:03:55.999Z</time></trkpt><trkpt lat="43.442025886775326" lon="5.965513274934645"><ele>374.0</ele><time>2026-04-11T14:03:57.999Z</time></trkpt><trkpt lat="43.44192528397823" lon="5.96558379905474"><ele>374.0</ele><time>2026-04-11T14:03:59.999Z</time></trkpt><trkpt lat="43.441832351905305" lon="5.9656866044361125"><ele>374.0</ele><time>2026-04-11T14:04:01.999Z</time></trkpt><trkpt lat="43.44174817783808" lon="5.965757923041263"><ele>374.0</ele><time>2026-04-11T14:04:03.999Z</time></trkpt><trkpt lat="43.44168880155559" lon="5.965858159314455"><ele>374.0</ele><time>2026-04-11T14:04:05.999Z</time></trkpt><trkpt lat="43.44162056897583" lon="5.965968636079313"><ele>372.79999999999995</ele><time>2026-04-11T14:04:07.999Z</time></trkpt><trkpt lat="43.44151895353624" lon="5.966008255628716"><ele>371.59999999999997</ele><time>2026-04-11T14:04:08.999Z</time></trkpt><trkpt lat="43.44141514511605" lon="5.966056424898722"><ele>370.4</ele><time>2026-04-11T14:04:10.999Z</time></trkpt><trkpt lat="43.44130783019954" lon="5.9661054462509675"><ele>369.2</ele><time>2026-04-11T14:04:12.999Z</time></trkpt><trkpt lat="43.441257805053986" lon="5.966167568803233"><ele>368.0</ele><time>2026-04-11T14:04:13.999Z</time></trkpt><trkpt lat="43.441191901893184" lon="5.966256123392317"><ele>368.0</ele><time>2026-04-11T14:04:14.999Z</time></trkpt><trkpt lat="43.44112607923901" lon="5.96632803652146"><ele>368.0</ele><time>2026-04-11T14:04:15.999Z</time></trkpt><trkpt lat="43.44105625118415" lon="5.966378987364717"><ele>368.0</ele><time>2026-04-11T14:04:16.999Z</time></trkpt><trkpt lat="43.44098573842207" lon="5.966448770613434"><ele>368.0</ele><time>2026-04-11T14:04:17.999Z</time></trkpt><trkpt lat="43.44090193219426" lon="5.96654602232182"><ele>368.0</ele><time>2026-04-11T14:04:18.999Z</time></trkpt><trkpt lat="43.44083087495325" lon="5.966605174389264"><ele>368.0</ele><time>2026-04-11T14:04:19.999Z</time></trkpt><trkpt lat="43.44074732475476" lon="5.966688739362981"><ele>367.79999999999995</ele><time>2026-04-11T14:04:20.999Z</time></trkpt><trkpt lat="43.44066778706162" lon="5.966745481749962"><ele>367.6</ele><time>2026-04-11T14:04:21.999Z</time></trkpt><trkpt lat="43.44056824062919" lon="5.9668339463984505"><ele>367.4</ele><time>2026-04-11T14:04:23.999Z</time></trkpt><trkpt lat="43.440493567662585" lon="5.966959199149314"><ele>367.20000000000005</ele><time>2026-04-11T14:04:25.999Z</time></trkpt><trkpt lat="43.44044081200648" lon="5.967021354440145"><ele>367.0</ele><time>2026-04-11T14:04:26.999Z</time></trkpt><trkpt lat="43.44040886605257" lon="5.967096555076079"><ele>366.40000000000003</ele><time>2026-04-11T14:04:27.999Z</time></trkpt><trkpt lat="43.440396287602894" lon="5.967204950033929"><ele>365.8</ele><time>2026-04-11T14:04:28.999Z</time></trkpt><trkpt lat="43.44034584260832" lon="5.967324153001454"><ele>365.2</ele><time>2026-04-11T14:04:29.999Z</time></trkpt><trkpt lat="43.44031877804557" lon="5.967467791507064"><ele>364.6</ele><time>2026-04-11T14:04:30.999Z</time></trkpt><trkpt lat="43.44031291803386" lon="5.967576482017576"><ele>364.0</ele><time>2026-04-11T14:04:31.999Z</time></trkpt><trkpt lat="43.44029545673553" lon="5.967689850892105"><ele>363.85714285714283</ele><time>2026-04-11T14:04:32.999Z</time></trkpt><trkpt lat="43.44028076676912" lon="5.967781314457773"><ele>363.7142857142857</ele><time>2026-04-11T14:04:33.999Z</time></trkpt><trkpt lat="43.440266153099735" lon="5.9678873996554564"><ele>363.57142857142856</ele><time>2026-04-11T14:04:35Z</time></trkpt><trkpt lat="43.4402486701559" lon="5.967993779726675"><ele>363.42857142857144</ele><time>2026-04-11T14:04:36Z</time></trkpt><trkpt lat="43.44023250718431" lon="5.968087050173406"><ele>363.2857142857143</ele><time>2026-04-11T14:04:37Z</time></trkpt><trkpt lat="43.44023079089521" lon="5.968181757620277"><ele>363.1428571428571</ele><time>2026-04-11T14:04:38Z</time></trkpt><trkpt lat="43.44022475467757" lon="5.968273497061897"><ele>363.0</ele><time>2026-04-11T14:04:39Z</time></trkpt><trkpt lat="43.44019742955824" lon="5.968388807899602"><ele>362.0</ele><time>2026-04-11T14:04:40Z</time></trkpt><trkpt lat="43.44018924684528" lon="5.96850458978384"><ele>361.0</ele><time>2026-04-11T14:04:41Z</time></trkpt><trkpt lat="43.44016585613486" lon="5.968632769232929"><ele>360.0</ele><time>2026-04-11T14:04:42Z</time></trkpt><trkpt lat="43.44014891584515" lon="5.968741408358861"><ele>359.0</ele><time>2026-04-11T14:04:43Z</time></trkpt><trkpt lat="43.440134221106796" lon="5.9688509253779305"><ele>358.0</ele><time>2026-04-11T14:04:44Z</time></trkpt><trkpt lat="43.440119471090874" lon="5.9689465612692665"><ele>357.0</ele><time>2026-04-11T14:04:45Z</time></trkpt><trkpt lat="43.44010753634002" lon="5.9690317045159595"><ele>357.0</ele><time>2026-04-11T14:04:46Z</time></trkpt><trkpt lat="43.44004928355695" lon="5.969090056279774"><ele>357.0</ele><time>2026-04-11T14:04:49Z</time></trkpt><trkpt lat="43.44001423484737" lon="5.969176316694092"><ele>357.0</ele><time>2026-04-11T14:04:51Z</time></trkpt><trkpt lat="43.439939130999186" lon="5.969245782006963"><ele>357.0</ele><time>2026-04-11T14:04:54Z</time></trkpt><trkpt lat="43.439884154762545" lon="5.969317934528547"><ele>357.0</ele><time>2026-04-11T14:04:55Z</time></trkpt><trkpt lat="43.43980794392878" lon="5.969430727601816"><ele>357.0</ele><time>2026-04-11T14:04:56Z</time></trkpt><trkpt lat="43.439733908342504" lon="5.969506813738751"><ele>356.6666666666667</ele><time>2026-04-11T14:04:58Z</time></trkpt><trkpt lat="43.43968313629631" lon="5.9696488354895605"><ele>356.3333333333333</ele><time>2026-04-11T14:05:00Z</time></trkpt><trkpt lat="43.4396443076065" lon="5.969729479551502"><ele>356.0</ele><time>2026-04-11T14:05:02Z</time></trkpt><trkpt lat="43.439579833309324" lon="5.969697140541721"><ele>355.66666666666663</ele><time>2026-04-11T14:05:04Z</time></trkpt><trkpt lat="43.439496972524985" lon="5.969683899117734"><ele>355.3333333333333</ele><time>2026-04-11T14:14:49.999Z</time></trkpt><trkpt lat="43.43943034209618" lon="5.969681659565231"><ele>355.0</ele><time>2026-04-11T14:14:50.999Z</time></trkpt><trkpt lat="43.4393225078728" lon="5.969676990429657"><ele>356.4</ele><time>2026-04-11T14:14:52.999Z</time></trkpt><trkpt lat="43.43918556975123" lon="5.969723593230235"><ele>357.8</ele><time>2026-04-11T14:14:55Z</time></trkpt><trkpt lat="43.439099094605794" lon="5.969737567624936"><ele>359.20000000000005</ele><time>2026-04-11T14:14:56Z</time></trkpt><trkpt lat="43.43902418741114" lon="5.969742566671548"><ele>360.6</ele><time>2026-04-11T14:14:57Z</time></trkpt><trkpt lat="43.438960758566985" lon="5.969746618990846"><ele>362.0</ele><time>2026-04-11T14:14:58Z</time></trkpt><trkpt lat="43.43886203167599" lon="5.969742293966854"><ele>362.20000000000005</ele><time>2026-04-11T14:15:00Z</time></trkpt><trkpt lat="43.4387731932329" lon="5.969729667031748"><ele>362.4</ele><time>2026-04-11T14:15:02Z</time></trkpt><trkpt lat="43.43867526000605" lon="5.96972268295316"><ele>362.6</ele><time>2026-04-11T14:15:04Z</time></trkpt><trkpt lat="43.438588961351186" lon="5.969702811727576"><ele>362.79999999999995</ele><time>2026-04-11T14:15:06Z</time></trkpt><trkpt lat="43.43849234127858" lon="5.969655549529002"><ele>363.0</ele><time>2026-04-11T14:15:08Z</time></trkpt><trkpt lat="43.43839584526557" lon="5.969581565737404"><ele>363.0</ele><time>2026-04-11T14:15:10Z</time></trkpt><trkpt lat="43.43832273080849" lon="5.96954742450931"><ele>363.0</ele><time>2026-04-11T14:15:11Z</time></trkpt><trkpt lat="43.43822965551857" lon="5.969528493453112"><ele>363.0</ele><time>2026-04-11T14:15:12Z</time></trkpt><trkpt lat="43.438144709256825" lon="5.969535121736925"><ele>363.0</ele><time>2026-04-11T14:15:13Z</time></trkpt><trkpt lat="43.43805850985973" lon="5.9695371710971665"><ele>363.0</ele><time>2026-04-11T14:15:14Z</time></trkpt><trkpt lat="43.437978206389836" lon="5.96953242757512"><ele>363.0</ele><time>2026-04-11T14:15:15Z</time></trkpt><trkpt lat="43.43788989197129" lon="5.969514840723943"><ele>361.79999999999995</ele><time>2026-04-11T14:15:16Z</time></trkpt><trkpt lat="43.43778516190876" lon="5.96948520835179"><ele>360.6</ele><time>2026-04-11T14:15:17Z</time></trkpt><trkpt lat="43.43768592443358" lon="5.969464006892424"><ele>359.4</ele><time>2026-04-11T14:15:18Z</time></trkpt><trkpt lat="43.43760400220353" lon="5.969438961203496"><ele>358.20000000000005</ele><time>2026-04-11T14:15:19Z</time></trkpt><trkpt lat="43.43752552357333" lon="5.969418190656804"><ele>357.0</ele><time>2026-04-11T14:15:20Z</time></trkpt><trkpt lat="43.43743762131767" lon="5.969386303790553"><ele>357.0</ele><time>2026-04-11T14:15:21Z</time></trkpt><trkpt lat="43.4373336684194" lon="5.969350842933726"><ele>357.0</ele><time>2026-04-11T14:15:22Z</time></trkpt><trkpt lat="43.43724297784237" lon="5.969335693057821"><ele>357.0</ele><time>2026-04-11T14:15:23Z</time></trkpt><trkpt lat="43.43717316402558" lon="5.96933018853701"><ele>357.0</ele><time>2026-04-11T14:15:24Z</time></trkpt><trkpt lat="43.437100815419925" lon="5.969354676637309"><ele>357.0</ele><time>2026-04-11T14:15:25Z</time></trkpt><trkpt lat="43.43700117541865" lon="5.969397338027783"><ele>357.0</ele><time>2026-04-11T14:15:26Z</time></trkpt><trkpt lat="43.43688015698559" lon="5.9694506765440405"><ele>356.5</ele><time>2026-04-11T14:15:27Z</time></trkpt><trkpt lat="43.4367680987587" lon="5.969500676774399"><ele>356.0</ele><time>2026-04-11T14:15:28Z</time></trkpt><trkpt lat="43.43667478504335" lon="5.969501882448426"><ele>355.5</ele><time>2026-04-11T14:15:29Z</time></trkpt><trkpt lat="43.436566630131445" lon="5.9694421948460175"><ele>355.0</ele><time>2026-04-11T14:15:31Z</time></trkpt><trkpt lat="43.43646330773335" lon="5.969349184267582"><ele>355.0</ele><time>2026-04-11T14:15:33Z</time></trkpt><trkpt lat="43.436404010849756" lon="5.969263068380389"><ele>355.0</ele><time>2026-04-11T14:15:34Z</time></trkpt><trkpt lat="43.436327759790224" lon="5.969168299321052"><ele>355.0</ele><time>2026-04-11T14:15:35Z</time></trkpt><trkpt lat="43.43625277933704" lon="5.969101811519318"><ele>355.0</ele><time>2026-04-11T14:15:36Z</time></trkpt><trkpt lat="43.436185893336514" lon="5.969041633785496"><ele>355.0</ele><time>2026-04-11T14:15:37Z</time></trkpt><trkpt lat="43.43611098131568" lon="5.9689523999054135"><ele>355.8333333333333</ele><time>2026-04-11T14:15:38Z</time></trkpt><trkpt lat="43.43603029174232" lon="5.968878872446962"><ele>356.66666666666663</ele><time>2026-04-11T14:15:39Z</time></trkpt><trkpt lat="43.43596946447769" lon="5.968832295678623"><ele>357.5</ele><time>2026-04-11T14:15:40Z</time></trkpt><trkpt lat="43.435910199212756" lon="5.968780298853274"><ele>358.3333333333333</ele><time>2026-04-11T14:15:41Z</time></trkpt><trkpt lat="43.435856028470255" lon="5.968700815853516"><ele>359.1666666666667</ele><time>2026-04-11T14:15:42Z</time></trkpt><trkpt lat="43.435782582383055" lon="5.968612079634233"><ele>360.0</ele><time>2026-04-11T14:15:43Z</time></trkpt><trkpt lat="43.435708574988745" lon="5.96853532917701"><ele>360.0</ele><time>2026-04-11T14:15:44Z</time></trkpt><trkpt lat="43.435634492593344" lon="5.9684593925893905"><ele>360.0</ele><time>2026-04-11T14:15:45Z</time></trkpt><trkpt lat="43.43558166274905" lon="5.96839210871103"><ele>360.0</ele><time>2026-04-11T14:15:46Z</time></trkpt><trkpt lat="43.43552072599561" lon="5.968334353080875"><ele>360.0</ele><time>2026-04-11T14:15:47Z</time></trkpt><trkpt lat="43.4354535582629" lon="5.968281072334388"><ele>360.0</ele><time>2026-04-11T14:15:48Z</time></trkpt><trkpt lat="43.435391615338936" lon="5.968215872902372"><ele>360.0</ele><time>2026-04-11T14:15:49Z</time></trkpt><trkpt lat="43.435336041183646" lon="5.968161651113877"><ele>360.5</ele><time>2026-04-11T14:15:50Z</time></trkpt><trkpt lat="43.43527906207504" lon="5.968119241175144"><ele>361.0</ele><time>2026-04-11T14:15:51Z</time></trkpt><trkpt lat="43.435189380449266" lon="5.968024671214679"><ele>361.5</ele><time>2026-04-11T14:15:53Z</time></trkpt><trkpt lat="43.435138971660166" lon="5.967936570862823"><ele>362.0</ele><time>2026-04-11T14:15:54Z</time></trkpt><trkpt lat="43.43507685736597" lon="5.967856486620244"><ele>362.5</ele><time>2026-04-11T14:15:55Z</time></trkpt><trkpt lat="43.43501049084472" lon="5.967771435950007"><ele>363.0</ele><time>2026-04-11T14:15:56Z</time></trkpt><trkpt lat="43.43495578728164" lon="5.96769165340044"><ele>363.0</ele><time>2026-04-11T14:15:57Z</time></trkpt><trkpt lat="43.43490460393277" lon="5.967619149381134"><ele>363.0</ele><time>2026-04-11T14:15:58Z</time></trkpt><trkpt lat="43.43482523442873" lon="5.967517465663805"><ele>363.0</ele><time>2026-04-11T14:16:00Z</time></trkpt><trkpt lat="43.434788683568634" lon="5.967417608899139"><ele>363.0</ele><time>2026-04-11T14:16:02Z</time></trkpt><trkpt lat="43.434697807061475" lon="5.967307052078991"><ele>363.0</ele><time>2026-04-11T14:16:04Z</time></trkpt><trkpt lat="43.43461840594431" lon="5.96727500273673"><ele>362.3333333333333</ele><time>2026-04-11T14:16:06Z</time></trkpt><trkpt lat="43.4344799911956" lon="5.967249096378281"><ele>361.6666666666667</ele><time>2026-04-11T14:16:08Z</time></trkpt><trkpt lat="43.43439388428879" lon="5.967210441825452"><ele>361.0</ele><time>2026-04-11T14:16:09Z</time></trkpt><trkpt lat="43.43432941823948" lon="5.967177382166294"><ele>360.33333333333337</ele><time>2026-04-11T14:16:10Z</time></trkpt><trkpt lat="43.43426075818983" lon="5.967152496739455"><ele>359.6666666666667</ele><time>2026-04-11T14:16:11Z</time></trkpt><trkpt lat="43.43419354711977" lon="5.9671163033636345"><ele>359.0</ele><time>2026-04-11T14:16:12Z</time></trkpt><trkpt lat="43.43413026135312" lon="5.967078733082012"><ele>359.0</ele><time>2026-04-11T14:16:13Z</time></trkpt><trkpt lat="43.43405835415131" lon="5.96706322364325"><ele>359.0</ele><time>2026-04-11T14:16:14Z</time></trkpt><trkpt lat="43.43398597137031" lon="5.967045496544675"><ele>359.0</ele><time>2026-04-11T14:16:15Z</time></trkpt><trkpt lat="43.43386391502963" lon="5.966985274347471"><ele>359.0</ele><time>2026-04-11T14:16:17Z</time></trkpt><trkpt lat="43.43380555927944" lon="5.966949810118085"><ele>359.0</ele><time>2026-04-11T14:16:18Z</time></trkpt><trkpt lat="43.43374368615491" lon="5.966931928847117"><ele>359.0</ele><time>2026-04-11T14:16:19Z</time></trkpt><trkpt lat="43.43363528037752" lon="5.966882320677656"><ele>358.79999999999995</ele><time>2026-04-11T14:16:21Z</time></trkpt><trkpt lat="43.433544082922154" lon="5.9668026382839034"><ele>358.59999999999997</ele><time>2026-04-11T14:16:23Z</time></trkpt><trkpt lat="43.43344417904787" lon="5.9667718100206235"><ele>358.4</ele><time>2026-04-11T14:16:25Z</time></trkpt><trkpt lat="43.43337534743921" lon="5.9667811782309474"><ele>358.2</ele><time>2026-04-11T14:16:26Z</time></trkpt><trkpt lat="43.43325941607893" lon="5.966747930585312"><ele>358.0</ele><time>2026-04-11T14:16:28Z</time></trkpt><trkpt lat="43.43321032789648" lon="5.966682192574465"><ele>356.3333333333333</ele><time>2026-04-11T14:16:29Z</time></trkpt><trkpt lat="43.43317160129675" lon="5.966603605555504"><ele>354.66666666666663</ele><time>2026-04-11T14:16:30Z</time></trkpt><trkpt lat="43.433123772545315" lon="5.966510158017221"><ele>353.0</ele><time>2026-04-11T14:16:31Z</time></trkpt><trkpt lat="43.433055110384444" lon="5.966405885742003"><ele>351.3333333333333</ele><time>2026-04-11T14:16:32Z</time></trkpt><trkpt lat="43.4330168261972" lon="5.966327816374745"><ele>349.6666666666667</ele><time>2026-04-11T14:16:33Z</time></trkpt><trkpt lat="43.432952219086616" lon="5.966254397776846"><ele>348.0</ele><time>2026-04-11T14:16:35Z</time></trkpt><trkpt lat="43.43284443607671" lon="5.966245707533898"><ele>348.0</ele><time>2026-04-11T14:16:37Z</time></trkpt><trkpt lat="43.432754602845094" lon="5.96623599826975"><ele>348.0</ele><time>2026-04-11T14:16:38Z</time></trkpt><trkpt lat="43.43267087670919" lon="5.966243555353658"><ele>348.0</ele><time>2026-04-11T14:16:39Z</time></trkpt><trkpt lat="43.432598017444974" lon="5.966242327410417"><ele>348.0</ele><time>2026-04-11T14:16:40Z</time></trkpt><trkpt lat="43.43248370107944" lon="5.966225540183746"><ele>348.0</ele><time>2026-04-11T14:16:42Z</time></trkpt><trkpt lat="43.43237288510729" lon="5.966154944156688"><ele>348.0</ele><time>2026-04-11T14:16:44Z</time></trkpt><trkpt lat="43.43232134086191" lon="5.9660988554043"><ele>348.0</ele><time>2026-04-11T14:16:45Z</time></trkpt><trkpt lat="43.43224965400163" lon="5.966051241545025"><ele>348.0</ele><time>2026-04-11T14:16:46Z</time></trkpt><trkpt lat="43.43216647970171" lon="5.965960345325399"><ele>348.0</ele><time>2026-04-11T14:16:48Z</time></trkpt><trkpt lat="43.432103949058714" lon="5.965879023732598"><ele>348.0</ele><time>2026-04-11T14:16:50Z</time></trkpt><trkpt lat="43.432007408474675" lon="5.965786114188886"><ele>346.8333333333333</ele><time>2026-04-11T14:16:52Z</time></trkpt><trkpt lat="43.4319487632239" lon="5.9657374371675695"><ele>345.6666666666667</ele><time>2026-04-11T14:16:54Z</time></trkpt><trkpt lat="43.43187315394743" lon="5.965771225472438"><ele>344.5</ele><time>2026-04-11T14:16:56Z</time></trkpt><trkpt lat="43.431784688160576" lon="5.965808445081521"><ele>343.33333333333337</ele><time>2026-04-11T14:16:58Z</time></trkpt><trkpt lat="43.431707429943174" lon="5.965859830612777"><ele>342.1666666666667</ele><time>2026-04-11T14:17:00Z</time></trkpt><trkpt lat="43.43162571354279" lon="5.965909311318001"><ele>341.0</ele><time>2026-04-11T14:17:02Z</time></trkpt><trkpt lat="43.43155888903216" lon="5.965930265554923"><ele>341.0</ele><time>2026-04-11T14:17:03Z</time></trkpt><trkpt lat="43.43149761924562" lon="5.965966007076476"><ele>341.0</ele><time>2026-04-11T14:17:04Z</time></trkpt><trkpt lat="43.43137814221158" lon="5.9660095202288455"><ele>341.0</ele><time>2026-04-11T14:17:06Z</time></trkpt><trkpt lat="43.43129715398807" lon="5.966053075562388"><ele>341.0</ele><time>2026-04-11T14:17:07Z</time></trkpt><trkpt lat="43.43122597893905" lon="5.966080358572393"><ele>341.0</ele><time>2026-04-11T14:17:08Z</time></trkpt><trkpt lat="43.43116435717247" lon="5.966115336618839"><ele>341.0</ele><time>2026-04-11T14:17:09Z</time></trkpt><trkpt lat="43.43103499680045" lon="5.966166763088608"><ele>340.1666666666667</ele><time>2026-04-11T14:17:11Z</time></trkpt><trkpt lat="43.430951855708955" lon="5.966201956813903"><ele>339.33333333333337</ele><time>2026-04-11T14:17:12Z</time></trkpt><trkpt lat="43.43087927989342" lon="5.966239912218071"><ele>338.5</ele><time>2026-04-11T14:17:13Z</time></trkpt><trkpt lat="43.430816982304485" lon="5.966266172447083"><ele>337.6666666666667</ele><time>2026-04-11T14:17:14Z</time></trkpt><trkpt lat="43.430755129720445" lon="5.966286247482925"><ele>336.8333333333333</ele><time>2026-04-11T14:17:15Z</time></trkpt><trkpt lat="43.43065303368173" lon="5.966343590179568"><ele>336.0</ele><time>2026-04-11T14:17:17Z</time></trkpt><trkpt lat="43.430537551324726" lon="5.966438994024338"><ele>334.20000000000005</ele><time>2026-04-11T14:17:19Z</time></trkpt><trkpt lat="43.43046834809584" lon="5.9664690137869005"><ele>332.40000000000003</ele><time>2026-04-11T14:17:20Z</time></trkpt><trkpt lat="43.43035741629864" lon="5.966533703671195"><ele>330.6</ele><time>2026-04-11T14:17:22Z</time></trkpt><trkpt lat="43.430290664758815" lon="5.966582607832608"><ele>328.8</ele><time>2026-04-11T14:17:23Z</time></trkpt><trkpt lat="43.43022583820794" lon="5.966622258103599"><ele>327.0</ele><time>2026-04-11T14:17:24Z</time></trkpt><trkpt lat="43.43011987771703" lon="5.966681144960204"><ele>327.6</ele><time>2026-04-11T14:17:26Z</time></trkpt><trkpt lat="43.43001900369239" lon="5.966740355978008"><ele>328.20000000000005</ele><time>2026-04-11T14:17:28Z</time></trkpt><trkpt lat="43.429919103790155" lon="5.9668413170470505"><ele>328.8</ele><time>2026-04-11T14:17:30Z</time></trkpt><trkpt lat="43.42985877738194" lon="5.966903480037157"><ele>329.4</ele><time>2026-04-11T14:17:32Z</time></trkpt><trkpt lat="43.42980863024037" lon="5.967020891914506"><ele>330.0</ele><time>2026-04-11T14:17:34Z</time></trkpt><trkpt lat="43.42972550829951" lon="5.967111240888658"><ele>330.0</ele><time>2026-04-11T14:17:35Z</time></trkpt><trkpt lat="43.42968928436835" lon="5.967209174614099"><ele>330.0</ele><time>2026-04-11T14:17:36Z</time></trkpt><trkpt lat="43.42966252872344" lon="5.9672942235814395"><ele>330.0</ele><time>2026-04-11T14:17:37Z</time></trkpt><trkpt lat="43.42960671342544" lon="5.9674462826742"><ele>330.0</ele><time>2026-04-11T14:17:39Z</time></trkpt><trkpt lat="43.42954984535466" lon="5.967598965161719"><ele>330.0</ele><time>2026-04-11T14:17:41Z</time></trkpt><trkpt lat="43.42948305027234" lon="5.9677046684519865"><ele>328.5</ele><time>2026-04-11T14:17:43Z</time></trkpt><trkpt lat="43.42940602477583" lon="5.967753946974058"><ele>327.0</ele><time>2026-04-11T14:17:44Z</time></trkpt><trkpt lat="43.42932739250508" lon="5.967809790036127"><ele>325.5</ele><time>2026-04-11T14:17:45Z</time></trkpt><trkpt lat="43.429225076701286" lon="5.9678786545611135"><ele>324.0</ele><time>2026-04-11T14:17:46Z</time></trkpt><trkpt lat="43.4291547852762" lon="5.967950617143377"><ele>322.5</ele><time>2026-04-11T14:17:47Z</time></trkpt><trkpt lat="43.42909397663242" lon="5.968002723710645"><ele>321.0</ele><time>2026-04-11T14:17:48Z</time></trkpt><trkpt lat="43.42903190587649" lon="5.968067731417306"><ele>321.0</ele><time>2026-04-11T14:17:49Z</time></trkpt><trkpt lat="43.428968465303676" lon="5.9681298078651315"><ele>321.0</ele><time>2026-04-11T14:17:50Z</time></trkpt><trkpt lat="43.42890989899091" lon="5.9681877919500375"><ele>321.0</ele><time>2026-04-11T14:17:51Z</time></trkpt><trkpt lat="43.42884774328788" lon="5.968316858855786"><ele>321.0</ele><time>2026-04-11T14:17:53Z</time></trkpt><trkpt lat="43.42882121983772" lon="5.968424256073928"><ele>321.0</ele><time>2026-04-11T14:17:54Z</time></trkpt><trkpt lat="43.42876794696744" lon="5.968569714223511"><ele>320.3333333333333</ele><time>2026-04-11T14:17:56Z</time></trkpt><trkpt lat="43.428742883419204" lon="5.9687018652494075"><ele>319.6666666666667</ele><time>2026-04-11T14:17:58Z</time></trkpt><trkpt lat="43.428703315967255" lon="5.968806304937367"><ele>319.0</ele><time>2026-04-11T14:17:59Z</time></trkpt><trkpt lat="43.4286700224151" lon="5.968917060918743"><ele>318.33333333333337</ele><time>2026-04-11T14:18:00Z</time></trkpt><trkpt lat="43.42863980984341" lon="5.969028889805246"><ele>317.6666666666667</ele><time>2026-04-11T14:18:01Z</time></trkpt><trkpt lat="43.42862098007519" lon="5.969123981354958"><ele>317.0</ele><time>2026-04-11T14:18:02Z</time></trkpt><trkpt lat="43.42854986118454" lon="5.969253486185322"><ele>317.0</ele><time>2026-04-11T14:18:04Z</time></trkpt><trkpt lat="43.428496014039254" lon="5.969376526014288"><ele>317.0</ele><time>2026-04-11T14:18:06Z</time></trkpt><trkpt lat="43.42848661821778" lon="5.969475505635878"><ele>317.0</ele><time>2026-04-11T14:18:07Z</time></trkpt><trkpt lat="43.42844113286601" lon="5.9695530912418215"><ele>317.0</ele><time>2026-04-11T14:18:08Z</time></trkpt><trkpt lat="43.42838605635913" lon="5.969619934538063"><ele>317.0</ele><time>2026-04-11T14:18:09Z</time></trkpt><trkpt lat="43.42834896078072" lon="5.969707512883257"><ele>317.0</ele><time>2026-04-11T14:18:10Z</time></trkpt><trkpt lat="43.4283149407567" lon="5.969824550635043"><ele>317.0</ele><time>2026-04-11T14:18:11Z</time></trkpt><trkpt lat="43.42828762492284" lon="5.969907905106717"><ele>317.0</ele><time>2026-04-11T14:18:12Z</time></trkpt><trkpt lat="43.42822327360425" lon="5.969987797134343"><ele>317.0</ele><time>2026-04-11T14:18:14Z</time></trkpt><trkpt lat="43.4281502837186" lon="5.970080747903285"><ele>317.0</ele><time>2026-04-11T14:18:16Z</time></trkpt><trkpt lat="43.42806125310235" lon="5.970094967356583"><ele>317.0</ele><time>2026-04-11T14:18:18Z</time></trkpt><trkpt lat="43.427995123914066" lon="5.9701423631623785"><ele>317.0</ele><time>2026-04-11T14:18:19Z</time></trkpt><trkpt lat="43.427924825183055" lon="5.970221244968358"><ele>316.0</ele><time>2026-04-11T14:18:20Z</time></trkpt><trkpt lat="43.427873094325314" lon="5.970301660498512"><ele>315.0</ele><time>2026-04-11T14:18:21Z</time></trkpt><trkpt lat="43.427819900933166" lon="5.970383280665432"><ele>314.0</ele><time>2026-04-11T14:18:22Z</time></trkpt><trkpt lat="43.42777235833405" lon="5.970456591863653"><ele>313.0</ele><time>2026-04-11T14:18:23Z</time></trkpt><trkpt lat="43.427705008076565" lon="5.970594899645192"><ele>312.0</ele><time>2026-04-11T14:18:25Z</time></trkpt><trkpt lat="43.42765157146953" lon="5.97066255793571"><ele>311.0</ele><time>2026-04-11T14:18:26Z</time></trkpt><trkpt lat="43.42758321115822" lon="5.970747876557852"><ele>311.0</ele><time>2026-04-11T14:18:27Z</time></trkpt><trkpt lat="43.42752967060756" lon="5.970824961016403"><ele>311.0</ele><time>2026-04-11T14:18:28Z</time></trkpt><trkpt lat="43.42747903506035" lon="5.970887966725408"><ele>311.0</ele><time>2026-04-11T14:18:29Z</time></trkpt><trkpt lat="43.42741214031349" lon="5.971005198328405"><ele>311.0</ele><time>2026-04-11T14:18:31Z</time></trkpt><trkpt lat="43.42737220403615" lon="5.971099788169014"><ele>311.0</ele><time>2026-04-11T14:18:33Z</time></trkpt><trkpt lat="43.42729353547229" lon="5.971165033883104"><ele>311.0</ele><time>2026-04-11T14:18:35Z</time></trkpt><trkpt lat="43.427228816009126" lon="5.971197741285667"><ele>311.2</ele><time>2026-04-11T14:18:37Z</time></trkpt><trkpt lat="43.427176205891016" lon="5.971294303310607"><ele>311.40000000000003</ele><time>2026-04-11T14:18:40Z</time></trkpt><trkpt lat="43.42711811539559" lon="5.9713331475792035"><ele>311.6</ele><time>2026-04-11T14:18:41Z</time></trkpt><trkpt lat="43.42698210048163" lon="5.971353211079554"><ele>311.8</ele><time>2026-04-11T14:18:43Z</time></trkpt><trkpt lat="43.426922242038" lon="5.971384288693777"><ele>312.0</ele><time>2026-04-11T14:18:44Z</time></trkpt><trkpt lat="43.42685488826099" lon="5.971568287740803"><ele>310.6</ele><time>2026-04-11T14:18:46Z</time></trkpt><trkpt lat="43.42681017442988" lon="5.971683458068328"><ele>309.2</ele><time>2026-04-11T14:18:47Z</time></trkpt><trkpt lat="43.42677898871118" lon="5.971760840411748"><ele>307.8</ele><time>2026-04-11T14:18:48Z</time></trkpt><trkpt lat="43.4267219222829" lon="5.971849271339592"><ele>306.4</ele><time>2026-04-11T14:18:50Z</time></trkpt><trkpt lat="43.426613487956004" lon="5.971889254362542"><ele>305.0</ele><time>2026-04-11T14:18:51Z</time></trkpt><trkpt lat="43.42655795629575" lon="5.972066593132099"><ele>304.8</ele><time>2026-04-11T14:18:59Z</time></trkpt><trkpt lat="43.426504558107204" lon="5.972222404203829"><ele>304.6</ele><time>2026-04-11T14:19:01Z</time></trkpt><trkpt lat="43.426475145026956" lon="5.972349402564009"><ele>304.4</ele><time>2026-04-11T14:19:18Z</time></trkpt><trkpt lat="43.42646235930734" lon="5.97251770769859"><ele>304.2</ele><time>2026-04-11T14:19:20Z</time></trkpt><trkpt lat="43.426424966215244" lon="5.972629578981601"><ele>304.0</ele><time>2026-04-11T14:19:21Z</time></trkpt><trkpt lat="43.42639123112197" lon="5.972711798470474"><ele>303.2</ele><time>2026-04-11T14:19:22Z</time></trkpt><trkpt lat="43.42632276901429" lon="5.972872295191883"><ele>302.4</ele><time>2026-04-11T14:19:24Z</time></trkpt><trkpt lat="43.42628770897854" lon="5.972950755509545"><ele>301.6</ele><time>2026-04-11T14:19:25Z</time></trkpt><trkpt lat="43.42623540181966" lon="5.973075310094551"><ele>300.8</ele><time>2026-04-11T14:19:27Z</time></trkpt><trkpt lat="43.4262087385052" lon="5.97319494596211"><ele>300.0</ele><time>2026-04-11T14:19:29Z</time></trkpt><trkpt lat="43.42615753867828" lon="5.973319727629927"><ele>298.5</ele><time>2026-04-11T14:19:31Z</time></trkpt><trkpt lat="43.42611406744313" lon="5.973400387429775"><ele>297.0</ele><time>2026-04-11T14:19:32Z</time></trkpt><trkpt lat="43.42609253271066" lon="5.973517940886144"><ele>295.5</ele><time>2026-04-11T14:19:33Z</time></trkpt><trkpt lat="43.42607872687809" lon="5.973641626666433"><ele>294.0</ele><time>2026-04-11T14:19:34Z</time></trkpt><trkpt lat="43.42607672345286" lon="5.973784655451147"><ele>292.5</ele><time>2026-04-11T14:19:36Z</time></trkpt><trkpt lat="43.42601046574668" lon="5.973824426598192"><ele>291.0</ele><time>2026-04-11T14:19:39Z</time></trkpt><trkpt lat="43.42592835370382" lon="5.974004384769153"><ele>291.0</ele><time>2026-04-11T14:19:41Z</time></trkpt><trkpt lat="43.42589242551108" lon="5.9740871426355895"><ele>291.0</ele><time>2026-04-11T14:19:42Z</time></trkpt><trkpt lat="43.42589672552777" lon="5.974226953852651"><ele>291.0</ele><time>2026-04-11T14:19:44Z</time></trkpt><trkpt lat="43.42584614955794" lon="5.9743287764186555"><ele>291.0</ele><time>2026-04-11T14:19:47Z</time></trkpt><trkpt lat="43.42581754443028" lon="5.9744448103977605"><ele>291.0</ele><time>2026-04-11T14:19:58Z</time></trkpt><trkpt lat="43.425783887500096" lon="5.974574638997829"><ele>291.1666666666667</ele><time>2026-04-11T14:20:00Z</time></trkpt><trkpt lat="43.42573875377715" lon="5.974664404354598"><ele>291.3333333333333</ele><time>2026-04-11T14:20:02Z</time></trkpt><trkpt lat="43.42568982313015" lon="5.974756782704659"><ele>291.5</ele><time>2026-04-11T14:20:04Z</time></trkpt><trkpt lat="43.42559566719427" lon="5.974877576692356"><ele>291.66666666666663</ele><time>2026-04-11T14:20:06Z</time></trkpt><trkpt lat="43.42555712348008" lon="5.97494681006212"><ele>291.8333333333333</ele><time>2026-04-11T14:20:07Z</time></trkpt><trkpt lat="43.42554026388469" lon="5.975044959128549"><ele>292.0</ele><time>2026-04-11T14:20:09Z</time></trkpt><trkpt lat="43.42544568502569" lon="5.975120263654015"><ele>290.8333333333333</ele><time>2026-04-11T14:20:11Z</time></trkpt><trkpt lat="43.42538180703986" lon="5.975161483540281"><ele>289.66666666666663</ele><time>2026-04-11T14:20:12Z</time></trkpt><trkpt lat="43.4253085609082" lon="5.975219140592132"><ele>288.5</ele><time>2026-04-11T14:20:14Z</time></trkpt><trkpt lat="43.42524931061109" lon="5.9751619953045925"><ele>287.3333333333333</ele><time>2026-04-11T14:20:19Z</time></trkpt><trkpt lat="43.425249897246154" lon="5.975073525343818"><ele>286.1666666666667</ele><time>2026-04-11T14:20:20Z</time></trkpt><trkpt lat="43.42523569105528" lon="5.974868951995599"><ele>285.0</ele><time>2026-04-11T14:20:21Z</time></trkpt><trkpt lat="43.425227460171264" lon="5.97469234549051"><ele>285.0</ele><time>2026-04-11T14:20:22Z</time></trkpt><trkpt lat="43.425215577875626" lon="5.974524973406467"><ele>285.0</ele><time>2026-04-11T14:20:23Z</time></trkpt><trkpt lat="43.42519418703488" lon="5.9743501411106"><ele>285.0</ele><time>2026-04-11T14:20:24Z</time></trkpt><trkpt lat="43.42517772417732" lon="5.974160963592381"><ele>285.0</ele><time>2026-04-11T14:20:25Z</time></trkpt><trkpt lat="43.42516921263521" lon="5.97392556635144"><ele>285.25</ele><time>2026-04-11T14:20:26Z</time></trkpt><trkpt lat="43.42517261161466" lon="5.973732540255284"><ele>285.5</ele><time>2026-04-11T14:20:27Z</time></trkpt><trkpt lat="43.425158455956385" lon="5.97355266079407"><ele>285.75</ele><time>2026-04-11T14:20:28Z</time></trkpt><trkpt lat="43.42511447116959" lon="5.973368089987575"><ele>286.0</ele><time>2026-04-11T14:20:29Z</time></trkpt><trkpt lat="43.42507376319212" lon="5.973162612551303"><ele>286.0</ele><time>2026-04-11T14:20:30Z</time></trkpt><trkpt lat="43.42502342955725" lon="5.972884511021724"><ele>286.0</ele><time>2026-04-11T14:20:31Z</time></trkpt><trkpt lat="43.424977878590255" lon="5.9726123569537215"><ele>286.0</ele><time>2026-04-11T14:20:32Z</time></trkpt><trkpt lat="43.424947584888564" lon="5.972372504582381"><ele>286.0</ele><time>2026-04-11T14:20:33Z</time></trkpt><trkpt lat="43.42491444347606" lon="5.972142418939263"><ele>286.0</ele><time>2026-04-11T14:20:34Z</time></trkpt><trkpt lat="43.42488493776718" lon="5.971952564439818"><ele>286.0</ele><time>2026-04-11T14:20:35Z</time></trkpt><trkpt lat="43.424859635368506" lon="5.971789419611666"><ele>286.0</ele><time>2026-04-11T14:20:36Z</time></trkpt><trkpt lat="43.424832024651515" lon="5.971584527500391"><ele>287.0</ele><time>2026-04-11T14:20:37Z</time></trkpt><trkpt lat="43.424800579312034" lon="5.971396332944577"><ele>288.0</ele><time>2026-04-11T14:20:38Z</time></trkpt><trkpt lat="43.42477252147862" lon="5.9712141132471155"><ele>289.0</ele><time>2026-04-11T14:20:39Z</time></trkpt><trkpt lat="43.42476299228029" lon="5.971045533058436"><ele>290.0</ele><time>2026-04-11T14:20:40Z</time></trkpt><trkpt lat="43.42474276864145" lon="5.970848377234933"><ele>290.75</ele><time>2026-04-11T14:20:41Z</time></trkpt><trkpt lat="43.42472067657174" lon="5.970650579147708"><ele>291.5</ele><time>2026-04-11T14:20:42Z</time></trkpt><trkpt lat="43.4246989124255" lon="5.9704668887077315"><ele>292.25</ele><time>2026-04-11T14:20:43Z</time></trkpt><trkpt lat="43.42468073434486" lon="5.970319890022901"><ele>293.0</ele><time>2026-04-11T14:20:44Z</time></trkpt><trkpt lat="43.42467012517146" lon="5.970176696171592"><ele>292.6</ele><time>2026-04-11T14:20:45Z</time></trkpt><trkpt lat="43.424655035821814" lon="5.970021062504309"><ele>292.20000000000005</ele><time>2026-04-11T14:20:46Z</time></trkpt><trkpt lat="43.42464183564067" lon="5.969867156443277"><ele>291.8</ele><time>2026-04-11T14:20:47Z</time></trkpt><trkpt lat="43.424626732706734" lon="5.969723429286519"><ele>291.40000000000003</ele><time>2026-04-11T14:20:48Z</time></trkpt><trkpt lat="43.42461907570569" lon="5.969587788908629"><ele>291.0</ele><time>2026-04-11T14:20:49Z</time></trkpt><trkpt lat="43.424610024908255" lon="5.969465644202499"><ele>291.0</ele><time>2026-04-11T14:20:50Z</time></trkpt><trkpt lat="43.42460396965504" lon="5.96934278172549"><ele>291.0</ele><time>2026-04-11T14:20:51Z</time></trkpt><trkpt lat="43.424582030647606" lon="5.969226410498456"><ele>291.0</ele><time>2026-04-11T14:20:52Z</time></trkpt><trkpt lat="43.424571808626084" lon="5.96911038608316"><ele>291.0</ele><time>2026-04-11T14:20:54Z</time></trkpt><trkpt lat="43.42444463599199" lon="5.969116700423464"><ele>291.0</ele><time>2026-04-11T14:20:56Z</time></trkpt><trkpt lat="43.42437008999337" lon="5.969138600119023"><ele>291.0</ele><time>2026-04-11T14:20:57Z</time></trkpt><trkpt lat="43.42429541609329" lon="5.969160805459253"><ele>291.0</ele><time>2026-04-11T14:20:58Z</time></trkpt><trkpt lat="43.42415848650932" lon="5.969201241290921"><ele>291.0</ele><time>2026-04-11T14:20:59Z</time></trkpt><trkpt lat="43.42406314351894" lon="5.96924541766582"><ele>291.0</ele><time>2026-04-11T14:21:00Z</time></trkpt><trkpt lat="43.42398379398482" lon="5.9692567790436435"><ele>291.0</ele><time>2026-04-11T14:21:01Z</time></trkpt><trkpt lat="43.42389370074061" lon="5.969279943622052"><ele>291.0</ele><time>2026-04-11T14:21:03Z</time></trkpt><trkpt lat="43.42385756429162" lon="5.969477646851496"><ele>291.0</ele><time>2026-04-11T14:21:07Z</time></trkpt><trkpt lat="43.42387671546579" lon="5.969565984441672"><ele>291.0</ele><time>2026-04-11T14:21:08Z</time></trkpt><trkpt lat="43.423941846846915" lon="5.969643580600866"><ele>291.0</ele><time>2026-04-11T14:21:09Z</time></trkpt><trkpt lat="43.4239745131196" lon="5.9698096299246135"><ele>291.0</ele><time>2026-04-11T14:21:10Z</time></trkpt><trkpt lat="43.424013852393514" lon="5.969985137671304"><ele>291.2</ele><time>2026-04-11T14:21:11Z</time></trkpt><trkpt lat="43.42404582555122" lon="5.970122223745531"><ele>291.40000000000003</ele><time>2026-04-11T14:21:12Z</time></trkpt><trkpt lat="43.42406286991357" lon="5.970221556526187"><ele>291.6</ele><time>2026-04-11T14:21:13Z</time></trkpt><trkpt lat="43.42407930542998" lon="5.970355034567744"><ele>291.8</ele><time>2026-04-11T14:21:14Z</time></trkpt><trkpt lat="43.42409803022582" lon="5.9704965700680885"><ele>292.0</ele><time>2026-04-11T14:21:15Z</time></trkpt><trkpt lat="43.424118649610264" lon="5.970635730308582"><ele>292.0</ele><time>2026-04-11T14:21:16Z</time></trkpt><trkpt lat="43.42413482864144" lon="5.970765582858925"><ele>292.0</ele><time>2026-04-11T14:21:17Z</time></trkpt><trkpt lat="43.42415434969968" lon="5.97091242783633"><ele>292.0</ele><time>2026-04-11T14:21:18Z</time></trkpt><trkpt lat="43.42418407399569" lon="5.971066202713738"><ele>292.0</ele><time>2026-04-11T14:21:19Z</time></trkpt><trkpt lat="43.42420913065199" lon="5.971204098341462"><ele>292.0</ele><time>2026-04-11T14:21:20Z</time></trkpt><trkpt lat="43.42422155474426" lon="5.9713128410212395"><ele>292.0</ele><time>2026-04-11T14:21:21Z</time></trkpt><trkpt lat="43.424241759885874" lon="5.971432193863688"><ele>292.0</ele><time>2026-04-11T14:21:22Z</time></trkpt><trkpt lat="43.424260860020226" lon="5.971554510964131"><ele>292.0</ele><time>2026-04-11T14:21:23Z</time></trkpt><trkpt lat="43.42427847853127" lon="5.971670856189936"><ele>292.0</ele><time>2026-04-11T14:21:24Z</time></trkpt><trkpt lat="43.424297049572" lon="5.97184260498699"><ele>292.0</ele><time>2026-04-11T14:21:26Z</time></trkpt><trkpt lat="43.42420379554551" lon="5.971892316721376"><ele>292.4</ele><time>2026-04-11T14:21:34Z</time></trkpt><trkpt lat="43.42416805627019" lon="5.971998988258403"><ele>292.79999999999995</ele><time>2026-04-11T14:21:35Z</time></trkpt><trkpt lat="43.42413891123225" lon="5.9720833362754036"><ele>293.2</ele><time>2026-04-11T14:21:36Z</time></trkpt><trkpt lat="43.42400113673761" lon="5.9723094453253855"><ele>293.59999999999997</ele><time>2026-04-11T14:21:37Z</time></trkpt><trkpt lat="43.423964205847746" lon="5.972399088944134"><ele>294.0</ele><time>2026-04-11T14:21:38Z</time></trkpt><trkpt lat="43.423873269022614" lon="5.9723680423143675"><ele>294.59999999999997</ele><time>2026-04-11T14:21:42Z</time></trkpt><trkpt lat="43.42374013575165" lon="5.972420017378283"><ele>295.2</ele><time>2026-04-11T14:21:44Z</time></trkpt><trkpt lat="43.42359821996739" lon="5.97242087197805"><ele>295.79999999999995</ele><time>2026-04-11T14:21:45Z</time></trkpt><trkpt lat="43.42353417533867" lon="5.972400049637238"><ele>296.4</ele><time>2026-04-11T14:21:46Z</time></trkpt><trkpt lat="43.42345128046707" lon="5.972419125165551"><ele>297.0</ele><time>2026-04-11T14:21:47Z</time></trkpt><trkpt lat="43.42338385742976" lon="5.972476824692095"><ele>296.6666666666667</ele><time>2026-04-11T14:21:48Z</time></trkpt><trkpt lat="43.42329388576325" lon="5.972560572307182"><ele>296.3333333333333</ele><time>2026-04-11T14:21:50Z</time></trkpt><trkpt lat="43.4232243759425" lon="5.972574289224412"><ele>296.0</ele><time>2026-04-11T14:21:51Z</time></trkpt><trkpt lat="43.42313341309052" lon="5.972614640172603"><ele>295.66666666666663</ele><time>2026-04-11T14:21:52Z</time></trkpt><trkpt lat="43.42304930655612" lon="5.972634809847857"><ele>295.3333333333333</ele><time>2026-04-11T14:21:53Z</time></trkpt><trkpt lat="43.42296920942671" lon="5.972639497668662"><ele>295.0</ele><time>2026-04-11T14:21:54Z</time></trkpt><trkpt lat="43.422884732702315" lon="5.9726485947557855"><ele>297.0</ele><time>2026-04-11T14:21:55Z</time></trkpt><trkpt lat="43.42281153957835" lon="5.9726877994952075"><ele>299.0</ele><time>2026-04-11T14:21:56Z</time></trkpt><trkpt lat="43.42275001733642" lon="5.972800898916638"><ele>301.0</ele><time>2026-04-11T14:21:58Z</time></trkpt><trkpt lat="43.42267713348478" lon="5.9729242845785695"><ele>303.0</ele><time>2026-04-11T14:22:00Z</time></trkpt><trkpt lat="43.42262407672642" lon="5.97300940528845"><ele>305.0</ele><time>2026-04-11T14:22:02Z</time></trkpt><trkpt lat="43.4226035648654" lon="5.973176518077114"><ele>305.0</ele><time>2026-04-11T14:22:04Z</time></trkpt><trkpt lat="43.42258734867599" lon="5.973275345684548"><ele>305.0</ele><time>2026-04-11T14:22:29Z</time></trkpt><trkpt lat="43.422598284144115" lon="5.973381373995684"><ele>305.0</ele><time>2026-04-11T14:22:32Z</time></trkpt><trkpt lat="43.42261411263413" lon="5.973473379186876"><ele>305.0</ele><time>2026-04-11T14:22:34Z</time></trkpt><trkpt lat="43.422633780035994" lon="5.97357378258837"><ele>305.0</ele><time>2026-04-11T14:22:37Z</time></trkpt><trkpt lat="43.42266709700492" lon="5.973673145866861"><ele>305.0</ele><time>2026-04-11T14:22:40Z</time></trkpt><trkpt lat="43.422673706544195" lon="5.973768638492855"><ele>305.0</ele><time>2026-04-11T14:22:44Z</time></trkpt><trkpt lat="43.42277673572603" lon="5.973837034505905"><ele>305.8</ele><time>2026-04-11T14:22:46Z</time></trkpt><trkpt lat="43.422874567931615" lon="5.973871186543848"><ele>306.6</ele><time>2026-04-11T14:22:47Z</time></trkpt><trkpt lat="43.4229811774905" lon="5.973928108285461"><ele>307.4</ele><time>2026-04-11T14:22:48Z</time></trkpt><trkpt lat="43.423048709684664" lon="5.973985347366085"><ele>308.2</ele><time>2026-04-11T14:22:49Z</time></trkpt><trkpt lat="43.42312417488346" lon="5.974034060644011"><ele>309.0</ele><time>2026-04-11T14:22:50Z</time></trkpt><trkpt lat="43.42319340939297" lon="5.974081604369173"><ele>307.3333333333333</ele><time>2026-04-11T14:22:51Z</time></trkpt><trkpt lat="43.42325482354484" lon="5.974118390104917"><ele>305.6666666666667</ele><time>2026-04-11T14:22:52Z</time></trkpt><trkpt lat="43.423344322870065" lon="5.974212007391644"><ele>304.0</ele><time>2026-04-11T14:22:54Z</time></trkpt><trkpt lat="43.423392955521514" lon="5.974355874685998"><ele>302.33333333333337</ele><time>2026-04-11T14:22:56Z</time></trkpt><trkpt lat="43.42340935982291" lon="5.974442171031064"><ele>300.6666666666667</ele><time>2026-04-11T14:22:57Z</time></trkpt><trkpt lat="43.42342482735995" lon="5.974531876707468"><ele>299.0</ele><time>2026-04-11T14:22:58Z</time></trkpt><trkpt lat="43.42344677600201" lon="5.974617933833721"><ele>299.0</ele><time>2026-04-11T14:22:59Z</time></trkpt><trkpt lat="43.423447826694456" lon="5.974713504808681"><ele>299.0</ele><time>2026-04-11T14:23:00Z</time></trkpt><trkpt lat="43.42345181203316" lon="5.974806039392442"><ele>299.0</ele><time>2026-04-11T14:23:01Z</time></trkpt><trkpt lat="43.42346886638605" lon="5.9749173993980875"><ele>299.0</ele><time>2026-04-11T14:23:03Z</time></trkpt><trkpt lat="43.42354990674096" lon="5.974904233827682"><ele>299.0</ele><time>2026-04-11T14:23:06Z</time></trkpt><trkpt lat="43.42360817339998" lon="5.9747851696584835"><ele>299.0</ele><time>2026-04-11T14:23:08Z</time></trkpt><trkpt lat="43.4236290139425" lon="5.974656493602436"><ele>299.0</ele><time>2026-04-11T14:23:09Z</time></trkpt><trkpt lat="43.423659526799796" lon="5.974500724975545"><ele>299.0</ele><time>2026-04-11T14:23:10Z</time></trkpt><trkpt lat="43.42369863549736" lon="5.974347119193992"><ele>299.0</ele><time>2026-04-11T14:23:11Z</time></trkpt><trkpt lat="43.423732020293706" lon="5.974182536090999"><ele>299.0</ele><time>2026-04-11T14:23:12Z</time></trkpt><trkpt lat="43.42378583620315" lon="5.974076486285682"><ele>296.25</ele><time>2026-04-11T14:23:13Z</time></trkpt><trkpt lat="43.42384817871949" lon="5.973966161676086"><ele>293.5</ele><time>2026-04-11T14:23:15Z</time></trkpt><trkpt lat="43.423969321030626" lon="5.97398672772292"><ele>290.75</ele><time>2026-04-11T14:23:17Z</time></trkpt><trkpt lat="43.42407841832292" lon="5.974006303131294"><ele>288.0</ele><time>2026-04-11T14:23:18Z</time></trkpt><trkpt lat="43.4242043253762" lon="5.974015359557947"><ele>288.0</ele><time>2026-04-11T14:23:19Z</time></trkpt><trkpt lat="43.424291557937096" lon="5.974023881516576"><ele>288.0</ele><time>2026-04-11T14:23:20Z</time></trkpt><trkpt lat="43.424416971910695" lon="5.974043354559808"><ele>288.0</ele><time>2026-04-11T14:23:22Z</time></trkpt><trkpt lat="43.42451723737144" lon="5.974070350160025"><ele>288.0</ele><time>2026-04-11T14:23:24Z</time></trkpt><trkpt lat="43.42460587245019" lon="5.974080089633541"><ele>288.0</ele><time>2026-04-11T14:23:25.999Z</time></trkpt><trkpt lat="43.42465487773392" lon="5.974140183403249"><ele>287.5</ele><time>2026-04-11T14:23:30Z</time></trkpt><trkpt lat="43.42467702453468" lon="5.974253516993376"><ele>287.0</ele><time>2026-04-11T14:23:33Z</time></trkpt><trkpt lat="43.42468586548662" lon="5.974419939601767"><ele>286.5</ele><time>2026-04-11T14:23:35Z</time></trkpt><trkpt lat="43.424689952970425" lon="5.974544045582601"><ele>286.0</ele><time>2026-04-11T14:23:36Z</time></trkpt><trkpt lat="43.42469654830186" lon="5.974636661913176"><ele>285.5</ele><time>2026-04-11T14:23:37Z</time></trkpt><trkpt lat="43.4247090120112" lon="5.974746451557929"><ele>285.0</ele><time>2026-04-11T14:23:39Z</time></trkpt><trkpt lat="43.42472630337905" lon="5.974837675630288"><ele>285.0</ele><time>2026-04-11T14:23:44Z</time></trkpt><trkpt lat="43.424667342869455" lon="5.974946664162857"><ele>285.0</ele><time>2026-04-11T14:23:47Z</time></trkpt><trkpt lat="43.424617792319935" lon="5.97505469414752"><ele>285.0</ele><time>2026-04-11T14:23:48Z</time></trkpt><trkpt lat="43.42458268148252" lon="5.9751440457811595"><ele>285.0</ele><time>2026-04-11T14:23:49Z</time></trkpt><trkpt lat="43.42450758767116" lon="5.975191506269648"><ele>285.0</ele><time>2026-04-11T14:23:50Z</time></trkpt><trkpt lat="43.42444766321163" lon="5.97522722079805"><ele>285.0</ele><time>2026-04-11T14:23:51Z</time></trkpt><trkpt lat="43.424375490743245" lon="5.975204969525259"><ele>284.8</ele><time>2026-04-11T14:23:52Z</time></trkpt><trkpt lat="43.42431196907077" lon="5.9752708624178315"><ele>284.6</ele><time>2026-04-11T14:23:53Z</time></trkpt><trkpt lat="43.42423701093982" lon="5.975379552444317"><ele>284.4</ele><time>2026-04-11T14:23:54Z</time></trkpt><trkpt lat="43.42417196238524" lon="5.975496973029654"><ele>284.2</ele><time>2026-04-11T14:23:55Z</time></trkpt><trkpt lat="43.42412837056661" lon="5.975607541720277"><ele>284.0</ele><time>2026-04-11T14:23:56Z</time></trkpt><trkpt lat="43.42408005390166" lon="5.975730842990594"><ele>283.8</ele><time>2026-04-11T14:23:57Z</time></trkpt><trkpt lat="43.42401279041876" lon="5.975911624743912"><ele>283.59999999999997</ele><time>2026-04-11T14:23:58Z</time></trkpt><trkpt lat="43.42398944494889" lon="5.976052694303056"><ele>283.4</ele><time>2026-04-11T14:23:59Z</time></trkpt><trkpt lat="43.42397797917115" lon="5.976180408255358"><ele>283.2</ele><time>2026-04-11T14:24:00Z</time></trkpt><trkpt lat="43.42395806937065" lon="5.976296910101749"><ele>283.0</ele><time>2026-04-11T14:24:01Z</time></trkpt><trkpt lat="43.42393138897931" lon="5.976395508932873"><ele>283.0</ele><time>2026-04-11T14:24:02Z</time></trkpt><trkpt lat="43.42387192322088" lon="5.97648498194886"><ele>283.0</ele><time>2026-04-11T14:24:03Z</time></trkpt><trkpt lat="43.42380564560573" lon="5.9765821887616495"><ele>283.0</ele><time>2026-04-11T14:24:04Z</time></trkpt><trkpt lat="43.42374819267687" lon="5.976666168417922"><ele>283.0</ele><time>2026-04-11T14:24:05Z</time></trkpt><trkpt lat="43.423690327053045" lon="5.976759869408571"><ele>283.0</ele><time>2026-04-11T14:24:06Z</time></trkpt><trkpt lat="43.423645839188154" lon="5.976848954251552"><ele>283.0</ele><time>2026-04-11T14:24:07Z</time></trkpt><trkpt lat="43.423615477461595" lon="5.976974425658485"><ele>283.4</ele><time>2026-04-11T14:24:08Z</time></trkpt><trkpt lat="43.42357027790957" lon="5.977130201558206"><ele>283.8</ele><time>2026-04-11T14:24:09Z</time></trkpt><trkpt lat="43.42349621939677" lon="5.9772089446064856"><ele>284.2</ele><time>2026-04-11T14:24:10Z</time></trkpt><trkpt lat="43.423448480872004" lon="5.977334104369753"><ele>284.6</ele><time>2026-04-11T14:24:11Z</time></trkpt><trkpt lat="43.42340301111572" lon="5.977440810002251"><ele>285.0</ele><time>2026-04-11T14:24:12Z</time></trkpt><trkpt lat="43.42335622394535" lon="5.977523430190241"><ele>285.5</ele><time>2026-04-11T14:24:13Z</time></trkpt><trkpt lat="43.423300610691584" lon="5.977590823137379"><ele>286.0</ele><time>2026-04-11T14:24:14Z</time></trkpt><trkpt lat="43.42323799930397" lon="5.977635215313975"><ele>286.5</ele><time>2026-04-11T14:24:15Z</time></trkpt><trkpt lat="43.4231716001836" lon="5.977663908137536"><ele>287.0</ele><time>2026-04-11T14:24:16Z</time></trkpt><trkpt lat="43.42305018668398" lon="5.977702793652268"><ele>287.5</ele><time>2026-04-11T14:24:18Z</time></trkpt><trkpt lat="43.422981850122795" lon="5.977726336331486"><ele>288.0</ele><time>2026-04-11T14:24:24Z</time></trkpt><trkpt lat="43.42292218628409" lon="5.977696049147718"><ele>288.0</ele><time>2026-04-11T14:24:26Z</time></trkpt><trkpt lat="43.42281620802903" lon="5.977592534154548"><ele>288.0</ele><time>2026-04-11T14:24:28Z</time></trkpt><trkpt lat="43.422754743489456" lon="5.9775318695188355"><ele>288.0</ele><time>2026-04-11T14:24:29Z</time></trkpt><trkpt lat="43.422691246684565" lon="5.977473446102521"><ele>288.0</ele><time>2026-04-11T14:24:30Z</time></trkpt><trkpt lat="43.422629512179896" lon="5.977428696962689"><ele>288.0</ele><time>2026-04-11T14:24:31Z</time></trkpt><trkpt lat="43.422562213613425" lon="5.977383774833781"><ele>288.0</ele><time>2026-04-11T14:24:32Z</time></trkpt><trkpt lat="43.42248025317138" lon="5.977322946783006"><ele>288.5</ele><time>2026-04-11T14:24:33Z</time></trkpt><trkpt lat="43.42241946423871" lon="5.9772719521640765"><ele>289.0</ele><time>2026-04-11T14:24:34Z</time></trkpt><trkpt lat="43.42232834724733" lon="5.977269997094575"><ele>289.5</ele><time>2026-04-11T14:24:36Z</time></trkpt><trkpt lat="43.422264986762094" lon="5.977272958726837"><ele>290.0</ele><time>2026-04-11T14:24:37Z</time></trkpt><trkpt lat="43.42214128477383" lon="5.977263718651521"><ele>290.5</ele><time>2026-04-11T14:24:38Z</time></trkpt><trkpt lat="43.42204683942191" lon="5.977264969314498"><ele>291.0</ele><time>2026-04-11T14:24:39Z</time></trkpt><trkpt lat="43.42197476432362" lon="5.977243315573735"><ele>291.5</ele><time>2026-04-11T14:24:40Z</time></trkpt><trkpt lat="43.42184177461626" lon="5.977143910329268"><ele>292.0</ele><time>2026-04-11T14:24:42Z</time></trkpt><trkpt lat="43.421725498706635" lon="5.977068987627191"><ele>292.5</ele><time>2026-04-11T14:24:43Z</time></trkpt><trkpt lat="43.4216491694732" lon="5.977011989423884"><ele>293.0</ele><time>2026-04-11T14:24:44Z</time></trkpt><trkpt lat="43.4215441886396" lon="5.976945321661339"><ele>293.0</ele><time>2026-04-11T14:24:46Z</time></trkpt><trkpt lat="43.42144038363964" lon="5.976870971624227"><ele>293.0</ele><time>2026-04-11T14:24:48Z</time></trkpt><trkpt lat="43.42135743297524" lon="5.9768208607120235"><ele>293.0</ele><time>2026-04-11T14:24:49Z</time></trkpt><trkpt lat="43.421270173104155" lon="5.976749933201976"><ele>293.0</ele><time>2026-04-11T14:24:51Z</time></trkpt><trkpt lat="43.42118842459244" lon="5.976711370586066"><ele>293.0</ele><time>2026-04-11T14:24:52Z</time></trkpt><trkpt lat="43.42108651368842" lon="5.97666498666869"><ele>294.0</ele><time>2026-04-11T14:24:53Z</time></trkpt><trkpt lat="43.42099687410013" lon="5.97662983543791"><ele>295.0</ele><time>2026-04-11T14:24:54Z</time></trkpt><trkpt lat="43.420931337850575" lon="5.976601172398284"><ele>296.0</ele><time>2026-04-11T14:24:55Z</time></trkpt><trkpt lat="43.420823940569434" lon="5.976570288690212"><ele>297.0</ele><time>2026-04-11T14:24:57Z</time></trkpt><trkpt lat="43.42075175330585" lon="5.9765355340843165"><ele>298.0</ele><time>2026-04-11T14:24:58Z</time></trkpt><trkpt lat="43.420657926273115" lon="5.976482812078773"><ele>299.0</ele><time>2026-04-11T14:24:59Z</time></trkpt><trkpt lat="43.420584845618684" lon="5.976449608176899"><ele>299.8</ele><time>2026-04-11T14:25:00Z</time></trkpt><trkpt lat="43.42047439119342" lon="5.976397560280955"><ele>300.59999999999997</ele><time>2026-04-11T14:25:02Z</time></trkpt><trkpt lat="43.42039028093529" lon="5.976376273619972"><ele>301.4</ele><time>2026-04-11T14:25:03Z</time></trkpt><trkpt lat="43.42026506945887" lon="5.976322804531499"><ele>302.2</ele><time>2026-04-11T14:25:05Z</time></trkpt><trkpt lat="43.42017243175079" lon="5.976296913274375"><ele>303.0</ele><time>2026-04-11T14:25:07Z</time></trkpt><trkpt lat="43.42009936635243" lon="5.976306175412686"><ele>303.0</ele><time>2026-04-11T14:25:08Z</time></trkpt><trkpt lat="43.42002453409413" lon="5.976311344037569"><ele>303.0</ele><time>2026-04-11T14:25:09Z</time></trkpt><trkpt lat="43.4199590295781" lon="5.976338303928083"><ele>303.0</ele><time>2026-04-11T14:25:10Z</time></trkpt><trkpt lat="43.41989787058192" lon="5.976369356845778"><ele>303.0</ele><time>2026-04-11T14:25:11Z</time></trkpt><trkpt lat="43.41980978372005" lon="5.976407947973097"><ele>303.0</ele><time>2026-04-11T14:25:13Z</time></trkpt><trkpt lat="43.41973345908908" lon="5.976340198571264"><ele>303.0</ele><time>2026-04-11T14:25:16Z</time></trkpt><trkpt lat="43.41971739342005" lon="5.976165407459691"><ele>303.0</ele><time>2026-04-11T14:25:19Z</time></trkpt><trkpt lat="43.419723742873266" lon="5.976065647598021"><ele>303.0</ele><time>2026-04-11T14:25:20Z</time></trkpt><trkpt lat="43.419727319586656" lon="5.975949699415915"><ele>303.0</ele><time>2026-04-11T14:25:21Z</time></trkpt><trkpt lat="43.419725445523106" lon="5.975853569420763"><ele>303.0</ele><time>2026-04-11T14:25:21.999Z</time></trkpt><trkpt lat="43.41971576570957" lon="5.975653421316922"><ele>303.0</ele><time>2026-04-11T14:25:23.999Z</time></trkpt><trkpt lat="43.41970361384941" lon="5.97555626799359"><ele>303.0</ele><time>2026-04-11T14:25:24.999Z</time></trkpt><trkpt lat="43.41962370005049" lon="5.97545563772055"><ele>301.4</ele><time>2026-04-11T14:25:26.999Z</time></trkpt><trkpt lat="43.41955201416754" lon="5.975451077797724"><ele>299.8</ele><time>2026-04-11T14:25:28.999Z</time></trkpt><trkpt lat="43.419476081586744" lon="5.975521730339984"><ele>298.2</ele><time>2026-04-11T14:25:30.999Z</time></trkpt><trkpt lat="43.41939584635446" lon="5.9756512734145035"><ele>296.6</ele><time>2026-04-11T14:25:31.999Z</time></trkpt><trkpt lat="43.419289451552984" lon="5.9758106412775245"><ele>295.0</ele><time>2026-04-11T14:25:33Z</time></trkpt><trkpt lat="43.419222293887046" lon="5.975912525601949"><ele>295.0</ele><time>2026-04-11T14:25:34Z</time></trkpt><trkpt lat="43.41916054191811" lon="5.97601260620181"><ele>295.0</ele><time>2026-04-11T14:25:35Z</time></trkpt><trkpt lat="43.419099177529816" lon="5.976106315412069"><ele>295.0</ele><time>2026-04-11T14:25:36Z</time></trkpt><trkpt lat="43.41903923649927" lon="5.976193924231216"><ele>295.0</ele><time>2026-04-11T14:25:37Z</time></trkpt><trkpt lat="43.41898214172568" lon="5.976279541061672"><ele>295.0</ele><time>2026-04-11T14:25:38Z</time></trkpt><trkpt lat="43.418879319443846" lon="5.976332977983949"><ele>293.25</ele><time>2026-04-11T14:25:40Z</time></trkpt><trkpt lat="43.418729558954126" lon="5.976264816096647"><ele>291.5</ele><time>2026-04-11T14:25:42Z</time></trkpt><trkpt lat="43.41859922373938" lon="5.976206985314404"><ele>289.75</ele><time>2026-04-11T14:25:43Z</time></trkpt><trkpt lat="43.41847779350319" lon="5.976148266303019"><ele>288.0</ele><time>2026-04-11T14:25:44Z</time></trkpt><trkpt lat="43.418333691102056" lon="5.976085443635025"><ele>288.0</ele><time>2026-04-11T14:25:45Z</time></trkpt><trkpt lat="43.41821262071674" lon="5.97603446699091"><ele>288.0</ele><time>2026-04-11T14:25:46Z</time></trkpt><trkpt lat="43.41810555619276" lon="5.975990683233581"><ele>288.0</ele><time>2026-04-11T14:25:47Z</time></trkpt><trkpt lat="43.41799546028607" lon="5.975951846751891"><ele>288.0</ele><time>2026-04-11T14:25:48Z</time></trkpt><trkpt lat="43.417893261009084" lon="5.9759167739605825"><ele>287.3333333333333</ele><time>2026-04-11T14:25:49Z</time></trkpt><trkpt lat="43.41778853199296" lon="5.975866479440477"><ele>286.6666666666667</ele><time>2026-04-11T14:25:50Z</time></trkpt><trkpt lat="43.417691736791866" lon="5.975814296736759"><ele>286.0</ele><time>2026-04-11T14:25:51Z</time></trkpt><trkpt lat="43.41761687817256" lon="5.975789094172731"><ele>285.33333333333337</ele><time>2026-04-11T14:25:52Z</time></trkpt><trkpt lat="43.417535310361664" lon="5.975793806017809"><ele>284.6666666666667</ele><time>2026-04-11T14:25:53Z</time></trkpt><trkpt lat="43.41746734296676" lon="5.975813076624901"><ele>284.0</ele><time>2026-04-11T14:25:54Z</time></trkpt><trkpt lat="43.417390132954885" lon="5.97580308914503"><ele>280.8</ele><time>2026-04-11T14:25:55Z</time></trkpt><trkpt lat="43.4173138811226" lon="5.975770455177544"><ele>277.59999999999997</ele><time>2026-04-11T14:25:56Z</time></trkpt><trkpt lat="43.41723529300867" lon="5.975717742993978"><ele>274.4</ele><time>2026-04-11T14:25:57Z</time></trkpt><trkpt lat="43.41714533644879" lon="5.975649610987853"><ele>271.2</ele><time>2026-04-11T14:25:58Z</time></trkpt><trkpt lat="43.41705498305221" lon="5.97558007273598"><ele>268.0</ele><time>2026-04-11T14:25:59Z</time></trkpt><trkpt lat="43.416927807748536" lon="5.975480911740181"><ele>265.75</ele><time>2026-04-11T14:26:00Z</time></trkpt><trkpt lat="43.416806305168066" lon="5.975373227943808"><ele>263.5</ele><time>2026-04-11T14:26:01Z</time></trkpt><trkpt lat="43.41670105400643" lon="5.975336481865982"><ele>261.25</ele><time>2026-04-11T14:26:02Z</time></trkpt><trkpt lat="43.41660364066925" lon="5.9752911503133"><ele>259.0</ele><time>2026-04-11T14:26:03Z</time></trkpt><trkpt lat="43.416510709121546" lon="5.975230565779997"><ele>259.0</ele><time>2026-04-11T14:26:04Z</time></trkpt><trkpt lat="43.416432811427406" lon="5.975157683235672"><ele>259.0</ele><time>2026-04-11T14:26:05Z</time></trkpt><trkpt lat="43.41637222463839" lon="5.97507716928041"><ele>259.0</ele><time>2026-04-11T14:26:06Z</time></trkpt><trkpt lat="43.41622700813767" lon="5.97492186279564"><ele>259.0</ele><time>2026-04-11T14:26:07Z</time></trkpt><trkpt lat="43.4161050871575" lon="5.974834084295326"><ele>259.0</ele><time>2026-04-11T14:26:08Z</time></trkpt><trkpt lat="43.41597628078623" lon="5.974778936371664"><ele>259.0</ele><time>2026-04-11T14:26:09Z</time></trkpt><trkpt lat="43.41585964129437" lon="5.974731320579508"><ele>259.0</ele><time>2026-04-11T14:26:10Z</time></trkpt><trkpt lat="43.41574196290654" lon="5.974712984256213"><ele>259.0</ele><time>2026-04-11T14:26:11Z</time></trkpt><trkpt lat="43.415584806930774" lon="5.974700678770741"><ele>259.66666666666663</ele><time>2026-04-11T14:26:12Z</time></trkpt><trkpt lat="43.415411865232976" lon="5.974689951765441"><ele>260.3333333333333</ele><time>2026-04-11T14:26:13Z</time></trkpt><trkpt lat="43.41526738505675" lon="5.974672344610389"><ele>261.0</ele><time>2026-04-11T14:26:14Z</time></trkpt><trkpt lat="43.4151321499977" lon="5.9746479280863305"><ele>261.0</ele><time>2026-04-11T14:26:15Z</time></trkpt><trkpt lat="43.415023528388744" lon="5.974637706194329"><ele>261.0</ele><time>2026-04-11T14:26:16Z</time></trkpt><trkpt lat="43.41495323218548" lon="5.974642550773734"><ele>261.0</ele><time>2026-04-11T14:26:17Z</time></trkpt><trkpt lat="43.41486199230958" lon="5.974629892831532"><ele>261.0</ele><time>2026-04-11T14:26:18Z</time></trkpt><trkpt lat="43.41477662872012" lon="5.97462218128753"><ele>261.0</ele><time>2026-04-11T14:26:19Z</time></trkpt><trkpt lat="43.41468392518589" lon="5.974625169310777"><ele>261.0</ele><time>2026-04-11T14:26:20Z</time></trkpt><trkpt lat="43.41458604972052" lon="5.974620528368839"><ele>260.0</ele><time>2026-04-11T14:26:21Z</time></trkpt><trkpt lat="43.41445123106085" lon="5.974599493583256"><ele>259.0</ele><time>2026-04-11T14:26:22Z</time></trkpt><trkpt lat="43.41432261596491" lon="5.974591059296325"><ele>258.0</ele><time>2026-04-11T14:26:23Z</time></trkpt><trkpt lat="43.41420734736821" lon="5.974604640333179"><ele>257.0</ele><time>2026-04-11T14:26:24Z</time></trkpt><trkpt lat="43.41409166491159" lon="5.974605240658491"><ele>257.0</ele><time>2026-04-11T14:26:25Z</time></trkpt><trkpt lat="43.41395102569631" lon="5.974532826261607"><ele>257.0</ele><time>2026-04-11T14:26:26Z</time></trkpt><trkpt lat="43.41380507393252" lon="5.974510253267019"><ele>257.0</ele><time>2026-04-11T14:26:27Z</time></trkpt><trkpt lat="43.413664482172244" lon="5.974467371570011"><ele>257.0</ele><time>2026-04-11T14:26:28Z</time></trkpt><trkpt lat="43.41353726810516" lon="5.9744588666266125"><ele>256.6</ele><time>2026-04-11T14:26:29Z</time></trkpt><trkpt lat="43.413422686127774" lon="5.974471144438787"><ele>256.2</ele><time>2026-04-11T14:26:30Z</time></trkpt><trkpt lat="43.41332454544836" lon="5.9744656369942275"><ele>255.8</ele><time>2026-04-11T14:26:31Z</time></trkpt><trkpt lat="43.4132350440298" lon="5.9744281218895345"><ele>255.4</ele><time>2026-04-11T14:26:32Z</time></trkpt><trkpt lat="43.41315195211764" lon="5.97437596778333"><ele>255.0</ele><time>2026-04-11T14:26:33Z</time></trkpt><trkpt lat="43.4130816709275" lon="5.974304471682357"><ele>255.0</ele><time>2026-04-11T14:26:34Z</time></trkpt><trkpt lat="43.41302847918643" lon="5.974204053005998"><ele>255.0</ele><time>2026-04-11T14:26:35Z</time></trkpt><trkpt lat="43.413023581547" lon="5.974053170061653"><ele>255.0</ele><time>2026-04-11T14:26:36Z</time></trkpt><trkpt lat="43.412969349009835" lon="5.97387809008928"><ele>255.0</ele><time>2026-04-11T14:26:37Z</time></trkpt><trkpt lat="43.41290840427894" lon="5.973688413559318"><ele>256.0</ele><time>2026-04-11T14:26:38Z</time></trkpt><trkpt lat="43.41284403409458" lon="5.973567392403145"><ele>257.0</ele><time>2026-04-11T14:26:39Z</time></trkpt><trkpt lat="43.412801254921945" lon="5.973480264380544"><ele>258.0</ele><time>2026-04-11T14:26:40Z</time></trkpt><trkpt lat="43.41274122729921" lon="5.973426557667946"><ele>259.0</ele><time>2026-04-11T14:26:41Z</time></trkpt><trkpt lat="43.41265717404292" lon="5.973396052856271"><ele>260.0</ele><time>2026-04-11T14:26:42Z</time></trkpt><trkpt lat="43.41255031268563" lon="5.973401323250123"><ele>260.0</ele><time>2026-04-11T14:26:43Z</time></trkpt><trkpt lat="43.41242887422351" lon="5.973381590141973"><ele>260.0</ele><time>2026-04-11T14:26:44Z</time></trkpt><trkpt lat="43.41233717718778" lon="5.973375572112397"><ele>260.0</ele><time>2026-04-11T14:26:45Z</time></trkpt><trkpt lat="43.41223800000431" lon="5.973355027705757"><ele>260.0</ele><time>2026-04-11T14:26:46Z</time></trkpt><trkpt lat="43.412161599255576" lon="5.9734440030995"><ele>260.0</ele><time>2026-04-11T14:26:47Z</time></trkpt><trkpt lat="43.41206851558673" lon="5.973502035470812"><ele>257.5</ele><time>2026-04-11T14:26:48Z</time></trkpt><trkpt lat="43.41197765103093" lon="5.973537085664578"><ele>255.0</ele><time>2026-04-11T14:26:49Z</time></trkpt><trkpt lat="43.41189159836863" lon="5.97351804605197"><ele>252.5</ele><time>2026-04-11T14:26:50Z</time></trkpt><trkpt lat="43.4117745965183" lon="5.973509993717149"><ele>250.0</ele><time>2026-04-11T14:26:51Z</time></trkpt><trkpt lat="43.4115985784359" lon="5.973443983798039"><ele>250.0</ele><time>2026-04-11T14:26:52Z</time></trkpt><trkpt lat="43.41144682684494" lon="5.973376130842424"><ele>250.0</ele><time>2026-04-11T14:26:53Z</time></trkpt><trkpt lat="43.41131774405761" lon="5.973306240324104"><ele>250.0</ele><time>2026-04-11T14:26:54Z</time></trkpt><trkpt lat="43.41119989181101" lon="5.973214607992242"><ele>250.0</ele><time>2026-04-11T14:26:55Z</time></trkpt><trkpt lat="43.41111739899947" lon="5.973112159808604"><ele>250.0</ele><time>2026-04-11T14:26:56Z</time></trkpt><trkpt lat="43.41106004412485" lon="5.973021266355377"><ele>250.0</ele><time>2026-04-11T14:26:57Z</time></trkpt><trkpt lat="43.410971199892856" lon="5.972948627232617"><ele>250.0</ele><time>2026-04-11T14:26:58Z</time></trkpt><trkpt lat="43.410862679826806" lon="5.972927532192789"><ele>250.0</ele><time>2026-04-11T14:26:59Z</time></trkpt><trkpt lat="43.41073605031528" lon="5.9729081468145475"><ele>250.0</ele><time>2026-04-11T14:27:00Z</time></trkpt><trkpt lat="43.4105795079248" lon="5.972828821188435"><ele>249.33333333333331</ele><time>2026-04-11T14:27:01Z</time></trkpt><trkpt lat="43.41038952316531" lon="5.97273735404572"><ele>248.66666666666669</ele><time>2026-04-11T14:27:02Z</time></trkpt><trkpt lat="43.41024086240779" lon="5.972661254029191"><ele>248.0</ele><time>2026-04-11T14:27:03Z</time></trkpt><trkpt lat="43.410112397345735" lon="5.972580546729778"><ele>248.33333333333334</ele><time>2026-04-11T14:27:04Z</time></trkpt><trkpt lat="43.40998572999079" lon="5.97248886464531"><ele>248.66666666666669</ele><time>2026-04-11T14:27:05Z</time></trkpt><trkpt lat="43.40983520420652" lon="5.97239543917403"><ele>249.0</ele><time>2026-04-11T14:27:06Z</time></trkpt><trkpt lat="43.409701688570784" lon="5.972277357673513"><ele>248.25</ele><time>2026-04-11T14:27:07Z</time></trkpt><trkpt lat="43.40959258316277" lon="5.972188238600227"><ele>247.5</ele><time>2026-04-11T14:27:08Z</time></trkpt><trkpt lat="43.409495655589595" lon="5.972114502019118"><ele>246.75</ele><time>2026-04-11T14:27:09Z</time></trkpt><trkpt lat="43.409400773722666" lon="5.972049591892644"><ele>246.0</ele><time>2026-04-11T14:27:10Z</time></trkpt><trkpt lat="43.40929509225845" lon="5.971998583695766"><ele>246.0</ele><time>2026-04-11T14:27:11Z</time></trkpt><trkpt lat="43.40916522128072" lon="5.972000094748703"><ele>246.0</ele><time>2026-04-11T14:27:12Z</time></trkpt><trkpt lat="43.40900762508707" lon="5.971971930203257"><ele>246.0</ele><time>2026-04-11T14:27:13Z</time></trkpt><trkpt lat="43.408855094966995" lon="5.971940601681167"><ele>246.0</ele><time>2026-04-11T14:27:14Z</time></trkpt><trkpt lat="43.40871153000977" lon="5.971907265784741"><ele>246.25</ele><time>2026-04-11T14:27:15Z</time></trkpt><trkpt lat="43.408585227942275" lon="5.971876605356125"><ele>246.5</ele><time>2026-04-11T14:27:15.999Z</time></trkpt><trkpt lat="43.40846540902201" lon="5.971846790252116"><ele>246.75</ele><time>2026-04-11T14:27:16.999Z</time></trkpt><trkpt lat="43.408354352822045" lon="5.971820016992638"><ele>247.0</ele><time>2026-04-11T14:27:17.999Z</time></trkpt><trkpt lat="43.40825209500451" lon="5.971799984011881"><ele>246.99999999999997</ele><time>2026-04-11T14:27:18.999Z</time></trkpt><trkpt lat="43.40816140546435" lon="5.971789334552152"><ele>247.0</ele><time>2026-04-11T14:27:19.999Z</time></trkpt><trkpt lat="43.40808751295096" lon="5.971768307159178"><ele>247.0</ele><time>2026-04-11T14:27:20.999Z</time></trkpt><trkpt lat="43.407982547604796" lon="5.971779786993098"><ele>247.0</ele><time>2026-04-11T14:27:22.999Z</time></trkpt><trkpt lat="43.40788936258328" lon="5.971727178870118"><ele>246.99999999999997</ele><time>2026-04-11T14:27:46Z</time></trkpt><trkpt lat="43.407821978501325" lon="5.971723045403706"><ele>247.0</ele><time>2026-04-11T14:27:47Z</time></trkpt><trkpt lat="43.407716579836666" lon="5.971770356060849"><ele>246.5</ele><time>2026-04-11T14:27:49Z</time></trkpt><trkpt lat="43.407582373571245" lon="5.971814031640508"><ele>246.0</ele><time>2026-04-11T14:27:51Z</time></trkpt><trkpt lat="43.40745794772628" lon="5.971841939823068"><ele>245.5</ele><time>2026-04-11T14:27:52Z</time></trkpt><trkpt lat="43.40732855104513" lon="5.97186901815164"><ele>245.0</ele><time>2026-04-11T14:27:53Z</time></trkpt><trkpt lat="43.40720857546348" lon="5.971882897959487"><ele>245.0</ele><time>2026-04-11T14:27:54Z</time></trkpt><trkpt lat="43.407101106305596" lon="5.971893274968019"><ele>245.0</ele><time>2026-04-11T14:27:55Z</time></trkpt><trkpt lat="43.406971406922224" lon="5.971894412126665"><ele>245.0</ele><time>2026-04-11T14:27:56Z</time></trkpt><trkpt lat="43.40680728956189" lon="5.971916302538869"><ele>245.0</ele><time>2026-04-11T14:27:57Z</time></trkpt><trkpt lat="43.40664523168978" lon="5.971947865154629"><ele>245.0</ele><time>2026-04-11T14:27:58Z</time></trkpt><trkpt lat="43.406510686425804" lon="5.971959090460806"><ele>245.0</ele><time>2026-04-11T14:27:59Z</time></trkpt><trkpt lat="43.40638859141973" lon="5.971964225676257"><ele>245.0</ele><time>2026-04-11T14:28:00Z</time></trkpt><trkpt lat="43.40626860458104" lon="5.971970422016052"><ele>245.0</ele><time>2026-04-11T14:28:01Z</time></trkpt><trkpt lat="43.40612695686421" lon="5.971979258466409"><ele>245.0</ele><time>2026-04-11T14:28:02Z</time></trkpt><trkpt lat="43.40599384614449" lon="5.972000038920552"><ele>245.0</ele><time>2026-04-11T14:28:03Z</time></trkpt><trkpt lat="43.40587673058133" lon="5.972016020209126"><ele>245.0</ele><time>2026-04-11T14:28:04Z</time></trkpt><trkpt lat="43.405776341096576" lon="5.972037096893661"><ele>245.0</ele><time>2026-04-11T14:28:05Z</time></trkpt><trkpt lat="43.405681348098966" lon="5.972076918448843"><ele>245.0</ele><time>2026-04-11T14:28:06Z</time></trkpt><trkpt lat="43.40559450000651" lon="5.97213558752454"><ele>245.0</ele><time>2026-04-11T14:28:07Z</time></trkpt><trkpt lat="43.40550289729536" lon="5.972219727790713"><ele>245.0</ele><time>2026-04-11T14:28:08Z</time></trkpt><trkpt lat="43.40538754092701" lon="5.9723273528476035"><ele>245.0</ele><time>2026-04-11T14:28:09Z</time></trkpt><trkpt lat="43.40526808013536" lon="5.972435676068677"><ele>245.4</ele><time>2026-04-11T14:28:10Z</time></trkpt><trkpt lat="43.40516660889452" lon="5.972519641597362"><ele>245.8</ele><time>2026-04-11T14:28:11Z</time></trkpt><trkpt lat="43.40508230156722" lon="5.972606006163916"><ele>246.2</ele><time>2026-04-11T14:28:12Z</time></trkpt><trkpt lat="43.405005586022504" lon="5.972698458932802"><ele>246.6</ele><time>2026-04-11T14:28:13Z</time></trkpt><trkpt lat="43.404929756220845" lon="5.972779946851568"><ele>247.0</ele><time>2026-04-11T14:28:14Z</time></trkpt><trkpt lat="43.40484112942483" lon="5.972861586236101"><ele>247.0</ele><time>2026-04-11T14:28:15Z</time></trkpt><trkpt lat="43.40474917379316" lon="5.972946600489918"><ele>247.0</ele><time>2026-04-11T14:28:16Z</time></trkpt><trkpt lat="43.40467144239071" lon="5.9730320082307875"><ele>247.0</ele><time>2026-04-11T14:28:17Z</time></trkpt><trkpt lat="43.40460275087545" lon="5.973120378431815"><ele>247.0</ele><time>2026-04-11T14:28:18Z</time></trkpt><trkpt lat="43.40454421971335" lon="5.973209611567778"><ele>247.0</ele><time>2026-04-11T14:28:19Z</time></trkpt><trkpt lat="43.40450017336795" lon="5.973278005457088"><ele>246.99999999999997</ele><time>2026-04-11T14:28:20Z</time></trkpt><trkpt lat="43.40445559016508" lon="5.973346633137461"><ele>247.0</ele><time>2026-04-11T14:28:22Z</time></trkpt><trkpt lat="43.40439701142069" lon="5.973429528566224"><ele>247.0</ele><time>2026-04-11T14:28:24Z</time></trkpt><trkpt lat="43.404329138820884" lon="5.973459981400237"><ele>247.0</ele><time>2026-04-11T14:28:33Z</time></trkpt><trkpt lat="43.40424852220457" lon="5.973506067694342"><ele>246.99999999999997</ele><time>2026-04-11T14:28:36Z</time></trkpt><trkpt lat="43.40418894949586" lon="5.9735459202874495"><ele>247.0</ele><time>2026-04-11T14:28:38Z</time></trkpt><trkpt lat="43.40409837114518" lon="5.97359160984633"><ele>247.0</ele><time>2026-04-11T14:28:41Z</time></trkpt><trkpt lat="43.40401050929114" lon="5.97357121643267"><ele>247.0</ele><time>2026-04-11T14:28:44Z</time></trkpt><trkpt lat="43.40393647721984" lon="5.973577748005446"><ele>247.0</ele><time>2026-04-11T14:28:45Z</time></trkpt><trkpt lat="43.403848177602086" lon="5.973594068245029"><ele>247.0</ele><time>2026-04-11T14:28:46Z</time></trkpt><trkpt lat="43.40372275644173" lon="5.973635472816923"><ele>247.0</ele><time>2026-04-11T14:28:47Z</time></trkpt><trkpt lat="43.403619894627475" lon="5.9736606405141375"><ele>246.75</ele><time>2026-04-11T14:28:48Z</time></trkpt><trkpt lat="43.40344492108156" lon="5.973729448832344"><ele>246.5</ele><time>2026-04-11T14:28:49Z</time></trkpt><trkpt lat="43.40334773691263" lon="5.973767034640179"><ele>246.25</ele><time>2026-04-11T14:28:50Z</time></trkpt><trkpt lat="43.40322907634735" lon="5.9737936730849315"><ele>246.0</ele><time>2026-04-11T14:28:51Z</time></trkpt><trkpt lat="43.40309473000811" lon="5.973812795111405"><ele>246.0</ele><time>2026-04-11T14:28:52Z</time></trkpt><trkpt lat="43.40295081141996" lon="5.973831193531788"><ele>246.0</ele><time>2026-04-11T14:28:53Z</time></trkpt><trkpt lat="43.40283125637077" lon="5.973829969783608"><ele>246.0</ele><time>2026-04-11T14:28:54Z</time></trkpt><trkpt lat="43.40272964293006" lon="5.973792129784094"><ele>246.0</ele><time>2026-04-11T14:28:55Z</time></trkpt><trkpt lat="43.40259177203853" lon="5.973732060311124"><ele>246.0</ele><time>2026-04-11T14:28:56Z</time></trkpt><trkpt lat="43.40244855579334" lon="5.973648771023752"><ele>246.0</ele><time>2026-04-11T14:28:57Z</time></trkpt><trkpt lat="43.402306376331914" lon="5.973589662348402"><ele>246.0</ele><time>2026-04-11T14:28:58Z</time></trkpt><trkpt lat="43.402169797222825" lon="5.973547322637363"><ele>246.0</ele><time>2026-04-11T14:28:59Z</time></trkpt><trkpt lat="43.40207678273011" lon="5.9735102284966874"><ele>245.60000000000002</ele><time>2026-04-11T14:29:00Z</time></trkpt><trkpt lat="43.40197893861205" lon="5.9734693248459125"><ele>245.20000000000002</ele><time>2026-04-11T14:29:01Z</time></trkpt><trkpt lat="43.40190926127385" lon="5.97342293501555"><ele>244.79999999999998</ele><time>2026-04-11T14:29:02Z</time></trkpt><trkpt lat="43.40184072824564" lon="5.973381101300742"><ele>244.39999999999998</ele><time>2026-04-11T14:29:03Z</time></trkpt><trkpt lat="43.401748057492576" lon="5.973348686935993"><ele>244.0</ele><time>2026-04-11T14:29:04Z</time></trkpt><trkpt lat="43.40161836893188" lon="5.973321148047216"><ele>244.66666666666666</ele><time>2026-04-11T14:29:05Z</time></trkpt><trkpt lat="43.40151514100173" lon="5.973317810764108"><ele>245.33333333333331</ele><time>2026-04-11T14:29:06Z</time></trkpt><trkpt lat="43.40142783768394" lon="5.97332023680785"><ele>246.0</ele><time>2026-04-11T14:29:07Z</time></trkpt><trkpt lat="43.40134168453979" lon="5.973318672142308"><ele>246.66666666666669</ele><time>2026-04-11T14:29:08Z</time></trkpt><trkpt lat="43.40125310586118" lon="5.973309800611159"><ele>247.33333333333334</ele><time>2026-04-11T14:29:09Z</time></trkpt><trkpt lat="43.40118704919678" lon="5.973305519959064"><ele>248.0</ele><time>2026-04-11T14:29:10Z</time></trkpt><trkpt lat="43.4010949804783" lon="5.973261256533667"><ele>248.0</ele><time>2026-04-11T14:29:11Z</time></trkpt><trkpt lat="43.401000670693286" lon="5.973274427466087"><ele>248.0</ele><time>2026-04-11T14:29:11.999Z</time></trkpt><trkpt lat="43.40089701564545" lon="5.97324596284791"><ele>248.0</ele><time>2026-04-11T14:29:12.999Z</time></trkpt><trkpt lat="43.40078339398762" lon="5.973176478581925"><ele>248.0</ele><time>2026-04-11T14:29:13.999Z</time></trkpt><trkpt lat="43.400682596989384" lon="5.973113953605816"><ele>248.0</ele><time>2026-04-11T14:29:14.999Z</time></trkpt><trkpt lat="43.40058620810434" lon="5.9730688395918685"><ele>248.0</ele><time>2026-04-11T14:29:15.999Z</time></trkpt><trkpt lat="43.40050052162981" lon="5.97304318844736"><ele>248.0</ele><time>2026-04-11T14:29:16.999Z</time></trkpt><trkpt lat="43.40041544063609" lon="5.9730054157675925"><ele>248.0</ele><time>2026-04-11T14:29:17.999Z</time></trkpt><trkpt lat="43.400304141877776" lon="5.972972104527156"><ele>248.0</ele><time>2026-04-11T14:29:18.999Z</time></trkpt><trkpt lat="43.40017721005482" lon="5.972933577330987"><ele>248.0</ele><time>2026-04-11T14:29:19.999Z</time></trkpt><trkpt lat="43.40004043801815" lon="5.972896501027831"><ele>247.66666666666669</ele><time>2026-04-11T14:29:20.999Z</time></trkpt><trkpt lat="43.39990093300414" lon="5.972896817230099"><ele>247.33333333333331</ele><time>2026-04-11T14:29:21.999Z</time></trkpt><trkpt lat="43.39972874195857" lon="5.972947433348277"><ele>247.0</ele><time>2026-04-11T14:29:22.999Z</time></trkpt><trkpt lat="43.39952221124277" lon="5.973018438858111"><ele>246.66666666666666</ele><time>2026-04-11T14:29:23.999Z</time></trkpt><trkpt lat="43.399279768550116" lon="5.973114816619056"><ele>246.33333333333331</ele><time>2026-04-11T14:29:24.999Z</time></trkpt><trkpt lat="43.39910071935487" lon="5.973184549098573"><ele>246.0</ele><time>2026-04-11T14:29:25.999Z</time></trkpt><trkpt lat="43.39896300292972" lon="5.9732394662857375"><ele>246.0</ele><time>2026-04-11T14:29:26.999Z</time></trkpt><trkpt lat="43.398858558286356" lon="5.973294389135593"><ele>246.0</ele><time>2026-04-11T14:29:27.999Z</time></trkpt><trkpt lat="43.398775261003095" lon="5.973362891876483"><ele>246.0</ele><time>2026-04-11T14:29:28.999Z</time></trkpt><trkpt lat="43.39871564028849" lon="5.973443142643334"><ele>246.0</ele><time>2026-04-11T14:29:29.999Z</time></trkpt><trkpt lat="43.398669057836905" lon="5.9735315122727695"><ele>246.0</ele><time>2026-04-11T14:29:30.999Z</time></trkpt><trkpt lat="43.39862385798319" lon="5.973607996461565"><ele>246.0</ele><time>2026-04-11T14:29:31.999Z</time></trkpt><trkpt lat="43.398554854050715" lon="5.9736725089761675"><ele>248.0</ele><time>2026-04-11T14:29:32.999Z</time></trkpt><trkpt lat="43.39847474945932" lon="5.973733843322464"><ele>250.00000000000003</ele><time>2026-04-11T14:29:33.999Z</time></trkpt><trkpt lat="43.39839226033031" lon="5.973754884186187"><ele>252.00000000000003</ele><time>2026-04-11T14:29:34.999Z</time></trkpt><trkpt lat="43.398270181361816" lon="5.973789685087572"><ele>254.0</ele><time>2026-04-11T14:29:35.999Z</time></trkpt><trkpt lat="43.39816583173522" lon="5.973827676690894"><ele>256.0</ele><time>2026-04-11T14:29:36.999Z</time></trkpt><trkpt lat="43.39806855882326" lon="5.97386455078644"><ele>257.25</ele><time>2026-04-11T14:29:37.999Z</time></trkpt><trkpt lat="43.3979750281226" lon="5.973869431610548"><ele>258.5</ele><time>2026-04-11T14:29:38.999Z</time></trkpt><trkpt lat="43.39784633688387" lon="5.973861598935138"><ele>259.75</ele><time>2026-04-11T14:29:39.999Z</time></trkpt><trkpt lat="43.397717846211464" lon="5.973856015996955"><ele>261.0</ele><time>2026-04-11T14:29:40.999Z</time></trkpt><trkpt lat="43.39760873647534" lon="5.973854436559905"><ele>261.0</ele><time>2026-04-11T14:29:41.999Z</time></trkpt><trkpt lat="43.39751024435137" lon="5.973858620237492"><ele>261.0</ele><time>2026-04-11T14:29:42.999Z</time></trkpt><trkpt lat="43.397421358840646" lon="5.9738435426335625"><ele>261.0</ele><time>2026-04-11T14:29:43.999Z</time></trkpt><trkpt lat="43.397331827993796" lon="5.973812773335696"><ele>261.0</ele><time>2026-04-11T14:29:45Z</time></trkpt><trkpt lat="43.39725097705217" lon="5.9737572563362304"><ele>261.0</ele><time>2026-04-11T14:29:46Z</time></trkpt><trkpt lat="43.397179153351665" lon="5.9737066311923375"><ele>260.8333333333333</ele><time>2026-04-11T14:29:47Z</time></trkpt><trkpt lat="43.39710087037378" lon="5.973697268946589"><ele>260.6666666666667</ele><time>2026-04-11T14:29:48Z</time></trkpt><trkpt lat="43.39702062318592" lon="5.973726687833196"><ele>260.5</ele><time>2026-04-11T14:29:49Z</time></trkpt><trkpt lat="43.39693719403771" lon="5.973758375347836"><ele>260.33333333333337</ele><time>2026-04-11T14:29:50Z</time></trkpt><trkpt lat="43.39687675530786" lon="5.973789260079439"><ele>260.1666666666667</ele><time>2026-04-11T14:29:51Z</time></trkpt><trkpt lat="43.396761051311024" lon="5.973795936268884"><ele>260.0</ele><time>2026-04-11T14:29:53Z</time></trkpt><trkpt lat="43.39666168855819" lon="5.973751386336124"><ele>260.0</ele><time>2026-04-11T14:29:54Z</time></trkpt><trkpt lat="43.396567768228664" lon="5.973728479117591"><ele>260.0</ele><time>2026-04-11T14:29:55Z</time></trkpt><trkpt lat="43.396416818497904" lon="5.9736912219665035"><ele>260.0</ele><time>2026-04-11T14:29:56Z</time></trkpt><trkpt lat="43.39629410089023" lon="5.973690031713851"><ele>260.0</ele><time>2026-04-11T14:29:57Z</time></trkpt><trkpt lat="43.39616905215386" lon="5.973691648237933"><ele>259.0</ele><time>2026-04-11T14:29:58Z</time></trkpt><trkpt lat="43.396051459047975" lon="5.973715419134706"><ele>258.0</ele><time>2026-04-11T14:29:59Z</time></trkpt><trkpt lat="43.39594021874327" lon="5.97371392106391"><ele>257.0</ele><time>2026-04-11T14:30:00Z</time></trkpt><trkpt lat="43.39583807750915" lon="5.973700358950932"><ele>256.0</ele><time>2026-04-11T14:30:01Z</time></trkpt><trkpt lat="43.3957378907015" lon="5.97369000497902"><ele>255.0</ele><time>2026-04-11T14:30:02Z</time></trkpt><trkpt lat="43.395648522919615" lon="5.973672077763991"><ele>255.0</ele><time>2026-04-11T14:30:03Z</time></trkpt><trkpt lat="43.395564566969846" lon="5.973658739512281"><ele>255.0</ele><time>2026-04-11T14:30:04Z</time></trkpt><trkpt lat="43.395479991211474" lon="5.973642667539714"><ele>255.0</ele><time>2026-04-11T14:30:05Z</time></trkpt><trkpt lat="43.39540533099398" lon="5.9736196581329795"><ele>255.0</ele><time>2026-04-11T14:30:06Z</time></trkpt><trkpt lat="43.395345262992514" lon="5.973579349304122"><ele>255.0</ele><time>2026-04-11T14:30:07Z</time></trkpt><trkpt lat="43.395269282595" lon="5.973461485198195"><ele>255.0</ele><time>2026-04-11T14:30:09Z</time></trkpt><trkpt lat="43.39529588318773" lon="5.973371686893304"><ele>254.6</ele><time>2026-04-11T14:31:20.999Z</time></trkpt><trkpt lat="43.395345546025425" lon="5.973284029070347"><ele>254.2</ele><time>2026-04-11T14:31:21.999Z</time></trkpt><trkpt lat="43.395389356945216" lon="5.973198285887934"><ele>253.8</ele><time>2026-04-11T14:31:22.999Z</time></trkpt><trkpt lat="43.39544357525604" lon="5.973070109956258"><ele>253.4</ele><time>2026-04-11T14:31:23.999Z</time></trkpt><trkpt lat="43.39549612450718" lon="5.9729459552365"><ele>253.0</ele><time>2026-04-11T14:31:24.999Z</time></trkpt><trkpt lat="43.39555767104597" lon="5.972781879098211"><ele>255.0</ele><time>2026-04-11T14:31:25.999Z</time></trkpt><trkpt lat="43.39561279742753" lon="5.972616755868158"><ele>257.0</ele><time>2026-04-11T14:31:26.999Z</time></trkpt><trkpt lat="43.39567519466685" lon="5.972431108136025"><ele>259.0</ele><time>2026-04-11T14:31:27.999Z</time></trkpt><trkpt lat="43.3957445307344" lon="5.972219013546784"><ele>259.66666666666663</ele><time>2026-04-11T14:31:28.999Z</time></trkpt><trkpt lat="43.39580550040169" lon="5.972030021263181"><ele>260.3333333333333</ele><time>2026-04-11T14:31:29.999Z</time></trkpt><trkpt lat="43.39587182519504" lon="5.971847695390672"><ele>261.0</ele><time>2026-04-11T14:31:30.999Z</time></trkpt><trkpt lat="43.395943871674675" lon="5.971639399136181"><ele>261.0</ele><time>2026-04-11T14:31:31.999Z</time></trkpt><trkpt lat="43.396022298949966" lon="5.971400406817204"><ele>261.0</ele><time>2026-04-11T14:31:32.999Z</time></trkpt><trkpt lat="43.39610603864601" lon="5.971159871005285"><ele>261.0</ele><time>2026-04-11T14:31:33.999Z</time></trkpt><trkpt lat="43.39618104002374" lon="5.970912081644037"><ele>261.0</ele><time>2026-04-11T14:31:34.999Z</time></trkpt><trkpt lat="43.39626761771213" lon="5.970649995844597"><ele>261.0</ele><time>2026-04-11T14:31:35.999Z</time></trkpt><trkpt lat="43.39635772943832" lon="5.970375791671693"><ele>261.0</ele><time>2026-04-11T14:31:36.999Z</time></trkpt><trkpt lat="43.39644319270674" lon="5.970131409027635"><ele>259.0</ele><time>2026-04-11T14:31:37.999Z</time></trkpt><trkpt lat="43.39652571274033" lon="5.969886002801435"><ele>257.0</ele><time>2026-04-11T14:31:38.999Z</time></trkpt><trkpt lat="43.39661151475242" lon="5.9696715856116285"><ele>255.0</ele><time>2026-04-11T14:31:39.999Z</time></trkpt><trkpt lat="43.396709995435074" lon="5.9694161872886395"><ele>255.0</ele><time>2026-04-11T14:31:40.999Z</time></trkpt><trkpt lat="43.396816751814185" lon="5.969152373013384"><ele>255.0</ele><time>2026-04-11T14:31:41.999Z</time></trkpt><trkpt lat="43.3969235873707" lon="5.968892932836451"><ele>255.0</ele><time>2026-04-11T14:31:42.999Z</time></trkpt><trkpt lat="43.397025132074205" lon="5.968642367855907"><ele>255.0</ele><time>2026-04-11T14:31:43.999Z</time></trkpt><trkpt lat="43.39711766083313" lon="5.968415229551361"><ele>255.0</ele><time>2026-04-11T14:31:44.999Z</time></trkpt><trkpt lat="43.3972040741486" lon="5.968207101248481"><ele>255.0</ele><time>2026-04-11T14:31:45.999Z</time></trkpt><trkpt lat="43.397284175564124" lon="5.968010640779841"><ele>256.25</ele><time>2026-04-11T14:31:46.999Z</time></trkpt><trkpt lat="43.39735831738737" lon="5.96783271959768"><ele>257.5</ele><time>2026-04-11T14:31:47.999Z</time></trkpt><trkpt lat="43.39742364175709" lon="5.967663212004975"><ele>258.75</ele><time>2026-04-11T14:31:48.999Z</time></trkpt><trkpt lat="43.39748815437284" lon="5.967496797712701"><ele>260.0</ele><time>2026-04-11T14:31:50Z</time></trkpt><trkpt lat="43.39756092646073" lon="5.967317268449849"><ele>260.75</ele><time>2026-04-11T14:31:51Z</time></trkpt><trkpt lat="43.39762956928338" lon="5.967151260050024"><ele>261.5</ele><time>2026-04-11T14:31:52Z</time></trkpt><trkpt lat="43.39769274557089" lon="5.966974585573912"><ele>262.25</ele><time>2026-04-11T14:31:53Z</time></trkpt><trkpt lat="43.397754847701556" lon="5.966774513150076"><ele>263.0</ele><time>2026-04-11T14:31:54Z</time></trkpt><trkpt lat="43.397807800337226" lon="5.9665882277501785"><ele>264.2</ele><time>2026-04-11T14:31:55Z</time></trkpt><trkpt lat="43.3978547208192" lon="5.9664228188300745"><ele>265.4</ele><time>2026-04-11T14:31:56Z</time></trkpt><trkpt lat="43.39789737293928" lon="5.966286653635202"><ele>266.59999999999997</ele><time>2026-04-11T14:31:57Z</time></trkpt><trkpt lat="43.39793017576525" lon="5.9661771232242495"><ele>267.8</ele><time>2026-04-11T14:31:58Z</time></trkpt><trkpt lat="43.397956161473694" lon="5.9660878540618"><ele>269.0</ele><time>2026-04-11T14:31:59Z</time></trkpt><trkpt lat="43.39798418709692" lon="5.966003827647073"><ele>269.0</ele><time>2026-04-11T14:32:01Z</time></trkpt><trkpt lat="43.397924406093495" lon="5.965930389039882"><ele>269.0</ele><time>2026-04-11T14:32:08Z</time></trkpt><trkpt lat="43.39783705732001" lon="5.966000054876808"><ele>269.0</ele><time>2026-04-11T14:32:10Z</time></trkpt><trkpt lat="43.397775363870814" lon="5.966117386566757"><ele>269.0</ele><time>2026-04-11T14:32:11Z</time></trkpt><trkpt lat="43.39772535804343" lon="5.966211257437507"><ele>269.0</ele><time>2026-04-11T14:32:12Z</time></trkpt><trkpt lat="43.397681413574745" lon="5.966329428420015"><ele>269.0</ele><time>2026-04-11T14:32:13Z</time></trkpt><trkpt lat="43.39763328759159" lon="5.9664725869361765"><ele>269.0</ele><time>2026-04-11T14:32:14Z</time></trkpt><trkpt lat="43.39758340220952" lon="5.966576861710783"><ele>269.0</ele><time>2026-04-11T14:32:15Z</time></trkpt><trkpt lat="43.39751975921942" lon="5.966689708109204"><ele>269.0</ele><time>2026-04-11T14:32:16Z</time></trkpt><trkpt lat="43.397449539737075" lon="5.966766135797356"><ele>269.0</ele><time>2026-04-11T14:32:17Z</time></trkpt><trkpt lat="43.39737656844719" lon="5.96680362921717"><ele>268.1666666666667</ele><time>2026-04-11T14:32:18Z</time></trkpt><trkpt lat="43.39730553979781" lon="5.9668078846285715"><ele>267.33333333333337</ele><time>2026-04-11T14:32:19Z</time></trkpt><trkpt lat="43.39723791398592" lon="5.966775554271098"><ele>266.5</ele><time>2026-04-11T14:32:20Z</time></trkpt><trkpt lat="43.3971629685888" lon="5.966711259915727"><ele>265.6666666666667</ele><time>2026-04-11T14:32:21Z</time></trkpt><trkpt lat="43.397076432457204" lon="5.966642756246863"><ele>264.8333333333333</ele><time>2026-04-11T14:32:22Z</time></trkpt><trkpt lat="43.39697358868441" lon="5.966607259969614"><ele>264.0</ele><time>2026-04-11T14:32:23Z</time></trkpt><trkpt lat="43.39689463793554" lon="5.966611406018791"><ele>264.0</ele><time>2026-04-11T14:32:24Z</time></trkpt><trkpt lat="43.39682486902207" lon="5.966629246478652"><ele>264.0</ele><time>2026-04-11T14:32:25Z</time></trkpt><trkpt lat="43.396750683344806" lon="5.966630114485049"><ele>264.0</ele><time>2026-04-11T14:32:26Z</time></trkpt><trkpt lat="43.39663073703591" lon="5.966489512819484"><ele>264.0</ele><time>2026-04-11T14:32:27Z</time></trkpt><trkpt lat="43.3965109363638" lon="5.966357398604786"><ele>264.0</ele><time>2026-04-11T14:32:28Z</time></trkpt><trkpt lat="43.39639185591816" lon="5.9662293477671575"><ele>264.0</ele><time>2026-04-11T14:32:29Z</time></trkpt><trkpt lat="43.396251738455284" lon="5.966095898837084"><ele>264.0</ele><time>2026-04-11T14:32:30Z</time></trkpt><trkpt lat="43.39614362374875" lon="5.965982237031645"><ele>263.4</ele><time>2026-04-11T14:32:31Z</time></trkpt><trkpt lat="43.39607078302262" lon="5.965901791799459"><ele>262.79999999999995</ele><time>2026-04-11T14:32:32Z</time></trkpt><trkpt lat="43.395982214456076" lon="5.9658031343213045"><ele>262.20000000000005</ele><time>2026-04-11T14:32:33Z</time></trkpt><trkpt lat="43.395890912005534" lon="5.965704230853197"><ele>261.6</ele><time>2026-04-11T14:32:34Z</time></trkpt><trkpt lat="43.39579537881819" lon="5.9656023264050395"><ele>261.0</ele><time>2026-04-11T14:32:35Z</time></trkpt><trkpt lat="43.39571030895952" lon="5.965504863877712"><ele>263.0</ele><time>2026-04-11T14:32:36Z</time></trkpt><trkpt lat="43.39563561061408" lon="5.965418255851534"><ele>265.0</ele><time>2026-04-11T14:32:37Z</time></trkpt><trkpt lat="43.39556654143455" lon="5.965329093258066"><ele>267.0</ele><time>2026-04-11T14:32:38Z</time></trkpt><trkpt lat="43.39550509337238" lon="5.965242953703366"><ele>269.0</ele><time>2026-04-11T14:32:40Z</time></trkpt><trkpt lat="43.39560669186989" lon="5.965281060894488"><ele>271.0</ele><time>2026-04-11T14:32:59Z</time></trkpt><trkpt lat="43.395599839724376" lon="5.965149346585912"><ele>271.0</ele><time>2026-04-11T14:33:01Z</time></trkpt><trkpt lat="43.39566601064106" lon="5.965045359953687"><ele>271.0</ele><time>2026-04-11T14:33:03Z</time></trkpt><trkpt lat="43.395725586249746" lon="5.964966980411935"><ele>271.0</ele><time>2026-04-11T14:33:04Z</time></trkpt><trkpt lat="43.39578283292757" lon="5.964879350273257"><ele>271.0</ele><time>2026-04-11T14:33:05Z</time></trkpt><trkpt lat="43.39584726950114" lon="5.964781231023596"><ele>271.0</ele><time>2026-04-11T14:33:06Z</time></trkpt><trkpt lat="43.395916231770144" lon="5.964671836521235"><ele>273.8</ele><time>2026-04-11T14:33:06.999Z</time></trkpt><trkpt lat="43.395984044497936" lon="5.964571231945845"><ele>276.6</ele><time>2026-04-11T14:33:07.999Z</time></trkpt><trkpt lat="43.396051495167775" lon="5.96448111630814"><ele>279.4</ele><time>2026-04-11T14:33:08.999Z</time></trkpt><trkpt lat="43.396114088109314" lon="5.964380779888488"><ele>282.2</ele><time>2026-04-11T14:33:09.999Z</time></trkpt><trkpt lat="43.396168763085754" lon="5.964288624888338"><ele>285.0</ele><time>2026-04-11T14:33:10.999Z</time></trkpt><trkpt lat="43.39622529408784" lon="5.9641895317061095"><ele>287.2</ele><time>2026-04-11T14:33:11.999Z</time></trkpt><trkpt lat="43.396295673367916" lon="5.964088133105576"><ele>289.4</ele><time>2026-04-11T14:33:12.999Z</time></trkpt><trkpt lat="43.396364157340855" lon="5.963978930824975"><ele>291.6</ele><time>2026-04-11T14:33:13.999Z</time></trkpt><trkpt lat="43.39642597838438" lon="5.963880929888043"><ele>293.8</ele><time>2026-04-11T14:33:14.999Z</time></trkpt><trkpt lat="43.39649013727748" lon="5.963729181856499"><ele>296.0</ele><time>2026-04-11T14:33:16.999Z</time></trkpt><trkpt lat="43.39653435270844" lon="5.9636312620878975"><ele>297.7142857142857</ele><time>2026-04-11T14:33:17.999Z</time></trkpt><trkpt lat="43.396582362129884" lon="5.9635746251630835"><ele>299.42857142857144</ele><time>2026-04-11T14:33:18.999Z</time></trkpt><trkpt lat="43.39663871695893" lon="5.963526301387338"><ele>301.1428571428571</ele><time>2026-04-11T14:33:19.999Z</time></trkpt><trkpt lat="43.39669539785831" lon="5.963460940590217"><ele>302.8571428571429</ele><time>2026-04-11T14:33:20.999Z</time></trkpt><trkpt lat="43.3967436549018" lon="5.963380386916315"><ele>304.57142857142856</ele><time>2026-04-11T14:33:21.999Z</time></trkpt><trkpt lat="43.396791351925316" lon="5.963300260709427"><ele>306.2857142857143</ele><time>2026-04-11T14:33:22.999Z</time></trkpt><trkpt lat="43.39684448860024" lon="5.963221716379237"><ele>308.0</ele><time>2026-04-11T14:33:23.999Z</time></trkpt><trkpt lat="43.396892632629736" lon="5.963150532325874"><ele>308.57142857142856</ele><time>2026-04-11T14:33:24.999Z</time></trkpt><trkpt lat="43.39693832489959" lon="5.963080285643061"><ele>309.1428571428571</ele><time>2026-04-11T14:33:25.999Z</time></trkpt><trkpt lat="43.396985120089056" lon="5.963003559539035"><ele>309.7142857142857</ele><time>2026-04-11T14:33:26.999Z</time></trkpt><trkpt lat="43.397033050200264" lon="5.9629248650615585"><ele>310.2857142857143</ele><time>2026-04-11T14:33:27.999Z</time></trkpt><trkpt lat="43.39708101204615" lon="5.962854029851175"><ele>310.85714285714283</ele><time>2026-04-11T14:33:28.999Z</time></trkpt><trkpt lat="43.39712764905845" lon="5.9627921725112465"><ele>311.42857142857144</ele><time>2026-04-11T14:33:29.999Z</time></trkpt><trkpt lat="43.39717251766866" lon="5.962728833883085"><ele>312.0</ele><time>2026-04-11T14:33:30.999Z</time></trkpt><trkpt lat="43.39721443400086" lon="5.9626638436496995"><ele>309.0</ele><time>2026-04-11T14:33:31.999Z</time></trkpt><trkpt lat="43.3972965632524" lon="5.962550114076403"><ele>306.0</ele><time>2026-04-11T14:33:33.999Z</time></trkpt><trkpt lat="43.397348419973696" lon="5.962478016957715"><ele>303.0</ele><time>2026-04-11T14:33:34.999Z</time></trkpt><trkpt lat="43.397400788612195" lon="5.962395536411341"><ele>300.0</ele><time>2026-04-11T14:33:35.999Z</time></trkpt><trkpt lat="43.39746130710551" lon="5.962316511510763"><ele>297.0</ele><time>2026-04-11T14:33:36.999Z</time></trkpt><trkpt lat="43.39750961631825" lon="5.962231514075824"><ele>294.0</ele><time>2026-04-11T14:33:37.999Z</time></trkpt><trkpt lat="43.397561590244834" lon="5.962139274407323"><ele>294.0</ele><time>2026-04-11T14:33:38.999Z</time></trkpt><trkpt lat="43.39761409544963" lon="5.962067802533172"><ele>294.0</ele><time>2026-04-11T14:33:39.999Z</time></trkpt><trkpt lat="43.39768817396471" lon="5.961981392033352"><ele>294.0</ele><time>2026-04-11T14:33:41.999Z</time></trkpt><trkpt lat="43.39772016843307" lon="5.961896906526343"><ele>294.0</ele><time>2026-04-11T14:33:43.999Z</time></trkpt><trkpt lat="43.39779732911508" lon="5.961805641079602"><ele>294.0</ele><time>2026-04-11T14:33:45.999Z</time></trkpt><trkpt lat="43.39788049630528" lon="5.961703119993303"><ele>294.0</ele><time>2026-04-11T14:33:47.999Z</time></trkpt><trkpt lat="43.397928675487705" lon="5.961626086298482"><ele>294.0</ele><time>2026-04-11T14:33:48.999Z</time></trkpt><trkpt lat="43.39798578139616" lon="5.96151388160089"><ele>294.0</ele><time>2026-04-11T14:33:49.999Z</time></trkpt><trkpt lat="43.398050834875924" lon="5.961404547369148"><ele>294.0</ele><time>2026-04-11T14:33:50.999Z</time></trkpt><trkpt lat="43.398105102346804" lon="5.961317583345188"><ele>294.0</ele><time>2026-04-11T14:33:51.999Z</time></trkpt><trkpt lat="43.39815875635664" lon="5.961230848562209"><ele>294.0</ele><time>2026-04-11T14:33:52.999Z</time></trkpt><trkpt lat="43.398214345263376" lon="5.961147775423512"><ele>294.0</ele><time>2026-04-11T14:33:53.999Z</time></trkpt><trkpt lat="43.39829081189393" lon="5.961064607322012"><ele>294.0</ele><time>2026-04-11T14:33:54.999Z</time></trkpt><trkpt lat="43.39835972699903" lon="5.9609501838802315"><ele>294.0</ele><time>2026-04-11T14:33:56Z</time></trkpt><trkpt lat="43.398398816311776" lon="5.960879813746788"><ele>294.0</ele><time>2026-04-11T14:33:57Z</time></trkpt><trkpt lat="43.39846214444105" lon="5.960803941057171"><ele>294.0</ele><time>2026-04-11T14:33:58Z</time></trkpt><trkpt lat="43.39852092091517" lon="5.960718859856086"><ele>294.0</ele><time>2026-04-11T14:33:59Z</time></trkpt><trkpt lat="43.398580646829934" lon="5.960609162741709"><ele>294.0</ele><time>2026-04-11T14:34:00Z</time></trkpt><trkpt lat="43.39865565456845" lon="5.960486490364306"><ele>294.0</ele><time>2026-04-11T14:34:01Z</time></trkpt><trkpt lat="43.398718941944004" lon="5.960397843466618"><ele>294.0</ele><time>2026-04-11T14:34:02Z</time></trkpt><trkpt lat="43.39876379071766" lon="5.960332201541341"><ele>294.0</ele><time>2026-04-11T14:34:03Z</time></trkpt><trkpt lat="43.39881514816101" lon="5.960265264278137"><ele>294.0</ele><time>2026-04-11T14:34:04Z</time></trkpt><trkpt lat="43.39886180891465" lon="5.960182336590627"><ele>294.0</ele><time>2026-04-11T14:34:05Z</time></trkpt><trkpt lat="43.39893376837728" lon="5.96004596903763"><ele>295.5</ele><time>2026-04-11T14:34:07Z</time></trkpt><trkpt lat="43.399014754120955" lon="5.959957600315042"><ele>297.0</ele><time>2026-04-11T14:34:09Z</time></trkpt><trkpt lat="43.399092119062246" lon="5.959872933185741"><ele>298.5</ele><time>2026-04-11T14:34:11Z</time></trkpt><trkpt lat="43.399134829736475" lon="5.959793238642694"><ele>300.0</ele><time>2026-04-11T14:34:12Z</time></trkpt><trkpt lat="43.399177098160855" lon="5.9597112126958"><ele>301.5</ele><time>2026-04-11T14:34:13Z</time></trkpt><trkpt lat="43.399221869526286" lon="5.959628620811532"><ele>303.0</ele><time>2026-04-11T14:34:14Z</time></trkpt><trkpt lat="43.39918116289749" lon="5.959561823603302"><ele>303.0</ele><time>2026-04-11T14:34:17Z</time></trkpt><trkpt lat="43.39913052679471" lon="5.959435686094644"><ele>303.0</ele><time>2026-04-11T14:34:19Z</time></trkpt><trkpt lat="43.39909902423188" lon="5.959355032986089"><ele>303.0</ele><time>2026-04-11T14:34:20Z</time></trkpt><trkpt lat="43.3990694078563" lon="5.959274210113606"><ele>303.0</ele><time>2026-04-11T14:34:21Z</time></trkpt><trkpt lat="43.39906013362189" lon="5.959090181769274"><ele>303.0</ele><time>2026-04-11T14:34:23Z</time></trkpt><trkpt lat="43.399058224146316" lon="5.958989558305427"><ele>303.0</ele><time>2026-04-11T14:34:24Z</time></trkpt><trkpt lat="43.399055590068684" lon="5.958881927270647"><ele>304.8</ele><time>2026-04-11T14:34:25Z</time></trkpt><trkpt lat="43.39900053774635" lon="5.958731131086463"><ele>306.6</ele><time>2026-04-11T14:34:27Z</time></trkpt><trkpt lat="43.39896967583049" lon="5.958641474778023"><ele>308.4</ele><time>2026-04-11T14:34:28Z</time></trkpt><trkpt lat="43.398921943321504" lon="5.9585197167154185"><ele>310.2</ele><time>2026-04-11T14:34:29Z</time></trkpt><trkpt lat="43.398893239321765" lon="5.9584118237610255"><ele>312.0</ele><time>2026-04-11T14:34:30Z</time></trkpt><trkpt lat="43.398867299081296" lon="5.9583093301642425"><ele>313.0</ele><time>2026-04-11T14:34:31Z</time></trkpt><trkpt lat="43.39885007595006" lon="5.958208473629037"><ele>314.0</ele><time>2026-04-11T14:34:32Z</time></trkpt><trkpt lat="43.39882473410476" lon="5.9580987686206885"><ele>315.0</ele><time>2026-04-11T14:34:33Z</time></trkpt><trkpt lat="43.398782801447176" lon="5.958004837812673"><ele>316.0</ele><time>2026-04-11T14:34:34Z</time></trkpt><trkpt lat="43.39873473334886" lon="5.957930254719679"><ele>317.0</ele><time>2026-04-11T14:34:35Z</time></trkpt><trkpt lat="43.39867854746442" lon="5.957750061986276"><ele>318.1666666666667</ele><time>2026-04-11T14:34:37Z</time></trkpt><trkpt lat="43.398642528790916" lon="5.957635771058992"><ele>319.33333333333337</ele><time>2026-04-11T14:34:38Z</time></trkpt><trkpt lat="43.39860811336107" lon="5.957527959379972"><ele>320.5</ele><time>2026-04-11T14:34:39Z</time></trkpt><trkpt lat="43.3985806133861" lon="5.957422889103785"><ele>321.6666666666667</ele><time>2026-04-11T14:34:40Z</time></trkpt><trkpt lat="43.39855936480412" lon="5.957323840954082"><ele>322.8333333333333</ele><time>2026-04-11T14:34:41Z</time></trkpt><trkpt lat="43.39854758474312" lon="5.957228645020103"><ele>324.0</ele><time>2026-04-11T14:34:43Z</time></trkpt><trkpt lat="43.39846774422762" lon="5.957172086301483"><ele>327.0</ele><time>2026-04-11T14:34:45Z</time></trkpt><trkpt lat="43.398418749684964" lon="5.9570976709606756"><ele>330.0</ele><time>2026-04-11T14:34:47Z</time></trkpt><trkpt lat="43.39842723532917" lon="5.956970315684767"><ele>333.0</ele><time>2026-04-11T14:34:49Z</time></trkpt><trkpt lat="43.39839200396326" lon="5.956665965946745"><ele>336.0</ele><time>2026-04-11T14:34:51Z</time></trkpt><trkpt lat="43.39836986461664" lon="5.956506230601032"><ele>339.25</ele><time>2026-04-11T14:34:52Z</time></trkpt><trkpt lat="43.39834834246015" lon="5.956314431419043"><ele>342.5</ele><time>2026-04-11T14:34:53Z</time></trkpt><trkpt lat="43.39833621124171" lon="5.956157300339191"><ele>345.75</ele><time>2026-04-11T14:34:54Z</time></trkpt><trkpt lat="43.39825220734751" lon="5.956033237863786"><ele>349.0</ele><time>2026-04-11T14:34:56Z</time></trkpt><trkpt lat="43.398145975362795" lon="5.955969153346678"><ele>349.0</ele><time>2026-04-11T14:34:58Z</time></trkpt><trkpt lat="43.398038073716805" lon="5.955894890641502"><ele>349.0</ele><time>2026-04-11T14:34:59Z</time></trkpt><trkpt lat="43.39792321811278" lon="5.95580733267049"><ele>349.0</ele><time>2026-04-11T14:35:00Z</time></trkpt><trkpt lat="43.39784905577582" lon="5.955736799243146"><ele>349.0</ele><time>2026-04-11T14:35:01Z</time></trkpt><trkpt lat="43.39780793634132" lon="5.955633177959158"><ele>349.0</ele><time>2026-04-11T14:35:02.999Z</time></trkpt><trkpt lat="43.39777483328703" lon="5.955530014893414"><ele>350.5</ele><time>2026-04-11T14:35:03.999Z</time></trkpt><trkpt lat="43.397730314496364" lon="5.955447367155528"><ele>352.0</ele><time>2026-04-11T14:35:04.999Z</time></trkpt><trkpt lat="43.397668180247" lon="5.955430836020171"><ele>353.5</ele><time>2026-04-11T14:35:05.999Z</time></trkpt><trkpt lat="43.39763094258623" lon="5.9553575847121945"><ele>355.0</ele><time>2026-04-11T14:35:06.999Z</time></trkpt><trkpt lat="43.397600074800614" lon="5.955266375544391"><ele>356.5</ele><time>2026-04-11T14:35:07.999Z</time></trkpt><trkpt lat="43.39754414270396" lon="5.955197250623404"><ele>358.0</ele><time>2026-04-11T14:35:08.999Z</time></trkpt><trkpt lat="43.397434110357274" lon="5.955054858153948"><ele>357.5</ele><time>2026-04-11T14:35:10.999Z</time></trkpt><trkpt lat="43.397374224934" lon="5.9549525361042335"><ele>357.0</ele><time>2026-04-11T14:35:11.999Z</time></trkpt><trkpt lat="43.39730084014155" lon="5.954782125805791"><ele>356.5</ele><time>2026-04-11T14:35:12.999Z</time></trkpt><trkpt lat="43.39723490322827" lon="5.9546337378960725"><ele>356.0</ele><time>2026-04-11T14:35:13.999Z</time></trkpt><trkpt lat="43.39718267840912" lon="5.954473986253636"><ele>356.0</ele><time>2026-04-11T14:35:15.999Z</time></trkpt><trkpt lat="43.39716952243026" lon="5.954336210039226"><ele>356.0</ele><time>2026-04-11T14:35:17.999Z</time></trkpt><trkpt lat="43.39716426365507" lon="5.954235592026761"><ele>356.0</ele><time>2026-04-11T14:35:18.999Z</time></trkpt><trkpt lat="43.39715425224392" lon="5.954123177903956"><ele>356.0</ele><time>2026-04-11T14:35:19.999Z</time></trkpt><trkpt lat="43.39714047605308" lon="5.9540318129347565"><ele>356.0</ele><time>2026-04-11T14:35:20.999Z</time></trkpt><trkpt lat="43.39712842020117" lon="5.953938798229497"><ele>356.0</ele><time>2026-04-11T14:35:21.999Z</time></trkpt><trkpt lat="43.397136433240995" lon="5.953839720083419"><ele>358.6</ele><time>2026-04-11T14:35:22.999Z</time></trkpt><trkpt lat="43.39712544769267" lon="5.9537453917017915"><ele>361.20000000000005</ele><time>2026-04-11T14:35:23.999Z</time></trkpt><trkpt lat="43.39710226466857" lon="5.953582967521778"><ele>363.79999999999995</ele><time>2026-04-11T14:35:24.999Z</time></trkpt><trkpt lat="43.39708718109087" lon="5.953434085513542"><ele>366.4</ele><time>2026-04-11T14:35:25.999Z</time></trkpt><trkpt lat="43.39706700182531" lon="5.953286219180027"><ele>369.0</ele><time>2026-04-11T14:35:26.999Z</time></trkpt><trkpt lat="43.39705417847464" lon="5.95317528268952"><ele>369.0</ele><time>2026-04-11T14:35:27.999Z</time></trkpt><trkpt lat="43.39705572922268" lon="5.953076525829977"><ele>369.0</ele><time>2026-04-11T14:35:29.999Z</time></trkpt><trkpt lat="43.39698920474874" lon="5.952968879158171"><ele>369.0</ele><time>2026-04-11T14:35:31.999Z</time></trkpt><trkpt lat="43.39693782780544" lon="5.952864205528753"><ele>369.0</ele><time>2026-04-11T14:35:33.999Z</time></trkpt><trkpt lat="43.39694321869692" lon="5.952770488564731"><ele>369.0</ele><time>2026-04-11T14:35:34.999Z</time></trkpt><trkpt lat="43.396862122276886" lon="5.952640104410098"><ele>369.0</ele><time>2026-04-11T14:35:36.999Z</time></trkpt><trkpt lat="43.39679814804562" lon="5.952557782216586"><ele>369.0</ele><time>2026-04-11T14:35:37.999Z</time></trkpt><trkpt lat="43.39673630853949" lon="5.952470228730818"><ele>369.0</ele><time>2026-04-11T14:35:38.999Z</time></trkpt><trkpt lat="43.39669541563406" lon="5.952355489958611"><ele>369.0</ele><time>2026-04-11T14:35:40.999Z</time></trkpt><trkpt lat="43.396659016780006" lon="5.95222977100585"><ele>369.0</ele><time>2026-04-11T14:35:42.999Z</time></trkpt><trkpt lat="43.39662603914016" lon="5.95213756193972"><ele>369.0</ele><time>2026-04-11T14:35:43.999Z</time></trkpt><trkpt lat="43.39659405887949" lon="5.952058135109046"><ele>368.6</ele><time>2026-04-11T14:35:44.999Z</time></trkpt><trkpt lat="43.396516102608814" lon="5.9519356291409995"><ele>368.2</ele><time>2026-04-11T14:35:46.999Z</time></trkpt><trkpt lat="43.39646348132089" lon="5.951858514714948"><ele>367.8</ele><time>2026-04-11T14:35:47.999Z</time></trkpt><trkpt lat="43.39645774209361" lon="5.95174670655876"><ele>367.40000000000003</ele><time>2026-04-11T14:35:49.999Z</time></trkpt><trkpt lat="43.396514807175336" lon="5.951599688945649"><ele>367.0</ele><time>2026-04-11T14:35:51.999Z</time></trkpt><trkpt lat="43.39656463094064" lon="5.951521446935946"><ele>366.8</ele><time>2026-04-11T14:35:55.999Z</time></trkpt><trkpt lat="43.39650816193475" lon="5.951382108573501"><ele>366.6</ele><time>2026-04-11T14:35:57.999Z</time></trkpt><trkpt lat="43.396465750041585" lon="5.9512686652841005"><ele>366.40000000000003</ele><time>2026-04-11T14:35:58.999Z</time></trkpt><trkpt lat="43.39639315108745" lon="5.9511920955794535"><ele>366.20000000000005</ele><time>2026-04-11T14:36:00.999Z</time></trkpt><trkpt lat="43.39638274183062" lon="5.951033978635359"><ele>366.0</ele><time>2026-04-11T14:36:03Z</time></trkpt><trkpt lat="43.396374277442185" lon="5.950895965882114"><ele>366.3333333333333</ele><time>2026-04-11T14:36:04Z</time></trkpt><trkpt lat="43.39631147509379" lon="5.950853801436013"><ele>366.6666666666667</ele><time>2026-04-11T14:36:06Z</time></trkpt><trkpt lat="43.39623402035356" lon="5.950923017797286"><ele>367.0</ele><time>2026-04-11T14:36:07Z</time></trkpt><trkpt lat="43.39612174450404" lon="5.950942290005879"><ele>367.33333333333337</ele><time>2026-04-11T14:36:08Z</time></trkpt><trkpt lat="43.3960508284667" lon="5.950921135044656"><ele>367.6666666666667</ele><time>2026-04-11T14:36:09Z</time></trkpt><trkpt lat="43.395991033395745" lon="5.9508537104436785"><ele>368.0</ele><time>2026-04-11T14:36:11Z</time></trkpt><trkpt lat="43.39597004895576" lon="5.950709431812126"><ele>368.2</ele><time>2026-04-11T14:36:13Z</time></trkpt><trkpt lat="43.395891041693915" lon="5.950713447791591"><ele>368.4</ele><time>2026-04-11T14:36:15Z</time></trkpt><trkpt lat="43.39581583992519" lon="5.950743749515868"><ele>368.59999999999997</ele><time>2026-04-11T14:36:18Z</time></trkpt><trkpt lat="43.39572608128754" lon="5.950836331553205"><ele>368.79999999999995</ele><time>2026-04-11T14:36:20Z</time></trkpt><trkpt lat="43.39565409789392" lon="5.950835423899759"><ele>369.0</ele><time>2026-04-11T14:36:21Z</time></trkpt><trkpt lat="43.39554275750444" lon="5.9508311291767635"><ele>368.85714285714283</ele><time>2026-04-11T14:36:23Z</time></trkpt><trkpt lat="43.39548517645802" lon="5.950794235534335"><ele>368.71428571428567</ele><time>2026-04-11T14:36:24Z</time></trkpt><trkpt lat="43.39543004173232" lon="5.950735284021642"><ele>368.57142857142856</ele><time>2026-04-11T14:36:25Z</time></trkpt><trkpt lat="43.39537577441959" lon="5.950675956783389"><ele>368.42857142857144</ele><time>2026-04-11T14:36:26Z</time></trkpt><trkpt lat="43.395322741679735" lon="5.950600010732643"><ele>368.2857142857143</ele><time>2026-04-11T14:36:28Z</time></trkpt><trkpt lat="43.395291552388024" lon="5.9505109010169965"><ele>368.14285714285717</ele><time>2026-04-11T14:36:31Z</time></trkpt><trkpt lat="43.39527762478717" lon="5.950406769740604"><ele>368.0</ele><time>2026-04-11T14:36:32Z</time></trkpt><trkpt lat="43.39528073749799" lon="5.950279110299426"><ele>368.0</ele><time>2026-04-11T14:36:33Z</time></trkpt><trkpt lat="43.3952087085728" lon="5.9502179577662595"><ele>368.0</ele><time>2026-04-11T14:36:36Z</time></trkpt><trkpt lat="43.39523381474451" lon="5.950362784033549"><ele>368.0</ele><time>2026-04-11T14:36:38Z</time></trkpt><trkpt lat="43.39518947268225" lon="5.950294643412151"><ele>368.0</ele><time>2026-04-11T14:36:40Z</time></trkpt><trkpt lat="43.39517632418195" lon="5.95020127433976"><ele>368.0</ele><time>2026-04-11T14:36:42Z</time></trkpt><trkpt lat="43.3951345615106" lon="5.95010984253543"><ele>368.0</ele><time>2026-04-11T14:36:44Z</time></trkpt><trkpt lat="43.395054785560745" lon="5.9501304724194615"><ele>368.1666666666667</ele><time>2026-04-11T14:36:46Z</time></trkpt><trkpt lat="43.39498594788385" lon="5.950031470015481"><ele>368.33333333333337</ele><time>2026-04-11T14:36:48Z</time></trkpt><trkpt lat="43.39494772170323" lon="5.949948263735564"><ele>368.5</ele><time>2026-04-11T14:36:49Z</time></trkpt><trkpt lat="43.394941806664185" lon="5.949796418920364"><ele>368.6666666666667</ele><time>2026-04-11T14:36:52Z</time></trkpt><trkpt lat="43.39494948174082" lon="5.9497015157526"><ele>368.8333333333333</ele><time>2026-04-11T14:36:54Z</time></trkpt><trkpt lat="43.39491585470348" lon="5.949626558504248"><ele>369.0</ele><time>2026-04-11T14:36:55Z</time></trkpt><trkpt lat="43.394753168879944" lon="5.949379335865274"><ele>369.0</ele><time>2026-04-11T14:36:57Z</time></trkpt><trkpt lat="43.39469699721899" lon="5.949325624579781"><ele>369.0</ele><time>2026-04-11T14:36:58Z</time></trkpt><trkpt lat="43.394664403627026" lon="5.949244050171114"><ele>369.0</ele><time>2026-04-11T14:36:59Z</time></trkpt><trkpt lat="43.394596666833976" lon="5.94913178909751"><ele>369.0</ele><time>2026-04-11T14:37:00.999Z</time></trkpt><trkpt lat="43.39455447247145" lon="5.949000860750544"><ele>369.0</ele><time>2026-04-11T14:37:02.999Z</time></trkpt><trkpt lat="43.39446823851649" lon="5.948887739717443"><ele>369.8333333333333</ele><time>2026-04-11T14:37:04.999Z</time></trkpt><trkpt lat="43.394414142123686" lon="5.948787527105579"><ele>370.6666666666667</ele><time>2026-04-11T14:37:06.999Z</time></trkpt><trkpt lat="43.39434825730158" lon="5.948728779894634"><ele>371.5</ele><time>2026-04-11T14:37:09.999Z</time></trkpt><trkpt lat="43.39428901085458" lon="5.9486588363434185"><ele>372.33333333333337</ele><time>2026-04-11T14:37:10.999Z</time></trkpt><trkpt lat="43.394244265290865" lon="5.948576302926168"><ele>373.1666666666667</ele><time>2026-04-11T14:37:11.999Z</time></trkpt><trkpt lat="43.3941801046855" lon="5.9484787624074125"><ele>374.0</ele><time>2026-04-11T14:37:12.999Z</time></trkpt><trkpt lat="43.394132403347875" lon="5.94840238644601"><ele>373.79999999999995</ele><time>2026-04-11T14:37:13.999Z</time></trkpt><trkpt lat="43.39409249964993" lon="5.948266187054933"><ele>373.59999999999997</ele><time>2026-04-11T14:37:15.999Z</time></trkpt><trkpt lat="43.39404848460386" lon="5.948163157647981"><ele>373.4</ele><time>2026-04-11T14:37:17.999Z</time></trkpt><trkpt lat="43.39407446876902" lon="5.948077253938577"><ele>373.2</ele><time>2026-04-11T14:37:20.999Z</time></trkpt><trkpt lat="43.39402549379676" lon="5.947923389118102"><ele>373.0</ele><time>2026-04-11T14:37:22.999Z</time></trkpt><trkpt lat="43.39400739447752" lon="5.947831838360414"><ele>373.0</ele><time>2026-04-11T14:37:23.999Z</time></trkpt><trkpt lat="43.39406516812726" lon="5.947676511950829"><ele>373.0</ele><time>2026-04-11T14:37:24.999Z</time></trkpt><trkpt lat="43.39416412878601" lon="5.94768417331876"><ele>373.0</ele><time>2026-04-11T14:37:26.999Z</time></trkpt><trkpt lat="43.394233806807996" lon="5.94765337485276"><ele>373.0</ele><time>2026-04-11T14:37:27.999Z</time></trkpt><trkpt lat="43.3943053275342" lon="5.947605628733279"><ele>373.0</ele><time>2026-04-11T14:37:29.999Z</time></trkpt><trkpt lat="43.39434814913029" lon="5.947483735745038"><ele>373.4</ele><time>2026-04-11T14:37:31.999Z</time></trkpt><trkpt lat="43.394428189742605" lon="5.947462471613712"><ele>373.79999999999995</ele><time>2026-04-11T14:37:33.999Z</time></trkpt><trkpt lat="43.39450624471855" lon="5.9473771589663595"><ele>374.2</ele><time>2026-04-11T14:37:35.999Z</time></trkpt><trkpt lat="43.394545073197484" lon="5.94724698643065"><ele>374.6</ele><time>2026-04-11T14:37:37.999Z</time></trkpt><trkpt lat="43.39460264892316" lon="5.947144022076477"><ele>375.0</ele><time>2026-04-11T14:37:39.999Z</time></trkpt><trkpt lat="43.39461042400951" lon="5.947040582876614"><ele>375.0</ele><time>2026-04-11T14:37:41.999Z</time></trkpt><trkpt lat="43.394597554121034" lon="5.946954942788677"><ele>375.0</ele><time>2026-04-11T14:37:42.999Z</time></trkpt><trkpt lat="43.39458419146125" lon="5.9468530901530094"><ele>375.0</ele><time>2026-04-11T14:37:43.999Z</time></trkpt><trkpt lat="43.3945669675259" lon="5.946755769091469"><ele>375.0</ele><time>2026-04-11T14:37:44.999Z</time></trkpt><trkpt lat="43.39454061489053" lon="5.94667187921869"><ele>375.0</ele><time>2026-04-11T14:37:45.999Z</time></trkpt><trkpt lat="43.39450721518158" lon="5.946543355393733"><ele>375.0</ele><time>2026-04-11T14:37:46.999Z</time></trkpt><trkpt lat="43.39447130885706" lon="5.946409974286682"><ele>375.6666666666667</ele><time>2026-04-11T14:37:47.999Z</time></trkpt><trkpt lat="43.39445827989219" lon="5.946298095506466"><ele>376.3333333333333</ele><time>2026-04-11T14:37:48.999Z</time></trkpt><trkpt lat="43.394474993862985" lon="5.946212845281904"><ele>377.0</ele><time>2026-04-11T14:37:49.999Z</time></trkpt><trkpt lat="43.39448624401174" lon="5.946125845964792"><ele>377.66666666666663</ele><time>2026-04-11T14:37:50.999Z</time></trkpt><trkpt lat="43.3944725320964" lon="5.9459980948897675"><ele>378.3333333333333</ele><time>2026-04-11T14:37:52.999Z</time></trkpt><trkpt lat="43.394404001787855" lon="5.94591695471986"><ele>379.0</ele><time>2026-04-11T14:37:54.999Z</time></trkpt><trkpt lat="43.39433096225254" lon="5.945829528676767"><ele>379.4</ele><time>2026-04-11T14:38:40Z</time></trkpt><trkpt lat="43.39425356079921" lon="5.9457538622549455"><ele>379.79999999999995</ele><time>2026-04-11T14:38:41Z</time></trkpt><trkpt lat="43.3941671464042" lon="5.945651377909637"><ele>380.20000000000005</ele><time>2026-04-11T14:38:42Z</time></trkpt><trkpt lat="43.39409529655538" lon="5.945534013113464"><ele>380.6</ele><time>2026-04-11T14:38:43Z</time></trkpt><trkpt lat="43.394027376660816" lon="5.945495689216128"><ele>381.0</ele><time>2026-04-11T14:38:44Z</time></trkpt><trkpt lat="43.393972341058024" lon="5.945439188964362"><ele>381.0</ele><time>2026-04-11T14:38:45Z</time></trkpt><trkpt lat="43.39391508669158" lon="5.94538349257513"><ele>381.0</ele><time>2026-04-11T14:38:46Z</time></trkpt><trkpt lat="43.393830113121695" lon="5.945348882600781"><ele>381.0</ele><time>2026-04-11T14:38:47Z</time></trkpt><trkpt lat="43.39372653584269" lon="5.945270306631902"><ele>381.0</ele><time>2026-04-11T14:38:48Z</time></trkpt><trkpt lat="43.39360213908773" lon="5.945179012111719"><ele>381.0</ele><time>2026-04-11T14:38:49Z</time></trkpt><trkpt lat="43.39345041816287" lon="5.945031858669416"><ele>381.3333333333333</ele><time>2026-04-11T14:38:50Z</time></trkpt><trkpt lat="43.39330938668804" lon="5.944863769746918"><ele>381.66666666666663</ele><time>2026-04-11T14:38:51Z</time></trkpt><trkpt lat="43.39318970152355" lon="5.944709484630234"><ele>382.0</ele><time>2026-04-11T14:38:52Z</time></trkpt><trkpt lat="43.393094414849905" lon="5.944552524011974"><ele>382.0</ele><time>2026-04-11T14:38:53Z</time></trkpt><trkpt lat="43.39302626740033" lon="5.944388392292115"><ele>382.0</ele><time>2026-04-11T14:38:54Z</time></trkpt><trkpt lat="43.39297491592358" lon="5.944221343052853"><ele>382.0</ele><time>2026-04-11T14:38:55Z</time></trkpt><trkpt lat="43.392910886943106" lon="5.944090648295505"><ele>382.0</ele><time>2026-04-11T14:38:56Z</time></trkpt><trkpt lat="43.392797829100196" lon="5.943982523298096"><ele>380.66666666666663</ele><time>2026-04-11T14:38:57Z</time></trkpt><trkpt lat="43.39266630509268" lon="5.943893269018736"><ele>379.3333333333333</ele><time>2026-04-11T14:38:58Z</time></trkpt><trkpt lat="43.392499633982716" lon="5.943827940968108"><ele>378.0</ele><time>2026-04-11T14:38:59Z</time></trkpt><trkpt lat="43.392358464072" lon="5.943775782374284"><ele>378.0</ele><time>2026-04-11T14:38:59.999Z</time></trkpt><trkpt lat="43.39222900175942" lon="5.943731052478849"><ele>378.0</ele><time>2026-04-11T14:39:00.999Z</time></trkpt><trkpt lat="43.39211480156908" lon="5.94365459723198"><ele>378.0</ele><time>2026-04-11T14:39:01.999Z</time></trkpt><trkpt lat="43.39199099907431" lon="5.94357402217903"><ele>378.0</ele><time>2026-04-11T14:39:02.999Z</time></trkpt><trkpt lat="43.39188171305378" lon="5.943496788758613"><ele>377.4</ele><time>2026-04-11T14:39:03.999Z</time></trkpt><trkpt lat="43.391776454702324" lon="5.943416249883755"><ele>376.79999999999995</ele><time>2026-04-11T14:39:04.999Z</time></trkpt><trkpt lat="43.39167553895209" lon="5.943344754335521"><ele>376.2</ele><time>2026-04-11T14:39:05.999Z</time></trkpt><trkpt lat="43.391587595438935" lon="5.9432922379507485"><ele>375.6</ele><time>2026-04-11T14:39:06.999Z</time></trkpt><trkpt lat="43.391525306637405" lon="5.943215093014587"><ele>375.0</ele><time>2026-04-11T14:39:07.999Z</time></trkpt><trkpt lat="43.39147492264114" lon="5.943113935952429"><ele>375.0</ele><time>2026-04-11T14:39:08.999Z</time></trkpt><trkpt lat="43.39143122076637" lon="5.942964103133685"><ele>375.0</ele><time>2026-04-11T14:39:09.999Z</time></trkpt><trkpt lat="43.39138868704889" lon="5.942780233315234"><ele>375.0</ele><time>2026-04-11T14:39:10.999Z</time></trkpt><trkpt lat="43.39135434890923" lon="5.942554091602126"><ele>375.0</ele><time>2026-04-11T14:39:11.999Z</time></trkpt><trkpt lat="43.39131014467696" lon="5.942286164201923"><ele>372.6666666666667</ele><time>2026-04-11T14:39:12.999Z</time></trkpt><trkpt lat="43.391267273198714" lon="5.941981423991105"><ele>370.33333333333337</ele><time>2026-04-11T14:39:13.999Z</time></trkpt><trkpt lat="43.391222800308874" lon="5.941707240786554"><ele>368.0</ele><time>2026-04-11T14:39:14.999Z</time></trkpt><trkpt lat="43.39118152749417" lon="5.941442657610612"><ele>368.0</ele><time>2026-04-11T14:39:15.999Z</time></trkpt><trkpt lat="43.39113310652798" lon="5.9412120120899505"><ele>368.0</ele><time>2026-04-11T14:39:16.999Z</time></trkpt><trkpt lat="43.39109459771301" lon="5.94101171313626"><ele>368.0</ele><time>2026-04-11T14:39:17.999Z</time></trkpt><trkpt lat="43.39106004263507" lon="5.94080830783974"><ele>368.25</ele><time>2026-04-11T14:39:18.999Z</time></trkpt><trkpt lat="43.391037074525265" lon="5.940628644080989"><ele>368.5</ele><time>2026-04-11T14:39:19.999Z</time></trkpt><trkpt lat="43.39101243006855" lon="5.940473763931373"><ele>368.75</ele><time>2026-04-11T14:39:20.999Z</time></trkpt><trkpt lat="43.39098041422146" lon="5.9403281424148435"><ele>369.0</ele><time>2026-04-11T14:39:21.999Z</time></trkpt><trkpt lat="43.390932907900414" lon="5.94018651731223"><ele>369.0</ele><time>2026-04-11T14:39:22.999Z</time></trkpt><trkpt lat="43.39085166690986" lon="5.940076142186173"><ele>369.0</ele><time>2026-04-11T14:39:23.999Z</time></trkpt><trkpt lat="43.39078497616519" lon="5.939932405010416"><ele>369.0</ele><time>2026-04-11T14:39:24.999Z</time></trkpt><trkpt lat="43.39067199012875" lon="5.939772951497549"><ele>369.0</ele><time>2026-04-11T14:39:25.999Z</time></trkpt><trkpt lat="43.390558356355434" lon="5.93958962154307"><ele>366.75</ele><time>2026-04-11T14:39:26.999Z</time></trkpt><trkpt lat="43.39045781295507" lon="5.939423127365275"><ele>364.5</ele><time>2026-04-11T14:39:27.999Z</time></trkpt><trkpt lat="43.39036462990488" lon="5.93927045973996"><ele>362.25</ele><time>2026-04-11T14:39:28.999Z</time></trkpt><trkpt lat="43.3902703793071" lon="5.939115178228695"><ele>360.0</ele><time>2026-04-11T14:39:29.999Z</time></trkpt><trkpt lat="43.39016303064744" lon="5.9389470618318025"><ele>360.0</ele><time>2026-04-11T14:39:30.999Z</time></trkpt><trkpt lat="43.390094883578705" lon="5.938803851808407"><ele>360.0</ele><time>2026-04-11T14:39:31.999Z</time></trkpt><trkpt lat="43.38999775068602" lon="5.938640902064038"><ele>360.0</ele><time>2026-04-11T14:39:32.999Z</time></trkpt><trkpt lat="43.38990547045407" lon="5.938476116887702"><ele>360.0</ele><time>2026-04-11T14:39:33.999Z</time></trkpt><trkpt lat="43.38981851949779" lon="5.938321069728027"><ele>360.5</ele><time>2026-04-11T14:39:34.999Z</time></trkpt><trkpt lat="43.38973618066364" lon="5.938176238944845"><ele>361.0</ele><time>2026-04-11T14:39:35.999Z</time></trkpt><trkpt lat="43.38965910123917" lon="5.938031532393566"><ele>361.5</ele><time>2026-04-11T14:39:36.999Z</time></trkpt><trkpt lat="43.389573869462815" lon="5.937903959696885"><ele>362.0</ele><time>2026-04-11T14:39:37.999Z</time></trkpt><trkpt lat="43.389518736694725" lon="5.937767878576454"><ele>361.6</ele><time>2026-04-11T14:39:38.999Z</time></trkpt><trkpt lat="43.38945612315046" lon="5.937646583430197"><ele>361.20000000000005</ele><time>2026-04-11T14:39:39.999Z</time></trkpt><trkpt lat="43.38938093110938" lon="5.937565385883082"><ele>360.8</ele><time>2026-04-11T14:39:40.999Z</time></trkpt><trkpt lat="43.389296179165804" lon="5.937531165066066"><ele>360.4</ele><time>2026-04-11T14:39:41.999Z</time></trkpt><trkpt lat="43.389205524603234" lon="5.937538109861802"><ele>360.0</ele><time>2026-04-11T14:39:42.999Z</time></trkpt><trkpt lat="43.38910080854991" lon="5.937576444748965"><ele>358.75</ele><time>2026-04-11T14:39:43.999Z</time></trkpt><trkpt lat="43.38896757680016" lon="5.937563802388682"><ele>357.5</ele><time>2026-04-11T14:39:44.999Z</time></trkpt><trkpt lat="43.3888492482756" lon="5.937592607318758"><ele>356.25</ele><time>2026-04-11T14:39:45.999Z</time></trkpt><trkpt lat="43.388743545215036" lon="5.937616658436616"><ele>355.0</ele><time>2026-04-11T14:39:46.999Z</time></trkpt><trkpt lat="43.38863766384963" lon="5.937639391387063"><ele>354.8</ele><time>2026-04-11T14:39:47.999Z</time></trkpt><trkpt lat="43.38854765749271" lon="5.937649174593954"><ele>354.6</ele><time>2026-04-11T14:39:48.999Z</time></trkpt><trkpt lat="43.388457467199366" lon="5.937642640536048"><ele>354.4</ele><time>2026-04-11T14:39:49.999Z</time></trkpt><trkpt lat="43.388365993935814" lon="5.9376282337699555"><ele>354.2</ele><time>2026-04-11T14:39:50.999Z</time></trkpt><trkpt lat="43.388276266686965" lon="5.937586298096585"><ele>354.0</ele><time>2026-04-11T14:39:51.999Z</time></trkpt><trkpt lat="43.38816207038742" lon="5.937511161437092"><ele>354.0</ele><time>2026-04-11T14:39:52.999Z</time></trkpt><trkpt lat="43.38803614150514" lon="5.937416626079092"><ele>354.0</ele><time>2026-04-11T14:39:53.999Z</time></trkpt><trkpt lat="43.38792843283998" lon="5.937323621456523"><ele>354.0</ele><time>2026-04-11T14:39:54.999Z</time></trkpt><trkpt lat="43.38784193046348" lon="5.937211940709908"><ele>354.0</ele><time>2026-04-11T14:39:55.999Z</time></trkpt><trkpt lat="43.38773325473164" lon="5.937089202873001"><ele>352.3333333333333</ele><time>2026-04-11T14:39:56.999Z</time></trkpt><trkpt lat="43.38762824951462" lon="5.936913134220367"><ele>350.66666666666663</ele><time>2026-04-11T14:39:57.999Z</time></trkpt><trkpt lat="43.38751696012692" lon="5.936766925573418"><ele>349.0</ele><time>2026-04-11T14:39:58.999Z</time></trkpt><trkpt lat="43.38741238693808" lon="5.936641567394522"><ele>349.0</ele><time>2026-04-11T14:39:59.999Z</time></trkpt><trkpt lat="43.38730382660998" lon="5.936537950575041"><ele>349.0</ele><time>2026-04-11T14:40:00.999Z</time></trkpt><trkpt lat="43.387189789499274" lon="5.936470513818029"><ele>349.0</ele><time>2026-04-11T14:40:01.999Z</time></trkpt><trkpt lat="43.38708620678972" lon="5.936389877752503"><ele>349.0</ele><time>2026-04-11T14:40:02.999Z</time></trkpt><trkpt lat="43.38698042693031" lon="5.936321202018306"><ele>347.79999999999995</ele><time>2026-04-11T14:40:03.999Z</time></trkpt><trkpt lat="43.38688727022897" lon="5.936231983481009"><ele>346.59999999999997</ele><time>2026-04-11T14:40:04.999Z</time></trkpt><trkpt lat="43.38679655924732" lon="5.936158880549797"><ele>345.4</ele><time>2026-04-11T14:40:05.999Z</time></trkpt><trkpt lat="43.386718130240865" lon="5.936074229197595"><ele>344.2</ele><time>2026-04-11T14:40:06.999Z</time></trkpt><trkpt lat="43.38664637905944" lon="5.935980584752785"><ele>343.0</ele><time>2026-04-11T14:40:07.999Z</time></trkpt><trkpt lat="43.386574235227506" lon="5.935897270862186"><ele>343.0</ele><time>2026-04-11T14:40:08.999Z</time></trkpt><trkpt lat="43.386536533348924" lon="5.935781346688196"><ele>343.0</ele><time>2026-04-11T14:40:09.999Z</time></trkpt><trkpt lat="43.38647645002011" lon="5.935705188012415"><ele>343.0</ele><time>2026-04-11T14:40:10.999Z</time></trkpt><trkpt lat="43.38641488401694" lon="5.935649304973686"><ele>343.0</ele><time>2026-04-11T14:40:11.999Z</time></trkpt><trkpt lat="43.386382673117666" lon="5.935553347429316"><ele>343.0</ele><time>2026-04-11T14:40:14Z</time></trkpt><trkpt lat="43.386359023532506" lon="5.935445843612345"><ele>343.0</ele><time>2026-04-11T14:40:19Z</time></trkpt><trkpt lat="43.38632907136854" lon="5.935312836946548"><ele>343.0</ele><time>2026-04-11T14:40:21Z</time></trkpt><trkpt lat="43.386370975292266" lon="5.93519461766699"><ele>343.0</ele><time>2026-04-11T14:40:23Z</time></trkpt><trkpt lat="43.38642498601641" lon="5.935071852069129"><ele>343.0</ele><time>2026-04-11T14:40:25Z</time></trkpt><trkpt lat="43.386492762618545" lon="5.9349382860081645"><ele>343.0</ele><time>2026-04-11T14:40:27Z</time></trkpt><trkpt lat="43.38655363765709" lon="5.9348571162326165"><ele>343.0</ele><time>2026-04-11T14:40:28Z</time></trkpt><trkpt lat="43.38659864388044" lon="5.934796223582657"><ele>342.66666666666663</ele><time>2026-04-11T14:40:29Z</time></trkpt><trkpt lat="43.38663558976359" lon="5.934707612844598"><ele>342.3333333333333</ele><time>2026-04-11T14:40:33Z</time></trkpt><trkpt lat="43.38666169445827" lon="5.93462641816256"><ele>342.0</ele><time>2026-04-11T14:40:34Z</time></trkpt><trkpt lat="43.38669687109058" lon="5.93453342191251"><ele>341.6666666666667</ele><time>2026-04-11T14:40:36Z</time></trkpt><trkpt lat="43.38678291934997" lon="5.934455830262249"><ele>341.33333333333337</ele><time>2026-04-11T14:40:38Z</time></trkpt><trkpt lat="43.38686555717676" lon="5.934385975596991"><ele>341.0</ele><time>2026-04-11T14:40:40Z</time></trkpt><trkpt lat="43.38690931189455" lon="5.934296692817656"><ele>340.1666666666667</ele><time>2026-04-11T14:40:42Z</time></trkpt><trkpt lat="43.386912156828146" lon="5.934176542840904"><ele>339.33333333333337</ele><time>2026-04-11T14:40:44Z</time></trkpt><trkpt lat="43.3869473285661" lon="5.934072094224945"><ele>338.5</ele><time>2026-04-11T14:40:46Z</time></trkpt><trkpt lat="43.386957249092205" lon="5.933973364626038"><ele>337.6666666666667</ele><time>2026-04-11T14:40:49Z</time></trkpt><trkpt lat="43.387009341661994" lon="5.9338994541899925"><ele>336.8333333333333</ele><time>2026-04-11T14:40:53Z</time></trkpt><trkpt lat="43.38706700587782" lon="5.933810882996411"><ele>336.0</ele><time>2026-04-11T14:40:56Z</time></trkpt><trkpt lat="43.387086019018405" lon="5.933724743715362"><ele>336.0</ele><time>2026-04-11T14:40:57.999Z</time></trkpt><trkpt lat="43.387139260980604" lon="5.933616431255482"><ele>336.0</ele><time>2026-04-11T14:41:00.999Z</time></trkpt><trkpt lat="43.38716626516397" lon="5.933521114809175"><ele>336.0</ele><time>2026-04-11T14:41:02.999Z</time></trkpt><trkpt lat="43.38718604645407" lon="5.933435183573733"><ele>336.0</ele><time>2026-04-11T14:41:04.999Z</time></trkpt><trkpt lat="43.38720803593471" lon="5.933353576913003"><ele>336.0</ele><time>2026-04-11T14:41:06.999Z</time></trkpt><trkpt lat="43.387173331202085" lon="5.933247513260806"><ele>336.0</ele><time>2026-04-11T14:41:13.999Z</time></trkpt><trkpt lat="43.38717840056089" lon="5.933159434882794"><ele>336.0</ele><time>2026-04-11T14:41:16.999Z</time></trkpt><trkpt lat="43.38719001277135" lon="5.933041681852667"><ele>336.4</ele><time>2026-04-11T14:41:19.999Z</time></trkpt><trkpt lat="43.38719614056748" lon="5.93291749580727"><ele>336.8</ele><time>2026-04-11T14:41:21.999Z</time></trkpt><trkpt lat="43.38720000027305" lon="5.932809416764878"><ele>337.2</ele><time>2026-04-11T14:41:24.999Z</time></trkpt><trkpt lat="43.38720794864989" lon="5.932569627631394"><ele>337.59999999999997</ele><time>2026-04-11T14:41:27.999Z</time></trkpt><trkpt lat="43.387231584933836" lon="5.932439710004299"><ele>338.0</ele><time>2026-04-11T14:41:29.999Z</time></trkpt><trkpt lat="43.387247210562094" lon="5.932345927120644"><ele>336.1666666666667</ele><time>2026-04-11T14:41:31.999Z</time></trkpt><trkpt lat="43.387276380146346" lon="5.932224842841439"><ele>334.33333333333337</ele><time>2026-04-11T14:41:34.999Z</time></trkpt><trkpt lat="43.38728637379886" lon="5.9321211312565865"><ele>332.5</ele><time>2026-04-11T14:41:36.999Z</time></trkpt><trkpt lat="43.3873032908652" lon="5.932020918966053"><ele>330.6666666666667</ele><time>2026-04-11T14:41:38.999Z</time></trkpt><trkpt lat="43.38734768420317" lon="5.93194719695973"><ele>328.8333333333333</ele><time>2026-04-11T14:41:40.999Z</time></trkpt><trkpt lat="43.38737135486283" lon="5.931864112236976"><ele>327.0</ele><time>2026-04-11T14:41:42.999Z</time></trkpt><trkpt lat="43.387437169137264" lon="5.931755603709925"><ele>323.6666666666667</ele><time>2026-04-11T14:41:44.999Z</time></trkpt><trkpt lat="43.387501209472845" lon="5.931661325944921"><ele>320.3333333333333</ele><time>2026-04-11T14:41:46.999Z</time></trkpt><trkpt lat="43.38755881370179" lon="5.9315847551560035"><ele>317.0</ele><time>2026-04-11T14:41:49.999Z</time></trkpt><trkpt lat="43.387597647292885" lon="5.931514274723264"><ele>313.66666666666663</ele><time>2026-04-11T14:41:51.999Z</time></trkpt><trkpt lat="43.38766415710321" lon="5.9314482354962035"><ele>310.3333333333333</ele><time>2026-04-11T14:41:53.999Z</time></trkpt><trkpt lat="43.38774388310767" lon="5.9313728317101235"><ele>307.0</ele><time>2026-04-11T14:41:55.999Z</time></trkpt><trkpt lat="43.387813779550044" lon="5.931356385896843"><ele>307.0</ele><time>2026-04-11T14:41:57.999Z</time></trkpt><trkpt lat="43.387879417169025" lon="5.93132637142284"><ele>307.0</ele><time>2026-04-11T14:41:59.999Z</time></trkpt><trkpt lat="43.38797567040313" lon="5.931306867550249"><ele>307.0</ele><time>2026-04-11T14:42:01.999Z</time></trkpt><trkpt lat="43.38805024456799" lon="5.931272140259427"><ele>307.0</ele><time>2026-04-11T14:42:03.999Z</time></trkpt><trkpt lat="43.38811889698404" lon="5.931248631518289"><ele>307.0</ele><time>2026-04-11T14:42:05.999Z</time></trkpt><trkpt lat="43.38820025197134" lon="5.931245353515936"><ele>307.0</ele><time>2026-04-11T14:42:07.999Z</time></trkpt><trkpt lat="43.38826908266443" lon="5.931266188472797"><ele>306.16666666666663</ele><time>2026-04-11T14:42:09.999Z</time></trkpt><trkpt lat="43.38834470773559" lon="5.931274837062912"><ele>305.3333333333333</ele><time>2026-04-11T14:42:11.999Z</time></trkpt><trkpt lat="43.38843139152974" lon="5.931313051833643"><ele>304.5</ele><time>2026-04-11T14:42:13.999Z</time></trkpt><trkpt lat="43.38851184015269" lon="5.931373984406414"><ele>303.6666666666667</ele><time>2026-04-11T14:42:15.999Z</time></trkpt><trkpt lat="43.38859157631176" lon="5.931385820247389"><ele>302.83333333333337</ele><time>2026-04-11T14:42:17.999Z</time></trkpt><trkpt lat="43.38869428151705" lon="5.931420367648941"><ele>302.0</ele><time>2026-04-11T14:42:21Z</time></trkpt><trkpt lat="43.38879693927066" lon="5.9314473240689605"><ele>299.33333333333337</ele><time>2026-04-11T14:42:23Z</time></trkpt><trkpt lat="43.38888326988008" lon="5.931470163505154"><ele>296.6666666666667</ele><time>2026-04-11T14:42:26Z</time></trkpt><trkpt lat="43.388948821054576" lon="5.931442084237986"><ele>294.0</ele><time>2026-04-11T14:42:28Z</time></trkpt><trkpt lat="43.3890199144281" lon="5.931404523267457"><ele>291.3333333333333</ele><time>2026-04-11T14:42:30Z</time></trkpt><trkpt lat="43.389105648451384" lon="5.931430832654029"><ele>288.66666666666663</ele><time>2026-04-11T14:42:32Z</time></trkpt><trkpt lat="43.38919804520498" lon="5.931435888122985"><ele>286.0</ele><time>2026-04-11T14:43:47.999Z</time></trkpt><trkpt lat="43.38927413316279" lon="5.93144534789499"><ele>286.0</ele><time>2026-04-11T14:43:50.999Z</time></trkpt><trkpt lat="43.38933875139974" lon="5.93139341579423"><ele>286.0</ele><time>2026-04-11T14:43:52.999Z</time></trkpt><trkpt lat="43.389408849083125" lon="5.931280659265702"><ele>286.0</ele><time>2026-04-11T14:43:54.999Z</time></trkpt><trkpt lat="43.38945960355536" lon="5.93119855930687"><ele>286.0</ele><time>2026-04-11T14:43:56.999Z</time></trkpt><trkpt lat="43.38951309817795" lon="5.931145470239659"><ele>286.0</ele><time>2026-04-11T14:43:58.999Z</time></trkpt><trkpt lat="43.38958723138752" lon="5.9311874972245775"><ele>286.0</ele><time>2026-04-11T14:44:00.999Z</time></trkpt><trkpt lat="43.38964333943543" lon="5.931251597283216"><ele>285.5</ele><time>2026-04-11T14:44:01.999Z</time></trkpt><trkpt lat="43.389710636292094" lon="5.931311214236524"><ele>285.0</ele><time>2026-04-11T14:44:02.999Z</time></trkpt><trkpt lat="43.38978275403954" lon="5.931359427734008"><ele>284.5</ele><time>2026-04-11T14:44:03.999Z</time></trkpt><trkpt lat="43.38985655126313" lon="5.931410099025767"><ele>284.0</ele><time>2026-04-11T14:44:04.999Z</time></trkpt><trkpt lat="43.38991081188541" lon="5.9314564200841176"><ele>283.5</ele><time>2026-04-11T14:44:05.999Z</time></trkpt><trkpt lat="43.39000978459879" lon="5.931543172158733"><ele>283.0</ele><time>2026-04-11T14:44:07.999Z</time></trkpt><trkpt lat="43.39008913738908" lon="5.93162636635521"><ele>283.0</ele><time>2026-04-11T14:44:09.999Z</time></trkpt><trkpt lat="43.39015398029955" lon="5.931699640395255"><ele>283.0</ele><time>2026-04-11T14:44:11.999Z</time></trkpt><trkpt lat="43.39020555498993" lon="5.931765227678332"><ele>283.0</ele><time>2026-04-11T14:44:13.999Z</time></trkpt><trkpt lat="43.39027715354839" lon="5.931783308849073"><ele>283.0</ele><time>2026-04-11T14:44:16.999Z</time></trkpt><trkpt lat="43.390316766889065" lon="5.931891803031376"><ele>283.0</ele><time>2026-04-11T14:44:18.999Z</time></trkpt><trkpt lat="43.390366809860794" lon="5.931975480132502"><ele>283.0</ele><time>2026-04-11T14:44:19.999Z</time></trkpt><trkpt lat="43.3904261153228" lon="5.932055976992179"><ele>282.4</ele><time>2026-04-11T14:44:20.999Z</time></trkpt><trkpt lat="43.390493422053346" lon="5.932134970271108"><ele>281.8</ele><time>2026-04-11T14:44:21.999Z</time></trkpt><trkpt lat="43.390569539315734" lon="5.932230037550142"><ele>281.2</ele><time>2026-04-11T14:44:22.999Z</time></trkpt><trkpt lat="43.390641237353506" lon="5.932337179133304"><ele>280.6</ele><time>2026-04-11T14:44:23.999Z</time></trkpt><trkpt lat="43.39069711274621" lon="5.932444287932864"><ele>280.0</ele><time>2026-04-11T14:44:24.999Z</time></trkpt><trkpt lat="43.390739801645964" lon="5.932550710059429"><ele>281.0</ele><time>2026-04-11T14:44:25.999Z</time></trkpt><trkpt lat="43.39078212904891" lon="5.932662278123881"><ele>282.0</ele><time>2026-04-11T14:44:26.999Z</time></trkpt><trkpt lat="43.39081418004858" lon="5.932783029654949"><ele>283.0</ele><time>2026-04-11T14:44:27.999Z</time></trkpt><trkpt lat="43.39083518163155" lon="5.932892644625414"><ele>284.0</ele><time>2026-04-11T14:44:28.999Z</time></trkpt><trkpt lat="43.390852311863775" lon="5.9329932519435555"><ele>285.0</ele><time>2026-04-11T14:44:29.999Z</time></trkpt><trkpt lat="43.390858245058155" lon="5.933088000038614"><ele>286.0</ele><time>2026-04-11T14:44:30.999Z</time></trkpt><trkpt lat="43.390834381900405" lon="5.93319149823948"><ele>286.0</ele><time>2026-04-11T14:44:31.999Z</time></trkpt><trkpt lat="43.39080112693189" lon="5.933303402101592"><ele>286.0</ele><time>2026-04-11T14:44:32.999Z</time></trkpt><trkpt lat="43.39076595675189" lon="5.933418169155998"><ele>286.0</ele><time>2026-04-11T14:44:33.999Z</time></trkpt><trkpt lat="43.39075031120359" lon="5.93353892824277"><ele>286.0</ele><time>2026-04-11T14:44:34.999Z</time></trkpt><trkpt lat="43.39075432050593" lon="5.933640624988797"><ele>286.0</ele><time>2026-04-11T14:44:35.999Z</time></trkpt><trkpt lat="43.39078258607319" lon="5.933735038079454"><ele>286.0</ele><time>2026-04-11T14:44:36.999Z</time></trkpt><trkpt lat="43.390821918177934" lon="5.933842049085733"><ele>286.0</ele><time>2026-04-11T14:44:37.999Z</time></trkpt><trkpt lat="43.39085681359187" lon="5.933945644986598"><ele>286.0</ele><time>2026-04-11T14:44:38.999Z</time></trkpt><trkpt lat="43.39089608381019" lon="5.93404482660371"><ele>286.0</ele><time>2026-04-11T14:44:39.999Z</time></trkpt><trkpt lat="43.39094522789865" lon="5.934138134350695"><ele>286.0</ele><time>2026-04-11T14:44:40.999Z</time></trkpt><trkpt lat="43.391007356434564" lon="5.934208337434211"><ele>286.0</ele><time>2026-04-11T14:44:41.999Z</time></trkpt><trkpt lat="43.391087265781216" lon="5.934262325960849"><ele>286.0</ele><time>2026-04-11T14:44:42.999Z</time></trkpt><trkpt lat="43.39119293221877" lon="5.934309061144657"><ele>283.0</ele><time>2026-04-11T14:44:43.999Z</time></trkpt><trkpt lat="43.39131701842201" lon="5.934359068051438"><ele>280.0</ele><time>2026-04-11T14:44:44.999Z</time></trkpt><trkpt lat="43.39143773369513" lon="5.934397946029528"><ele>277.0</ele><time>2026-04-11T14:44:45.999Z</time></trkpt><trkpt lat="43.39154105984477" lon="5.934403790666419"><ele>274.0</ele><time>2026-04-11T14:44:46.999Z</time></trkpt><trkpt lat="43.39165086632419" lon="5.934389233822889"><ele>273.25</ele><time>2026-04-11T14:44:47.999Z</time></trkpt><trkpt lat="43.39178373593622" lon="5.934375115447089"><ele>272.5</ele><time>2026-04-11T14:44:48.999Z</time></trkpt><trkpt lat="43.39192508305281" lon="5.934438866361279"><ele>271.75</ele><time>2026-04-11T14:44:49.999Z</time></trkpt><trkpt lat="43.39203684940612" lon="5.9344128501629605"><ele>271.0</ele><time>2026-04-11T14:44:50.999Z</time></trkpt><trkpt lat="43.39213442750927" lon="5.934394311438616"><ele>272.0</ele><time>2026-04-11T14:44:51.999Z</time></trkpt><trkpt lat="43.392230287570406" lon="5.93439479826868"><ele>273.0</ele><time>2026-04-11T14:44:52.999Z</time></trkpt><trkpt lat="43.39233465263705" lon="5.934410191709791"><ele>274.0</ele><time>2026-04-11T14:44:53.999Z</time></trkpt><trkpt lat="43.39242905933903" lon="5.934438636123695"><ele>275.0</ele><time>2026-04-11T14:44:54.999Z</time></trkpt><trkpt lat="43.39251740633427" lon="5.9344789028397305"><ele>276.0</ele><time>2026-04-11T14:44:55.999Z</time></trkpt><trkpt lat="43.39260565884525" lon="5.93452073299724"><ele>276.0</ele><time>2026-04-11T14:44:56.999Z</time></trkpt><trkpt lat="43.39269063963808" lon="5.934552491789875"><ele>276.0</ele><time>2026-04-11T14:44:57.999Z</time></trkpt><trkpt lat="43.392781624512736" lon="5.934575270861531"><ele>276.0</ele><time>2026-04-11T14:44:58.999Z</time></trkpt><trkpt lat="43.39289570937284" lon="5.934599176913276"><ele>276.0</ele><time>2026-04-11T14:44:59.999Z</time></trkpt><trkpt lat="43.39302578551293" lon="5.934623781945585"><ele>276.0</ele><time>2026-04-11T14:45:00.999Z</time></trkpt><trkpt lat="43.393165467179564" lon="5.934646543193889"><ele>276.75</ele><time>2026-04-11T14:45:01.999Z</time></trkpt><trkpt lat="43.393297732200516" lon="5.934668095890381"><ele>277.5</ele><time>2026-04-11T14:45:02.999Z</time></trkpt><trkpt lat="43.39340825900436" lon="5.934687098237782"><ele>278.25</ele><time>2026-04-11T14:45:03.999Z</time></trkpt><trkpt lat="43.393521616424046" lon="5.934710320154548"><ele>279.0</ele><time>2026-04-11T14:45:04.999Z</time></trkpt><trkpt lat="43.39362804317083" lon="5.934728034433799"><ele>279.0</ele><time>2026-04-11T14:45:05.999Z</time></trkpt><trkpt lat="43.393745591877675" lon="5.934730527766637"><ele>279.0</ele><time>2026-04-11T14:45:06.999Z</time></trkpt><trkpt lat="43.393878790357995" lon="5.934714010628693"><ele>279.0</ele><time>2026-04-11T14:45:07.999Z</time></trkpt><trkpt lat="43.39399692654978" lon="5.934680661071308"><ele>279.0</ele><time>2026-04-11T14:45:08.999Z</time></trkpt><trkpt lat="43.394109789759575" lon="5.934656114339069"><ele>278.0</ele><time>2026-04-11T14:45:09.999Z</time></trkpt><trkpt lat="43.394222638630495" lon="5.9346399741911915"><ele>277.0</ele><time>2026-04-11T14:45:10.999Z</time></trkpt><trkpt lat="43.39432172969001" lon="5.934625563122561"><ele>276.0</ele><time>2026-04-11T14:45:11.999Z</time></trkpt><trkpt lat="43.39442347032378" lon="5.934613326384815"><ele>275.0</ele><time>2026-04-11T14:45:12.999Z</time></trkpt><trkpt lat="43.39452142841747" lon="5.934643449674187"><ele>274.0</ele><time>2026-04-11T14:45:13.999Z</time></trkpt><trkpt lat="43.3946416522756" lon="5.934638625752847"><ele>274.0</ele><time>2026-04-11T14:45:14.999Z</time></trkpt><trkpt lat="43.39475634669452" lon="5.934592883370789"><ele>274.0</ele><time>2026-04-11T14:45:15.999Z</time></trkpt><trkpt lat="43.39484761688926" lon="5.934504358094275"><ele>274.0</ele><time>2026-04-11T14:45:16.999Z</time></trkpt><trkpt lat="43.3949330030199" lon="5.934428447326729"><ele>274.0</ele><time>2026-04-11T14:45:17.999Z</time></trkpt><trkpt lat="43.39498644374818" lon="5.934289727655084"><ele>274.0</ele><time>2026-04-11T14:45:18.999Z</time></trkpt><trkpt lat="43.395046101273046" lon="5.934212903596636"><ele>274.8</ele><time>2026-04-11T14:45:19.999Z</time></trkpt><trkpt lat="43.395096081199696" lon="5.934158377928159"><ele>275.59999999999997</ele><time>2026-04-11T14:45:20.999Z</time></trkpt><trkpt lat="43.395171240233715" lon="5.934089203888616"><ele>276.4</ele><time>2026-04-11T14:45:22.999Z</time></trkpt><trkpt lat="43.39517086402492" lon="5.9338494008693115"><ele>277.2</ele><time>2026-04-11T14:45:24.999Z</time></trkpt><trkpt lat="43.395228358208094" lon="5.9338008696105105"><ele>278.0</ele><time>2026-04-11T14:45:25.999Z</time></trkpt><trkpt lat="43.39528642315517" lon="5.9337386622220825"><ele>278.0</ele><time>2026-04-11T14:45:26.999Z</time></trkpt><trkpt lat="43.39532120284033" lon="5.93365682690825"><ele>278.0</ele><time>2026-04-11T14:45:27.999Z</time></trkpt><trkpt lat="43.39532742380541" lon="5.933560530229361"><ele>278.0</ele><time>2026-04-11T14:45:28.999Z</time></trkpt><trkpt lat="43.39531971548117" lon="5.933436593928772"><ele>278.0</ele><time>2026-04-11T14:45:29.999Z</time></trkpt><trkpt lat="43.39533619794751" lon="5.933322847268505"><ele>278.0</ele><time>2026-04-11T14:45:30.999Z</time></trkpt><trkpt lat="43.39537900594676" lon="5.933247555881041"><ele>278.0</ele><time>2026-04-11T14:45:31.999Z</time></trkpt><trkpt lat="43.3954431168507" lon="5.933262510426716"><ele>278.0</ele><time>2026-04-11T14:45:32.999Z</time></trkpt><trkpt lat="43.395518437143274" lon="5.933248006598174"><ele>279.8</ele><time>2026-04-11T14:45:33.999Z</time></trkpt><trkpt lat="43.39558486201412" lon="5.933191655200483"><ele>281.6</ele><time>2026-04-11T14:45:35.999Z</time></trkpt><trkpt lat="43.39561029913061" lon="5.933021374484623"><ele>283.4</ele><time>2026-04-11T14:45:37.999Z</time></trkpt><trkpt lat="43.395627748327634" lon="5.932811327173022"><ele>285.2</ele><time>2026-04-11T14:45:39.999Z</time></trkpt><trkpt lat="43.39563998432774" lon="5.93271067630979"><ele>287.0</ele><time>2026-04-11T14:45:40.999Z</time></trkpt><trkpt lat="43.39570609756105" lon="5.93263603935926"><ele>290.2</ele><time>2026-04-11T14:45:42.999Z</time></trkpt><trkpt lat="43.39573880280989" lon="5.932503529315711"><ele>293.4</ele><time>2026-04-11T14:45:44.999Z</time></trkpt><trkpt lat="43.39575768910399" lon="5.932420201109004"><ele>296.6</ele><time>2026-04-11T14:45:45.999Z</time></trkpt><trkpt lat="43.395778881777765" lon="5.932315967645233"><ele>299.8</ele><time>2026-04-11T14:45:47.999Z</time></trkpt><trkpt lat="43.395790802680466" lon="5.932179695586397"><ele>303.0</ele><time>2026-04-11T14:45:49.999Z</time></trkpt><trkpt lat="43.39586825754071" lon="5.9320615257953575"><ele>303.0</ele><time>2026-04-11T14:45:51.999Z</time></trkpt><trkpt lat="43.39588285007601" lon="5.931914482049971"><ele>303.0</ele><time>2026-04-11T14:45:53.999Z</time></trkpt><trkpt lat="43.395843926032555" lon="5.931813735881709"><ele>303.0</ele><time>2026-04-11T14:45:56.999Z</time></trkpt><trkpt lat="43.395841329805386" lon="5.931660022259559"><ele>303.0</ele><time>2026-04-11T14:45:59.999Z</time></trkpt><trkpt lat="43.39582868956972" lon="5.931573972945895"><ele>303.0</ele><time>2026-04-11T14:46:00.999Z</time></trkpt><trkpt lat="43.39585266724829" lon="5.931480922289061"><ele>303.0</ele><time>2026-04-11T14:46:02.999Z</time></trkpt><trkpt lat="43.395901863717754" lon="5.931368271727311"><ele>305.1666666666667</ele><time>2026-04-11T14:46:04.999Z</time></trkpt><trkpt lat="43.39593740656674" lon="5.9312747224193645"><ele>307.3333333333333</ele><time>2026-04-11T14:46:05.999Z</time></trkpt><trkpt lat="43.395977347139464" lon="5.931141571582248"><ele>309.5</ele><time>2026-04-11T14:46:07.999Z</time></trkpt><trkpt lat="43.39600131711083" lon="5.931006671352928"><ele>311.66666666666663</ele><time>2026-04-11T14:46:09.999Z</time></trkpt><trkpt lat="43.39602476627254" lon="5.930896973474498"><ele>313.8333333333333</ele><time>2026-04-11T14:46:10.999Z</time></trkpt><trkpt lat="43.39603181530296" lon="5.930807578940699"><ele>316.0</ele><time>2026-04-11T14:46:11.999Z</time></trkpt><trkpt lat="43.39608221890295" lon="5.930656266715805"><ele>318.0</ele><time>2026-04-11T14:46:13.999Z</time></trkpt><trkpt lat="43.39610441152369" lon="5.93053749091129"><ele>320.0</ele><time>2026-04-11T14:46:14.999Z</time></trkpt><trkpt lat="43.39613021845639" lon="5.930424604943087"><ele>322.0</ele><time>2026-04-11T14:46:15.999Z</time></trkpt><trkpt lat="43.39615529730247" lon="5.930336465719468"><ele>324.0</ele><time>2026-04-11T14:46:16.999Z</time></trkpt><trkpt lat="43.396188763085306" lon="5.930175721096313"><ele>326.0</ele><time>2026-04-11T14:46:18.999Z</time></trkpt><trkpt lat="43.39619551871897" lon="5.930066383106388"><ele>328.0</ele><time>2026-04-11T14:46:19.999Z</time></trkpt><trkpt lat="43.39620076853303" lon="5.929969626310687"><ele>330.2</ele><time>2026-04-11T14:46:20.999Z</time></trkpt><trkpt lat="43.39618339560372" lon="5.929789167016978"><ele>332.4</ele><time>2026-04-11T14:46:22.999Z</time></trkpt><trkpt lat="43.3961623353964" lon="5.9296692375879525"><ele>334.59999999999997</ele><time>2026-04-11T14:46:23.999Z</time></trkpt><trkpt lat="43.39614085211539" lon="5.929569386680896"><ele>336.79999999999995</ele><time>2026-04-11T14:46:24.999Z</time></trkpt><trkpt lat="43.396123880238285" lon="5.929477311645316"><ele>339.0</ele><time>2026-04-11T14:46:25.999Z</time></trkpt><trkpt lat="43.3961033589729" lon="5.929344773189429"><ele>339.0</ele><time>2026-04-11T14:46:27.999Z</time></trkpt><trkpt lat="43.396081433294306" lon="5.9292373767934174"><ele>339.0</ele><time>2026-04-11T14:46:29.999Z</time></trkpt><trkpt lat="43.396053685017556" lon="5.929103505120346"><ele>339.0</ele><time>2026-04-11T14:46:31.999Z</time></trkpt><trkpt lat="43.39612093677167" lon="5.929010608601553"><ele>339.0</ele><time>2026-04-11T14:46:34.999Z</time></trkpt><trkpt lat="43.39620411676278" lon="5.928924306802932"><ele>339.0</ele><time>2026-04-11T14:46:36.999Z</time></trkpt><trkpt lat="43.39629224973257" lon="5.9288272506549635"><ele>337.0</ele><time>2026-04-11T14:46:38.999Z</time></trkpt><trkpt lat="43.396341153720144" lon="5.928762782147702"><ele>335.0</ele><time>2026-04-11T14:46:39.999Z</time></trkpt><trkpt lat="43.39640131335507" lon="5.928683293723035"><ele>333.0</ele><time>2026-04-11T14:46:40.999Z</time></trkpt><trkpt lat="43.396465202628335" lon="5.928580849041203"><ele>331.0</ele><time>2026-04-11T14:46:41.999Z</time></trkpt><trkpt lat="43.39653093256525" lon="5.928465181155558"><ele>329.0</ele><time>2026-04-11T14:46:42.999Z</time></trkpt><trkpt lat="43.39660428911464" lon="5.928369213862398"><ele>329.0</ele><time>2026-04-11T14:46:43.999Z</time></trkpt><trkpt lat="43.39666397042317" lon="5.9282760183852785"><ele>329.0</ele><time>2026-04-11T14:46:44.999Z</time></trkpt><trkpt lat="43.396779563730824" lon="5.928188237330528"><ele>329.0</ele><time>2026-04-11T14:46:46.999Z</time></trkpt><trkpt lat="43.39685424299804" lon="5.92814203483822"><ele>329.0</ele><time>2026-04-11T14:46:47.999Z</time></trkpt><trkpt lat="43.396919079183014" lon="5.928101905494085"><ele>329.0</ele><time>2026-04-11T14:46:48.999Z</time></trkpt><trkpt lat="43.396983449717894" lon="5.9280757692481885"><ele>329.0</ele><time>2026-04-11T14:46:49.999Z</time></trkpt><trkpt lat="43.397079087649544" lon="5.928148633621216"><ele>329.0</ele><time>2026-04-11T14:46:51.999Z</time></trkpt><trkpt lat="43.39714287337638" lon="5.92814246035052"><ele>329.0</ele><time>2026-04-11T14:46:52.999Z</time></trkpt><trkpt lat="43.397235010198024" lon="5.92811271905615"><ele>329.0</ele><time>2026-04-11T14:46:54.999Z</time></trkpt><trkpt lat="43.397294659574776" lon="5.9280281508553685"><ele>329.0</ele><time>2026-04-11T14:46:56.999Z</time></trkpt><trkpt lat="43.39733394736269" lon="5.927942294142054"><ele>329.0</ele><time>2026-04-11T14:46:57.999Z</time></trkpt><trkpt lat="43.39736025301652" lon="5.9278252703029075"><ele>329.0</ele><time>2026-04-11T14:46:58.999Z</time></trkpt><trkpt lat="43.39738515787951" lon="5.927694532361619"><ele>329.33333333333337</ele><time>2026-04-11T14:46:59.999Z</time></trkpt><trkpt lat="43.39739855757273" lon="5.9275589037141865"><ele>329.6666666666667</ele><time>2026-04-11T14:47:00.999Z</time></trkpt><trkpt lat="43.39741188744468" lon="5.927431732989386"><ele>330.0</ele><time>2026-04-11T14:47:01.999Z</time></trkpt><trkpt lat="43.39743068417591" lon="5.927318608284601"><ele>330.3333333333333</ele><time>2026-04-11T14:47:02.999Z</time></trkpt><trkpt lat="43.397432513370504" lon="5.927194324051193"><ele>330.66666666666663</ele><time>2026-04-11T14:47:03.999Z</time></trkpt><trkpt lat="43.397413742991944" lon="5.927084646089086"><ele>331.0</ele><time>2026-04-11T14:47:04.999Z</time></trkpt><trkpt lat="43.39739316317483" lon="5.927002347300723"><ele>331.0</ele><time>2026-04-11T14:47:05.999Z</time></trkpt><trkpt lat="43.397349137927385" lon="5.926916147311968"><ele>331.0</ele><time>2026-04-11T14:47:06.999Z</time></trkpt><trkpt lat="43.397297294148565" lon="5.926825819634505"><ele>331.0</ele><time>2026-04-11T14:47:07.999Z</time></trkpt><trkpt lat="43.397228311952176" lon="5.92672437023292"><ele>331.0</ele><time>2026-04-11T14:47:08.999Z</time></trkpt><trkpt lat="43.39717243032995" lon="5.926640324553647"><ele>331.0</ele><time>2026-04-11T14:47:09.999Z</time></trkpt><trkpt lat="43.39711107335746" lon="5.926506150007817"><ele>331.4</ele><time>2026-04-11T14:47:11.999Z</time></trkpt><trkpt lat="43.39714048225242" lon="5.926343857194189"><ele>331.8</ele><time>2026-04-11T14:47:14Z</time></trkpt><trkpt lat="43.397165313890866" lon="5.926187923133986"><ele>332.2</ele><time>2026-04-11T14:47:15Z</time></trkpt><trkpt lat="43.39720415322051" lon="5.926062550115703"><ele>332.59999999999997</ele><time>2026-04-11T14:47:16Z</time></trkpt><trkpt lat="43.397232990841836" lon="5.925970145997765"><ele>333.0</ele><time>2026-04-11T14:47:17Z</time></trkpt><trkpt lat="43.39732265160206" lon="5.925884549320232"><ele>333.0</ele><time>2026-04-11T14:47:19Z</time></trkpt><trkpt lat="43.39736370753112" lon="5.925761679830734"><ele>333.0</ele><time>2026-04-11T14:47:21Z</time></trkpt><trkpt lat="43.39743310206801" lon="5.9257049670802155"><ele>333.0</ele><time>2026-04-11T14:47:23Z</time></trkpt><trkpt lat="43.39738173212773" lon="5.925573346271434"><ele>333.0</ele><time>2026-04-11T14:47:26Z</time></trkpt><trkpt lat="43.397408455932805" lon="5.925465997193634"><ele>333.0</ele><time>2026-04-11T14:47:28Z</time></trkpt><trkpt lat="43.39741249148078" lon="5.925370767590162"><ele>333.0</ele><time>2026-04-11T14:47:31Z</time></trkpt><trkpt lat="43.39742766189643" lon="5.92526338963293"><ele>333.0</ele><time>2026-04-11T14:47:33Z</time></trkpt><trkpt lat="43.397393410040834" lon="5.925150646505736"><ele>333.0</ele><time>2026-04-11T14:47:36Z</time></trkpt><trkpt lat="43.397348184956186" lon="5.9249720747103"><ele>333.0</ele><time>2026-04-11T14:47:38Z</time></trkpt><trkpt lat="43.397374689981724" lon="5.924833876333794"><ele>333.0</ele><time>2026-04-11T14:47:40Z</time></trkpt><trkpt lat="43.39736770105883" lon="5.924691166789722"><ele>333.0</ele><time>2026-04-11T14:47:44Z</time></trkpt><trkpt lat="43.39735008683613" lon="5.924606844043699"><ele>334.79999999999995</ele><time>2026-04-11T14:47:45Z</time></trkpt><trkpt lat="43.39736929627221" lon="5.92445746295173"><ele>336.6</ele><time>2026-04-11T14:47:47Z</time></trkpt><trkpt lat="43.397381531737594" lon="5.9243183852137165"><ele>338.4</ele><time>2026-04-11T14:47:48Z</time></trkpt><trkpt lat="43.39739254978359" lon="5.924212820004748"><ele>340.20000000000005</ele><time>2026-04-11T14:47:49Z</time></trkpt><trkpt lat="43.39736775811141" lon="5.92407975911922"><ele>342.0</ele><time>2026-04-11T14:47:51Z</time></trkpt><trkpt lat="43.397340189336035" lon="5.923922015902685"><ele>342.5</ele><time>2026-04-11T14:47:53Z</time></trkpt><trkpt lat="43.3973507990181" lon="5.923800700992825"><ele>343.0</ele><time>2026-04-11T14:47:54Z</time></trkpt><trkpt lat="43.39736363547173" lon="5.923664371743433"><ele>343.5</ele><time>2026-04-11T14:47:56Z</time></trkpt><trkpt lat="43.39740631052165" lon="5.923580956028427"><ele>344.0</ele><time>2026-04-11T14:47:58Z</time></trkpt><trkpt lat="43.39745719277248" lon="5.923507958040121"><ele>344.5</ele><time>2026-04-11T14:48:01Z</time></trkpt><trkpt lat="43.39744097580747" lon="5.923383506434525"><ele>345.0</ele><time>2026-04-11T14:48:03Z</time></trkpt><trkpt lat="43.39744448756124" lon="5.923288461830635"><ele>345.2</ele><time>2026-04-11T14:48:04Z</time></trkpt><trkpt lat="43.39748277165483" lon="5.923140837447406"><ele>345.4</ele><time>2026-04-11T14:48:06Z</time></trkpt><trkpt lat="43.39751689960628" lon="5.923064160455337"><ele>345.6</ele><time>2026-04-11T14:48:08Z</time></trkpt><trkpt lat="43.39751913384624" lon="5.922936728877338"><ele>345.8</ele><time>2026-04-11T14:48:11Z</time></trkpt><trkpt lat="43.39752048786161" lon="5.92280796686072"><ele>346.0</ele><time>2026-04-11T14:48:14Z</time></trkpt><trkpt lat="43.397548063929776" lon="5.922678068278855"><ele>345.66666666666663</ele><time>2026-04-11T14:48:16Z</time></trkpt><trkpt lat="43.39760109625554" lon="5.922549343283495"><ele>345.3333333333333</ele><time>2026-04-11T14:48:18Z</time></trkpt><trkpt lat="43.39765782719364" lon="5.922498574291056"><ele>345.0</ele><time>2026-04-11T14:48:23Z</time></trkpt><trkpt lat="43.39764719441943" lon="5.922408921235287"><ele>344.6666666666667</ele><time>2026-04-11T14:48:26Z</time></trkpt><trkpt lat="43.39760461980155" lon="5.922259606040314"><ele>344.33333333333337</ele><time>2026-04-11T14:48:28Z</time></trkpt><trkpt lat="43.397600692122026" lon="5.922171398758226"><ele>344.0</ele><time>2026-04-11T14:48:29Z</time></trkpt><trkpt lat="43.3975501395491" lon="5.922118713544359"><ele>344.0</ele><time>2026-04-11T14:48:31Z</time></trkpt><trkpt lat="43.39753042500304" lon="5.922015936630613"><ele>344.0</ele><time>2026-04-11T14:48:34Z</time></trkpt><trkpt lat="43.39756395887416" lon="5.921901200219044"><ele>344.0</ele><time>2026-04-11T14:48:37Z</time></trkpt><trkpt lat="43.3975906447653" lon="5.921747745293285"><ele>344.0</ele><time>2026-04-11T14:48:39Z</time></trkpt><trkpt lat="43.39762056551218" lon="5.921622082711346"><ele>344.0</ele><time>2026-04-11T14:48:41Z</time></trkpt><trkpt lat="43.397651338586044" lon="5.921529111386134"><ele>343.2</ele><time>2026-04-11T14:48:43Z</time></trkpt><trkpt lat="43.39758616287411" lon="5.921432187507094"><ele>342.4</ele><time>2026-04-11T14:48:46Z</time></trkpt><trkpt lat="43.39754894445973" lon="5.9213323488066445"><ele>341.6</ele><time>2026-04-11T14:48:48Z</time></trkpt><trkpt lat="43.397533114965896" lon="5.921189635139944"><ele>340.8</ele><time>2026-04-11T14:48:50Z</time></trkpt><trkpt lat="43.39750727473037" lon="5.921077760212618"><ele>340.0</ele><time>2026-04-11T14:48:51Z</time></trkpt><trkpt lat="43.397477858172" lon="5.920969342718212"><ele>340.3333333333333</ele><time>2026-04-11T14:48:52Z</time></trkpt><trkpt lat="43.39741725571242" lon="5.920878764715818"><ele>340.66666666666663</ele><time>2026-04-11T14:48:57Z</time></trkpt><trkpt lat="43.39735754417272" lon="5.920824598539568"><ele>341.0</ele><time>2026-04-11T14:48:59Z</time></trkpt><trkpt lat="43.397317371182666" lon="5.920715483576021"><ele>341.3333333333333</ele><time>2026-04-11T14:49:02Z</time></trkpt><trkpt lat="43.39727207952268" lon="5.920634448523499"><ele>341.6666666666667</ele><time>2026-04-11T14:49:04Z</time></trkpt><trkpt lat="43.39726373279756" lon="5.920513125849371"><ele>342.0</ele><time>2026-04-11T14:49:06Z</time></trkpt><trkpt lat="43.397196617880226" lon="5.920423688873621"><ele>343.6666666666667</ele><time>2026-04-11T14:49:08Z</time></trkpt><trkpt lat="43.39712866608503" lon="5.92034105578481"><ele>345.3333333333333</ele><time>2026-04-11T14:49:10Z</time></trkpt><trkpt lat="43.39712165206448" lon="5.920252798867114"><ele>347.0</ele><time>2026-04-11T14:49:13Z</time></trkpt><trkpt lat="43.39708696566983" lon="5.920178804827512"><ele>348.66666666666663</ele><time>2026-04-11T14:49:15Z</time></trkpt><trkpt lat="43.39704665138134" lon="5.920073815393674"><ele>350.3333333333333</ele><time>2026-04-11T14:49:17Z</time></trkpt><trkpt lat="43.39705096325772" lon="5.919970206580691"><ele>352.0</ele><time>2026-04-11T14:49:19Z</time></trkpt><trkpt lat="43.39704425190654" lon="5.919857880756453"><ele>352.16666666666663</ele><time>2026-04-11T14:49:21Z</time></trkpt><trkpt lat="43.39700548385391" lon="5.919762432001257"><ele>352.3333333333333</ele><time>2026-04-11T14:49:23Z</time></trkpt><trkpt lat="43.39701523174455" lon="5.919676510637118"><ele>352.5</ele><time>2026-04-11T14:49:25Z</time></trkpt><trkpt lat="43.397067735148816" lon="5.919509288691891"><ele>352.6666666666667</ele><time>2026-04-11T14:49:27Z</time></trkpt><trkpt lat="43.39710762585835" lon="5.91940127959018"><ele>352.83333333333337</ele><time>2026-04-11T14:49:28Z</time></trkpt><trkpt lat="43.397126765009034" lon="5.91929469707462"><ele>353.0</ele><time>2026-04-11T14:49:29Z</time></trkpt><trkpt lat="43.3971301817916" lon="5.919161023515541"><ele>352.5</ele><time>2026-04-11T14:49:31Z</time></trkpt><trkpt lat="43.39709075763138" lon="5.919090727964381"><ele>352.0</ele><time>2026-04-11T14:49:33Z</time></trkpt><trkpt lat="43.39703028088161" lon="5.919058252952956"><ele>351.5</ele><time>2026-04-11T14:49:34Z</time></trkpt><trkpt lat="43.39692988550093" lon="5.919041166044508"><ele>351.0</ele><time>2026-04-11T14:49:36Z</time></trkpt><trkpt lat="43.396847082281106" lon="5.919010062737453"><ele>350.5</ele><time>2026-04-11T14:49:38Z</time></trkpt><trkpt lat="43.39678033365772" lon="5.919007720147066"><ele>350.0</ele><time>2026-04-11T14:49:40Z</time></trkpt><trkpt lat="43.39670727567778" lon="5.918916496617542"><ele>350.0</ele><time>2026-04-11T14:49:43Z</time></trkpt><trkpt lat="43.3966441881322" lon="5.91889725966875"><ele>350.0</ele><time>2026-04-11T14:49:45Z</time></trkpt><trkpt lat="43.396542606773664" lon="5.9188713559794826"><ele>350.0</ele><time>2026-04-11T14:49:47Z</time></trkpt><trkpt lat="43.396479863764675" lon="5.918785681375779"><ele>350.0</ele><time>2026-04-11T14:49:49Z</time></trkpt><trkpt lat="43.396485289003536" lon="5.918651125438757"><ele>350.0</ele><time>2026-04-11T14:49:52Z</time></trkpt><trkpt lat="43.39648805372892" lon="5.918457772208491"><ele>349.14285714285717</ele><time>2026-04-11T14:49:54Z</time></trkpt><trkpt lat="43.39649424049396" lon="5.9183663210687145"><ele>348.2857142857143</ele><time>2026-04-11T14:49:55Z</time></trkpt><trkpt lat="43.396512289175924" lon="5.91820152436609"><ele>347.42857142857144</ele><time>2026-04-11T14:49:57Z</time></trkpt><trkpt lat="43.396524730041286" lon="5.9181164558464125"><ele>346.57142857142856</ele><time>2026-04-11T14:49:58Z</time></trkpt><trkpt lat="43.396492160354605" lon="5.918035474665436"><ele>345.7142857142857</ele><time>2026-04-11T14:50:00Z</time></trkpt><trkpt lat="43.396542567165305" lon="5.917979929792895"><ele>344.8571428571429</ele><time>2026-04-11T14:50:02Z</time></trkpt><trkpt lat="43.396578769239134" lon="5.917907170876129"><ele>344.0</ele><time>2026-04-11T14:50:03Z</time></trkpt><trkpt lat="43.39664674090721" lon="5.917887954841071"><ele>344.0</ele><time>2026-04-11T14:50:04Z</time></trkpt><trkpt lat="43.39677966177313" lon="5.917811230460051"><ele>344.0</ele><time>2026-04-11T14:50:16Z</time></trkpt><trkpt lat="43.396840601894745" lon="5.917736076942918"><ele>344.0</ele><time>2026-04-11T14:50:17Z</time></trkpt><trkpt lat="43.39691594620491" lon="5.917639582224002"><ele>344.0</ele><time>2026-04-11T14:50:18Z</time></trkpt><trkpt lat="43.396974565596956" lon="5.917555095161286"><ele>344.0</ele><time>2026-04-11T14:50:19Z</time></trkpt><trkpt lat="43.39704050405158" lon="5.917469405001338"><ele>343.33333333333337</ele><time>2026-04-11T14:50:20Z</time></trkpt><trkpt lat="43.39711208260948" lon="5.917386026048565"><ele>342.6666666666667</ele><time>2026-04-11T14:50:21Z</time></trkpt><trkpt lat="43.39718010064644" lon="5.91730723663615"><ele>342.0</ele><time>2026-04-11T14:50:22Z</time></trkpt><trkpt lat="43.39723498112039" lon="5.917222882242816"><ele>341.3333333333333</ele><time>2026-04-11T14:50:23Z</time></trkpt><trkpt lat="43.39728100284006" lon="5.917117681879953"><ele>340.66666666666663</ele><time>2026-04-11T14:50:24Z</time></trkpt><trkpt lat="43.39732894337267" lon="5.9170267168334885"><ele>340.0</ele><time>2026-04-11T14:50:25Z</time></trkpt><trkpt lat="43.397382638836184" lon="5.916953955140753"><ele>339.0</ele><time>2026-04-11T14:50:26Z</time></trkpt><trkpt lat="43.39743617944584" lon="5.916907969335984"><ele>338.0</ele><time>2026-04-11T14:50:27Z</time></trkpt><trkpt lat="43.397539706277854" lon="5.91680785033944"><ele>337.0</ele><time>2026-04-11T14:50:29Z</time></trkpt><trkpt lat="43.39760814670014" lon="5.9167116943215845"><ele>336.0</ele><time>2026-04-11T14:50:31Z</time></trkpt><trkpt lat="43.397665235744874" lon="5.916646171254814"><ele>335.0</ele><time>2026-04-11T14:50:34Z</time></trkpt><trkpt lat="43.3975939253611" lon="5.916627864775332"><ele>334.0</ele><time>2026-04-11T14:50:41Z</time></trkpt><trkpt lat="43.397487901470214" lon="5.9165800163169076"><ele>331.75</ele><time>2026-04-11T14:50:55Z</time></trkpt><trkpt lat="43.397427832205885" lon="5.916553575411878"><ele>329.5</ele><time>2026-04-11T14:50:56Z</time></trkpt><trkpt lat="43.39736141995603" lon="5.916441981080053"><ele>327.25</ele><time>2026-04-11T14:50:58Z</time></trkpt><trkpt lat="43.39730813723002" lon="5.916185475447698"><ele>325.0</ele><time>2026-04-11T14:51:00Z</time></trkpt><trkpt lat="43.39729738913742" lon="5.916052231495673"><ele>325.0</ele><time>2026-04-11T14:51:01Z</time></trkpt><trkpt lat="43.39728415001486" lon="5.915926270954328"><ele>325.0</ele><time>2026-04-11T14:51:02Z</time></trkpt><trkpt lat="43.39728052688273" lon="5.915803368921171"><ele>325.0</ele><time>2026-04-11T14:51:03Z</time></trkpt><trkpt lat="43.39726614038664" lon="5.915692773307859"><ele>325.0</ele><time>2026-04-11T14:51:04Z</time></trkpt><trkpt lat="43.39721749632738" lon="5.91563186396862"><ele>325.0</ele><time>2026-04-11T14:51:05Z</time></trkpt><trkpt lat="43.39715932073154" lon="5.915577809489075"><ele>325.0</ele><time>2026-04-11T14:51:06Z</time></trkpt><trkpt lat="43.39708487477541" lon="5.915491599844643"><ele>326.0</ele><time>2026-04-11T14:51:07Z</time></trkpt><trkpt lat="43.39702718691465" lon="5.915411305931213"><ele>327.0</ele><time>2026-04-11T14:51:08Z</time></trkpt><trkpt lat="43.39697106861309" lon="5.915298891453202"><ele>328.0</ele><time>2026-04-11T14:51:10Z</time></trkpt><trkpt lat="43.39700357829705" lon="5.9151254115535234"><ele>329.0</ele><time>2026-04-11T14:51:12Z</time></trkpt><trkpt lat="43.39702697917451" lon="5.915009614007381"><ele>330.0</ele><time>2026-04-11T14:51:13Z</time></trkpt><trkpt lat="43.39705826534058" lon="5.914913398912701"><ele>330.0</ele><time>2026-04-11T14:51:14Z</time></trkpt><trkpt lat="43.397099811240686" lon="5.914844973333916"><ele>330.0</ele><time>2026-04-11T14:51:15Z</time></trkpt><trkpt lat="43.397203745145326" lon="5.914860145038378"><ele>330.0</ele><time>2026-04-11T14:51:18Z</time></trkpt><trkpt lat="43.39725365719839" lon="5.9149160243185746"><ele>330.0</ele><time>2026-04-11T14:51:19Z</time></trkpt><trkpt lat="43.39733742163029" lon="5.914982207204752"><ele>330.0</ele><time>2026-04-11T14:51:20Z</time></trkpt><trkpt lat="43.3974243490989" lon="5.915045201578126"><ele>330.0</ele><time>2026-04-11T14:51:21Z</time></trkpt><trkpt lat="43.39748011799088" lon="5.915093950398238"><ele>328.8</ele><time>2026-04-11T14:51:22Z</time></trkpt><trkpt lat="43.39750967327455" lon="5.915193829232836"><ele>327.6</ele><time>2026-04-11T14:51:23Z</time></trkpt><trkpt lat="43.39754645962768" lon="5.91527285364297"><ele>326.4</ele><time>2026-04-11T14:51:24Z</time></trkpt><trkpt lat="43.397586252265064" lon="5.915344429576897"><ele>325.2</ele><time>2026-04-11T14:51:25Z</time></trkpt><trkpt lat="43.39770991005315" lon="5.9154552326489345"><ele>324.0</ele><time>2026-04-11T14:51:27Z</time></trkpt><trkpt lat="43.397801401126195" lon="5.91550583120802"><ele>324.0</ele><time>2026-04-11T14:51:28Z</time></trkpt><trkpt lat="43.39791465934201" lon="5.915543331922932"><ele>324.0</ele><time>2026-04-11T14:51:29Z</time></trkpt><trkpt lat="43.39804480355484" lon="5.915575681890946"><ele>324.0</ele><time>2026-04-11T14:51:30Z</time></trkpt><trkpt lat="43.398159684251574" lon="5.9156028442848"><ele>324.0</ele><time>2026-04-11T14:51:31Z</time></trkpt><trkpt lat="43.398255559350815" lon="5.915611574605308"><ele>323.8333333333333</ele><time>2026-04-11T14:51:32Z</time></trkpt><trkpt lat="43.39834780911186" lon="5.915584470188448"><ele>323.6666666666667</ele><time>2026-04-11T14:51:33Z</time></trkpt><trkpt lat="43.39841239204938" lon="5.915541319557887"><ele>323.5</ele><time>2026-04-11T14:51:34Z</time></trkpt><trkpt lat="43.398466011452776" lon="5.915470493748425"><ele>323.33333333333337</ele><time>2026-04-11T14:51:35Z</time></trkpt><trkpt lat="43.398539663536404" lon="5.91541176596289"><ele>323.1666666666667</ele><time>2026-04-11T14:51:36Z</time></trkpt><trkpt lat="43.398619270230505" lon="5.915377833471419"><ele>323.0</ele><time>2026-04-11T14:51:37Z</time></trkpt><trkpt lat="43.39870015009441" lon="5.9153785932686755"><ele>323.0</ele><time>2026-04-11T14:51:38Z</time></trkpt><trkpt lat="43.39879061395956" lon="5.9153314612376615"><ele>323.0</ele><time>2026-04-11T14:51:39Z</time></trkpt><trkpt lat="43.39889440731549" lon="5.915415553134724"><ele>323.0</ele><time>2026-04-11T14:51:40Z</time></trkpt><trkpt lat="43.398994510932404" lon="5.915434203835277"><ele>323.0</ele><time>2026-04-11T14:51:41Z</time></trkpt><trkpt lat="43.39907450063915" lon="5.915446388779402"><ele>323.0</ele><time>2026-04-11T14:51:42Z</time></trkpt><trkpt lat="43.39918475580684" lon="5.915463203741744"><ele>323.0</ele><time>2026-04-11T14:51:44Z</time></trkpt><trkpt lat="43.3992048460344" lon="5.9156075915837825"><ele>323.0</ele><time>2026-04-11T14:51:45Z</time></trkpt><trkpt lat="43.399253486410494" lon="5.915692342775468"><ele>323.0</ele><time>2026-04-11T14:51:46Z</time></trkpt><trkpt lat="43.39930905351813" lon="5.915810401654876"><ele>323.0</ele><time>2026-04-11T14:51:47Z</time></trkpt><trkpt lat="43.399394757182804" lon="5.915946903702542"><ele>323.0</ele><time>2026-04-11T14:51:48Z</time></trkpt><trkpt lat="43.399474282950216" lon="5.916052801673892"><ele>322.4</ele><time>2026-04-11T14:51:49Z</time></trkpt><trkpt lat="43.39955011956865" lon="5.916159232323649"><ele>321.79999999999995</ele><time>2026-04-11T14:51:50Z</time></trkpt><trkpt lat="43.399624853204244" lon="5.916265050578902"><ele>321.2</ele><time>2026-04-11T14:51:51Z</time></trkpt><trkpt lat="43.39969511579383" lon="5.916364847956289"><ele>320.6</ele><time>2026-04-11T14:51:52Z</time></trkpt><trkpt lat="43.399760310660405" lon="5.916443050109651"><ele>320.0</ele><time>2026-04-11T14:51:53Z</time></trkpt><trkpt lat="43.39984884491505" lon="5.916446642558298"><ele>320.0</ele><time>2026-04-11T14:51:54Z</time></trkpt><trkpt lat="43.39991834592769" lon="5.91648594001698"><ele>320.0</ele><time>2026-04-11T14:51:55Z</time></trkpt><trkpt lat="43.39998746407797" lon="5.9165279915845606"><ele>320.0</ele><time>2026-04-11T14:51:56Z</time></trkpt><trkpt lat="43.400008985152944" lon="5.9166187203841"><ele>320.0</ele><time>2026-04-11T14:51:57Z</time></trkpt><trkpt lat="43.40006894658588" lon="5.916722261617038"><ele>320.0</ele><time>2026-04-11T14:51:58Z</time></trkpt><trkpt lat="43.400150962777445" lon="5.916851014699142"><ele>320.0</ele><time>2026-04-11T14:51:59Z</time></trkpt><trkpt lat="43.40024458405769" lon="5.916941200633185"><ele>319.5</ele><time>2026-04-11T14:52:00Z</time></trkpt><trkpt lat="43.40032747717418" lon="5.917020494670234"><ele>319.0</ele><time>2026-04-11T14:52:01Z</time></trkpt><trkpt lat="43.40039736730718" lon="5.917109154479731"><ele>318.5</ele><time>2026-04-11T14:52:02Z</time></trkpt><trkpt lat="43.4004916582617" lon="5.917248669464236"><ele>318.0</ele><time>2026-04-11T14:52:03Z</time></trkpt><trkpt lat="43.40059067385374" lon="5.917391536038967"><ele>318.0</ele><time>2026-04-11T14:52:04Z</time></trkpt><trkpt lat="43.400692472407584" lon="5.917526940006607"><ele>318.0</ele><time>2026-04-11T14:52:05Z</time></trkpt><trkpt lat="43.40079236422758" lon="5.917653772998246"><ele>318.0</ele><time>2026-04-11T14:52:06Z</time></trkpt><trkpt lat="43.400894380987516" lon="5.917767467715374"><ele>318.0</ele><time>2026-04-11T14:52:07Z</time></trkpt><trkpt lat="43.400977682846865" lon="5.9178794019314"><ele>317.4</ele><time>2026-04-11T14:52:08Z</time></trkpt><trkpt lat="43.401062082345746" lon="5.9179948112476355"><ele>316.8</ele><time>2026-04-11T14:52:09Z</time></trkpt><trkpt lat="43.401154724289476" lon="5.918085185773228"><ele>316.2</ele><time>2026-04-11T14:52:10Z</time></trkpt><trkpt lat="43.401234142835065" lon="5.918163162900686"><ele>315.6</ele><time>2026-04-11T14:52:11Z</time></trkpt><trkpt lat="43.401316495423366" lon="5.918265413592086"><ele>315.0</ele><time>2026-04-11T14:52:12Z</time></trkpt><trkpt lat="43.40140277906614" lon="5.918355317781715"><ele>313.25</ele><time>2026-04-11T14:52:13Z</time></trkpt><trkpt lat="43.40152660147091" lon="5.918425737434348"><ele>311.5</ele><time>2026-04-11T14:52:14Z</time></trkpt><trkpt lat="43.40162275523302" lon="5.918502918674541"><ele>309.75</ele><time>2026-04-11T14:52:15Z</time></trkpt><trkpt lat="43.4017293497942" lon="5.918557918283468"><ele>308.0</ele><time>2026-04-11T14:52:16Z</time></trkpt><trkpt lat="43.40182710382544" lon="5.91860824133916"><ele>308.0</ele><time>2026-04-11T14:52:17Z</time></trkpt><trkpt lat="43.40191947941932" lon="5.918674283467357"><ele>308.0</ele><time>2026-04-11T14:52:18Z</time></trkpt><trkpt lat="43.40198504361975" lon="5.9187278728629344"><ele>308.0</ele><time>2026-04-11T14:52:19Z</time></trkpt><trkpt lat="43.40205981813456" lon="5.918785160547409"><ele>308.0</ele><time>2026-04-11T14:52:20Z</time></trkpt><trkpt lat="43.402161019321156" lon="5.918857960656323"><ele>308.0</ele><time>2026-04-11T14:52:21Z</time></trkpt><trkpt lat="43.40231578078744" lon="5.918969575326644"><ele>307.75</ele><time>2026-04-11T14:52:22Z</time></trkpt><trkpt lat="43.40244169841404" lon="5.91906032745307"><ele>307.5</ele><time>2026-04-11T14:52:23Z</time></trkpt><trkpt lat="43.40255441274805" lon="5.919145304232654"><ele>307.25</ele><time>2026-04-11T14:52:24Z</time></trkpt><trkpt lat="43.40265556516177" lon="5.919247857179382"><ele>307.0</ele><time>2026-04-11T14:52:25Z</time></trkpt><trkpt lat="43.40275171821305" lon="5.919350275408547"><ele>307.0</ele><time>2026-04-11T14:52:26Z</time></trkpt><trkpt lat="43.402840491163694" lon="5.919452680598748"><ele>307.0</ele><time>2026-04-11T14:52:27Z</time></trkpt><trkpt lat="43.402933637757734" lon="5.919556035561015"><ele>307.0</ele><time>2026-04-11T14:52:28Z</time></trkpt><trkpt lat="43.40301921144816" lon="5.9196154992388905"><ele>307.0</ele><time>2026-04-11T14:52:29Z</time></trkpt><trkpt lat="43.4030938058131" lon="5.919647021297788"><ele>307.0</ele><time>2026-04-11T14:52:30Z</time></trkpt><trkpt lat="43.403185564032746" lon="5.919672905388243"><ele>305.5</ele><time>2026-04-11T14:52:31Z</time></trkpt><trkpt lat="43.403321687638744" lon="5.919708337566716"><ele>304.0</ele><time>2026-04-11T14:52:32Z</time></trkpt><trkpt lat="43.4034201521338" lon="5.919770218625814"><ele>302.5</ele><time>2026-04-11T14:52:33Z</time></trkpt><trkpt lat="43.40356890602004" lon="5.919848167949586"><ele>301.0</ele><time>2026-04-11T14:52:34Z</time></trkpt><trkpt lat="43.403707047495956" lon="5.919926961218212"><ele>300.5</ele><time>2026-04-11T14:52:35Z</time></trkpt><trkpt lat="43.40383627197277" lon="5.919991640168573"><ele>300.0</ele><time>2026-04-11T14:52:36Z</time></trkpt><trkpt lat="43.403958256108865" lon="5.919993106455363"><ele>299.5</ele><time>2026-04-11T14:52:37Z</time></trkpt><trkpt lat="43.404073569890265" lon="5.919993012118971"><ele>299.0</ele><time>2026-04-11T14:52:38Z</time></trkpt><trkpt lat="43.404192120383634" lon="5.919979029666691"><ele>299.0</ele><time>2026-04-11T14:52:39Z</time></trkpt><trkpt lat="43.40432773534493" lon="5.919943206358348"><ele>299.0</ele><time>2026-04-11T14:52:40Z</time></trkpt><trkpt lat="43.404464465862866" lon="5.9198982350949265"><ele>299.0</ele><time>2026-04-11T14:52:41Z</time></trkpt><trkpt lat="43.40458815878549" lon="5.919835634567326"><ele>299.0</ele><time>2026-04-11T14:52:42Z</time></trkpt><trkpt lat="43.40468474865692" lon="5.919834936390644"><ele>299.4</ele><time>2026-04-11T14:52:43Z</time></trkpt><trkpt lat="43.404783663319606" lon="5.919877524769645"><ele>299.79999999999995</ele><time>2026-04-11T14:52:44Z</time></trkpt><trkpt lat="43.40487950480522" lon="5.919884446799228"><ele>300.20000000000005</ele><time>2026-04-11T14:52:45Z</time></trkpt><trkpt lat="43.404975406315906" lon="5.919844727943557"><ele>300.6</ele><time>2026-04-11T14:52:46Z</time></trkpt><trkpt lat="43.40506014942953" lon="5.919784085943644"><ele>301.0</ele><time>2026-04-11T14:52:47Z</time></trkpt><trkpt lat="43.40513720472077" lon="5.919690310161848"><ele>301.0</ele><time>2026-04-11T14:52:48Z</time></trkpt><trkpt lat="43.4052340669456" lon="5.919585686302822"><ele>301.0</ele><time>2026-04-11T14:52:49Z</time></trkpt><trkpt lat="43.405333594347766" lon="5.919497676981729"><ele>301.0</ele><time>2026-04-11T14:52:50Z</time></trkpt><trkpt lat="43.40541186652412" lon="5.919436335963666"><ele>301.0</ele><time>2026-04-11T14:52:51Z</time></trkpt><trkpt lat="43.40547545462772" lon="5.919411287797417"><ele>301.0</ele><time>2026-04-11T14:52:52Z</time></trkpt><trkpt lat="43.40555361675044" lon="5.919443236402906"><ele>301.40000000000003</ele><time>2026-04-11T14:52:53Z</time></trkpt><trkpt lat="43.40565468770395" lon="5.919465293648233"><ele>301.8</ele><time>2026-04-11T14:52:54Z</time></trkpt><trkpt lat="43.40577915643625" lon="5.919478207967742"><ele>302.20000000000005</ele><time>2026-04-11T14:52:55Z</time></trkpt><trkpt lat="43.405895745102626" lon="5.9194894941226845"><ele>302.6</ele><time>2026-04-11T14:52:56Z</time></trkpt><trkpt lat="43.40599255202305" lon="5.919493580308742"><ele>303.0</ele><time>2026-04-11T14:52:57Z</time></trkpt><trkpt lat="43.406083908872425" lon="5.919511078049379"><ele>303.0</ele><time>2026-04-11T14:52:59Z</time></trkpt><trkpt lat="43.40615826089123" lon="5.919527760031285"><ele>303.0</ele><time>2026-04-11T14:53:01Z</time></trkpt><trkpt lat="43.40623780437878" lon="5.919586972515055"><ele>303.0</ele><time>2026-04-11T14:53:04Z</time></trkpt><trkpt lat="43.40631209468995" lon="5.919472947938423"><ele>303.0</ele><time>2026-04-11T14:53:05Z</time></trkpt><trkpt lat="43.40626065950533" lon="5.919368427659284"><ele>303.0</ele><time>2026-04-11T14:53:08Z</time></trkpt><trkpt lat="43.40618994119962" lon="5.919358341946284"><ele>303.0</ele><time>2026-04-11T14:53:09Z</time></trkpt><trkpt lat="43.40630486632934" lon="5.919534209208126"><ele>302.6</ele><time>2026-04-11T14:53:10Z</time></trkpt><trkpt lat="43.40638708138977" lon="5.9195453620811955"><ele>302.20000000000005</ele><time>2026-04-11T14:53:13Z</time></trkpt><trkpt lat="43.40645571986473" lon="5.919656375106364"><ele>301.8</ele><time>2026-04-11T14:53:15Z</time></trkpt><trkpt lat="43.40649869866673" lon="5.9197301925752335"><ele>301.40000000000003</ele><time>2026-04-11T14:53:18Z</time></trkpt><trkpt lat="43.406565868238346" lon="5.919649401165461"><ele>301.0</ele><time>2026-04-11T14:53:22Z</time></trkpt><trkpt lat="43.40662228176061" lon="5.919496747364448"><ele>301.0</ele><time>2026-04-11T14:53:24Z</time></trkpt><trkpt lat="43.40667152219233" lon="5.919353364207833"><ele>301.0</ele><time>2026-04-11T14:53:25Z</time></trkpt><trkpt lat="43.40671011495822" lon="5.919254542762696"><ele>301.0</ele><time>2026-04-11T14:53:26Z</time></trkpt><trkpt lat="43.406744766776995" lon="5.91913913156601"><ele>301.0</ele><time>2026-04-11T14:53:27Z</time></trkpt><trkpt lat="43.40677246922771" lon="5.919035591285939"><ele>301.0</ele><time>2026-04-11T14:53:28Z</time></trkpt><trkpt lat="43.4068160180223" lon="5.9188848833073635"><ele>301.66666666666663</ele><time>2026-04-11T14:53:30Z</time></trkpt><trkpt lat="43.40682983260027" lon="5.918794602287254"><ele>302.3333333333333</ele><time>2026-04-11T14:53:31Z</time></trkpt><trkpt lat="43.40685838108341" lon="5.918608990482861"><ele>303.0</ele><time>2026-04-11T14:53:33Z</time></trkpt><trkpt lat="43.40687069400705" lon="5.918500257667763"><ele>303.6666666666667</ele><time>2026-04-11T14:53:34Z</time></trkpt><trkpt lat="43.406886678754894" lon="5.918393254519593"><ele>304.33333333333337</ele><time>2026-04-11T14:53:35Z</time></trkpt><trkpt lat="43.406910018757664" lon="5.918304501590439"><ele>305.0</ele><time>2026-04-11T14:53:36Z</time></trkpt><trkpt lat="43.40695335564684" lon="5.918239995614899"><ele>306.0</ele><time>2026-04-11T14:53:37Z</time></trkpt><trkpt lat="43.407061650311206" lon="5.9181446735397785"><ele>307.0</ele><time>2026-04-11T14:53:39Z</time></trkpt><trkpt lat="43.407131785136066" lon="5.918050458346416"><ele>308.0</ele><time>2026-04-11T14:53:40Z</time></trkpt><trkpt lat="43.40717377705537" lon="5.917983533816219"><ele>309.0</ele><time>2026-04-11T14:53:41Z</time></trkpt><trkpt lat="43.40720612380541" lon="5.917906194125611"><ele>310.0</ele><time>2026-04-11T14:53:42Z</time></trkpt><trkpt lat="43.40728968508802" lon="5.917794022721629"><ele>312.2</ele><time>2026-04-11T14:53:44Z</time></trkpt><trkpt lat="43.40737024715645" lon="5.917659863311716"><ele>314.4</ele><time>2026-04-11T14:53:46Z</time></trkpt><trkpt lat="43.407424569609624" lon="5.917522237630213"><ele>316.6</ele><time>2026-04-11T14:53:47Z</time></trkpt><trkpt lat="43.40746470041747" lon="5.917415454562965"><ele>318.8</ele><time>2026-04-11T14:53:48Z</time></trkpt><trkpt lat="43.407504506181866" lon="5.917305999299309"><ele>321.0</ele><time>2026-04-11T14:53:49Z</time></trkpt><trkpt lat="43.40756407071853" lon="5.917173316755024"><ele>321.0</ele><time>2026-04-11T14:53:51Z</time></trkpt><trkpt lat="43.40760334108114" lon="5.917058326126462"><ele>321.0</ele><time>2026-04-11T14:53:53Z</time></trkpt><trkpt lat="43.40765288038526" lon="5.9169390779262665"><ele>321.0</ele><time>2026-04-11T14:53:55Z</time></trkpt><trkpt lat="43.40771222962372" lon="5.916807351100438"><ele>321.0</ele><time>2026-04-11T14:53:56Z</time></trkpt><trkpt lat="43.407767830736645" lon="5.91668885339456"><ele>321.0</ele><time>2026-04-11T14:53:57Z</time></trkpt><trkpt lat="43.40781111311951" lon="5.916593056027903"><ele>321.0</ele><time>2026-04-11T14:53:58Z</time></trkpt><trkpt lat="43.40785212058878" lon="5.91649512498178"><ele>321.0</ele><time>2026-04-11T14:53:59Z</time></trkpt><trkpt lat="43.4078877012611" lon="5.916366578033131"><ele>321.0</ele><time>2026-04-11T14:54:00Z</time></trkpt><trkpt lat="43.40794271353736" lon="5.9161716091131735"><ele>321.0</ele><time>2026-04-11T14:54:01Z</time></trkpt><trkpt lat="43.40798010567196" lon="5.91602718946714"><ele>321.0</ele><time>2026-04-11T14:54:02Z</time></trkpt><trkpt lat="43.40802160204639" lon="5.915897015619808"><ele>320.8</ele><time>2026-04-11T14:54:03Z</time></trkpt><trkpt lat="43.40806420886237" lon="5.915785068078004"><ele>320.6</ele><time>2026-04-11T14:54:04Z</time></trkpt><trkpt lat="43.40810051350269" lon="5.915670018926142"><ele>320.4</ele><time>2026-04-11T14:54:05Z</time></trkpt><trkpt lat="43.40813085567075" lon="5.915569578412532"><ele>320.2</ele><time>2026-04-11T14:54:06Z</time></trkpt><trkpt lat="43.40819950254124" lon="5.915407894073542"><ele>320.0</ele><time>2026-04-11T14:54:08Z</time></trkpt><trkpt lat="43.408226456455495" lon="5.915315813893056"><ele>320.0</ele><time>2026-04-11T14:54:09Z</time></trkpt><trkpt lat="43.40825099614726" lon="5.915224203405096"><ele>320.0</ele><time>2026-04-11T14:54:10Z</time></trkpt><trkpt lat="43.40830111106439" lon="5.915075524708467"><ele>320.0</ele><time>2026-04-11T14:54:12Z</time></trkpt><trkpt lat="43.40832792189296" lon="5.91494338865105"><ele>320.0</ele><time>2026-04-11T14:54:14Z</time></trkpt><trkpt lat="43.40834829273005" lon="5.9148299073412955"><ele>320.0</ele><time>2026-04-11T14:54:16Z</time></trkpt><trkpt lat="43.40835506694551" lon="5.914715988201602"><ele>319.8</ele><time>2026-04-11T14:54:18Z</time></trkpt><trkpt lat="43.40836198249851" lon="5.914593069653761"><ele>319.6</ele><time>2026-04-11T14:54:20Z</time></trkpt><trkpt lat="43.408378027010315" lon="5.914468537148743"><ele>319.4</ele><time>2026-04-11T14:54:22Z</time></trkpt><trkpt lat="43.40839245663769" lon="5.914326363866407"><ele>319.2</ele><time>2026-04-11T14:54:24Z</time></trkpt><trkpt lat="43.40842587200793" lon="5.914155657694326"><ele>319.0</ele><time>2026-04-11T14:54:26Z</time></trkpt><trkpt lat="43.40845082261647" lon="5.914041753393995"><ele>318.5</ele><time>2026-04-11T14:54:27Z</time></trkpt><trkpt lat="43.40846075445108" lon="5.913915741723675"><ele>318.0</ele><time>2026-04-11T14:54:28Z</time></trkpt><trkpt lat="43.4084863103537" lon="5.913806233373542"><ele>317.5</ele><time>2026-04-11T14:54:29Z</time></trkpt><trkpt lat="43.408516634047224" lon="5.9136949889530745"><ele>317.0</ele><time>2026-04-11T14:54:30Z</time></trkpt><trkpt lat="43.40855468864647" lon="5.913600872990783"><ele>316.5</ele><time>2026-04-11T14:54:31Z</time></trkpt><trkpt lat="43.40858226994614" lon="5.913506448970269"><ele>316.0</ele><time>2026-04-11T14:54:32Z</time></trkpt><trkpt lat="43.40860189314633" lon="5.913415734596237"><ele>315.8333333333333</ele><time>2026-04-11T14:54:33Z</time></trkpt><trkpt lat="43.408619965497245" lon="5.913329867489005"><ele>315.66666666666663</ele><time>2026-04-11T14:54:34Z</time></trkpt><trkpt lat="43.408648595878375" lon="5.913191492223156"><ele>315.5</ele><time>2026-04-11T14:54:36Z</time></trkpt><trkpt lat="43.408687040596675" lon="5.913103599120965"><ele>315.3333333333333</ele><time>2026-04-11T14:54:43Z</time></trkpt><trkpt lat="43.408679846731324" lon="5.913014342360357"><ele>315.1666666666667</ele><time>2026-04-11T14:55:07Z</time></trkpt><trkpt lat="43.40868869838899" lon="5.91289376516552"><ele>315.0</ele><time>2026-04-11T14:55:14Z</time></trkpt><trkpt lat="43.408740990705454" lon="5.912784683072339"><ele>315.0</ele><time>2026-04-11T14:55:15Z</time></trkpt><trkpt lat="43.40882184475833" lon="5.91275330767193"><ele>315.0</ele><time>2026-04-11T14:55:17Z</time></trkpt><trkpt lat="43.408966324091224" lon="5.91268638058157"><ele>315.0</ele><time>2026-04-11T14:55:20Z</time></trkpt><trkpt lat="43.40907496585159" lon="5.9126561679998435"><ele>315.0</ele><time>2026-04-11T14:55:21Z</time></trkpt><trkpt lat="43.409172729011765" lon="5.912623777127882"><ele>315.0</ele><time>2026-04-11T14:55:22Z</time></trkpt><trkpt lat="43.40927436422036" lon="5.912604327522546"><ele>315.1666666666667</ele><time>2026-04-11T14:55:23Z</time></trkpt><trkpt lat="43.40936481888897" lon="5.912599231003156"><ele>315.3333333333333</ele><time>2026-04-11T14:55:24Z</time></trkpt><trkpt lat="43.40944601555596" lon="5.912591179366995"><ele>315.5</ele><time>2026-04-11T14:55:25Z</time></trkpt><trkpt lat="43.40952685462931" lon="5.912557797525452"><ele>315.66666666666663</ele><time>2026-04-11T14:55:26Z</time></trkpt><trkpt lat="43.409602323932354" lon="5.912514773432528"><ele>315.8333333333333</ele><time>2026-04-11T14:55:27Z</time></trkpt><trkpt lat="43.4096601083006" lon="5.912477534131714"><ele>316.0</ele><time>2026-04-11T14:55:28Z</time></trkpt><trkpt lat="43.409740611145736" lon="5.912395195637028"><ele>311.5</ele><time>2026-04-11T14:55:31Z</time></trkpt><trkpt lat="43.409808160744355" lon="5.912249492319826"><ele>307.0</ele><time>2026-04-11T14:55:33Z</time></trkpt><trkpt lat="43.40985424409608" lon="5.91216033846819"><ele>302.5</ele><time>2026-04-11T14:55:34Z</time></trkpt><trkpt lat="43.40992591456346" lon="5.9121405507989815"><ele>298.0</ele><time>2026-04-11T14:55:35Z</time></trkpt><trkpt lat="43.41012319872485" lon="5.912315353133376"><ele>298.0</ele><time>2026-04-11T14:55:42Z</time></trkpt><trkpt lat="43.41019932666804" lon="5.912381831003903"><ele>298.0</ele><time>2026-04-11T14:55:43Z</time></trkpt><trkpt lat="43.41029357445848" lon="5.912471509054448"><ele>298.0</ele><time>2026-04-11T14:55:44Z</time></trkpt><trkpt lat="43.4103969849501" lon="5.912581222123861"><ele>298.0</ele><time>2026-04-11T14:55:45Z</time></trkpt><trkpt lat="43.41050620299944" lon="5.912693478551482"><ele>297.6</ele><time>2026-04-11T14:55:46Z</time></trkpt><trkpt lat="43.41059755078862" lon="5.912788730901114"><ele>297.20000000000005</ele><time>2026-04-11T14:55:47Z</time></trkpt><trkpt lat="43.410679388303556" lon="5.912874080079542"><ele>296.8</ele><time>2026-04-11T14:55:48Z</time></trkpt><trkpt lat="43.41075402889606" lon="5.912932055059899"><ele>296.40000000000003</ele><time>2026-04-11T14:55:49Z</time></trkpt><trkpt lat="43.41082927609752" lon="5.91299133701389"><ele>296.0</ele><time>2026-04-11T14:55:50Z</time></trkpt><trkpt lat="43.41094497621052" lon="5.913115694268594"><ele>296.0</ele><time>2026-04-11T14:55:52Z</time></trkpt><trkpt lat="43.41102840986889" lon="5.913232970480041"><ele>296.0</ele><time>2026-04-11T14:55:53Z</time></trkpt><trkpt lat="43.41113399010754" lon="5.913371162225574"><ele>296.0</ele><time>2026-04-11T14:55:54Z</time></trkpt><trkpt lat="43.41123719790166" lon="5.913504218045807"><ele>296.0</ele><time>2026-04-11T14:55:55Z</time></trkpt><trkpt lat="43.41132394684281" lon="5.913619560876587"><ele>296.25</ele><time>2026-04-11T14:55:56Z</time></trkpt><trkpt lat="43.41140686754763" lon="5.913718791957994"><ele>296.5</ele><time>2026-04-11T14:55:57Z</time></trkpt><trkpt lat="43.41149075925937" lon="5.913818759775927"><ele>296.75</ele><time>2026-04-11T14:55:58Z</time></trkpt><trkpt lat="43.41158940248912" lon="5.913945685123595"><ele>297.0</ele><time>2026-04-11T14:55:59Z</time></trkpt><trkpt lat="43.41169781057477" lon="5.9140806927905105"><ele>297.3333333333333</ele><time>2026-04-11T14:56:00Z</time></trkpt><trkpt lat="43.41181900406443" lon="5.9142393564594595"><ele>297.66666666666663</ele><time>2026-04-11T14:56:01Z</time></trkpt><trkpt lat="43.41193508169195" lon="5.914390154559214"><ele>298.0</ele><time>2026-04-11T14:56:02Z</time></trkpt><trkpt lat="43.41204314284434" lon="5.914529635986896"><ele>297.66666666666663</ele><time>2026-04-11T14:56:03Z</time></trkpt><trkpt lat="43.41215819879484" lon="5.91467490384427"><ele>297.3333333333333</ele><time>2026-04-11T14:56:04Z</time></trkpt><trkpt lat="43.41228891169162" lon="5.914836847765479"><ele>297.0</ele><time>2026-04-11T14:56:05Z</time></trkpt><trkpt lat="43.412425568969525" lon="5.915010617142381"><ele>296.6666666666667</ele><time>2026-04-11T14:56:06Z</time></trkpt><trkpt lat="43.41255804234695" lon="5.91518345464595"><ele>296.33333333333337</ele><time>2026-04-11T14:56:07Z</time></trkpt><trkpt lat="43.412675422706485" lon="5.915336735225114"><ele>296.0</ele><time>2026-04-11T14:56:08Z</time></trkpt><trkpt lat="43.41278543363155" lon="5.915477088217262"><ele>296.0</ele><time>2026-04-11T14:56:09Z</time></trkpt><trkpt lat="43.412887264006734" lon="5.915611800605118"><ele>296.0</ele><time>2026-04-11T14:56:10Z</time></trkpt><trkpt lat="43.41299112060806" lon="5.915742725648107"><ele>296.0</ele><time>2026-04-11T14:56:11Z</time></trkpt><trkpt lat="43.41310488515176" lon="5.915883278034796"><ele>296.0</ele><time>2026-04-11T14:56:12Z</time></trkpt><trkpt lat="43.41322225344056" lon="5.916034023789967"><ele>296.5</ele><time>2026-04-11T14:56:13Z</time></trkpt><trkpt lat="43.41333780521227" lon="5.916189270873154"><ele>297.0</ele><time>2026-04-11T14:56:14Z</time></trkpt><trkpt lat="43.413448503113194" lon="5.916333607269495"><ele>297.5</ele><time>2026-04-11T14:56:15Z</time></trkpt><trkpt lat="43.41354805381238" lon="5.916457811315461"><ele>298.0</ele><time>2026-04-11T14:56:16Z</time></trkpt><trkpt lat="43.41364181579876" lon="5.916578688926547"><ele>298.0</ele><time>2026-04-11T14:56:17Z</time></trkpt><trkpt lat="43.41372778694315" lon="5.916691213420007"><ele>298.0</ele><time>2026-04-11T14:56:18Z</time></trkpt><trkpt lat="43.41380852815648" lon="5.916799255476708"><ele>298.0</ele><time>2026-04-11T14:56:19Z</time></trkpt><trkpt lat="43.41388644285789" lon="5.9168982761498095"><ele>298.0</ele><time>2026-04-11T14:56:20Z</time></trkpt><trkpt lat="43.41395374622222" lon="5.916980650630744"><ele>298.0</ele><time>2026-04-11T14:56:21Z</time></trkpt><trkpt lat="43.41400959527376" lon="5.917049117783431"><ele>298.3333333333333</ele><time>2026-04-11T14:56:22Z</time></trkpt><trkpt lat="43.41407825226826" lon="5.917162368763847"><ele>298.66666666666663</ele><time>2026-04-11T14:56:24Z</time></trkpt><trkpt lat="43.41413220747431" lon="5.917239353425831"><ele>299.0</ele><time>2026-04-11T14:56:34Z</time></trkpt><trkpt lat="43.41419202026445" lon="5.917288777911957"><ele>299.3333333333333</ele><time>2026-04-11T14:56:36Z</time></trkpt><trkpt lat="43.414264966757344" lon="5.917369767830219"><ele>299.6666666666667</ele><time>2026-04-11T14:56:37Z</time></trkpt><trkpt lat="43.41432445912135" lon="5.917450656976161"><ele>300.0</ele><time>2026-04-11T14:56:38Z</time></trkpt><trkpt lat="43.41438258829001" lon="5.917529635659249"><ele>300.5</ele><time>2026-04-11T14:56:39Z</time></trkpt><trkpt lat="43.41444176605999" lon="5.917618788480476"><ele>301.0</ele><time>2026-04-11T14:56:40Z</time></trkpt><trkpt lat="43.414484883778314" lon="5.917700096893182"><ele>301.5</ele><time>2026-04-11T14:56:41Z</time></trkpt><trkpt lat="43.41452075541951" lon="5.9178112341984965"><ele>302.0</ele><time>2026-04-11T14:56:43Z</time></trkpt><trkpt lat="43.41449027061488" lon="5.917893088531427"><ele>302.5</ele><time>2026-04-11T14:56:45Z</time></trkpt><trkpt lat="43.4143883987512" lon="5.917905254760275"><ele>303.0</ele><time>2026-04-11T14:56:47Z</time></trkpt><trkpt lat="43.41432664309292" lon="5.917946165200872"><ele>303.0</ele><time>2026-04-11T14:56:49Z</time></trkpt><trkpt lat="43.414269353713614" lon="5.917990271076312"><ele>303.0</ele><time>2026-04-11T15:00:46.999Z</time></trkpt><trkpt lat="43.414354628804865" lon="5.917999484491481"><ele>303.0</ele><time>2026-04-11T15:00:49.999Z</time></trkpt><trkpt lat="43.41439392334663" lon="5.917925993558112"><ele>303.0</ele><time>2026-04-11T15:00:50.999Z</time></trkpt><trkpt lat="43.41443787599825" lon="5.917861712142736"><ele>303.0</ele><time>2026-04-11T15:00:51.999Z</time></trkpt><trkpt lat="43.414505827815866" lon="5.917790054362721"><ele>303.0</ele><time>2026-04-11T15:00:53.999Z</time></trkpt><trkpt lat="43.41456483283188" lon="5.917687984870259"><ele>303.0</ele><time>2026-04-11T15:00:57.999Z</time></trkpt><trkpt lat="43.41455149792206" lon="5.917588778764351"><ele>303.0</ele><time>2026-04-11T15:00:59.999Z</time></trkpt><trkpt lat="43.4144897567799" lon="5.917519558159938"><ele>303.0</ele><time>2026-04-11T15:01:00.999Z</time></trkpt><trkpt lat="43.414414634330825" lon="5.91744004501904"><ele>303.0</ele><time>2026-04-11T15:01:01.999Z</time></trkpt><trkpt lat="43.414323110449914" lon="5.917340102143244"><ele>303.0</ele><time>2026-04-11T15:01:02.999Z</time></trkpt><trkpt lat="43.414226276138436" lon="5.917221676969195"><ele>302.5</ele><time>2026-04-11T15:01:03.999Z</time></trkpt><trkpt lat="43.41414732844499" lon="5.917117764682299"><ele>302.0</ele><time>2026-04-11T15:01:04.999Z</time></trkpt><trkpt lat="43.41407931484538" lon="5.917031852899346"><ele>301.5</ele><time>2026-04-11T15:01:05.999Z</time></trkpt><trkpt lat="43.41402210470965" lon="5.916962509199232"><ele>301.0</ele><time>2026-04-11T15:01:06.999Z</time></trkpt><trkpt lat="43.41397206092133" lon="5.916856085927279"><ele>300.5</ele><time>2026-04-11T15:01:08.999Z</time></trkpt><trkpt lat="43.41402533182455" lon="5.916777334088945"><ele>300.0</ele><time>2026-04-11T15:01:10.999Z</time></trkpt><trkpt lat="43.4141751332017" lon="5.916755371489583"><ele>300.0</ele><time>2026-04-11T15:01:13Z</time></trkpt><trkpt lat="43.41427914552566" lon="5.916757957749423"><ele>300.0</ele><time>2026-04-11T15:01:14Z</time></trkpt><trkpt lat="43.41435498741604" lon="5.916724225034362"><ele>300.0</ele><time>2026-04-11T15:01:15Z</time></trkpt><trkpt lat="43.414405452743516" lon="5.916656146248302"><ele>300.0</ele><time>2026-04-11T15:01:16Z</time></trkpt><trkpt lat="43.414444683481655" lon="5.916580982105888"><ele>300.0</ele><time>2026-04-11T15:01:17Z</time></trkpt><trkpt lat="43.414486666801295" lon="5.916447118329949"><ele>300.0</ele><time>2026-04-11T15:01:19Z</time></trkpt><trkpt lat="43.41458730637033" lon="5.916316773054307"><ele>300.5</ele><time>2026-04-11T15:01:29Z</time></trkpt><trkpt lat="43.41468461072094" lon="5.916271061582084"><ele>301.0</ele><time>2026-04-11T15:01:30Z</time></trkpt><trkpt lat="43.41478640090417" lon="5.916213635494862"><ele>301.5</ele><time>2026-04-11T15:01:31Z</time></trkpt><trkpt lat="43.41489929024119" lon="5.916212679570407"><ele>302.0</ele><time>2026-04-11T15:01:32Z</time></trkpt><trkpt lat="43.41506299027739" lon="5.916111361483363"><ele>302.0</ele><time>2026-04-11T15:01:33Z</time></trkpt><trkpt lat="43.41518789732817" lon="5.916030378262402"><ele>302.0</ele><time>2026-04-11T15:01:34Z</time></trkpt><trkpt lat="43.41530174287412" lon="5.915956024850966"><ele>302.0</ele><time>2026-04-11T15:01:35Z</time></trkpt><trkpt lat="43.41542235489558" lon="5.915872020166885"><ele>302.0</ele><time>2026-04-11T15:01:36Z</time></trkpt><trkpt lat="43.41554500387796" lon="5.915755081153424"><ele>303.33333333333337</ele><time>2026-04-11T15:01:37Z</time></trkpt><trkpt lat="43.41568172172479" lon="5.915598571038331"><ele>304.6666666666667</ele><time>2026-04-11T15:01:38Z</time></trkpt><trkpt lat="43.415826717542295" lon="5.915429210104193"><ele>306.0</ele><time>2026-04-11T15:01:39Z</time></trkpt><trkpt lat="43.41595060743581" lon="5.915275414002527"><ele>306.0</ele><time>2026-04-11T15:01:40Z</time></trkpt><trkpt lat="43.41605007324784" lon="5.91513306442947"><ele>306.0</ele><time>2026-04-11T15:01:41Z</time></trkpt><trkpt lat="43.4161517592515" lon="5.914979126478856"><ele>306.0</ele><time>2026-04-11T15:01:42Z</time></trkpt><trkpt lat="43.416231697668024" lon="5.914837675623889"><ele>306.0</ele><time>2026-04-11T15:01:43Z</time></trkpt><trkpt lat="43.41630215151761" lon="5.91470738094393"><ele>305.75</ele><time>2026-04-11T15:01:44Z</time></trkpt><trkpt lat="43.416383233010144" lon="5.914546274587374"><ele>305.5</ele><time>2026-04-11T15:01:45Z</time></trkpt><trkpt lat="43.416465139413376" lon="5.9143869035468555"><ele>305.25</ele><time>2026-04-11T15:01:46Z</time></trkpt><trkpt lat="43.41653730182193" lon="5.914234581807289"><ele>305.0</ele><time>2026-04-11T15:01:47Z</time></trkpt><trkpt lat="43.41659987151071" lon="5.9140976587888465"><ele>306.0</ele><time>2026-04-11T15:01:48Z</time></trkpt><trkpt lat="43.41666352136004" lon="5.913966244811913"><ele>307.0</ele><time>2026-04-11T15:01:49Z</time></trkpt><trkpt lat="43.41673437050146" lon="5.913825279402487"><ele>308.0</ele><time>2026-04-11T15:01:50Z</time></trkpt><trkpt lat="43.41679953421856" lon="5.9136910798141615"><ele>309.0</ele><time>2026-04-11T15:01:51Z</time></trkpt><trkpt lat="43.41686864114649" lon="5.913552653496787"><ele>309.0</ele><time>2026-04-11T15:01:52Z</time></trkpt><trkpt lat="43.41694200688558" lon="5.913418219698743"><ele>309.0</ele><time>2026-04-11T15:01:53Z</time></trkpt><trkpt lat="43.417041198022844" lon="5.913234407721284"><ele>309.0</ele><time>2026-04-11T15:01:54Z</time></trkpt><trkpt lat="43.4171503318103" lon="5.913017343317403"><ele>307.3333333333333</ele><time>2026-04-11T15:01:55Z</time></trkpt><trkpt lat="43.417256137185674" lon="5.912811571913895"><ele>305.66666666666663</ele><time>2026-04-11T15:01:56Z</time></trkpt><trkpt lat="43.417358570660824" lon="5.912613853388401"><ele>304.0</ele><time>2026-04-11T15:01:57Z</time></trkpt><trkpt lat="43.417453254977254" lon="5.912432829835301"><ele>303.3333333333333</ele><time>2026-04-11T15:01:58Z</time></trkpt><trkpt lat="43.41753360494089" lon="5.912275603193718"><ele>302.6666666666667</ele><time>2026-04-11T15:01:59Z</time></trkpt><trkpt lat="43.4176242893344" lon="5.912086776818539"><ele>302.0</ele><time>2026-04-11T15:02:00Z</time></trkpt><trkpt lat="43.41771626552854" lon="5.9118976652478885"><ele>303.0</ele><time>2026-04-11T15:02:01Z</time></trkpt><trkpt lat="43.41782174743351" lon="5.911669133822312"><ele>304.0</ele><time>2026-04-11T15:02:02Z</time></trkpt><trkpt lat="43.41792049487003" lon="5.911469138891762"><ele>305.0</ele><time>2026-04-11T15:02:03Z</time></trkpt><trkpt lat="43.418002682483525" lon="5.91129221807927"><ele>305.0</ele><time>2026-04-11T15:02:04Z</time></trkpt><trkpt lat="43.418089456308174" lon="5.911104167043326"><ele>305.0</ele><time>2026-04-11T15:02:05Z</time></trkpt><trkpt lat="43.4181680340299" lon="5.910941456577278"><ele>305.0</ele><time>2026-04-11T15:02:06Z</time></trkpt><trkpt lat="43.41825098575372" lon="5.910763016862276"><ele>307.5</ele><time>2026-04-11T15:02:07Z</time></trkpt><trkpt lat="43.41832667358413" lon="5.910589681720545"><ele>310.0</ele><time>2026-04-11T15:02:08Z</time></trkpt><trkpt lat="43.41870234070054" lon="5.91051411864546"><ele>310.0</ele><time>2026-04-11T15:02:10Z</time></trkpt><trkpt lat="43.418783429776816" lon="5.9103516200681385"><ele>310.0</ele><time>2026-04-11T15:02:11Z</time></trkpt><trkpt lat="43.41885811486399" lon="5.9102019553616545"><ele>310.0</ele><time>2026-04-11T15:02:12Z</time></trkpt><trkpt lat="43.418922976474" lon="5.910071976002032"><ele>310.0</ele><time>2026-04-11T15:02:13Z</time></trkpt><trkpt lat="43.418971738750024" lon="5.909974260244511"><ele>309.5</ele><time>2026-04-11T15:02:14Z</time></trkpt><trkpt lat="43.419030357899786" lon="5.909856696387662"><ele>309.0</ele><time>2026-04-11T15:02:15Z</time></trkpt><trkpt lat="43.41911223002546" lon="5.909692520566157"><ele>308.5</ele><time>2026-04-11T15:02:16Z</time></trkpt><trkpt lat="43.41917997898917" lon="5.909556665684762"><ele>308.0</ele><time>2026-04-11T15:02:17Z</time></trkpt><trkpt lat="43.41924736378931" lon="5.909421540901922"><ele>308.0</ele><time>2026-04-11T15:02:18Z</time></trkpt><trkpt lat="43.41931521002935" lon="5.909285490836379"><ele>308.0</ele><time>2026-04-11T15:02:19Z</time></trkpt><trkpt lat="43.41937323661727" lon="5.909168573622693"><ele>308.0</ele><time>2026-04-11T15:02:20Z</time></trkpt><trkpt lat="43.41942978876621" lon="5.909054570917903"><ele>308.0</ele><time>2026-04-11T15:02:21Z</time></trkpt><trkpt lat="43.419484929028975" lon="5.908943414186817"><ele>308.0</ele><time>2026-04-11T15:02:22Z</time></trkpt><trkpt lat="43.419532655332" lon="5.908847203303914"><ele>308.4</ele><time>2026-04-11T15:02:23Z</time></trkpt><trkpt lat="43.419581301402566" lon="5.908749138246029"><ele>308.8</ele><time>2026-04-11T15:02:24Z</time></trkpt><trkpt lat="43.41963358440404" lon="5.908643741542684"><ele>309.2</ele><time>2026-04-11T15:02:25Z</time></trkpt><trkpt lat="43.41970214746569" lon="5.908507230396375"><ele>309.6</ele><time>2026-04-11T15:02:26Z</time></trkpt><trkpt lat="43.41977771352378" lon="5.9083580742648785"><ele>310.0</ele><time>2026-04-11T15:02:27Z</time></trkpt><trkpt lat="43.41983642164518" lon="5.908245345907867"><ele>309.66666666666663</ele><time>2026-04-11T15:02:28Z</time></trkpt><trkpt lat="43.4196445604626" lon="5.9079520776391234"><ele>309.3333333333333</ele><time>2026-04-11T15:02:29Z</time></trkpt><trkpt lat="43.41973109632471" lon="5.907994177801493"><ele>309.0</ele><time>2026-04-11T15:02:31Z</time></trkpt><trkpt lat="43.41979533273071" lon="5.908118958081906"><ele>310.0</ele><time>2026-04-11T15:02:33Z</time></trkpt><trkpt lat="43.41984904152567" lon="5.9081919408160495"><ele>311.0</ele><time>2026-04-11T15:02:40Z</time></trkpt><trkpt lat="43.419910660094494" lon="5.908172208547963"><ele>312.0</ele><time>2026-04-11T15:02:41Z</time></trkpt><trkpt lat="43.419972351887566" lon="5.908083085454851"><ele>313.0</ele><time>2026-04-11T15:02:42Z</time></trkpt><trkpt lat="43.42003245480906" lon="5.907951845826752"><ele>314.0</ele><time>2026-04-11T15:02:43Z</time></trkpt><trkpt lat="43.420107914216445" lon="5.907839558565994"><ele>314.0</ele><time>2026-04-11T15:02:43.999Z</time></trkpt><trkpt lat="43.42019177134568" lon="5.907771524838611"><ele>314.0</ele><time>2026-04-11T15:02:44.999Z</time></trkpt><trkpt lat="43.42026855552459" lon="5.90772637255941"><ele>314.0</ele><time>2026-04-11T15:02:45.999Z</time></trkpt><trkpt lat="43.420331383522516" lon="5.9077089578771425"><ele>314.0</ele><time>2026-04-11T15:02:46.999Z</time></trkpt><trkpt lat="43.42041063779828" lon="5.907714311607581"><ele>314.0</ele><time>2026-04-11T15:02:48.999Z</time></trkpt><trkpt lat="43.42063522243956" lon="5.907667405208156"><ele>314.5</ele><time>2026-04-11T15:03:00.999Z</time></trkpt><trkpt lat="43.42071909872019" lon="5.907647673556347"><ele>315.0</ele><time>2026-04-11T15:03:01.999Z</time></trkpt><trkpt lat="43.42080828454551" lon="5.90759985728068"><ele>315.5</ele><time>2026-04-11T15:03:02.999Z</time></trkpt><trkpt lat="43.42088989673704" lon="5.907564174956419"><ele>316.0</ele><time>2026-04-11T15:03:03.999Z</time></trkpt><trkpt lat="43.42096536715057" lon="5.907539875834642"><ele>316.5</ele><time>2026-04-11T15:03:04.999Z</time></trkpt><trkpt lat="43.421061824899574" lon="5.90752482495332"><ele>317.0</ele><time>2026-04-11T15:03:05.999Z</time></trkpt><trkpt lat="43.421158286190895" lon="5.907506094988719"><ele>316.0</ele><time>2026-04-11T15:03:06.999Z</time></trkpt><trkpt lat="43.42123651606125" lon="5.907466685100978"><ele>315.0</ele><time>2026-04-11T15:03:07.999Z</time></trkpt><trkpt lat="43.421304496878264" lon="5.907414099012964"><ele>314.0</ele><time>2026-04-11T15:03:08.999Z</time></trkpt><trkpt lat="43.42136197364727" lon="5.907376377965987"><ele>313.0</ele><time>2026-04-11T15:03:09.999Z</time></trkpt><trkpt lat="43.42144218415603" lon="5.90736566353476"><ele>312.0</ele><time>2026-04-11T15:03:11.999Z</time></trkpt><trkpt lat="43.42152018208453" lon="5.907274924116464"><ele>311.0</ele><time>2026-04-11T15:03:13.999Z</time></trkpt><trkpt lat="43.421580027973654" lon="5.907229627237593"><ele>310.8</ele><time>2026-04-11T15:03:14.999Z</time></trkpt><trkpt lat="43.421661053719475" lon="5.907218839258528"><ele>310.6</ele><time>2026-04-11T15:03:15.999Z</time></trkpt><trkpt lat="43.42174517172876" lon="5.907229171266496"><ele>310.4</ele><time>2026-04-11T15:03:16.999Z</time></trkpt><trkpt lat="43.421831324977475" lon="5.9072063897597555"><ele>310.2</ele><time>2026-04-11T15:03:17.999Z</time></trkpt><trkpt lat="43.42193460333395" lon="5.907166585233449"><ele>310.0</ele><time>2026-04-11T15:03:19Z</time></trkpt><trkpt lat="43.42202173764292" lon="5.907132087672496"><ele>310.0</ele><time>2026-04-11T15:03:20Z</time></trkpt><trkpt lat="43.42209746859883" lon="5.907109159522367"><ele>310.0</ele><time>2026-04-11T15:03:21Z</time></trkpt><trkpt lat="43.422170172657815" lon="5.90706731053402"><ele>310.0</ele><time>2026-04-11T15:03:22Z</time></trkpt><trkpt lat="43.42226230753877" lon="5.906999985972688"><ele>310.0</ele><time>2026-04-11T15:03:23Z</time></trkpt><trkpt lat="43.42238543472625" lon="5.906925128895269"><ele>310.0</ele><time>2026-04-11T15:03:24Z</time></trkpt><trkpt lat="43.422543068915424" lon="5.906861299875959"><ele>310.2</ele><time>2026-04-11T15:03:25Z</time></trkpt><trkpt lat="43.42267978912422" lon="5.906822219580593"><ele>310.4</ele><time>2026-04-11T15:03:26Z</time></trkpt><trkpt lat="43.42279367014565" lon="5.906791700951528"><ele>310.6</ele><time>2026-04-11T15:03:27Z</time></trkpt><trkpt lat="43.422891237085096" lon="5.90675987160404"><ele>310.8</ele><time>2026-04-11T15:03:28Z</time></trkpt><trkpt lat="43.42297837533486" lon="5.9067198963336685"><ele>311.0</ele><time>2026-04-11T15:03:29Z</time></trkpt><trkpt lat="43.42305970251116" lon="5.906692438200962"><ele>311.0</ele><time>2026-04-11T15:03:30Z</time></trkpt><trkpt lat="43.42313050137375" lon="5.906672350365118"><ele>311.0</ele><time>2026-04-11T15:03:31Z</time></trkpt><trkpt lat="43.42319558404617" lon="5.9066502190567665"><ele>311.0</ele><time>2026-04-11T15:03:32Z</time></trkpt><trkpt lat="43.42326173522647" lon="5.906612860266351"><ele>311.0</ele><time>2026-04-11T15:03:33Z</time></trkpt><trkpt lat="43.42332567345198" lon="5.906580469011243"><ele>311.0</ele><time>2026-04-11T15:03:34Z</time></trkpt><trkpt lat="43.4233979947163" lon="5.9065707472547535"><ele>311.0</ele><time>2026-04-11T15:03:35Z</time></trkpt><trkpt lat="43.42349033460545" lon="5.906561031742677"><ele>311.0</ele><time>2026-04-11T15:03:36Z</time></trkpt><trkpt lat="43.423575091769614" lon="5.906535516190026"><ele>311.0</ele><time>2026-04-11T15:03:37Z</time></trkpt><trkpt lat="43.423659942002985" lon="5.906476555922254"><ele>311.0</ele><time>2026-04-11T15:03:39Z</time></trkpt><trkpt lat="43.42376795441072" lon="5.906638017774874"><ele>311.0</ele><time>2026-04-11T15:03:48Z</time></trkpt><trkpt lat="43.423839656625496" lon="5.906722441772001"><ele>311.0</ele><time>2026-04-11T15:03:49Z</time></trkpt><trkpt lat="43.423899504361806" lon="5.906808279061037"><ele>311.0</ele><time>2026-04-11T15:03:50Z</time></trkpt><trkpt lat="43.423969558556415" lon="5.906943901168565"><ele>312.8</ele><time>2026-04-11T15:03:51Z</time></trkpt><trkpt lat="43.42404048012325" lon="5.907099320221152"><ele>314.6</ele><time>2026-04-11T15:03:52Z</time></trkpt><trkpt lat="43.42409583081776" lon="5.907225910429397"><ele>316.4</ele><time>2026-04-11T15:03:53Z</time></trkpt><trkpt lat="43.42412739229888" lon="5.90734733245199"><ele>318.2</ele><time>2026-04-11T15:03:54Z</time></trkpt><trkpt lat="43.42414275153755" lon="5.9074803081133895"><ele>320.0</ele><time>2026-04-11T15:03:55Z</time></trkpt><trkpt lat="43.42414937384193" lon="5.907628754269549"><ele>320.5</ele><time>2026-04-11T15:03:56Z</time></trkpt><trkpt lat="43.424161935802346" lon="5.90776122673517"><ele>321.0</ele><time>2026-04-11T15:03:57Z</time></trkpt><trkpt lat="43.424185650150726" lon="5.90787401594798"><ele>321.5</ele><time>2026-04-11T15:03:58Z</time></trkpt><trkpt lat="43.42421675936408" lon="5.907970625419432"><ele>322.0</ele><time>2026-04-11T15:03:59Z</time></trkpt><trkpt lat="43.42426083138269" lon="5.908058633665179"><ele>322.5</ele><time>2026-04-11T15:04:00Z</time></trkpt><trkpt lat="43.4243222687726" lon="5.908141949776825"><ele>323.0</ele><time>2026-04-11T15:04:01Z</time></trkpt><trkpt lat="43.424405407310374" lon="5.908248223709564"><ele>323.0</ele><time>2026-04-11T15:04:02Z</time></trkpt><trkpt lat="43.424485525024764" lon="5.908347681434025"><ele>323.0</ele><time>2026-04-11T15:04:03Z</time></trkpt><trkpt lat="43.42454966103847" lon="5.908415557663186"><ele>323.0</ele><time>2026-04-11T15:04:04Z</time></trkpt><trkpt lat="43.42461047006994" lon="5.908438478951643"><ele>323.0</ele><time>2026-04-11T15:04:05Z</time></trkpt><trkpt lat="43.42467989359285" lon="5.908443127929435"><ele>323.0</ele><time>2026-04-11T15:04:06Z</time></trkpt><trkpt lat="43.42478997876507" lon="5.908441335674294"><ele>323.0</ele><time>2026-04-11T15:04:07Z</time></trkpt><trkpt lat="43.42491523858773" lon="5.908457117521259"><ele>321.0</ele><time>2026-04-11T15:04:08Z</time></trkpt><trkpt lat="43.425017421338836" lon="5.9084858743538184"><ele>319.0</ele><time>2026-04-11T15:04:09Z</time></trkpt><trkpt lat="43.42510402785036" lon="5.9085285691056235"><ele>317.0</ele><time>2026-04-11T15:04:10Z</time></trkpt><trkpt lat="43.425187556337" lon="5.908578278994669"><ele>315.0</ele><time>2026-04-11T15:04:11Z</time></trkpt><trkpt lat="43.42527498071417" lon="5.908615502567706"><ele>313.0</ele><time>2026-04-11T15:04:12Z</time></trkpt><trkpt lat="43.42535902938297" lon="5.9086615146604196"><ele>313.0</ele><time>2026-04-11T15:04:13Z</time></trkpt><trkpt lat="43.425441816302246" lon="5.908697554154721"><ele>313.0</ele><time>2026-04-11T15:04:14Z</time></trkpt><trkpt lat="43.42554102719557" lon="5.908728843216872"><ele>313.0</ele><time>2026-04-11T15:04:15Z</time></trkpt><trkpt lat="43.42564725204275" lon="5.908759938304112"><ele>313.0</ele><time>2026-04-11T15:04:16Z</time></trkpt><trkpt lat="43.42573227223464" lon="5.908783272976846"><ele>313.0</ele><time>2026-04-11T15:04:17Z</time></trkpt><trkpt lat="43.42580817583436" lon="5.908802728514648"><ele>312.6</ele><time>2026-04-11T15:04:18Z</time></trkpt><trkpt lat="43.4258710729922" lon="5.908833957483109"><ele>312.20000000000005</ele><time>2026-04-11T15:04:19Z</time></trkpt><trkpt lat="43.425879217493325" lon="5.908983495599638"><ele>311.8</ele><time>2026-04-11T15:04:20Z</time></trkpt><trkpt lat="43.42595567352215" lon="5.909058835034213"><ele>311.40000000000003</ele><time>2026-04-11T15:04:21Z</time></trkpt><trkpt lat="43.42604131409765" lon="5.909143224271159"><ele>311.0</ele><time>2026-04-11T15:04:22Z</time></trkpt><trkpt lat="43.426154296899334" lon="5.909220518882628"><ele>311.0</ele><time>2026-04-11T15:04:23Z</time></trkpt><trkpt lat="43.42626237190521" lon="5.90925244533378"><ele>311.0</ele><time>2026-04-11T15:04:24Z</time></trkpt><trkpt lat="43.426345328894676" lon="5.909315669100392"><ele>311.0</ele><time>2026-04-11T15:04:25Z</time></trkpt><trkpt lat="43.42642093308834" lon="5.909392060098865"><ele>311.0</ele><time>2026-04-11T15:04:26Z</time></trkpt><trkpt lat="43.4264706710589" lon="5.909482288283603"><ele>311.0</ele><time>2026-04-11T15:04:27Z</time></trkpt><trkpt lat="43.42649613203732" lon="5.909581652925583"><ele>311.0</ele><time>2026-04-11T15:04:28Z</time></trkpt><trkpt lat="43.42650673328733" lon="5.9097663828311084"><ele>311.0</ele><time>2026-04-11T15:04:29Z</time></trkpt><trkpt lat="43.426556429186505" lon="5.909917403532136"><ele>311.0</ele><time>2026-04-11T15:04:30Z</time></trkpt><trkpt lat="43.426612469098856" lon="5.9100572487555345"><ele>311.0</ele><time>2026-04-11T15:04:31Z</time></trkpt><trkpt lat="43.426652179066075" lon="5.910193735083394"><ele>310.8</ele><time>2026-04-11T15:04:32Z</time></trkpt><trkpt lat="43.42666889185083" lon="5.910308338404557"><ele>310.6</ele><time>2026-04-11T15:04:33Z</time></trkpt><trkpt lat="43.42669011417238" lon="5.910454373622152"><ele>310.4</ele><time>2026-04-11T15:04:34Z</time></trkpt><trkpt lat="43.426712019345565" lon="5.910584524362239"><ele>310.2</ele><time>2026-04-11T15:04:35Z</time></trkpt><trkpt lat="43.426741757921015" lon="5.910705248559618"><ele>310.0</ele><time>2026-04-11T15:04:36Z</time></trkpt><trkpt lat="43.42677659902613" lon="5.9108233046278436"><ele>309.0</ele><time>2026-04-11T15:04:37Z</time></trkpt><trkpt lat="43.42678356825468" lon="5.910949357241538"><ele>308.0</ele><time>2026-04-11T15:04:38Z</time></trkpt><trkpt lat="43.42678531605091" lon="5.911072502665935"><ele>307.0</ele><time>2026-04-11T15:04:38.999Z</time></trkpt><trkpt lat="43.42680973585854" lon="5.911250539721495"><ele>306.0</ele><time>2026-04-11T15:04:40.999Z</time></trkpt><trkpt lat="43.42684663992142" lon="5.911342541486598"><ele>305.0</ele><time>2026-04-11T15:04:41.999Z</time></trkpt><trkpt lat="43.42689651971953" lon="5.911429519287125"><ele>305.0</ele><time>2026-04-11T15:04:43.999Z</time></trkpt><trkpt lat="43.426955905480476" lon="5.911485797769101"><ele>305.0</ele><time>2026-04-11T15:04:46.999Z</time></trkpt><trkpt lat="43.427019195718486" lon="5.911528192050802"><ele>305.0</ele><time>2026-04-11T15:04:48.999Z</time></trkpt><trkpt lat="43.42707194205101" lon="5.911575746221276"><ele>305.0</ele><time>2026-04-11T15:04:49.999Z</time></trkpt><trkpt lat="43.427133823749486" lon="5.911624511245708"><ele>305.0</ele><time>2026-04-11T15:04:50.999Z</time></trkpt><trkpt lat="43.42722581132149" lon="5.91170907106144"><ele>305.0</ele><time>2026-04-11T15:04:52.999Z</time></trkpt><trkpt lat="43.4272260842568" lon="5.911837777470575"><ele>304.4</ele><time>2026-04-11T15:04:54.999Z</time></trkpt><trkpt lat="43.42718165756366" lon="5.911937228576989"><ele>303.8</ele><time>2026-04-11T15:04:56.999Z</time></trkpt><trkpt lat="43.427168811270676" lon="5.912103886610477"><ele>303.2</ele><time>2026-04-11T15:04:58.999Z</time></trkpt><trkpt lat="43.42715484909991" lon="5.912221863632865"><ele>302.6</ele><time>2026-04-11T15:04:59.999Z</time></trkpt><trkpt lat="43.42715581425927" lon="5.912318623132413"><ele>302.0</ele><time>2026-04-11T15:05:00.999Z</time></trkpt><trkpt lat="43.427211819864624" lon="5.9124824699417955"><ele>302.0</ele><time>2026-04-11T15:05:02.999Z</time></trkpt><trkpt lat="43.427249351722956" lon="5.912565162434049"><ele>302.0</ele><time>2026-04-11T15:05:03.999Z</time></trkpt><trkpt lat="43.4273684713401" lon="5.912651351895421"><ele>302.0</ele><time>2026-04-11T15:05:05.999Z</time></trkpt><trkpt lat="43.42747672874635" lon="5.912685612741992"><ele>302.0</ele><time>2026-04-11T15:05:06.999Z</time></trkpt><trkpt lat="43.427608633469795" lon="5.912736958786417"><ele>302.4</ele><time>2026-04-11T15:05:07.999Z</time></trkpt><trkpt lat="43.42773212876025" lon="5.912811325206978"><ele>302.79999999999995</ele><time>2026-04-11T15:05:08.999Z</time></trkpt><trkpt lat="43.42782652739484" lon="5.912907752250994"><ele>303.2</ele><time>2026-04-11T15:05:09.999Z</time></trkpt><trkpt lat="43.42790902726043" lon="5.9129637584483685"><ele>303.59999999999997</ele><time>2026-04-11T15:05:10.999Z</time></trkpt><trkpt lat="43.42800755165117" lon="5.912986859331698"><ele>304.0</ele><time>2026-04-11T15:05:11.999Z</time></trkpt><trkpt lat="43.42816140124043" lon="5.912976392770028"><ele>304.0</ele><time>2026-04-11T15:05:12.999Z</time></trkpt><trkpt lat="43.42835419579773" lon="5.912982261843505"><ele>304.0</ele><time>2026-04-11T15:05:13.999Z</time></trkpt><trkpt lat="43.42851634653666" lon="5.912995136261587"><ele>304.0</ele><time>2026-04-11T15:05:14.999Z</time></trkpt><trkpt lat="43.42865376586921" lon="5.913008514888117"><ele>304.0</ele><time>2026-04-11T15:05:15.999Z</time></trkpt><trkpt lat="43.428770812374346" lon="5.913014127697268"><ele>304.0</ele><time>2026-04-11T15:05:16.999Z</time></trkpt><trkpt lat="43.4288436184925" lon="5.913022774762431"><ele>304.0</ele><time>2026-04-11T15:05:17.999Z</time></trkpt><trkpt lat="43.428912643627356" lon="5.913084487471974"><ele>304.0</ele><time>2026-04-11T15:05:19.999Z</time></trkpt><trkpt lat="43.42896814142388" lon="5.913284396104298"><ele>304.0</ele><time>2026-04-11T15:05:21.999Z</time></trkpt><trkpt lat="43.428999285469565" lon="5.913433136099914"><ele>305.2</ele><time>2026-04-11T15:05:22.999Z</time></trkpt><trkpt lat="43.42901332351726" lon="5.913579277483583"><ele>306.4</ele><time>2026-04-11T15:05:23.999Z</time></trkpt><trkpt lat="43.42908363326195" lon="5.913675476669486"><ele>307.6</ele><time>2026-04-11T15:05:25Z</time></trkpt><trkpt lat="43.42917934856281" lon="5.913789605687411"><ele>308.8</ele><time>2026-04-11T15:05:26Z</time></trkpt><trkpt lat="43.429257852730764" lon="5.913880840183837"><ele>310.0</ele><time>2026-04-11T15:05:27Z</time></trkpt><trkpt lat="43.429318563516816" lon="5.913982103043043"><ele>310.0</ele><time>2026-04-11T15:05:28Z</time></trkpt><trkpt lat="43.429385169363236" lon="5.914011807824233"><ele>310.0</ele><time>2026-04-11T15:05:32Z</time></trkpt><trkpt lat="43.429470428397096" lon="5.913946654472853"><ele>310.0</ele><time>2026-04-11T15:05:34Z</time></trkpt><trkpt lat="43.42949589030538" lon="5.913841577604617"><ele>310.0</ele><time>2026-04-11T15:05:35Z</time></trkpt><trkpt lat="43.429502136636124" lon="5.913708352921353"><ele>310.0</ele><time>2026-04-11T15:05:36Z</time></trkpt><trkpt lat="43.429520120380154" lon="5.913590777925359"><ele>310.0</ele><time>2026-04-11T15:05:37Z</time></trkpt><trkpt lat="43.429540209884294" lon="5.913505364039224"><ele>311.75</ele><time>2026-04-11T15:05:38Z</time></trkpt><trkpt lat="43.42967372505948" lon="5.913552633451204"><ele>313.5</ele><time>2026-04-11T15:05:44Z</time></trkpt><trkpt lat="43.42978105152588" lon="5.913657176027465"><ele>315.25</ele><time>2026-04-11T15:05:46Z</time></trkpt><trkpt lat="43.42988264685454" lon="5.913681038027833"><ele>317.0</ele><time>2026-04-11T15:05:47Z</time></trkpt><trkpt lat="43.42997588662011" lon="5.913699659680723"><ele>317.0</ele><time>2026-04-11T15:05:48Z</time></trkpt><trkpt lat="43.430065849230694" lon="5.913713354431473"><ele>317.0</ele><time>2026-04-11T15:05:49Z</time></trkpt><trkpt lat="43.4301494756699" lon="5.913715376826919"><ele>317.0</ele><time>2026-04-11T15:05:50Z</time></trkpt><trkpt lat="43.43021886548771" lon="5.913719955766918"><ele>317.0</ele><time>2026-04-11T15:05:51Z</time></trkpt><trkpt lat="43.43029352448692" lon="5.913733766050227"><ele>317.0</ele><time>2026-04-11T15:05:52Z</time></trkpt><trkpt lat="43.430383919964584" lon="5.913743737610006"><ele>317.0</ele><time>2026-04-11T15:05:53Z</time></trkpt><trkpt lat="43.430475785852856" lon="5.91376732558184"><ele>318.6</ele><time>2026-04-11T15:05:54Z</time></trkpt><trkpt lat="43.430555060335465" lon="5.9137698246998225"><ele>320.2</ele><time>2026-04-11T15:05:55Z</time></trkpt><trkpt lat="43.43063941919823" lon="5.913747996945422"><ele>321.8</ele><time>2026-04-11T15:05:56Z</time></trkpt><trkpt lat="43.43072225001782" lon="5.91370815602445"><ele>323.4</ele><time>2026-04-11T15:05:57Z</time></trkpt><trkpt lat="43.430835145966014" lon="5.913685672053588"><ele>325.0</ele><time>2026-04-11T15:05:58Z</time></trkpt><trkpt lat="43.43095648847803" lon="5.913657817594745"><ele>325.0</ele><time>2026-04-11T15:05:59Z</time></trkpt><trkpt lat="43.43112544418198" lon="5.913623200319845"><ele>325.0</ele><time>2026-04-11T15:06:00Z</time></trkpt><trkpt lat="43.43129773110825" lon="5.913579448677142"><ele>325.0</ele><time>2026-04-11T15:06:01Z</time></trkpt><trkpt lat="43.431440531349274" lon="5.913552420381203"><ele>326.0</ele><time>2026-04-11T15:06:02Z</time></trkpt><trkpt lat="43.43157894793705" lon="5.91350543360163"><ele>327.0</ele><time>2026-04-11T15:06:03Z</time></trkpt><trkpt lat="43.43169623798506" lon="5.913464387246584"><ele>328.0</ele><time>2026-04-11T15:06:04Z</time></trkpt><trkpt lat="43.431795536040084" lon="5.913430139366952"><ele>329.0</ele><time>2026-04-11T15:06:05Z</time></trkpt><trkpt lat="43.43188042478" lon="5.913403557720145"><ele>329.0</ele><time>2026-04-11T15:06:06Z</time></trkpt><trkpt lat="43.43196322798289" lon="5.913395005598201"><ele>329.0</ele><time>2026-04-11T15:06:07Z</time></trkpt><trkpt lat="43.432072561740966" lon="5.913405685415753"><ele>329.0</ele><time>2026-04-11T15:06:08Z</time></trkpt><trkpt lat="43.432180090395896" lon="5.913399983283947"><ele>329.0</ele><time>2026-04-11T15:06:09Z</time></trkpt><trkpt lat="43.432271672891396" lon="5.913382682918405"><ele>329.0</ele><time>2026-04-11T15:06:10Z</time></trkpt><trkpt lat="43.43234355487583" lon="5.913348791047969"><ele>328.2</ele><time>2026-04-11T15:06:11Z</time></trkpt><trkpt lat="43.43243962019612" lon="5.9133146321811445"><ele>327.4</ele><time>2026-04-11T15:06:12Z</time></trkpt><trkpt lat="43.43255815928288" lon="5.913264788174983"><ele>326.6</ele><time>2026-04-11T15:06:13Z</time></trkpt><trkpt lat="43.43266793828508" lon="5.913229913554926"><ele>325.8</ele><time>2026-04-11T15:06:14Z</time></trkpt><trkpt lat="43.43277647196447" lon="5.9131961560462765"><ele>325.0</ele><time>2026-04-11T15:06:15Z</time></trkpt><trkpt lat="43.432878697198824" lon="5.913194163305049"><ele>325.0</ele><time>2026-04-11T15:06:16Z</time></trkpt><trkpt lat="43.43296441046494" lon="5.9131785251301565"><ele>325.0</ele><time>2026-04-11T15:06:17Z</time></trkpt><trkpt lat="43.43304530048133" lon="5.913155993567835"><ele>325.0</ele><time>2026-04-11T15:06:18Z</time></trkpt><trkpt lat="43.433104157896096" lon="5.913118375744512"><ele>325.0</ele><time>2026-04-11T15:06:19Z</time></trkpt><trkpt lat="43.4331719590079" lon="5.913100357795358"><ele>325.0</ele><time>2026-04-11T15:06:20Z</time></trkpt><trkpt lat="43.433254737534604" lon="5.913110088638486"><ele>325.0</ele><time>2026-04-11T15:06:21Z</time></trkpt><trkpt lat="43.43335247500686" lon="5.913122831607818"><ele>324.66666666666663</ele><time>2026-04-11T15:06:22Z</time></trkpt><trkpt lat="43.43343562115699" lon="5.913133154633872"><ele>324.3333333333333</ele><time>2026-04-11T15:06:23Z</time></trkpt><trkpt lat="43.43351859913311" lon="5.9131548929595255"><ele>324.0</ele><time>2026-04-11T15:06:24Z</time></trkpt><trkpt lat="43.4336049723274" lon="5.913187648012219"><ele>323.6666666666667</ele><time>2026-04-11T15:06:25Z</time></trkpt><trkpt lat="43.43369077823658" lon="5.913217236346199"><ele>323.33333333333337</ele><time>2026-04-11T15:06:26Z</time></trkpt><trkpt lat="43.43376164153941" lon="5.913257128170615"><ele>323.0</ele><time>2026-04-11T15:06:27Z</time></trkpt><trkpt lat="43.43382535280832" lon="5.91331923064659"><ele>321.5</ele><time>2026-04-11T15:06:28Z</time></trkpt><trkpt lat="43.43388647153486" lon="5.91334784728221"><ele>320.0</ele><time>2026-04-11T15:06:29Z</time></trkpt><trkpt lat="43.43395197818467" lon="5.913327661184851"><ele>318.5</ele><time>2026-04-11T15:06:30Z</time></trkpt><trkpt lat="43.43404058595675" lon="5.913312449214584"><ele>317.0</ele><time>2026-04-11T15:06:31Z</time></trkpt><trkpt lat="43.434160983259076" lon="5.91330005900527"><ele>315.5</ele><time>2026-04-11T15:06:31.999Z</time></trkpt><trkpt lat="43.434254160899236" lon="5.913291220872747"><ele>314.0</ele><time>2026-04-11T15:06:32.999Z</time></trkpt><trkpt lat="43.43435527256786" lon="5.913281383240217"><ele>314.0</ele><time>2026-04-11T15:06:33.999Z</time></trkpt><trkpt lat="43.43447802087119" lon="5.913238894551512"><ele>314.0</ele><time>2026-04-11T15:06:34.999Z</time></trkpt><trkpt lat="43.43460654327689" lon="5.913178284830519"><ele>314.0</ele><time>2026-04-11T15:06:35.999Z</time></trkpt><trkpt lat="43.43470380550741" lon="5.913141631159023"><ele>314.0</ele><time>2026-04-11T15:06:36.999Z</time></trkpt><trkpt lat="43.43480473313737" lon="5.913112519810017"><ele>312.2</ele><time>2026-04-11T15:06:37.999Z</time></trkpt><trkpt lat="43.434854427031325" lon="5.9132284577940535"><ele>310.4</ele><time>2026-04-11T15:06:39.999Z</time></trkpt><trkpt lat="43.43497405285216" lon="5.913205603854906"><ele>308.6</ele><time>2026-04-11T15:06:42.999Z</time></trkpt><trkpt lat="43.43502294825181" lon="5.913142918015162"><ele>306.8</ele><time>2026-04-11T15:06:43.999Z</time></trkpt><trkpt lat="43.43513869957206" lon="5.913097862693475"><ele>305.0</ele><time>2026-04-11T15:06:45.999Z</time></trkpt><trkpt lat="43.435249818403015" lon="5.913044743598094"><ele>305.0</ele><time>2026-04-11T15:06:47.999Z</time></trkpt><trkpt lat="43.435316163598195" lon="5.913036586274138"><ele>305.0</ele><time>2026-04-11T15:06:48.999Z</time></trkpt><trkpt lat="43.43540809647828" lon="5.913040086507785"><ele>305.0</ele><time>2026-04-11T15:06:49.999Z</time></trkpt><trkpt lat="43.43550504591282" lon="5.913020077968815"><ele>305.0</ele><time>2026-04-11T15:06:50.999Z</time></trkpt><trkpt lat="43.4356188484861" lon="5.912970908791961"><ele>305.0</ele><time>2026-04-11T15:06:51.999Z</time></trkpt><trkpt lat="43.43575957750876" lon="5.91288875315388"><ele>301.6666666666667</ele><time>2026-04-11T15:06:52.999Z</time></trkpt><trkpt lat="43.43592285273338" lon="5.9127987692479405"><ele>298.3333333333333</ele><time>2026-04-11T15:06:53.999Z</time></trkpt><trkpt lat="43.43606556066954" lon="5.912726971266728"><ele>295.0</ele><time>2026-04-11T15:06:54.999Z</time></trkpt><trkpt lat="43.436182158629464" lon="5.9126646532258045"><ele>295.0</ele><time>2026-04-11T15:06:55.999Z</time></trkpt><trkpt lat="43.43627921899245" lon="5.912602903316018"><ele>295.0</ele><time>2026-04-11T15:06:56.999Z</time></trkpt><trkpt lat="43.43636121332401" lon="5.912510533493359"><ele>295.0</ele><time>2026-04-11T15:06:57.999Z</time></trkpt><trkpt lat="43.436420088455854" lon="5.9123932128889525"><ele>295.0</ele><time>2026-04-11T15:06:58.999Z</time></trkpt><trkpt lat="43.4364699634157" lon="5.912231601477609"><ele>295.0</ele><time>2026-04-11T15:06:59.999Z</time></trkpt><trkpt lat="43.43654175914191" lon="5.9120514044093335"><ele>295.0</ele><time>2026-04-11T15:07:00.999Z</time></trkpt><trkpt lat="43.436616919068484" lon="5.911911900588443"><ele>295.0</ele><time>2026-04-11T15:07:01.999Z</time></trkpt><trkpt lat="43.43669642543399" lon="5.911813914990619"><ele>295.0</ele><time>2026-04-11T15:07:02.999Z</time></trkpt><trkpt lat="43.43677500537188" lon="5.91175429395376"><ele>295.0</ele><time>2026-04-11T15:07:03.999Z</time></trkpt><trkpt lat="43.43683661515562" lon="5.9117151311294975"><ele>295.0</ele><time>2026-04-11T15:07:04.999Z</time></trkpt><trkpt lat="43.43689382806966" lon="5.911647519464409"><ele>296.8</ele><time>2026-04-11T15:07:05.999Z</time></trkpt><trkpt lat="43.436931755449855" lon="5.911567345197833"><ele>298.6</ele><time>2026-04-11T15:07:06.999Z</time></trkpt><trkpt lat="43.437007001429194" lon="5.911419927961495"><ele>300.4</ele><time>2026-04-11T15:07:08.999Z</time></trkpt><trkpt lat="43.43704353724693" lon="5.911314165415852"><ele>302.2</ele><time>2026-04-11T15:07:09.999Z</time></trkpt><trkpt lat="43.43705858454228" lon="5.911175346483652"><ele>304.0</ele><time>2026-04-11T15:07:10.999Z</time></trkpt><trkpt lat="43.43707951771749" lon="5.911059443871842"><ele>304.0</ele><time>2026-04-11T15:07:11.999Z</time></trkpt><trkpt lat="43.43710515053678" lon="5.910969561661726"><ele>304.0</ele><time>2026-04-11T15:07:12.999Z</time></trkpt><trkpt lat="43.43714716404295" lon="5.910833897215216"><ele>304.0</ele><time>2026-04-11T15:07:14.999Z</time></trkpt><trkpt lat="43.437186139374035" lon="5.910728873413768"><ele>304.0</ele><time>2026-04-11T15:07:16.999Z</time></trkpt><trkpt lat="43.43723442180177" lon="5.910608030399159"><ele>304.0</ele><time>2026-04-11T15:07:17.999Z</time></trkpt><trkpt lat="43.437261757508935" lon="5.910476897217364"><ele>300.66666666666663</ele><time>2026-04-11T15:07:18.999Z</time></trkpt><trkpt lat="43.43729652465566" lon="5.910292632291363"><ele>297.3333333333333</ele><time>2026-04-11T15:07:19.999Z</time></trkpt><trkpt lat="43.437352917175836" lon="5.91006779791284"><ele>294.0</ele><time>2026-04-11T15:07:20.999Z</time></trkpt><trkpt lat="43.43739826814415" lon="5.909877824128427"><ele>294.0</ele><time>2026-04-11T15:07:21.999Z</time></trkpt><trkpt lat="43.43743508460824" lon="5.909737325004108"><ele>294.0</ele><time>2026-04-11T15:07:22.999Z</time></trkpt><trkpt lat="43.437436352054135" lon="5.909577337724144"><ele>294.0</ele><time>2026-04-11T15:07:24.999Z</time></trkpt><trkpt lat="43.43748188268587" lon="5.909502267215034"><ele>294.0</ele><time>2026-04-11T15:07:27.999Z</time></trkpt><trkpt lat="43.43743555126882" lon="5.909361957866634"><ele>294.0</ele><time>2026-04-11T15:07:29.999Z</time></trkpt><trkpt lat="43.437404123833424" lon="5.909284897429839"><ele>295.59999999999997</ele><time>2026-04-11T15:07:31Z</time></trkpt><trkpt lat="43.437366659254984" lon="5.909160034041113"><ele>297.2</ele><time>2026-04-11T15:07:33Z</time></trkpt><trkpt lat="43.43743690651721" lon="5.90910688093651"><ele>298.79999999999995</ele><time>2026-04-11T15:07:35Z</time></trkpt><trkpt lat="43.437513631267294" lon="5.909068678067636"><ele>300.4</ele><time>2026-04-11T15:07:36Z</time></trkpt><trkpt lat="43.43757606605455" lon="5.908950360342974"><ele>302.0</ele><time>2026-04-11T15:07:38Z</time></trkpt><trkpt lat="43.437602841198874" lon="5.908838210039526"><ele>302.0</ele><time>2026-04-11T15:07:39Z</time></trkpt><trkpt lat="43.43767153040325" lon="5.908682400302303"><ele>302.0</ele><time>2026-04-11T15:07:40Z</time></trkpt><trkpt lat="43.4377434361178" lon="5.908559077850383"><ele>302.0</ele><time>2026-04-11T15:07:41Z</time></trkpt><trkpt lat="43.43780373975088" lon="5.908453151791067"><ele>302.0</ele><time>2026-04-11T15:07:42Z</time></trkpt><trkpt lat="43.43785271868011" lon="5.908360661988339"><ele>302.0</ele><time>2026-04-11T15:07:43Z</time></trkpt><trkpt lat="43.43790117816675" lon="5.908293256760308"><ele>301.83333333333337</ele><time>2026-04-11T15:07:44Z</time></trkpt><trkpt lat="43.43795747771779" lon="5.90823172796659"><ele>301.6666666666667</ele><time>2026-04-11T15:07:45Z</time></trkpt><trkpt lat="43.43801159951367" lon="5.908164710032662"><ele>301.5</ele><time>2026-04-11T15:07:46Z</time></trkpt><trkpt lat="43.43806490860295" lon="5.908103380600981"><ele>301.3333333333333</ele><time>2026-04-11T15:07:47Z</time></trkpt><trkpt lat="43.438125560654726" lon="5.908046120415999"><ele>301.16666666666663</ele><time>2026-04-11T15:07:48Z</time></trkpt><trkpt lat="43.43817785771979" lon="5.907982545701819"><ele>301.0</ele><time>2026-04-11T15:07:49Z</time></trkpt><trkpt lat="43.43824646732958" lon="5.9078529231059"><ele>299.5</ele><time>2026-04-11T15:07:51Z</time></trkpt><trkpt lat="43.43834007013196" lon="5.907735507578809"><ele>298.0</ele><time>2026-04-11T15:07:53Z</time></trkpt><trkpt lat="43.43842615450376" lon="5.907664296830765"><ele>296.5</ele><time>2026-04-11T15:07:55Z</time></trkpt><trkpt lat="43.438481128181316" lon="5.907589645959393"><ele>295.0</ele><time>2026-04-11T15:07:56Z</time></trkpt><trkpt lat="43.43851861936592" lon="5.907519251035657"><ele>293.5</ele><time>2026-04-11T15:07:57Z</time></trkpt><trkpt lat="43.43855695390605" lon="5.907422366693695"><ele>292.0</ele><time>2026-04-11T15:07:58Z</time></trkpt><trkpt lat="43.43860053632847" lon="5.90731109952586"><ele>291.0</ele><time>2026-04-11T15:07:59Z</time></trkpt><trkpt lat="43.438643549413584" lon="5.907191198967156"><ele>290.0</ele><time>2026-04-11T15:08:00Z</time></trkpt><trkpt lat="43.438737340184275" lon="5.907036807659176"><ele>289.0</ele><time>2026-04-11T15:08:01Z</time></trkpt><trkpt lat="43.438850185559" lon="5.906859841628578"><ele>288.0</ele><time>2026-04-11T15:08:02Z</time></trkpt><trkpt lat="43.43897757825234" lon="5.90667416403445"><ele>287.25</ele><time>2026-04-11T15:08:03Z</time></trkpt><trkpt lat="43.439085901263496" lon="5.906517836765047"><ele>286.5</ele><time>2026-04-11T15:08:04Z</time></trkpt><trkpt lat="43.439191093103865" lon="5.906373685307084"><ele>285.75</ele><time>2026-04-11T15:08:05Z</time></trkpt><trkpt lat="43.43928387012765" lon="5.906231493068409"><ele>285.0</ele><time>2026-04-11T15:08:06Z</time></trkpt><trkpt lat="43.43938853587399" lon="5.906085679108558"><ele>285.0</ele><time>2026-04-11T15:08:07Z</time></trkpt><trkpt lat="43.439485682098166" lon="5.905969277928629"><ele>285.0</ele><time>2026-04-11T15:08:08Z</time></trkpt><trkpt lat="43.43958290214867" lon="5.905869603343856"><ele>285.0</ele><time>2026-04-11T15:08:09Z</time></trkpt><trkpt lat="43.43967116790098" lon="5.905777557598283"><ele>285.0</ele><time>2026-04-11T15:08:10Z</time></trkpt><trkpt lat="43.43974007936457" lon="5.905679086266413"><ele>285.0</ele><time>2026-04-11T15:08:11Z</time></trkpt><trkpt lat="43.43980121049212" lon="5.90558757962539"><ele>285.0</ele><time>2026-04-11T15:08:12Z</time></trkpt><trkpt lat="43.439866273036806" lon="5.905523065843669"><ele>285.0</ele><time>2026-04-11T15:08:13Z</time></trkpt><trkpt lat="43.439918376173345" lon="5.905451006022828"><ele>285.0</ele><time>2026-04-11T15:08:14Z</time></trkpt><trkpt lat="43.43994709402608" lon="5.905370123701927"><ele>285.0</ele><time>2026-04-11T15:08:15Z</time></trkpt><trkpt lat="43.4399095979297" lon="5.905263086883356"><ele>285.0</ele><time>2026-04-11T15:08:16Z</time></trkpt><trkpt lat="43.43987779656942" lon="5.905131336380048"><ele>285.0</ele><time>2026-04-11T15:08:17Z</time></trkpt><trkpt lat="43.43983841977405" lon="5.9049759594293185"><ele>285.0</ele><time>2026-04-11T15:08:18Z</time></trkpt><trkpt lat="43.43979895246488" lon="5.904853029143985"><ele>285.0</ele><time>2026-04-11T15:08:19Z</time></trkpt><trkpt lat="43.43973108983117" lon="5.904773059788914"><ele>285.0</ele><time>2026-04-11T15:08:20Z</time></trkpt><trkpt lat="43.439627723012045" lon="5.904707341212645"><ele>285.0</ele><time>2026-04-11T15:08:21Z</time></trkpt><trkpt lat="43.43949726502972" lon="5.9046324466996785"><ele>285.0</ele><time>2026-04-11T15:08:22Z</time></trkpt><trkpt lat="43.439364376161336" lon="5.904537205925949"><ele>285.0</ele><time>2026-04-11T15:08:23Z</time></trkpt><trkpt lat="43.439248947824005" lon="5.904439548768122"><ele>285.0</ele><time>2026-04-11T15:08:24Z</time></trkpt><trkpt lat="43.43911304591122" lon="5.904317200715147"><ele>285.0</ele><time>2026-04-11T15:08:25Z</time></trkpt><trkpt lat="43.43898472340995" lon="5.904206460118611"><ele>286.25</ele><time>2026-04-11T15:08:26Z</time></trkpt><trkpt lat="43.43887381891043" lon="5.904100901059821"><ele>287.5</ele><time>2026-04-11T15:08:27Z</time></trkpt><trkpt lat="43.43876528490332" lon="5.9039845603721774"><ele>288.75</ele><time>2026-04-11T15:08:28Z</time></trkpt><trkpt lat="43.43865536391623" lon="5.903854763614648"><ele>290.0</ele><time>2026-04-11T15:08:29Z</time></trkpt><trkpt lat="43.43855310189139" lon="5.903727871351084"><ele>290.0</ele><time>2026-04-11T15:08:30Z</time></trkpt><trkpt lat="43.43846897020765" lon="5.903605894572436"><ele>290.0</ele><time>2026-04-11T15:08:31Z</time></trkpt><trkpt lat="43.43839116994827" lon="5.903483230384379"><ele>290.0</ele><time>2026-04-11T15:08:32Z</time></trkpt><trkpt lat="43.43831099177591" lon="5.903359061880291"><ele>290.0</ele><time>2026-04-11T15:08:32.999Z</time></trkpt><trkpt lat="43.43822233707769" lon="5.903219668510174"><ele>291.0</ele><time>2026-04-11T15:08:33.999Z</time></trkpt><trkpt lat="43.438128492490286" lon="5.903073679603511"><ele>292.0</ele><time>2026-04-11T15:08:34.999Z</time></trkpt><trkpt lat="43.4380247889053" lon="5.902910261819493"><ele>293.0</ele><time>2026-04-11T15:08:35.999Z</time></trkpt><trkpt lat="43.437911021505386" lon="5.902731640939288"><ele>292.25</ele><time>2026-04-11T15:08:36.999Z</time></trkpt><trkpt lat="43.43780146049973" lon="5.902562119714284"><ele>291.5</ele><time>2026-04-11T15:08:37.999Z</time></trkpt><trkpt lat="43.4377044945134" lon="5.902410284207464"><ele>290.75</ele><time>2026-04-11T15:08:38.999Z</time></trkpt><trkpt lat="43.437616008649" lon="5.902273695844907"><ele>290.0</ele><time>2026-04-11T15:08:39.999Z</time></trkpt><trkpt lat="43.43753352335739" lon="5.9021418893641995"><ele>290.0</ele><time>2026-04-11T15:08:40.999Z</time></trkpt><trkpt lat="43.43745840574404" lon="5.902022339106685"><ele>290.0</ele><time>2026-04-11T15:08:41.999Z</time></trkpt><trkpt lat="43.437387456410136" lon="5.901909767169343"><ele>290.0</ele><time>2026-04-11T15:08:42.999Z</time></trkpt><trkpt lat="43.43731214866199" lon="5.901796629827433"><ele>290.0</ele><time>2026-04-11T15:08:43.999Z</time></trkpt><trkpt lat="43.437228536994496" lon="5.901669952395271"><ele>289.0</ele><time>2026-04-11T15:08:44.999Z</time></trkpt><trkpt lat="43.43714937983906" lon="5.901546777115189"><ele>288.0</ele><time>2026-04-11T15:08:45.999Z</time></trkpt><trkpt lat="43.43707777912142" lon="5.901429515417335"><ele>287.0</ele><time>2026-04-11T15:08:46.999Z</time></trkpt><trkpt lat="43.43701835726995" lon="5.901293407178659"><ele>286.0</ele><time>2026-04-11T15:08:47.999Z</time></trkpt><trkpt lat="43.43697147096245" lon="5.901159080197912"><ele>286.0</ele><time>2026-04-11T15:08:48.999Z</time></trkpt><trkpt lat="43.43694697529402" lon="5.901025678824453"><ele>286.0</ele><time>2026-04-11T15:08:49.999Z</time></trkpt><trkpt lat="43.436898388396365" lon="5.90087941163506"><ele>286.0</ele><time>2026-04-11T15:08:50.999Z</time></trkpt><trkpt lat="43.436898014031506" lon="5.900710280452907"><ele>286.0</ele><time>2026-04-11T15:08:51.999Z</time></trkpt><trkpt lat="43.436950876441834" lon="5.900562725495184"><ele>286.0</ele><time>2026-04-11T15:08:52.999Z</time></trkpt><trkpt lat="43.43697724550284" lon="5.900464297124713"><ele>286.0</ele><time>2026-04-11T15:08:53.999Z</time></trkpt><trkpt lat="43.43707595612836" lon="5.9003152688544525"><ele>286.0</ele><time>2026-04-11T15:08:55.999Z</time></trkpt><trkpt lat="43.43715934446251" lon="5.900204367759178"><ele>286.0</ele><time>2026-04-11T15:08:56.999Z</time></trkpt><trkpt lat="43.437264934745656" lon="5.900063234627571"><ele>287.5</ele><time>2026-04-11T15:08:57.999Z</time></trkpt><trkpt lat="43.43737815697637" lon="5.899937643039179"><ele>289.0</ele><time>2026-04-11T15:08:58.999Z</time></trkpt><trkpt lat="43.437462204749295" lon="5.899805163838006"><ele>290.5</ele><time>2026-04-11T15:08:59.999Z</time></trkpt><trkpt lat="43.437520429568224" lon="5.899678346068967"><ele>292.0</ele><time>2026-04-11T15:09:00.999Z</time></trkpt><trkpt lat="43.43761297357488" lon="5.899572362903616"><ele>292.0</ele><time>2026-04-11T15:09:01.999Z</time></trkpt><trkpt lat="43.43764586636627" lon="5.899434084222289"><ele>292.0</ele><time>2026-04-11T15:09:02.999Z</time></trkpt><trkpt lat="43.43769329715252" lon="5.899314945487512"><ele>292.0</ele><time>2026-04-11T15:09:03.999Z</time></trkpt><trkpt lat="43.437760850879634" lon="5.899223294606002"><ele>292.0</ele><time>2026-04-11T15:09:04.999Z</time></trkpt><trkpt lat="43.43784380206523" lon="5.899140304386317"><ele>292.0</ele><time>2026-04-11T15:09:05.999Z</time></trkpt><trkpt lat="43.43793066821541" lon="5.899052231440852"><ele>292.0</ele><time>2026-04-11T15:09:06.999Z</time></trkpt><trkpt lat="43.43800376898229" lon="5.898973810935988"><ele>292.0</ele><time>2026-04-11T15:09:07.999Z</time></trkpt><trkpt lat="43.438062173850604" lon="5.8989248463823865"><ele>292.0</ele><time>2026-04-11T15:09:08.999Z</time></trkpt><trkpt lat="43.43815791959171" lon="5.898916029012519"><ele>292.0</ele><time>2026-04-11T15:09:10.999Z</time></trkpt><trkpt lat="43.43822202455246" lon="5.898987022633235"><ele>292.0</ele><time>2026-04-11T15:09:12.999Z</time></trkpt><trkpt lat="43.43827890776411" lon="5.8990251295474625"><ele>292.0</ele><time>2026-04-11T15:09:13.999Z</time></trkpt><trkpt lat="43.438395682987334" lon="5.899030156996032"><ele>292.0</ele><time>2026-04-11T15:09:15.999Z</time></trkpt><trkpt lat="43.43851530053322" lon="5.898997384684275"><ele>292.0</ele><time>2026-04-11T15:09:17.999Z</time></trkpt><trkpt lat="43.43858472713652" lon="5.898960879858311"><ele>292.0</ele><time>2026-04-11T15:09:18.999Z</time></trkpt><trkpt lat="43.43865551521804" lon="5.898905369065095"><ele>292.0</ele><time>2026-04-11T15:09:19.999Z</time></trkpt><trkpt lat="43.43873464197595" lon="5.898838421227626"><ele>292.0</ele><time>2026-04-11T15:09:20.999Z</time></trkpt><trkpt lat="43.438821068042394" lon="5.8987782098019945"><ele>292.7142857142857</ele><time>2026-04-11T15:09:21.999Z</time></trkpt><trkpt lat="43.43889314951973" lon="5.898734616371982"><ele>293.42857142857144</ele><time>2026-04-11T15:09:22.999Z</time></trkpt><trkpt lat="43.43896386732411" lon="5.89870143482812"><ele>294.14285714285717</ele><time>2026-04-11T15:09:23.999Z</time></trkpt><trkpt lat="43.439041938100196" lon="5.8986707628885995"><ele>294.8571428571429</ele><time>2026-04-11T15:09:24.999Z</time></trkpt><trkpt lat="43.43910294131976" lon="5.898639081327854"><ele>295.5714285714286</ele><time>2026-04-11T15:09:25.999Z</time></trkpt><trkpt lat="43.43916726995944" lon="5.898580938773849"><ele>296.2857142857143</ele><time>2026-04-11T15:09:26.999Z</time></trkpt><trkpt lat="43.439228174299075" lon="5.898536687261506"><ele>297.0</ele><time>2026-04-11T15:09:27.999Z</time></trkpt><trkpt lat="43.43928487444506" lon="5.898494743525216"><ele>297.0</ele><time>2026-04-11T15:09:28.999Z</time></trkpt><trkpt lat="43.43938068228431" lon="5.898421209330415"><ele>297.0</ele><time>2026-04-11T15:09:30.999Z</time></trkpt><trkpt lat="43.43947001199788" lon="5.898351482122321"><ele>297.0</ele><time>2026-04-11T15:09:32.999Z</time></trkpt><trkpt lat="43.43957330528347" lon="5.898316183211527"><ele>297.0</ele><time>2026-04-11T15:09:34.999Z</time></trkpt><trkpt lat="43.43967914199012" lon="5.898271719194219"><ele>297.0</ele><time>2026-04-11T15:09:37Z</time></trkpt><trkpt lat="43.439745087711124" lon="5.89824046145286"><ele>294.2</ele><time>2026-04-11T15:09:38Z</time></trkpt><trkpt lat="43.43982652038072" lon="5.898210066318223"><ele>291.4</ele><time>2026-04-11T15:09:39Z</time></trkpt><trkpt lat="43.439906632667956" lon="5.898185651173664"><ele>288.6</ele><time>2026-04-11T15:09:40Z</time></trkpt><trkpt lat="43.440002355389744" lon="5.898172758924751"><ele>285.8</ele><time>2026-04-11T15:09:41Z</time></trkpt><trkpt lat="43.440104042014255" lon="5.898130489031203"><ele>283.0</ele><time>2026-04-11T15:09:42Z</time></trkpt><trkpt lat="43.44018838217911" lon="5.898042651994101"><ele>283.0</ele><time>2026-04-11T15:09:43Z</time></trkpt><trkpt lat="43.44028431108439" lon="5.897914844548532"><ele>283.0</ele><time>2026-04-11T15:09:44Z</time></trkpt><trkpt lat="43.44039410411813" lon="5.897780552580767"><ele>283.0</ele><time>2026-04-11T15:09:45Z</time></trkpt><trkpt lat="43.440500835920496" lon="5.8976636014353305"><ele>283.0</ele><time>2026-04-11T15:09:46Z</time></trkpt><trkpt lat="43.440625809475215" lon="5.897528746499667"><ele>283.25</ele><time>2026-04-11T15:09:47Z</time></trkpt><trkpt lat="43.44073708479866" lon="5.897426921190736"><ele>283.5</ele><time>2026-04-11T15:09:48Z</time></trkpt><trkpt lat="43.44083973456918" lon="5.89734755297598"><ele>283.75</ele><time>2026-04-11T15:09:49Z</time></trkpt><trkpt lat="43.44093412838976" lon="5.897277379938406"><ele>284.0</ele><time>2026-04-11T15:09:50Z</time></trkpt><trkpt lat="43.44101086585382" lon="5.897195704970591"><ele>284.0</ele><time>2026-04-11T15:09:51Z</time></trkpt><trkpt lat="43.441064335550976" lon="5.897098189115858"><ele>284.0</ele><time>2026-04-11T15:09:52Z</time></trkpt><trkpt lat="43.44109211926368" lon="5.896981739034164"><ele>284.0</ele><time>2026-04-11T15:09:53Z</time></trkpt><trkpt lat="43.44109975805459" lon="5.896864348094961"><ele>284.0</ele><time>2026-04-11T15:09:54Z</time></trkpt><trkpt lat="43.44109853816016" lon="5.896744736098967"><ele>284.0</ele><time>2026-04-11T15:09:55Z</time></trkpt><trkpt lat="43.44110048945107" lon="5.896613852204913"><ele>284.0</ele><time>2026-04-11T15:09:56Z</time></trkpt><trkpt lat="43.441100925569415" lon="5.896481179587963"><ele>283.83333333333337</ele><time>2026-04-11T15:09:57Z</time></trkpt><trkpt lat="43.44109692206432" lon="5.896358208453722"><ele>283.6666666666667</ele><time>2026-04-11T15:09:58Z</time></trkpt><trkpt lat="43.441091138212386" lon="5.896246245091916"><ele>283.5</ele><time>2026-04-11T15:09:59Z</time></trkpt><trkpt lat="43.441080163148435" lon="5.896147848510249"><ele>283.3333333333333</ele><time>2026-04-11T15:10:00Z</time></trkpt><trkpt lat="43.44106697808403" lon="5.896026449418764"><ele>283.16666666666663</ele><time>2026-04-11T15:10:01Z</time></trkpt><trkpt lat="43.44104794353704" lon="5.895874843515611"><ele>283.0</ele><time>2026-04-11T15:10:02Z</time></trkpt><trkpt lat="43.441020788659245" lon="5.895722838781638"><ele>283.8</ele><time>2026-04-11T15:10:03Z</time></trkpt><trkpt lat="43.44098682549819" lon="5.895591089944704"><ele>284.6</ele><time>2026-04-11T15:10:04Z</time></trkpt><trkpt lat="43.4409480152041" lon="5.8954594642921725"><ele>285.4</ele><time>2026-04-11T15:10:05Z</time></trkpt><trkpt lat="43.44092520095062" lon="5.895337512037742"><ele>286.2</ele><time>2026-04-11T15:10:06Z</time></trkpt><trkpt lat="43.440909538880035" lon="5.895199827114244"><ele>287.0</ele><time>2026-04-11T15:10:07Z</time></trkpt><trkpt lat="43.44090244449733" lon="5.895055771886231"><ele>287.33333333333337</ele><time>2026-04-11T15:10:08Z</time></trkpt><trkpt lat="43.440909116899824" lon="5.894930345415239"><ele>287.6666666666667</ele><time>2026-04-11T15:10:09Z</time></trkpt><trkpt lat="43.44092713041117" lon="5.894822936762493"><ele>288.0</ele><time>2026-04-11T15:10:10Z</time></trkpt><trkpt lat="43.4409627837037" lon="5.8947348287392005"><ele>288.3333333333333</ele><time>2026-04-11T15:10:11Z</time></trkpt><trkpt lat="43.441014067615704" lon="5.894651807951611"><ele>288.66666666666663</ele><time>2026-04-11T15:10:12Z</time></trkpt><trkpt lat="43.44111006650493" lon="5.894565520053292"><ele>289.0</ele><time>2026-04-11T15:10:13Z</time></trkpt><trkpt lat="43.44120730071834" lon="5.894453188065651"><ele>289.0</ele><time>2026-04-11T15:10:14Z</time></trkpt><trkpt lat="43.44128274683535" lon="5.894325560316124"><ele>289.0</ele><time>2026-04-11T15:10:15Z</time></trkpt><trkpt lat="43.4413454039372" lon="5.894222808157085"><ele>289.0</ele><time>2026-04-11T15:10:16Z</time></trkpt><trkpt lat="43.441405764083264" lon="5.8941610053369855"><ele>289.0</ele><time>2026-04-11T15:10:17Z</time></trkpt><trkpt lat="43.44147838685317" lon="5.894129132998642"><ele>289.0</ele><time>2026-04-11T15:10:18Z</time></trkpt><trkpt lat="43.44157500097568" lon="5.894123458579995"><ele>290.25</ele><time>2026-04-11T15:10:19Z</time></trkpt><trkpt lat="43.44169939543852" lon="5.894139902810642"><ele>291.5</ele><time>2026-04-11T15:10:20Z</time></trkpt><trkpt lat="43.4418474773324" lon="5.894167754445805"><ele>292.75</ele><time>2026-04-11T15:10:21Z</time></trkpt><trkpt lat="43.44200560005081" lon="5.894194233076352"><ele>294.0</ele><time>2026-04-11T15:10:22Z</time></trkpt><trkpt lat="43.442130385780864" lon="5.894211210076084"><ele>294.8333333333333</ele><time>2026-04-11T15:10:23Z</time></trkpt><trkpt lat="43.442223274803176" lon="5.89420445589011"><ele>295.6666666666667</ele><time>2026-04-11T15:10:24Z</time></trkpt><trkpt lat="43.442298218871656" lon="5.894181420517254"><ele>296.5</ele><time>2026-04-11T15:10:25Z</time></trkpt><trkpt lat="43.44236951557593" lon="5.8941295422337285"><ele>297.33333333333337</ele><time>2026-04-11T15:10:26.999Z</time></trkpt><trkpt lat="43.44247558749518" lon="5.894163873120494"><ele>298.1666666666667</ele><time>2026-04-11T15:10:29.999Z</time></trkpt><trkpt lat="43.44255447154311" lon="5.894199150229127"><ele>299.0</ele><time>2026-04-11T15:10:30.999Z</time></trkpt><trkpt lat="43.44261829859496" lon="5.894204800581181"><ele>299.0</ele><time>2026-04-11T15:10:31.999Z</time></trkpt><trkpt lat="43.44270247151139" lon="5.894197686402788"><ele>299.0</ele><time>2026-04-11T15:10:33.999Z</time></trkpt><trkpt lat="43.44281983227623" lon="5.894308083031212"><ele>299.0</ele><time>2026-04-11T15:10:35.999Z</time></trkpt><trkpt lat="43.44292249392432" lon="5.894373565052239"><ele>299.0</ele><time>2026-04-11T15:10:37.999Z</time></trkpt><trkpt lat="43.44300327251598" lon="5.894433220352363"><ele>299.0</ele><time>2026-04-11T15:10:38.999Z</time></trkpt><trkpt lat="43.44307403961832" lon="5.894457137880531"><ele>304.25</ele><time>2026-04-11T15:10:39.999Z</time></trkpt><trkpt lat="43.443156654736725" lon="5.894404656387228"><ele>309.5</ele><time>2026-04-11T15:10:41.999Z</time></trkpt><trkpt lat="43.44322268060244" lon="5.8943880160736235"><ele>314.75</ele><time>2026-04-11T15:10:42.999Z</time></trkpt><trkpt lat="43.443308146674546" lon="5.894325464412649"><ele>320.0</ele><time>2026-04-11T15:10:44.999Z</time></trkpt><trkpt lat="43.44355317385959" lon="5.894300638685914"><ele>320.0</ele><time>2026-04-11T15:10:51.999Z</time></trkpt><trkpt lat="43.443601208023" lon="5.894358985985588"><ele>320.0</ele><time>2026-04-11T15:10:52.999Z</time></trkpt><trkpt lat="43.4436539558943" lon="5.894410471520536"><ele>320.0</ele><time>2026-04-11T15:10:53.999Z</time></trkpt><trkpt lat="43.44371507555362" lon="5.894491356201482"><ele>320.0</ele><time>2026-04-11T15:10:55.999Z</time></trkpt><trkpt lat="43.44379021761281" lon="5.894622096820524"><ele>320.0</ele><time>2026-04-11T15:10:57.999Z</time></trkpt><trkpt lat="43.44386417562324" lon="5.89470036834023"><ele>320.0</ele><time>2026-04-11T15:10:59.999Z</time></trkpt><trkpt lat="43.443865156628775" lon="5.8948007609768185"><ele>320.0</ele><time>2026-04-11T15:11:03.999Z</time></trkpt><trkpt lat="43.443913155413426" lon="5.894908905880697"><ele>320.0</ele><time>2026-04-11T15:11:06.999Z</time></trkpt><trkpt lat="43.44396472067744" lon="5.895035339429299"><ele>320.0</ele><time>2026-04-11T15:11:08.999Z</time></trkpt><trkpt lat="43.44399030455606" lon="5.895126863035141"><ele>320.0</ele><time>2026-04-11T15:11:11.999Z</time></trkpt><trkpt lat="43.443975868637224" lon="5.895265346443635"><ele>320.0</ele><time>2026-04-11T15:11:14.999Z</time></trkpt><trkpt lat="43.44407498315912" lon="5.895267232054662"><ele>319.83333333333337</ele><time>2026-04-11T15:11:17.999Z</time></trkpt><trkpt lat="43.44414021772432" lon="5.895276301292301"><ele>319.6666666666667</ele><time>2026-04-11T15:11:19.999Z</time></trkpt><trkpt lat="43.44424728678439" lon="5.895306862408813"><ele>319.5</ele><time>2026-04-11T15:11:21.999Z</time></trkpt><trkpt lat="43.44431341857609" lon="5.895248552471871"><ele>319.3333333333333</ele><time>2026-04-11T15:11:23.999Z</time></trkpt><trkpt lat="43.4443761623171" lon="5.895232478386671"><ele>319.16666666666663</ele><time>2026-04-11T15:11:25.999Z</time></trkpt><trkpt lat="43.444418822604426" lon="5.895296886075957"><ele>319.0</ele><time>2026-04-11T15:11:27.999Z</time></trkpt><trkpt lat="43.44446190684596" lon="5.895399556784932"><ele>319.0</ele><time>2026-04-11T15:11:29.999Z</time></trkpt><trkpt lat="43.444528382332095" lon="5.895491474992541"><ele>319.0</ele><time>2026-04-11T15:11:35.999Z</time></trkpt><trkpt lat="43.44459561617324" lon="5.89558597338414"><ele>319.0</ele><time>2026-04-11T15:11:36.999Z</time></trkpt><trkpt lat="43.44465469910165" lon="5.895686984729507"><ele>319.0</ele><time>2026-04-11T15:11:37.999Z</time></trkpt><trkpt lat="43.44469691856449" lon="5.895757722188559"><ele>319.0</ele><time>2026-04-11T15:11:38.999Z</time></trkpt><trkpt lat="43.44475467572558" lon="5.895825108431218"><ele>319.0</ele><time>2026-04-11T15:11:39.999Z</time></trkpt><trkpt lat="43.44480554938421" lon="5.895895418645495"><ele>317.8333333333333</ele><time>2026-04-11T15:11:40.999Z</time></trkpt><trkpt lat="43.44488428122975" lon="5.896010989342784"><ele>316.66666666666663</ele><time>2026-04-11T15:11:43Z</time></trkpt><trkpt lat="43.44493292708319" lon="5.896075333233836"><ele>315.5</ele><time>2026-04-11T15:11:44Z</time></trkpt><trkpt lat="43.445028656152516" lon="5.8961803413307114"><ele>314.3333333333333</ele><time>2026-04-11T15:11:46Z</time></trkpt><trkpt lat="43.44508807434757" lon="5.896230868487563"><ele>313.1666666666667</ele><time>2026-04-11T15:11:47Z</time></trkpt><trkpt lat="43.44514817378259" lon="5.8962897167154775"><ele>312.0</ele><time>2026-04-11T15:11:48Z</time></trkpt><trkpt lat="43.44522622439554" lon="5.896368185263243"><ele>312.0</ele><time>2026-04-11T15:11:49Z</time></trkpt><trkpt lat="43.44532347078083" lon="5.896457106290367"><ele>312.0</ele><time>2026-04-11T15:11:50Z</time></trkpt><trkpt lat="43.445436840552055" lon="5.896533541882453"><ele>312.0</ele><time>2026-04-11T15:11:51Z</time></trkpt><trkpt lat="43.44552737945531" lon="5.896602386745779"><ele>312.0</ele><time>2026-04-11T15:11:52Z</time></trkpt><trkpt lat="43.44560389394404" lon="5.896656231987251"><ele>312.0</ele><time>2026-04-11T15:11:53Z</time></trkpt><trkpt lat="43.44568420658133" lon="5.896710652228577"><ele>311.6</ele><time>2026-04-11T15:11:54Z</time></trkpt><trkpt lat="43.4457432039204" lon="5.896627336297454"><ele>311.2</ele><time>2026-04-11T15:11:56Z</time></trkpt><trkpt lat="43.44579273109811" lon="5.896573195544055"><ele>310.8</ele><time>2026-04-11T15:11:57Z</time></trkpt><trkpt lat="43.4458445157007" lon="5.896488872202437"><ele>310.4</ele><time>2026-04-11T15:11:58Z</time></trkpt><trkpt lat="43.44592783944889" lon="5.896364286930724"><ele>310.0</ele><time>2026-04-11T15:11:59Z</time></trkpt><trkpt lat="43.44600630626302" lon="5.896213280305976"><ele>310.0</ele><time>2026-04-11T15:12:00Z</time></trkpt><trkpt lat="43.44605669592283" lon="5.896091109520388"><ele>310.0</ele><time>2026-04-11T15:12:01Z</time></trkpt><trkpt lat="43.44610664115503" lon="5.895962595987194"><ele>310.0</ele><time>2026-04-11T15:12:02Z</time></trkpt><trkpt lat="43.44614767627345" lon="5.895824512523811"><ele>310.0</ele><time>2026-04-11T15:12:03Z</time></trkpt><trkpt lat="43.44617359102695" lon="5.895685888347057"><ele>310.0</ele><time>2026-04-11T15:12:04Z</time></trkpt><trkpt lat="43.44619489267259" lon="5.895557843092088"><ele>310.25</ele><time>2026-04-11T15:12:05Z</time></trkpt><trkpt lat="43.44622438635616" lon="5.8954093372777026"><ele>310.5</ele><time>2026-04-11T15:12:06Z</time></trkpt><trkpt lat="43.446263840604296" lon="5.89523546862865"><ele>310.75</ele><time>2026-04-11T15:12:07Z</time></trkpt><trkpt lat="43.44630836852278" lon="5.895069304579915"><ele>311.0</ele><time>2026-04-11T15:12:08Z</time></trkpt><trkpt lat="43.446374607158496" lon="5.894877532169557"><ele>311.0</ele><time>2026-04-11T15:12:09Z</time></trkpt><trkpt lat="43.446444180722764" lon="5.894639044651743"><ele>311.0</ele><time>2026-04-11T15:12:10Z</time></trkpt><trkpt lat="43.44650868188449" lon="5.8944230509657585"><ele>311.0</ele><time>2026-04-11T15:12:11Z</time></trkpt><trkpt lat="43.44657400773186" lon="5.894240389009499"><ele>311.0</ele><time>2026-04-11T15:12:12Z</time></trkpt><trkpt lat="43.44662701369795" lon="5.89408289512423"><ele>311.0</ele><time>2026-04-11T15:12:13Z</time></trkpt><trkpt lat="43.44673637214893" lon="5.893949583985856"><ele>311.0</ele><time>2026-04-11T15:12:14Z</time></trkpt><trkpt lat="43.44679833361972" lon="5.893802841370573"><ele>311.0</ele><time>2026-04-11T15:12:15Z</time></trkpt><trkpt lat="43.4468604798745" lon="5.89365101347685"><ele>311.0</ele><time>2026-04-11T15:12:16Z</time></trkpt><trkpt lat="43.44690039471567" lon="5.893532924088585"><ele>311.0</ele><time>2026-04-11T15:12:17Z</time></trkpt><trkpt lat="43.44691929872453" lon="5.893423878841807"><ele>311.0</ele><time>2026-04-11T15:12:18Z</time></trkpt><trkpt lat="43.44691989846154" lon="5.893315369273589"><ele>311.0</ele><time>2026-04-11T15:12:19Z</time></trkpt><trkpt lat="43.44689905519919" lon="5.893187971114665"><ele>311.0</ele><time>2026-04-11T15:12:20Z</time></trkpt><trkpt lat="43.446877824874186" lon="5.893049468724142"><ele>311.0</ele><time>2026-04-11T15:12:21Z</time></trkpt><trkpt lat="43.446860191450135" lon="5.892888641482828"><ele>311.0</ele><time>2026-04-11T15:12:22Z</time></trkpt><trkpt lat="43.446862812717484" lon="5.8927433706826005"><ele>311.0</ele><time>2026-04-11T15:12:23Z</time></trkpt><trkpt lat="43.44685580316066" lon="5.892605218489717"><ele>311.0</ele><time>2026-04-11T15:12:23.999Z</time></trkpt><trkpt lat="43.446855429211" lon="5.892460168619852"><ele>311.0</ele><time>2026-04-11T15:12:24.999Z</time></trkpt><trkpt lat="43.44687701401544" lon="5.892304893529852"><ele>312.40000000000003</ele><time>2026-04-11T15:12:25.999Z</time></trkpt><trkpt lat="43.446908197406074" lon="5.892144577263603"><ele>313.8</ele><time>2026-04-11T15:12:26.999Z</time></trkpt><trkpt lat="43.44694464327481" lon="5.892024078092028"><ele>315.20000000000005</ele><time>2026-04-11T15:12:27.999Z</time></trkpt><trkpt lat="43.44699034315199" lon="5.89191829733321"><ele>316.6</ele><time>2026-04-11T15:12:28.999Z</time></trkpt><trkpt lat="43.447046745665126" lon="5.891785056022166"><ele>318.0</ele><time>2026-04-11T15:12:29.999Z</time></trkpt><trkpt lat="43.447135712918765" lon="5.891611555032113"><ele>318.0</ele><time>2026-04-11T15:12:30.999Z</time></trkpt><trkpt lat="43.4472236014819" lon="5.891439930691423"><ele>318.0</ele><time>2026-04-11T15:12:31.999Z</time></trkpt><trkpt lat="43.44728652824871" lon="5.891293993862934"><ele>318.0</ele><time>2026-04-11T15:12:32.999Z</time></trkpt><trkpt lat="43.44731721356582" lon="5.891171191834964"><ele>318.0</ele><time>2026-04-11T15:12:33.999Z</time></trkpt><trkpt lat="43.44733277402263" lon="5.891030521996364"><ele>319.0</ele><time>2026-04-11T15:12:34.999Z</time></trkpt><trkpt lat="43.44735647152155" lon="5.890856323467368"><ele>320.0</ele><time>2026-04-11T15:12:35.999Z</time></trkpt><trkpt lat="43.447392978133585" lon="5.890716290614513"><ele>321.0</ele><time>2026-04-11T15:12:36.999Z</time></trkpt><trkpt lat="43.447415486321006" lon="5.890578807239814"><ele>322.0</ele><time>2026-04-11T15:12:37.999Z</time></trkpt><trkpt lat="43.44745471524578" lon="5.8904117615142315"><ele>322.0</ele><time>2026-04-11T15:12:38.999Z</time></trkpt><trkpt lat="43.44751137851858" lon="5.890230037438996"><ele>322.0</ele><time>2026-04-11T15:12:39.999Z</time></trkpt><trkpt lat="43.44759723920056" lon="5.890074363037541"><ele>322.0</ele><time>2026-04-11T15:12:40.999Z</time></trkpt><trkpt lat="43.447699205951096" lon="5.8898938280045865"><ele>322.3333333333333</ele><time>2026-04-11T15:12:41.999Z</time></trkpt><trkpt lat="43.44780530268397" lon="5.889688066504184"><ele>322.6666666666667</ele><time>2026-04-11T15:12:42.999Z</time></trkpt><trkpt lat="43.44790885603737" lon="5.889490330424559"><ele>323.0</ele><time>2026-04-11T15:12:43.999Z</time></trkpt><trkpt lat="43.448007432924456" lon="5.889293122896985"><ele>320.5</ele><time>2026-04-11T15:12:44.999Z</time></trkpt><trkpt lat="43.44809680367028" lon="5.889101689228692"><ele>318.0</ele><time>2026-04-11T15:12:45.999Z</time></trkpt><trkpt lat="43.44817570648376" lon="5.888935400390573"><ele>315.5</ele><time>2026-04-11T15:12:46.999Z</time></trkpt><trkpt lat="43.44825307972716" lon="5.888776977523046"><ele>313.0</ele><time>2026-04-11T15:12:47.999Z</time></trkpt><trkpt lat="43.4483383355582" lon="5.888621780068787"><ele>313.0</ele><time>2026-04-11T15:12:48.999Z</time></trkpt><trkpt lat="43.44842910233128" lon="5.888464551450487"><ele>313.0</ele><time>2026-04-11T15:12:49.999Z</time></trkpt><trkpt lat="43.44852733682617" lon="5.888311727084026"><ele>313.0</ele><time>2026-04-11T15:12:50.999Z</time></trkpt><trkpt lat="43.44862912269479" lon="5.888158457780944"><ele>313.0</ele><time>2026-04-11T15:12:51.999Z</time></trkpt><trkpt lat="43.44872532531238" lon="5.887977523821559"><ele>311.3333333333333</ele><time>2026-04-11T15:12:52.999Z</time></trkpt><trkpt lat="43.44881759508906" lon="5.887754735751994"><ele>309.6666666666667</ele><time>2026-04-11T15:12:53.999Z</time></trkpt><trkpt lat="43.448862252149965" lon="5.887486042065606"><ele>308.0</ele><time>2026-04-11T15:12:54.999Z</time></trkpt><trkpt lat="43.44896831163068" lon="5.887237634959358"><ele>305.6666666666667</ele><time>2026-04-11T15:12:55.999Z</time></trkpt><trkpt lat="43.44908403009058" lon="5.886980848260812"><ele>303.3333333333333</ele><time>2026-04-11T15:12:56.999Z</time></trkpt><trkpt lat="43.449194463428654" lon="5.886746650376181"><ele>301.0</ele><time>2026-04-11T15:12:57.999Z</time></trkpt><trkpt lat="43.44929764138287" lon="5.886530962586908"><ele>299.66666666666663</ele><time>2026-04-11T15:12:58.999Z</time></trkpt><trkpt lat="43.44939943051171" lon="5.886329230263455"><ele>298.3333333333333</ele><time>2026-04-11T15:12:59.999Z</time></trkpt><trkpt lat="43.44949261252654" lon="5.886132481476131"><ele>297.0</ele><time>2026-04-11T15:13:00.999Z</time></trkpt><trkpt lat="43.449581704567535" lon="5.885932070102403"><ele>297.3333333333333</ele><time>2026-04-11T15:13:01.999Z</time></trkpt><trkpt lat="43.44969632450149" lon="5.8857217988641315"><ele>297.66666666666663</ele><time>2026-04-11T15:13:02.999Z</time></trkpt><trkpt lat="43.44981789286028" lon="5.885488428141252"><ele>298.0</ele><time>2026-04-11T15:13:03.999Z</time></trkpt><trkpt lat="43.44992478780012" lon="5.885231368802679"><ele>296.0</ele><time>2026-04-11T15:13:04.999Z</time></trkpt><trkpt lat="43.45001109179874" lon="5.884990403488186"><ele>294.0</ele><time>2026-04-11T15:13:05.999Z</time></trkpt><trkpt lat="43.45008848317899" lon="5.884780087109011"><ele>292.0</ele><time>2026-04-11T15:13:06.999Z</time></trkpt><trkpt lat="43.45016998557383" lon="5.8845950151197925"><ele>292.0</ele><time>2026-04-11T15:13:07.999Z</time></trkpt><trkpt lat="43.45026957648666" lon="5.884445362765842"><ele>292.0</ele><time>2026-04-11T15:13:08.999Z</time></trkpt><trkpt lat="43.45039030835233" lon="5.884328653251654"><ele>292.0</ele><time>2026-04-11T15:13:09.999Z</time></trkpt><trkpt lat="43.45050699764457" lon="5.884166349940437"><ele>292.0</ele><time>2026-04-11T15:13:10.999Z</time></trkpt><trkpt lat="43.45063443917702" lon="5.884008567258674"><ele>292.0</ele><time>2026-04-11T15:13:11.999Z</time></trkpt><trkpt lat="43.450752247849465" lon="5.883812911904802"><ele>292.0</ele><time>2026-04-11T15:13:12.999Z</time></trkpt><trkpt lat="43.45086967571396" lon="5.883592534843538"><ele>290.66666666666663</ele><time>2026-04-11T15:13:13.999Z</time></trkpt><trkpt lat="43.450977454507004" lon="5.883367731539877"><ele>289.3333333333333</ele><time>2026-04-11T15:13:14.999Z</time></trkpt><trkpt lat="43.45106195610244" lon="5.883161155809514"><ele>288.0</ele><time>2026-04-11T15:13:15.999Z</time></trkpt><trkpt lat="43.45113322351257" lon="5.882953360192744"><ele>288.0</ele><time>2026-04-11T15:13:16.999Z</time></trkpt><trkpt lat="43.4511992699789" lon="5.8827383115748"><ele>288.0</ele><time>2026-04-11T15:13:17.999Z</time></trkpt><trkpt lat="43.451260576206465" lon="5.882527423014436"><ele>288.0</ele><time>2026-04-11T15:13:18.999Z</time></trkpt><trkpt lat="43.4513063895698" lon="5.882339816479103"><ele>289.0</ele><time>2026-04-11T15:13:19.999Z</time></trkpt><trkpt lat="43.45133749804833" lon="5.882160665585425"><ele>290.0</ele><time>2026-04-11T15:13:20.999Z</time></trkpt><trkpt lat="43.451405449452814" lon="5.881961665212671"><ele>291.0</ele><time>2026-04-11T15:13:21.999Z</time></trkpt><trkpt lat="43.45139952026904" lon="5.881724599840561"><ele>291.0</ele><time>2026-04-11T15:13:22.999Z</time></trkpt><trkpt lat="43.45138063457382" lon="5.881467445808278"><ele>291.0</ele><time>2026-04-11T15:13:23.999Z</time></trkpt><trkpt lat="43.451341308259074" lon="5.881199478064268"><ele>291.0</ele><time>2026-04-11T15:13:24.999Z</time></trkpt><trkpt lat="43.45122662985067" lon="5.880938954933423"><ele>290.0</ele><time>2026-04-11T15:13:25.999Z</time></trkpt><trkpt lat="43.45114813990417" lon="5.880649227209161"><ele>289.0</ele><time>2026-04-11T15:13:26.999Z</time></trkpt><trkpt lat="43.45107318336048" lon="5.880384713137671"><ele>288.0</ele><time>2026-04-11T15:13:27.999Z</time></trkpt><trkpt lat="43.45097946700132" lon="5.880155782454737"><ele>288.3333333333333</ele><time>2026-04-11T15:13:28.999Z</time></trkpt><trkpt lat="43.450873001181805" lon="5.8799462114480345"><ele>288.66666666666663</ele><time>2026-04-11T15:13:29.999Z</time></trkpt><trkpt lat="43.450758129800576" lon="5.879725982398595"><ele>289.0</ele><time>2026-04-11T15:13:30.999Z</time></trkpt><trkpt lat="43.4506379833155" lon="5.879495975685934"><ele>289.0</ele><time>2026-04-11T15:13:31.999Z</time></trkpt><trkpt lat="43.45052615552149" lon="5.879281083732568"><ele>289.0</ele><time>2026-04-11T15:13:32.999Z</time></trkpt><trkpt lat="43.450440416467856" lon="5.879065328696746"><ele>289.0</ele><time>2026-04-11T15:13:33.999Z</time></trkpt><trkpt lat="43.450357626223706" lon="5.878898622055683"><ele>289.0</ele><time>2026-04-11T15:13:34.999Z</time></trkpt><trkpt lat="43.450279049283374" lon="5.878787943096508"><ele>289.0</ele><time>2026-04-11T15:13:35.999Z</time></trkpt><trkpt lat="43.45020888122964" lon="5.878677665375748"><ele>289.0</ele><time>2026-04-11T15:13:36.999Z</time></trkpt><trkpt lat="43.45009523201728" lon="5.878645923225113"><ele>289.0</ele><time>2026-04-11T15:13:37.999Z</time></trkpt><trkpt lat="43.44997892224423" lon="5.878654780615184"><ele>289.0</ele><time>2026-04-11T15:13:38.999Z</time></trkpt><trkpt lat="43.449873982030695" lon="5.878668008376452"><ele>289.0</ele><time>2026-04-11T15:13:39.999Z</time></trkpt><trkpt lat="43.44978615628354" lon="5.878662028840633"><ele>289.0</ele><time>2026-04-11T15:13:40.999Z</time></trkpt><trkpt lat="43.44968670476888" lon="5.878603220599863"><ele>289.0</ele><time>2026-04-11T15:13:41.999Z</time></trkpt><trkpt lat="43.44958958297535" lon="5.878462428655916"><ele>289.0</ele><time>2026-04-11T15:13:42.999Z</time></trkpt><trkpt lat="43.44949388588138" lon="5.878322809916699"><ele>289.0</ele><time>2026-04-11T15:13:43.999Z</time></trkpt><trkpt lat="43.44940720081649" lon="5.878199846742266"><ele>289.0</ele><time>2026-04-11T15:13:44.999Z</time></trkpt><trkpt lat="43.449346725610326" lon="5.878062546633232"><ele>289.0</ele><time>2026-04-11T15:13:45.999Z</time></trkpt><trkpt lat="43.44933479068798" lon="5.877903048259886"><ele>289.0</ele><time>2026-04-11T15:13:46.999Z</time></trkpt><trkpt lat="43.44931843982622" lon="5.877754254452421"><ele>289.0</ele><time>2026-04-11T15:13:48Z</time></trkpt><trkpt lat="43.4492981255571" lon="5.87762387578937"><ele>289.0</ele><time>2026-04-11T15:13:49Z</time></trkpt><trkpt lat="43.44925972768656" lon="5.877512297254962"><ele>289.0</ele><time>2026-04-11T15:13:50Z</time></trkpt><trkpt lat="43.44919349942946" lon="5.8773946375821"><ele>289.0</ele><time>2026-04-11T15:13:51Z</time></trkpt><trkpt lat="43.44910167956578" lon="5.877263666629636"><ele>289.0</ele><time>2026-04-11T15:13:52Z</time></trkpt><trkpt lat="43.44902056004704" lon="5.877104783847159"><ele>289.0</ele><time>2026-04-11T15:13:53Z</time></trkpt><trkpt lat="43.448932695154866" lon="5.8769478985477654"><ele>289.0</ele><time>2026-04-11T15:13:54Z</time></trkpt><trkpt lat="43.44884887066082" lon="5.87680124688924"><ele>289.0</ele><time>2026-04-11T15:13:55Z</time></trkpt><trkpt lat="43.44880910820855" lon="5.87663678859255"><ele>289.0</ele><time>2026-04-11T15:13:56Z</time></trkpt><trkpt lat="43.44875519087111" lon="5.876497180483317"><ele>289.0</ele><time>2026-04-11T15:13:57Z</time></trkpt><trkpt lat="43.44869944891675" lon="5.876393670655819"><ele>289.0</ele><time>2026-04-11T15:13:58Z</time></trkpt><trkpt lat="43.44862476632717" lon="5.87632450462605"><ele>289.0</ele><time>2026-04-11T15:13:59Z</time></trkpt><trkpt lat="43.44852315191849" lon="5.876306295757892"><ele>289.0</ele><time>2026-04-11T15:14:00Z</time></trkpt><trkpt lat="43.44840662281793" lon="5.876319285698615"><ele>289.0</ele><time>2026-04-11T15:14:01Z</time></trkpt><trkpt lat="43.44830719798216" lon="5.876284638626352"><ele>289.0</ele><time>2026-04-11T15:14:02Z</time></trkpt><trkpt lat="43.44822843418385" lon="5.876266810626163"><ele>289.0</ele><time>2026-04-11T15:14:03Z</time></trkpt><trkpt lat="43.44817800356324" lon="5.876192052378019"><ele>289.0</ele><time>2026-04-11T15:14:04Z</time></trkpt><trkpt lat="43.448126082186086" lon="5.876121644988915"><ele>289.0</ele><time>2026-04-11T15:14:05Z</time></trkpt><trkpt lat="43.448131352802385" lon="5.876000379167171"><ele>289.0</ele><time>2026-04-11T15:14:06Z</time></trkpt><trkpt lat="43.44812203112635" lon="5.875912732278444"><ele>289.0</ele><time>2026-04-11T15:14:07Z</time></trkpt><trkpt lat="43.44806109798645" lon="5.875847889405988"><ele>289.0</ele><time>2026-04-11T15:14:08Z</time></trkpt><trkpt lat="43.44803131474089" lon="5.875735247475602"><ele>289.0</ele><time>2026-04-11T15:14:09Z</time></trkpt><trkpt lat="43.44802390352687" lon="5.8755805150097205"><ele>289.0</ele><time>2026-04-11T15:14:10Z</time></trkpt><trkpt lat="43.44801215127779" lon="5.875419824477503"><ele>289.0</ele><time>2026-04-11T15:14:11Z</time></trkpt><trkpt lat="43.44802841699312" lon="5.875270805749418"><ele>289.0</ele><time>2026-04-11T15:14:12Z</time></trkpt><trkpt lat="43.44797112065615" lon="5.8751532365119346"><ele>289.59999999999997</ele><time>2026-04-11T15:14:13Z</time></trkpt><trkpt lat="43.447868111224544" lon="5.8750847971302465"><ele>290.2</ele><time>2026-04-11T15:14:14Z</time></trkpt><trkpt lat="43.44779837035531" lon="5.874978738937429"><ele>290.79999999999995</ele><time>2026-04-11T15:14:15Z</time></trkpt><trkpt lat="43.447727871547414" lon="5.8748888443809975"><ele>291.4</ele><time>2026-04-11T15:14:16Z</time></trkpt><trkpt lat="43.44766921187407" lon="5.874800354502488"><ele>292.0</ele><time>2026-04-11T15:14:17Z</time></trkpt><trkpt lat="43.44760071821523" lon="5.874702556621153"><ele>292.0</ele><time>2026-04-11T15:14:19Z</time></trkpt><trkpt lat="43.44765142480256" lon="5.874475522761477"><ele>292.0</ele><time>2026-04-11T15:14:21Z</time></trkpt><trkpt lat="43.44773382885724" lon="5.8743911930420705"><ele>292.0</ele><time>2026-04-11T15:14:21.999Z</time></trkpt><trkpt lat="43.44779333014196" lon="5.874287245825265"><ele>292.0</ele><time>2026-04-11T15:14:22.999Z</time></trkpt><trkpt lat="43.447849924739785" lon="5.874157653458018"><ele>292.3333333333333</ele><time>2026-04-11T15:14:23.999Z</time></trkpt><trkpt lat="43.44792789913422" lon="5.873975331522857"><ele>292.6666666666667</ele><time>2026-04-11T15:14:24.999Z</time></trkpt><trkpt lat="43.44801437828544" lon="5.873788403251998"><ele>293.0</ele><time>2026-04-11T15:14:25.999Z</time></trkpt><trkpt lat="43.44808776513726" lon="5.873612290382988"><ele>293.0</ele><time>2026-04-11T15:14:26.999Z</time></trkpt><trkpt lat="43.448154614083414" lon="5.873467204080037"><ele>293.0</ele><time>2026-04-11T15:14:27.999Z</time></trkpt><trkpt lat="43.44823407572847" lon="5.873370446269194"><ele>293.0</ele><time>2026-04-11T15:14:28.999Z</time></trkpt><trkpt lat="43.44833538326981" lon="5.873322011470879"><ele>293.0</ele><time>2026-04-11T15:14:29.999Z</time></trkpt><trkpt lat="43.44845876466557" lon="5.873317013750974"><ele>293.0</ele><time>2026-04-11T15:14:30.999Z</time></trkpt><trkpt lat="43.44856748649121" lon="5.873244773475568"><ele>293.0</ele><time>2026-04-11T15:14:31.999Z</time></trkpt><trkpt lat="43.44864709723341" lon="5.873123116479811"><ele>293.0</ele><time>2026-04-11T15:14:32.999Z</time></trkpt><trkpt lat="43.44874787567842" lon="5.8729711742780095"><ele>293.0</ele><time>2026-04-11T15:14:33.999Z</time></trkpt><trkpt lat="43.448893525394766" lon="5.872849570811076"><ele>293.0</ele><time>2026-04-11T15:14:34.999Z</time></trkpt><trkpt lat="43.44897742901693" lon="5.872690157448063"><ele>293.0</ele><time>2026-04-11T15:14:35.999Z</time></trkpt><trkpt lat="43.44903651865939" lon="5.8725297833951595"><ele>293.0</ele><time>2026-04-11T15:14:36.999Z</time></trkpt><trkpt lat="43.449064895710876" lon="5.872359215491524"><ele>293.0</ele><time>2026-04-11T15:14:37.999Z</time></trkpt><trkpt lat="43.44908221412128" lon="5.87219498654546"><ele>293.4</ele><time>2026-04-11T15:14:38.999Z</time></trkpt><trkpt lat="43.449093654479185" lon="5.872039732921089"><ele>293.8</ele><time>2026-04-11T15:14:39.999Z</time></trkpt><trkpt lat="43.44909598745424" lon="5.871895822958166"><ele>294.2</ele><time>2026-04-11T15:14:40.999Z</time></trkpt><trkpt lat="43.4491024564543" lon="5.871758378042568"><ele>294.6</ele><time>2026-04-11T15:14:41.999Z</time></trkpt><trkpt lat="43.44911379432628" lon="5.871625829173355"><ele>295.0</ele><time>2026-04-11T15:14:42.999Z</time></trkpt><trkpt lat="43.44912862392875" lon="5.871486062540612"><ele>295.42857142857144</ele><time>2026-04-11T15:14:43.999Z</time></trkpt><trkpt lat="43.44913949352364" lon="5.871353491638781"><ele>295.8571428571429</ele><time>2026-04-11T15:14:44.999Z</time></trkpt><trkpt lat="43.44914743677999" lon="5.871244374575971"><ele>296.2857142857143</ele><time>2026-04-11T15:14:45.999Z</time></trkpt><trkpt lat="43.44915648696831" lon="5.8711570273795335"><ele>296.7142857142857</ele><time>2026-04-11T15:14:46.999Z</time></trkpt><trkpt lat="43.44916539937723" lon="5.871071039134446"><ele>297.1428571428571</ele><time>2026-04-11T15:14:47.999Z</time></trkpt><trkpt lat="43.449180905868104" lon="5.870983563057734"><ele>297.57142857142856</ele><time>2026-04-11T15:14:48.999Z</time></trkpt><trkpt lat="43.44921550189507" lon="5.8708995537082505"><ele>298.0</ele><time>2026-04-11T15:14:49.999Z</time></trkpt><trkpt lat="43.44927805342719" lon="5.870822498310156"><ele>298.0</ele><time>2026-04-11T15:14:50.999Z</time></trkpt><trkpt lat="43.449366952524116" lon="5.870765519943458"><ele>298.0</ele><time>2026-04-11T15:14:51.999Z</time></trkpt><trkpt lat="43.449466787159736" lon="5.8707061195330645"><ele>298.0</ele><time>2026-04-11T15:14:52.999Z</time></trkpt><trkpt lat="43.44957572493743" lon="5.870639068219915"><ele>298.0</ele><time>2026-04-11T15:14:53.999Z</time></trkpt><trkpt lat="43.44968228671202" lon="5.870571180416763"><ele>298.0</ele><time>2026-04-11T15:14:54.999Z</time></trkpt><trkpt lat="43.449776739315986" lon="5.870516698098705"><ele>298.0</ele><time>2026-04-11T15:14:55.999Z</time></trkpt><trkpt lat="43.44985985511358" lon="5.870462584251911"><ele>298.0</ele><time>2026-04-11T15:14:56.999Z</time></trkpt><trkpt lat="43.44992005521975" lon="5.870391377442443"><ele>298.0</ele><time>2026-04-11T15:14:57.999Z</time></trkpt><trkpt lat="43.449939150464054" lon="5.870285079904851"><ele>298.0</ele><time>2026-04-11T15:14:58.999Z</time></trkpt><trkpt lat="43.44992079845306" lon="5.870153573886469"><ele>298.0</ele><time>2026-04-11T15:14:59.999Z</time></trkpt><trkpt lat="43.44987359218257" lon="5.870002459451608"><ele>299.2</ele><time>2026-04-11T15:15:00.999Z</time></trkpt><trkpt lat="43.44982763181136" lon="5.869867373526198"><ele>300.4</ele><time>2026-04-11T15:15:01.999Z</time></trkpt><trkpt lat="43.44979187965881" lon="5.869737048465625"><ele>301.59999999999997</ele><time>2026-04-11T15:15:02.999Z</time></trkpt><trkpt lat="43.44976883709941" lon="5.869611449118591"><ele>302.8</ele><time>2026-04-11T15:15:03.999Z</time></trkpt><trkpt lat="43.449762080926654" lon="5.869484411960858"><ele>304.0</ele><time>2026-04-11T15:15:04.999Z</time></trkpt><trkpt lat="43.449756265607306" lon="5.869356097109426"><ele>304.2</ele><time>2026-04-11T15:15:05.999Z</time></trkpt><trkpt lat="43.4497675912786" lon="5.86922333782471"><ele>304.4</ele><time>2026-04-11T15:15:06.999Z</time></trkpt><trkpt lat="43.44979836760993" lon="5.869080228605238"><ele>304.6</ele><time>2026-04-11T15:15:07.999Z</time></trkpt><trkpt lat="43.44983743738481" lon="5.868932175576069"><ele>304.8</ele><time>2026-04-11T15:15:08.999Z</time></trkpt><trkpt lat="43.449869615639386" lon="5.868801214993951"><ele>305.0</ele><time>2026-04-11T15:15:09.999Z</time></trkpt><trkpt lat="43.4498946784999" lon="5.868685177980319"><ele>305.0</ele><time>2026-04-11T15:15:10.999Z</time></trkpt><trkpt lat="43.44991443472722" lon="5.868578717271292"><ele>305.0</ele><time>2026-04-11T15:15:11.999Z</time></trkpt><trkpt lat="43.44993742960596" lon="5.868479570299167"><ele>305.0</ele><time>2026-04-11T15:15:12.999Z</time></trkpt><trkpt lat="43.44996846391104" lon="5.8683940134662675"><ele>305.0</ele><time>2026-04-11T15:15:13.999Z</time></trkpt><trkpt lat="43.45001367824836" lon="5.868310115528535"><ele>305.0</ele><time>2026-04-11T15:15:14.999Z</time></trkpt><trkpt lat="43.45007918019873" lon="5.8682234245592415"><ele>305.0</ele><time>2026-04-11T15:15:15.999Z</time></trkpt><trkpt lat="43.45016268843409" lon="5.86813325501703"><ele>304.8</ele><time>2026-04-11T15:15:16.999Z</time></trkpt><trkpt lat="43.45024156075207" lon="5.868041846239684"><ele>304.6</ele><time>2026-04-11T15:15:17.999Z</time></trkpt><trkpt lat="43.45031129109672" lon="5.867952141360213"><ele>304.4</ele><time>2026-04-11T15:15:18.999Z</time></trkpt><trkpt lat="43.45037902752569" lon="5.867860625978422"><ele>304.2</ele><time>2026-04-11T15:15:19.999Z</time></trkpt><trkpt lat="43.45046371228724" lon="5.867768853783006"><ele>304.0</ele><time>2026-04-11T15:15:20.999Z</time></trkpt><trkpt lat="43.45057511342782" lon="5.867656885197182"><ele>303.0</ele><time>2026-04-11T15:15:21.999Z</time></trkpt><trkpt lat="43.4506856020881" lon="5.867515083886534"><ele>302.0</ele><time>2026-04-11T15:15:22.999Z</time></trkpt><trkpt lat="43.450791791164164" lon="5.867359764937541"><ele>301.0</ele><time>2026-04-11T15:15:23.999Z</time></trkpt><trkpt lat="43.450903798650685" lon="5.867205306168051"><ele>301.0</ele><time>2026-04-11T15:15:24.999Z</time></trkpt><trkpt lat="43.45102286766544" lon="5.867036456128203"><ele>301.0</ele><time>2026-04-11T15:15:25.999Z</time></trkpt><trkpt lat="43.45113649449956" lon="5.866870990605049"><ele>301.0</ele><time>2026-04-11T15:15:26.999Z</time></trkpt><trkpt lat="43.45123377403335" lon="5.866723976825671"><ele>300.8</ele><time>2026-04-11T15:15:27.999Z</time></trkpt><trkpt lat="43.45130532816015" lon="5.866604670751454"><ele>300.6</ele><time>2026-04-11T15:15:28.999Z</time></trkpt><trkpt lat="43.45136442392572" lon="5.866509547946508"><ele>300.4</ele><time>2026-04-11T15:15:29.999Z</time></trkpt><trkpt lat="43.45141265137765" lon="5.866419280642509"><ele>300.2</ele><time>2026-04-11T15:15:30.999Z</time></trkpt><trkpt lat="43.45143280297448" lon="5.866327644820883"><ele>300.0</ele><time>2026-04-11T15:15:31.999Z</time></trkpt><trkpt lat="43.45144719224178" lon="5.866182694036385"><ele>300.0</ele><time>2026-04-11T15:15:33.999Z</time></trkpt><trkpt lat="43.45145821648293" lon="5.866056069017387"><ele>300.0</ele><time>2026-04-11T15:15:35.999Z</time></trkpt><trkpt lat="43.45147683060283" lon="5.865948378962804"><ele>300.0</ele><time>2026-04-11T15:15:37.999Z</time></trkpt><trkpt lat="43.45143771529909" lon="5.865862906038573"><ele>300.0</ele><time>2026-04-11T15:15:39.999Z</time></trkpt><trkpt lat="43.45133534307893" lon="5.8657734496694465"><ele>300.0</ele><time>2026-04-11T15:15:41.999Z</time></trkpt><trkpt lat="43.451276591613706" lon="5.865710140451637"><ele>300.0</ele><time>2026-04-11T15:15:42.999Z</time></trkpt><trkpt lat="43.451189687300925" lon="5.865629460686306"><ele>301.0</ele><time>2026-04-11T15:15:43.999Z</time></trkpt><trkpt lat="43.45108144406454" lon="5.865543729204714"><ele>302.0</ele><time>2026-04-11T15:15:44.999Z</time></trkpt><trkpt lat="43.45096937238798" lon="5.865447803587758"><ele>303.0</ele><time>2026-04-11T15:15:45.999Z</time></trkpt><trkpt lat="43.45083558213936" lon="5.865352273088724"><ele>304.0</ele><time>2026-04-11T15:15:46.999Z</time></trkpt><trkpt lat="43.4507279761567" lon="5.865245686184452"><ele>304.0</ele><time>2026-04-11T15:15:47.999Z</time></trkpt><trkpt lat="43.45061948886721" lon="5.865111739842737"><ele>304.0</ele><time>2026-04-11T15:15:48.999Z</time></trkpt><trkpt lat="43.450497187099224" lon="5.864947408298135"><ele>304.0</ele><time>2026-04-11T15:15:49.999Z</time></trkpt><trkpt lat="43.45036618446409" lon="5.864771834379893"><ele>304.25</ele><time>2026-04-11T15:15:50.999Z</time></trkpt><trkpt lat="43.45025145022607" lon="5.864610018634008"><ele>304.5</ele><time>2026-04-11T15:15:51.999Z</time></trkpt><trkpt lat="43.45014799228857" lon="5.864460421249851"><ele>304.75</ele><time>2026-04-11T15:15:52.999Z</time></trkpt><trkpt lat="43.45006691825635" lon="5.864321496140709"><ele>305.0</ele><time>2026-04-11T15:15:54Z</time></trkpt><trkpt lat="43.45000709935097" lon="5.864176873593196"><ele>305.25</ele><time>2026-04-11T15:15:55Z</time></trkpt><trkpt lat="43.44995978802318" lon="5.864034027608186"><ele>305.5</ele><time>2026-04-11T15:15:56Z</time></trkpt><trkpt lat="43.44989381159782" lon="5.863914550530287"><ele>305.75</ele><time>2026-04-11T15:15:57Z</time></trkpt><trkpt lat="43.449784809585815" lon="5.863822471308105"><ele>306.0</ele><time>2026-04-11T15:15:58Z</time></trkpt><trkpt lat="43.44963916262982" lon="5.863736524941738"><ele>306.3333333333333</ele><time>2026-04-11T15:15:59Z</time></trkpt><trkpt lat="43.44947639073806" lon="5.863638741927844"><ele>306.66666666666663</ele><time>2026-04-11T15:16:00Z</time></trkpt><trkpt lat="43.44932216269421" lon="5.863539709472246"><ele>307.0</ele><time>2026-04-11T15:16:01Z</time></trkpt><trkpt lat="43.44918967242747" lon="5.86345126600124"><ele>307.5</ele><time>2026-04-11T15:16:02Z</time></trkpt><trkpt lat="43.449065675910205" lon="5.86337312660809"><ele>308.0</ele><time>2026-04-11T15:16:03Z</time></trkpt><trkpt lat="43.44895176883854" lon="5.863308593135442"><ele>308.5</ele><time>2026-04-11T15:16:04Z</time></trkpt><trkpt lat="43.448846088907615" lon="5.863229079754707"><ele>309.0</ele><time>2026-04-11T15:16:05Z</time></trkpt><trkpt lat="43.448756588639576" lon="5.863158856878281"><ele>309.0</ele><time>2026-04-11T15:16:06Z</time></trkpt><trkpt lat="43.448719041743786" lon="5.863083373126952"><ele>309.0</ele><time>2026-04-11T15:16:07Z</time></trkpt><trkpt lat="43.448687865730165" lon="5.862977925522687"><ele>309.0</ele><time>2026-04-11T15:16:09Z</time></trkpt><trkpt lat="43.448618826834995" lon="5.862844461087798"><ele>309.0</ele><time>2026-04-11T15:16:11Z</time></trkpt><trkpt lat="43.44855297041867" lon="5.862852310838024"><ele>309.0</ele><time>2026-04-11T15:16:12Z</time></trkpt><trkpt lat="43.4484883773658" lon="5.86291433489866"><ele>309.0</ele><time>2026-04-11T15:16:13Z</time></trkpt><trkpt lat="43.44841052095183" lon="5.863002758636635"><ele>309.0</ele><time>2026-04-11T15:16:14Z</time></trkpt><trkpt lat="43.44832964897383" lon="5.863106173244277"><ele>309.0</ele><time>2026-04-11T15:16:15Z</time></trkpt><trkpt lat="43.44824889185791" lon="5.863214078175693"><ele>309.0</ele><time>2026-04-11T15:16:16Z</time></trkpt><trkpt lat="43.4481634844646" lon="5.863328303858714"><ele>309.0</ele><time>2026-04-11T15:16:17Z</time></trkpt><trkpt lat="43.44807394662865" lon="5.863446739822611"><ele>309.25</ele><time>2026-04-11T15:16:18Z</time></trkpt><trkpt lat="43.44798842605475" lon="5.863566301639111"><ele>309.5</ele><time>2026-04-11T15:16:19Z</time></trkpt><trkpt lat="43.44790246960799" lon="5.863680489261029"><ele>309.75</ele><time>2026-04-11T15:16:20Z</time></trkpt><trkpt lat="43.447822995545735" lon="5.86378487517751"><ele>310.0</ele><time>2026-04-11T15:16:20.999Z</time></trkpt><trkpt lat="43.44774488671239" lon="5.863891737780811"><ele>310.0</ele><time>2026-04-11T15:16:21.999Z</time></trkpt><trkpt lat="43.44766334774031" lon="5.864014052096694"><ele>310.0</ele><time>2026-04-11T15:16:22.999Z</time></trkpt><trkpt lat="43.44755313187544" lon="5.864138602091784"><ele>310.0</ele><time>2026-04-11T15:16:23.999Z</time></trkpt><trkpt lat="43.44742912739532" lon="5.864240965402873"><ele>310.0</ele><time>2026-04-11T15:16:24.999Z</time></trkpt><trkpt lat="43.447282162399155" lon="5.864325450872954"><ele>311.25</ele><time>2026-04-11T15:16:25.999Z</time></trkpt><trkpt lat="43.447134936711585" lon="5.8644042766070035"><ele>312.5</ele><time>2026-04-11T15:16:26.999Z</time></trkpt><trkpt lat="43.44700724500384" lon="5.86447195947009"><ele>313.75</ele><time>2026-04-11T15:16:27.999Z</time></trkpt><trkpt lat="43.44691308230739" lon="5.864528380614478"><ele>315.0</ele><time>2026-04-11T15:16:28.999Z</time></trkpt><trkpt lat="43.446843243091685" lon="5.864563714242592"><ele>315.42857142857144</ele><time>2026-04-11T15:16:29.999Z</time></trkpt><trkpt lat="43.446778102590315" lon="5.864598138943759"><ele>315.8571428571429</ele><time>2026-04-11T15:16:30.999Z</time></trkpt><trkpt lat="43.44671895616535" lon="5.864635275581623"><ele>316.2857142857143</ele><time>2026-04-11T15:16:31.999Z</time></trkpt><trkpt lat="43.44666180068329" lon="5.86467286301202"><ele>316.7142857142857</ele><time>2026-04-11T15:16:32.999Z</time></trkpt><trkpt lat="43.4465553107371" lon="5.864672620411509"><ele>317.14285714285717</ele><time>2026-04-11T15:16:34.999Z</time></trkpt><trkpt lat="43.44649334643431" lon="5.864636341392801"><ele>317.57142857142856</ele><time>2026-04-11T15:16:35.999Z</time></trkpt><trkpt lat="43.44642379633998" lon="5.864604357525887"><ele>318.0</ele><time>2026-04-11T15:16:36.999Z</time></trkpt><trkpt lat="43.446326736304265" lon="5.86455044886267"><ele>318.0</ele><time>2026-04-11T15:16:38.999Z</time></trkpt><trkpt lat="43.44625655046487" lon="5.864466436464337"><ele>318.0</ele><time>2026-04-11T15:16:40.999Z</time></trkpt><trkpt lat="43.446195054633186" lon="5.864440289910237"><ele>318.0</ele><time>2026-04-11T15:16:42.999Z</time></trkpt><trkpt lat="43.44617280824321" lon="5.864564829552459"><ele>318.0</ele><time>2026-04-11T15:16:44.999Z</time></trkpt><trkpt lat="43.44619553551391" lon="5.864646169666642"><ele>318.0</ele><time>2026-04-11T15:16:45.999Z</time></trkpt><trkpt lat="43.44617388660908" lon="5.864739891438639"><ele>318.0</ele><time>2026-04-11T15:16:47.999Z</time></trkpt><trkpt lat="43.446049710050154" lon="5.86464484120875"><ele>318.0</ele><time>2026-04-11T15:18:00Z</time></trkpt><trkpt lat="43.44611274531325" lon="5.864666531304048"><ele>318.0</ele><time>2026-04-11T15:23:05Z</time></trkpt><trkpt lat="43.44605423840563" lon="5.864628838801137"><ele>318.0</ele><time>2026-04-11T15:25:33Z</time></trkpt><trkpt lat="43.446133176683276" lon="5.86471711818927"><ele>318.0</ele><time>2026-04-11T15:26:04Z</time></trkpt><trkpt lat="43.44615066537787" lon="5.864550073602079"><ele>318.0</ele><time>2026-04-11T15:28:20.999Z</time></trkpt><trkpt lat="43.44616213510607" lon="5.864432145167586"><ele>318.0</ele><time>2026-04-11T15:28:22.999Z</time></trkpt><trkpt lat="43.446230438589964" lon="5.864419242136423"><ele>318.0</ele><time>2026-04-11T15:28:24.999Z</time></trkpt><trkpt lat="43.446328639442015" lon="5.864528417779064"><ele>318.0</ele><time>2026-04-11T15:28:34Z</time></trkpt><trkpt lat="43.4464543413684" lon="5.864575035077532"><ele>318.0</ele><time>2026-04-11T15:28:48Z</time></trkpt><trkpt lat="43.44657848419282" lon="5.864592474011971"><ele>318.0</ele><time>2026-04-11T15:28:50Z</time></trkpt><trkpt lat="43.446670806913346" lon="5.864594107535643"><ele>318.0</ele><time>2026-04-11T15:28:52Z</time></trkpt><trkpt lat="43.44671258095486" lon="5.86451171148516"><ele>318.0</ele><time>2026-04-11T15:28:54Z</time></trkpt><trkpt lat="43.44668236575721" lon="5.864384833546248"><ele>318.0</ele><time>2026-04-11T15:28:56Z</time></trkpt><trkpt lat="43.44664256839206" lon="5.864309160818078"><ele>318.0</ele><time>2026-04-11T15:28:57Z</time></trkpt><trkpt lat="43.44661382574699" lon="5.864223495317228"><ele>318.0</ele><time>2026-04-11T15:28:58Z</time></trkpt><trkpt lat="43.446601127437596" lon="5.864091304250445"><ele>318.0</ele><time>2026-04-11T15:28:59Z</time></trkpt><trkpt lat="43.44659359039063" lon="5.863966024999885"><ele>317.8</ele><time>2026-04-11T15:29:00Z</time></trkpt><trkpt lat="43.44657156222529" lon="5.863872931639874"><ele>317.6</ele><time>2026-04-11T15:29:01Z</time></trkpt><trkpt lat="43.44652561413588" lon="5.86373293818518"><ele>317.4</ele><time>2026-04-11T15:29:03Z</time></trkpt><trkpt lat="43.44652436917738" lon="5.863603632583878"><ele>317.2</ele><time>2026-04-11T15:29:05Z</time></trkpt><trkpt lat="43.44658396694009" lon="5.863438138450734"><ele>317.0</ele><time>2026-04-11T15:29:07Z</time></trkpt><trkpt lat="43.44665911015394" lon="5.863332279260443"><ele>317.0</ele><time>2026-04-11T15:29:08Z</time></trkpt><trkpt lat="43.44676508620017" lon="5.863196077909642"><ele>317.0</ele><time>2026-04-11T15:29:09Z</time></trkpt><trkpt lat="43.44686821109393" lon="5.863055139872148"><ele>317.0</ele><time>2026-04-11T15:29:10Z</time></trkpt><trkpt lat="43.44698340385708" lon="5.862889529773557"><ele>317.0</ele><time>2026-04-11T15:29:11Z</time></trkpt><trkpt lat="43.447107217827195" lon="5.862712851126171"><ele>317.0</ele><time>2026-04-11T15:29:12Z</time></trkpt><trkpt lat="43.4472181909643" lon="5.862556699067777"><ele>317.0</ele><time>2026-04-11T15:29:13Z</time></trkpt><trkpt lat="43.44731826485114" lon="5.862414439661731"><ele>316.25</ele><time>2026-04-11T15:29:14Z</time></trkpt><trkpt lat="43.447415816042565" lon="5.862277836834364"><ele>315.5</ele><time>2026-04-11T15:29:15Z</time></trkpt><trkpt lat="43.44751151389094" lon="5.862152020822342"><ele>314.75</ele><time>2026-04-11T15:29:16Z</time></trkpt><trkpt lat="43.447603823358435" lon="5.862031578665925"><ele>314.0</ele><time>2026-04-11T15:29:17Z</time></trkpt><trkpt lat="43.44768981456551" lon="5.861918702733787"><ele>314.0</ele><time>2026-04-11T15:29:18Z</time></trkpt><trkpt lat="43.44777297287325" lon="5.861812068969906"><ele>314.0</ele><time>2026-04-11T15:29:19Z</time></trkpt><trkpt lat="43.44785679137474" lon="5.861702196301801"><ele>314.0</ele><time>2026-04-11T15:29:20Z</time></trkpt><trkpt lat="43.447945779631794" lon="5.861594441946528"><ele>314.0</ele><time>2026-04-11T15:29:21Z</time></trkpt><trkpt lat="43.4480247309843" lon="5.861497371928767"><ele>313.4</ele><time>2026-04-11T15:29:22Z</time></trkpt><trkpt lat="43.44809439722812" lon="5.861414321895478"><ele>312.79999999999995</ele><time>2026-04-11T15:29:23Z</time></trkpt><trkpt lat="43.44815713261344" lon="5.861343529407088"><ele>312.20000000000005</ele><time>2026-04-11T15:29:24Z</time></trkpt><trkpt lat="43.44820635589061" lon="5.861283085519627"><ele>311.6</ele><time>2026-04-11T15:29:25Z</time></trkpt><trkpt lat="43.44828480884437" lon="5.861234970032346"><ele>311.0</ele><time>2026-04-11T15:29:27Z</time></trkpt><trkpt lat="43.448437063336286" lon="5.8612381077105535"><ele>311.0</ele><time>2026-04-11T15:29:32Z</time></trkpt><trkpt lat="43.44854500692093" lon="5.861245485795374"><ele>311.0</ele><time>2026-04-11T15:29:34Z</time></trkpt><trkpt lat="43.44860211011716" lon="5.861137721926392"><ele>311.0</ele><time>2026-04-11T15:29:36Z</time></trkpt><trkpt lat="43.448625467559765" lon="5.861013001836617"><ele>311.0</ele><time>2026-04-11T15:29:38Z</time></trkpt><trkpt lat="43.44858985970867" lon="5.860878372571782"><ele>311.0</ele><time>2026-04-11T15:29:40Z</time></trkpt><trkpt lat="43.44850756928996" lon="5.860831493556009"><ele>311.0</ele><time>2026-04-11T15:29:42Z</time></trkpt><trkpt lat="43.448399522106875" lon="5.860828070180622"><ele>311.0</ele><time>2026-04-11T15:29:44Z</time></trkpt><trkpt lat="43.44832151521509" lon="5.8609017490546504"><ele>311.0</ele><time>2026-04-11T15:29:46Z</time></trkpt><trkpt lat="43.448293469343746" lon="5.861042741043192"><ele>311.0</ele><time>2026-04-11T15:29:48Z</time></trkpt><trkpt lat="43.44826450502816" lon="5.861142667934598"><ele>311.0</ele><time>2026-04-11T15:29:50Z</time></trkpt><trkpt lat="43.44819710361825" lon="5.861192615446404"><ele>311.0</ele><time>2026-04-11T15:29:52Z</time></trkpt><trkpt lat="43.44810719813655" lon="5.8612938554937495"><ele>311.0</ele><time>2026-04-11T15:29:54Z</time></trkpt><trkpt lat="43.44805673068962" lon="5.8613604838547895"><ele>311.0</ele><time>2026-04-11T15:29:55Z</time></trkpt><trkpt lat="43.44799877986214" lon="5.8614364768593425"><ele>311.0</ele><time>2026-04-11T15:29:56Z</time></trkpt><trkpt lat="43.447948675602404" lon="5.861501677338379"><ele>311.0</ele><time>2026-04-11T15:29:57Z</time></trkpt><trkpt lat="43.447867733539375" lon="5.861594535694429"><ele>311.0</ele><time>2026-04-11T15:29:59Z</time></trkpt><trkpt lat="43.44780039372728" lon="5.861670770264039"><ele>311.40000000000003</ele><time>2026-04-11T15:30:01Z</time></trkpt><trkpt lat="43.44773874374362" lon="5.861744741487952"><ele>311.8</ele><time>2026-04-11T15:30:03Z</time></trkpt><trkpt lat="43.44766329373314" lon="5.861847091417574"><ele>312.20000000000005</ele><time>2026-04-11T15:30:06Z</time></trkpt><trkpt lat="43.44762556130927" lon="5.861920957741496"><ele>312.6</ele><time>2026-04-11T15:30:07Z</time></trkpt><trkpt lat="43.44756047495402" lon="5.862013240322747"><ele>313.0</ele><time>2026-04-11T15:30:08Z</time></trkpt><trkpt lat="43.447468502841254" lon="5.862141833893379"><ele>313.3333333333333</ele><time>2026-04-11T15:30:09Z</time></trkpt><trkpt lat="43.447375557013196" lon="5.862277054136505"><ele>313.6666666666667</ele><time>2026-04-11T15:30:10Z</time></trkpt><trkpt lat="43.44726524515455" lon="5.862434897092203"><ele>314.0</ele><time>2026-04-11T15:30:11Z</time></trkpt><trkpt lat="43.44713722431213" lon="5.862616774765442"><ele>315.0</ele><time>2026-04-11T15:30:12Z</time></trkpt><trkpt lat="43.447011483743495" lon="5.862798551275717"><ele>316.0</ele><time>2026-04-11T15:30:13Z</time></trkpt><trkpt lat="43.44687356219067" lon="5.862998395008508"><ele>317.0</ele><time>2026-04-11T15:30:14Z</time></trkpt><trkpt lat="43.446711041771785" lon="5.863223479920699"><ele>317.0</ele><time>2026-04-11T15:30:15Z</time></trkpt><trkpt lat="43.44655684311432" lon="5.863435228619144"><ele>317.0</ele><time>2026-04-11T15:30:15.999Z</time></trkpt><trkpt lat="43.44642866923726" lon="5.863625781907618"><ele>317.0</ele><time>2026-04-11T15:30:16.999Z</time></trkpt><trkpt lat="43.44631366835035" lon="5.863797128730361"><ele>317.25</ele><time>2026-04-11T15:30:17.999Z</time></trkpt><trkpt lat="43.44620114639188" lon="5.863960828586076"><ele>317.5</ele><time>2026-04-11T15:30:18.999Z</time></trkpt><trkpt lat="43.446105338924546" lon="5.8641001697028345"><ele>317.75</ele><time>2026-04-11T15:30:19.999Z</time></trkpt><trkpt lat="43.44601246607492" lon="5.864234249457493"><ele>318.0</ele><time>2026-04-11T15:30:20.999Z</time></trkpt><trkpt lat="43.44591687775139" lon="5.864351410449619"><ele>318.0</ele><time>2026-04-11T15:30:21.999Z</time></trkpt><trkpt lat="43.44583835699588" lon="5.864446461186278"><ele>318.0</ele><time>2026-04-11T15:30:22.999Z</time></trkpt><trkpt lat="43.445770906666056" lon="5.864522123972275"><ele>318.0</ele><time>2026-04-11T15:30:23.999Z</time></trkpt><trkpt lat="43.44570094402638" lon="5.8645823632935"><ele>318.0</ele><time>2026-04-11T15:30:24.999Z</time></trkpt><trkpt lat="43.44562214116395" lon="5.864612517121998"><ele>318.0</ele><time>2026-04-11T15:30:25.999Z</time></trkpt><trkpt lat="43.44554715827043" lon="5.864621479739285"><ele>318.0</ele><time>2026-04-11T15:30:26.999Z</time></trkpt><trkpt lat="43.44548322246091" lon="5.86466361001338"><ele>318.2</ele><time>2026-04-11T15:30:27.999Z</time></trkpt><trkpt lat="43.44543295767087" lon="5.864750499023418"><ele>318.4</ele><time>2026-04-11T15:30:28.999Z</time></trkpt><trkpt lat="43.44540765938316" lon="5.864875917694724"><ele>318.59999999999997</ele><time>2026-04-11T15:30:29.999Z</time></trkpt><trkpt lat="43.44539452561346" lon="5.8650033877953796"><ele>318.8</ele><time>2026-04-11T15:30:30.999Z</time></trkpt><trkpt lat="43.445362377755856" lon="5.865123304385869"><ele>319.0</ele><time>2026-04-11T15:30:31.999Z</time></trkpt><trkpt lat="43.445300471851496" lon="5.865232229015986"><ele>319.0</ele><time>2026-04-11T15:30:32.999Z</time></trkpt><trkpt lat="43.4452207166261" lon="5.8653436890699435"><ele>319.0</ele><time>2026-04-11T15:30:33.999Z</time></trkpt><trkpt lat="43.44513766146943" lon="5.865446040787307"><ele>319.0</ele><time>2026-04-11T15:30:35Z</time></trkpt><trkpt lat="43.445058603015944" lon="5.865557381479264"><ele>319.0</ele><time>2026-04-11T15:30:36Z</time></trkpt><trkpt lat="43.44496161329205" lon="5.865700699802321"><ele>319.0</ele><time>2026-04-11T15:30:37Z</time></trkpt><trkpt lat="43.44484410072535" lon="5.865860310174027"><ele>319.0</ele><time>2026-04-11T15:30:38Z</time></trkpt><trkpt lat="43.444709678596396" lon="5.86604137338669"><ele>319.0</ele><time>2026-04-11T15:30:39Z</time></trkpt><trkpt lat="43.444590540548916" lon="5.866207917994499"><ele>318.5</ele><time>2026-04-11T15:30:40Z</time></trkpt><trkpt lat="43.444486234292505" lon="5.866359685225178"><ele>318.0</ele><time>2026-04-11T15:30:41Z</time></trkpt><trkpt lat="43.44439299435284" lon="5.866494079965454"><ele>317.5</ele><time>2026-04-11T15:30:42Z</time></trkpt><trkpt lat="43.44432186265159" lon="5.866596196453439"><ele>317.0</ele><time>2026-04-11T15:30:43Z</time></trkpt><trkpt lat="43.444263901607165" lon="5.86667814310671"><ele>317.0</ele><time>2026-04-11T15:30:44Z</time></trkpt><trkpt lat="43.44421214140811" lon="5.866748136314431"><ele>317.0</ele><time>2026-04-11T15:30:45Z</time></trkpt><trkpt lat="43.444158175224075" lon="5.866823468369067"><ele>317.0</ele><time>2026-04-11T15:30:46Z</time></trkpt><trkpt lat="43.44409808927217" lon="5.866910808728212"><ele>317.0</ele><time>2026-04-11T15:30:47Z</time></trkpt><trkpt lat="43.44402518329192" lon="5.867019077406761"><ele>317.0</ele><time>2026-04-11T15:30:48Z</time></trkpt><trkpt lat="43.44393935085764" lon="5.867151778566273"><ele>317.0</ele><time>2026-04-11T15:30:49Z</time></trkpt><trkpt lat="43.443841366176315" lon="5.867298129060939"><ele>317.0</ele><time>2026-04-11T15:30:50Z</time></trkpt><trkpt lat="43.44372646126963" lon="5.867455436736978"><ele>317.0</ele><time>2026-04-11T15:30:51Z</time></trkpt><trkpt lat="43.443603101255434" lon="5.867621652215197"><ele>317.0</ele><time>2026-04-11T15:30:52Z</time></trkpt><trkpt lat="43.44346746540061" lon="5.8678078501838735"><ele>317.0</ele><time>2026-04-11T15:30:53Z</time></trkpt><trkpt lat="43.44333416696705" lon="5.867988792772797"><ele>317.0</ele><time>2026-04-11T15:30:54Z</time></trkpt><trkpt lat="43.443211097339564" lon="5.868155608218766"><ele>317.0</ele><time>2026-04-11T15:30:55Z</time></trkpt><trkpt lat="43.44310125802082" lon="5.868309634283565"><ele>317.0</ele><time>2026-04-11T15:30:56Z</time></trkpt><trkpt lat="43.442985377904016" lon="5.868471426661474"><ele>317.0</ele><time>2026-04-11T15:30:57Z</time></trkpt><trkpt lat="43.442850974697805" lon="5.868652928011188"><ele>317.6666666666667</ele><time>2026-04-11T15:30:58Z</time></trkpt><trkpt lat="43.44271863579819" lon="5.8688265046086725"><ele>318.3333333333333</ele><time>2026-04-11T15:30:59Z</time></trkpt><trkpt lat="43.442601310247" lon="5.868979825336844"><ele>319.0</ele><time>2026-04-11T15:31:00Z</time></trkpt><trkpt lat="43.44249853713114" lon="5.869115956753898"><ele>319.0</ele><time>2026-04-11T15:31:01Z</time></trkpt><trkpt lat="43.44239459499945" lon="5.8692393581547355"><ele>319.0</ele><time>2026-04-11T15:31:02Z</time></trkpt><trkpt lat="43.442309709420975" lon="5.869327199097825"><ele>319.0</ele><time>2026-04-11T15:31:03Z</time></trkpt><trkpt lat="43.442255116987425" lon="5.869397424177937"><ele>319.0</ele><time>2026-04-11T15:31:04Z</time></trkpt><trkpt lat="43.442197368804635" lon="5.869474996619241"><ele>319.0</ele><time>2026-04-11T15:31:06Z</time></trkpt><trkpt lat="43.442083433462315" lon="5.869318158881358"><ele>319.0</ele><time>2026-04-11T15:31:08Z</time></trkpt><trkpt lat="43.44204425021921" lon="5.869189797018119"><ele>319.0</ele><time>2026-04-11T15:31:09Z</time></trkpt><trkpt lat="43.44197862885402" lon="5.869063389192589"><ele>319.0</ele><time>2026-04-11T15:31:10Z</time></trkpt><trkpt lat="43.441878109280175" lon="5.868923794820279"><ele>319.0</ele><time>2026-04-11T15:31:11Z</time></trkpt><trkpt lat="43.44175164078606" lon="5.868765293892296"><ele>319.0</ele><time>2026-04-11T15:31:12Z</time></trkpt><trkpt lat="43.441624108533375" lon="5.8685966393555065"><ele>319.0</ele><time>2026-04-11T15:31:13Z</time></trkpt><trkpt lat="43.441506683814126" lon="5.86840374761092"><ele>319.0</ele><time>2026-04-11T15:31:14Z</time></trkpt><trkpt lat="43.44141087195486" lon="5.868197989723199"><ele>319.5</ele><time>2026-04-11T15:31:15Z</time></trkpt><trkpt lat="43.4413336651678" lon="5.86802965285534"><ele>320.0</ele><time>2026-04-11T15:31:16Z</time></trkpt><trkpt lat="43.44125425541243" lon="5.867861632528541"><ele>320.5</ele><time>2026-04-11T15:31:17Z</time></trkpt><trkpt lat="43.441169333964226" lon="5.867687178784447"><ele>321.0</ele><time>2026-04-11T15:31:18Z</time></trkpt><trkpt lat="43.44108550001535" lon="5.867496085252133"><ele>322.0</ele><time>2026-04-11T15:31:19Z</time></trkpt><trkpt lat="43.441037172403725" lon="5.867307913115834"><ele>323.0</ele><time>2026-04-11T15:31:20Z</time></trkpt><trkpt lat="43.440979659510106" lon="5.8671343847922515"><ele>324.0</ele><time>2026-04-11T15:31:21Z</time></trkpt><trkpt lat="43.44093332001802" lon="5.866964406979561"><ele>325.0</ele><time>2026-04-11T15:31:22Z</time></trkpt><trkpt lat="43.44086140744109" lon="5.866757435269068"><ele>325.0</ele><time>2026-04-11T15:31:23Z</time></trkpt><trkpt lat="43.44078366395194" lon="5.866533347788319"><ele>325.0</ele><time>2026-04-11T15:31:24Z</time></trkpt><trkpt lat="43.4407125665298" lon="5.866294870212578"><ele>325.0</ele><time>2026-04-11T15:31:25Z</time></trkpt><trkpt lat="43.44064047204496" lon="5.8660433243602"><ele>326.0</ele><time>2026-04-11T15:31:26Z</time></trkpt><trkpt lat="43.44057087823063" lon="5.865800634023451"><ele>327.0</ele><time>2026-04-11T15:31:27Z</time></trkpt><trkpt lat="43.44050887340242" lon="5.865600663318765"><ele>328.0</ele><time>2026-04-11T15:31:28Z</time></trkpt><trkpt lat="43.440458834437614" lon="5.865400390696332"><ele>328.3333333333333</ele><time>2026-04-11T15:31:29Z</time></trkpt><trkpt lat="43.440394119929046" lon="5.865181646262946"><ele>328.6666666666667</ele><time>2026-04-11T15:31:30Z</time></trkpt><trkpt lat="43.44033416872252" lon="5.864948250818629"><ele>329.0</ele><time>2026-04-11T15:31:31Z</time></trkpt><trkpt lat="43.44027179913179" lon="5.864719870207891"><ele>329.5</ele><time>2026-04-11T15:31:32Z</time></trkpt><trkpt lat="43.4402114019341" lon="5.864526024277116"><ele>330.0</ele><time>2026-04-11T15:31:33Z</time></trkpt><trkpt lat="43.44016206534488" lon="5.864345290870389"><ele>330.5</ele><time>2026-04-11T15:31:34Z</time></trkpt><trkpt lat="43.44012388159684" lon="5.864168901714889"><ele>331.0</ele><time>2026-04-11T15:31:35Z</time></trkpt><trkpt lat="43.44008529018761" lon="5.864004272268952"><ele>331.20000000000005</ele><time>2026-04-11T15:31:36Z</time></trkpt><trkpt lat="43.44004040160414" lon="5.86385694855514"><ele>331.40000000000003</ele><time>2026-04-11T15:31:37Z</time></trkpt><trkpt lat="43.439998680498924" lon="5.863716989668625"><ele>331.6</ele><time>2026-04-11T15:31:38Z</time></trkpt><trkpt lat="43.43996226259763" lon="5.863592467282414"><ele>331.8</ele><time>2026-04-11T15:31:39Z</time></trkpt><trkpt lat="43.43991912313829" lon="5.863495817598042"><ele>332.0</ele><time>2026-04-11T15:31:40Z</time></trkpt><trkpt lat="43.43987144547361" lon="5.863417144342365"><ele>332.5</ele><time>2026-04-11T15:31:41Z</time></trkpt><trkpt lat="43.43983523762444" lon="5.863283724587776"><ele>333.0</ele><time>2026-04-11T15:31:43Z</time></trkpt><trkpt lat="43.4398540606017" lon="5.8631868216379095"><ele>333.5</ele><time>2026-04-11T15:31:45Z</time></trkpt><trkpt lat="43.43994788617608" lon="5.863189934900807"><ele>334.0</ele><time>2026-04-11T15:31:46Z</time></trkpt><trkpt lat="43.44002542779382" lon="5.86312842379507"><ele>334.5</ele><time>2026-04-11T15:31:47Z</time></trkpt><trkpt lat="43.4400510164229" lon="5.863036701165668"><ele>335.0</ele><time>2026-04-11T15:31:48Z</time></trkpt><trkpt lat="43.44005267244214" lon="5.8629447472835565"><ele>335.0</ele><time>2026-04-11T15:31:49Z</time></trkpt><trkpt lat="43.44001164539305" lon="5.862864171415392"><ele>335.0</ele><time>2026-04-11T15:31:50Z</time></trkpt><trkpt lat="43.43995284619927" lon="5.862789473290255"><ele>335.0</ele><time>2026-04-11T15:31:51Z</time></trkpt><trkpt lat="43.439872883259525" lon="5.86268270111234"><ele>335.0</ele><time>2026-04-11T15:31:52Z</time></trkpt><trkpt lat="43.43983350680404" lon="5.862527730318866"><ele>335.0</ele><time>2026-04-11T15:31:53Z</time></trkpt><trkpt lat="43.43978421379558" lon="5.862416648023724"><ele>335.5</ele><time>2026-04-11T15:31:54Z</time></trkpt><trkpt lat="43.439743571023094" lon="5.862282384544241"><ele>336.0</ele><time>2026-04-11T15:31:55Z</time></trkpt><trkpt lat="43.43969834756487" lon="5.862132425686784"><ele>336.5</ele><time>2026-04-11T15:31:56Z</time></trkpt><trkpt lat="43.43963559597964" lon="5.861929617524669"><ele>337.0</ele><time>2026-04-11T15:31:57Z</time></trkpt><trkpt lat="43.439569237169835" lon="5.8617277563728925"><ele>338.5</ele><time>2026-04-11T15:31:58Z</time></trkpt><trkpt lat="43.439509854709904" lon="5.861550747393605"><ele>340.0</ele><time>2026-04-11T15:31:59Z</time></trkpt><trkpt lat="43.439446617366364" lon="5.861369544191759"><ele>341.5</ele><time>2026-04-11T15:32:00Z</time></trkpt><trkpt lat="43.439375628614904" lon="5.8611721830043635"><ele>343.0</ele><time>2026-04-11T15:32:01Z</time></trkpt><trkpt lat="43.43930153908316" lon="5.860987285959755"><ele>343.75</ele><time>2026-04-11T15:32:02Z</time></trkpt><trkpt lat="43.43925509239663" lon="5.860785920495932"><ele>344.5</ele><time>2026-04-11T15:32:03Z</time></trkpt><trkpt lat="43.43921574812978" lon="5.860625919036794"><ele>345.25</ele><time>2026-04-11T15:32:04Z</time></trkpt><trkpt lat="43.43913382558776" lon="5.860442216340857"><ele>346.0</ele><time>2026-04-11T15:32:05Z</time></trkpt><trkpt lat="43.43905866678196" lon="5.860276954976171"><ele>346.0</ele><time>2026-04-11T15:32:06Z</time></trkpt><trkpt lat="43.43892719193146" lon="5.860128059784314"><ele>346.0</ele><time>2026-04-11T15:32:07Z</time></trkpt><trkpt lat="43.43885166242565" lon="5.85996432612586"><ele>346.0</ele><time>2026-04-11T15:32:08Z</time></trkpt><trkpt lat="43.43877724929978" lon="5.85982265904978"><ele>346.0</ele><time>2026-04-11T15:32:09Z</time></trkpt><trkpt lat="43.438705119221495" lon="5.859691408396614"><ele>345.8</ele><time>2026-04-11T15:32:10Z</time></trkpt><trkpt lat="43.43864228736793" lon="5.859573015620191"><ele>345.6</ele><time>2026-04-11T15:32:11Z</time></trkpt><trkpt lat="43.43859266896598" lon="5.859456898334834"><ele>345.4</ele><time>2026-04-11T15:32:12Z</time></trkpt><trkpt lat="43.438585230788206" lon="5.859344370976442"><ele>345.2</ele><time>2026-04-11T15:32:13Z</time></trkpt><trkpt lat="43.43862583846779" lon="5.859233477399569"><ele>345.0</ele><time>2026-04-11T15:32:13.999Z</time></trkpt><trkpt lat="43.43868869440417" lon="5.859126774778326"><ele>345.75</ele><time>2026-04-11T15:32:14.999Z</time></trkpt><trkpt lat="43.438774737501326" lon="5.859005530874588"><ele>346.5</ele><time>2026-04-11T15:32:15.999Z</time></trkpt><trkpt lat="43.43886612371737" lon="5.858856446781064"><ele>347.25</ele><time>2026-04-11T15:32:16.999Z</time></trkpt><trkpt lat="43.438957306588094" lon="5.8587169714496845"><ele>348.0</ele><time>2026-04-11T15:32:17.999Z</time></trkpt><trkpt lat="43.43905458560293" lon="5.8585452801070215"><ele>348.25</ele><time>2026-04-11T15:32:18.999Z</time></trkpt><trkpt lat="43.439129326197694" lon="5.858391012464006"><ele>348.5</ele><time>2026-04-11T15:32:19.999Z</time></trkpt><trkpt lat="43.43917463715304" lon="5.858253071943939"><ele>348.75</ele><time>2026-04-11T15:32:20.999Z</time></trkpt><trkpt lat="43.43923193814374" lon="5.85810099521617"><ele>349.0</ele><time>2026-04-11T15:32:21.999Z</time></trkpt><trkpt lat="43.43928234229456" lon="5.85795915897486"><ele>349.0</ele><time>2026-04-11T15:32:22.999Z</time></trkpt><trkpt lat="43.43932240199285" lon="5.8578619315476494"><ele>349.0</ele><time>2026-04-11T15:32:23.999Z</time></trkpt><trkpt lat="43.43934645644829" lon="5.8577809667667875"><ele>349.0</ele><time>2026-04-11T15:32:24.999Z</time></trkpt><trkpt lat="43.43936717740989" lon="5.857695132318363"><ele>349.0</ele><time>2026-04-11T15:32:26.999Z</time></trkpt><trkpt lat="43.43944409289337" lon="5.857583952219496"><ele>349.0</ele><time>2026-04-11T15:32:41Z</time></trkpt><trkpt lat="43.43947530053576" lon="5.857499501713789"><ele>349.0</ele><time>2026-04-11T15:32:42Z</time></trkpt><trkpt lat="43.43949000150803" lon="5.857386574716495"><ele>348.6</ele><time>2026-04-11T15:32:43Z</time></trkpt><trkpt lat="43.439530081355514" lon="5.857299247691292"><ele>348.2</ele><time>2026-04-11T15:32:44Z</time></trkpt><trkpt lat="43.439572421615615" lon="5.857161776627387"><ele>347.8</ele><time>2026-04-11T15:32:46Z</time></trkpt><trkpt lat="43.43961762576814" lon="5.857015526177708"><ele>347.40000000000003</ele><time>2026-04-11T15:32:48Z</time></trkpt><trkpt lat="43.43963939828003" lon="5.856887150821767"><ele>347.0</ele><time>2026-04-11T15:32:49Z</time></trkpt><trkpt lat="43.439645060659046" lon="5.856715807722301"><ele>344.33333333333337</ele><time>2026-04-11T15:32:50Z</time></trkpt><trkpt lat="43.439651032966" lon="5.856511026660851"><ele>341.6666666666667</ele><time>2026-04-11T15:32:51Z</time></trkpt><trkpt lat="43.43967150134537" lon="5.856285598148814"><ele>339.0</ele><time>2026-04-11T15:32:52Z</time></trkpt><trkpt lat="43.43969854020246" lon="5.856041527673591"><ele>340.3333333333333</ele><time>2026-04-11T15:32:53Z</time></trkpt><trkpt lat="43.43972720702903" lon="5.855817955421904"><ele>341.66666666666663</ele><time>2026-04-11T15:32:54Z</time></trkpt><trkpt lat="43.43976512179363" lon="5.855623428556767"><ele>343.0</ele><time>2026-04-11T15:32:55Z</time></trkpt><trkpt lat="43.439808603699554" lon="5.855433764101923"><ele>343.0</ele><time>2026-04-11T15:32:56Z</time></trkpt><trkpt lat="43.43985352697693" lon="5.855270795961234"><ele>343.0</ele><time>2026-04-11T15:32:57Z</time></trkpt><trkpt lat="43.43989617847329" lon="5.855104167694668"><ele>343.0</ele><time>2026-04-11T15:32:58Z</time></trkpt><trkpt lat="43.439936847599434" lon="5.854913452700208"><ele>343.0</ele><time>2026-04-11T15:32:59Z</time></trkpt><trkpt lat="43.43994919223788" lon="5.854702894586638"><ele>344.5</ele><time>2026-04-11T15:33:00Z</time></trkpt><trkpt lat="43.43993747656973" lon="5.854487852507002"><ele>346.0</ele><time>2026-04-11T15:33:01Z</time></trkpt><trkpt lat="43.43993740624741" lon="5.854300177554677"><ele>347.5</ele><time>2026-04-11T15:33:02Z</time></trkpt><trkpt lat="43.439967965628895" lon="5.854128728335984"><ele>349.0</ele><time>2026-04-11T15:33:03Z</time></trkpt><trkpt lat="43.44000902411992" lon="5.853965732876319"><ele>349.4</ele><time>2026-04-11T15:33:04Z</time></trkpt><trkpt lat="43.440045169323234" lon="5.85382373838159"><ele>349.79999999999995</ele><time>2026-04-11T15:33:05Z</time></trkpt><trkpt lat="43.44005990213469" lon="5.853694469100038"><ele>350.20000000000005</ele><time>2026-04-11T15:33:06Z</time></trkpt><trkpt lat="43.44003667829482" lon="5.853560803782829"><ele>350.6</ele><time>2026-04-11T15:33:07Z</time></trkpt><trkpt lat="43.44000077260443" lon="5.853406691862329"><ele>351.0</ele><time>2026-04-11T15:33:08Z</time></trkpt><trkpt lat="43.43998606956453" lon="5.853257455253456"><ele>352.0</ele><time>2026-04-11T15:33:09Z</time></trkpt><trkpt lat="43.44001723529478" lon="5.853077474775859"><ele>353.0</ele><time>2026-04-11T15:33:10Z</time></trkpt><trkpt lat="43.44004260258133" lon="5.852890040902588"><ele>354.0</ele><time>2026-04-11T15:33:11Z</time></trkpt><trkpt lat="43.44006523356344" lon="5.8527617958321185"><ele>355.0</ele><time>2026-04-11T15:33:12Z</time></trkpt><trkpt lat="43.44006835774746" lon="5.852668431234614"><ele>356.0</ele><time>2026-04-11T15:33:13Z</time></trkpt><trkpt lat="43.43997386145022" lon="5.852548553678777"><ele>358.0</ele><time>2026-04-11T15:33:15Z</time></trkpt><trkpt lat="43.43987565183475" lon="5.852500702745312"><ele>360.0</ele><time>2026-04-11T15:33:16Z</time></trkpt><trkpt lat="43.43976879242101" lon="5.852460522329937"><ele>362.0</ele><time>2026-04-11T15:33:17Z</time></trkpt><trkpt lat="43.439625678999754" lon="5.852397223478363"><ele>364.0</ele><time>2026-04-11T15:33:18Z</time></trkpt><trkpt lat="43.439501457547735" lon="5.852324885382864"><ele>365.0</ele><time>2026-04-11T15:33:19Z</time></trkpt><trkpt lat="43.439391785039255" lon="5.852237949204563"><ele>366.0</ele><time>2026-04-11T15:33:20Z</time></trkpt><trkpt lat="43.43926906082552" lon="5.852131121497969"><ele>367.0</ele><time>2026-04-11T15:33:21Z</time></trkpt><trkpt lat="43.43914127467793" lon="5.852041228003581"><ele>368.0</ele><time>2026-04-11T15:33:22Z</time></trkpt><trkpt lat="43.43906017897871" lon="5.8519835953029995"><ele>368.0</ele><time>2026-04-11T15:33:23Z</time></trkpt><trkpt lat="43.438973507202185" lon="5.851959137377522"><ele>368.0</ele><time>2026-04-11T15:33:25Z</time></trkpt><trkpt lat="43.43891269686881" lon="5.852050735148942"><ele>368.0</ele><time>2026-04-11T15:33:27Z</time></trkpt><trkpt lat="43.438890638291916" lon="5.85214469997351"><ele>368.0</ele><time>2026-04-11T15:33:28Z</time></trkpt><trkpt lat="43.43887553320512" lon="5.852272635577917"><ele>368.0</ele><time>2026-04-11T15:33:29Z</time></trkpt><trkpt lat="43.43886284155859" lon="5.8523878543372625"><ele>368.0</ele><time>2026-04-11T15:33:30Z</time></trkpt><trkpt lat="43.43882859116652" lon="5.852529158627106"><ele>368.0</ele><time>2026-04-11T15:33:32Z</time></trkpt><trkpt lat="43.43877821637899" lon="5.852591797060576"><ele>361.0</ele><time>2026-04-11T15:33:44Z</time></trkpt></trkseg></trk></gpx>